<?xml version='1.0' encoding='UTF-8'?><gpx version="1.1" creator="JPX - https://github.com/jenetics/jpx" xmlns="http://www.topografix.com/GPX/1/1"><trk><trkseg><trkpt lat="43.1605723" lon="12.2841045"><ele>249.99999999999997</ele><time>2026-03-29T07:11:59.436Z</time></trkpt><trkpt lat="43.1606535" lon="12.2841133"><ele>250.0</ele><time>2026-03-29T07:12:22.435Z</time></trkpt><trkpt lat="43.1607346" lon="12.284099"><ele>250.0</ele><time>2026-03-29T07:12:24.436Z</time></trkpt><trkpt lat="43.160815" lon="12.2841378"><ele>250.0</ele><time>2026-03-29T07:12:26.435Z</time></trkpt><trkpt lat="43.1608971" lon="12.2841202"><ele>249.99999999999997</ele><time>2026-03-29T07:12:28.436Z</time></trkpt><trkpt lat="43.1609646" lon="12.2840621"><ele>250.0</ele><time>2026-03-29T07:12:30.435Z</time></trkpt><trkpt lat="43.161027" lon="12.2839991"><ele>250.0</ele><time>2026-03-29T07:12:33.436Z</time></trkpt><trkpt lat="43.1610864" lon="12.2839568"><ele>250.0</ele><time>2026-03-29T07:13:08.436Z</time></trkpt><trkpt lat="43.1611716" lon="12.2839261"><ele>250.0</ele><time>2026-03-29T07:13:10.435Z</time></trkpt><trkpt lat="43.1612606" lon="12.2837905"><ele>250.0</ele><time>2026-03-29T07:13:12.436Z</time></trkpt><trkpt lat="43.1613111" lon="12.2836904"><ele>250.0</ele><time>2026-03-29T07:13:13.435Z</time></trkpt><trkpt lat="43.1613651" lon="12.283588"><ele>250.0</ele><time>2026-03-29T07:13:14.436Z</time></trkpt><trkpt lat="43.1614313" lon="12.2834566"><ele>250.0</ele><time>2026-03-29T07:13:15.435Z</time></trkpt><trkpt lat="43.1614924" lon="12.2833366"><ele>250.0</ele><time>2026-03-29T07:13:16.435Z</time></trkpt><trkpt lat="43.1615402" lon="12.2832404"><ele>250.0</ele><time>2026-03-29T07:13:17.436Z</time></trkpt><trkpt lat="43.1615782" lon="12.2831662"><ele>250.0</ele><time>2026-03-29T07:13:18.436Z</time></trkpt><trkpt lat="43.1616196" lon="12.2830605"><ele>250.14285714285714</ele><time>2026-03-29T07:13:20.435Z</time></trkpt><trkpt lat="43.1615872" lon="12.2829732"><ele>250.28571428571428</ele><time>2026-03-29T07:13:23.435Z</time></trkpt><trkpt lat="43.1616004" lon="12.2828851"><ele>250.42857142857142</ele><time>2026-03-29T07:13:26.436Z</time></trkpt><trkpt lat="43.1616581" lon="12.2828347"><ele>250.57142857142856</ele><time>2026-03-29T07:13:29.436Z</time></trkpt><trkpt lat="43.1617039" lon="12.2827555"><ele>250.71428571428572</ele><time>2026-03-29T07:15:31.435Z</time></trkpt><trkpt lat="43.1617623" lon="12.2827136"><ele>250.85714285714283</ele><time>2026-03-29T07:15:33.436Z</time></trkpt><trkpt lat="43.1618473" lon="12.2826318"><ele>250.99999999999997</ele><time>2026-03-29T07:15:35.435Z</time></trkpt><trkpt lat="43.1618841" lon="12.2825563"><ele>251.0</ele><time>2026-03-29T07:15:36.435Z</time></trkpt><trkpt lat="43.1619283" lon="12.282457"><ele>251.00000000000003</ele><time>2026-03-29T07:15:37.435Z</time></trkpt><trkpt lat="43.161974" lon="12.2823632"><ele>251.00000000000003</ele><time>2026-03-29T07:15:38.436Z</time></trkpt><trkpt lat="43.1620405" lon="12.2822603"><ele>251.0</ele><time>2026-03-29T07:15:39.435Z</time></trkpt><trkpt lat="43.1620993" lon="12.2821463"><ele>251.0</ele><time>2026-03-29T07:15:40.436Z</time></trkpt><trkpt lat="43.1621541" lon="12.2820271"><ele>250.8</ele><time>2026-03-29T07:15:41.435Z</time></trkpt><trkpt lat="43.1622107" lon="12.2819185"><ele>250.60000000000002</ele><time>2026-03-29T07:15:42.435Z</time></trkpt><trkpt lat="43.1622672" lon="12.2818083"><ele>250.4</ele><time>2026-03-29T07:15:43.436Z</time></trkpt><trkpt lat="43.1623215" lon="12.2817033"><ele>250.2</ele><time>2026-03-29T07:15:44.434Z</time></trkpt><trkpt lat="43.1623716" lon="12.2816019"><ele>250.0</ele><time>2026-03-29T07:15:45.435Z</time></trkpt><trkpt lat="43.1624264" lon="12.2814933"><ele>250.0</ele><time>2026-03-29T07:15:46.435Z</time></trkpt><trkpt lat="43.1624905" lon="12.2813895"><ele>250.0</ele><time>2026-03-29T07:15:47.435Z</time></trkpt><trkpt lat="43.162551" lon="12.2812886"><ele>250.0</ele><time>2026-03-29T07:15:48.436Z</time></trkpt><trkpt lat="43.1626075" lon="12.2811815"><ele>250.0</ele><time>2026-03-29T07:15:49.436Z</time></trkpt><trkpt lat="43.1626551" lon="12.2810821"><ele>250.0</ele><time>2026-03-29T07:15:50.435Z</time></trkpt><trkpt lat="43.1627127" lon="12.2809807"><ele>250.0</ele><time>2026-03-29T07:15:51.436Z</time></trkpt><trkpt lat="43.1627682" lon="12.2808593"><ele>250.0</ele><time>2026-03-29T07:15:52.436Z</time></trkpt><trkpt lat="43.1628201" lon="12.2807525"><ele>250.0</ele><time>2026-03-29T07:15:53.434Z</time></trkpt><trkpt lat="43.1628742" lon="12.2806417"><ele>250.0</ele><time>2026-03-29T07:15:54.435Z</time></trkpt><trkpt lat="43.1629318" lon="12.28053"><ele>250.0</ele><time>2026-03-29T07:15:55.436Z</time></trkpt><trkpt lat="43.1629949" lon="12.2804098"><ele>250.2</ele><time>2026-03-29T07:15:56.435Z</time></trkpt><trkpt lat="43.1630561" lon="12.2802945"><ele>250.4</ele><time>2026-03-29T07:15:57.435Z</time></trkpt><trkpt lat="43.1631135" lon="12.2801909"><ele>250.60000000000002</ele><time>2026-03-29T07:15:58.436Z</time></trkpt><trkpt lat="43.1631794" lon="12.2800621"><ele>250.8</ele><time>2026-03-29T07:15:59.435Z</time></trkpt><trkpt lat="43.1632501" lon="12.279932"><ele>251.0</ele><time>2026-03-29T07:16:00.435Z</time></trkpt><trkpt lat="43.1633236" lon="12.2798044"><ele>251.25</ele><time>2026-03-29T07:16:01.436Z</time></trkpt><trkpt lat="43.1633981" lon="12.2796797"><ele>251.5</ele><time>2026-03-29T07:16:02.435Z</time></trkpt><trkpt lat="43.1634869" lon="12.2795674"><ele>251.75</ele><time>2026-03-29T07:16:03.436Z</time></trkpt><trkpt lat="43.1635797" lon="12.2794742"><ele>252.0</ele><time>2026-03-29T07:16:04.436Z</time></trkpt><trkpt lat="43.1636803" lon="12.2793918"><ele>252.0</ele><time>2026-03-29T07:16:05.435Z</time></trkpt><trkpt lat="43.1637781" lon="12.2793316"><ele>252.0</ele><time>2026-03-29T07:16:06.436Z</time></trkpt><trkpt lat="43.1638728" lon="12.2792941"><ele>252.0</ele><time>2026-03-29T07:16:07.435Z</time></trkpt><trkpt lat="43.1639666" lon="12.2792419"><ele>252.0</ele><time>2026-03-29T07:16:08.436Z</time></trkpt><trkpt lat="43.1640346" lon="12.2792129"><ele>252.0</ele><time>2026-03-29T07:16:09.436Z</time></trkpt><trkpt lat="43.1640914" lon="12.2791645"><ele>252.0</ele><time>2026-03-29T07:16:10.435Z</time></trkpt><trkpt lat="43.1641483" lon="12.2791198"><ele>252.39999999999998</ele><time>2026-03-29T07:16:11.435Z</time></trkpt><trkpt lat="43.1641884" lon="12.2789906"><ele>252.79999999999998</ele><time>2026-03-29T07:16:13.435Z</time></trkpt><trkpt lat="43.1641534" lon="12.2788011"><ele>253.2</ele><time>2026-03-29T07:16:14.436Z</time></trkpt><trkpt lat="43.1641336" lon="12.2786885"><ele>253.6</ele><time>2026-03-29T07:16:15.435Z</time></trkpt><trkpt lat="43.164112" lon="12.2785468"><ele>254.0</ele><time>2026-03-29T07:16:16.436Z</time></trkpt><trkpt lat="43.1640799" lon="12.2783878"><ele>254.0</ele><time>2026-03-29T07:16:17.436Z</time></trkpt><trkpt lat="43.1640241" lon="12.2782166"><ele>254.0</ele><time>2026-03-29T07:16:18.436Z</time></trkpt><trkpt lat="43.1639876" lon="12.2780078"><ele>254.0</ele><time>2026-03-29T07:16:19.436Z</time></trkpt><trkpt lat="43.1639725" lon="12.2777901"><ele>254.75</ele><time>2026-03-29T07:16:20.435Z</time></trkpt><trkpt lat="43.1639802" lon="12.2776022"><ele>255.5</ele><time>2026-03-29T07:16:21.435Z</time></trkpt><trkpt lat="43.1639798" lon="12.2773952"><ele>256.25</ele><time>2026-03-29T07:16:22.435Z</time></trkpt><trkpt lat="43.1639798" lon="12.277191"><ele>257.0</ele><time>2026-03-29T07:16:23.436Z</time></trkpt><trkpt lat="43.1639798" lon="12.2770069"><ele>257.0</ele><time>2026-03-29T07:16:24.436Z</time></trkpt><trkpt lat="43.1639804" lon="12.2768395"><ele>257.0</ele><time>2026-03-29T07:16:25.436Z</time></trkpt><trkpt lat="43.1639841" lon="12.2766894"><ele>257.0</ele><time>2026-03-29T07:16:26.436Z</time></trkpt><trkpt lat="43.1640016" lon="12.2765379"><ele>257.0</ele><time>2026-03-29T07:16:27.435Z</time></trkpt><trkpt lat="43.1640335" lon="12.2763849"><ele>257.8</ele><time>2026-03-29T07:16:28.435Z</time></trkpt><trkpt lat="43.164084" lon="12.2762295"><ele>258.6</ele><time>2026-03-29T07:16:29.435Z</time></trkpt><trkpt lat="43.1641374" lon="12.2760871"><ele>259.40000000000003</ele><time>2026-03-29T07:16:30.436Z</time></trkpt><trkpt lat="43.1641877" lon="12.2759663"><ele>260.2</ele><time>2026-03-29T07:16:31.436Z</time></trkpt><trkpt lat="43.1642316" lon="12.2758588"><ele>261.0</ele><time>2026-03-29T07:16:32.435Z</time></trkpt><trkpt lat="43.1642698" lon="12.2757663"><ele>261.0</ele><time>2026-03-29T07:16:33.436Z</time></trkpt><trkpt lat="43.1643351" lon="12.2756238"><ele>261.0</ele><time>2026-03-29T07:16:35.435Z</time></trkpt><trkpt lat="43.1643767" lon="12.2755482"><ele>261.0</ele><time>2026-03-29T07:16:39.435Z</time></trkpt><trkpt lat="43.1643477" lon="12.27547"><ele>261.0</ele><time>2026-03-29T07:16:42.436Z</time></trkpt><trkpt lat="43.1643492" lon="12.2753748"><ele>261.0</ele><time>2026-03-29T07:16:44.435Z</time></trkpt><trkpt lat="43.1643641" lon="12.2752498"><ele>261.0</ele><time>2026-03-29T07:16:46.435Z</time></trkpt><trkpt lat="43.1643954" lon="12.2750683"><ele>260.8</ele><time>2026-03-29T07:16:48.436Z</time></trkpt><trkpt lat="43.1644019" lon="12.2748695"><ele>260.6</ele><time>2026-03-29T07:16:50.436Z</time></trkpt><trkpt lat="43.1644134" lon="12.2747712"><ele>260.4</ele><time>2026-03-29T07:16:51.435Z</time></trkpt><trkpt lat="43.1644198" lon="12.2746676"><ele>260.2</ele><time>2026-03-29T07:16:52.436Z</time></trkpt><trkpt lat="43.1644269" lon="12.2745629"><ele>260.0</ele><time>2026-03-29T07:16:53.435Z</time></trkpt><trkpt lat="43.1644398" lon="12.2744484"><ele>260.4</ele><time>2026-03-29T07:16:54.435Z</time></trkpt><trkpt lat="43.1644517" lon="12.2743424"><ele>260.8</ele><time>2026-03-29T07:16:55.435Z</time></trkpt><trkpt lat="43.1644555" lon="12.2742272"><ele>261.2</ele><time>2026-03-29T07:16:56.435Z</time></trkpt><trkpt lat="43.1644642" lon="12.2740938"><ele>261.6</ele><time>2026-03-29T07:16:57.436Z</time></trkpt><trkpt lat="43.1644789" lon="12.2739426"><ele>262.0</ele><time>2026-03-29T07:16:58.436Z</time></trkpt><trkpt lat="43.1644746" lon="12.2738079"><ele>262.2</ele><time>2026-03-29T07:16:59.436Z</time></trkpt><trkpt lat="43.1644825" lon="12.2736652"><ele>262.4</ele><time>2026-03-29T07:17:00.436Z</time></trkpt><trkpt lat="43.1645024" lon="12.2735257"><ele>262.6</ele><time>2026-03-29T07:17:01.435Z</time></trkpt><trkpt lat="43.1645199" lon="12.2733984"><ele>262.8</ele><time>2026-03-29T07:17:02.436Z</time></trkpt><trkpt lat="43.1645384" lon="12.2732643"><ele>263.0</ele><time>2026-03-29T07:17:03.435Z</time></trkpt><trkpt lat="43.1645497" lon="12.2731272"><ele>263.0</ele><time>2026-03-29T07:17:04.435Z</time></trkpt><trkpt lat="43.1645579" lon="12.2730133"><ele>263.0</ele><time>2026-03-29T07:17:05.435Z</time></trkpt><trkpt lat="43.1645649" lon="12.2729113"><ele>263.0</ele><time>2026-03-29T07:17:07.435Z</time></trkpt><trkpt lat="43.1645631" lon="12.2727999"><ele>263.0</ele><time>2026-03-29T07:17:10.436Z</time></trkpt><trkpt lat="43.1645678" lon="12.27294"><ele>263.0</ele><time>2026-03-29T07:17:39.437Z</time></trkpt><trkpt lat="43.1645557" lon="12.273034"><ele>263.0</ele><time>2026-03-29T07:17:41.436Z</time></trkpt><trkpt lat="43.164539" lon="12.2731267"><ele>263.0</ele><time>2026-03-29T07:17:43.437Z</time></trkpt><trkpt lat="43.1645228" lon="12.2732913"><ele>263.0</ele><time>2026-03-29T07:17:45.436Z</time></trkpt><trkpt lat="43.164511" lon="12.2733888"><ele>263.0</ele><time>2026-03-29T07:17:46.436Z</time></trkpt><trkpt lat="43.1644962" lon="12.2735016"><ele>263.0</ele><time>2026-03-29T07:17:47.437Z</time></trkpt><trkpt lat="43.1644864" lon="12.2736344"><ele>263.0</ele><time>2026-03-29T07:17:48.437Z</time></trkpt><trkpt lat="43.1644789" lon="12.2737693"><ele>263.0</ele><time>2026-03-29T07:17:49.436Z</time></trkpt><trkpt lat="43.1644716" lon="12.2739173"><ele>263.0</ele><time>2026-03-29T07:17:50.436Z</time></trkpt><trkpt lat="43.1644656" lon="12.2740601"><ele>263.0</ele><time>2026-03-29T07:17:51.437Z</time></trkpt><trkpt lat="43.1644489" lon="12.274206"><ele>263.0</ele><time>2026-03-29T07:17:52.436Z</time></trkpt><trkpt lat="43.1644329" lon="12.2743477"><ele>263.0</ele><time>2026-03-29T07:17:53.437Z</time></trkpt><trkpt lat="43.1644176" lon="12.2744745"><ele>262.83333333333337</ele><time>2026-03-29T07:17:54.437Z</time></trkpt><trkpt lat="43.1644012" lon="12.2746058"><ele>262.6666666666667</ele><time>2026-03-29T07:17:55.437Z</time></trkpt><trkpt lat="43.164394" lon="12.2747217"><ele>262.5</ele><time>2026-03-29T07:17:56.437Z</time></trkpt><trkpt lat="43.1643809" lon="12.2748401"><ele>262.3333333333333</ele><time>2026-03-29T07:17:57.437Z</time></trkpt><trkpt lat="43.1643669" lon="12.2749548"><ele>262.16666666666663</ele><time>2026-03-29T07:17:58.437Z</time></trkpt><trkpt lat="43.1643443" lon="12.2750788"><ele>262.0</ele><time>2026-03-29T07:17:59.436Z</time></trkpt><trkpt lat="43.1643423" lon="12.2752003"><ele>261.8333333333333</ele><time>2026-03-29T07:18:00.437Z</time></trkpt><trkpt lat="43.164339" lon="12.2753091"><ele>261.66666666666663</ele><time>2026-03-29T07:18:01.437Z</time></trkpt><trkpt lat="43.1643345" lon="12.2753983"><ele>261.5</ele><time>2026-03-29T07:18:02.437Z</time></trkpt><trkpt lat="43.1643408" lon="12.2755343"><ele>261.3333333333333</ele><time>2026-03-29T07:18:04.437Z</time></trkpt><trkpt lat="43.1643912" lon="12.2756098"><ele>261.1666666666667</ele><time>2026-03-29T07:18:06.437Z</time></trkpt><trkpt lat="43.1645033" lon="12.2756511"><ele>261.0</ele><time>2026-03-29T07:18:08.437Z</time></trkpt><trkpt lat="43.1646505" lon="12.2756218"><ele>260.8</ele><time>2026-03-29T07:18:10.437Z</time></trkpt><trkpt lat="43.1647417" lon="12.2756028"><ele>260.6</ele><time>2026-03-29T07:18:11.437Z</time></trkpt><trkpt lat="43.1648333" lon="12.2755915"><ele>260.4</ele><time>2026-03-29T07:18:12.436Z</time></trkpt><trkpt lat="43.1649309" lon="12.2755829"><ele>260.2</ele><time>2026-03-29T07:18:13.435Z</time></trkpt><trkpt lat="43.1650178" lon="12.2755793"><ele>260.0</ele><time>2026-03-29T07:18:14.436Z</time></trkpt><trkpt lat="43.1651089" lon="12.275574"><ele>260.5</ele><time>2026-03-29T07:18:15.437Z</time></trkpt><trkpt lat="43.1651888" lon="12.2755663"><ele>261.0</ele><time>2026-03-29T07:18:16.436Z</time></trkpt><trkpt lat="43.1652598" lon="12.2755479"><ele>261.5</ele><time>2026-03-29T07:18:17.437Z</time></trkpt><trkpt lat="43.1653254" lon="12.2755296"><ele>262.0</ele><time>2026-03-29T07:18:18.437Z</time></trkpt><trkpt lat="43.1653731" lon="12.2754716"><ele>262.5</ele><time>2026-03-29T07:18:19.437Z</time></trkpt><trkpt lat="43.1654325" lon="12.2752981"><ele>263.0</ele><time>2026-03-29T07:18:21.436Z</time></trkpt><trkpt lat="43.1654622" lon="12.2751987"><ele>263.0</ele><time>2026-03-29T07:18:22.437Z</time></trkpt><trkpt lat="43.1654866" lon="12.2750903"><ele>263.0</ele><time>2026-03-29T07:18:23.436Z</time></trkpt><trkpt lat="43.1655136" lon="12.2749777"><ele>263.0</ele><time>2026-03-29T07:18:24.436Z</time></trkpt><trkpt lat="43.1655405" lon="12.2748226"><ele>263.0</ele><time>2026-03-29T07:18:25.435Z</time></trkpt><trkpt lat="43.1655887" lon="12.2746813"><ele>263.0</ele><time>2026-03-29T07:18:26.436Z</time></trkpt><trkpt lat="43.1656227" lon="12.274553"><ele>263.75</ele><time>2026-03-29T07:18:27.437Z</time></trkpt><trkpt lat="43.165623" lon="12.2743948"><ele>264.5</ele><time>2026-03-29T07:18:28.437Z</time></trkpt><trkpt lat="43.1656419" lon="12.2742273"><ele>265.25</ele><time>2026-03-29T07:18:29.437Z</time></trkpt><trkpt lat="43.1656696" lon="12.2740779"><ele>266.0</ele><time>2026-03-29T07:18:30.436Z</time></trkpt><trkpt lat="43.1656841" lon="12.2739371"><ele>270.75</ele><time>2026-03-29T07:18:31.436Z</time></trkpt><trkpt lat="43.1656978" lon="12.2737305"><ele>275.5</ele><time>2026-03-29T07:18:32.436Z</time></trkpt><trkpt lat="43.1657168" lon="12.2735662"><ele>280.25</ele><time>2026-03-29T07:18:33.436Z</time></trkpt><trkpt lat="43.1657422" lon="12.2734156"><ele>285.0</ele><time>2026-03-29T07:18:34.436Z</time></trkpt><trkpt lat="43.1657607" lon="12.2732754"><ele>285.0</ele><time>2026-03-29T07:18:35.436Z</time></trkpt><trkpt lat="43.1657889" lon="12.2731391"><ele>285.0</ele><time>2026-03-29T07:18:36.437Z</time></trkpt><trkpt lat="43.1658119" lon="12.2730143"><ele>285.0</ele><time>2026-03-29T07:18:37.437Z</time></trkpt><trkpt lat="43.1658503" lon="12.272872"><ele>285.0</ele><time>2026-03-29T07:18:38.437Z</time></trkpt><trkpt lat="43.1659489" lon="12.2727166"><ele>284.0</ele><time>2026-03-29T07:18:40.437Z</time></trkpt><trkpt lat="43.1660246" lon="12.2727172"><ele>283.0</ele><time>2026-03-29T07:18:41.436Z</time></trkpt><trkpt lat="43.1660906" lon="12.2727058"><ele>282.0</ele><time>2026-03-29T07:18:42.437Z</time></trkpt><trkpt lat="43.1662008" lon="12.2726838"><ele>281.0</ele><time>2026-03-29T07:18:43.437Z</time></trkpt><trkpt lat="43.1663031" lon="12.2726606"><ele>280.0</ele><time>2026-03-29T07:18:44.437Z</time></trkpt><trkpt lat="43.1663977" lon="12.272622"><ele>280.0</ele><time>2026-03-29T07:18:45.436Z</time></trkpt><trkpt lat="43.1664834" lon="12.2725552"><ele>280.0</ele><time>2026-03-29T07:18:46.437Z</time></trkpt><trkpt lat="43.1665659" lon="12.2724808"><ele>280.0</ele><time>2026-03-29T07:18:47.436Z</time></trkpt><trkpt lat="43.1666213" lon="12.2724029"><ele>280.0</ele><time>2026-03-29T07:18:48.437Z</time></trkpt><trkpt lat="43.1666865" lon="12.2723299"><ele>280.0</ele><time>2026-03-29T07:18:49.436Z</time></trkpt><trkpt lat="43.166758" lon="12.2722487"><ele>281.3333333333333</ele><time>2026-03-29T07:18:50.436Z</time></trkpt><trkpt lat="43.1668318" lon="12.2721651"><ele>282.66666666666663</ele><time>2026-03-29T07:18:51.436Z</time></trkpt><trkpt lat="43.1669035" lon="12.2721115"><ele>284.0</ele><time>2026-03-29T07:18:52.437Z</time></trkpt><trkpt lat="43.1669854" lon="12.2720797"><ele>285.3333333333333</ele><time>2026-03-29T07:18:53.436Z</time></trkpt><trkpt lat="43.1670626" lon="12.2720279"><ele>286.6666666666667</ele><time>2026-03-29T07:18:54.437Z</time></trkpt><trkpt lat="43.1671097" lon="12.2719679"><ele>288.0</ele><time>2026-03-29T07:18:55.437Z</time></trkpt><trkpt lat="43.1671393" lon="12.2718907"><ele>288.0</ele><time>2026-03-29T07:18:56.436Z</time></trkpt><trkpt lat="43.1671645" lon="12.2717767"><ele>288.0</ele><time>2026-03-29T07:18:57.436Z</time></trkpt><trkpt lat="43.167193" lon="12.2716501"><ele>288.0</ele><time>2026-03-29T07:18:58.436Z</time></trkpt><trkpt lat="43.167217" lon="12.2715383"><ele>288.0</ele><time>2026-03-29T07:18:59.437Z</time></trkpt><trkpt lat="43.1672572" lon="12.2714163"><ele>288.0</ele><time>2026-03-29T07:19:00.436Z</time></trkpt><trkpt lat="43.1673028" lon="12.2712875"><ele>287.0</ele><time>2026-03-29T07:19:01.437Z</time></trkpt><trkpt lat="43.1673556" lon="12.2711745"><ele>286.0</ele><time>2026-03-29T07:19:02.437Z</time></trkpt><trkpt lat="43.1674035" lon="12.2710604"><ele>285.0</ele><time>2026-03-29T07:19:03.437Z</time></trkpt><trkpt lat="43.1674559" lon="12.2709549"><ele>284.0</ele><time>2026-03-29T07:19:04.437Z</time></trkpt><trkpt lat="43.1675755" lon="12.2709003"><ele>283.0</ele><time>2026-03-29T07:19:05.437Z</time></trkpt><trkpt lat="43.1676692" lon="12.2708271"><ele>284.0</ele><time>2026-03-29T07:19:06.437Z</time></trkpt><trkpt lat="43.167761" lon="12.2707518"><ele>285.0</ele><time>2026-03-29T07:19:07.437Z</time></trkpt><trkpt lat="43.1678496" lon="12.2706786"><ele>286.0</ele><time>2026-03-29T07:19:08.437Z</time></trkpt><trkpt lat="43.1679592" lon="12.2705725"><ele>287.0</ele><time>2026-03-29T07:19:09.437Z</time></trkpt><trkpt lat="43.1680856" lon="12.2704851"><ele>287.0</ele><time>2026-03-29T07:19:10.437Z</time></trkpt><trkpt lat="43.1681821" lon="12.2703962"><ele>287.0</ele><time>2026-03-29T07:19:11.436Z</time></trkpt><trkpt lat="43.1682845" lon="12.2702886"><ele>287.0</ele><time>2026-03-29T07:19:12.437Z</time></trkpt><trkpt lat="43.1683678" lon="12.2701713"><ele>287.0</ele><time>2026-03-29T07:19:13.436Z</time></trkpt><trkpt lat="43.168428" lon="12.2700465"><ele>289.6</ele><time>2026-03-29T07:19:14.437Z</time></trkpt><trkpt lat="43.1684947" lon="12.269945"><ele>292.2</ele><time>2026-03-29T07:19:15.437Z</time></trkpt><trkpt lat="43.1685902" lon="12.2698498"><ele>294.8</ele><time>2026-03-29T07:19:16.437Z</time></trkpt><trkpt lat="43.1686731" lon="12.269781"><ele>297.4</ele><time>2026-03-29T07:19:17.437Z</time></trkpt><trkpt lat="43.1687482" lon="12.2697389"><ele>300.0</ele><time>2026-03-29T07:19:18.436Z</time></trkpt><trkpt lat="43.1688371" lon="12.2696864"><ele>300.2</ele><time>2026-03-29T07:19:19.436Z</time></trkpt><trkpt lat="43.1689621" lon="12.2696651"><ele>300.4</ele><time>2026-03-29T07:19:20.437Z</time></trkpt><trkpt lat="43.1690558" lon="12.2696289"><ele>300.6</ele><time>2026-03-29T07:19:21.437Z</time></trkpt><trkpt lat="43.1691339" lon="12.2695566"><ele>300.8</ele><time>2026-03-29T07:19:22.437Z</time></trkpt><trkpt lat="43.1692334" lon="12.2695237"><ele>301.0</ele><time>2026-03-29T07:19:23.437Z</time></trkpt><trkpt lat="43.1693214" lon="12.269498"><ele>301.66666666666663</ele><time>2026-03-29T07:19:24.436Z</time></trkpt><trkpt lat="43.1693942" lon="12.2694943"><ele>302.3333333333333</ele><time>2026-03-29T07:19:25.436Z</time></trkpt><trkpt lat="43.1694793" lon="12.269448"><ele>303.0</ele><time>2026-03-29T07:19:27.437Z</time></trkpt><trkpt lat="43.1695778" lon="12.2693823"><ele>303.6666666666667</ele><time>2026-03-29T07:19:29.437Z</time></trkpt><trkpt lat="43.1696252" lon="12.2693085"><ele>304.33333333333337</ele><time>2026-03-29T07:19:31.437Z</time></trkpt><trkpt lat="43.1696987" lon="12.2692113"><ele>305.0</ele><time>2026-03-29T07:19:34.436Z</time></trkpt><trkpt lat="43.1697366" lon="12.2691329"><ele>305.0</ele><time>2026-03-29T07:19:36.436Z</time></trkpt><trkpt lat="43.1698082" lon="12.2690222"><ele>305.0</ele><time>2026-03-29T07:19:38.437Z</time></trkpt><trkpt lat="43.1698837" lon="12.2689619"><ele>305.0</ele><time>2026-03-29T07:19:39.436Z</time></trkpt><trkpt lat="43.1699522" lon="12.268945"><ele>305.0</ele><time>2026-03-29T07:19:40.437Z</time></trkpt><trkpt lat="43.1700183" lon="12.2689196"><ele>305.0</ele><time>2026-03-29T07:19:41.437Z</time></trkpt><trkpt lat="43.1701008" lon="12.2688912"><ele>305.0</ele><time>2026-03-29T07:19:42.436Z</time></trkpt><trkpt lat="43.1701747" lon="12.2688232"><ele>305.8</ele><time>2026-03-29T07:19:43.437Z</time></trkpt><trkpt lat="43.1702652" lon="12.2687569"><ele>306.6</ele><time>2026-03-29T07:19:44.437Z</time></trkpt><trkpt lat="43.1703829" lon="12.2687064"><ele>307.4</ele><time>2026-03-29T07:19:45.437Z</time></trkpt><trkpt lat="43.1704804" lon="12.2686381"><ele>308.2</ele><time>2026-03-29T07:19:46.437Z</time></trkpt><trkpt lat="43.1705656" lon="12.268562"><ele>309.0</ele><time>2026-03-29T07:19:47.437Z</time></trkpt><trkpt lat="43.170654" lon="12.2684721"><ele>310.2</ele><time>2026-03-29T07:19:48.437Z</time></trkpt><trkpt lat="43.1707529" lon="12.2683692"><ele>311.4</ele><time>2026-03-29T07:19:49.437Z</time></trkpt><trkpt lat="43.1708379" lon="12.2682805"><ele>312.6</ele><time>2026-03-29T07:19:50.437Z</time></trkpt><trkpt lat="43.1709107" lon="12.2682065"><ele>313.8</ele><time>2026-03-29T07:19:51.437Z</time></trkpt><trkpt lat="43.1709624" lon="12.2681565"><ele>315.0</ele><time>2026-03-29T07:19:52.437Z</time></trkpt><trkpt lat="43.1710501" lon="12.2680273"><ele>315.5</ele><time>2026-03-29T07:19:54.437Z</time></trkpt><trkpt lat="43.1711001" lon="12.267945"><ele>316.0</ele><time>2026-03-29T07:19:56.437Z</time></trkpt><trkpt lat="43.1711342" lon="12.2678328"><ele>316.5</ele><time>2026-03-29T07:19:59.436Z</time></trkpt><trkpt lat="43.1711797" lon="12.2677549"><ele>317.0</ele><time>2026-03-29T07:20:01.437Z</time></trkpt><trkpt lat="43.1711568" lon="12.2676384"><ele>317.5</ele><time>2026-03-29T07:20:04.437Z</time></trkpt><trkpt lat="43.1710804" lon="12.2675836"><ele>318.0</ele><time>2026-03-29T07:20:06.436Z</time></trkpt><trkpt lat="43.1709858" lon="12.2676278"><ele>318.0</ele><time>2026-03-29T07:20:07.436Z</time></trkpt><trkpt lat="43.1708655" lon="12.2677104"><ele>318.0</ele><time>2026-03-29T07:20:09.437Z</time></trkpt><trkpt lat="43.1707559" lon="12.2677506"><ele>318.0</ele><time>2026-03-29T07:20:10.437Z</time></trkpt><trkpt lat="43.1706616" lon="12.2677845"><ele>318.0</ele><time>2026-03-29T07:20:12.435Z</time></trkpt><trkpt lat="43.1705795" lon="12.2677646"><ele>318.0</ele><time>2026-03-29T07:20:15.437Z</time></trkpt><trkpt lat="43.1705161" lon="12.2676842"><ele>318.8</ele><time>2026-03-29T07:20:17.437Z</time></trkpt><trkpt lat="43.1704881" lon="12.267573"><ele>319.6</ele><time>2026-03-29T07:20:19.436Z</time></trkpt><trkpt lat="43.170487" lon="12.267481"><ele>320.40000000000003</ele><time>2026-03-29T07:20:20.437Z</time></trkpt><trkpt lat="43.1704993" lon="12.2673341"><ele>321.20000000000005</ele><time>2026-03-29T07:20:22.436Z</time></trkpt><trkpt lat="43.170554" lon="12.2672007"><ele>322.0</ele><time>2026-03-29T07:20:24.437Z</time></trkpt><trkpt lat="43.1706069" lon="12.2669981"><ele>322.8333333333333</ele><time>2026-03-29T07:20:26.435Z</time></trkpt><trkpt lat="43.1706135" lon="12.2668954"><ele>323.66666666666663</ele><time>2026-03-29T07:20:27.436Z</time></trkpt><trkpt lat="43.1706424" lon="12.2668115"><ele>324.5</ele><time>2026-03-29T07:20:28.436Z</time></trkpt><trkpt lat="43.1706822" lon="12.2666597"><ele>325.3333333333333</ele><time>2026-03-29T07:20:30.437Z</time></trkpt><trkpt lat="43.1707094" lon="12.2665699"><ele>326.1666666666667</ele><time>2026-03-29T07:20:31.437Z</time></trkpt><trkpt lat="43.1707493" lon="12.2664847"><ele>327.0</ele><time>2026-03-29T07:20:32.437Z</time></trkpt><trkpt lat="43.1707675" lon="12.2663835"><ele>328.20000000000005</ele><time>2026-03-29T07:20:33.436Z</time></trkpt><trkpt lat="43.1707647" lon="12.2662179"><ele>329.4</ele><time>2026-03-29T07:20:35.437Z</time></trkpt><trkpt lat="43.1707451" lon="12.2660695"><ele>330.6</ele><time>2026-03-29T07:20:36.436Z</time></trkpt><trkpt lat="43.1707339" lon="12.2659691"><ele>331.79999999999995</ele><time>2026-03-29T07:20:37.437Z</time></trkpt><trkpt lat="43.1707216" lon="12.2658653"><ele>333.0</ele><time>2026-03-29T07:20:38.436Z</time></trkpt><trkpt lat="43.170703" lon="12.2657613"><ele>334.4</ele><time>2026-03-29T07:20:39.437Z</time></trkpt><trkpt lat="43.1706792" lon="12.2656556"><ele>335.79999999999995</ele><time>2026-03-29T07:20:40.436Z</time></trkpt><trkpt lat="43.1707253" lon="12.2655643"><ele>337.2</ele><time>2026-03-29T07:20:42.437Z</time></trkpt><trkpt lat="43.1707085" lon="12.2653776"><ele>338.6</ele><time>2026-03-29T07:20:44.436Z</time></trkpt><trkpt lat="43.1707108" lon="12.2652558"><ele>340.0</ele><time>2026-03-29T07:20:46.436Z</time></trkpt><trkpt lat="43.170657" lon="12.2650645"><ele>342.66666666666663</ele><time>2026-03-29T07:20:48.437Z</time></trkpt><trkpt lat="43.1706268" lon="12.2649728"><ele>345.3333333333333</ele><time>2026-03-29T07:20:49.436Z</time></trkpt><trkpt lat="43.1706171" lon="12.264853"><ele>348.0</ele><time>2026-03-29T07:20:50.437Z</time></trkpt><trkpt lat="43.1705933" lon="12.264769"><ele>350.6666666666667</ele><time>2026-03-29T07:20:51.436Z</time></trkpt><trkpt lat="43.170604" lon="12.2646246"><ele>353.33333333333337</ele><time>2026-03-29T07:20:53.436Z</time></trkpt><trkpt lat="43.1706214" lon="12.2644971"><ele>356.0</ele><time>2026-03-29T07:20:55.436Z</time></trkpt><trkpt lat="43.1705795" lon="12.2644266"><ele>356.20000000000005</ele><time>2026-03-29T07:20:57.437Z</time></trkpt><trkpt lat="43.1705289" lon="12.2643539"><ele>356.40000000000003</ele><time>2026-03-29T07:20:58.436Z</time></trkpt><trkpt lat="43.1705204" lon="12.2642331"><ele>356.6</ele><time>2026-03-29T07:21:00.436Z</time></trkpt><trkpt lat="43.1705172" lon="12.2640059"><ele>356.8</ele><time>2026-03-29T07:21:02.437Z</time></trkpt><trkpt lat="43.1704981" lon="12.2639065"><ele>357.0</ele><time>2026-03-29T07:21:03.437Z</time></trkpt><trkpt lat="43.1705237" lon="12.2637403"><ele>357.6</ele><time>2026-03-29T07:21:05.436Z</time></trkpt><trkpt lat="43.170534" lon="12.2636518"><ele>358.20000000000005</ele><time>2026-03-29T07:21:06.437Z</time></trkpt><trkpt lat="43.1705405" lon="12.2634132"><ele>358.8</ele><time>2026-03-29T07:21:07.436Z</time></trkpt><trkpt lat="43.1705563" lon="12.2633125"><ele>359.4</ele><time>2026-03-29T07:21:08.436Z</time></trkpt><trkpt lat="43.1706049" lon="12.2632227"><ele>360.0</ele><time>2026-03-29T07:21:09.436Z</time></trkpt><trkpt lat="43.1706121" lon="12.2631101"><ele>360.0</ele><time>2026-03-29T07:21:11.437Z</time></trkpt><trkpt lat="43.1706416" lon="12.2630156"><ele>360.0</ele><time>2026-03-29T07:21:14.438Z</time></trkpt><trkpt lat="43.1706184" lon="12.2629318"><ele>360.0</ele><time>2026-03-29T07:22:18.438Z</time></trkpt><trkpt lat="43.1705976" lon="12.2630205"><ele>360.0</ele><time>2026-03-29T07:22:20.437Z</time></trkpt><trkpt lat="43.1705715" lon="12.2631085"><ele>360.0</ele><time>2026-03-29T07:22:22.436Z</time></trkpt><trkpt lat="43.1705242" lon="12.2632149"><ele>360.0</ele><time>2026-03-29T07:22:24.437Z</time></trkpt><trkpt lat="43.1705082" lon="12.2633556"><ele>360.0</ele><time>2026-03-29T07:22:26.437Z</time></trkpt><trkpt lat="43.1704853" lon="12.2635281"><ele>360.0</ele><time>2026-03-29T07:22:27.436Z</time></trkpt><trkpt lat="43.170456" lon="12.2636192"><ele>360.0</ele><time>2026-03-29T07:22:28.436Z</time></trkpt><trkpt lat="43.1704674" lon="12.2637448"><ele>360.0</ele><time>2026-03-29T07:22:29.436Z</time></trkpt><trkpt lat="43.1704643" lon="12.2638361"><ele>360.0</ele><time>2026-03-29T07:22:30.436Z</time></trkpt><trkpt lat="43.1704626" lon="12.2639801"><ele>359.4</ele><time>2026-03-29T07:22:32.437Z</time></trkpt><trkpt lat="43.1704995" lon="12.2641554"><ele>358.8</ele><time>2026-03-29T07:22:33.436Z</time></trkpt><trkpt lat="43.1705136" lon="12.2642821"><ele>358.20000000000005</ele><time>2026-03-29T07:22:34.437Z</time></trkpt><trkpt lat="43.1705147" lon="12.2643701"><ele>357.6</ele><time>2026-03-29T07:22:35.436Z</time></trkpt><trkpt lat="43.1705359" lon="12.2645236"><ele>357.0</ele><time>2026-03-29T07:22:37.436Z</time></trkpt><trkpt lat="43.1705611" lon="12.2646552"><ele>357.0</ele><time>2026-03-29T07:22:40.436Z</time></trkpt><trkpt lat="43.1705672" lon="12.2647444"><ele>357.0</ele><time>2026-03-29T07:22:41.437Z</time></trkpt><trkpt lat="43.1705998" lon="12.2648289"><ele>357.0</ele><time>2026-03-29T07:22:42.436Z</time></trkpt><trkpt lat="43.1706356" lon="12.2649283"><ele>357.0</ele><time>2026-03-29T07:22:43.435Z</time></trkpt><trkpt lat="43.1706738" lon="12.2650052"><ele>357.0</ele><time>2026-03-29T07:22:44.437Z</time></trkpt><trkpt lat="43.1707031" lon="12.2651129"><ele>357.0</ele><time>2026-03-29T07:22:45.437Z</time></trkpt><trkpt lat="43.1707149" lon="12.2652411"><ele>355.5</ele><time>2026-03-29T07:22:46.436Z</time></trkpt><trkpt lat="43.1707432" lon="12.2653213"><ele>354.0</ele><time>2026-03-29T07:22:47.436Z</time></trkpt><trkpt lat="43.1707307" lon="12.265406"><ele>352.5</ele><time>2026-03-29T07:22:48.437Z</time></trkpt><trkpt lat="43.1707184" lon="12.2655187"><ele>351.0</ele><time>2026-03-29T07:22:49.437Z</time></trkpt><trkpt lat="43.1706955" lon="12.2656402"><ele>349.5</ele><time>2026-03-29T07:22:50.437Z</time></trkpt><trkpt lat="43.1706787" lon="12.2657316"><ele>348.0</ele><time>2026-03-29T07:22:51.437Z</time></trkpt><trkpt lat="43.1706715" lon="12.2659471"><ele>345.0</ele><time>2026-03-29T07:22:53.436Z</time></trkpt><trkpt lat="43.1707373" lon="12.2660999"><ele>342.0</ele><time>2026-03-29T07:22:55.436Z</time></trkpt><trkpt lat="43.1707476" lon="12.2662213"><ele>339.0</ele><time>2026-03-29T07:22:56.437Z</time></trkpt><trkpt lat="43.1707587" lon="12.2663799"><ele>336.0</ele><time>2026-03-29T07:22:58.436Z</time></trkpt><trkpt lat="43.1707304" lon="12.2664722"><ele>333.0</ele><time>2026-03-29T07:22:59.436Z</time></trkpt><trkpt lat="43.1707164" lon="12.2665666"><ele>334.0</ele><time>2026-03-29T07:23:00.436Z</time></trkpt><trkpt lat="43.1706408" lon="12.2666526"><ele>335.0</ele><time>2026-03-29T07:23:02.436Z</time></trkpt><trkpt lat="43.1706264" lon="12.2667743"><ele>336.0</ele><time>2026-03-29T07:23:54.436Z</time></trkpt><trkpt lat="43.1706219" lon="12.2668633"><ele>337.0</ele><time>2026-03-29T07:24:03.436Z</time></trkpt><trkpt lat="43.1705568" lon="12.2670747"><ele>338.0</ele><time>2026-03-29T07:24:05.437Z</time></trkpt><trkpt lat="43.1705209" lon="12.2671915"><ele>335.33333333333337</ele><time>2026-03-29T07:24:06.436Z</time></trkpt><trkpt lat="43.1704848" lon="12.2672823"><ele>332.6666666666667</ele><time>2026-03-29T07:24:07.436Z</time></trkpt><trkpt lat="43.1704481" lon="12.2674257"><ele>330.0</ele><time>2026-03-29T07:24:09.436Z</time></trkpt><trkpt lat="43.1704401" lon="12.2675231"><ele>327.3333333333333</ele><time>2026-03-29T07:24:10.437Z</time></trkpt><trkpt lat="43.1704529" lon="12.2676103"><ele>324.66666666666663</ele><time>2026-03-29T07:24:11.436Z</time></trkpt><trkpt lat="43.1704938" lon="12.2676851"><ele>322.0</ele><time>2026-03-29T07:24:12.437Z</time></trkpt><trkpt lat="43.1705786" lon="12.267801"><ele>322.0</ele><time>2026-03-29T07:24:14.436Z</time></trkpt><trkpt lat="43.170677" lon="12.267879"><ele>322.0</ele><time>2026-03-29T07:24:16.437Z</time></trkpt><trkpt lat="43.1707304" lon="12.2677738"><ele>322.0</ele><time>2026-03-29T07:24:17.437Z</time></trkpt><trkpt lat="43.1708488" lon="12.26772"><ele>322.0</ele><time>2026-03-29T07:24:19.436Z</time></trkpt><trkpt lat="43.1709421" lon="12.2676646"><ele>322.0</ele><time>2026-03-29T07:24:21.437Z</time></trkpt><trkpt lat="43.1710141" lon="12.2676168"><ele>321.0</ele><time>2026-03-29T07:24:24.436Z</time></trkpt><trkpt lat="43.1710888" lon="12.2675811"><ele>320.0</ele><time>2026-03-29T07:24:47.436Z</time></trkpt><trkpt lat="43.171174" lon="12.2675377"><ele>319.0</ele><time>2026-03-29T07:24:50.436Z</time></trkpt><trkpt lat="43.1713265" lon="12.2674516"><ele>318.0</ele><time>2026-03-29T07:24:52.437Z</time></trkpt><trkpt lat="43.1714527" lon="12.2674231"><ele>319.4</ele><time>2026-03-29T07:24:54.437Z</time></trkpt><trkpt lat="43.1715333" lon="12.26737"><ele>320.8</ele><time>2026-03-29T07:24:56.436Z</time></trkpt><trkpt lat="43.1716682" lon="12.2672483"><ele>322.2</ele><time>2026-03-29T07:24:58.437Z</time></trkpt><trkpt lat="43.1717265" lon="12.2671921"><ele>323.6</ele><time>2026-03-29T07:24:59.437Z</time></trkpt><trkpt lat="43.1718244" lon="12.2671265"><ele>325.0</ele><time>2026-03-29T07:25:00.436Z</time></trkpt><trkpt lat="43.1719658" lon="12.2670167"><ele>326.8333333333333</ele><time>2026-03-29T07:25:02.437Z</time></trkpt><trkpt lat="43.1719919" lon="12.2669185"><ele>328.66666666666663</ele><time>2026-03-29T07:25:04.437Z</time></trkpt><trkpt lat="43.1720326" lon="12.2668283"><ele>330.5</ele><time>2026-03-29T07:25:06.436Z</time></trkpt><trkpt lat="43.1720544" lon="12.2667294"><ele>332.3333333333333</ele><time>2026-03-29T07:25:08.437Z</time></trkpt><trkpt lat="43.1720401" lon="12.266614"><ele>334.1666666666667</ele><time>2026-03-29T07:25:10.437Z</time></trkpt><trkpt lat="43.1720219" lon="12.2665162"><ele>336.0</ele><time>2026-03-29T07:25:11.438Z</time></trkpt><trkpt lat="43.1720928" lon="12.266426"><ele>338.8333333333333</ele><time>2026-03-29T07:25:12.438Z</time></trkpt><trkpt lat="43.1721303" lon="12.266331"><ele>341.6666666666667</ele><time>2026-03-29T07:25:13.437Z</time></trkpt><trkpt lat="43.1721784" lon="12.2662522"><ele>344.5</ele><time>2026-03-29T07:25:14.438Z</time></trkpt><trkpt lat="43.1722025" lon="12.2661406"><ele>347.33333333333337</ele><time>2026-03-29T07:25:15.437Z</time></trkpt><trkpt lat="43.1722577" lon="12.2659774"><ele>350.1666666666667</ele><time>2026-03-29T07:25:17.438Z</time></trkpt><trkpt lat="43.1722796" lon="12.265876"><ele>353.0</ele><time>2026-03-29T07:25:18.438Z</time></trkpt><trkpt lat="43.1722809" lon="12.265708"><ele>353.0</ele><time>2026-03-29T07:25:20.438Z</time></trkpt><trkpt lat="43.172291" lon="12.2656157"><ele>353.0</ele><time>2026-03-29T07:25:21.437Z</time></trkpt><trkpt lat="43.1723031" lon="12.265453"><ele>353.0</ele><time>2026-03-29T07:25:22.437Z</time></trkpt><trkpt lat="43.1723751" lon="12.2653317"><ele>353.0</ele><time>2026-03-29T07:25:23.437Z</time></trkpt><trkpt lat="43.1724118" lon="12.2652235"><ele>353.0</ele><time>2026-03-29T07:25:24.437Z</time></trkpt><trkpt lat="43.1724758" lon="12.2651101"><ele>354.5</ele><time>2026-03-29T07:25:25.437Z</time></trkpt><trkpt lat="43.1724967" lon="12.2650005"><ele>356.0</ele><time>2026-03-29T07:25:26.437Z</time></trkpt><trkpt lat="43.1725164" lon="12.2649078"><ele>357.5</ele><time>2026-03-29T07:25:27.438Z</time></trkpt><trkpt lat="43.1725406" lon="12.2648188"><ele>359.0</ele><time>2026-03-29T07:25:28.438Z</time></trkpt><trkpt lat="43.172561" lon="12.2647369"><ele>360.5</ele><time>2026-03-29T07:25:29.437Z</time></trkpt><trkpt lat="43.1725706" lon="12.2646247"><ele>362.0</ele><time>2026-03-29T07:25:30.437Z</time></trkpt><trkpt lat="43.1726135" lon="12.264497"><ele>364.6666666666667</ele><time>2026-03-29T07:25:31.437Z</time></trkpt><trkpt lat="43.1726683" lon="12.2643576"><ele>367.33333333333337</ele><time>2026-03-29T07:25:32.438Z</time></trkpt><trkpt lat="43.1726909" lon="12.2642725"><ele>370.0</ele><time>2026-03-29T07:25:33.438Z</time></trkpt><trkpt lat="43.1727274" lon="12.2641858"><ele>372.6666666666667</ele><time>2026-03-29T07:25:34.437Z</time></trkpt><trkpt lat="43.1727364" lon="12.2640981"><ele>375.3333333333333</ele><time>2026-03-29T07:25:35.437Z</time></trkpt><trkpt lat="43.1727793" lon="12.2640127"><ele>378.0</ele><time>2026-03-29T07:25:36.436Z</time></trkpt><trkpt lat="43.1727611" lon="12.2638794"><ele>382.25</ele><time>2026-03-29T07:25:37.437Z</time></trkpt><trkpt lat="43.1728746" lon="12.2638582"><ele>386.5</ele><time>2026-03-29T07:25:38.437Z</time></trkpt><trkpt lat="43.1729725" lon="12.2637236"><ele>390.75</ele><time>2026-03-29T07:25:40.438Z</time></trkpt><trkpt lat="43.1730611" lon="12.2636202"><ele>395.0</ele><time>2026-03-29T07:25:43.437Z</time></trkpt><trkpt lat="43.1731173" lon="12.2635026"><ele>395.0</ele><time>2026-03-29T07:25:45.437Z</time></trkpt><trkpt lat="43.1731774" lon="12.2634194"><ele>395.0</ele><time>2026-03-29T07:25:46.438Z</time></trkpt><trkpt lat="43.1732675" lon="12.2633432"><ele>395.0</ele><time>2026-03-29T07:25:47.438Z</time></trkpt><trkpt lat="43.1733399" lon="12.2632821"><ele>395.0</ele><time>2026-03-29T07:25:48.437Z</time></trkpt><trkpt lat="43.1734349" lon="12.2631964"><ele>395.0</ele><time>2026-03-29T07:25:49.437Z</time></trkpt><trkpt lat="43.1735318" lon="12.2631209"><ele>396.8333333333333</ele><time>2026-03-29T07:25:50.437Z</time></trkpt><trkpt lat="43.1736157" lon="12.2630661"><ele>398.66666666666663</ele><time>2026-03-29T07:25:51.438Z</time></trkpt><trkpt lat="43.1737027" lon="12.2630142"><ele>400.5</ele><time>2026-03-29T07:25:52.437Z</time></trkpt><trkpt lat="43.1738003" lon="12.2629523"><ele>402.33333333333337</ele><time>2026-03-29T07:25:54.437Z</time></trkpt><trkpt lat="43.173847" lon="12.2628811"><ele>404.1666666666667</ele><time>2026-03-29T07:25:56.438Z</time></trkpt><trkpt lat="43.1738941" lon="12.2628227"><ele>406.0</ele><time>2026-03-29T07:25:58.438Z</time></trkpt><trkpt lat="43.1739971" lon="12.2628148"><ele>404.83333333333337</ele><time>2026-03-29T07:26:01.437Z</time></trkpt><trkpt lat="43.1740682" lon="12.2627678"><ele>403.6666666666667</ele><time>2026-03-29T07:26:03.438Z</time></trkpt><trkpt lat="43.1741563" lon="12.2628329"><ele>402.5</ele><time>2026-03-29T07:26:06.438Z</time></trkpt><trkpt lat="43.1742177" lon="12.2628984"><ele>401.33333333333337</ele><time>2026-03-29T07:26:07.438Z</time></trkpt><trkpt lat="43.1742918" lon="12.2629694"><ele>400.1666666666667</ele><time>2026-03-29T07:26:09.438Z</time></trkpt><trkpt lat="43.1743142" lon="12.2630817"><ele>399.0</ele><time>2026-03-29T07:26:11.437Z</time></trkpt><trkpt lat="43.1743192" lon="12.2632317"><ele>397.0</ele><time>2026-03-29T07:26:13.437Z</time></trkpt><trkpt lat="43.1743887" lon="12.2633665"><ele>395.0</ele><time>2026-03-29T07:26:15.437Z</time></trkpt><trkpt lat="43.1744694" lon="12.2634329"><ele>393.0</ele><time>2026-03-29T07:26:17.438Z</time></trkpt><trkpt lat="43.1745575" lon="12.2633817"><ele>391.0</ele><time>2026-03-29T07:26:19.438Z</time></trkpt><trkpt lat="43.1746299" lon="12.2632921"><ele>389.0</ele><time>2026-03-29T07:26:21.437Z</time></trkpt><trkpt lat="43.1746959" lon="12.2632918"><ele>388.99999999999994</ele><time>2026-03-29T07:26:23.437Z</time></trkpt><trkpt lat="43.1747733" lon="12.2632685"><ele>389.0</ele><time>2026-03-29T07:26:25.438Z</time></trkpt><trkpt lat="43.1748247" lon="12.2632161"><ele>389.0</ele><time>2026-03-29T07:26:27.438Z</time></trkpt><trkpt lat="43.1748507" lon="12.2631249"><ele>389.0</ele><time>2026-03-29T07:26:29.438Z</time></trkpt><trkpt lat="43.1748817" lon="12.2630044"><ele>388.99999999999994</ele><time>2026-03-29T07:26:32.438Z</time></trkpt><trkpt lat="43.1749136" lon="12.2629169"><ele>389.0</ele><time>2026-03-29T07:26:35.438Z</time></trkpt><trkpt lat="43.1749793" lon="12.2628588"><ele>393.3333333333333</ele><time>2026-03-29T07:27:12.437Z</time></trkpt><trkpt lat="43.1750408" lon="12.2628093"><ele>397.66666666666663</ele><time>2026-03-29T07:27:15.437Z</time></trkpt><trkpt lat="43.1750889" lon="12.2627411"><ele>402.0</ele><time>2026-03-29T07:27:18.436Z</time></trkpt><trkpt lat="43.1750957" lon="12.2626197"><ele>406.33333333333337</ele><time>2026-03-29T07:27:23.438Z</time></trkpt><trkpt lat="43.1751373" lon="12.262527"><ele>410.6666666666667</ele><time>2026-03-29T07:27:25.437Z</time></trkpt><trkpt lat="43.1752105" lon="12.2624847"><ele>415.0</ele><time>2026-03-29T07:27:28.438Z</time></trkpt><trkpt lat="43.1752831" lon="12.2625312"><ele>415.00000000000006</ele><time>2026-03-29T07:27:30.438Z</time></trkpt><trkpt lat="43.1753624" lon="12.2625636"><ele>415.0</ele><time>2026-03-29T07:27:32.438Z</time></trkpt><trkpt lat="43.1754351" lon="12.2625908"><ele>415.0</ele><time>2026-03-29T07:27:33.438Z</time></trkpt><trkpt lat="43.1755385" lon="12.2625817"><ele>415.0</ele><time>2026-03-29T07:27:35.437Z</time></trkpt><trkpt lat="43.1756197" lon="12.262575"><ele>415.00000000000006</ele><time>2026-03-29T07:27:37.437Z</time></trkpt><trkpt lat="43.17571" lon="12.2625493"><ele>415.0</ele><time>2026-03-29T07:35:28.438Z</time></trkpt><trkpt lat="43.1757964" lon="12.26252"><ele>418.33333333333337</ele><time>2026-03-29T07:35:31.439Z</time></trkpt><trkpt lat="43.1758722" lon="12.2624699"><ele>421.6666666666667</ele><time>2026-03-29T07:35:34.439Z</time></trkpt><trkpt lat="43.1759366" lon="12.2624527"><ele>425.0</ele><time>2026-03-29T07:35:36.438Z</time></trkpt><trkpt lat="43.1760152" lon="12.2624109"><ele>428.33333333333337</ele><time>2026-03-29T07:35:38.439Z</time></trkpt><trkpt lat="43.1760763" lon="12.2623808"><ele>431.6666666666667</ele><time>2026-03-29T07:35:41.439Z</time></trkpt><trkpt lat="43.1761717" lon="12.2623884"><ele>435.0</ele><time>2026-03-29T07:35:44.438Z</time></trkpt><trkpt lat="43.1762382" lon="12.2623754"><ele>435.0</ele><time>2026-03-29T07:35:46.439Z</time></trkpt><trkpt lat="43.1762941" lon="12.2622903"><ele>435.0</ele><time>2026-03-29T07:35:50.438Z</time></trkpt><trkpt lat="43.1763561" lon="12.262256"><ele>435.0</ele><time>2026-03-29T07:35:53.438Z</time></trkpt><trkpt lat="43.1764843" lon="12.2622583"><ele>435.0</ele><time>2026-03-29T07:35:55.438Z</time></trkpt><trkpt lat="43.1766387" lon="12.262265"><ele>435.0</ele><time>2026-03-29T07:35:58.439Z</time></trkpt><trkpt lat="43.1767301" lon="12.2622013"><ele>438.5</ele><time>2026-03-29T07:36:00.438Z</time></trkpt><trkpt lat="43.17682" lon="12.2620763"><ele>442.0</ele><time>2026-03-29T07:36:02.438Z</time></trkpt><trkpt lat="43.176853" lon="12.261975"><ele>445.5</ele><time>2026-03-29T07:36:08.439Z</time></trkpt><trkpt lat="43.1768497" lon="12.2618658"><ele>449.0</ele><time>2026-03-29T07:36:11.438Z</time></trkpt><trkpt lat="43.1768433" lon="12.2617527"><ele>452.5</ele><time>2026-03-29T07:36:13.438Z</time></trkpt><trkpt lat="43.1768599" lon="12.2616489"><ele>456.0</ele><time>2026-03-29T07:36:15.439Z</time></trkpt><trkpt lat="43.1769347" lon="12.2615951"><ele>456.0</ele><time>2026-03-29T07:36:19.438Z</time></trkpt><trkpt lat="43.1770236" lon="12.2616095"><ele>456.0</ele><time>2026-03-29T07:36:21.438Z</time></trkpt><trkpt lat="43.1771196" lon="12.2616382"><ele>456.0</ele><time>2026-03-29T07:36:23.438Z</time></trkpt><trkpt lat="43.1772404" lon="12.2616981"><ele>456.0</ele><time>2026-03-29T07:36:25.438Z</time></trkpt><trkpt lat="43.1773093" lon="12.261729"><ele>456.0</ele><time>2026-03-29T07:36:26.439Z</time></trkpt><trkpt lat="43.1773862" lon="12.2617685"><ele>455.20000000000005</ele><time>2026-03-29T07:36:27.439Z</time></trkpt><trkpt lat="43.1774806" lon="12.261834"><ele>454.40000000000003</ele><time>2026-03-29T07:36:28.437Z</time></trkpt><trkpt lat="43.1775793" lon="12.2619093"><ele>453.6</ele><time>2026-03-29T07:36:29.439Z</time></trkpt><trkpt lat="43.1776759" lon="12.2619812"><ele>452.8</ele><time>2026-03-29T07:36:30.438Z</time></trkpt><trkpt lat="43.1777807" lon="12.262054"><ele>452.0</ele><time>2026-03-29T07:36:31.438Z</time></trkpt><trkpt lat="43.1778771" lon="12.2621279"><ele>452.0</ele><time>2026-03-29T07:36:32.439Z</time></trkpt><trkpt lat="43.1780059" lon="12.2621497"><ele>452.0</ele><time>2026-03-29T07:36:33.439Z</time></trkpt><trkpt lat="43.1781269" lon="12.2621873"><ele>452.0</ele><time>2026-03-29T07:36:34.438Z</time></trkpt><trkpt lat="43.1782481" lon="12.262227"><ele>452.0</ele><time>2026-03-29T07:36:35.439Z</time></trkpt><trkpt lat="43.1783509" lon="12.2622372"><ele>450.40000000000003</ele><time>2026-03-29T07:36:36.438Z</time></trkpt><trkpt lat="43.1784565" lon="12.2622648"><ele>448.80000000000007</ele><time>2026-03-29T07:36:37.439Z</time></trkpt><trkpt lat="43.1785608" lon="12.2622821"><ele>447.2</ele><time>2026-03-29T07:36:38.439Z</time></trkpt><trkpt lat="43.1786599" lon="12.2622912"><ele>445.6</ele><time>2026-03-29T07:36:39.439Z</time></trkpt><trkpt lat="43.1787585" lon="12.2623099"><ele>444.0</ele><time>2026-03-29T07:36:40.439Z</time></trkpt><trkpt lat="43.1788805" lon="12.2623025"><ele>444.5</ele><time>2026-03-29T07:36:41.438Z</time></trkpt><trkpt lat="43.178983" lon="12.2623382"><ele>445.0</ele><time>2026-03-29T07:36:42.439Z</time></trkpt><trkpt lat="43.1790832" lon="12.2623823"><ele>445.5</ele><time>2026-03-29T07:36:43.438Z</time></trkpt><trkpt lat="43.1792028" lon="12.2624433"><ele>446.0</ele><time>2026-03-29T07:36:44.438Z</time></trkpt><trkpt lat="43.1793141" lon="12.2624936"><ele>446.0</ele><time>2026-03-29T07:36:45.438Z</time></trkpt><trkpt lat="43.1794243" lon="12.2625278"><ele>446.0</ele><time>2026-03-29T07:36:46.438Z</time></trkpt><trkpt lat="43.1795449" lon="12.2625707"><ele>446.0</ele><time>2026-03-29T07:36:47.439Z</time></trkpt><trkpt lat="43.1796693" lon="12.2626132"><ele>446.0</ele><time>2026-03-29T07:36:48.439Z</time></trkpt><trkpt lat="43.179757" lon="12.2627273"><ele>445.75</ele><time>2026-03-29T07:36:49.439Z</time></trkpt><trkpt lat="43.1798542" lon="12.2628006"><ele>445.5</ele><time>2026-03-29T07:36:50.439Z</time></trkpt><trkpt lat="43.1799103" lon="12.2629174"><ele>445.25</ele><time>2026-03-29T07:36:51.438Z</time></trkpt><trkpt lat="43.1799934" lon="12.2630443"><ele>445.0</ele><time>2026-03-29T07:36:52.439Z</time></trkpt><trkpt lat="43.1800777" lon="12.2631856"><ele>445.0</ele><time>2026-03-29T07:36:53.438Z</time></trkpt><trkpt lat="43.1801651" lon="12.2632942"><ele>445.0</ele><time>2026-03-29T07:36:54.438Z</time></trkpt><trkpt lat="43.1802488" lon="12.2633916"><ele>445.0</ele><time>2026-03-29T07:36:55.438Z</time></trkpt><trkpt lat="43.1803301" lon="12.2634879"><ele>445.0</ele><time>2026-03-29T07:36:56.438Z</time></trkpt><trkpt lat="43.1804157" lon="12.2635345"><ele>445.0</ele><time>2026-03-29T07:36:57.439Z</time></trkpt><trkpt lat="43.180487" lon="12.2635809"><ele>445.00000000000006</ele><time>2026-03-29T07:36:58.439Z</time></trkpt><trkpt lat="43.1805534" lon="12.2636282"><ele>445.0</ele><time>2026-03-29T07:36:59.438Z</time></trkpt><trkpt lat="43.1806195" lon="12.2636393"><ele>445.0</ele><time>2026-03-29T07:37:00.438Z</time></trkpt><trkpt lat="43.1807272" lon="12.2635999"><ele>445.0</ele><time>2026-03-29T07:37:02.439Z</time></trkpt><trkpt lat="43.1808012" lon="12.2635673"><ele>445.00000000000006</ele><time>2026-03-29T07:37:04.439Z</time></trkpt><trkpt lat="43.1808568" lon="12.263498"><ele>445.0</ele><time>2026-03-29T07:37:06.439Z</time></trkpt><trkpt lat="43.1809616" lon="12.2634611"><ele>446.75</ele><time>2026-03-29T07:37:08.438Z</time></trkpt><trkpt lat="43.1810623" lon="12.2634738"><ele>448.5</ele><time>2026-03-29T07:37:09.439Z</time></trkpt><trkpt lat="43.1812175" lon="12.2634306"><ele>450.25</ele><time>2026-03-29T07:37:11.439Z</time></trkpt><trkpt lat="43.1813033" lon="12.263425"><ele>452.0</ele><time>2026-03-29T07:37:12.439Z</time></trkpt><trkpt lat="43.1814143" lon="12.2634231"><ele>449.20000000000005</ele><time>2026-03-29T07:37:13.439Z</time></trkpt><trkpt lat="43.1815223" lon="12.2633975"><ele>446.40000000000003</ele><time>2026-03-29T07:37:14.438Z</time></trkpt><trkpt lat="43.1816033" lon="12.2633283"><ele>443.59999999999997</ele><time>2026-03-29T07:37:15.439Z</time></trkpt><trkpt lat="43.1817145" lon="12.2632857"><ele>440.79999999999995</ele><time>2026-03-29T07:37:16.438Z</time></trkpt><trkpt lat="43.1818334" lon="12.2632601"><ele>438.0</ele><time>2026-03-29T07:37:17.438Z</time></trkpt><trkpt lat="43.1819629" lon="12.2632513"><ele>438.0</ele><time>2026-03-29T07:37:18.439Z</time></trkpt><trkpt lat="43.1820881" lon="12.2632603"><ele>437.99999999999994</ele><time>2026-03-29T07:37:19.438Z</time></trkpt><trkpt lat="43.1821843" lon="12.2632888"><ele>437.99999999999994</ele><time>2026-03-29T07:37:20.438Z</time></trkpt><trkpt lat="43.1822692" lon="12.2632941"><ele>438.0</ele><time>2026-03-29T07:37:21.438Z</time></trkpt><trkpt lat="43.1823543" lon="12.2632941"><ele>438.0</ele><time>2026-03-29T07:37:22.439Z</time></trkpt><trkpt lat="43.1824356" lon="12.2633265"><ele>434.4</ele><time>2026-03-29T07:37:23.439Z</time></trkpt><trkpt lat="43.182522" lon="12.2633573"><ele>430.79999999999995</ele><time>2026-03-29T07:37:24.438Z</time></trkpt><trkpt lat="43.1826159" lon="12.2633944"><ele>427.2</ele><time>2026-03-29T07:37:25.439Z</time></trkpt><trkpt lat="43.182705" lon="12.2634341"><ele>423.6</ele><time>2026-03-29T07:37:26.438Z</time></trkpt><trkpt lat="43.1827997" lon="12.2634763"><ele>420.0</ele><time>2026-03-29T07:37:27.439Z</time></trkpt><trkpt lat="43.1829136" lon="12.2635251"><ele>420.0</ele><time>2026-03-29T07:37:28.438Z</time></trkpt><trkpt lat="43.1830163" lon="12.263581"><ele>420.0</ele><time>2026-03-29T07:37:29.438Z</time></trkpt><trkpt lat="43.1831223" lon="12.2636129"><ele>420.0</ele><time>2026-03-29T07:37:30.439Z</time></trkpt><trkpt lat="43.183224" lon="12.2636329"><ele>420.0</ele><time>2026-03-29T07:37:31.439Z</time></trkpt><trkpt lat="43.1833587" lon="12.263617"><ele>417.8</ele><time>2026-03-29T07:37:33.438Z</time></trkpt><trkpt lat="43.1834051" lon="12.2635127"><ele>415.6</ele><time>2026-03-29T07:37:34.438Z</time></trkpt><trkpt lat="43.1834642" lon="12.263458"><ele>413.4</ele><time>2026-03-29T07:37:35.438Z</time></trkpt><trkpt lat="43.1835177" lon="12.2633893"><ele>411.2</ele><time>2026-03-29T07:37:36.438Z</time></trkpt><trkpt lat="43.1835754" lon="12.2632779"><ele>409.0</ele><time>2026-03-29T07:37:37.438Z</time></trkpt><trkpt lat="43.1836072" lon="12.2631022"><ele>404.4</ele><time>2026-03-29T07:37:38.439Z</time></trkpt><trkpt lat="43.1836769" lon="12.2630414"><ele>399.79999999999995</ele><time>2026-03-29T07:37:39.439Z</time></trkpt><trkpt lat="43.1837605" lon="12.2629498"><ele>395.20000000000005</ele><time>2026-03-29T07:37:40.439Z</time></trkpt><trkpt lat="43.1838846" lon="12.2628635"><ele>390.6</ele><time>2026-03-29T07:37:41.439Z</time></trkpt><trkpt lat="43.1839457" lon="12.2629202"><ele>386.0</ele><time>2026-03-29T07:37:42.438Z</time></trkpt><trkpt lat="43.1840137" lon="12.2629126"><ele>386.0</ele><time>2026-03-29T07:37:43.438Z</time></trkpt><trkpt lat="43.1841083" lon="12.2628831"><ele>386.0</ele><time>2026-03-29T07:37:44.438Z</time></trkpt><trkpt lat="43.1842063" lon="12.2628631"><ele>386.0</ele><time>2026-03-29T07:37:45.439Z</time></trkpt><trkpt lat="43.1843075" lon="12.2628564"><ele>386.0</ele><time>2026-03-29T07:37:46.439Z</time></trkpt><trkpt lat="43.1843888" lon="12.2628645"><ele>386.0</ele><time>2026-03-29T07:37:47.438Z</time></trkpt><trkpt lat="43.1844859" lon="12.2628454"><ele>386.0</ele><time>2026-03-29T07:37:48.438Z</time></trkpt><trkpt lat="43.1845738" lon="12.2628219"><ele>386.0</ele><time>2026-03-29T07:37:49.438Z</time></trkpt><trkpt lat="43.1846629" lon="12.2627859"><ele>386.0</ele><time>2026-03-29T07:37:50.438Z</time></trkpt><trkpt lat="43.1847119" lon="12.2626962"><ele>386.0</ele><time>2026-03-29T07:37:51.439Z</time></trkpt><trkpt lat="43.1847465" lon="12.2626148"><ele>386.0</ele><time>2026-03-29T07:37:52.439Z</time></trkpt><trkpt lat="43.1847655" lon="12.2624494"><ele>386.0</ele><time>2026-03-29T07:37:54.438Z</time></trkpt><trkpt lat="43.1847398" lon="12.2623151"><ele>386.0</ele><time>2026-03-29T07:37:56.439Z</time></trkpt><trkpt lat="43.1846985" lon="12.2622372"><ele>386.0</ele><time>2026-03-29T07:37:57.438Z</time></trkpt><trkpt lat="43.1846235" lon="12.2621202"><ele>386.0</ele><time>2026-03-29T07:37:58.438Z</time></trkpt><trkpt lat="43.1845624" lon="12.2620268"><ele>386.0</ele><time>2026-03-29T07:37:59.439Z</time></trkpt><trkpt lat="43.1844642" lon="12.2619332"><ele>383.6</ele><time>2026-03-29T07:38:00.439Z</time></trkpt><trkpt lat="43.1843994" lon="12.261838"><ele>381.20000000000005</ele><time>2026-03-29T07:38:01.438Z</time></trkpt><trkpt lat="43.184314" lon="12.2617828"><ele>378.79999999999995</ele><time>2026-03-29T07:38:02.438Z</time></trkpt><trkpt lat="43.1842614" lon="12.261718"><ele>376.4</ele><time>2026-03-29T07:38:03.438Z</time></trkpt><trkpt lat="43.1842017" lon="12.261654"><ele>374.0</ele><time>2026-03-29T07:38:04.438Z</time></trkpt><trkpt lat="43.1840816" lon="12.2616534"><ele>374.0</ele><time>2026-03-29T07:38:06.438Z</time></trkpt><trkpt lat="43.1840117" lon="12.2616363"><ele>374.0</ele><time>2026-03-29T07:38:09.438Z</time></trkpt><trkpt lat="43.1840479" lon="12.2614974"><ele>374.0</ele><time>2026-03-29T07:38:11.438Z</time></trkpt><trkpt lat="43.184058" lon="12.2613514"><ele>374.0</ele><time>2026-03-29T07:38:13.438Z</time></trkpt><trkpt lat="43.1839926" lon="12.2613593"><ele>374.0</ele><time>2026-03-29T07:38:14.438Z</time></trkpt><trkpt lat="43.1839266" lon="12.2613586"><ele>374.0</ele><time>2026-03-29T07:38:15.438Z</time></trkpt><trkpt lat="43.183809" lon="12.2614431"><ele>372.6666666666667</ele><time>2026-03-29T07:38:17.438Z</time></trkpt><trkpt lat="43.1837317" lon="12.2614989"><ele>371.33333333333337</ele><time>2026-03-29T07:38:18.438Z</time></trkpt><trkpt lat="43.1836945" lon="12.2615824"><ele>370.0</ele><time>2026-03-29T07:38:19.439Z</time></trkpt><trkpt lat="43.1836448" lon="12.2616513"><ele>368.6666666666667</ele><time>2026-03-29T07:38:20.438Z</time></trkpt><trkpt lat="43.1836056" lon="12.2617455"><ele>367.3333333333333</ele><time>2026-03-29T07:38:21.439Z</time></trkpt><trkpt lat="43.1835259" lon="12.2618447"><ele>366.0</ele><time>2026-03-29T07:38:23.439Z</time></trkpt><trkpt lat="43.1834852" lon="12.2617634"><ele>366.0</ele><time>2026-03-29T07:38:25.438Z</time></trkpt><trkpt lat="43.1834616" lon="12.2616307"><ele>366.0</ele><time>2026-03-29T07:38:26.439Z</time></trkpt><trkpt lat="43.18342" lon="12.2615569"><ele>366.0</ele><time>2026-03-29T07:38:27.439Z</time></trkpt><trkpt lat="43.1833773" lon="12.2614613"><ele>366.0</ele><time>2026-03-29T07:38:29.439Z</time></trkpt><trkpt lat="43.1833275" lon="12.2613842"><ele>366.0</ele><time>2026-03-29T07:38:30.438Z</time></trkpt><trkpt lat="43.1833282" lon="12.2612708"><ele>366.0</ele><time>2026-03-29T07:38:32.439Z</time></trkpt><trkpt lat="43.1833227" lon="12.2611024"><ele>363.0</ele><time>2026-03-29T07:38:34.438Z</time></trkpt><trkpt lat="43.1833224" lon="12.26101"><ele>360.0</ele><time>2026-03-29T07:38:35.439Z</time></trkpt><trkpt lat="43.1833328" lon="12.2608568"><ele>357.0</ele><time>2026-03-29T07:38:36.439Z</time></trkpt><trkpt lat="43.1833397" lon="12.2607125"><ele>354.0</ele><time>2026-03-29T07:38:37.439Z</time></trkpt><trkpt lat="43.1833479" lon="12.2605738"><ele>351.0</ele><time>2026-03-29T07:38:38.438Z</time></trkpt><trkpt lat="43.1833744" lon="12.2604277"><ele>348.8</ele><time>2026-03-29T07:38:39.439Z</time></trkpt><trkpt lat="43.183395" lon="12.2602753"><ele>346.6</ele><time>2026-03-29T07:38:40.438Z</time></trkpt><trkpt lat="43.1834136" lon="12.260169"><ele>344.4</ele><time>2026-03-29T07:38:41.438Z</time></trkpt><trkpt lat="43.1834198" lon="12.2600368"><ele>342.2</ele><time>2026-03-29T07:38:42.439Z</time></trkpt><trkpt lat="43.1834274" lon="12.2599148"><ele>340.0</ele><time>2026-03-29T07:38:43.438Z</time></trkpt><trkpt lat="43.1834226" lon="12.259799"><ele>337.8333333333333</ele><time>2026-03-29T07:38:44.438Z</time></trkpt><trkpt lat="43.1834489" lon="12.2596793"><ele>335.66666666666663</ele><time>2026-03-29T07:38:45.439Z</time></trkpt><trkpt lat="43.1834601" lon="12.2595674"><ele>333.5</ele><time>2026-03-29T07:38:46.438Z</time></trkpt><trkpt lat="43.1834167" lon="12.2594717"><ele>331.3333333333333</ele><time>2026-03-29T07:38:47.438Z</time></trkpt><trkpt lat="43.1834147" lon="12.2593853"><ele>329.1666666666667</ele><time>2026-03-29T07:38:48.438Z</time></trkpt><trkpt lat="43.1834019" lon="12.2592844"><ele>327.0</ele><time>2026-03-29T07:38:49.439Z</time></trkpt><trkpt lat="43.1833895" lon="12.2591839"><ele>327.0</ele><time>2026-03-29T07:38:50.438Z</time></trkpt><trkpt lat="43.1833664" lon="12.2590651"><ele>327.0</ele><time>2026-03-29T07:38:51.439Z</time></trkpt><trkpt lat="43.1833169" lon="12.2589515"><ele>327.0</ele><time>2026-03-29T07:38:52.438Z</time></trkpt><trkpt lat="43.1832647" lon="12.2588112"><ele>327.0</ele><time>2026-03-29T07:38:53.439Z</time></trkpt><trkpt lat="43.1832259" lon="12.258711"><ele>327.0</ele><time>2026-03-29T07:38:54.439Z</time></trkpt><trkpt lat="43.1831803" lon="12.258599"><ele>327.20000000000005</ele><time>2026-03-29T07:38:55.439Z</time></trkpt><trkpt lat="43.1831378" lon="12.258496"><ele>327.4</ele><time>2026-03-29T07:38:56.439Z</time></trkpt><trkpt lat="43.1830523" lon="12.2583058"><ele>327.6</ele><time>2026-03-29T07:38:58.438Z</time></trkpt><trkpt lat="43.1830217" lon="12.2582251"><ele>327.79999999999995</ele><time>2026-03-29T07:38:59.438Z</time></trkpt><trkpt lat="43.1829997" lon="12.2581083"><ele>328.0</ele><time>2026-03-29T07:39:02.438Z</time></trkpt><trkpt lat="43.1830046" lon="12.2580217"><ele>327.79999999999995</ele><time>2026-03-29T07:39:04.439Z</time></trkpt><trkpt lat="43.1830248" lon="12.2579107"><ele>327.6</ele><time>2026-03-29T07:39:06.439Z</time></trkpt><trkpt lat="43.1830798" lon="12.2578471"><ele>327.4</ele><time>2026-03-29T07:39:07.439Z</time></trkpt><trkpt lat="43.1832156" lon="12.2577865"><ele>327.20000000000005</ele><time>2026-03-29T07:39:09.438Z</time></trkpt><trkpt lat="43.1832962" lon="12.2577963"><ele>327.0</ele><time>2026-03-29T07:39:11.439Z</time></trkpt><trkpt lat="43.1833855" lon="12.2578904"><ele>327.0</ele><time>2026-03-29T07:39:13.439Z</time></trkpt><trkpt lat="43.1834285" lon="12.2579766"><ele>327.0</ele><time>2026-03-29T07:39:14.438Z</time></trkpt><trkpt lat="43.1834796" lon="12.2580343"><ele>327.0</ele><time>2026-03-29T07:39:15.439Z</time></trkpt><trkpt lat="43.1835454" lon="12.2581128"><ele>327.0</ele><time>2026-03-29T07:39:16.439Z</time></trkpt><trkpt lat="43.1836144" lon="12.2581918"><ele>327.0</ele><time>2026-03-29T07:39:17.438Z</time></trkpt><trkpt lat="43.1836806" lon="12.2582831"><ele>327.0</ele><time>2026-03-29T07:39:18.439Z</time></trkpt><trkpt lat="43.1837512" lon="12.2583716"><ele>325.8333333333333</ele><time>2026-03-29T07:39:19.438Z</time></trkpt><trkpt lat="43.1838223" lon="12.2584564"><ele>324.6666666666667</ele><time>2026-03-29T07:39:20.438Z</time></trkpt><trkpt lat="43.1838933" lon="12.2585324"><ele>323.5</ele><time>2026-03-29T07:39:21.438Z</time></trkpt><trkpt lat="43.1839667" lon="12.2585871"><ele>322.33333333333337</ele><time>2026-03-29T07:39:22.438Z</time></trkpt><trkpt lat="43.1840469" lon="12.2586164"><ele>321.1666666666667</ele><time>2026-03-29T07:39:23.439Z</time></trkpt><trkpt lat="43.1841267" lon="12.2586335"><ele>320.0</ele><time>2026-03-29T07:39:24.438Z</time></trkpt><trkpt lat="43.1842104" lon="12.2586448"><ele>322.8</ele><time>2026-03-29T07:39:25.439Z</time></trkpt><trkpt lat="43.1843029" lon="12.2586564"><ele>325.6</ele><time>2026-03-29T07:39:26.438Z</time></trkpt><trkpt lat="43.1843914" lon="12.2587201"><ele>328.4</ele><time>2026-03-29T07:39:27.439Z</time></trkpt><trkpt lat="43.1844682" lon="12.2587897"><ele>331.2</ele><time>2026-03-29T07:39:28.439Z</time></trkpt><trkpt lat="43.1845352" lon="12.2588454"><ele>334.0</ele><time>2026-03-29T07:39:29.438Z</time></trkpt><trkpt lat="43.184613" lon="12.2589456"><ele>334.0</ele><time>2026-03-29T07:39:30.439Z</time></trkpt><trkpt lat="43.1846652" lon="12.2590364"><ele>334.0</ele><time>2026-03-29T07:39:31.438Z</time></trkpt><trkpt lat="43.1847614" lon="12.2591047"><ele>334.0</ele><time>2026-03-29T07:39:33.439Z</time></trkpt><trkpt lat="43.1848386" lon="12.2591332"><ele>334.0</ele><time>2026-03-29T07:39:35.438Z</time></trkpt><trkpt lat="43.1849092" lon="12.2591737"><ele>334.0</ele><time>2026-03-29T07:39:36.439Z</time></trkpt><trkpt lat="43.1850045" lon="12.2592187"><ele>334.0</ele><time>2026-03-29T07:39:38.439Z</time></trkpt><trkpt lat="43.1851243" lon="12.2593116"><ele>334.0</ele><time>2026-03-29T07:39:40.439Z</time></trkpt><trkpt lat="43.1852218" lon="12.2593508"><ele>334.0</ele><time>2026-03-29T07:39:41.439Z</time></trkpt><trkpt lat="43.185315" lon="12.2593805"><ele>334.0</ele><time>2026-03-29T07:39:42.438Z</time></trkpt><trkpt lat="43.1853956" lon="12.2593508"><ele>334.0</ele><time>2026-03-29T07:39:43.439Z</time></trkpt><trkpt lat="43.1854884" lon="12.2593547"><ele>334.0</ele><time>2026-03-29T07:39:44.439Z</time></trkpt><trkpt lat="43.1855724" lon="12.259341"><ele>334.0</ele><time>2026-03-29T07:39:45.437Z</time></trkpt><trkpt lat="43.1856788" lon="12.2593736"><ele>334.0</ele><time>2026-03-29T07:39:46.439Z</time></trkpt><trkpt lat="43.1857543" lon="12.2593671"><ele>334.0</ele><time>2026-03-29T07:39:47.438Z</time></trkpt><trkpt lat="43.1858077" lon="12.2594451"><ele>334.0</ele><time>2026-03-29T07:39:48.438Z</time></trkpt><trkpt lat="43.185886" lon="12.2595196"><ele>334.0</ele><time>2026-03-29T07:39:49.438Z</time></trkpt><trkpt lat="43.1859595" lon="12.2595917"><ele>333.2</ele><time>2026-03-29T07:39:50.437Z</time></trkpt><trkpt lat="43.1860218" lon="12.2596561"><ele>332.4</ele><time>2026-03-29T07:39:51.439Z</time></trkpt><trkpt lat="43.1860877" lon="12.2597304"><ele>331.6</ele><time>2026-03-29T07:39:52.438Z</time></trkpt><trkpt lat="43.186192" lon="12.2598435"><ele>330.8</ele><time>2026-03-29T07:39:53.438Z</time></trkpt><trkpt lat="43.1862882" lon="12.2598694"><ele>330.0</ele><time>2026-03-29T07:39:54.439Z</time></trkpt><trkpt lat="43.1863676" lon="12.2599352"><ele>330.0</ele><time>2026-03-29T07:39:55.439Z</time></trkpt><trkpt lat="43.1864882" lon="12.2599481"><ele>330.0</ele><time>2026-03-29T07:39:56.438Z</time></trkpt><trkpt lat="43.1865856" lon="12.2599794"><ele>330.0</ele><time>2026-03-29T07:39:57.439Z</time></trkpt><trkpt lat="43.1866644" lon="12.2599685"><ele>330.0</ele><time>2026-03-29T07:39:58.438Z</time></trkpt><trkpt lat="43.1867641" lon="12.2599706"><ele>330.0</ele><time>2026-03-29T07:39:59.438Z</time></trkpt><trkpt lat="43.1868547" lon="12.2599526"><ele>330.8</ele><time>2026-03-29T07:40:00.439Z</time></trkpt><trkpt lat="43.1869464" lon="12.259917"><ele>331.6</ele><time>2026-03-29T07:40:01.439Z</time></trkpt><trkpt lat="43.1870487" lon="12.259869"><ele>332.4</ele><time>2026-03-29T07:40:02.438Z</time></trkpt><trkpt lat="43.1870943" lon="12.2599954"><ele>333.2</ele><time>2026-03-29T07:40:03.439Z</time></trkpt><trkpt lat="43.1871818" lon="12.2600221"><ele>334.0</ele><time>2026-03-29T07:40:04.438Z</time></trkpt><trkpt lat="43.1872633" lon="12.2600202"><ele>335.79999999999995</ele><time>2026-03-29T07:40:05.438Z</time></trkpt><trkpt lat="43.1873617" lon="12.2600781"><ele>337.59999999999997</ele><time>2026-03-29T07:40:07.438Z</time></trkpt><trkpt lat="43.1874656" lon="12.2601243"><ele>339.4</ele><time>2026-03-29T07:40:09.438Z</time></trkpt><trkpt lat="43.1875523" lon="12.2601364"><ele>341.2</ele><time>2026-03-29T07:40:11.439Z</time></trkpt><trkpt lat="43.1876656" lon="12.2601736"><ele>343.0</ele><time>2026-03-29T07:40:13.438Z</time></trkpt><trkpt lat="43.1877888" lon="12.2601917"><ele>343.0</ele><time>2026-03-29T07:40:15.439Z</time></trkpt><trkpt lat="43.1878697" lon="12.2602138"><ele>343.0</ele><time>2026-03-29T07:40:16.439Z</time></trkpt><trkpt lat="43.1879406" lon="12.2602183"><ele>343.0</ele><time>2026-03-29T07:40:17.439Z</time></trkpt><trkpt lat="43.188018" lon="12.2601755"><ele>343.0</ele><time>2026-03-29T07:40:18.438Z</time></trkpt><trkpt lat="43.1880965" lon="12.2601515"><ele>343.0</ele><time>2026-03-29T07:40:19.438Z</time></trkpt><trkpt lat="43.1881767" lon="12.2601561"><ele>343.0</ele><time>2026-03-29T07:40:20.438Z</time></trkpt><trkpt lat="43.1882977" lon="12.2601557"><ele>344.5</ele><time>2026-03-29T07:40:22.438Z</time></trkpt><trkpt lat="43.1883931" lon="12.2601464"><ele>346.0</ele><time>2026-03-29T07:40:23.439Z</time></trkpt><trkpt lat="43.1884669" lon="12.2601401"><ele>347.5</ele><time>2026-03-29T07:40:24.439Z</time></trkpt><trkpt lat="43.1885222" lon="12.2601874"><ele>349.0</ele><time>2026-03-29T07:40:25.439Z</time></trkpt><trkpt lat="43.1886352" lon="12.2602555"><ele>350.5</ele><time>2026-03-29T07:40:27.439Z</time></trkpt><trkpt lat="43.1886996" lon="12.2602939"><ele>352.0</ele><time>2026-03-29T07:40:28.439Z</time></trkpt><trkpt lat="43.188766" lon="12.2603287"><ele>352.0</ele><time>2026-03-29T07:40:29.439Z</time></trkpt><trkpt lat="43.1888441" lon="12.2603801"><ele>352.0</ele><time>2026-03-29T07:40:30.439Z</time></trkpt><trkpt lat="43.1889217" lon="12.2604173"><ele>352.0</ele><time>2026-03-29T07:40:31.438Z</time></trkpt><trkpt lat="43.1890339" lon="12.260374"><ele>352.0</ele><time>2026-03-29T07:40:32.44Z</time></trkpt><trkpt lat="43.1891116" lon="12.2603849"><ele>352.0</ele><time>2026-03-29T07:40:33.439Z</time></trkpt><trkpt lat="43.1891946" lon="12.2604007"><ele>352.0</ele><time>2026-03-29T07:40:34.439Z</time></trkpt><trkpt lat="43.1893003" lon="12.2604433"><ele>353.0</ele><time>2026-03-29T07:40:36.438Z</time></trkpt><trkpt lat="43.1894071" lon="12.2604072"><ele>354.0</ele><time>2026-03-29T07:40:39.439Z</time></trkpt><trkpt lat="43.1894852" lon="12.2603304"><ele>355.0</ele><time>2026-03-29T07:40:41.439Z</time></trkpt><trkpt lat="43.1895901" lon="12.2602763"><ele>356.0</ele><time>2026-03-29T07:40:43.439Z</time></trkpt><trkpt lat="43.1896844" lon="12.2602658"><ele>357.0</ele><time>2026-03-29T07:40:45.438Z</time></trkpt><trkpt lat="43.1897471" lon="12.2602578"><ele>357.0</ele><time>2026-03-29T07:40:46.439Z</time></trkpt><trkpt lat="43.1898248" lon="12.2602602"><ele>357.0</ele><time>2026-03-29T07:40:47.439Z</time></trkpt><trkpt lat="43.1898968" lon="12.2602826"><ele>357.0</ele><time>2026-03-29T07:40:48.439Z</time></trkpt><trkpt lat="43.1899594" lon="12.2603163"><ele>357.0</ele><time>2026-03-29T07:40:49.439Z</time></trkpt><trkpt lat="43.1900107" lon="12.2604041"><ele>357.0</ele><time>2026-03-29T07:40:50.437Z</time></trkpt><trkpt lat="43.1900791" lon="12.2604536"><ele>357.0</ele><time>2026-03-29T07:40:51.438Z</time></trkpt><trkpt lat="43.1901297" lon="12.2605096"><ele>357.0</ele><time>2026-03-29T07:40:52.438Z</time></trkpt><trkpt lat="43.1902105" lon="12.2605082"><ele>359.5</ele><time>2026-03-29T07:40:53.439Z</time></trkpt><trkpt lat="43.1903738" lon="12.2605545"><ele>362.0</ele><time>2026-03-29T07:40:55.439Z</time></trkpt><trkpt lat="43.1904852" lon="12.2605694"><ele>364.5</ele><time>2026-03-29T07:40:58.438Z</time></trkpt><trkpt lat="43.1905741" lon="12.260593"><ele>367.0</ele><time>2026-03-29T07:40:59.438Z</time></trkpt><trkpt lat="43.1906583" lon="12.2606527"><ele>365.16666666666663</ele><time>2026-03-29T07:41:00.439Z</time></trkpt><trkpt lat="43.1907048" lon="12.2607219"><ele>363.3333333333333</ele><time>2026-03-29T07:41:01.438Z</time></trkpt><trkpt lat="43.190769" lon="12.2607201"><ele>361.5</ele><time>2026-03-29T07:41:02.438Z</time></trkpt><trkpt lat="43.1908715" lon="12.260734"><ele>359.6666666666667</ele><time>2026-03-29T07:41:04.439Z</time></trkpt><trkpt lat="43.1909882" lon="12.2607945"><ele>357.83333333333337</ele><time>2026-03-29T07:41:06.438Z</time></trkpt><trkpt lat="43.1910507" lon="12.2608295"><ele>356.0</ele><time>2026-03-29T07:41:07.438Z</time></trkpt><trkpt lat="43.1911888" lon="12.2608289"><ele>356.0</ele><time>2026-03-29T07:41:08.438Z</time></trkpt><trkpt lat="43.1912761" lon="12.2608492"><ele>356.0</ele><time>2026-03-29T07:41:09.438Z</time></trkpt><trkpt lat="43.1913634" lon="12.2608623"><ele>356.0</ele><time>2026-03-29T07:41:10.439Z</time></trkpt><trkpt lat="43.1914535" lon="12.2608798"><ele>356.0</ele><time>2026-03-29T07:41:11.439Z</time></trkpt><trkpt lat="43.1915845" lon="12.2609274"><ele>356.0</ele><time>2026-03-29T07:41:13.439Z</time></trkpt><trkpt lat="43.1917681" lon="12.2608933"><ele>356.5</ele><time>2026-03-29T07:41:15.439Z</time></trkpt><trkpt lat="43.1918627" lon="12.26087"><ele>357.0</ele><time>2026-03-29T07:41:17.439Z</time></trkpt><trkpt lat="43.1919678" lon="12.260857"><ele>357.5</ele><time>2026-03-29T07:41:22.439Z</time></trkpt><trkpt lat="43.1920362" lon="12.2608194"><ele>358.0</ele><time>2026-03-29T07:41:28.438Z</time></trkpt><trkpt lat="43.1922342" lon="12.2605972"><ele>358.59999999999997</ele><time>2026-03-29T07:41:38.439Z</time></trkpt><trkpt lat="43.1923862" lon="12.2606172"><ele>359.2</ele><time>2026-03-29T07:41:39.439Z</time></trkpt><trkpt lat="43.1925067" lon="12.2605761"><ele>359.8</ele><time>2026-03-29T07:41:40.438Z</time></trkpt><trkpt lat="43.1925704" lon="12.2605398"><ele>360.4</ele><time>2026-03-29T07:41:41.439Z</time></trkpt><trkpt lat="43.19264" lon="12.2604988"><ele>361.0</ele><time>2026-03-29T07:41:43.438Z</time></trkpt><trkpt lat="43.1927369" lon="12.2604182"><ele>365.4</ele><time>2026-03-29T07:41:45.439Z</time></trkpt><trkpt lat="43.1927941" lon="12.2603491"><ele>369.8</ele><time>2026-03-29T07:41:46.439Z</time></trkpt><trkpt lat="43.1928549" lon="12.2602717"><ele>374.2</ele><time>2026-03-29T07:41:47.438Z</time></trkpt><trkpt lat="43.1929365" lon="12.2602362"><ele>378.59999999999997</ele><time>2026-03-29T07:41:48.438Z</time></trkpt><trkpt lat="43.193054" lon="12.2601297"><ele>383.0</ele><time>2026-03-29T07:41:49.438Z</time></trkpt><trkpt lat="43.1931381" lon="12.2601138"><ele>382.0</ele><time>2026-03-29T07:41:50.438Z</time></trkpt><trkpt lat="43.1932157" lon="12.2601353"><ele>381.0</ele><time>2026-03-29T07:41:52.438Z</time></trkpt><trkpt lat="43.1932844" lon="12.2601399"><ele>380.0</ele><time>2026-03-29T07:41:53.439Z</time></trkpt><trkpt lat="43.1933806" lon="12.260175"><ele>379.0</ele><time>2026-03-29T07:41:55.438Z</time></trkpt><trkpt lat="43.1934441" lon="12.2601915"><ele>378.0</ele><time>2026-03-29T07:41:58.439Z</time></trkpt><trkpt lat="43.1935077" lon="12.2601643"><ele>377.0</ele><time>2026-03-29T07:42:00.439Z</time></trkpt><trkpt lat="43.1935863" lon="12.2601087"><ele>377.0</ele><time>2026-03-29T07:42:02.438Z</time></trkpt><trkpt lat="43.1936457" lon="12.2600369"><ele>377.0</ele><time>2026-03-29T07:42:04.439Z</time></trkpt><trkpt lat="43.1937184" lon="12.2600105"><ele>377.0</ele><time>2026-03-29T07:42:06.439Z</time></trkpt><trkpt lat="43.1938196" lon="12.2600176"><ele>377.0</ele><time>2026-03-29T07:42:08.438Z</time></trkpt><trkpt lat="43.19391" lon="12.2600476"><ele>377.0</ele><time>2026-03-29T07:42:10.438Z</time></trkpt><trkpt lat="43.1939873" lon="12.2600323"><ele>377.0</ele><time>2026-03-29T07:42:13.438Z</time></trkpt><trkpt lat="43.1940945" lon="12.2600291"><ele>376.6</ele><time>2026-03-29T07:42:16.438Z</time></trkpt><trkpt lat="43.1941942" lon="12.2600091"><ele>376.20000000000005</ele><time>2026-03-29T07:42:18.439Z</time></trkpt><trkpt lat="43.1942885" lon="12.2600169"><ele>375.8</ele><time>2026-03-29T07:42:20.439Z</time></trkpt><trkpt lat="43.1943597" lon="12.2600437"><ele>375.4</ele><time>2026-03-29T07:42:22.438Z</time></trkpt><trkpt lat="43.1944558" lon="12.26005"><ele>375.0</ele><time>2026-03-29T07:42:26.439Z</time></trkpt><trkpt lat="43.194638" lon="12.2599833"><ele>375.0</ele><time>2026-03-29T07:42:28.438Z</time></trkpt><trkpt lat="43.1947107" lon="12.2599353"><ele>375.0</ele><time>2026-03-29T07:42:29.438Z</time></trkpt><trkpt lat="43.1948036" lon="12.2598992"><ele>375.0</ele><time>2026-03-29T07:42:31.438Z</time></trkpt><trkpt lat="43.1949393" lon="12.2598779"><ele>375.0</ele><time>2026-03-29T07:42:33.438Z</time></trkpt><trkpt lat="43.1950048" lon="12.2598661"><ele>375.0</ele><time>2026-03-29T07:42:34.438Z</time></trkpt><trkpt lat="43.1951087" lon="12.2598166"><ele>376.6666666666667</ele><time>2026-03-29T07:42:36.439Z</time></trkpt><trkpt lat="43.1953443" lon="12.2598179"><ele>378.33333333333337</ele><time>2026-03-29T07:42:38.438Z</time></trkpt><trkpt lat="43.1955056" lon="12.2598346"><ele>380.0</ele><time>2026-03-29T07:42:39.439Z</time></trkpt><trkpt lat="43.19568" lon="12.2598172"><ele>380.6666666666667</ele><time>2026-03-29T07:42:40.439Z</time></trkpt><trkpt lat="43.1958041" lon="12.2598077"><ele>381.3333333333333</ele><time>2026-03-29T07:42:41.438Z</time></trkpt><trkpt lat="43.196009" lon="12.2598077"><ele>382.0</ele><time>2026-03-29T07:42:43.439Z</time></trkpt><trkpt lat="43.1961336" lon="12.2598239"><ele>382.0</ele><time>2026-03-29T07:42:44.438Z</time></trkpt><trkpt lat="43.196239" lon="12.2598328"><ele>382.0</ele><time>2026-03-29T07:42:46.439Z</time></trkpt><trkpt lat="43.1963407" lon="12.2598633"><ele>382.0</ele><time>2026-03-29T07:42:48.438Z</time></trkpt><trkpt lat="43.1964057" lon="12.2598779"><ele>382.0</ele><time>2026-03-29T07:42:49.439Z</time></trkpt><trkpt lat="43.1965007" lon="12.2598606"><ele>382.0</ele><time>2026-03-29T07:42:50.438Z</time></trkpt><trkpt lat="43.1966184" lon="12.2598222"><ele>381.6</ele><time>2026-03-29T07:42:52.439Z</time></trkpt><trkpt lat="43.1967049" lon="12.2597978"><ele>381.20000000000005</ele><time>2026-03-29T07:42:53.438Z</time></trkpt><trkpt lat="43.1968187" lon="12.2597689"><ele>380.8</ele><time>2026-03-29T07:42:55.438Z</time></trkpt><trkpt lat="43.1969326" lon="12.2597437"><ele>380.4</ele><time>2026-03-29T07:42:57.438Z</time></trkpt><trkpt lat="43.1970169" lon="12.2597406"><ele>380.0</ele><time>2026-03-29T07:42:58.439Z</time></trkpt><trkpt lat="43.1970957" lon="12.2597658"><ele>380.0</ele><time>2026-03-29T07:42:59.438Z</time></trkpt><trkpt lat="43.197329" lon="12.2598849"><ele>380.0</ele><time>2026-03-29T07:43:02.438Z</time></trkpt><trkpt lat="43.1973871" lon="12.25992"><ele>380.0</ele><time>2026-03-29T07:43:03.439Z</time></trkpt><trkpt lat="43.1975673" lon="12.2599047"><ele>379.6</ele><time>2026-03-29T07:43:05.438Z</time></trkpt><trkpt lat="43.1976697" lon="12.2598954"><ele>379.2</ele><time>2026-03-29T07:43:07.438Z</time></trkpt><trkpt lat="43.1977536" lon="12.2598999"><ele>378.79999999999995</ele><time>2026-03-29T07:43:08.438Z</time></trkpt><trkpt lat="43.1978462" lon="12.2598984"><ele>378.4</ele><time>2026-03-29T07:43:09.438Z</time></trkpt><trkpt lat="43.1979206" lon="12.259901"><ele>378.0</ele><time>2026-03-29T07:43:10.438Z</time></trkpt><trkpt lat="43.1980511" lon="12.2599359"><ele>378.0</ele><time>2026-03-29T07:43:12.439Z</time></trkpt><trkpt lat="43.1981189" lon="12.2599391"><ele>378.0</ele><time>2026-03-29T07:43:13.438Z</time></trkpt><trkpt lat="43.198183" lon="12.2599192"><ele>378.0</ele><time>2026-03-29T07:43:14.438Z</time></trkpt><trkpt lat="43.1982583" lon="12.259959"><ele>378.0</ele><time>2026-03-29T07:43:16.438Z</time></trkpt><trkpt lat="43.1983378" lon="12.2599294"><ele>378.0</ele><time>2026-03-29T07:43:19.439Z</time></trkpt><trkpt lat="43.1984171" lon="12.2598973"><ele>378.0</ele><time>2026-03-29T07:43:21.438Z</time></trkpt><trkpt lat="43.1984877" lon="12.2598894"><ele>378.6666666666667</ele><time>2026-03-29T07:43:23.438Z</time></trkpt><trkpt lat="43.1985579" lon="12.2598702"><ele>379.3333333333333</ele><time>2026-03-29T07:43:30.44Z</time></trkpt><trkpt lat="43.1986236" lon="12.2598463"><ele>380.0</ele><time>2026-03-29T07:43:38.44Z</time></trkpt><trkpt lat="43.1987063" lon="12.2598422"><ele>380.66666666666663</ele><time>2026-03-29T07:45:00.44Z</time></trkpt><trkpt lat="43.1987685" lon="12.2598274"><ele>381.3333333333333</ele><time>2026-03-29T07:45:04.44Z</time></trkpt><trkpt lat="43.1988459" lon="12.2598063"><ele>382.0</ele><time>2026-03-29T07:45:50.439Z</time></trkpt><trkpt lat="43.1989289" lon="12.2597421"><ele>384.5714285714286</ele><time>2026-03-29T07:45:54.44Z</time></trkpt><trkpt lat="43.1989904" lon="12.2597091"><ele>387.1428571428571</ele><time>2026-03-29T07:45:56.439Z</time></trkpt><trkpt lat="43.1990613" lon="12.2596684"><ele>389.7142857142857</ele><time>2026-03-29T07:46:00.44Z</time></trkpt><trkpt lat="43.199131" lon="12.2596378"><ele>392.28571428571433</ele><time>2026-03-29T07:46:03.439Z</time></trkpt><trkpt lat="43.1991765" lon="12.259577"><ele>394.8571428571429</ele><time>2026-03-29T07:46:28.44Z</time></trkpt><trkpt lat="43.1991258" lon="12.2595139"><ele>397.42857142857144</ele><time>2026-03-29T07:47:25.439Z</time></trkpt><trkpt lat="43.1990944" lon="12.2594241"><ele>400.0</ele><time>2026-03-29T07:47:29.44Z</time></trkpt><trkpt lat="43.1990286" lon="12.2594227"><ele>400.50000000000006</ele><time>2026-03-29T07:47:32.44Z</time></trkpt><trkpt lat="43.1989585" lon="12.259408"><ele>401.0</ele><time>2026-03-29T07:47:36.44Z</time></trkpt><trkpt lat="43.1989126" lon="12.2592802"><ele>401.5</ele><time>2026-03-29T07:47:38.441Z</time></trkpt><trkpt lat="43.1989042" lon="12.2591443"><ele>402.0</ele><time>2026-03-29T07:47:40.441Z</time></trkpt><trkpt lat="43.198921" lon="12.2590323"><ele>402.50000000000006</ele><time>2026-03-29T07:47:43.44Z</time></trkpt><trkpt lat="43.1989062" lon="12.2589462"><ele>403.0</ele><time>2026-03-29T07:47:46.44Z</time></trkpt><trkpt lat="43.1988787" lon="12.2588411"><ele>405.42857142857144</ele><time>2026-03-29T07:52:35.44Z</time></trkpt><trkpt lat="43.198912" lon="12.2587359"><ele>407.85714285714283</ele><time>2026-03-29T07:53:01.441Z</time></trkpt><trkpt lat="43.1989622" lon="12.2586821"><ele>410.2857142857143</ele><time>2026-03-29T07:53:04.441Z</time></trkpt><trkpt lat="43.1989967" lon="12.2586077"><ele>412.7142857142857</ele><time>2026-03-29T07:53:18.44Z</time></trkpt><trkpt lat="43.1990426" lon="12.2585321"><ele>415.1428571428571</ele><time>2026-03-29T07:53:23.44Z</time></trkpt><trkpt lat="43.1990829" lon="12.2584556"><ele>417.57142857142856</ele><time>2026-03-29T07:53:27.441Z</time></trkpt><trkpt lat="43.199132" lon="12.2583813"><ele>420.0</ele><time>2026-03-29T07:53:31.44Z</time></trkpt><trkpt lat="43.1991952" lon="12.2583571"><ele>420.0</ele><time>2026-03-29T07:53:34.441Z</time></trkpt><trkpt lat="43.1992397" lon="12.2582845"><ele>420.0</ele><time>2026-03-29T07:53:51.44Z</time></trkpt><trkpt lat="43.1992759" lon="12.2582067"><ele>420.0</ele><time>2026-03-29T07:53:54.441Z</time></trkpt><trkpt lat="43.1993072" lon="12.2581174"><ele>420.0</ele><time>2026-03-29T07:53:56.441Z</time></trkpt><trkpt lat="43.199359" lon="12.2580106"><ele>420.0</ele><time>2026-03-29T07:53:58.44Z</time></trkpt><trkpt lat="43.1993904" lon="12.2579182"><ele>420.0</ele><time>2026-03-29T07:54:00.44Z</time></trkpt><trkpt lat="43.199417" lon="12.2578124"><ele>423.3333333333333</ele><time>2026-03-29T07:54:02.44Z</time></trkpt><trkpt lat="43.1994216" lon="12.2576912"><ele>426.66666666666663</ele><time>2026-03-29T07:54:04.441Z</time></trkpt><trkpt lat="43.1994177" lon="12.2575793"><ele>430.0</ele><time>2026-03-29T07:54:06.441Z</time></trkpt><trkpt lat="43.1994271" lon="12.2574385"><ele>433.3333333333333</ele><time>2026-03-29T07:54:08.441Z</time></trkpt><trkpt lat="43.1994064" lon="12.2573013"><ele>436.66666666666663</ele><time>2026-03-29T07:54:10.44Z</time></trkpt><trkpt lat="43.1993661" lon="12.2572183"><ele>440.0</ele><time>2026-03-29T07:54:11.44Z</time></trkpt><trkpt lat="43.1992851" lon="12.2571195"><ele>446.0</ele><time>2026-03-29T07:54:13.441Z</time></trkpt><trkpt lat="43.1992655" lon="12.2570313"><ele>452.0</ele><time>2026-03-29T07:54:16.44Z</time></trkpt><trkpt lat="43.1993448" lon="12.2570056"><ele>458.0</ele><time>2026-03-29T07:54:20.44Z</time></trkpt><trkpt lat="43.1995297" lon="12.2570423"><ele>464.0</ele><time>2026-03-29T07:54:29.44Z</time></trkpt><trkpt lat="43.1996007" lon="12.2570486"><ele>470.0</ele><time>2026-03-29T07:54:30.44Z</time></trkpt><trkpt lat="43.1997902" lon="12.2570316"><ele>469.66666666666663</ele><time>2026-03-29T07:54:31.44Z</time></trkpt><trkpt lat="43.19986" lon="12.2570252"><ele>469.3333333333333</ele><time>2026-03-29T07:54:32.441Z</time></trkpt><trkpt lat="43.1999416" lon="12.2570471"><ele>469.0</ele><time>2026-03-29T07:54:33.441Z</time></trkpt><trkpt lat="43.2000261" lon="12.2570674"><ele>468.66666666666663</ele><time>2026-03-29T07:54:34.44Z</time></trkpt><trkpt lat="43.2000947" lon="12.2570995"><ele>468.3333333333333</ele><time>2026-03-29T07:54:35.441Z</time></trkpt><trkpt lat="43.2001722" lon="12.2571348"><ele>468.0</ele><time>2026-03-29T07:54:36.44Z</time></trkpt><trkpt lat="43.2002905" lon="12.2572204"><ele>468.0</ele><time>2026-03-29T07:54:37.44Z</time></trkpt><trkpt lat="43.200384" lon="12.2572324"><ele>467.99999999999994</ele><time>2026-03-29T07:54:38.441Z</time></trkpt><trkpt lat="43.2004545" lon="12.25727"><ele>467.99999999999994</ele><time>2026-03-29T07:54:39.441Z</time></trkpt><trkpt lat="43.2005381" lon="12.2573033"><ele>468.0</ele><time>2026-03-29T07:54:40.44Z</time></trkpt><trkpt lat="43.2006438" lon="12.2573365"><ele>468.0</ele><time>2026-03-29T07:54:42.44Z</time></trkpt><trkpt lat="43.2007636" lon="12.2572446"><ele>465.8333333333333</ele><time>2026-03-29T07:54:43.44Z</time></trkpt><trkpt lat="43.2008417" lon="12.2572435"><ele>463.66666666666663</ele><time>2026-03-29T07:54:44.441Z</time></trkpt><trkpt lat="43.2009182" lon="12.2571807"><ele>461.5</ele><time>2026-03-29T07:54:45.441Z</time></trkpt><trkpt lat="43.2009973" lon="12.2571314"><ele>459.3333333333333</ele><time>2026-03-29T07:54:46.44Z</time></trkpt><trkpt lat="43.2010755" lon="12.2570879"><ele>457.16666666666663</ele><time>2026-03-29T07:54:47.44Z</time></trkpt><trkpt lat="43.2011578" lon="12.2570484"><ele>455.0</ele><time>2026-03-29T07:54:49.44Z</time></trkpt><trkpt lat="43.2012283" lon="12.2570042"><ele>455.0</ele><time>2026-03-29T07:54:51.44Z</time></trkpt><trkpt lat="43.2012689" lon="12.2569227"><ele>455.0</ele><time>2026-03-29T07:54:53.441Z</time></trkpt><trkpt lat="43.2012737" lon="12.2567982"><ele>455.0</ele><time>2026-03-29T07:54:54.44Z</time></trkpt><trkpt lat="43.201298" lon="12.2566491"><ele>455.0</ele><time>2026-03-29T07:54:55.44Z</time></trkpt><trkpt lat="43.2013379" lon="12.2565138"><ele>455.0</ele><time>2026-03-29T07:54:57.441Z</time></trkpt><trkpt lat="43.2014936" lon="12.256483"><ele>452.85714285714283</ele><time>2026-03-29T07:54:59.44Z</time></trkpt><trkpt lat="43.2015608" lon="12.2564713"><ele>450.7142857142857</ele><time>2026-03-29T07:55:01.44Z</time></trkpt><trkpt lat="43.2016371" lon="12.2565066"><ele>448.57142857142856</ele><time>2026-03-29T07:55:02.44Z</time></trkpt><trkpt lat="43.2017033" lon="12.2565038"><ele>446.42857142857144</ele><time>2026-03-29T07:55:03.44Z</time></trkpt><trkpt lat="43.201768" lon="12.2564874"><ele>444.2857142857143</ele><time>2026-03-29T07:55:04.44Z</time></trkpt><trkpt lat="43.2018364" lon="12.2565105"><ele>442.1428571428571</ele><time>2026-03-29T07:55:05.441Z</time></trkpt><trkpt lat="43.2018913" lon="12.2565588"><ele>440.0</ele><time>2026-03-29T07:55:06.44Z</time></trkpt><trkpt lat="43.2019503" lon="12.256627"><ele>439.99999999999994</ele><time>2026-03-29T07:55:07.44Z</time></trkpt><trkpt lat="43.2020097" lon="12.2566615"><ele>440.0</ele><time>2026-03-29T07:55:08.441Z</time></trkpt><trkpt lat="43.2020715" lon="12.2566113"><ele>440.0</ele><time>2026-03-29T07:55:09.44Z</time></trkpt><trkpt lat="43.2021948" lon="12.2566288"><ele>440.0</ele><time>2026-03-29T07:55:11.44Z</time></trkpt><trkpt lat="43.2022709" lon="12.2566046"><ele>439.99999999999994</ele><time>2026-03-29T07:55:13.44Z</time></trkpt><trkpt lat="43.2023331" lon="12.2566546"><ele>440.0</ele><time>2026-03-29T07:55:15.439Z</time></trkpt><trkpt lat="43.2023192" lon="12.256766"><ele>439.99999999999994</ele><time>2026-03-29T07:55:18.441Z</time></trkpt><trkpt lat="43.2022963" lon="12.2568605"><ele>440.0</ele><time>2026-03-29T07:55:20.44Z</time></trkpt><trkpt lat="43.2022952" lon="12.256951"><ele>440.0</ele><time>2026-03-29T07:55:23.44Z</time></trkpt><trkpt lat="43.2023109" lon="12.2570574"><ele>440.0</ele><time>2026-03-29T07:55:26.44Z</time></trkpt><trkpt lat="43.2023791" lon="12.2570782"><ele>439.99999999999994</ele><time>2026-03-29T07:55:30.441Z</time></trkpt><trkpt lat="43.2024412" lon="12.2570288"><ele>440.0</ele><time>2026-03-29T07:55:32.441Z</time></trkpt><trkpt lat="43.2024858" lon="12.2568279"><ele>441.4</ele><time>2026-03-29T07:55:34.44Z</time></trkpt><trkpt lat="43.202531" lon="12.2567291"><ele>442.8</ele><time>2026-03-29T07:55:36.441Z</time></trkpt><trkpt lat="43.2025768" lon="12.2565898"><ele>444.20000000000005</ele><time>2026-03-29T07:55:38.441Z</time></trkpt><trkpt lat="43.2026164" lon="12.2564563"><ele>445.6</ele><time>2026-03-29T07:55:41.441Z</time></trkpt><trkpt lat="43.2026993" lon="12.2564592"><ele>447.0</ele><time>2026-03-29T07:55:43.441Z</time></trkpt><trkpt lat="43.2028275" lon="12.2564106"><ele>443.25</ele><time>2026-03-29T07:55:45.44Z</time></trkpt><trkpt lat="43.2029055" lon="12.2566691"><ele>439.5</ele><time>2026-03-29T07:55:55.441Z</time></trkpt><trkpt lat="43.202875" lon="12.2567882"><ele>435.75</ele><time>2026-03-29T07:55:57.441Z</time></trkpt><trkpt lat="43.2028473" lon="12.2569309"><ele>432.0</ele><time>2026-03-29T07:55:59.44Z</time></trkpt><trkpt lat="43.2028662" lon="12.2571731"><ele>430.6</ele><time>2026-03-29T07:56:01.44Z</time></trkpt><trkpt lat="43.2028509" lon="12.2573074"><ele>429.20000000000005</ele><time>2026-03-29T07:56:02.441Z</time></trkpt><trkpt lat="43.2028586" lon="12.2574092"><ele>427.8</ele><time>2026-03-29T07:56:03.441Z</time></trkpt><trkpt lat="43.2029104" lon="12.2575501"><ele>426.4</ele><time>2026-03-29T07:56:05.44Z</time></trkpt><trkpt lat="43.2029716" lon="12.2576443"><ele>425.0</ele><time>2026-03-29T07:56:07.44Z</time></trkpt><trkpt lat="43.203051" lon="12.257752"><ele>425.0</ele><time>2026-03-29T07:56:09.44Z</time></trkpt><trkpt lat="43.2030786" lon="12.2578899"><ele>425.0</ele><time>2026-03-29T07:56:11.44Z</time></trkpt><trkpt lat="43.2031388" lon="12.2580119"><ele>425.0</ele><time>2026-03-29T07:56:13.441Z</time></trkpt><trkpt lat="43.2031671" lon="12.2581235"><ele>425.0</ele><time>2026-03-29T07:56:15.441Z</time></trkpt><trkpt lat="43.2031765" lon="12.258264"><ele>425.0</ele><time>2026-03-29T07:56:16.441Z</time></trkpt><trkpt lat="43.2031987" lon="12.2583808"><ele>424.8</ele><time>2026-03-29T07:56:17.441Z</time></trkpt><trkpt lat="43.2032085" lon="12.2584717"><ele>424.6</ele><time>2026-03-29T07:56:18.44Z</time></trkpt><trkpt lat="43.2032274" lon="12.2586456"><ele>424.4</ele><time>2026-03-29T07:56:20.44Z</time></trkpt><trkpt lat="43.2031726" lon="12.2587978"><ele>424.2</ele><time>2026-03-29T07:56:21.44Z</time></trkpt><trkpt lat="43.2031201" lon="12.2588781"><ele>424.0</ele><time>2026-03-29T07:56:22.44Z</time></trkpt><trkpt lat="43.2030493" lon="12.2589588"><ele>428.33333333333337</ele><time>2026-03-29T07:56:24.44Z</time></trkpt><trkpt lat="43.2031308" lon="12.2589806"><ele>432.6666666666667</ele><time>2026-03-29T07:56:29.441Z</time></trkpt><trkpt lat="43.203229" lon="12.259029"><ele>437.0</ele><time>2026-03-29T07:56:30.441Z</time></trkpt><trkpt lat="43.2032883" lon="12.2591204"><ele>441.33333333333337</ele><time>2026-03-29T07:56:33.441Z</time></trkpt><trkpt lat="43.2032229" lon="12.259133"><ele>445.6666666666667</ele><time>2026-03-29T07:56:35.44Z</time></trkpt><trkpt lat="43.2031399" lon="12.2591652"><ele>450.0</ele><time>2026-03-29T07:56:38.441Z</time></trkpt><trkpt lat="43.2030009" lon="12.2593139"><ele>450.0</ele><time>2026-03-29T07:56:40.441Z</time></trkpt><trkpt lat="43.2029292" lon="12.2593589"><ele>450.0</ele><time>2026-03-29T07:56:41.44Z</time></trkpt><trkpt lat="43.2028365" lon="12.2594198"><ele>450.0</ele><time>2026-03-29T07:56:42.441Z</time></trkpt><trkpt lat="43.2027563" lon="12.2594502"><ele>450.0</ele><time>2026-03-29T07:56:43.441Z</time></trkpt><trkpt lat="43.2026848" lon="12.2594896"><ele>450.0</ele><time>2026-03-29T07:56:44.44Z</time></trkpt><trkpt lat="43.2026155" lon="12.2595948"><ele>450.0</ele><time>2026-03-29T07:56:45.44Z</time></trkpt><trkpt lat="43.2025606" lon="12.2596494"><ele>450.0</ele><time>2026-03-29T07:56:46.44Z</time></trkpt><trkpt lat="43.2025115" lon="12.2597116"><ele>450.0</ele><time>2026-03-29T07:56:47.44Z</time></trkpt><trkpt lat="43.2024568" lon="12.2597588"><ele>450.0</ele><time>2026-03-29T07:56:48.44Z</time></trkpt><trkpt lat="43.2023744" lon="12.2598134"><ele>450.0</ele><time>2026-03-29T07:56:50.44Z</time></trkpt><trkpt lat="43.2023149" lon="12.2598873"><ele>450.0</ele><time>2026-03-29T07:56:52.44Z</time></trkpt><trkpt lat="43.2022356" lon="12.2599423"><ele>450.0</ele><time>2026-03-29T07:56:54.44Z</time></trkpt><trkpt lat="43.2021682" lon="12.2600192"><ele>451.8</ele><time>2026-03-29T07:56:55.441Z</time></trkpt><trkpt lat="43.2020818" lon="12.2600884"><ele>453.6</ele><time>2026-03-29T07:56:57.441Z</time></trkpt><trkpt lat="43.2021113" lon="12.260177"><ele>455.4</ele><time>2026-03-29T07:56:59.44Z</time></trkpt><trkpt lat="43.2021871" lon="12.2602132"><ele>457.2</ele><time>2026-03-29T07:57:02.441Z</time></trkpt><trkpt lat="43.20231" lon="12.2601961"><ele>459.0</ele><time>2026-03-29T07:57:04.44Z</time></trkpt><trkpt lat="43.2024104" lon="12.2602146"><ele>463.2</ele><time>2026-03-29T07:57:06.441Z</time></trkpt><trkpt lat="43.2024699" lon="12.2602709"><ele>467.4</ele><time>2026-03-29T07:57:07.44Z</time></trkpt><trkpt lat="43.2025322" lon="12.2602876"><ele>471.6</ele><time>2026-03-29T07:57:08.44Z</time></trkpt><trkpt lat="43.2026483" lon="12.2603256"><ele>475.8</ele><time>2026-03-29T07:57:10.44Z</time></trkpt><trkpt lat="43.2027338" lon="12.260428"><ele>480.0</ele><time>2026-03-29T07:57:12.44Z</time></trkpt><trkpt lat="43.2027823" lon="12.2605193"><ele>480.0</ele><time>2026-03-29T07:57:14.441Z</time></trkpt><trkpt lat="43.2028451" lon="12.2605965"><ele>480.0</ele><time>2026-03-29T07:57:16.441Z</time></trkpt><trkpt lat="43.20291" lon="12.2606706"><ele>480.0</ele><time>2026-03-29T07:57:18.441Z</time></trkpt><trkpt lat="43.2029673" lon="12.2607628"><ele>480.0</ele><time>2026-03-29T07:57:20.44Z</time></trkpt><trkpt lat="43.2030453" lon="12.2608503"><ele>480.0</ele><time>2026-03-29T07:57:22.441Z</time></trkpt><trkpt lat="43.2031143" lon="12.2609286"><ele>480.0</ele><time>2026-03-29T07:57:23.44Z</time></trkpt><trkpt lat="43.2031912" lon="12.260971"><ele>484.0</ele><time>2026-03-29T07:57:24.441Z</time></trkpt><trkpt lat="43.203247" lon="12.261014"><ele>488.0</ele><time>2026-03-29T07:57:25.441Z</time></trkpt><trkpt lat="43.2033121" lon="12.2610205"><ele>492.0</ele><time>2026-03-29T07:57:26.44Z</time></trkpt><trkpt lat="43.2033754" lon="12.2610386"><ele>496.0</ele><time>2026-03-29T07:57:27.44Z</time></trkpt><trkpt lat="43.2034362" lon="12.2610731"><ele>500.0</ele><time>2026-03-29T07:57:28.44Z</time></trkpt><trkpt lat="43.2035145" lon="12.2611277"><ele>504.0</ele><time>2026-03-29T07:57:30.44Z</time></trkpt><trkpt lat="43.2035985" lon="12.261104"><ele>508.0</ele><time>2026-03-29T07:57:32.44Z</time></trkpt><trkpt lat="43.2036841" lon="12.2611296"><ele>508.0</ele><time>2026-03-29T07:57:34.441Z</time></trkpt><trkpt lat="43.2037358" lon="12.2611835"><ele>507.99999999999994</ele><time>2026-03-29T07:57:36.441Z</time></trkpt><trkpt lat="43.2037881" lon="12.2612778"><ele>507.99999999999994</ele><time>2026-03-29T07:57:38.441Z</time></trkpt><trkpt lat="43.2038575" lon="12.26137"><ele>508.0</ele><time>2026-03-29T07:57:40.44Z</time></trkpt><trkpt lat="43.2039323" lon="12.2614924"><ele>508.0</ele><time>2026-03-29T07:57:42.44Z</time></trkpt><trkpt lat="43.2039901" lon="12.2616186"><ele>510.5</ele><time>2026-03-29T07:57:44.441Z</time></trkpt><trkpt lat="43.2040542" lon="12.2617039"><ele>513.0</ele><time>2026-03-29T07:57:46.44Z</time></trkpt><trkpt lat="43.2041289" lon="12.2617882"><ele>515.5</ele><time>2026-03-29T07:57:48.44Z</time></trkpt><trkpt lat="43.2042297" lon="12.2618808"><ele>518.0</ele><time>2026-03-29T07:57:50.441Z</time></trkpt><trkpt lat="43.2043682" lon="12.2619377"><ele>518.0</ele><time>2026-03-29T07:57:52.441Z</time></trkpt><trkpt lat="43.2044622" lon="12.2619522"><ele>518.0</ele><time>2026-03-29T07:57:54.44Z</time></trkpt><trkpt lat="43.2045248" lon="12.2619919"><ele>518.0</ele><time>2026-03-29T07:57:55.441Z</time></trkpt><trkpt lat="43.2046211" lon="12.2620297"><ele>518.0</ele><time>2026-03-29T07:57:57.441Z</time></trkpt><trkpt lat="43.2047042" lon="12.2621235"><ele>518.0</ele><time>2026-03-29T07:57:59.44Z</time></trkpt><trkpt lat="43.204758" lon="12.2622133"><ele>515.8</ele><time>2026-03-29T07:58:01.441Z</time></trkpt><trkpt lat="43.2048153" lon="12.2623284"><ele>513.5999999999999</ele><time>2026-03-29T07:58:03.441Z</time></trkpt><trkpt lat="43.2048808" lon="12.2623993"><ele>511.40000000000003</ele><time>2026-03-29T07:58:05.44Z</time></trkpt><trkpt lat="43.2049414" lon="12.2624472"><ele>509.20000000000005</ele><time>2026-03-29T07:58:07.44Z</time></trkpt><trkpt lat="43.2050359" lon="12.2624962"><ele>507.0</ele><time>2026-03-29T07:58:09.44Z</time></trkpt><trkpt lat="43.2051518" lon="12.2625494"><ele>511.40000000000003</ele><time>2026-03-29T07:58:11.441Z</time></trkpt><trkpt lat="43.205218" lon="12.2625839"><ele>515.8000000000001</ele><time>2026-03-29T07:58:12.44Z</time></trkpt><trkpt lat="43.2052834" lon="12.2626117"><ele>520.2</ele><time>2026-03-29T07:58:13.441Z</time></trkpt><trkpt lat="43.2053463" lon="12.2626699"><ele>524.6</ele><time>2026-03-29T07:58:14.44Z</time></trkpt><trkpt lat="43.2054336" lon="12.2627838"><ele>529.0</ele><time>2026-03-29T07:58:16.44Z</time></trkpt><trkpt lat="43.2054999" lon="12.2629247"><ele>529.0</ele><time>2026-03-29T07:58:18.441Z</time></trkpt><trkpt lat="43.2055917" lon="12.2630306"><ele>529.0</ele><time>2026-03-29T07:58:20.441Z</time></trkpt><trkpt lat="43.2056823" lon="12.2631441"><ele>529.0</ele><time>2026-03-29T07:58:22.441Z</time></trkpt><trkpt lat="43.2057731" lon="12.263252"><ele>529.0</ele><time>2026-03-29T07:58:24.441Z</time></trkpt><trkpt lat="43.2058238" lon="12.2633165"><ele>529.0</ele><time>2026-03-29T07:58:25.441Z</time></trkpt><trkpt lat="43.2058854" lon="12.2633702"><ele>531.0</ele><time>2026-03-29T07:58:26.441Z</time></trkpt><trkpt lat="43.2059481" lon="12.2634264"><ele>533.0</ele><time>2026-03-29T07:58:27.441Z</time></trkpt><trkpt lat="43.206007" lon="12.2634578"><ele>535.0</ele><time>2026-03-29T07:58:28.441Z</time></trkpt><trkpt lat="43.2060551" lon="12.2635155"><ele>537.0</ele><time>2026-03-29T07:58:29.44Z</time></trkpt><trkpt lat="43.2061378" lon="12.2635566"><ele>539.0</ele><time>2026-03-29T07:58:31.441Z</time></trkpt><trkpt lat="43.2062293" lon="12.2636392"><ele>541.0</ele><time>2026-03-29T07:58:33.441Z</time></trkpt><trkpt lat="43.2063266" lon="12.2637548"><ele>541.0</ele><time>2026-03-29T07:58:35.441Z</time></trkpt><trkpt lat="43.2063782" lon="12.2638379"><ele>541.0</ele><time>2026-03-29T07:58:36.44Z</time></trkpt><trkpt lat="43.2064355" lon="12.2639347"><ele>541.0</ele><time>2026-03-29T07:58:37.441Z</time></trkpt><trkpt lat="43.2064931" lon="12.2640368"><ele>541.0</ele><time>2026-03-29T07:58:38.441Z</time></trkpt><trkpt lat="43.2065459" lon="12.2641233"><ele>541.0</ele><time>2026-03-29T07:58:39.441Z</time></trkpt><trkpt lat="43.2065759" lon="12.2642342"><ele>541.0</ele><time>2026-03-29T07:58:40.441Z</time></trkpt><trkpt lat="43.206593" lon="12.2643524"><ele>540.8333333333334</ele><time>2026-03-29T07:58:41.44Z</time></trkpt><trkpt lat="43.206593" lon="12.2644605"><ele>540.6666666666667</ele><time>2026-03-29T07:58:42.441Z</time></trkpt><trkpt lat="43.2065714" lon="12.2645584"><ele>540.5</ele><time>2026-03-29T07:58:43.441Z</time></trkpt><trkpt lat="43.2065344" lon="12.2646419"><ele>540.3333333333334</ele><time>2026-03-29T07:58:44.441Z</time></trkpt><trkpt lat="43.2064639" lon="12.2647414"><ele>540.1666666666666</ele><time>2026-03-29T07:58:46.44Z</time></trkpt><trkpt lat="43.2064456" lon="12.2648304"><ele>540.0</ele><time>2026-03-29T07:58:49.44Z</time></trkpt><trkpt lat="43.2065065" lon="12.2648708"><ele>540.0</ele><time>2026-03-29T07:58:52.441Z</time></trkpt><trkpt lat="43.2065875" lon="12.264881"><ele>540.0</ele><time>2026-03-29T07:58:54.441Z</time></trkpt><trkpt lat="43.20668" lon="12.2649113"><ele>540.0</ele><time>2026-03-29T07:58:56.441Z</time></trkpt><trkpt lat="43.2067711" lon="12.2649013"><ele>540.0</ele><time>2026-03-29T07:58:58.441Z</time></trkpt><trkpt lat="43.2068395" lon="12.2648417"><ele>540.0</ele><time>2026-03-29T07:59:01.441Z</time></trkpt><trkpt lat="43.2069054" lon="12.2647686"><ele>540.0</ele><time>2026-03-29T07:59:04.44Z</time></trkpt><trkpt lat="43.2069902" lon="12.2647456"><ele>541.2857142857142</ele><time>2026-03-29T07:59:06.44Z</time></trkpt><trkpt lat="43.2070599" lon="12.2647169"><ele>542.5714285714286</ele><time>2026-03-29T07:59:10.44Z</time></trkpt><trkpt lat="43.2071302" lon="12.2646908"><ele>543.8571428571429</ele><time>2026-03-29T07:59:12.44Z</time></trkpt><trkpt lat="43.2072041" lon="12.2646649"><ele>545.1428571428571</ele><time>2026-03-29T07:59:14.441Z</time></trkpt><trkpt lat="43.2072715" lon="12.2646403"><ele>546.4285714285714</ele><time>2026-03-29T07:59:17.44Z</time></trkpt><trkpt lat="43.2073489" lon="12.2646375"><ele>547.7142857142857</ele><time>2026-03-29T07:59:20.441Z</time></trkpt><trkpt lat="43.2074249" lon="12.2646563"><ele>549.0</ele><time>2026-03-29T07:59:22.44Z</time></trkpt><trkpt lat="43.2074864" lon="12.2646005"><ele>550.2</ele><time>2026-03-29T07:59:29.441Z</time></trkpt><trkpt lat="43.2075496" lon="12.2645557"><ele>551.4</ele><time>2026-03-29T08:02:05.44Z</time></trkpt><trkpt lat="43.2076295" lon="12.2645431"><ele>552.6</ele><time>2026-03-29T08:02:08.441Z</time></trkpt><trkpt lat="43.2078297" lon="12.2645127"><ele>553.8</ele><time>2026-03-29T08:02:10.44Z</time></trkpt><trkpt lat="43.2078956" lon="12.2644874"><ele>555.0</ele><time>2026-03-29T08:02:11.441Z</time></trkpt><trkpt lat="43.2079634" lon="12.2644544"><ele>555.0</ele><time>2026-03-29T08:02:12.44Z</time></trkpt><trkpt lat="43.2080699" lon="12.2644213"><ele>555.0</ele><time>2026-03-29T08:02:13.441Z</time></trkpt><trkpt lat="43.2081572" lon="12.2643641"><ele>555.0</ele><time>2026-03-29T08:02:14.441Z</time></trkpt><trkpt lat="43.2082486" lon="12.2643423"><ele>555.0</ele><time>2026-03-29T08:02:15.441Z</time></trkpt><trkpt lat="43.2083617" lon="12.2643225"><ele>555.0</ele><time>2026-03-29T08:02:16.442Z</time></trkpt><trkpt lat="43.2084878" lon="12.2643219"><ele>554.25</ele><time>2026-03-29T08:02:17.441Z</time></trkpt><trkpt lat="43.2086159" lon="12.2643309"><ele>553.5</ele><time>2026-03-29T08:02:18.441Z</time></trkpt><trkpt lat="43.2087496" lon="12.2643222"><ele>552.75</ele><time>2026-03-29T08:02:19.44Z</time></trkpt><trkpt lat="43.2088914" lon="12.2643272"><ele>552.0</ele><time>2026-03-29T08:02:20.441Z</time></trkpt><trkpt lat="43.2090373" lon="12.2643314"><ele>552.0</ele><time>2026-03-29T08:02:21.44Z</time></trkpt><trkpt lat="43.2092004" lon="12.2643284"><ele>552.0</ele><time>2026-03-29T08:02:22.44Z</time></trkpt><trkpt lat="43.2093503" lon="12.2643302"><ele>552.0</ele><time>2026-03-29T08:02:23.44Z</time></trkpt><trkpt lat="43.2094941" lon="12.2643424"><ele>552.0</ele><time>2026-03-29T08:02:24.44Z</time></trkpt><trkpt lat="43.2096192" lon="12.2643316"><ele>552.0</ele><time>2026-03-29T08:02:25.441Z</time></trkpt><trkpt lat="43.2097504" lon="12.2643282"><ele>552.0</ele><time>2026-03-29T08:02:26.44Z</time></trkpt><trkpt lat="43.2098649" lon="12.2643253"><ele>552.0</ele><time>2026-03-29T08:02:27.441Z</time></trkpt><trkpt lat="43.2099676" lon="12.2643554"><ele>552.6</ele><time>2026-03-29T08:02:28.441Z</time></trkpt><trkpt lat="43.209996" lon="12.2645003"><ele>553.2</ele><time>2026-03-29T08:02:29.44Z</time></trkpt><trkpt lat="43.2100454" lon="12.2645797"><ele>553.8</ele><time>2026-03-29T08:02:30.44Z</time></trkpt><trkpt lat="43.2101238" lon="12.26469"><ele>554.4</ele><time>2026-03-29T08:02:32.441Z</time></trkpt><trkpt lat="43.2101982" lon="12.2647489"><ele>555.0</ele><time>2026-03-29T08:02:34.44Z</time></trkpt><trkpt lat="43.210313" lon="12.2647773"><ele>555.0</ele><time>2026-03-29T08:02:36.44Z</time></trkpt><trkpt lat="43.2104028" lon="12.264783"><ele>555.0</ele><time>2026-03-29T08:02:37.44Z</time></trkpt><trkpt lat="43.2104828" lon="12.264774"><ele>555.0</ele><time>2026-03-29T08:02:38.44Z</time></trkpt><trkpt lat="43.2105963" lon="12.2647535"><ele>555.0</ele><time>2026-03-29T08:02:39.44Z</time></trkpt><trkpt lat="43.210689" lon="12.2647656"><ele>555.0</ele><time>2026-03-29T08:02:40.441Z</time></trkpt><trkpt lat="43.210768" lon="12.264781"><ele>553.5</ele><time>2026-03-29T08:02:41.441Z</time></trkpt><trkpt lat="43.2108847" lon="12.264822"><ele>552.0</ele><time>2026-03-29T08:02:43.44Z</time></trkpt><trkpt lat="43.2109473" lon="12.26481"><ele>550.5</ele><time>2026-03-29T08:02:44.441Z</time></trkpt><trkpt lat="43.2110153" lon="12.2647978"><ele>549.0</ele><time>2026-03-29T08:02:45.44Z</time></trkpt><trkpt lat="43.2110883" lon="12.2648124"><ele>547.5</ele><time>2026-03-29T08:02:46.441Z</time></trkpt><trkpt lat="43.2111571" lon="12.2648267"><ele>546.0</ele><time>2026-03-29T08:02:47.44Z</time></trkpt><trkpt lat="43.2112926" lon="12.2647832"><ele>548.2</ele><time>2026-03-29T08:02:49.439Z</time></trkpt><trkpt lat="43.2113583" lon="12.2647014"><ele>550.4000000000001</ele><time>2026-03-29T08:02:50.441Z</time></trkpt><trkpt lat="43.2114327" lon="12.2645659"><ele>552.6</ele><time>2026-03-29T08:02:52.441Z</time></trkpt><trkpt lat="43.2114735" lon="12.2644307"><ele>554.8000000000001</ele><time>2026-03-29T08:02:54.441Z</time></trkpt><trkpt lat="43.2115722" lon="12.2644485"><ele>557.0</ele><time>2026-03-29T08:02:56.44Z</time></trkpt><trkpt lat="43.2116782" lon="12.2645074"><ele>557.0</ele><time>2026-03-29T08:02:58.441Z</time></trkpt><trkpt lat="43.2117258" lon="12.2645727"><ele>557.0</ele><time>2026-03-29T08:02:59.44Z</time></trkpt><trkpt lat="43.2118444" lon="12.2646168"><ele>557.0</ele><time>2026-03-29T08:03:01.44Z</time></trkpt><trkpt lat="43.2119385" lon="12.264655"><ele>557.0</ele><time>2026-03-29T08:03:02.441Z</time></trkpt><trkpt lat="43.2120255" lon="12.2646415"><ele>557.0</ele><time>2026-03-29T08:03:03.44Z</time></trkpt><trkpt lat="43.2121231" lon="12.2646552"><ele>557.0</ele><time>2026-03-29T08:03:05.44Z</time></trkpt><trkpt lat="43.2121935" lon="12.2646103"><ele>557.0</ele><time>2026-03-29T08:03:09.44Z</time></trkpt><trkpt lat="43.2124128" lon="12.2646489"><ele>557.0</ele><time>2026-03-29T08:03:15.44Z</time></trkpt><trkpt lat="43.2124776" lon="12.2646102"><ele>557.0</ele><time>2026-03-29T08:03:16.441Z</time></trkpt><trkpt lat="43.2125302" lon="12.2645587"><ele>557.0</ele><time>2026-03-29T08:03:17.44Z</time></trkpt><trkpt lat="43.2125946" lon="12.2644823"><ele>555.8000000000001</ele><time>2026-03-29T08:03:18.441Z</time></trkpt><trkpt lat="43.2126473" lon="12.2644068"><ele>554.6</ele><time>2026-03-29T08:03:19.44Z</time></trkpt><trkpt lat="43.2127801" lon="12.2643313"><ele>553.4000000000001</ele><time>2026-03-29T08:03:20.441Z</time></trkpt><trkpt lat="43.2128978" lon="12.2643001"><ele>552.2</ele><time>2026-03-29T08:03:21.441Z</time></trkpt><trkpt lat="43.2129688" lon="12.2642803"><ele>551.0</ele><time>2026-03-29T08:03:22.44Z</time></trkpt><trkpt lat="43.2130594" lon="12.2642895"><ele>548.0</ele><time>2026-03-29T08:03:24.44Z</time></trkpt><trkpt lat="43.2131644" lon="12.2643274"><ele>545.0</ele><time>2026-03-29T08:03:30.441Z</time></trkpt><trkpt lat="43.2132427" lon="12.2643664"><ele>542.0</ele><time>2026-03-29T08:03:32.44Z</time></trkpt><trkpt lat="43.2133362" lon="12.2643698"><ele>539.0</ele><time>2026-03-29T08:03:51.441Z</time></trkpt><trkpt lat="43.2133962" lon="12.264336"><ele>536.0</ele><time>2026-03-29T08:03:54.441Z</time></trkpt><trkpt lat="43.2134717" lon="12.2642766"><ele>533.0</ele><time>2026-03-29T08:03:57.441Z</time></trkpt><trkpt lat="43.2135147" lon="12.2641932"><ele>533.0</ele><time>2026-03-29T08:03:59.44Z</time></trkpt><trkpt lat="43.2135377" lon="12.2640689"><ele>533.0</ele><time>2026-03-29T08:04:01.441Z</time></trkpt><trkpt lat="43.2135325" lon="12.2638799"><ele>533.0</ele><time>2026-03-29T08:04:03.44Z</time></trkpt><trkpt lat="43.2135135" lon="12.2637449"><ele>533.0</ele><time>2026-03-29T08:04:04.44Z</time></trkpt><trkpt lat="43.2135047" lon="12.2636361"><ele>533.0</ele><time>2026-03-29T08:04:05.441Z</time></trkpt><trkpt lat="43.2135137" lon="12.2635206"><ele>532.1999999999999</ele><time>2026-03-29T08:04:06.44Z</time></trkpt><trkpt lat="43.213507" lon="12.2633585"><ele>531.4</ele><time>2026-03-29T08:04:08.441Z</time></trkpt><trkpt lat="43.2135136" lon="12.2632007"><ele>530.5999999999999</ele><time>2026-03-29T08:04:10.44Z</time></trkpt><trkpt lat="43.2134863" lon="12.2630818"><ele>529.8</ele><time>2026-03-29T08:04:12.441Z</time></trkpt><trkpt lat="43.2134383" lon="12.2629561"><ele>529.0</ele><time>2026-03-29T08:04:14.44Z</time></trkpt><trkpt lat="43.2133602" lon="12.2628426"><ele>528.4</ele><time>2026-03-29T08:04:16.441Z</time></trkpt><trkpt lat="43.2133057" lon="12.2627389"><ele>527.8</ele><time>2026-03-29T08:04:18.441Z</time></trkpt><trkpt lat="43.213346" lon="12.2626507"><ele>527.2</ele><time>2026-03-29T08:04:19.441Z</time></trkpt><trkpt lat="43.2133596" lon="12.262543"><ele>526.6</ele><time>2026-03-29T08:04:21.44Z</time></trkpt><trkpt lat="43.2134474" lon="12.2624464"><ele>526.0</ele><time>2026-03-29T08:04:23.44Z</time></trkpt><trkpt lat="43.213482" lon="12.2623327"><ele>527.0</ele><time>2026-03-29T08:04:25.44Z</time></trkpt><trkpt lat="43.2135238" lon="12.2622598"><ele>528.0</ele><time>2026-03-29T08:04:26.441Z</time></trkpt><trkpt lat="43.2135644" lon="12.2621339"><ele>529.0</ele><time>2026-03-29T08:04:29.441Z</time></trkpt><trkpt lat="43.213605" lon="12.2620617"><ele>530.0</ele><time>2026-03-29T08:04:30.44Z</time></trkpt><trkpt lat="43.2136587" lon="12.2619542"><ele>531.0</ele><time>2026-03-29T08:04:32.44Z</time></trkpt><trkpt lat="43.2136837" lon="12.2618321"><ele>532.0</ele><time>2026-03-29T08:04:33.441Z</time></trkpt><trkpt lat="43.2137314" lon="12.2616673"><ele>532.0</ele><time>2026-03-29T08:04:35.44Z</time></trkpt><trkpt lat="43.2137847" lon="12.2615661"><ele>532.0</ele><time>2026-03-29T08:04:36.441Z</time></trkpt><trkpt lat="43.2138425" lon="12.261522"><ele>532.0</ele><time>2026-03-29T08:04:37.441Z</time></trkpt><trkpt lat="43.2138464" lon="12.2614051"><ele>532.0</ele><time>2026-03-29T08:04:39.441Z</time></trkpt><trkpt lat="43.2138732" lon="12.2613217"><ele>532.0</ele><time>2026-03-29T08:04:40.441Z</time></trkpt><trkpt lat="43.2137921" lon="12.2611725"><ele>532.0</ele><time>2026-03-29T08:04:42.441Z</time></trkpt><trkpt lat="43.2137342" lon="12.2611238"><ele>531.0</ele><time>2026-03-29T08:04:43.44Z</time></trkpt><trkpt lat="43.2136679" lon="12.2610506"><ele>530.0</ele><time>2026-03-29T08:04:44.44Z</time></trkpt><trkpt lat="43.213622" lon="12.260989"><ele>529.0</ele><time>2026-03-29T08:04:45.441Z</time></trkpt><trkpt lat="43.213559" lon="12.2609145"><ele>528.0</ele><time>2026-03-29T08:04:46.439Z</time></trkpt><trkpt lat="43.2135045" lon="12.2608484"><ele>527.0</ele><time>2026-03-29T08:04:47.44Z</time></trkpt><trkpt lat="43.2134363" lon="12.2608245"><ele>526.0</ele><time>2026-03-29T08:04:48.441Z</time></trkpt><trkpt lat="43.2133504" lon="12.2607615"><ele>526.0</ele><time>2026-03-29T08:04:49.441Z</time></trkpt><trkpt lat="43.2132982" lon="12.2606807"><ele>526.0</ele><time>2026-03-29T08:04:51.44Z</time></trkpt><trkpt lat="43.2133588" lon="12.2606058"><ele>526.0</ele><time>2026-03-29T08:04:57.44Z</time></trkpt><trkpt lat="43.2135279" lon="12.2604749"><ele>526.0</ele><time>2026-03-29T08:04:59.44Z</time></trkpt><trkpt lat="43.2135943" lon="12.2604271"><ele>526.0</ele><time>2026-03-29T08:05:00.44Z</time></trkpt><trkpt lat="43.2136727" lon="12.260386"><ele>523.8333333333334</ele><time>2026-03-29T08:05:01.441Z</time></trkpt><trkpt lat="43.2137688" lon="12.2603666"><ele>521.6666666666667</ele><time>2026-03-29T08:05:02.44Z</time></trkpt><trkpt lat="43.2138288" lon="12.2603364"><ele>519.5</ele><time>2026-03-29T08:05:03.44Z</time></trkpt><trkpt lat="43.2138906" lon="12.2603002"><ele>517.3333333333334</ele><time>2026-03-29T08:05:04.441Z</time></trkpt><trkpt lat="43.2139719" lon="12.2602638"><ele>515.1666666666666</ele><time>2026-03-29T08:05:05.44Z</time></trkpt><trkpt lat="43.2139778" lon="12.2601233"><ele>513.0</ele><time>2026-03-29T08:05:07.441Z</time></trkpt><trkpt lat="43.2140312" lon="12.2600657"><ele>513.0</ele><time>2026-03-29T08:05:09.441Z</time></trkpt><trkpt lat="43.2140743" lon="12.2599706"><ele>513.0</ele><time>2026-03-29T08:05:11.44Z</time></trkpt><trkpt lat="43.2140856" lon="12.259874"><ele>513.0</ele><time>2026-03-29T08:05:13.441Z</time></trkpt><trkpt lat="43.2141052" lon="12.259787"><ele>513.0</ele><time>2026-03-29T08:05:14.441Z</time></trkpt><trkpt lat="43.2141693" lon="12.2597094"><ele>513.0</ele><time>2026-03-29T08:05:19.441Z</time></trkpt><trkpt lat="43.214227" lon="12.2596564"><ele>513.0</ele><time>2026-03-29T08:05:23.441Z</time></trkpt><trkpt lat="43.21427" lon="12.2595671"><ele>514.2857142857143</ele><time>2026-03-29T08:05:27.441Z</time></trkpt><trkpt lat="43.2143408" lon="12.2595296"><ele>515.5714285714286</ele><time>2026-03-29T08:05:29.44Z</time></trkpt><trkpt lat="43.2144043" lon="12.2594972"><ele>516.8571428571429</ele><time>2026-03-29T08:05:32.44Z</time></trkpt><trkpt lat="43.2144663" lon="12.2594728"><ele>518.1428571428571</ele><time>2026-03-29T08:05:35.44Z</time></trkpt><trkpt lat="43.2145321" lon="12.2594279"><ele>519.4285714285714</ele><time>2026-03-29T08:05:38.44Z</time></trkpt><trkpt lat="43.2145735" lon="12.2593276"><ele>520.7142857142858</ele><time>2026-03-29T08:05:41.441Z</time></trkpt><trkpt lat="43.2145996" lon="12.2592401"><ele>522.0</ele><time>2026-03-29T08:05:43.44Z</time></trkpt><trkpt lat="43.2146901" lon="12.2592089"><ele>522.0</ele><time>2026-03-29T08:05:45.442Z</time></trkpt><trkpt lat="43.2147723" lon="12.2592882"><ele>522.0</ele><time>2026-03-29T08:05:46.441Z</time></trkpt><trkpt lat="43.2148561" lon="12.2593939"><ele>522.0</ele><time>2026-03-29T08:05:48.441Z</time></trkpt><trkpt lat="43.2149114" lon="12.2594372"><ele>522.0</ele><time>2026-03-29T08:05:49.442Z</time></trkpt><trkpt lat="43.2149619" lon="12.2595042"><ele>522.0</ele><time>2026-03-29T08:05:50.441Z</time></trkpt><trkpt lat="43.215007" lon="12.2595727"><ele>522.0</ele><time>2026-03-29T08:05:51.441Z</time></trkpt><trkpt lat="43.215052" lon="12.2596401"><ele>520.8333333333334</ele><time>2026-03-29T08:05:52.441Z</time></trkpt><trkpt lat="43.215068" lon="12.2597419"><ele>519.6666666666666</ele><time>2026-03-29T08:05:53.441Z</time></trkpt><trkpt lat="43.2150925" lon="12.2598476"><ele>518.5</ele><time>2026-03-29T08:05:54.442Z</time></trkpt><trkpt lat="43.2151444" lon="12.2599691"><ele>517.3333333333333</ele><time>2026-03-29T08:05:55.442Z</time></trkpt><trkpt lat="43.2151998" lon="12.2600373"><ele>516.1666666666666</ele><time>2026-03-29T08:05:56.441Z</time></trkpt><trkpt lat="43.2152535" lon="12.2601302"><ele>515.0</ele><time>2026-03-29T08:05:57.442Z</time></trkpt><trkpt lat="43.215299" lon="12.2601941"><ele>513.6666666666666</ele><time>2026-03-29T08:05:58.442Z</time></trkpt><trkpt lat="43.2153396" lon="12.2602775"><ele>512.3333333333333</ele><time>2026-03-29T08:05:59.441Z</time></trkpt><trkpt lat="43.2154024" lon="12.2603329"><ele>511.0</ele><time>2026-03-29T08:06:00.441Z</time></trkpt><trkpt lat="43.2154872" lon="12.2603463"><ele>509.66666666666663</ele><time>2026-03-29T08:06:02.441Z</time></trkpt><trkpt lat="43.2155612" lon="12.2603515"><ele>508.3333333333333</ele><time>2026-03-29T08:06:03.442Z</time></trkpt><trkpt lat="43.2156924" lon="12.260328"><ele>507.0</ele><time>2026-03-29T08:06:05.441Z</time></trkpt><trkpt lat="43.2159051" lon="12.2603841"><ele>507.0</ele><time>2026-03-29T08:06:11.441Z</time></trkpt><trkpt lat="43.2159968" lon="12.2604334"><ele>507.0</ele><time>2026-03-29T08:06:13.441Z</time></trkpt><trkpt lat="43.2160488" lon="12.260512"><ele>507.0</ele><time>2026-03-29T08:06:15.441Z</time></trkpt><trkpt lat="43.2160874" lon="12.2606376"><ele>507.0</ele><time>2026-03-29T08:06:18.441Z</time></trkpt><trkpt lat="43.2160238" lon="12.2606633"><ele>507.0</ele><time>2026-03-29T08:06:20.441Z</time></trkpt><trkpt lat="43.2159756" lon="12.2607197"><ele>507.0</ele><time>2026-03-29T08:06:23.441Z</time></trkpt><trkpt lat="43.2160273" lon="12.2607762"><ele>504.57142857142856</ele><time>2026-03-29T08:06:27.441Z</time></trkpt><trkpt lat="43.2160824" lon="12.2607333"><ele>502.14285714285717</ele><time>2026-03-29T08:06:30.442Z</time></trkpt><trkpt lat="43.2161417" lon="12.2606923"><ele>499.7142857142857</ele><time>2026-03-29T08:06:32.442Z</time></trkpt><trkpt lat="43.2162031" lon="12.2606652"><ele>497.2857142857143</ele><time>2026-03-29T08:06:35.441Z</time></trkpt><trkpt lat="43.2162517" lon="12.2607308"><ele>494.8571428571429</ele><time>2026-03-29T08:06:37.442Z</time></trkpt><trkpt lat="43.2162983" lon="12.2608239"><ele>492.42857142857144</ele><time>2026-03-29T08:06:39.442Z</time></trkpt><trkpt lat="43.2163369" lon="12.2609526"><ele>490.0</ele><time>2026-03-29T08:06:41.441Z</time></trkpt><trkpt lat="43.2163231" lon="12.2610841"><ele>490.00000000000006</ele><time>2026-03-29T08:06:43.441Z</time></trkpt><trkpt lat="43.2163762" lon="12.2611908"><ele>490.0</ele><time>2026-03-29T08:06:45.442Z</time></trkpt><trkpt lat="43.2164495" lon="12.2611411"><ele>490.0</ele><time>2026-03-29T08:06:48.441Z</time></trkpt><trkpt lat="43.2165184" lon="12.2610247"><ele>490.0</ele><time>2026-03-29T08:06:50.442Z</time></trkpt><trkpt lat="43.2165931" lon="12.260942"><ele>490.00000000000006</ele><time>2026-03-29T08:06:52.442Z</time></trkpt><trkpt lat="43.2166555" lon="12.2609062"><ele>490.0</ele><time>2026-03-29T08:06:53.442Z</time></trkpt><trkpt lat="43.2167301" lon="12.2608878"><ele>491.1666666666667</ele><time>2026-03-29T08:06:54.442Z</time></trkpt><trkpt lat="43.2168014" lon="12.2608747"><ele>492.33333333333337</ele><time>2026-03-29T08:06:55.442Z</time></trkpt><trkpt lat="43.2169169" lon="12.2608259"><ele>493.5</ele><time>2026-03-29T08:06:57.442Z</time></trkpt><trkpt lat="43.2169697" lon="12.2606842"><ele>494.66666666666663</ele><time>2026-03-29T08:06:59.442Z</time></trkpt><trkpt lat="43.2170075" lon="12.2605942"><ele>495.8333333333333</ele><time>2026-03-29T08:07:01.441Z</time></trkpt><trkpt lat="43.2170513" lon="12.2605297"><ele>497.0</ele><time>2026-03-29T08:07:03.441Z</time></trkpt><trkpt lat="43.2171429" lon="12.2605482"><ele>499.16666666666663</ele><time>2026-03-29T08:07:06.442Z</time></trkpt><trkpt lat="43.2172175" lon="12.2605693"><ele>501.3333333333333</ele><time>2026-03-29T08:07:08.442Z</time></trkpt><trkpt lat="43.2173106" lon="12.2605961"><ele>503.5</ele><time>2026-03-29T08:07:09.442Z</time></trkpt><trkpt lat="43.2174026" lon="12.260621"><ele>505.66666666666663</ele><time>2026-03-29T08:07:11.442Z</time></trkpt><trkpt lat="43.2174792" lon="12.2606703"><ele>507.8333333333333</ele><time>2026-03-29T08:07:13.442Z</time></trkpt><trkpt lat="43.2175717" lon="12.2606642"><ele>510.0</ele><time>2026-03-29T08:07:15.441Z</time></trkpt><trkpt lat="43.2176542" lon="12.2606739"><ele>510.0</ele><time>2026-03-29T08:07:17.442Z</time></trkpt><trkpt lat="43.2177101" lon="12.2607151"><ele>510.0</ele><time>2026-03-29T08:07:18.441Z</time></trkpt><trkpt lat="43.2177391" lon="12.2608587"><ele>510.0</ele><time>2026-03-29T08:07:20.441Z</time></trkpt><trkpt lat="43.2177439" lon="12.2609451"><ele>510.0</ele><time>2026-03-29T08:07:21.442Z</time></trkpt><trkpt lat="43.2177437" lon="12.261037"><ele>510.0</ele><time>2026-03-29T08:07:22.442Z</time></trkpt><trkpt lat="43.2177367" lon="12.261164"><ele>510.0</ele><time>2026-03-29T08:07:23.441Z</time></trkpt><trkpt lat="43.2177352" lon="12.2612642"><ele>510.0</ele><time>2026-03-29T08:07:24.441Z</time></trkpt><trkpt lat="43.217718" lon="12.2614395"><ele>510.0</ele><time>2026-03-29T08:07:25.441Z</time></trkpt><trkpt lat="43.2176785" lon="12.2615856"><ele>510.0</ele><time>2026-03-29T08:07:27.441Z</time></trkpt><trkpt lat="43.2176267" lon="12.2617029"><ele>510.0</ele><time>2026-03-29T08:07:29.441Z</time></trkpt><trkpt lat="43.2176386" lon="12.2618409"><ele>510.0</ele><time>2026-03-29T08:07:31.442Z</time></trkpt><trkpt lat="43.2177088" lon="12.2619625"><ele>508.8333333333333</ele><time>2026-03-29T08:07:33.441Z</time></trkpt><trkpt lat="43.2177923" lon="12.2620365"><ele>507.66666666666663</ele><time>2026-03-29T08:07:35.442Z</time></trkpt><trkpt lat="43.2178451" lon="12.262092"><ele>506.5</ele><time>2026-03-29T08:07:36.441Z</time></trkpt><trkpt lat="43.2179328" lon="12.2621075"><ele>505.3333333333333</ele><time>2026-03-29T08:07:38.441Z</time></trkpt><trkpt lat="43.2180202" lon="12.2621266"><ele>504.16666666666663</ele><time>2026-03-29T08:07:40.442Z</time></trkpt><trkpt lat="43.2180866" lon="12.2621516"><ele>503.0</ele><time>2026-03-29T08:07:42.441Z</time></trkpt><trkpt lat="43.2181705" lon="12.2621827"><ele>505.25</ele><time>2026-03-29T08:07:44.442Z</time></trkpt><trkpt lat="43.2183263" lon="12.2622982"><ele>507.5</ele><time>2026-03-29T08:07:46.441Z</time></trkpt><trkpt lat="43.2184288" lon="12.2623363"><ele>509.75</ele><time>2026-03-29T08:07:48.44Z</time></trkpt><trkpt lat="43.2185315" lon="12.2622997"><ele>512.0</ele><time>2026-03-29T08:07:50.442Z</time></trkpt><trkpt lat="43.2186024" lon="12.2622476"><ele>515.6666666666666</ele><time>2026-03-29T08:07:51.442Z</time></trkpt><trkpt lat="43.2186685" lon="12.2622267"><ele>519.3333333333333</ele><time>2026-03-29T08:07:52.442Z</time></trkpt><trkpt lat="43.2187671" lon="12.2621478"><ele>523.0</ele><time>2026-03-29T08:07:53.442Z</time></trkpt><trkpt lat="43.2188356" lon="12.2620893"><ele>526.6666666666666</ele><time>2026-03-29T08:07:54.442Z</time></trkpt><trkpt lat="43.2189272" lon="12.2621124"><ele>530.3333333333334</ele><time>2026-03-29T08:07:56.442Z</time></trkpt><trkpt lat="43.2189943" lon="12.2621295"><ele>534.0</ele><time>2026-03-29T08:07:57.441Z</time></trkpt><trkpt lat="43.2191331" lon="12.2620909"><ele>535.6666666666666</ele><time>2026-03-29T08:07:59.441Z</time></trkpt><trkpt lat="43.2192359" lon="12.2620556"><ele>537.3333333333334</ele><time>2026-03-29T08:08:01.442Z</time></trkpt><trkpt lat="43.2193067" lon="12.2620434"><ele>539.0</ele><time>2026-03-29T08:08:03.441Z</time></trkpt><trkpt lat="43.219388" lon="12.2619916"><ele>540.6666666666667</ele><time>2026-03-29T08:08:05.442Z</time></trkpt><trkpt lat="43.2194492" lon="12.2619678"><ele>542.3333333333334</ele><time>2026-03-29T08:08:06.442Z</time></trkpt><trkpt lat="43.2195639" lon="12.2619856"><ele>544.0</ele><time>2026-03-29T08:08:07.442Z</time></trkpt><trkpt lat="43.2196253" lon="12.2619502"><ele>544.0</ele><time>2026-03-29T08:08:08.441Z</time></trkpt><trkpt lat="43.2197297" lon="12.261909"><ele>544.0</ele><time>2026-03-29T08:08:10.441Z</time></trkpt><trkpt lat="43.2197979" lon="12.2619192"><ele>544.0</ele><time>2026-03-29T08:08:12.442Z</time></trkpt><trkpt lat="43.2198676" lon="12.2619579"><ele>544.0</ele><time>2026-03-29T08:08:14.441Z</time></trkpt><trkpt lat="43.2199209" lon="12.2620309"><ele>544.0</ele><time>2026-03-29T08:08:15.441Z</time></trkpt><trkpt lat="43.2200087" lon="12.2621044"><ele>544.0</ele><time>2026-03-29T08:08:17.442Z</time></trkpt><trkpt lat="43.2200746" lon="12.2621582"><ele>543.0</ele><time>2026-03-29T08:08:18.441Z</time></trkpt><trkpt lat="43.2201525" lon="12.2622008"><ele>542.0</ele><time>2026-03-29T08:08:19.441Z</time></trkpt><trkpt lat="43.2202409" lon="12.2622628"><ele>541.0</ele><time>2026-03-29T08:08:20.44Z</time></trkpt><trkpt lat="43.2203155" lon="12.2623228"><ele>540.0</ele><time>2026-03-29T08:08:21.442Z</time></trkpt><trkpt lat="43.220379" lon="12.2623406"><ele>539.0</ele><time>2026-03-29T08:08:22.441Z</time></trkpt><trkpt lat="43.2205304" lon="12.2623684"><ele>537.0</ele><time>2026-03-29T08:08:24.441Z</time></trkpt><trkpt lat="43.2206808" lon="12.2622814"><ele>535.0</ele><time>2026-03-29T08:08:26.441Z</time></trkpt><trkpt lat="43.2207604" lon="12.2622644"><ele>533.0</ele><time>2026-03-29T08:08:28.441Z</time></trkpt><trkpt lat="43.2208232" lon="12.2622745"><ele>531.0</ele><time>2026-03-29T08:08:30.442Z</time></trkpt><trkpt lat="43.2209012" lon="12.2622799"><ele>529.0</ele><time>2026-03-29T08:08:32.442Z</time></trkpt><trkpt lat="43.2210344" lon="12.2623305"><ele>529.0</ele><time>2026-03-29T08:08:34.441Z</time></trkpt><trkpt lat="43.22114" lon="12.2624056"><ele>529.0</ele><time>2026-03-29T08:08:35.441Z</time></trkpt><trkpt lat="43.2212131" lon="12.2624421"><ele>529.0</ele><time>2026-03-29T08:08:36.441Z</time></trkpt><trkpt lat="43.2213048" lon="12.2624805"><ele>529.0</ele><time>2026-03-29T08:08:37.441Z</time></trkpt><trkpt lat="43.2214002" lon="12.2625285"><ele>529.0</ele><time>2026-03-29T08:08:38.441Z</time></trkpt><trkpt lat="43.2215043" lon="12.2626079"><ele>529.8333333333334</ele><time>2026-03-29T08:08:40.442Z</time></trkpt><trkpt lat="43.2215668" lon="12.2627081"><ele>530.6666666666667</ele><time>2026-03-29T08:08:42.441Z</time></trkpt><trkpt lat="43.2216089" lon="12.2627884"><ele>531.5</ele><time>2026-03-29T08:08:46.442Z</time></trkpt><trkpt lat="43.2216354" lon="12.2626997"><ele>532.3333333333334</ele><time>2026-03-29T08:08:52.442Z</time></trkpt><trkpt lat="43.2216507" lon="12.2625609"><ele>533.1666666666666</ele><time>2026-03-29T08:08:55.441Z</time></trkpt><trkpt lat="43.2216686" lon="12.2624467"><ele>534.0</ele><time>2026-03-29T08:08:56.442Z</time></trkpt><trkpt lat="43.2216831" lon="12.262352"><ele>537.0</ele><time>2026-03-29T08:08:57.441Z</time></trkpt><trkpt lat="43.2216644" lon="12.2622466"><ele>540.0</ele><time>2026-03-29T08:09:00.441Z</time></trkpt><trkpt lat="43.2215948" lon="12.2621858"><ele>543.0</ele><time>2026-03-29T08:09:04.442Z</time></trkpt><trkpt lat="43.2215299" lon="12.2621075"><ele>546.0</ele><time>2026-03-29T08:09:07.442Z</time></trkpt><trkpt lat="43.2215141" lon="12.2620054"><ele>549.0</ele><time>2026-03-29T08:09:10.441Z</time></trkpt><trkpt lat="43.2215318" lon="12.2618953"><ele>552.0</ele><time>2026-03-29T08:09:12.441Z</time></trkpt><trkpt lat="43.2215547" lon="12.2618059"><ele>552.0</ele><time>2026-03-29T08:09:19.441Z</time></trkpt><trkpt lat="43.2215719" lon="12.2616964"><ele>552.0</ele><time>2026-03-29T08:09:23.441Z</time></trkpt><trkpt lat="43.2215745" lon="12.2615842"><ele>552.0</ele><time>2026-03-29T08:09:27.442Z</time></trkpt><trkpt lat="43.2215068" lon="12.2615199"><ele>552.0</ele><time>2026-03-29T08:09:30.442Z</time></trkpt><trkpt lat="43.2214569" lon="12.2614613"><ele>552.0</ele><time>2026-03-29T08:09:34.441Z</time></trkpt><trkpt lat="43.2214331" lon="12.2613775"><ele>552.0</ele><time>2026-03-29T08:09:40.517Z</time></trkpt><trkpt lat="43.2213865" lon="12.2613021"><ele>552.0</ele><time>2026-03-29T08:09:44.442Z</time></trkpt><trkpt lat="43.2213454" lon="12.2612047"><ele>556.8333333333334</ele><time>2026-03-29T08:09:49.512Z</time></trkpt><trkpt lat="43.2212905" lon="12.2611619"><ele>561.6666666666666</ele><time>2026-03-29T08:09:52.441Z</time></trkpt><trkpt lat="43.221309" lon="12.2610768"><ele>566.5</ele><time>2026-03-29T08:09:55.401Z</time></trkpt><trkpt lat="43.2213332" lon="12.2609927"><ele>571.3333333333333</ele><time>2026-03-29T08:09:57.42Z</time></trkpt><trkpt lat="43.2213445" lon="12.2608868"><ele>576.1666666666666</ele><time>2026-03-29T08:10:00.483Z</time></trkpt><trkpt lat="43.2213514" lon="12.2607669"><ele>581.0</ele><time>2026-03-29T08:10:03.499Z</time></trkpt><trkpt lat="43.2212836" lon="12.260576"><ele>583.0</ele><time>2026-03-29T08:10:04.442Z</time></trkpt><trkpt lat="43.2212401" lon="12.2605027"><ele>585.0</ele><time>2026-03-29T08:10:05.493Z</time></trkpt><trkpt lat="43.2211859" lon="12.2604537"><ele>587.0</ele><time>2026-03-29T08:10:06.503Z</time></trkpt><trkpt lat="43.2211313" lon="12.2603829"><ele>589.0</ele><time>2026-03-29T08:10:07.441Z</time></trkpt><trkpt lat="43.2210764" lon="12.2603344"><ele>591.0</ele><time>2026-03-29T08:10:09.441Z</time></trkpt><trkpt lat="43.2209789" lon="12.2602608"><ele>593.0</ele><time>2026-03-29T08:10:12.442Z</time></trkpt><trkpt lat="43.2209006" lon="12.2602084"><ele>593.0</ele><time>2026-03-29T08:10:14.509Z</time></trkpt><trkpt lat="43.2207378" lon="12.2600353"><ele>593.0</ele><time>2026-03-29T08:10:16.441Z</time></trkpt><trkpt lat="43.2206476" lon="12.2599411"><ele>593.0</ele><time>2026-03-29T08:10:17.442Z</time></trkpt><trkpt lat="43.2205847" lon="12.259898"><ele>593.0</ele><time>2026-03-29T08:10:18.441Z</time></trkpt><trkpt lat="43.2204842" lon="12.2598515"><ele>593.0</ele><time>2026-03-29T08:10:20.442Z</time></trkpt><trkpt lat="43.220399" lon="12.2598065"><ele>593.0</ele><time>2026-03-29T08:10:23.441Z</time></trkpt><trkpt lat="43.2203334" lon="12.2597541"><ele>593.0</ele><time>2026-03-29T08:10:27.441Z</time></trkpt><trkpt lat="43.220265" lon="12.2597301"><ele>593.0</ele><time>2026-03-29T08:10:59.442Z</time></trkpt><trkpt lat="43.2201929" lon="12.2597281"><ele>593.0</ele><time>2026-03-29T08:11:01.442Z</time></trkpt><trkpt lat="43.2200772" lon="12.2597055"><ele>593.0</ele><time>2026-03-29T08:11:03.441Z</time></trkpt><trkpt lat="43.2200099" lon="12.2596946"><ele>593.0</ele><time>2026-03-29T08:11:05.44Z</time></trkpt><trkpt lat="43.2199198" lon="12.2595179"><ele>593.0</ele><time>2026-03-29T08:11:07.442Z</time></trkpt><trkpt lat="43.219877" lon="12.259367"><ele>593.0</ele><time>2026-03-29T08:11:09.442Z</time></trkpt><trkpt lat="43.2198667" lon="12.2592401"><ele>593.0</ele><time>2026-03-29T08:11:10.442Z</time></trkpt><trkpt lat="43.2199" lon="12.259106"><ele>593.0</ele><time>2026-03-29T08:11:12.442Z</time></trkpt><trkpt lat="43.2198792" lon="12.2589952"><ele>593.0</ele><time>2026-03-29T08:11:14.443Z</time></trkpt><trkpt lat="43.2198159" lon="12.2588372"><ele>593.0</ele><time>2026-03-29T08:11:18.381Z</time></trkpt><trkpt lat="43.2197906" lon="12.2587319"><ele>593.0</ele><time>2026-03-29T08:11:20.441Z</time></trkpt><trkpt lat="43.2198304" lon="12.2586181"><ele>593.0</ele><time>2026-03-29T08:11:23.441Z</time></trkpt><trkpt lat="43.2199057" lon="12.2586041"><ele>596.1666666666666</ele><time>2026-03-29T08:11:25.441Z</time></trkpt><trkpt lat="43.219982" lon="12.2585547"><ele>599.3333333333333</ele><time>2026-03-29T08:11:27.442Z</time></trkpt><trkpt lat="43.2200142" lon="12.2584625"><ele>602.5</ele><time>2026-03-29T08:11:28.441Z</time></trkpt><trkpt lat="43.220033" lon="12.2583445"><ele>605.6666666666666</ele><time>2026-03-29T08:11:30.442Z</time></trkpt><trkpt lat="43.2200433" lon="12.2582397"><ele>608.8333333333334</ele><time>2026-03-29T08:11:32.441Z</time></trkpt><trkpt lat="43.2200393" lon="12.2581453"><ele>612.0</ele><time>2026-03-29T08:11:35.442Z</time></trkpt><trkpt lat="43.2199425" lon="12.258109"><ele>616.4</ele><time>2026-03-29T08:11:38.442Z</time></trkpt><trkpt lat="43.2198714" lon="12.2580589"><ele>620.8000000000001</ele><time>2026-03-29T08:11:41.442Z</time></trkpt><trkpt lat="43.2198918" lon="12.2579408"><ele>625.2</ele><time>2026-03-29T08:11:43.441Z</time></trkpt><trkpt lat="43.219959" lon="12.257768"><ele>629.6</ele><time>2026-03-29T08:11:45.442Z</time></trkpt><trkpt lat="43.2199932" lon="12.2576864"><ele>634.0</ele><time>2026-03-29T08:11:46.441Z</time></trkpt><trkpt lat="43.2200071" lon="12.2575142"><ele>634.0</ele><time>2026-03-29T08:11:48.442Z</time></trkpt><trkpt lat="43.2200202" lon="12.2574278"><ele>634.0</ele><time>2026-03-29T08:11:49.441Z</time></trkpt><trkpt lat="43.2200494" lon="12.2573357"><ele>634.0</ele><time>2026-03-29T08:11:50.441Z</time></trkpt><trkpt lat="43.2200807" lon="12.2572493"><ele>634.0</ele><time>2026-03-29T08:11:51.441Z</time></trkpt><trkpt lat="43.2201146" lon="12.257174"><ele>634.0</ele><time>2026-03-29T08:11:52.441Z</time></trkpt><trkpt lat="43.2201619" lon="12.2570307"><ele>634.0</ele><time>2026-03-29T08:11:54.442Z</time></trkpt><trkpt lat="43.2201949" lon="12.2569566"><ele>637.2</ele><time>2026-03-29T08:11:55.441Z</time></trkpt><trkpt lat="43.2202383" lon="12.2568764"><ele>640.4</ele><time>2026-03-29T08:11:56.441Z</time></trkpt><trkpt lat="43.2203018" lon="12.2567342"><ele>643.6</ele><time>2026-03-29T08:11:58.442Z</time></trkpt><trkpt lat="43.2203221" lon="12.2566014"><ele>646.8</ele><time>2026-03-29T08:12:00.442Z</time></trkpt><trkpt lat="43.2202977" lon="12.2564662"><ele>650.0</ele><time>2026-03-29T08:12:02.442Z</time></trkpt><trkpt lat="43.2202606" lon="12.2563876"><ele>650.0</ele><time>2026-03-29T08:12:03.442Z</time></trkpt><trkpt lat="43.2202072" lon="12.2564481"><ele>650.0</ele><time>2026-03-29T08:12:05.441Z</time></trkpt><trkpt lat="43.2201263" lon="12.2565234"><ele>650.0</ele><time>2026-03-29T08:12:07.441Z</time></trkpt><trkpt lat="43.2200043" lon="12.2565708"><ele>650.0</ele><time>2026-03-29T08:12:09.442Z</time></trkpt><trkpt lat="43.2199357" lon="12.2565774"><ele>650.0</ele><time>2026-03-29T08:12:10.441Z</time></trkpt><trkpt lat="43.2198317" lon="12.2566126"><ele>648.7142857142857</ele><time>2026-03-29T08:12:12.441Z</time></trkpt><trkpt lat="43.2197587" lon="12.2566328"><ele>647.4285714285714</ele><time>2026-03-29T08:12:14.441Z</time></trkpt><trkpt lat="43.2196946" lon="12.2566069"><ele>646.1428571428571</ele><time>2026-03-29T08:14:15.441Z</time></trkpt><trkpt lat="43.2196834" lon="12.2566961"><ele>644.8571428571429</ele><time>2026-03-29T08:14:19.394Z</time></trkpt><trkpt lat="43.2197013" lon="12.2567816"><ele>643.5714285714286</ele><time>2026-03-29T08:14:51.498Z</time></trkpt><trkpt lat="43.2197097" lon="12.2566847"><ele>642.2857142857143</ele><time>2026-03-29T08:14:57.373Z</time></trkpt><trkpt lat="43.2196669" lon="12.2566078"><ele>641.0</ele><time>2026-03-29T08:23:31.442Z</time></trkpt><trkpt lat="43.2195857" lon="12.2565534"><ele>641.5999999999999</ele><time>2026-03-29T08:23:34.441Z</time></trkpt><trkpt lat="43.2195033" lon="12.2564486"><ele>642.2</ele><time>2026-03-29T08:23:36.443Z</time></trkpt><trkpt lat="43.2194879" lon="12.2562998"><ele>642.8</ele><time>2026-03-29T08:23:38.442Z</time></trkpt><trkpt lat="43.2195013" lon="12.2562035"><ele>643.4000000000001</ele><time>2026-03-29T08:23:40.442Z</time></trkpt><trkpt lat="43.2195933" lon="12.2560423"><ele>644.0</ele><time>2026-03-29T08:23:42.442Z</time></trkpt><trkpt lat="43.2196316" lon="12.2559704"><ele>644.0</ele><time>2026-03-29T08:23:45.443Z</time></trkpt><trkpt lat="43.2197171" lon="12.2560691"><ele>644.0</ele><time>2026-03-29T08:23:48.443Z</time></trkpt><trkpt lat="43.2197728" lon="12.256133"><ele>644.0</ele><time>2026-03-29T08:23:50.443Z</time></trkpt><trkpt lat="43.2198578" lon="12.2561774"><ele>644.0</ele><time>2026-03-29T08:23:52.443Z</time></trkpt><trkpt lat="43.2199262" lon="12.2561803"><ele>644.0</ele><time>2026-03-29T08:23:53.442Z</time></trkpt><trkpt lat="43.2200122" lon="12.2561612"><ele>644.0</ele><time>2026-03-29T08:23:54.442Z</time></trkpt><trkpt lat="43.2200984" lon="12.2561381"><ele>647.5</ele><time>2026-03-29T08:23:55.443Z</time></trkpt><trkpt lat="43.2201798" lon="12.2561228"><ele>651.0</ele><time>2026-03-29T08:23:56.442Z</time></trkpt><trkpt lat="43.2202493" lon="12.2560987"><ele>654.5</ele><time>2026-03-29T08:23:57.442Z</time></trkpt><trkpt lat="43.2203106" lon="12.256058"><ele>658.0</ele><time>2026-03-29T08:23:58.443Z</time></trkpt><trkpt lat="43.2203795" lon="12.2559968"><ele>661.5</ele><time>2026-03-29T08:24:00.443Z</time></trkpt><trkpt lat="43.2204777" lon="12.2559112"><ele>665.0</ele><time>2026-03-29T08:24:02.442Z</time></trkpt><trkpt lat="43.2205485" lon="12.2558021"><ele>665.0</ele><time>2026-03-29T08:24:04.442Z</time></trkpt><trkpt lat="43.2206413" lon="12.2557047"><ele>665.0</ele><time>2026-03-29T08:24:06.442Z</time></trkpt><trkpt lat="43.220696" lon="12.2556406"><ele>665.0</ele><time>2026-03-29T08:24:07.443Z</time></trkpt><trkpt lat="43.2207594" lon="12.255575"><ele>665.0</ele><time>2026-03-29T08:24:08.443Z</time></trkpt><trkpt lat="43.2208544" lon="12.2554495"><ele>665.0</ele><time>2026-03-29T08:24:10.442Z</time></trkpt><trkpt lat="43.2209043" lon="12.255379"><ele>664.1666666666666</ele><time>2026-03-29T08:24:11.442Z</time></trkpt><trkpt lat="43.2209673" lon="12.2553233"><ele>663.3333333333333</ele><time>2026-03-29T08:24:12.443Z</time></trkpt><trkpt lat="43.2210227" lon="12.2552568"><ele>662.5</ele><time>2026-03-29T08:24:13.442Z</time></trkpt><trkpt lat="43.2210781" lon="12.2551981"><ele>661.6666666666666</ele><time>2026-03-29T08:24:14.442Z</time></trkpt><trkpt lat="43.221037" lon="12.2550056"><ele>660.8333333333334</ele><time>2026-03-29T08:24:15.443Z</time></trkpt><trkpt lat="43.2210394" lon="12.2549147"><ele>660.0</ele><time>2026-03-29T08:24:16.442Z</time></trkpt><trkpt lat="43.2210651" lon="12.2548152"><ele>664.0</ele><time>2026-03-29T08:24:17.442Z</time></trkpt><trkpt lat="43.2211283" lon="12.2546821"><ele>668.0</ele><time>2026-03-29T08:24:19.442Z</time></trkpt><trkpt lat="43.2212029" lon="12.2546737"><ele>672.0</ele><time>2026-03-29T08:24:20.443Z</time></trkpt><trkpt lat="43.2213207" lon="12.2545363"><ele>676.0</ele><time>2026-03-29T08:24:22.442Z</time></trkpt><trkpt lat="43.2214255" lon="12.2544767"><ele>673.7142857142858</ele><time>2026-03-29T08:24:24.443Z</time></trkpt><trkpt lat="43.2215064" lon="12.2544656"><ele>671.4285714285714</ele><time>2026-03-29T08:24:26.442Z</time></trkpt><trkpt lat="43.2215692" lon="12.2545096"><ele>669.1428571428571</ele><time>2026-03-29T08:24:27.443Z</time></trkpt><trkpt lat="43.2216397" lon="12.2545392"><ele>666.8571428571429</ele><time>2026-03-29T08:24:28.442Z</time></trkpt><trkpt lat="43.2216983" lon="12.2545716"><ele>664.5714285714286</ele><time>2026-03-29T08:24:29.443Z</time></trkpt><trkpt lat="43.2217649" lon="12.2545968"><ele>662.2857142857143</ele><time>2026-03-29T08:24:30.443Z</time></trkpt><trkpt lat="43.2218342" lon="12.2546251"><ele>660.0</ele><time>2026-03-29T08:24:31.442Z</time></trkpt><trkpt lat="43.2219313" lon="12.2546697"><ele>655.0</ele><time>2026-03-29T08:24:34.442Z</time></trkpt><trkpt lat="43.2219979" lon="12.2548429"><ele>650.0</ele><time>2026-03-29T08:24:36.443Z</time></trkpt><trkpt lat="43.2220549" lon="12.2549022"><ele>645.0</ele><time>2026-03-29T08:24:37.442Z</time></trkpt><trkpt lat="43.2221748" lon="12.2549449"><ele>640.0</ele><time>2026-03-29T08:24:39.443Z</time></trkpt><trkpt lat="43.2222457" lon="12.2549506"><ele>635.0</ele><time>2026-03-29T08:24:40.442Z</time></trkpt><trkpt lat="43.2223257" lon="12.2549277"><ele>634.3333333333333</ele><time>2026-03-29T08:24:41.443Z</time></trkpt><trkpt lat="43.222404" lon="12.2548742"><ele>633.6666666666666</ele><time>2026-03-29T08:24:42.443Z</time></trkpt><trkpt lat="43.222457" lon="12.2548182"><ele>633.0</ele><time>2026-03-29T08:24:43.443Z</time></trkpt><trkpt lat="43.222516" lon="12.2547739"><ele>632.3333333333334</ele><time>2026-03-29T08:24:44.443Z</time></trkpt><trkpt lat="43.2226022" lon="12.2548292"><ele>631.6666666666667</ele><time>2026-03-29T08:24:46.443Z</time></trkpt><trkpt lat="43.2226824" lon="12.2549371"><ele>631.0</ele><time>2026-03-29T08:24:48.442Z</time></trkpt><trkpt lat="43.2227459" lon="12.2549991"><ele>631.0</ele><time>2026-03-29T08:24:49.443Z</time></trkpt><trkpt lat="43.222809" lon="12.2550483"><ele>631.0</ele><time>2026-03-29T08:24:50.443Z</time></trkpt><trkpt lat="43.2228538" lon="12.2551128"><ele>631.0</ele><time>2026-03-29T08:24:51.443Z</time></trkpt><trkpt lat="43.2229142" lon="12.2551893"><ele>631.0</ele><time>2026-03-29T08:24:52.442Z</time></trkpt><trkpt lat="43.2229672" lon="12.2552484"><ele>631.0</ele><time>2026-03-29T08:24:53.443Z</time></trkpt><trkpt lat="43.2230554" lon="12.2553196"><ele>631.0</ele><time>2026-03-29T08:24:55.442Z</time></trkpt><trkpt lat="43.223124" lon="12.2552852"><ele>633.0</ele><time>2026-03-29T08:24:57.442Z</time></trkpt><trkpt lat="43.2231812" lon="12.2552445"><ele>635.0</ele><time>2026-03-29T08:25:00.442Z</time></trkpt><trkpt lat="43.2232603" lon="12.2552092"><ele>637.0</ele><time>2026-03-29T08:25:02.442Z</time></trkpt><trkpt lat="43.2233104" lon="12.2551367"><ele>639.0</ele><time>2026-03-29T08:25:04.442Z</time></trkpt><trkpt lat="43.2233345" lon="12.2549959"><ele>641.0</ele><time>2026-03-29T08:25:06.442Z</time></trkpt><trkpt lat="43.2233636" lon="12.2549125"><ele>643.0</ele><time>2026-03-29T08:25:08.442Z</time></trkpt><trkpt lat="43.2234145" lon="12.25485"><ele>643.0</ele><time>2026-03-29T08:25:10.443Z</time></trkpt><trkpt lat="43.2235132" lon="12.2548191"><ele>643.0</ele><time>2026-03-29T08:25:11.443Z</time></trkpt><trkpt lat="43.2235696" lon="12.254777"><ele>643.0</ele><time>2026-03-29T08:25:12.443Z</time></trkpt><trkpt lat="43.2236239" lon="12.2547125"><ele>643.0</ele><time>2026-03-29T08:25:13.443Z</time></trkpt><trkpt lat="43.2236792" lon="12.2546524"><ele>643.0</ele><time>2026-03-29T08:25:14.443Z</time></trkpt><trkpt lat="43.2237342" lon="12.2545887"><ele>643.0</ele><time>2026-03-29T08:25:15.442Z</time></trkpt><trkpt lat="43.2237837" lon="12.2545151"><ele>647.5999999999999</ele><time>2026-03-29T08:25:16.442Z</time></trkpt><trkpt lat="43.2239525" lon="12.254425"><ele>652.1999999999999</ele><time>2026-03-29T08:25:17.442Z</time></trkpt><trkpt lat="43.2240164" lon="12.2543002"><ele>656.8</ele><time>2026-03-29T08:25:19.442Z</time></trkpt><trkpt lat="43.2240748" lon="12.2542455"><ele>661.4</ele><time>2026-03-29T08:25:20.443Z</time></trkpt><trkpt lat="43.2241151" lon="12.2541766"><ele>666.0</ele><time>2026-03-29T08:25:21.443Z</time></trkpt><trkpt lat="43.2241728" lon="12.2541003"><ele>666.0</ele><time>2026-03-29T08:25:22.442Z</time></trkpt><trkpt lat="43.2242243" lon="12.2540318"><ele>666.0</ele><time>2026-03-29T08:25:23.441Z</time></trkpt><trkpt lat="43.2243316" lon="12.2539377"><ele>666.0</ele><time>2026-03-29T08:25:25.443Z</time></trkpt><trkpt lat="43.2243951" lon="12.2538937"><ele>666.0</ele><time>2026-03-29T08:25:26.443Z</time></trkpt><trkpt lat="43.2244635" lon="12.253896"><ele>666.0</ele><time>2026-03-29T08:25:27.443Z</time></trkpt><trkpt lat="43.2245594" lon="12.2538679"><ele>666.0</ele><time>2026-03-29T08:25:28.442Z</time></trkpt><trkpt lat="43.2246764" lon="12.2538976"><ele>666.8</ele><time>2026-03-29T08:25:29.443Z</time></trkpt><trkpt lat="43.2247601" lon="12.2538947"><ele>667.5999999999999</ele><time>2026-03-29T08:25:30.442Z</time></trkpt><trkpt lat="43.224829" lon="12.2538969"><ele>668.4</ele><time>2026-03-29T08:25:31.443Z</time></trkpt><trkpt lat="43.2249742" lon="12.2540298"><ele>669.2</ele><time>2026-03-29T08:25:32.442Z</time></trkpt><trkpt lat="43.225062" lon="12.2540299"><ele>670.0</ele><time>2026-03-29T08:25:33.443Z</time></trkpt><trkpt lat="43.2251407" lon="12.2540757"><ele>670.0</ele><time>2026-03-29T08:25:34.443Z</time></trkpt><trkpt lat="43.2252162" lon="12.2541317"><ele>670.0</ele><time>2026-03-29T08:25:35.442Z</time></trkpt><trkpt lat="43.2252827" lon="12.254174"><ele>670.0</ele><time>2026-03-29T08:25:36.443Z</time></trkpt><trkpt lat="43.2253445" lon="12.2542074"><ele>670.0</ele><time>2026-03-29T08:25:37.442Z</time></trkpt><trkpt lat="43.2254611" lon="12.2541962"><ele>670.0</ele><time>2026-03-29T08:25:38.443Z</time></trkpt><trkpt lat="43.2255381" lon="12.2542145"><ele>670.0</ele><time>2026-03-29T08:25:39.443Z</time></trkpt><trkpt lat="43.2256419" lon="12.2542066"><ele>671.2</ele><time>2026-03-29T08:25:41.443Z</time></trkpt><trkpt lat="43.2258106" lon="12.2540734"><ele>672.4</ele><time>2026-03-29T08:25:44.442Z</time></trkpt><trkpt lat="43.2258858" lon="12.2540125"><ele>673.5999999999999</ele><time>2026-03-29T08:25:45.443Z</time></trkpt><trkpt lat="43.2259447" lon="12.2539609"><ele>674.8</ele><time>2026-03-29T08:25:46.443Z</time></trkpt><trkpt lat="43.2260017" lon="12.2539068"><ele>676.0</ele><time>2026-03-29T08:25:47.442Z</time></trkpt><trkpt lat="43.2260158" lon="12.253687"><ele>679.8</ele><time>2026-03-29T08:25:49.442Z</time></trkpt><trkpt lat="43.2260507" lon="12.2535486"><ele>683.5999999999999</ele><time>2026-03-29T08:25:51.442Z</time></trkpt><trkpt lat="43.2260794" lon="12.2533895"><ele>687.4</ele><time>2026-03-29T08:25:52.443Z</time></trkpt><trkpt lat="43.2261087" lon="12.2532735"><ele>691.2</ele><time>2026-03-29T08:25:53.442Z</time></trkpt><trkpt lat="43.2261385" lon="12.2531605"><ele>695.0</ele><time>2026-03-29T08:25:54.443Z</time></trkpt><trkpt lat="43.2261933" lon="12.253025"><ele>699.25</ele><time>2026-03-29T08:25:55.443Z</time></trkpt><trkpt lat="43.2260387" lon="12.2527446"><ele>703.5</ele><time>2026-03-29T08:25:56.442Z</time></trkpt><trkpt lat="43.2260548" lon="12.2526258"><ele>707.75</ele><time>2026-03-29T08:25:57.442Z</time></trkpt><trkpt lat="43.2260843" lon="12.2525435"><ele>712.0</ele><time>2026-03-29T08:25:58.442Z</time></trkpt><trkpt lat="43.2261205" lon="12.2524146"><ele>712.0</ele><time>2026-03-29T08:25:59.442Z</time></trkpt><trkpt lat="43.2261618" lon="12.2523443"><ele>712.0</ele><time>2026-03-29T08:26:01.442Z</time></trkpt><trkpt lat="43.2261891" lon="12.252253"><ele>712.0</ele><time>2026-03-29T08:26:03.443Z</time></trkpt><trkpt lat="43.2262159" lon="12.2521105"><ele>712.0</ele><time>2026-03-29T08:26:05.442Z</time></trkpt><trkpt lat="43.2262906" lon="12.2520547"><ele>712.0</ele><time>2026-03-29T08:26:06.442Z</time></trkpt><trkpt lat="43.2263926" lon="12.2520621"><ele>712.0</ele><time>2026-03-29T08:26:09.443Z</time></trkpt><trkpt lat="43.2265262" lon="12.252005"><ele>714.5</ele><time>2026-03-29T08:26:10.443Z</time></trkpt><trkpt lat="43.2266836" lon="12.2519662"><ele>717.0</ele><time>2026-03-29T08:26:11.443Z</time></trkpt><trkpt lat="43.2267931" lon="12.2519526"><ele>719.5</ele><time>2026-03-29T08:26:12.442Z</time></trkpt><trkpt lat="43.2268787" lon="12.2518905"><ele>722.0</ele><time>2026-03-29T08:26:13.443Z</time></trkpt><trkpt lat="43.2269825" lon="12.2518221"><ele>722.0</ele><time>2026-03-29T08:26:14.442Z</time></trkpt><trkpt lat="43.2271036" lon="12.2517412"><ele>722.0</ele><time>2026-03-29T08:26:15.442Z</time></trkpt><trkpt lat="43.2272143" lon="12.2516602"><ele>722.0</ele><time>2026-03-29T08:26:16.443Z</time></trkpt><trkpt lat="43.227328" lon="12.2515687"><ele>722.0</ele><time>2026-03-29T08:26:17.443Z</time></trkpt><trkpt lat="43.2274257" lon="12.2514856"><ele>722.0</ele><time>2026-03-29T08:26:18.442Z</time></trkpt><trkpt lat="43.2275202" lon="12.2515313"><ele>722.0</ele><time>2026-03-29T08:26:20.442Z</time></trkpt><trkpt lat="43.2276002" lon="12.2515706"><ele>722.0</ele><time>2026-03-29T08:26:21.443Z</time></trkpt><trkpt lat="43.2276748" lon="12.2515827"><ele>722.0</ele><time>2026-03-29T08:26:22.442Z</time></trkpt><trkpt lat="43.2277456" lon="12.2515898"><ele>722.0</ele><time>2026-03-29T08:26:23.442Z</time></trkpt><trkpt lat="43.2278213" lon="12.2516091"><ele>722.0</ele><time>2026-03-29T08:26:24.443Z</time></trkpt><trkpt lat="43.2279592" lon="12.2516377"><ele>722.0</ele><time>2026-03-29T08:26:25.442Z</time></trkpt><trkpt lat="43.2280332" lon="12.2516585"><ele>722.0</ele><time>2026-03-29T08:26:26.442Z</time></trkpt><trkpt lat="43.2281496" lon="12.2516872"><ele>722.0</ele><time>2026-03-29T08:26:27.443Z</time></trkpt><trkpt lat="43.2282547" lon="12.2516671"><ele>722.0</ele><time>2026-03-29T08:26:28.443Z</time></trkpt><trkpt lat="43.2283377" lon="12.2516771"><ele>722.0</ele><time>2026-03-29T08:26:29.441Z</time></trkpt><trkpt lat="43.2284357" lon="12.2516905"><ele>722.1666666666666</ele><time>2026-03-29T08:26:30.442Z</time></trkpt><trkpt lat="43.2285142" lon="12.251698"><ele>722.3333333333333</ele><time>2026-03-29T08:26:31.443Z</time></trkpt><trkpt lat="43.2285958" lon="12.2516989"><ele>722.5</ele><time>2026-03-29T08:26:32.443Z</time></trkpt><trkpt lat="43.2286806" lon="12.2517408"><ele>722.6666666666666</ele><time>2026-03-29T08:26:33.442Z</time></trkpt><trkpt lat="43.2287448" lon="12.2516876"><ele>722.8333333333334</ele><time>2026-03-29T08:26:34.443Z</time></trkpt><trkpt lat="43.2288118" lon="12.251662"><ele>723.0</ele><time>2026-03-29T08:26:35.441Z</time></trkpt><trkpt lat="43.2289206" lon="12.2515572"><ele>721.8</ele><time>2026-03-29T08:26:36.443Z</time></trkpt><trkpt lat="43.228988" lon="12.2514805"><ele>720.5999999999999</ele><time>2026-03-29T08:26:37.442Z</time></trkpt><trkpt lat="43.229065" lon="12.2513995"><ele>719.4000000000001</ele><time>2026-03-29T08:26:38.442Z</time></trkpt><trkpt lat="43.2290771" lon="12.2512936"><ele>718.2</ele><time>2026-03-29T08:26:39.443Z</time></trkpt><trkpt lat="43.2291278" lon="12.2511822"><ele>717.0</ele><time>2026-03-29T08:26:40.443Z</time></trkpt><trkpt lat="43.2292214" lon="12.2510932"><ele>720.4000000000001</ele><time>2026-03-29T08:26:41.443Z</time></trkpt><trkpt lat="43.2293431" lon="12.2509741"><ele>723.8000000000001</ele><time>2026-03-29T08:26:42.443Z</time></trkpt><trkpt lat="43.2294062" lon="12.2509203"><ele>727.2</ele><time>2026-03-29T08:26:43.442Z</time></trkpt><trkpt lat="43.229484" lon="12.2509102"><ele>730.6</ele><time>2026-03-29T08:26:44.442Z</time></trkpt><trkpt lat="43.2295343" lon="12.2508196"><ele>734.0</ele><time>2026-03-29T08:26:46.442Z</time></trkpt><trkpt lat="43.229635" lon="12.2507365"><ele>734.0</ele><time>2026-03-29T08:26:47.442Z</time></trkpt><trkpt lat="43.2296779" lon="12.2506251"><ele>734.0</ele><time>2026-03-29T08:26:48.442Z</time></trkpt><trkpt lat="43.2296943" lon="12.2504878"><ele>734.0</ele><time>2026-03-29T08:26:49.443Z</time></trkpt><trkpt lat="43.2298144" lon="12.2503728"><ele>734.0</ele><time>2026-03-29T08:26:51.442Z</time></trkpt><trkpt lat="43.230004" lon="12.2503855"><ele>736.6</ele><time>2026-03-29T08:26:52.443Z</time></trkpt><trkpt lat="43.2301081" lon="12.2503996"><ele>739.2</ele><time>2026-03-29T08:26:53.442Z</time></trkpt><trkpt lat="43.2302215" lon="12.2504327"><ele>741.8000000000001</ele><time>2026-03-29T08:26:54.443Z</time></trkpt><trkpt lat="43.2303421" lon="12.2504706"><ele>744.4000000000001</ele><time>2026-03-29T08:26:55.443Z</time></trkpt><trkpt lat="43.2304432" lon="12.2504885"><ele>747.0</ele><time>2026-03-29T08:26:56.442Z</time></trkpt><trkpt lat="43.2305372" lon="12.2504896"><ele>744.75</ele><time>2026-03-29T08:26:57.442Z</time></trkpt><trkpt lat="43.2306532" lon="12.2504964"><ele>742.5</ele><time>2026-03-29T08:26:58.442Z</time></trkpt><trkpt lat="43.2307521" lon="12.250475"><ele>740.25</ele><time>2026-03-29T08:26:59.442Z</time></trkpt><trkpt lat="43.2308572" lon="12.2504579"><ele>738.0</ele><time>2026-03-29T08:27:00.443Z</time></trkpt><trkpt lat="43.2309956" lon="12.2503993"><ele>738.0</ele><time>2026-03-29T08:27:02.443Z</time></trkpt><trkpt lat="43.2310679" lon="12.2503669"><ele>738.0</ele><time>2026-03-29T08:27:03.443Z</time></trkpt><trkpt lat="43.231164" lon="12.2502627"><ele>738.0</ele><time>2026-03-29T08:27:04.443Z</time></trkpt><trkpt lat="43.2312303" lon="12.2501637"><ele>738.0</ele><time>2026-03-29T08:27:05.442Z</time></trkpt><trkpt lat="43.2313275" lon="12.2501476"><ele>738.0</ele><time>2026-03-29T08:27:06.443Z</time></trkpt><trkpt lat="43.2314157" lon="12.2501041"><ele>736.1666666666666</ele><time>2026-03-29T08:27:07.442Z</time></trkpt><trkpt lat="43.2315103" lon="12.2500968"><ele>734.3333333333334</ele><time>2026-03-29T08:27:08.443Z</time></trkpt><trkpt lat="43.2316057" lon="12.2500975"><ele>732.5</ele><time>2026-03-29T08:27:09.442Z</time></trkpt><trkpt lat="43.2316898" lon="12.2501028"><ele>730.6666666666667</ele><time>2026-03-29T08:27:10.443Z</time></trkpt><trkpt lat="43.2317634" lon="12.2501338"><ele>728.8333333333334</ele><time>2026-03-29T08:27:11.443Z</time></trkpt><trkpt lat="43.2318277" lon="12.2501514"><ele>727.0</ele><time>2026-03-29T08:27:12.443Z</time></trkpt><trkpt lat="43.2318909" lon="12.2501531"><ele>727.0</ele><time>2026-03-29T08:27:13.442Z</time></trkpt><trkpt lat="43.23196" lon="12.2501278"><ele>727.0</ele><time>2026-03-29T08:27:14.443Z</time></trkpt><trkpt lat="43.2320265" lon="12.2500885"><ele>727.0</ele><time>2026-03-29T08:27:15.442Z</time></trkpt><trkpt lat="43.2320927" lon="12.2500463"><ele>727.0</ele><time>2026-03-29T08:27:16.442Z</time></trkpt><trkpt lat="43.2321758" lon="12.2499829"><ele>727.0</ele><time>2026-03-29T08:27:17.442Z</time></trkpt><trkpt lat="43.2322529" lon="12.2499231"><ele>727.0</ele><time>2026-03-29T08:27:18.443Z</time></trkpt><trkpt lat="43.2323225" lon="12.2498643"><ele>727.8333333333334</ele><time>2026-03-29T08:27:19.443Z</time></trkpt><trkpt lat="43.232374" lon="12.2498094"><ele>728.6666666666667</ele><time>2026-03-29T08:27:20.442Z</time></trkpt><trkpt lat="43.2324121" lon="12.2497137"><ele>729.5</ele><time>2026-03-29T08:27:21.442Z</time></trkpt><trkpt lat="43.2324487" lon="12.2496009"><ele>730.3333333333334</ele><time>2026-03-29T08:27:22.442Z</time></trkpt><trkpt lat="43.2324833" lon="12.2495189"><ele>731.1666666666666</ele><time>2026-03-29T08:27:23.442Z</time></trkpt><trkpt lat="43.2325304" lon="12.2494285"><ele>732.0</ele><time>2026-03-29T08:27:24.443Z</time></trkpt><trkpt lat="43.2325978" lon="12.249398"><ele>732.0</ele><time>2026-03-29T08:27:25.443Z</time></trkpt><trkpt lat="43.2326851" lon="12.2493542"><ele>732.0</ele><time>2026-03-29T08:27:26.442Z</time></trkpt><trkpt lat="43.2327762" lon="12.2493214"><ele>732.0</ele><time>2026-03-29T08:27:27.443Z</time></trkpt><trkpt lat="43.2328689" lon="12.2492651"><ele>732.0</ele><time>2026-03-29T08:27:28.442Z</time></trkpt><trkpt lat="43.2329653" lon="12.2492108"><ele>732.0</ele><time>2026-03-29T08:27:29.442Z</time></trkpt><trkpt lat="43.2331162" lon="12.2491799"><ele>729.6</ele><time>2026-03-29T08:27:30.443Z</time></trkpt><trkpt lat="43.2332243" lon="12.2491494"><ele>727.2</ele><time>2026-03-29T08:27:31.443Z</time></trkpt><trkpt lat="43.2333313" lon="12.2490997"><ele>724.8</ele><time>2026-03-29T08:27:32.442Z</time></trkpt><trkpt lat="43.2333983" lon="12.2490211"><ele>722.4</ele><time>2026-03-29T08:27:33.443Z</time></trkpt><trkpt lat="43.2335255" lon="12.2489724"><ele>720.0</ele><time>2026-03-29T08:27:34.443Z</time></trkpt><trkpt lat="43.2336345" lon="12.2489904"><ele>720.0</ele><time>2026-03-29T08:27:35.443Z</time></trkpt><trkpt lat="43.2337591" lon="12.2490216"><ele>720.0</ele><time>2026-03-29T08:27:36.443Z</time></trkpt><trkpt lat="43.2338759" lon="12.2490469"><ele>720.0</ele><time>2026-03-29T08:27:37.442Z</time></trkpt><trkpt lat="43.2339789" lon="12.2490774"><ele>720.0</ele><time>2026-03-29T08:27:38.443Z</time></trkpt><trkpt lat="43.234113" lon="12.249128"><ele>719.2</ele><time>2026-03-29T08:27:39.442Z</time></trkpt><trkpt lat="43.2342514" lon="12.2491548"><ele>718.4</ele><time>2026-03-29T08:27:40.442Z</time></trkpt><trkpt lat="43.234364" lon="12.2491879"><ele>717.5999999999999</ele><time>2026-03-29T08:27:41.443Z</time></trkpt><trkpt lat="43.2344651" lon="12.2491995"><ele>716.8</ele><time>2026-03-29T08:27:42.443Z</time></trkpt><trkpt lat="43.2345267" lon="12.2492227"><ele>716.0</ele><time>2026-03-29T08:27:43.442Z</time></trkpt><trkpt lat="43.2345953" lon="12.2492451"><ele>716.0</ele><time>2026-03-29T08:27:44.443Z</time></trkpt><trkpt lat="43.2346595" lon="12.2492547"><ele>716.0</ele><time>2026-03-29T08:27:45.442Z</time></trkpt><trkpt lat="43.2347663" lon="12.2491975"><ele>716.0</ele><time>2026-03-29T08:27:47.442Z</time></trkpt><trkpt lat="43.2348149" lon="12.2490833"><ele>716.0</ele><time>2026-03-29T08:27:49.443Z</time></trkpt><trkpt lat="43.2348339" lon="12.2489967"><ele>716.0</ele><time>2026-03-29T08:27:50.443Z</time></trkpt><trkpt lat="43.2348931" lon="12.2487364"><ele>717.5999999999999</ele><time>2026-03-29T08:27:51.443Z</time></trkpt><trkpt lat="43.234923" lon="12.248632"><ele>719.2</ele><time>2026-03-29T08:27:52.442Z</time></trkpt><trkpt lat="43.2349805" lon="12.2485131"><ele>720.8</ele><time>2026-03-29T08:27:53.442Z</time></trkpt><trkpt lat="43.2350129" lon="12.248387"><ele>722.4000000000001</ele><time>2026-03-29T08:27:54.442Z</time></trkpt><trkpt lat="43.2350798" lon="12.2483284"><ele>724.0</ele><time>2026-03-29T08:27:55.443Z</time></trkpt><trkpt lat="43.2351683" lon="12.2482675"><ele>724.0</ele><time>2026-03-29T08:27:56.442Z</time></trkpt><trkpt lat="43.2352818" lon="12.2481897"><ele>724.0</ele><time>2026-03-29T08:27:57.442Z</time></trkpt><trkpt lat="43.2353589" lon="12.2481211"><ele>724.0</ele><time>2026-03-29T08:27:58.442Z</time></trkpt><trkpt lat="43.2354011" lon="12.2480177"><ele>724.0</ele><time>2026-03-29T08:27:59.442Z</time></trkpt><trkpt lat="43.2353413" lon="12.2478444"><ele>724.0</ele><time>2026-03-29T08:28:00.442Z</time></trkpt><trkpt lat="43.235386" lon="12.2477579"><ele>723.0</ele><time>2026-03-29T08:28:01.442Z</time></trkpt><trkpt lat="43.2354997" lon="12.2476689"><ele>722.0</ele><time>2026-03-29T08:28:03.442Z</time></trkpt><trkpt lat="43.2356031" lon="12.24761"><ele>721.0</ele><time>2026-03-29T08:28:04.442Z</time></trkpt><trkpt lat="43.2357009" lon="12.2475565"><ele>720.0</ele><time>2026-03-29T08:28:05.443Z</time></trkpt><trkpt lat="43.2358" lon="12.2474946"><ele>720.0</ele><time>2026-03-29T08:28:06.442Z</time></trkpt><trkpt lat="43.2358822" lon="12.2474124"><ele>720.0</ele><time>2026-03-29T08:28:07.442Z</time></trkpt><trkpt lat="43.2359817" lon="12.2473533"><ele>720.0</ele><time>2026-03-29T08:28:08.443Z</time></trkpt><trkpt lat="43.2361001" lon="12.2473004"><ele>720.0</ele><time>2026-03-29T08:28:09.442Z</time></trkpt><trkpt lat="43.2361439" lon="12.2471656"><ele>720.0</ele><time>2026-03-29T08:28:10.443Z</time></trkpt><trkpt lat="43.2362066" lon="12.2470557"><ele>721.6666666666666</ele><time>2026-03-29T08:28:11.442Z</time></trkpt><trkpt lat="43.2361946" lon="12.2469351"><ele>723.3333333333334</ele><time>2026-03-29T08:28:12.442Z</time></trkpt><trkpt lat="43.2362605" lon="12.2468983"><ele>725.0</ele><time>2026-03-29T08:28:13.442Z</time></trkpt><trkpt lat="43.2363329" lon="12.2467935"><ele>726.6666666666667</ele><time>2026-03-29T08:28:15.442Z</time></trkpt><trkpt lat="43.2363644" lon="12.2467118"><ele>728.3333333333334</ele><time>2026-03-29T08:28:16.442Z</time></trkpt><trkpt lat="43.2363884" lon="12.2466204"><ele>730.0</ele><time>2026-03-29T08:28:17.442Z</time></trkpt><trkpt lat="43.2364141" lon="12.2465114"><ele>729.0</ele><time>2026-03-29T08:28:18.442Z</time></trkpt><trkpt lat="43.2364457" lon="12.2463898"><ele>728.0</ele><time>2026-03-29T08:28:19.442Z</time></trkpt><trkpt lat="43.2364811" lon="12.246258"><ele>727.0</ele><time>2026-03-29T08:28:20.442Z</time></trkpt><trkpt lat="43.2365153" lon="12.2461041"><ele>726.0</ele><time>2026-03-29T08:28:21.443Z</time></trkpt><trkpt lat="43.2365396" lon="12.2459676"><ele>725.0</ele><time>2026-03-29T08:28:22.442Z</time></trkpt><trkpt lat="43.2365608" lon="12.2458518"><ele>725.2</ele><time>2026-03-29T08:28:23.442Z</time></trkpt><trkpt lat="43.2365787" lon="12.245763"><ele>725.4</ele><time>2026-03-29T08:28:24.442Z</time></trkpt><trkpt lat="43.2366069" lon="12.2456306"><ele>725.5999999999999</ele><time>2026-03-29T08:28:26.442Z</time></trkpt><trkpt lat="43.2366173" lon="12.2454873"><ele>725.8</ele><time>2026-03-29T08:28:28.443Z</time></trkpt><trkpt lat="43.236711" lon="12.2453654"><ele>726.0</ele><time>2026-03-29T08:28:30.443Z</time></trkpt><trkpt lat="43.2367889" lon="12.245298"><ele>726.0</ele><time>2026-03-29T08:28:31.442Z</time></trkpt><trkpt lat="43.2368706" lon="12.2452274"><ele>726.0</ele><time>2026-03-29T08:28:32.442Z</time></trkpt><trkpt lat="43.2369629" lon="12.2451423"><ele>726.0</ele><time>2026-03-29T08:28:33.442Z</time></trkpt><trkpt lat="43.2370657" lon="12.2450547"><ele>726.0</ele><time>2026-03-29T08:28:34.442Z</time></trkpt><trkpt lat="43.2371761" lon="12.2449715"><ele>726.0</ele><time>2026-03-29T08:28:35.443Z</time></trkpt><trkpt lat="43.237294" lon="12.2448842"><ele>726.0</ele><time>2026-03-29T08:28:36.442Z</time></trkpt><trkpt lat="43.2374137" lon="12.2447881"><ele>726.0</ele><time>2026-03-29T08:28:37.443Z</time></trkpt><trkpt lat="43.2375415" lon="12.2446851"><ele>726.0</ele><time>2026-03-29T08:28:38.442Z</time></trkpt><trkpt lat="43.2376686" lon="12.2445915"><ele>723.8</ele><time>2026-03-29T08:28:39.442Z</time></trkpt><trkpt lat="43.2377872" lon="12.2445073"><ele>721.5999999999999</ele><time>2026-03-29T08:28:40.443Z</time></trkpt><trkpt lat="43.2378584" lon="12.2444334"><ele>719.4</ele><time>2026-03-29T08:28:41.443Z</time></trkpt><trkpt lat="43.23793" lon="12.2443729"><ele>717.2</ele><time>2026-03-29T08:28:42.442Z</time></trkpt><trkpt lat="43.2379977" lon="12.2443158"><ele>715.0</ele><time>2026-03-29T08:28:43.442Z</time></trkpt><trkpt lat="43.23807" lon="12.2442671"><ele>715.0</ele><time>2026-03-29T08:28:44.443Z</time></trkpt><trkpt lat="43.2381348" lon="12.2442177"><ele>715.0</ele><time>2026-03-29T08:28:45.443Z</time></trkpt><trkpt lat="43.2382062" lon="12.2441728"><ele>715.0</ele><time>2026-03-29T08:28:46.443Z</time></trkpt><trkpt lat="43.2382839" lon="12.2441285"><ele>715.0</ele><time>2026-03-29T08:28:47.443Z</time></trkpt><trkpt lat="43.2383656" lon="12.2441014"><ele>715.0</ele><time>2026-03-29T08:28:48.443Z</time></trkpt><trkpt lat="43.2384534" lon="12.2440794"><ele>715.0</ele><time>2026-03-29T08:28:49.442Z</time></trkpt><trkpt lat="43.2385383" lon="12.244061"><ele>715.2</ele><time>2026-03-29T08:28:50.442Z</time></trkpt><trkpt lat="43.2386262" lon="12.2440366"><ele>715.4</ele><time>2026-03-29T08:28:51.442Z</time></trkpt><trkpt lat="43.238716" lon="12.2440008"><ele>715.5999999999999</ele><time>2026-03-29T08:28:52.442Z</time></trkpt><trkpt lat="43.2388037" lon="12.243955"><ele>715.8</ele><time>2026-03-29T08:28:53.443Z</time></trkpt><trkpt lat="43.2388881" lon="12.2438858"><ele>716.0</ele><time>2026-03-29T08:28:54.442Z</time></trkpt><trkpt lat="43.2389644" lon="12.2437997"><ele>714.4</ele><time>2026-03-29T08:28:55.443Z</time></trkpt><trkpt lat="43.2390428" lon="12.2437109"><ele>712.8</ele><time>2026-03-29T08:28:56.443Z</time></trkpt><trkpt lat="43.2391178" lon="12.2436193"><ele>711.1999999999999</ele><time>2026-03-29T08:28:57.442Z</time></trkpt><trkpt lat="43.2391942" lon="12.2435264"><ele>709.5999999999999</ele><time>2026-03-29T08:28:58.442Z</time></trkpt><trkpt lat="43.2392682" lon="12.2434323"><ele>708.0</ele><time>2026-03-29T08:28:59.442Z</time></trkpt><trkpt lat="43.2393451" lon="12.2433398"><ele>708.0</ele><time>2026-03-29T08:29:00.442Z</time></trkpt><trkpt lat="43.2394289" lon="12.243254"><ele>708.0</ele><time>2026-03-29T08:29:01.443Z</time></trkpt><trkpt lat="43.2395157" lon="12.2431671"><ele>708.0</ele><time>2026-03-29T08:29:02.443Z</time></trkpt><trkpt lat="43.2396025" lon="12.2430815"><ele>708.0</ele><time>2026-03-29T08:29:03.443Z</time></trkpt><trkpt lat="43.2396919" lon="12.2429955"><ele>708.0</ele><time>2026-03-29T08:29:04.444Z</time></trkpt><trkpt lat="43.2397816" lon="12.2429098"><ele>705.8</ele><time>2026-03-29T08:29:05.442Z</time></trkpt><trkpt lat="43.2398739" lon="12.2428202"><ele>703.5999999999999</ele><time>2026-03-29T08:29:06.443Z</time></trkpt><trkpt lat="43.2399663" lon="12.2427269"><ele>701.4000000000001</ele><time>2026-03-29T08:29:07.443Z</time></trkpt><trkpt lat="43.2400538" lon="12.2426404"><ele>699.2</ele><time>2026-03-29T08:29:08.443Z</time></trkpt><trkpt lat="43.2401365" lon="12.2425565"><ele>697.0</ele><time>2026-03-29T08:29:09.442Z</time></trkpt><trkpt lat="43.2402167" lon="12.2424808"><ele>697.0</ele><time>2026-03-29T08:29:10.443Z</time></trkpt><trkpt lat="43.2402941" lon="12.2424208"><ele>697.0</ele><time>2026-03-29T08:29:11.442Z</time></trkpt><trkpt lat="43.240369" lon="12.2423649"><ele>697.0</ele><time>2026-03-29T08:29:12.442Z</time></trkpt><trkpt lat="43.24044" lon="12.2423186"><ele>697.0</ele><time>2026-03-29T08:29:13.442Z</time></trkpt><trkpt lat="43.2405029" lon="12.2422589"><ele>697.0</ele><time>2026-03-29T08:29:14.443Z</time></trkpt><trkpt lat="43.2405523" lon="12.2422018"><ele>697.0</ele><time>2026-03-29T08:29:15.443Z</time></trkpt><trkpt lat="43.2406081" lon="12.2421415"><ele>697.6666666666667</ele><time>2026-03-29T08:29:16.441Z</time></trkpt><trkpt lat="43.2406636" lon="12.2420743"><ele>698.3333333333334</ele><time>2026-03-29T08:29:17.443Z</time></trkpt><trkpt lat="43.2407239" lon="12.2420005"><ele>699.0</ele><time>2026-03-29T08:29:18.442Z</time></trkpt><trkpt lat="43.2407961" lon="12.2419247"><ele>699.6666666666666</ele><time>2026-03-29T08:29:19.442Z</time></trkpt><trkpt lat="43.2408711" lon="12.2418357"><ele>700.3333333333333</ele><time>2026-03-29T08:29:20.442Z</time></trkpt><trkpt lat="43.2409531" lon="12.2417602"><ele>701.0</ele><time>2026-03-29T08:29:21.442Z</time></trkpt><trkpt lat="43.2410366" lon="12.2416841"><ele>701.0</ele><time>2026-03-29T08:29:22.443Z</time></trkpt><trkpt lat="43.2411328" lon="12.2416197"><ele>701.0</ele><time>2026-03-29T08:29:23.443Z</time></trkpt><trkpt lat="43.2412469" lon="12.2415873"><ele>701.0</ele><time>2026-03-29T08:29:24.443Z</time></trkpt><trkpt lat="43.2413549" lon="12.2415201"><ele>701.0</ele><time>2026-03-29T08:29:25.442Z</time></trkpt><trkpt lat="43.2414575" lon="12.2414545"><ele>702.75</ele><time>2026-03-29T08:29:26.442Z</time></trkpt><trkpt lat="43.2415624" lon="12.2413787"><ele>704.5</ele><time>2026-03-29T08:29:27.443Z</time></trkpt><trkpt lat="43.2416669" lon="12.2413074"><ele>706.25</ele><time>2026-03-29T08:29:28.443Z</time></trkpt><trkpt lat="43.2417795" lon="12.2412214"><ele>708.0</ele><time>2026-03-29T08:29:29.442Z</time></trkpt><trkpt lat="43.2418765" lon="12.2411834"><ele>708.0</ele><time>2026-03-29T08:29:30.442Z</time></trkpt><trkpt lat="43.2419694" lon="12.2411447"><ele>708.0</ele><time>2026-03-29T08:29:31.443Z</time></trkpt><trkpt lat="43.242062" lon="12.2411148"><ele>708.0</ele><time>2026-03-29T08:29:32.442Z</time></trkpt><trkpt lat="43.242155" lon="12.2411099"><ele>708.0</ele><time>2026-03-29T08:29:33.442Z</time></trkpt><trkpt lat="43.2422432" lon="12.241112"><ele>708.0</ele><time>2026-03-29T08:29:34.442Z</time></trkpt><trkpt lat="43.2423416" lon="12.2411167"><ele>708.5</ele><time>2026-03-29T08:29:35.443Z</time></trkpt><trkpt lat="43.2424422" lon="12.2411339"><ele>709.0</ele><time>2026-03-29T08:29:36.442Z</time></trkpt><trkpt lat="43.2425856" lon="12.2412266"><ele>709.5</ele><time>2026-03-29T08:29:37.442Z</time></trkpt><trkpt lat="43.2427174" lon="12.2412668"><ele>710.0</ele><time>2026-03-29T08:29:38.442Z</time></trkpt><trkpt lat="43.2428254" lon="12.2412602"><ele>710.0</ele><time>2026-03-29T08:29:39.442Z</time></trkpt><trkpt lat="43.242917" lon="12.2412766"><ele>710.0</ele><time>2026-03-29T08:29:40.442Z</time></trkpt><trkpt lat="43.2430203" lon="12.2412891"><ele>710.0</ele><time>2026-03-29T08:29:41.442Z</time></trkpt><trkpt lat="43.2431715" lon="12.2413013"><ele>710.0</ele><time>2026-03-29T08:29:42.443Z</time></trkpt><trkpt lat="43.2433102" lon="12.2413478"><ele>708.75</ele><time>2026-03-29T08:29:43.443Z</time></trkpt><trkpt lat="43.243448" lon="12.2414133"><ele>707.5</ele><time>2026-03-29T08:29:44.443Z</time></trkpt><trkpt lat="43.2435535" lon="12.2414834"><ele>706.25</ele><time>2026-03-29T08:29:45.442Z</time></trkpt><trkpt lat="43.2436655" lon="12.2415475"><ele>705.0</ele><time>2026-03-29T08:29:46.442Z</time></trkpt><trkpt lat="43.2437929" lon="12.2416496"><ele>706.5</ele><time>2026-03-29T08:29:47.442Z</time></trkpt><trkpt lat="43.243921" lon="12.2417626"><ele>708.0</ele><time>2026-03-29T08:29:48.442Z</time></trkpt><trkpt lat="43.2440062" lon="12.2418641"><ele>709.5</ele><time>2026-03-29T08:29:49.443Z</time></trkpt><trkpt lat="43.2441079" lon="12.2419603"><ele>711.0</ele><time>2026-03-29T08:29:50.442Z</time></trkpt><trkpt lat="43.2442069" lon="12.2420822"><ele>711.0</ele><time>2026-03-29T08:29:51.442Z</time></trkpt><trkpt lat="43.2443214" lon="12.242154"><ele>711.0</ele><time>2026-03-29T08:29:52.442Z</time></trkpt><trkpt lat="43.2444314" lon="12.2422269"><ele>711.0</ele><time>2026-03-29T08:29:53.442Z</time></trkpt><trkpt lat="43.2445423" lon="12.2423021"><ele>711.0</ele><time>2026-03-29T08:29:54.442Z</time></trkpt><trkpt lat="43.2446652" lon="12.242365"><ele>712.75</ele><time>2026-03-29T08:29:55.443Z</time></trkpt><trkpt lat="43.2447938" lon="12.2424242"><ele>714.5</ele><time>2026-03-29T08:29:56.443Z</time></trkpt><trkpt lat="43.2449258" lon="12.2424421"><ele>716.25</ele><time>2026-03-29T08:29:57.443Z</time></trkpt><trkpt lat="43.2450371" lon="12.2424987"><ele>718.0</ele><time>2026-03-29T08:29:58.442Z</time></trkpt><trkpt lat="43.2451616" lon="12.2425477"><ele>718.0</ele><time>2026-03-29T08:29:59.443Z</time></trkpt><trkpt lat="43.2452741" lon="12.2426189"><ele>718.0</ele><time>2026-03-29T08:30:00.443Z</time></trkpt><trkpt lat="43.245369" lon="12.2427125"><ele>718.0</ele><time>2026-03-29T08:30:01.443Z</time></trkpt><trkpt lat="43.2454935" lon="12.2428029"><ele>718.0</ele><time>2026-03-29T08:30:02.443Z</time></trkpt><trkpt lat="43.2456124" lon="12.242892"><ele>718.25</ele><time>2026-03-29T08:30:03.442Z</time></trkpt><trkpt lat="43.2457026" lon="12.2429783"><ele>718.5</ele><time>2026-03-29T08:30:04.443Z</time></trkpt><trkpt lat="43.2458169" lon="12.2430734"><ele>718.75</ele><time>2026-03-29T08:30:05.443Z</time></trkpt><trkpt lat="43.245917" lon="12.2431503"><ele>719.0</ele><time>2026-03-29T08:30:06.442Z</time></trkpt><trkpt lat="43.2460234" lon="12.2432151"><ele>720.0</ele><time>2026-03-29T08:30:07.443Z</time></trkpt><trkpt lat="43.2461483" lon="12.2432595"><ele>721.0</ele><time>2026-03-29T08:30:08.442Z</time></trkpt><trkpt lat="43.2462826" lon="12.2432998"><ele>722.0</ele><time>2026-03-29T08:30:09.442Z</time></trkpt><trkpt lat="43.2464007" lon="12.2433435"><ele>723.0</ele><time>2026-03-29T08:30:10.442Z</time></trkpt><trkpt lat="43.2465216" lon="12.2433763"><ele>724.0</ele><time>2026-03-29T08:30:11.442Z</time></trkpt><trkpt lat="43.2466245" lon="12.243403"><ele>725.0</ele><time>2026-03-29T08:30:12.442Z</time></trkpt><trkpt lat="43.2467279" lon="12.2434358"><ele>726.0</ele><time>2026-03-29T08:30:13.442Z</time></trkpt><trkpt lat="43.2468227" lon="12.2434576"><ele>727.0</ele><time>2026-03-29T08:30:14.442Z</time></trkpt><trkpt lat="43.246919" lon="12.243472"><ele>728.0</ele><time>2026-03-29T08:30:15.443Z</time></trkpt><trkpt lat="43.246998" lon="12.2435103"><ele>728.0</ele><time>2026-03-29T08:30:16.443Z</time></trkpt><trkpt lat="43.2470669" lon="12.2435378"><ele>728.0</ele><time>2026-03-29T08:30:17.442Z</time></trkpt><trkpt lat="43.2471507" lon="12.243549"><ele>728.0</ele><time>2026-03-29T08:30:18.442Z</time></trkpt><trkpt lat="43.2472363" lon="12.2435602"><ele>728.0</ele><time>2026-03-29T08:30:19.443Z</time></trkpt><trkpt lat="43.2473214" lon="12.2435773"><ele>728.0</ele><time>2026-03-29T08:30:20.443Z</time></trkpt><trkpt lat="43.2474004" lon="12.2436054"><ele>728.0</ele><time>2026-03-29T08:30:21.443Z</time></trkpt><trkpt lat="43.2474479" lon="12.2436757"><ele>728.2</ele><time>2026-03-29T08:30:22.442Z</time></trkpt><trkpt lat="43.2475333" lon="12.243799"><ele>728.4</ele><time>2026-03-29T08:30:23.443Z</time></trkpt><trkpt lat="43.2475926" lon="12.2438809"><ele>728.6</ele><time>2026-03-29T08:30:24.442Z</time></trkpt><trkpt lat="43.2476525" lon="12.2439512"><ele>728.8000000000001</ele><time>2026-03-29T08:30:25.443Z</time></trkpt><trkpt lat="43.2477123" lon="12.2440104"><ele>729.0</ele><time>2026-03-29T08:30:26.442Z</time></trkpt><trkpt lat="43.2478165" lon="12.2440533"><ele>729.0</ele><time>2026-03-29T08:30:28.442Z</time></trkpt><trkpt lat="43.2479283" lon="12.2440436"><ele>729.0</ele><time>2026-03-29T08:30:30.442Z</time></trkpt><trkpt lat="43.2480029" lon="12.2439934"><ele>729.0</ele><time>2026-03-29T08:30:32.442Z</time></trkpt><trkpt lat="43.2480216" lon="12.2437516"><ele>729.0</ele><time>2026-03-29T08:30:34.443Z</time></trkpt><trkpt lat="43.2480417" lon="12.2436172"><ele>729.6666666666666</ele><time>2026-03-29T08:30:35.442Z</time></trkpt><trkpt lat="43.2480706" lon="12.2435194"><ele>730.3333333333334</ele><time>2026-03-29T08:30:36.442Z</time></trkpt><trkpt lat="43.2481046" lon="12.2434266"><ele>731.0</ele><time>2026-03-29T08:30:37.442Z</time></trkpt><trkpt lat="43.2481692" lon="12.2433557"><ele>731.6666666666667</ele><time>2026-03-29T08:30:38.442Z</time></trkpt><trkpt lat="43.2482271" lon="12.2432791"><ele>732.3333333333334</ele><time>2026-03-29T08:30:39.443Z</time></trkpt><trkpt lat="43.2483055" lon="12.2432152"><ele>733.0</ele><time>2026-03-29T08:30:40.443Z</time></trkpt><trkpt lat="43.2483667" lon="12.2431188"><ele>734.4</ele><time>2026-03-29T08:30:41.442Z</time></trkpt><trkpt lat="43.2484441" lon="12.2430357"><ele>735.8</ele><time>2026-03-29T08:30:42.442Z</time></trkpt><trkpt lat="43.2485278" lon="12.2429996"><ele>737.2</ele><time>2026-03-29T08:30:43.442Z</time></trkpt><trkpt lat="43.248606" lon="12.243014"><ele>738.6</ele><time>2026-03-29T08:30:44.442Z</time></trkpt><trkpt lat="43.2487091" lon="12.243081"><ele>740.0</ele><time>2026-03-29T08:30:46.443Z</time></trkpt><trkpt lat="43.2487852" lon="12.2431368"><ele>741.6</ele><time>2026-03-29T08:30:47.443Z</time></trkpt><trkpt lat="43.2488378" lon="12.2432111"><ele>743.2</ele><time>2026-03-29T08:30:48.443Z</time></trkpt><trkpt lat="43.2489086" lon="12.2432921"><ele>744.8</ele><time>2026-03-29T08:30:49.442Z</time></trkpt><trkpt lat="43.2489797" lon="12.2433576"><ele>746.4</ele><time>2026-03-29T08:30:50.442Z</time></trkpt><trkpt lat="43.2491252" lon="12.2433936"><ele>748.0</ele><time>2026-03-29T08:30:52.443Z</time></trkpt><trkpt lat="43.2492145" lon="12.2434259"><ele>750.2</ele><time>2026-03-29T08:30:53.442Z</time></trkpt><trkpt lat="43.2493212" lon="12.2433902"><ele>752.4</ele><time>2026-03-29T08:30:54.443Z</time></trkpt><trkpt lat="43.2494223" lon="12.2433952"><ele>754.6</ele><time>2026-03-29T08:30:55.442Z</time></trkpt><trkpt lat="43.2495175" lon="12.2433991"><ele>756.8000000000001</ele><time>2026-03-29T08:30:56.442Z</time></trkpt><trkpt lat="43.2496408" lon="12.2434196"><ele>759.0</ele><time>2026-03-29T08:30:57.442Z</time></trkpt><trkpt lat="43.2497667" lon="12.2434364"><ele>759.5</ele><time>2026-03-29T08:30:58.443Z</time></trkpt><trkpt lat="43.2499141" lon="12.2434377"><ele>760.0</ele><time>2026-03-29T08:30:59.442Z</time></trkpt><trkpt lat="43.2500461" lon="12.2434467"><ele>760.5</ele><time>2026-03-29T08:31:00.443Z</time></trkpt><trkpt lat="43.2501656" lon="12.2434589"><ele>761.0</ele><time>2026-03-29T08:31:01.442Z</time></trkpt><trkpt lat="43.2502948" lon="12.2434977"><ele>761.0</ele><time>2026-03-29T08:31:02.443Z</time></trkpt><trkpt lat="43.250378" lon="12.2434948"><ele>761.0</ele><time>2026-03-29T08:31:03.443Z</time></trkpt><trkpt lat="43.2504962" lon="12.2434794"><ele>761.0</ele><time>2026-03-29T08:31:04.442Z</time></trkpt><trkpt lat="43.2506237" lon="12.2434675"><ele>761.0</ele><time>2026-03-29T08:31:05.443Z</time></trkpt><trkpt lat="43.2507585" lon="12.2434518"><ele>762.0</ele><time>2026-03-29T08:31:06.442Z</time></trkpt><trkpt lat="43.2509274" lon="12.2434577"><ele>763.0</ele><time>2026-03-29T08:31:07.443Z</time></trkpt><trkpt lat="43.2510809" lon="12.2434719"><ele>764.0</ele><time>2026-03-29T08:31:08.442Z</time></trkpt><trkpt lat="43.2512561" lon="12.2434795"><ele>764.0</ele><time>2026-03-29T08:31:09.442Z</time></trkpt><trkpt lat="43.251421" lon="12.2434578"><ele>764.0</ele><time>2026-03-29T08:31:10.442Z</time></trkpt><trkpt lat="43.251578" lon="12.2434584"><ele>764.0</ele><time>2026-03-29T08:31:11.442Z</time></trkpt><trkpt lat="43.2517118" lon="12.2434733"><ele>764.0</ele><time>2026-03-29T08:31:12.443Z</time></trkpt><trkpt lat="43.2518406" lon="12.2434296"><ele>764.0</ele><time>2026-03-29T08:31:13.442Z</time></trkpt><trkpt lat="43.251999" lon="12.2434446"><ele>764.0</ele><time>2026-03-29T08:31:14.442Z</time></trkpt><trkpt lat="43.2521407" lon="12.243437"><ele>764.0</ele><time>2026-03-29T08:31:15.442Z</time></trkpt><trkpt lat="43.2523215" lon="12.2434493"><ele>764.0</ele><time>2026-03-29T08:31:16.443Z</time></trkpt><trkpt lat="43.2524544" lon="12.2435429"><ele>764.0</ele><time>2026-03-29T08:31:17.442Z</time></trkpt><trkpt lat="43.2525811" lon="12.2435746"><ele>764.0</ele><time>2026-03-29T08:31:18.443Z</time></trkpt><trkpt lat="43.2527098" lon="12.2436215"><ele>764.0</ele><time>2026-03-29T08:31:19.443Z</time></trkpt><trkpt lat="43.2528145" lon="12.2436564"><ele>764.0</ele><time>2026-03-29T08:31:20.443Z</time></trkpt><trkpt lat="43.2529178" lon="12.2436231"><ele>764.0</ele><time>2026-03-29T08:31:21.443Z</time></trkpt><trkpt lat="43.2530327" lon="12.2436313"><ele>764.0</ele><time>2026-03-29T08:31:22.443Z</time></trkpt><trkpt lat="43.2531639" lon="12.2436565"><ele>764.0</ele><time>2026-03-29T08:31:23.443Z</time></trkpt><trkpt lat="43.2532747" lon="12.2436922"><ele>761.75</ele><time>2026-03-29T08:31:24.443Z</time></trkpt><trkpt lat="43.2534038" lon="12.243746"><ele>759.5</ele><time>2026-03-29T08:31:25.443Z</time></trkpt><trkpt lat="43.2535086" lon="12.2438078"><ele>757.25</ele><time>2026-03-29T08:31:26.442Z</time></trkpt><trkpt lat="43.2536122" lon="12.2438783"><ele>755.0</ele><time>2026-03-29T08:31:27.443Z</time></trkpt><trkpt lat="43.2536858" lon="12.2439628"><ele>754.8</ele><time>2026-03-29T08:31:28.442Z</time></trkpt><trkpt lat="43.253798" lon="12.2440378"><ele>754.6</ele><time>2026-03-29T08:31:29.442Z</time></trkpt><trkpt lat="43.2539164" lon="12.2440294"><ele>754.4000000000001</ele><time>2026-03-29T08:31:30.442Z</time></trkpt><trkpt lat="43.2540198" lon="12.2440619"><ele>754.2</ele><time>2026-03-29T08:31:31.442Z</time></trkpt><trkpt lat="43.2540957" lon="12.2440997"><ele>754.0</ele><time>2026-03-29T08:31:32.443Z</time></trkpt><trkpt lat="43.2541719" lon="12.2442268"><ele>754.0</ele><time>2026-03-29T08:31:34.442Z</time></trkpt><trkpt lat="43.2542326" lon="12.2443203"><ele>754.0</ele><time>2026-03-29T08:31:35.443Z</time></trkpt><trkpt lat="43.2542892" lon="12.2444138"><ele>754.0</ele><time>2026-03-29T08:31:36.443Z</time></trkpt><trkpt lat="43.254352" lon="12.2445148"><ele>754.0</ele><time>2026-03-29T08:31:37.442Z</time></trkpt><trkpt lat="43.2544161" lon="12.2446187"><ele>754.0</ele><time>2026-03-29T08:31:38.442Z</time></trkpt><trkpt lat="43.2544676" lon="12.2446927"><ele>754.0</ele><time>2026-03-29T08:31:39.442Z</time></trkpt><trkpt lat="43.2545433" lon="12.2447324"><ele>754.0</ele><time>2026-03-29T08:31:40.443Z</time></trkpt><trkpt lat="43.2546063" lon="12.2447678"><ele>754.0</ele><time>2026-03-29T08:31:41.443Z</time></trkpt><trkpt lat="43.2546731" lon="12.2447425"><ele>754.0</ele><time>2026-03-29T08:31:42.442Z</time></trkpt><trkpt lat="43.2548003" lon="12.2447055"><ele>754.0</ele><time>2026-03-29T08:31:43.443Z</time></trkpt><trkpt lat="43.2548766" lon="12.2447229"><ele>754.0</ele><time>2026-03-29T08:31:44.443Z</time></trkpt><trkpt lat="43.2549706" lon="12.2447309"><ele>754.75</ele><time>2026-03-29T08:31:45.443Z</time></trkpt><trkpt lat="43.2551528" lon="12.2447055"><ele>755.5</ele><time>2026-03-29T08:31:47.442Z</time></trkpt><trkpt lat="43.2552851" lon="12.2447284"><ele>756.25</ele><time>2026-03-29T08:31:49.443Z</time></trkpt><trkpt lat="43.2553614" lon="12.2447381"><ele>757.0</ele><time>2026-03-29T08:31:50.443Z</time></trkpt><trkpt lat="43.2554649" lon="12.2448184"><ele>757.0</ele><time>2026-03-29T08:31:52.443Z</time></trkpt><trkpt lat="43.2555274" lon="12.2448307"><ele>757.0</ele><time>2026-03-29T08:31:53.442Z</time></trkpt><trkpt lat="43.2555978" lon="12.2448023"><ele>757.0</ele><time>2026-03-29T08:31:54.443Z</time></trkpt><trkpt lat="43.2556445" lon="12.2447437"><ele>757.0</ele><time>2026-03-29T08:31:55.443Z</time></trkpt><trkpt lat="43.2557801" lon="12.2447052"><ele>757.0</ele><time>2026-03-29T08:31:57.443Z</time></trkpt><trkpt lat="43.2558381" lon="12.2447433"><ele>757.0</ele><time>2026-03-29T08:31:58.442Z</time></trkpt><trkpt lat="43.2559018" lon="12.24476"><ele>755.2</ele><time>2026-03-29T08:31:59.443Z</time></trkpt><trkpt lat="43.2559491" lon="12.2448717"><ele>753.4000000000001</ele><time>2026-03-29T08:32:01.443Z</time></trkpt><trkpt lat="43.256061" lon="12.2449908"><ele>751.5999999999999</ele><time>2026-03-29T08:32:03.442Z</time></trkpt><trkpt lat="43.2561626" lon="12.2451053"><ele>749.8</ele><time>2026-03-29T08:32:04.443Z</time></trkpt><trkpt lat="43.2562211" lon="12.2451731"><ele>748.0</ele><time>2026-03-29T08:32:05.442Z</time></trkpt><trkpt lat="43.2562303" lon="12.2453277"><ele>748.0</ele><time>2026-03-29T08:32:06.443Z</time></trkpt><trkpt lat="43.2562881" lon="12.2453729"><ele>748.0</ele><time>2026-03-29T08:32:07.443Z</time></trkpt><trkpt lat="43.2563334" lon="12.2454415"><ele>748.0</ele><time>2026-03-29T08:32:09.443Z</time></trkpt><trkpt lat="43.2564061" lon="12.2453601"><ele>748.0</ele><time>2026-03-29T08:32:11.443Z</time></trkpt><trkpt lat="43.2564723" lon="12.2452943"><ele>748.0</ele><time>2026-03-29T08:32:12.443Z</time></trkpt><trkpt lat="43.2565194" lon="12.2451846"><ele>748.0</ele><time>2026-03-29T08:32:13.443Z</time></trkpt><trkpt lat="43.2565642" lon="12.2450962"><ele>745.4</ele><time>2026-03-29T08:32:14.443Z</time></trkpt><trkpt lat="43.2566253" lon="12.2450422"><ele>742.8</ele><time>2026-03-29T08:32:15.442Z</time></trkpt><trkpt lat="43.2567243" lon="12.2449776"><ele>740.2</ele><time>2026-03-29T08:32:17.442Z</time></trkpt><trkpt lat="43.2567871" lon="12.2449499"><ele>737.6</ele><time>2026-03-29T08:32:18.442Z</time></trkpt><trkpt lat="43.2569299" lon="12.2448781"><ele>735.0</ele><time>2026-03-29T08:32:20.443Z</time></trkpt><trkpt lat="43.256984" lon="12.244819"><ele>733.0</ele><time>2026-03-29T08:32:21.442Z</time></trkpt><trkpt lat="43.2570847" lon="12.2447072"><ele>731.0</ele><time>2026-03-29T08:32:22.443Z</time></trkpt><trkpt lat="43.2571502" lon="12.2446658"><ele>729.0</ele><time>2026-03-29T08:32:23.442Z</time></trkpt><trkpt lat="43.2572378" lon="12.2445774"><ele>727.0</ele><time>2026-03-29T08:32:24.442Z</time></trkpt><trkpt lat="43.2573051" lon="12.2444903"><ele>725.0</ele><time>2026-03-29T08:32:26.442Z</time></trkpt><trkpt lat="43.2573541" lon="12.2444344"><ele>721.8333333333333</ele><time>2026-03-29T08:32:27.443Z</time></trkpt><trkpt lat="43.2573994" lon="12.2443725"><ele>718.6666666666666</ele><time>2026-03-29T08:32:28.443Z</time></trkpt><trkpt lat="43.2574701" lon="12.2443766"><ele>715.5</ele><time>2026-03-29T08:32:29.443Z</time></trkpt><trkpt lat="43.2574843" lon="12.2442741"><ele>712.3333333333334</ele><time>2026-03-29T08:32:30.443Z</time></trkpt><trkpt lat="43.2575804" lon="12.2441624"><ele>709.1666666666667</ele><time>2026-03-29T08:32:32.442Z</time></trkpt><trkpt lat="43.2576411" lon="12.2440377"><ele>706.0</ele><time>2026-03-29T08:32:34.443Z</time></trkpt><trkpt lat="43.2577185" lon="12.2439014"><ele>705.0</ele><time>2026-03-29T08:32:36.443Z</time></trkpt><trkpt lat="43.2577808" lon="12.243813"><ele>704.0</ele><time>2026-03-29T08:32:37.443Z</time></trkpt><trkpt lat="43.2578613" lon="12.2437673"><ele>703.0</ele><time>2026-03-29T08:32:38.442Z</time></trkpt><trkpt lat="43.2579129" lon="12.2437067"><ele>702.0</ele><time>2026-03-29T08:32:39.442Z</time></trkpt><trkpt lat="43.2579963" lon="12.2436291"><ele>701.0</ele><time>2026-03-29T08:32:40.443Z</time></trkpt><trkpt lat="43.2580858" lon="12.2435683"><ele>700.0</ele><time>2026-03-29T08:32:43.442Z</time></trkpt><trkpt lat="43.258204" lon="12.2435004"><ele>697.2</ele><time>2026-03-29T08:32:45.443Z</time></trkpt><trkpt lat="43.2582883" lon="12.2435016"><ele>694.4</ele><time>2026-03-29T08:32:47.443Z</time></trkpt><trkpt lat="43.2583563" lon="12.2435265"><ele>691.5999999999999</ele><time>2026-03-29T08:32:48.443Z</time></trkpt><trkpt lat="43.2584625" lon="12.2435514"><ele>688.8</ele><time>2026-03-29T08:32:50.442Z</time></trkpt><trkpt lat="43.2585277" lon="12.2434855"><ele>686.0</ele><time>2026-03-29T08:32:52.442Z</time></trkpt><trkpt lat="43.2584617" lon="12.2432978"><ele>686.0</ele><time>2026-03-29T08:32:53.442Z</time></trkpt><trkpt lat="43.2584577" lon="12.2431624"><ele>686.0</ele><time>2026-03-29T08:32:55.443Z</time></trkpt><trkpt lat="43.2584419" lon="12.243073"><ele>686.0</ele><time>2026-03-29T08:32:56.442Z</time></trkpt><trkpt lat="43.2584303" lon="12.2429619"><ele>686.0</ele><time>2026-03-29T08:32:57.442Z</time></trkpt><trkpt lat="43.2584004" lon="12.2428463"><ele>686.0</ele><time>2026-03-29T08:32:59.442Z</time></trkpt><trkpt lat="43.258363" lon="12.2427404"><ele>686.0</ele><time>2026-03-29T08:33:01.443Z</time></trkpt><trkpt lat="43.2583716" lon="12.2426385"><ele>685.0</ele><time>2026-03-29T08:33:03.442Z</time></trkpt><trkpt lat="43.2584268" lon="12.2425485"><ele>684.0</ele><time>2026-03-29T08:33:06.442Z</time></trkpt><trkpt lat="43.2584637" lon="12.2423693"><ele>683.0</ele><time>2026-03-29T08:33:08.442Z</time></trkpt><trkpt lat="43.2584747" lon="12.2422835"><ele>682.0</ele><time>2026-03-29T08:33:09.442Z</time></trkpt><trkpt lat="43.2585062" lon="12.242205"><ele>681.0</ele><time>2026-03-29T08:33:10.444Z</time></trkpt><trkpt lat="43.2584932" lon="12.2420503"><ele>678.0</ele><time>2026-03-29T08:33:12.442Z</time></trkpt><trkpt lat="43.2585387" lon="12.2419014"><ele>675.0</ele><time>2026-03-29T08:33:14.442Z</time></trkpt><trkpt lat="43.2585268" lon="12.2417463"><ele>672.0</ele><time>2026-03-29T08:33:17.443Z</time></trkpt><trkpt lat="43.2585759" lon="12.2418463"><ele>669.0</ele><time>2026-03-29T08:33:27.443Z</time></trkpt><trkpt lat="43.2587031" lon="12.2418016"><ele>669.0</ele><time>2026-03-29T08:33:30.443Z</time></trkpt><trkpt lat="43.2588035" lon="12.2417673"><ele>669.0</ele><time>2026-03-29T08:33:32.444Z</time></trkpt><trkpt lat="43.258888" lon="12.2416872"><ele>669.0</ele><time>2026-03-29T08:33:34.443Z</time></trkpt><trkpt lat="43.2590112" lon="12.241697"><ele>669.0</ele><time>2026-03-29T08:33:36.443Z</time></trkpt><trkpt lat="43.259135" lon="12.2417192"><ele>669.0</ele><time>2026-03-29T08:33:38.444Z</time></trkpt><trkpt lat="43.2591982" lon="12.2417618"><ele>669.0</ele><time>2026-03-29T08:33:39.443Z</time></trkpt><trkpt lat="43.2592647" lon="12.2418593"><ele>669.0</ele><time>2026-03-29T08:33:41.444Z</time></trkpt><trkpt lat="43.2593411" lon="12.2419461"><ele>669.0</ele><time>2026-03-29T08:33:43.443Z</time></trkpt><trkpt lat="43.2593784" lon="12.2420254"><ele>669.0</ele><time>2026-03-29T08:33:45.444Z</time></trkpt><trkpt lat="43.2593763" lon="12.2421814"><ele>669.0</ele><time>2026-03-29T08:33:47.444Z</time></trkpt><trkpt lat="43.2593765" lon="12.2422998"><ele>669.0</ele><time>2026-03-29T08:33:49.443Z</time></trkpt><trkpt lat="43.2594049" lon="12.2423887"><ele>669.0</ele><time>2026-03-29T08:33:51.444Z</time></trkpt><trkpt lat="43.2594526" lon="12.2424565"><ele>669.0</ele><time>2026-03-29T08:33:53.444Z</time></trkpt><trkpt lat="43.2595017" lon="12.2425643"><ele>669.0</ele><time>2026-03-29T08:33:55.443Z</time></trkpt><trkpt lat="43.2595819" lon="12.2427132"><ele>669.0</ele><time>2026-03-29T08:33:57.443Z</time></trkpt><trkpt lat="43.2596734" lon="12.2427516"><ele>669.0</ele><time>2026-03-29T08:33:58.444Z</time></trkpt><trkpt lat="43.2597349" lon="12.2428179"><ele>669.0</ele><time>2026-03-29T08:33:59.443Z</time></trkpt><trkpt lat="43.2597695" lon="12.2429013"><ele>669.0</ele><time>2026-03-29T08:34:00.443Z</time></trkpt><trkpt lat="43.2598383" lon="12.2429182"><ele>669.0</ele><time>2026-03-29T08:34:01.444Z</time></trkpt><trkpt lat="43.2599054" lon="12.2429396"><ele>669.0</ele><time>2026-03-29T08:34:02.444Z</time></trkpt><trkpt lat="43.2599707" lon="12.2429765"><ele>669.0</ele><time>2026-03-29T08:34:03.443Z</time></trkpt><trkpt lat="43.2600334" lon="12.2430107"><ele>669.0</ele><time>2026-03-29T08:34:04.444Z</time></trkpt><trkpt lat="43.2600917" lon="12.2430471"><ele>666.0</ele><time>2026-03-29T08:34:05.443Z</time></trkpt><trkpt lat="43.2601491" lon="12.2430979"><ele>663.0</ele><time>2026-03-29T08:34:06.443Z</time></trkpt><trkpt lat="43.2602186" lon="12.2431433"><ele>660.0</ele><time>2026-03-29T08:34:07.443Z</time></trkpt><trkpt lat="43.2602715" lon="12.2432418"><ele>657.0</ele><time>2026-03-29T08:34:08.443Z</time></trkpt><trkpt lat="43.2603859" lon="12.2433409"><ele>654.0</ele><time>2026-03-29T08:34:10.444Z</time></trkpt><trkpt lat="43.2603956" lon="12.2434465"><ele>651.0</ele><time>2026-03-29T08:34:11.443Z</time></trkpt><trkpt lat="43.2604632" lon="12.243389"><ele>650.8333333333334</ele><time>2026-03-29T08:34:13.444Z</time></trkpt><trkpt lat="43.2605205" lon="12.2433475"><ele>650.6666666666666</ele><time>2026-03-29T08:34:14.444Z</time></trkpt><trkpt lat="43.260622" lon="12.2433456"><ele>650.5</ele><time>2026-03-29T08:34:16.443Z</time></trkpt><trkpt lat="43.2606833" lon="12.2433711"><ele>650.3333333333333</ele><time>2026-03-29T08:34:17.444Z</time></trkpt><trkpt lat="43.2607835" lon="12.2433329"><ele>650.1666666666666</ele><time>2026-03-29T08:34:19.443Z</time></trkpt><trkpt lat="43.2608761" lon="12.2433209"><ele>650.0</ele><time>2026-03-29T08:34:21.443Z</time></trkpt><trkpt lat="43.2609152" lon="12.2434209"><ele>648.5</ele><time>2026-03-29T08:34:23.444Z</time></trkpt><trkpt lat="43.2609673" lon="12.243487"><ele>647.0</ele><time>2026-03-29T08:34:24.443Z</time></trkpt><trkpt lat="43.2610254" lon="12.2435315"><ele>645.5</ele><time>2026-03-29T08:34:25.443Z</time></trkpt><trkpt lat="43.2610814" lon="12.2435788"><ele>644.0</ele><time>2026-03-29T08:34:26.443Z</time></trkpt><trkpt lat="43.2611407" lon="12.2436134"><ele>642.5</ele><time>2026-03-29T08:34:27.444Z</time></trkpt><trkpt lat="43.2612053" lon="12.2436603"><ele>641.0</ele><time>2026-03-29T08:34:28.444Z</time></trkpt><trkpt lat="43.2613692" lon="12.2436349"><ele>641.0</ele><time>2026-03-29T08:34:29.443Z</time></trkpt><trkpt lat="43.2614446" lon="12.2436005"><ele>641.0</ele><time>2026-03-29T08:34:30.444Z</time></trkpt><trkpt lat="43.2615214" lon="12.243573"><ele>641.0</ele><time>2026-03-29T08:34:31.443Z</time></trkpt><trkpt lat="43.2616359" lon="12.2435312"><ele>641.0</ele><time>2026-03-29T08:34:33.443Z</time></trkpt><trkpt lat="43.2617135" lon="12.2435281"><ele>641.0</ele><time>2026-03-29T08:34:34.443Z</time></trkpt><trkpt lat="43.2617838" lon="12.243531"><ele>641.0</ele><time>2026-03-29T08:34:35.444Z</time></trkpt><trkpt lat="43.2619158" lon="12.2435351"><ele>639.1666666666666</ele><time>2026-03-29T08:34:37.443Z</time></trkpt><trkpt lat="43.2619919" lon="12.2435854"><ele>637.3333333333333</ele><time>2026-03-29T08:34:38.443Z</time></trkpt><trkpt lat="43.2620753" lon="12.2436134"><ele>635.5</ele><time>2026-03-29T08:34:39.444Z</time></trkpt><trkpt lat="43.2621537" lon="12.2436273"><ele>633.6666666666666</ele><time>2026-03-29T08:34:40.443Z</time></trkpt><trkpt lat="43.2622193" lon="12.2436644"><ele>631.8333333333334</ele><time>2026-03-29T08:34:41.444Z</time></trkpt><trkpt lat="43.2622894" lon="12.2437051"><ele>630.0</ele><time>2026-03-29T08:34:42.443Z</time></trkpt><trkpt lat="43.2623658" lon="12.2437556"><ele>628.0</ele><time>2026-03-29T08:34:43.444Z</time></trkpt><trkpt lat="43.262431" lon="12.2438048"><ele>626.0</ele><time>2026-03-29T08:34:44.443Z</time></trkpt><trkpt lat="43.2625159" lon="12.2438563"><ele>624.0</ele><time>2026-03-29T08:34:45.443Z</time></trkpt><trkpt lat="43.2625913" lon="12.2439132"><ele>622.0</ele><time>2026-03-29T08:34:46.443Z</time></trkpt><trkpt lat="43.2626979" lon="12.2440068"><ele>620.0</ele><time>2026-03-29T08:34:47.443Z</time></trkpt><trkpt lat="43.2628118" lon="12.2441146"><ele>620.0</ele><time>2026-03-29T08:34:49.443Z</time></trkpt><trkpt lat="43.2628798" lon="12.2441512"><ele>620.0</ele><time>2026-03-29T08:34:50.443Z</time></trkpt><trkpt lat="43.2629725" lon="12.2441693"><ele>620.0</ele><time>2026-03-29T08:34:51.443Z</time></trkpt><trkpt lat="43.2630435" lon="12.2441637"><ele>620.0</ele><time>2026-03-29T08:34:52.443Z</time></trkpt><trkpt lat="43.2628773" lon="12.2440314"><ele>620.0</ele><time>2026-03-29T08:34:53.443Z</time></trkpt><trkpt lat="43.2629053" lon="12.2439525"><ele>620.0</ele><time>2026-03-29T08:34:54.444Z</time></trkpt><trkpt lat="43.2629117" lon="12.243793"><ele>620.0</ele><time>2026-03-29T08:34:56.444Z</time></trkpt><trkpt lat="43.2629374" lon="12.2436883"><ele>620.0</ele><time>2026-03-29T08:34:57.444Z</time></trkpt><trkpt lat="43.2629048" lon="12.2435888"><ele>620.0</ele><time>2026-03-29T08:34:58.443Z</time></trkpt><trkpt lat="43.2628825" lon="12.243485"><ele>620.0</ele><time>2026-03-29T08:34:59.443Z</time></trkpt><trkpt lat="43.2628693" lon="12.2433597"><ele>620.0</ele><time>2026-03-29T08:35:00.444Z</time></trkpt><trkpt lat="43.2628531" lon="12.2432578"><ele>620.0</ele><time>2026-03-29T08:35:01.443Z</time></trkpt><trkpt lat="43.2628414" lon="12.2431471"><ele>620.0</ele><time>2026-03-29T08:35:02.444Z</time></trkpt><trkpt lat="43.2628269" lon="12.2430344"><ele>620.0</ele><time>2026-03-29T08:35:03.443Z</time></trkpt><trkpt lat="43.2628285" lon="12.2429303"><ele>620.0</ele><time>2026-03-29T08:35:04.444Z</time></trkpt><trkpt lat="43.2628351" lon="12.2428261"><ele>620.0</ele><time>2026-03-29T08:35:05.443Z</time></trkpt><trkpt lat="43.2628648" lon="12.2427438"><ele>620.0</ele><time>2026-03-29T08:35:06.444Z</time></trkpt><trkpt lat="43.262832" lon="12.2426049"><ele>619.8333333333333</ele><time>2026-03-29T08:35:07.444Z</time></trkpt><trkpt lat="43.26281" lon="12.2425059"><ele>619.6666666666666</ele><time>2026-03-29T08:35:08.443Z</time></trkpt><trkpt lat="43.2627883" lon="12.2424211"><ele>619.5</ele><time>2026-03-29T08:35:09.444Z</time></trkpt><trkpt lat="43.2628247" lon="12.2423417"><ele>619.3333333333334</ele><time>2026-03-29T08:35:10.444Z</time></trkpt><trkpt lat="43.2628581" lon="12.2422489"><ele>619.1666666666667</ele><time>2026-03-29T08:35:11.443Z</time></trkpt><trkpt lat="43.2629239" lon="12.2420954"><ele>619.0</ele><time>2026-03-29T08:35:13.444Z</time></trkpt><trkpt lat="43.26296" lon="12.2420115"><ele>617.8333333333334</ele><time>2026-03-29T08:35:14.443Z</time></trkpt><trkpt lat="43.2629921" lon="12.2419245"><ele>616.6666666666667</ele><time>2026-03-29T08:35:15.443Z</time></trkpt><trkpt lat="43.2630139" lon="12.2418109"><ele>615.5</ele><time>2026-03-29T08:35:16.443Z</time></trkpt><trkpt lat="43.2630389" lon="12.2417122"><ele>614.3333333333334</ele><time>2026-03-29T08:35:17.444Z</time></trkpt><trkpt lat="43.2630518" lon="12.2416104"><ele>613.1666666666666</ele><time>2026-03-29T08:35:18.443Z</time></trkpt><trkpt lat="43.2629997" lon="12.2414745"><ele>612.0</ele><time>2026-03-29T08:35:19.444Z</time></trkpt><trkpt lat="43.2629554" lon="12.2413602"><ele>610.5</ele><time>2026-03-29T08:35:20.443Z</time></trkpt><trkpt lat="43.2629105" lon="12.2412427"><ele>609.0</ele><time>2026-03-29T08:35:21.444Z</time></trkpt><trkpt lat="43.2628646" lon="12.2411721"><ele>607.5</ele><time>2026-03-29T08:35:22.443Z</time></trkpt><trkpt lat="43.2628435" lon="12.2410784"><ele>606.0</ele><time>2026-03-29T08:35:23.443Z</time></trkpt><trkpt lat="43.2627948" lon="12.2409572"><ele>604.5</ele><time>2026-03-29T08:35:24.443Z</time></trkpt><trkpt lat="43.2627451" lon="12.2408962"><ele>603.0</ele><time>2026-03-29T08:35:25.444Z</time></trkpt><trkpt lat="43.2626841" lon="12.2408608"><ele>603.0</ele><time>2026-03-29T08:35:26.443Z</time></trkpt><trkpt lat="43.2625998" lon="12.2408599"><ele>603.0</ele><time>2026-03-29T08:35:27.443Z</time></trkpt><trkpt lat="43.2624573" lon="12.2409102"><ele>603.0</ele><time>2026-03-29T08:35:28.444Z</time></trkpt><trkpt lat="43.2623576" lon="12.2409987"><ele>603.0</ele><time>2026-03-29T08:35:29.444Z</time></trkpt><trkpt lat="43.2622568" lon="12.2410439"><ele>602.5</ele><time>2026-03-29T08:35:30.443Z</time></trkpt><trkpt lat="43.2621984" lon="12.2410778"><ele>602.0</ele><time>2026-03-29T08:35:31.442Z</time></trkpt><trkpt lat="43.2621597" lon="12.2409585"><ele>601.5</ele><time>2026-03-29T08:35:34.443Z</time></trkpt><trkpt lat="43.2621698" lon="12.2408159"><ele>601.0</ele><time>2026-03-29T08:35:35.443Z</time></trkpt><trkpt lat="43.2621451" lon="12.2406911"><ele>600.5</ele><time>2026-03-29T08:35:36.444Z</time></trkpt><trkpt lat="43.2621127" lon="12.2405861"><ele>600.0</ele><time>2026-03-29T08:35:37.444Z</time></trkpt><trkpt lat="43.2621037" lon="12.2404877"><ele>600.0</ele><time>2026-03-29T08:35:38.444Z</time></trkpt><trkpt lat="43.2620905" lon="12.2403985"><ele>600.0</ele><time>2026-03-29T08:35:39.444Z</time></trkpt><trkpt lat="43.262101" lon="12.2402986"><ele>600.0</ele><time>2026-03-29T08:35:40.444Z</time></trkpt><trkpt lat="43.2620912" lon="12.2402036"><ele>600.0</ele><time>2026-03-29T08:35:41.444Z</time></trkpt><trkpt lat="43.2620936" lon="12.2400879"><ele>600.0</ele><time>2026-03-29T08:35:42.443Z</time></trkpt><trkpt lat="43.2620783" lon="12.2399618"><ele>600.0</ele><time>2026-03-29T08:35:43.443Z</time></trkpt><trkpt lat="43.2620685" lon="12.2398665"><ele>600.0</ele><time>2026-03-29T08:35:44.444Z</time></trkpt><trkpt lat="43.2620445" lon="12.2397717"><ele>600.0</ele><time>2026-03-29T08:35:45.443Z</time></trkpt><trkpt lat="43.2620127" lon="12.239694"><ele>600.0</ele><time>2026-03-29T08:35:46.444Z</time></trkpt><trkpt lat="43.2619421" lon="12.239683"><ele>600.0</ele><time>2026-03-29T08:35:47.443Z</time></trkpt><trkpt lat="43.2618667" lon="12.2396983"><ele>600.0</ele><time>2026-03-29T08:35:48.444Z</time></trkpt><trkpt lat="43.2617652" lon="12.2397644"><ele>600.0</ele><time>2026-03-29T08:35:49.444Z</time></trkpt><trkpt lat="43.2616839" lon="12.2398002"><ele>600.0</ele><time>2026-03-29T08:35:50.444Z</time></trkpt><trkpt lat="43.2615959" lon="12.2398452"><ele>600.0</ele><time>2026-03-29T08:35:51.443Z</time></trkpt><trkpt lat="43.2615222" lon="12.2399051"><ele>600.0</ele><time>2026-03-29T08:35:52.444Z</time></trkpt><trkpt lat="43.2614469" lon="12.2399193"><ele>600.0</ele><time>2026-03-29T08:35:54.444Z</time></trkpt><trkpt lat="43.2614968" lon="12.2398431"><ele>600.0</ele><time>2026-03-29T08:35:58.443Z</time></trkpt><trkpt lat="43.2614447" lon="12.2397403"><ele>600.0</ele><time>2026-03-29T08:36:01.444Z</time></trkpt><trkpt lat="43.261321" lon="12.2394949"><ele>601.4</ele><time>2026-03-29T08:36:02.443Z</time></trkpt><trkpt lat="43.2612672" lon="12.2393759"><ele>602.8</ele><time>2026-03-29T08:36:03.443Z</time></trkpt><trkpt lat="43.2612189" lon="12.2392392"><ele>604.2</ele><time>2026-03-29T08:36:04.443Z</time></trkpt><trkpt lat="43.2611723" lon="12.239168"><ele>605.6</ele><time>2026-03-29T08:36:05.444Z</time></trkpt><trkpt lat="43.2611176" lon="12.2390229"><ele>607.0</ele><time>2026-03-29T08:36:07.444Z</time></trkpt><trkpt lat="43.2610848" lon="12.238948"><ele>604.2</ele><time>2026-03-29T08:36:08.443Z</time></trkpt><trkpt lat="43.2611789" lon="12.2388982"><ele>601.4000000000001</ele><time>2026-03-29T08:36:10.444Z</time></trkpt><trkpt lat="43.2612277" lon="12.2388375"><ele>598.5999999999999</ele><time>2026-03-29T08:36:11.443Z</time></trkpt><trkpt lat="43.2612656" lon="12.238735"><ele>595.8</ele><time>2026-03-29T08:36:13.443Z</time></trkpt><trkpt lat="43.2612479" lon="12.2385566"><ele>593.0</ele><time>2026-03-29T08:36:15.444Z</time></trkpt><trkpt lat="43.2611879" lon="12.2384192"><ele>593.0</ele><time>2026-03-29T08:36:16.443Z</time></trkpt><trkpt lat="43.2611391" lon="12.238328"><ele>593.0</ele><time>2026-03-29T08:36:17.443Z</time></trkpt><trkpt lat="43.2610962" lon="12.2382187"><ele>593.0</ele><time>2026-03-29T08:36:18.443Z</time></trkpt><trkpt lat="43.2610357" lon="12.2381515"><ele>593.0</ele><time>2026-03-29T08:36:19.443Z</time></trkpt><trkpt lat="43.260941" lon="12.2381063"><ele>593.0</ele><time>2026-03-29T08:36:20.444Z</time></trkpt><trkpt lat="43.260832" lon="12.2380322"><ele>591.8</ele><time>2026-03-29T08:36:22.443Z</time></trkpt><trkpt lat="43.2607691" lon="12.2379722"><ele>590.5999999999999</ele><time>2026-03-29T08:36:23.443Z</time></trkpt><trkpt lat="43.2606505" lon="12.2378782"><ele>589.4000000000001</ele><time>2026-03-29T08:36:24.444Z</time></trkpt><trkpt lat="43.2605825" lon="12.2378128"><ele>588.2</ele><time>2026-03-29T08:36:25.444Z</time></trkpt><trkpt lat="43.2605189" lon="12.2377511"><ele>587.0</ele><time>2026-03-29T08:36:26.443Z</time></trkpt><trkpt lat="43.260426" lon="12.2377169"><ele>587.0</ele><time>2026-03-29T08:36:27.444Z</time></trkpt><trkpt lat="43.2603472" lon="12.2376782"><ele>587.0</ele><time>2026-03-29T08:36:28.444Z</time></trkpt><trkpt lat="43.2602828" lon="12.2376451"><ele>587.0</ele><time>2026-03-29T08:36:29.443Z</time></trkpt><trkpt lat="43.2602085" lon="12.2376308"><ele>587.0</ele><time>2026-03-29T08:36:30.443Z</time></trkpt><trkpt lat="43.2601311" lon="12.2375946"><ele>587.0</ele><time>2026-03-29T08:36:31.444Z</time></trkpt><trkpt lat="43.2600524" lon="12.2375604"><ele>587.0</ele><time>2026-03-29T08:36:32.443Z</time></trkpt><trkpt lat="43.2599612" lon="12.2375081"><ele>587.0</ele><time>2026-03-29T08:36:33.444Z</time></trkpt><trkpt lat="43.2599636" lon="12.2373058"><ele>587.0</ele><time>2026-03-29T08:36:34.444Z</time></trkpt><trkpt lat="43.2599637" lon="12.237168"><ele>587.0</ele><time>2026-03-29T08:36:35.443Z</time></trkpt><trkpt lat="43.2599503" lon="12.2370493"><ele>587.0</ele><time>2026-03-29T08:36:36.443Z</time></trkpt><trkpt lat="43.2599294" lon="12.2369413"><ele>587.0</ele><time>2026-03-29T08:36:37.444Z</time></trkpt><trkpt lat="43.2599075" lon="12.2368502"><ele>584.6</ele><time>2026-03-29T08:36:38.443Z</time></trkpt><trkpt lat="43.2599137" lon="12.2367437"><ele>582.2</ele><time>2026-03-29T08:36:39.443Z</time></trkpt><trkpt lat="43.259921" lon="12.2366034"><ele>579.8</ele><time>2026-03-29T08:36:41.445Z</time></trkpt><trkpt lat="43.2599776" lon="12.2365526"><ele>577.4</ele><time>2026-03-29T08:36:43.443Z</time></trkpt><trkpt lat="43.2600631" lon="12.236601"><ele>575.0</ele><time>2026-03-29T08:36:44.444Z</time></trkpt><trkpt lat="43.2602109" lon="12.2365717"><ele>575.0</ele><time>2026-03-29T08:36:46.443Z</time></trkpt><trkpt lat="43.2603016" lon="12.2365474"><ele>575.0</ele><time>2026-03-29T08:36:47.443Z</time></trkpt><trkpt lat="43.2603739" lon="12.236514"><ele>575.0</ele><time>2026-03-29T08:36:48.443Z</time></trkpt><trkpt lat="43.2604426" lon="12.2364856"><ele>575.0</ele><time>2026-03-29T08:36:49.443Z</time></trkpt><trkpt lat="43.260516" lon="12.2364257"><ele>575.0</ele><time>2026-03-29T08:36:51.443Z</time></trkpt><trkpt lat="43.2605309" lon="12.2362985"><ele>575.0</ele><time>2026-03-29T08:36:53.444Z</time></trkpt><trkpt lat="43.2604715" lon="12.236197"><ele>572.2</ele><time>2026-03-29T08:36:54.443Z</time></trkpt><trkpt lat="43.2604105" lon="12.2360864"><ele>569.4</ele><time>2026-03-29T08:36:55.443Z</time></trkpt><trkpt lat="43.2603954" lon="12.23596"><ele>566.6</ele><time>2026-03-29T08:36:56.443Z</time></trkpt><trkpt lat="43.2603737" lon="12.2358474"><ele>563.8</ele><time>2026-03-29T08:36:57.443Z</time></trkpt><trkpt lat="43.260351" lon="12.235754"><ele>561.0</ele><time>2026-03-29T08:36:58.443Z</time></trkpt><trkpt lat="43.2602681" lon="12.2355792"><ele>561.0</ele><time>2026-03-29T08:37:00.443Z</time></trkpt><trkpt lat="43.2601987" lon="12.235637"><ele>561.0</ele><time>2026-03-29T08:37:01.443Z</time></trkpt><trkpt lat="43.2600655" lon="12.2356313"><ele>561.0</ele><time>2026-03-29T08:37:03.444Z</time></trkpt><trkpt lat="43.259934" lon="12.2357005"><ele>561.0</ele><time>2026-03-29T08:37:04.443Z</time></trkpt><trkpt lat="43.2598428" lon="12.2357133"><ele>561.0</ele><time>2026-03-29T08:37:05.443Z</time></trkpt><trkpt lat="43.2597814" lon="12.2356642"><ele>557.2</ele><time>2026-03-29T08:37:06.444Z</time></trkpt><trkpt lat="43.259717" lon="12.2355835"><ele>553.4000000000001</ele><time>2026-03-29T08:37:08.443Z</time></trkpt><trkpt lat="43.2597643" lon="12.2354799"><ele>549.6</ele><time>2026-03-29T08:37:09.444Z</time></trkpt><trkpt lat="43.2598128" lon="12.2354132"><ele>545.8000000000001</ele><time>2026-03-29T08:37:10.443Z</time></trkpt><trkpt lat="43.2599115" lon="12.2353269"><ele>542.0</ele><time>2026-03-29T08:37:11.443Z</time></trkpt><trkpt lat="43.2599854" lon="12.2352428"><ele>542.0</ele><time>2026-03-29T08:37:12.443Z</time></trkpt><trkpt lat="43.2600661" lon="12.2351141"><ele>542.0</ele><time>2026-03-29T08:37:13.444Z</time></trkpt><trkpt lat="43.2601161" lon="12.2350516"><ele>542.0</ele><time>2026-03-29T08:37:14.444Z</time></trkpt><trkpt lat="43.2602246" lon="12.2350096"><ele>542.0</ele><time>2026-03-29T08:37:15.443Z</time></trkpt><trkpt lat="43.2602691" lon="12.2349483"><ele>542.0</ele><time>2026-03-29T08:37:16.443Z</time></trkpt><trkpt lat="43.2602313" lon="12.2348728"><ele>542.0</ele><time>2026-03-29T08:37:17.444Z</time></trkpt><trkpt lat="43.2601715" lon="12.2347733"><ele>541.5</ele><time>2026-03-29T08:37:18.444Z</time></trkpt><trkpt lat="43.2600812" lon="12.2347067"><ele>541.0</ele><time>2026-03-29T08:37:20.443Z</time></trkpt><trkpt lat="43.2597274" lon="12.2348782"><ele>541.0</ele><time>2026-03-29T08:37:23.444Z</time></trkpt><trkpt lat="43.2596563" lon="12.2349422"><ele>541.0</ele><time>2026-03-29T08:37:24.443Z</time></trkpt><trkpt lat="43.2595643" lon="12.2349829"><ele>541.0</ele><time>2026-03-29T08:37:25.444Z</time></trkpt><trkpt lat="43.2594078" lon="12.2350943"><ele>541.0</ele><time>2026-03-29T08:37:26.444Z</time></trkpt><trkpt lat="43.2592772" lon="12.2351737"><ele>541.0</ele><time>2026-03-29T08:37:27.444Z</time></trkpt><trkpt lat="43.2591425" lon="12.2352607"><ele>541.0</ele><time>2026-03-29T08:37:28.443Z</time></trkpt><trkpt lat="43.2590005" lon="12.2353417"><ele>541.0</ele><time>2026-03-29T08:37:30.443Z</time></trkpt><trkpt lat="43.2589357" lon="12.2354232"><ele>541.0</ele><time>2026-03-29T08:37:32.443Z</time></trkpt><trkpt lat="43.2589093" lon="12.2351502"><ele>541.8</ele><time>2026-03-29T08:37:38.443Z</time></trkpt><trkpt lat="43.2588871" lon="12.234933"><ele>542.6</ele><time>2026-03-29T08:37:39.444Z</time></trkpt><trkpt lat="43.25885" lon="12.2348372"><ele>543.4</ele><time>2026-03-29T08:37:40.443Z</time></trkpt><trkpt lat="43.2588126" lon="12.2347282"><ele>544.2</ele><time>2026-03-29T08:37:41.443Z</time></trkpt><trkpt lat="43.2587663" lon="12.2346569"><ele>545.0</ele><time>2026-03-29T08:37:42.444Z</time></trkpt><trkpt lat="43.2586775" lon="12.2345681"><ele>543.0</ele><time>2026-03-29T08:37:43.444Z</time></trkpt><trkpt lat="43.2585514" lon="12.2344999"><ele>541.0</ele><time>2026-03-29T08:37:44.443Z</time></trkpt><trkpt lat="43.2583638" lon="12.2345487"><ele>539.0</ele><time>2026-03-29T08:37:45.443Z</time></trkpt><trkpt lat="43.2582858" lon="12.2345087"><ele>537.0</ele><time>2026-03-29T08:37:46.444Z</time></trkpt><trkpt lat="43.2582101" lon="12.2345048"><ele>539.6</ele><time>2026-03-29T08:37:47.444Z</time></trkpt><trkpt lat="43.2580961" lon="12.2345138"><ele>542.2</ele><time>2026-03-29T08:37:48.443Z</time></trkpt><trkpt lat="43.2580072" lon="12.2344916"><ele>544.8</ele><time>2026-03-29T08:37:49.443Z</time></trkpt><trkpt lat="43.2579061" lon="12.2344512"><ele>547.4</ele><time>2026-03-29T08:37:50.443Z</time></trkpt><trkpt lat="43.2579203" lon="12.2343099"><ele>550.0</ele><time>2026-03-29T08:37:51.444Z</time></trkpt><trkpt lat="43.2578687" lon="12.2342225"><ele>550.0</ele><time>2026-03-29T08:37:52.444Z</time></trkpt><trkpt lat="43.2578339" lon="12.2340773"><ele>550.0</ele><time>2026-03-29T08:37:53.444Z</time></trkpt><trkpt lat="43.2578109" lon="12.2339949"><ele>550.0</ele><time>2026-03-29T08:37:54.443Z</time></trkpt><trkpt lat="43.2577792" lon="12.2338893"><ele>550.0</ele><time>2026-03-29T08:37:55.443Z</time></trkpt><trkpt lat="43.2577496" lon="12.2337511"><ele>550.0</ele><time>2026-03-29T08:37:57.443Z</time></trkpt><trkpt lat="43.2576939" lon="12.2336802"><ele>550.0</ele><time>2026-03-29T08:37:59.444Z</time></trkpt><trkpt lat="43.2576294" lon="12.2336873"><ele>548.6</ele><time>2026-03-29T08:38:00.443Z</time></trkpt><trkpt lat="43.2575418" lon="12.233696"><ele>547.2</ele><time>2026-03-29T08:38:02.444Z</time></trkpt><trkpt lat="43.25743" lon="12.2336998"><ele>545.8</ele><time>2026-03-29T08:38:04.444Z</time></trkpt><trkpt lat="43.2573529" lon="12.2335674"><ele>544.4</ele><time>2026-03-29T08:38:06.444Z</time></trkpt><trkpt lat="43.2573125" lon="12.2334712"><ele>543.0</ele><time>2026-03-29T08:38:07.444Z</time></trkpt><trkpt lat="43.2572941" lon="12.233381"><ele>544.0</ele><time>2026-03-29T08:38:08.444Z</time></trkpt><trkpt lat="43.2572788" lon="12.2332943"><ele>545.0</ele><time>2026-03-29T08:38:09.444Z</time></trkpt><trkpt lat="43.2572593" lon="12.2331754"><ele>546.0</ele><time>2026-03-29T08:38:11.443Z</time></trkpt><trkpt lat="43.2572059" lon="12.233124"><ele>547.0</ele><time>2026-03-29T08:38:13.443Z</time></trkpt><trkpt lat="43.2571265" lon="12.2332742"><ele>548.0</ele><time>2026-03-29T08:38:16.444Z</time></trkpt><trkpt lat="43.2570577" lon="12.2333808"><ele>550.1999999999999</ele><time>2026-03-29T08:38:18.443Z</time></trkpt><trkpt lat="43.2569616" lon="12.233505"><ele>552.4</ele><time>2026-03-29T08:38:20.443Z</time></trkpt><trkpt lat="43.2568982" lon="12.2335902"><ele>554.5999999999999</ele><time>2026-03-29T08:38:22.444Z</time></trkpt><trkpt lat="43.2568365" lon="12.2336266"><ele>556.8</ele><time>2026-03-29T08:38:27.444Z</time></trkpt><trkpt lat="43.2567425" lon="12.2336925"><ele>559.0</ele><time>2026-03-29T08:38:30.444Z</time></trkpt><trkpt lat="43.2566512" lon="12.2337307"><ele>559.0</ele><time>2026-03-29T08:38:32.444Z</time></trkpt><trkpt lat="43.2565909" lon="12.2338081"><ele>559.0</ele><time>2026-03-29T08:38:34.443Z</time></trkpt><trkpt lat="43.2565307" lon="12.2339008"><ele>559.0</ele><time>2026-03-29T08:38:36.443Z</time></trkpt><trkpt lat="43.2564305" lon="12.2339896"><ele>559.0</ele><time>2026-03-29T08:38:38.443Z</time></trkpt><trkpt lat="43.2563411" lon="12.2340464"><ele>559.0</ele><time>2026-03-29T08:38:40.443Z</time></trkpt><trkpt lat="43.2562529" lon="12.234059"><ele>562.6</ele><time>2026-03-29T08:38:41.444Z</time></trkpt><trkpt lat="43.2561464" lon="12.2341542"><ele>566.2</ele><time>2026-03-29T08:38:43.444Z</time></trkpt><trkpt lat="43.256137" lon="12.2342768"><ele>569.8000000000001</ele><time>2026-03-29T08:38:45.443Z</time></trkpt><trkpt lat="43.2562478" lon="12.2343644"><ele>573.4</ele><time>2026-03-29T08:38:46.444Z</time></trkpt><trkpt lat="43.2562959" lon="12.2344578"><ele>577.0</ele><time>2026-03-29T08:38:47.443Z</time></trkpt><trkpt lat="43.2563289" lon="12.2345917"><ele>577.0</ele><time>2026-03-29T08:38:48.444Z</time></trkpt><trkpt lat="43.2563686" lon="12.2346729"><ele>577.0</ele><time>2026-03-29T08:38:49.444Z</time></trkpt><trkpt lat="43.2563241" lon="12.2347774"><ele>577.0</ele><time>2026-03-29T08:38:51.443Z</time></trkpt><trkpt lat="43.2562487" lon="12.2348114"><ele>577.0</ele><time>2026-03-29T08:38:53.444Z</time></trkpt><trkpt lat="43.2562628" lon="12.2349688"><ele>577.0</ele><time>2026-03-29T08:38:56.443Z</time></trkpt><trkpt lat="43.2563235" lon="12.2350083"><ele>577.0</ele><time>2026-03-29T08:38:57.443Z</time></trkpt><trkpt lat="43.2563601" lon="12.2351726"><ele>579.1666666666667</ele><time>2026-03-29T08:38:59.444Z</time></trkpt><trkpt lat="43.2563505" lon="12.2353025"><ele>581.3333333333334</ele><time>2026-03-29T08:39:01.443Z</time></trkpt><trkpt lat="43.2563" lon="12.2353854"><ele>583.5</ele><time>2026-03-29T08:39:03.444Z</time></trkpt><trkpt lat="43.2562655" lon="12.2354724"><ele>585.6666666666666</ele><time>2026-03-29T08:39:05.444Z</time></trkpt><trkpt lat="43.2562461" lon="12.2355672"><ele>587.8333333333333</ele><time>2026-03-29T08:39:07.443Z</time></trkpt><trkpt lat="43.256192" lon="12.2356284"><ele>590.0</ele><time>2026-03-29T08:39:09.444Z</time></trkpt><trkpt lat="43.256185" lon="12.235779"><ele>593.2</ele><time>2026-03-29T08:39:12.443Z</time></trkpt><trkpt lat="43.2561861" lon="12.235918"><ele>596.4</ele><time>2026-03-29T08:39:15.443Z</time></trkpt><trkpt lat="43.2561473" lon="12.2360373"><ele>599.6</ele><time>2026-03-29T08:39:17.444Z</time></trkpt><trkpt lat="43.2560256" lon="12.2361789"><ele>602.8</ele><time>2026-03-29T08:39:18.443Z</time></trkpt><trkpt lat="43.2559607" lon="12.2362549"><ele>606.0</ele><time>2026-03-29T08:39:19.443Z</time></trkpt><trkpt lat="43.2558881" lon="12.2363429"><ele>606.0</ele><time>2026-03-29T08:39:20.443Z</time></trkpt><trkpt lat="43.25583" lon="12.236397"><ele>606.0</ele><time>2026-03-29T08:39:21.444Z</time></trkpt><trkpt lat="43.2557093" lon="12.2363973"><ele>606.0</ele><time>2026-03-29T08:39:24.443Z</time></trkpt><trkpt lat="43.2555768" lon="12.2363235"><ele>606.0</ele><time>2026-03-29T08:39:26.444Z</time></trkpt><trkpt lat="43.2554724" lon="12.2363174"><ele>606.0</ele><time>2026-03-29T08:39:28.444Z</time></trkpt><trkpt lat="43.2553794" lon="12.2363768"><ele>608.25</ele><time>2026-03-29T08:39:30.443Z</time></trkpt><trkpt lat="43.255372" lon="12.2364688"><ele>610.5</ele><time>2026-03-29T08:39:33.443Z</time></trkpt><trkpt lat="43.2553682" lon="12.2366832"><ele>612.75</ele><time>2026-03-29T08:39:35.444Z</time></trkpt><trkpt lat="43.2554133" lon="12.2368617"><ele>615.0</ele><time>2026-03-29T08:39:37.443Z</time></trkpt><trkpt lat="43.2554178" lon="12.2370911"><ele>616.6666666666666</ele><time>2026-03-29T08:39:38.443Z</time></trkpt><trkpt lat="43.2554311" lon="12.2371973"><ele>618.3333333333334</ele><time>2026-03-29T08:39:39.443Z</time></trkpt><trkpt lat="43.2553935" lon="12.2372819"><ele>620.0</ele><time>2026-03-29T08:39:40.443Z</time></trkpt><trkpt lat="43.255369" lon="12.2373877"><ele>621.6666666666667</ele><time>2026-03-29T08:39:42.443Z</time></trkpt><trkpt lat="43.2552862" lon="12.2374736"><ele>623.3333333333334</ele><time>2026-03-29T08:39:44.443Z</time></trkpt><trkpt lat="43.2552139" lon="12.2375279"><ele>625.0</ele><time>2026-03-29T08:39:45.443Z</time></trkpt><trkpt lat="43.2551197" lon="12.2376334"><ele>627.25</ele><time>2026-03-29T08:39:47.443Z</time></trkpt><trkpt lat="43.2550204" lon="12.2377355"><ele>629.5</ele><time>2026-03-29T08:39:49.444Z</time></trkpt><trkpt lat="43.254921" lon="12.2378232"><ele>631.75</ele><time>2026-03-29T08:39:50.443Z</time></trkpt><trkpt lat="43.2548771" lon="12.2380293"><ele>634.0</ele><time>2026-03-29T08:39:52.444Z</time></trkpt><trkpt lat="43.2548375" lon="12.2381409"><ele>633.6</ele><time>2026-03-29T08:39:53.443Z</time></trkpt><trkpt lat="43.2548304" lon="12.238295"><ele>633.2</ele><time>2026-03-29T08:39:54.443Z</time></trkpt><trkpt lat="43.2548213" lon="12.2384309"><ele>632.8000000000001</ele><time>2026-03-29T08:39:55.444Z</time></trkpt><trkpt lat="43.2548116" lon="12.2385536"><ele>632.4</ele><time>2026-03-29T08:39:56.444Z</time></trkpt><trkpt lat="43.2547911" lon="12.2386735"><ele>632.0</ele><time>2026-03-29T08:39:57.443Z</time></trkpt><trkpt lat="43.2547483" lon="12.2387766"><ele>632.0</ele><time>2026-03-29T08:39:58.443Z</time></trkpt><trkpt lat="43.254714" lon="12.2388752"><ele>632.0</ele><time>2026-03-29T08:39:59.443Z</time></trkpt><trkpt lat="43.2546807" lon="12.2389899"><ele>632.0</ele><time>2026-03-29T08:40:00.444Z</time></trkpt><trkpt lat="43.2546414" lon="12.2390867"><ele>632.0</ele><time>2026-03-29T08:40:01.444Z</time></trkpt><trkpt lat="43.2546385" lon="12.2391816"><ele>632.0</ele><time>2026-03-29T08:40:02.443Z</time></trkpt><trkpt lat="43.2546218" lon="12.239297"><ele>632.0</ele><time>2026-03-29T08:40:03.443Z</time></trkpt><trkpt lat="43.2545973" lon="12.2393781"><ele>633.4</ele><time>2026-03-29T08:40:04.443Z</time></trkpt><trkpt lat="43.2545326" lon="12.2394542"><ele>634.8000000000001</ele><time>2026-03-29T08:40:06.443Z</time></trkpt><trkpt lat="43.2544435" lon="12.2395326"><ele>636.2</ele><time>2026-03-29T08:40:08.443Z</time></trkpt><trkpt lat="43.2543289" lon="12.2394998"><ele>637.6</ele><time>2026-03-29T08:40:10.444Z</time></trkpt><trkpt lat="43.2541884" lon="12.23952"><ele>639.0</ele><time>2026-03-29T08:40:12.444Z</time></trkpt><trkpt lat="43.254063" lon="12.2395224"><ele>639.0</ele><time>2026-03-29T08:40:14.443Z</time></trkpt><trkpt lat="43.2539951" lon="12.2395257"><ele>639.0</ele><time>2026-03-29T08:40:15.443Z</time></trkpt><trkpt lat="43.2539221" lon="12.2395215"><ele>639.0</ele><time>2026-03-29T08:40:16.444Z</time></trkpt><trkpt lat="43.2538443" lon="12.2394906"><ele>639.0</ele><time>2026-03-29T08:40:18.444Z</time></trkpt><trkpt lat="43.2537755" lon="12.2394415"><ele>639.0</ele><time>2026-03-29T08:40:20.444Z</time></trkpt><trkpt lat="43.2537188" lon="12.2393541"><ele>639.0</ele><time>2026-03-29T08:40:22.444Z</time></trkpt><trkpt lat="43.2536159" lon="12.2393428"><ele>639.5</ele><time>2026-03-29T08:40:24.445Z</time></trkpt><trkpt lat="43.2535442" lon="12.239454"><ele>640.0</ele><time>2026-03-29T08:40:25.443Z</time></trkpt><trkpt lat="43.2534828" lon="12.2394949"><ele>640.5</ele><time>2026-03-29T08:40:26.444Z</time></trkpt><trkpt lat="43.253416" lon="12.2395424"><ele>641.0</ele><time>2026-03-29T08:40:27.443Z</time></trkpt><trkpt lat="43.2533569" lon="12.2395842"><ele>641.5</ele><time>2026-03-29T08:40:28.443Z</time></trkpt><trkpt lat="43.2532957" lon="12.2396417"><ele>642.0</ele><time>2026-03-29T08:40:29.443Z</time></trkpt><trkpt lat="43.2532073" lon="12.2397036"><ele>642.0</ele><time>2026-03-29T08:40:31.443Z</time></trkpt><trkpt lat="43.2531313" lon="12.239737"><ele>642.0</ele><time>2026-03-29T08:40:32.444Z</time></trkpt><trkpt lat="43.253065" lon="12.2397597"><ele>642.0</ele><time>2026-03-29T08:40:33.443Z</time></trkpt><trkpt lat="43.2529913" lon="12.239722"><ele>642.0</ele><time>2026-03-29T08:40:34.443Z</time></trkpt><trkpt lat="43.2529085" lon="12.239694"><ele>642.0</ele><time>2026-03-29T08:40:35.444Z</time></trkpt><trkpt lat="43.2527763" lon="12.2396875"><ele>642.0</ele><time>2026-03-29T08:40:37.443Z</time></trkpt><trkpt lat="43.2526651" lon="12.2397078"><ele>641.6</ele><time>2026-03-29T08:40:38.443Z</time></trkpt><trkpt lat="43.2525846" lon="12.2397303"><ele>641.2</ele><time>2026-03-29T08:40:39.443Z</time></trkpt><trkpt lat="43.2524417" lon="12.2396989"><ele>640.8</ele><time>2026-03-29T08:40:41.443Z</time></trkpt><trkpt lat="43.2523699" lon="12.2396712"><ele>640.4</ele><time>2026-03-29T08:40:42.443Z</time></trkpt><trkpt lat="43.2523025" lon="12.239658"><ele>640.0</ele><time>2026-03-29T08:40:43.443Z</time></trkpt><trkpt lat="43.2521823" lon="12.2395763"><ele>641.3333333333334</ele><time>2026-03-29T08:40:44.443Z</time></trkpt><trkpt lat="43.2521028" lon="12.2395487"><ele>642.6666666666667</ele><time>2026-03-29T08:40:45.443Z</time></trkpt><trkpt lat="43.2520139" lon="12.23952"><ele>644.0</ele><time>2026-03-29T08:40:46.444Z</time></trkpt><trkpt lat="43.2519303" lon="12.2394943"><ele>645.3333333333334</ele><time>2026-03-29T08:40:47.444Z</time></trkpt><trkpt lat="43.2518692" lon="12.2394521"><ele>646.6666666666666</ele><time>2026-03-29T08:40:48.443Z</time></trkpt><trkpt lat="43.2517833" lon="12.2394363"><ele>648.0</ele><time>2026-03-29T08:40:49.443Z</time></trkpt><trkpt lat="43.2516936" lon="12.2394122"><ele>648.0</ele><time>2026-03-29T08:40:50.443Z</time></trkpt><trkpt lat="43.2516208" lon="12.2393742"><ele>648.0</ele><time>2026-03-29T08:40:51.444Z</time></trkpt><trkpt lat="43.2515399" lon="12.2392939"><ele>648.0</ele><time>2026-03-29T08:40:53.444Z</time></trkpt><trkpt lat="43.2514463" lon="12.2391629"><ele>648.0</ele><time>2026-03-29T08:40:55.443Z</time></trkpt><trkpt lat="43.2514011" lon="12.2390931"><ele>648.0</ele><time>2026-03-29T08:40:56.443Z</time></trkpt><trkpt lat="43.2513546" lon="12.2389647"><ele>648.0</ele><time>2026-03-29T08:40:58.443Z</time></trkpt><trkpt lat="43.2513469" lon="12.2388623"><ele>648.0</ele><time>2026-03-29T08:40:59.443Z</time></trkpt><trkpt lat="43.2512852" lon="12.2387074"><ele>648.0</ele><time>2026-03-29T08:41:01.444Z</time></trkpt><trkpt lat="43.2512303" lon="12.2386203"><ele>648.0</ele><time>2026-03-29T08:41:02.443Z</time></trkpt><trkpt lat="43.2511889" lon="12.2385321"><ele>648.0</ele><time>2026-03-29T08:41:03.444Z</time></trkpt><trkpt lat="43.25115" lon="12.2384547"><ele>648.0</ele><time>2026-03-29T08:41:04.444Z</time></trkpt><trkpt lat="43.2510011" lon="12.2384444"><ele>648.0</ele><time>2026-03-29T08:41:05.444Z</time></trkpt><trkpt lat="43.2509263" lon="12.2384431"><ele>648.0</ele><time>2026-03-29T08:41:06.444Z</time></trkpt><trkpt lat="43.2508317" lon="12.2384052"><ele>648.0</ele><time>2026-03-29T08:41:07.444Z</time></trkpt><trkpt lat="43.2507521" lon="12.2384343"><ele>648.0</ele><time>2026-03-29T08:41:08.442Z</time></trkpt><trkpt lat="43.2506864" lon="12.2384068"><ele>648.0</ele><time>2026-03-29T08:41:09.444Z</time></trkpt><trkpt lat="43.2505644" lon="12.2384119"><ele>648.0</ele><time>2026-03-29T08:41:10.443Z</time></trkpt><trkpt lat="43.2504371" lon="12.2384247"><ele>648.2</ele><time>2026-03-29T08:41:11.444Z</time></trkpt><trkpt lat="43.2503566" lon="12.2384446"><ele>648.4</ele><time>2026-03-29T08:41:12.444Z</time></trkpt><trkpt lat="43.2502778" lon="12.2384409"><ele>648.6</ele><time>2026-03-29T08:41:13.444Z</time></trkpt><trkpt lat="43.2501712" lon="12.2384732"><ele>648.8000000000001</ele><time>2026-03-29T08:41:15.444Z</time></trkpt><trkpt lat="43.2500598" lon="12.2384917"><ele>649.0</ele><time>2026-03-29T08:41:17.444Z</time></trkpt><trkpt lat="43.2499631" lon="12.2384778"><ele>649.0</ele><time>2026-03-29T08:41:19.443Z</time></trkpt><trkpt lat="43.249901" lon="12.238517"><ele>649.0</ele><time>2026-03-29T08:42:42.444Z</time></trkpt><trkpt lat="43.2498345" lon="12.2385262"><ele>649.0</ele><time>2026-03-29T08:42:44.445Z</time></trkpt><trkpt lat="43.2497528" lon="12.2384508"><ele>649.0</ele><time>2026-03-29T08:42:45.443Z</time></trkpt><trkpt lat="43.2496388" lon="12.2383415"><ele>649.0</ele><time>2026-03-29T08:42:46.444Z</time></trkpt><trkpt lat="43.2495761" lon="12.2382686"><ele>648.6</ele><time>2026-03-29T08:42:47.444Z</time></trkpt><trkpt lat="43.2494905" lon="12.2381783"><ele>648.2</ele><time>2026-03-29T08:42:48.444Z</time></trkpt><trkpt lat="43.2494142" lon="12.2381108"><ele>647.8000000000001</ele><time>2026-03-29T08:42:49.444Z</time></trkpt><trkpt lat="43.2493533" lon="12.2380332"><ele>647.4000000000001</ele><time>2026-03-29T08:42:50.444Z</time></trkpt><trkpt lat="43.2493206" lon="12.2379487"><ele>647.0</ele><time>2026-03-29T08:42:51.444Z</time></trkpt><trkpt lat="43.2492558" lon="12.2377978"><ele>647.0</ele><time>2026-03-29T08:42:53.444Z</time></trkpt><trkpt lat="43.2492164" lon="12.2377126"><ele>647.0</ele><time>2026-03-29T08:42:54.445Z</time></trkpt><trkpt lat="43.249175" lon="12.2376196"><ele>647.0</ele><time>2026-03-29T08:42:55.445Z</time></trkpt><trkpt lat="43.2491008" lon="12.2375051"><ele>647.0</ele><time>2026-03-29T08:42:56.444Z</time></trkpt><trkpt lat="43.2490187" lon="12.2373465"><ele>647.0</ele><time>2026-03-29T08:42:57.445Z</time></trkpt><trkpt lat="43.2489778" lon="12.2372072"><ele>648.5</ele><time>2026-03-29T08:42:58.445Z</time></trkpt><trkpt lat="43.2489288" lon="12.2370725"><ele>650.0</ele><time>2026-03-29T08:42:59.445Z</time></trkpt><trkpt lat="43.2489109" lon="12.2369165"><ele>651.5</ele><time>2026-03-29T08:43:00.445Z</time></trkpt><trkpt lat="43.2489035" lon="12.2367526"><ele>653.0</ele><time>2026-03-29T08:43:01.444Z</time></trkpt><trkpt lat="43.2488938" lon="12.2366033"><ele>648.6666666666666</ele><time>2026-03-29T08:43:02.444Z</time></trkpt><trkpt lat="43.2488652" lon="12.2362841"><ele>644.3333333333334</ele><time>2026-03-29T08:43:04.444Z</time></trkpt><trkpt lat="43.2487891" lon="12.2361599"><ele>640.0</ele><time>2026-03-29T08:43:05.444Z</time></trkpt><trkpt lat="43.2487415" lon="12.2360239"><ele>640.0</ele><time>2026-03-29T08:43:06.444Z</time></trkpt><trkpt lat="43.2486856" lon="12.2358984"><ele>640.0</ele><time>2026-03-29T08:43:07.444Z</time></trkpt><trkpt lat="43.2486263" lon="12.235793"><ele>640.0</ele><time>2026-03-29T08:43:08.444Z</time></trkpt><trkpt lat="43.2485228" lon="12.2356967"><ele>640.0</ele><time>2026-03-29T08:43:10.444Z</time></trkpt><trkpt lat="43.2484618" lon="12.2356708"><ele>640.0</ele><time>2026-03-29T08:43:11.444Z</time></trkpt><trkpt lat="43.2484001" lon="12.2356252"><ele>637.8</ele><time>2026-03-29T08:43:12.444Z</time></trkpt><trkpt lat="43.2483133" lon="12.2355658"><ele>635.6</ele><time>2026-03-29T08:43:14.445Z</time></trkpt><trkpt lat="43.2482238" lon="12.2354589"><ele>633.4</ele><time>2026-03-29T08:43:16.445Z</time></trkpt><trkpt lat="43.2481859" lon="12.2353615"><ele>631.2</ele><time>2026-03-29T08:43:17.444Z</time></trkpt><trkpt lat="43.2481535" lon="12.2352557"><ele>629.0</ele><time>2026-03-29T08:43:18.444Z</time></trkpt><trkpt lat="43.2481235" lon="12.2351011"><ele>628.6</ele><time>2026-03-29T08:43:19.444Z</time></trkpt><trkpt lat="43.2480859" lon="12.2349904"><ele>628.2</ele><time>2026-03-29T08:43:20.444Z</time></trkpt><trkpt lat="43.2480382" lon="12.2348809"><ele>627.8000000000001</ele><time>2026-03-29T08:43:21.444Z</time></trkpt><trkpt lat="43.2479653" lon="12.2347794"><ele>627.4</ele><time>2026-03-29T08:43:22.444Z</time></trkpt><trkpt lat="43.2478936" lon="12.2346865"><ele>627.0</ele><time>2026-03-29T08:43:23.444Z</time></trkpt><trkpt lat="43.2478117" lon="12.2346034"><ele>627.0</ele><time>2026-03-29T08:43:24.445Z</time></trkpt><trkpt lat="43.2477383" lon="12.2345322"><ele>627.0</ele><time>2026-03-29T08:43:25.444Z</time></trkpt><trkpt lat="43.2476767" lon="12.2344456"><ele>627.0</ele><time>2026-03-29T08:43:26.444Z</time></trkpt><trkpt lat="43.2476042" lon="12.2343205"><ele>627.0</ele><time>2026-03-29T08:43:27.444Z</time></trkpt><trkpt lat="43.2475373" lon="12.2342013"><ele>627.0</ele><time>2026-03-29T08:43:28.445Z</time></trkpt><trkpt lat="43.2474688" lon="12.2340945"><ele>628.2</ele><time>2026-03-29T08:43:29.444Z</time></trkpt><trkpt lat="43.2474272" lon="12.2339631"><ele>629.4000000000001</ele><time>2026-03-29T08:43:30.445Z</time></trkpt><trkpt lat="43.2473906" lon="12.233843"><ele>630.5999999999999</ele><time>2026-03-29T08:43:31.445Z</time></trkpt><trkpt lat="43.2473435" lon="12.2337159"><ele>631.8</ele><time>2026-03-29T08:43:32.444Z</time></trkpt><trkpt lat="43.2473245" lon="12.2335891"><ele>633.0</ele><time>2026-03-29T08:43:33.444Z</time></trkpt><trkpt lat="43.2472764" lon="12.233466"><ele>627.75</ele><time>2026-03-29T08:43:34.445Z</time></trkpt><trkpt lat="43.2472652" lon="12.233331"><ele>622.5</ele><time>2026-03-29T08:43:35.445Z</time></trkpt><trkpt lat="43.2472593" lon="12.233204"><ele>617.25</ele><time>2026-03-29T08:43:36.444Z</time></trkpt><trkpt lat="43.2472073" lon="12.2329391"><ele>612.0</ele><time>2026-03-29T08:43:38.445Z</time></trkpt><trkpt lat="43.2471424" lon="12.2328108"><ele>612.0</ele><time>2026-03-29T08:43:39.444Z</time></trkpt><trkpt lat="43.2470868" lon="12.2326807"><ele>612.0</ele><time>2026-03-29T08:43:40.444Z</time></trkpt><trkpt lat="43.2470276" lon="12.2325918"><ele>612.0</ele><time>2026-03-29T08:43:41.443Z</time></trkpt><trkpt lat="43.2469664" lon="12.2325137"><ele>612.0</ele><time>2026-03-29T08:43:42.444Z</time></trkpt><trkpt lat="43.2469234" lon="12.2324052"><ele>612.0</ele><time>2026-03-29T08:43:43.444Z</time></trkpt><trkpt lat="43.2468711" lon="12.2322845"><ele>612.8000000000001</ele><time>2026-03-29T08:43:44.445Z</time></trkpt><trkpt lat="43.2468359" lon="12.2321632"><ele>613.6</ele><time>2026-03-29T08:43:45.444Z</time></trkpt><trkpt lat="43.2467974" lon="12.232038"><ele>614.4000000000001</ele><time>2026-03-29T08:43:46.445Z</time></trkpt><trkpt lat="43.2467525" lon="12.2319025"><ele>615.2</ele><time>2026-03-29T08:43:47.445Z</time></trkpt><trkpt lat="43.2467081" lon="12.2317815"><ele>616.0</ele><time>2026-03-29T08:43:48.445Z</time></trkpt><trkpt lat="43.2466419" lon="12.2316613"><ele>616.0</ele><time>2026-03-29T08:43:49.444Z</time></trkpt><trkpt lat="43.2465894" lon="12.2315491"><ele>616.0</ele><time>2026-03-29T08:43:50.444Z</time></trkpt><trkpt lat="43.2465275" lon="12.2314586"><ele>616.0</ele><time>2026-03-29T08:43:51.444Z</time></trkpt><trkpt lat="43.2464473" lon="12.2313726"><ele>616.0</ele><time>2026-03-29T08:43:52.444Z</time></trkpt><trkpt lat="43.2463929" lon="12.2312916"><ele>616.0</ele><time>2026-03-29T08:43:53.444Z</time></trkpt><trkpt lat="43.2462677" lon="12.2311859"><ele>612.4</ele><time>2026-03-29T08:43:54.445Z</time></trkpt><trkpt lat="43.2461661" lon="12.2310914"><ele>608.8</ele><time>2026-03-29T08:43:55.444Z</time></trkpt><trkpt lat="43.246082" lon="12.2309982"><ele>605.1999999999999</ele><time>2026-03-29T08:43:56.444Z</time></trkpt><trkpt lat="43.2459918" lon="12.2309122"><ele>601.6</ele><time>2026-03-29T08:43:57.444Z</time></trkpt><trkpt lat="43.2459022" lon="12.2308351"><ele>598.0</ele><time>2026-03-29T08:43:58.445Z</time></trkpt><trkpt lat="43.2458283" lon="12.2307625"><ele>598.0</ele><time>2026-03-29T08:43:59.444Z</time></trkpt><trkpt lat="43.2457386" lon="12.2306822"><ele>598.0</ele><time>2026-03-29T08:44:00.445Z</time></trkpt><trkpt lat="43.2455911" lon="12.2305442"><ele>598.0</ele><time>2026-03-29T08:44:01.444Z</time></trkpt><trkpt lat="43.2454699" lon="12.2304286"><ele>598.0</ele><time>2026-03-29T08:44:02.444Z</time></trkpt><trkpt lat="43.2453625" lon="12.2302995"><ele>595.75</ele><time>2026-03-29T08:44:03.445Z</time></trkpt><trkpt lat="43.2452297" lon="12.2302004"><ele>593.5</ele><time>2026-03-29T08:44:04.444Z</time></trkpt><trkpt lat="43.245113" lon="12.2301001"><ele>591.25</ele><time>2026-03-29T08:44:05.445Z</time></trkpt><trkpt lat="43.245026" lon="12.2299828"><ele>589.0</ele><time>2026-03-29T08:44:06.445Z</time></trkpt><trkpt lat="43.2449126" lon="12.2298662"><ele>588.0</ele><time>2026-03-29T08:44:07.445Z</time></trkpt><trkpt lat="43.2448042" lon="12.2297566"><ele>587.0</ele><time>2026-03-29T08:44:08.444Z</time></trkpt><trkpt lat="43.2446934" lon="12.2296597"><ele>586.0</ele><time>2026-03-29T08:44:09.445Z</time></trkpt><trkpt lat="43.2445985" lon="12.2295623"><ele>585.0</ele><time>2026-03-29T08:44:10.445Z</time></trkpt><trkpt lat="43.2444941" lon="12.2294665"><ele>583.25</ele><time>2026-03-29T08:44:11.445Z</time></trkpt><trkpt lat="43.244389" lon="12.2293252"><ele>581.5</ele><time>2026-03-29T08:44:12.444Z</time></trkpt><trkpt lat="43.2442943" lon="12.229189"><ele>579.75</ele><time>2026-03-29T08:44:13.445Z</time></trkpt><trkpt lat="43.2442496" lon="12.229056"><ele>578.0</ele><time>2026-03-29T08:44:14.445Z</time></trkpt><trkpt lat="43.2442487" lon="12.2289075"><ele>576.75</ele><time>2026-03-29T08:44:15.443Z</time></trkpt><trkpt lat="43.2442792" lon="12.228755"><ele>575.5</ele><time>2026-03-29T08:44:16.444Z</time></trkpt><trkpt lat="43.2443274" lon="12.2286026"><ele>574.25</ele><time>2026-03-29T08:44:17.445Z</time></trkpt><trkpt lat="43.2443867" lon="12.2284483"><ele>573.0</ele><time>2026-03-29T08:44:18.445Z</time></trkpt><trkpt lat="43.2444871" lon="12.2282982"><ele>573.0</ele><time>2026-03-29T08:44:19.445Z</time></trkpt><trkpt lat="43.2445596" lon="12.2281531"><ele>573.0</ele><time>2026-03-29T08:44:20.444Z</time></trkpt><trkpt lat="43.2446185" lon="12.2279932"><ele>573.0</ele><time>2026-03-29T08:44:21.445Z</time></trkpt><trkpt lat="43.2446553" lon="12.2278222"><ele>573.0</ele><time>2026-03-29T08:44:22.445Z</time></trkpt><trkpt lat="43.2446445" lon="12.2276514"><ele>573.0</ele><time>2026-03-29T08:44:23.445Z</time></trkpt><trkpt lat="43.2446137" lon="12.2274807"><ele>573.0</ele><time>2026-03-29T08:44:24.445Z</time></trkpt><trkpt lat="43.2445762" lon="12.2273136"><ele>573.0</ele><time>2026-03-29T08:44:25.444Z</time></trkpt><trkpt lat="43.2445166" lon="12.2271536"><ele>573.0</ele><time>2026-03-29T08:44:26.445Z</time></trkpt><trkpt lat="43.2444529" lon="12.2270329"><ele>573.0</ele><time>2026-03-29T08:44:27.445Z</time></trkpt><trkpt lat="43.2443899" lon="12.2268941"><ele>573.0</ele><time>2026-03-29T08:44:28.445Z</time></trkpt><trkpt lat="43.2443143" lon="12.2267603"><ele>573.0</ele><time>2026-03-29T08:44:29.445Z</time></trkpt><trkpt lat="43.2441806" lon="12.2266396"><ele>573.0</ele><time>2026-03-29T08:44:30.445Z</time></trkpt><trkpt lat="43.2440947" lon="12.2265103"><ele>573.1999999999999</ele><time>2026-03-29T08:44:31.445Z</time></trkpt><trkpt lat="43.2440251" lon="12.2263756"><ele>573.4</ele><time>2026-03-29T08:44:32.445Z</time></trkpt><trkpt lat="43.2439597" lon="12.2262426"><ele>573.5999999999999</ele><time>2026-03-29T08:44:33.446Z</time></trkpt><trkpt lat="43.2439153" lon="12.2261187"><ele>573.8</ele><time>2026-03-29T08:44:34.445Z</time></trkpt><trkpt lat="43.2438674" lon="12.2259912"><ele>574.0</ele><time>2026-03-29T08:44:35.445Z</time></trkpt><trkpt lat="43.2438303" lon="12.2258839"><ele>576.0</ele><time>2026-03-29T08:44:36.444Z</time></trkpt><trkpt lat="43.2437959" lon="12.2258114"><ele>578.0</ele><time>2026-03-29T08:44:37.445Z</time></trkpt><trkpt lat="43.2437005" lon="12.2257249"><ele>580.0</ele><time>2026-03-29T08:44:39.444Z</time></trkpt><trkpt lat="43.243618" lon="12.2256711"><ele>582.0</ele><time>2026-03-29T08:44:40.445Z</time></trkpt><trkpt lat="43.2435395" lon="12.2256336"><ele>584.0</ele><time>2026-03-29T08:44:41.445Z</time></trkpt><trkpt lat="43.2434539" lon="12.2255627"><ele>593.0</ele><time>2026-03-29T08:44:42.444Z</time></trkpt><trkpt lat="43.2433151" lon="12.2255223"><ele>602.0</ele><time>2026-03-29T08:44:43.445Z</time></trkpt><trkpt lat="43.2431972" lon="12.2254759"><ele>611.0</ele><time>2026-03-29T08:44:44.445Z</time></trkpt><trkpt lat="43.2430023" lon="12.2254624"><ele>611.0</ele><time>2026-03-29T08:44:45.444Z</time></trkpt><trkpt lat="43.2428883" lon="12.2254002"><ele>611.0</ele><time>2026-03-29T08:44:46.445Z</time></trkpt><trkpt lat="43.2427536" lon="12.2252955"><ele>611.0</ele><time>2026-03-29T08:44:47.445Z</time></trkpt><trkpt lat="43.2426348" lon="12.2251992"><ele>611.0</ele><time>2026-03-29T08:44:48.444Z</time></trkpt><trkpt lat="43.2425309" lon="12.2251282"><ele>611.0</ele><time>2026-03-29T08:44:49.445Z</time></trkpt><trkpt lat="43.2424225" lon="12.2250661"><ele>611.0</ele><time>2026-03-29T08:44:50.444Z</time></trkpt><trkpt lat="43.2422959" lon="12.2249614"><ele>611.0</ele><time>2026-03-29T08:44:52.444Z</time></trkpt><trkpt lat="43.2422274" lon="12.2249107"><ele>611.0</ele><time>2026-03-29T08:44:53.444Z</time></trkpt><trkpt lat="43.2421958" lon="12.2247901"><ele>611.0</ele><time>2026-03-29T08:44:54.445Z</time></trkpt><trkpt lat="43.2421519" lon="12.2246823"><ele>611.4</ele><time>2026-03-29T08:44:56.444Z</time></trkpt><trkpt lat="43.2421102" lon="12.2245257"><ele>611.8</ele><time>2026-03-29T08:44:58.444Z</time></trkpt><trkpt lat="43.242044" lon="12.2245423"><ele>612.1999999999999</ele><time>2026-03-29T08:44:59.443Z</time></trkpt><trkpt lat="43.241912" lon="12.2245126"><ele>612.6</ele><time>2026-03-29T08:45:00.445Z</time></trkpt><trkpt lat="43.2418275" lon="12.2244261"><ele>613.0</ele><time>2026-03-29T08:45:01.444Z</time></trkpt><trkpt lat="43.2417865" lon="12.22436"><ele>613.0</ele><time>2026-03-29T08:45:02.444Z</time></trkpt><trkpt lat="43.2418092" lon="12.2241897"><ele>613.0</ele><time>2026-03-29T08:45:04.444Z</time></trkpt><trkpt lat="43.2418359" lon="12.224097"><ele>613.0</ele><time>2026-03-29T08:45:05.445Z</time></trkpt><trkpt lat="43.2418549" lon="12.2240122"><ele>613.0</ele><time>2026-03-29T08:45:06.444Z</time></trkpt><trkpt lat="43.2418677" lon="12.223925"><ele>613.0</ele><time>2026-03-29T08:45:07.444Z</time></trkpt><trkpt lat="43.2418476" lon="12.2237466"><ele>615.4</ele><time>2026-03-29T08:45:08.444Z</time></trkpt><trkpt lat="43.2418559" lon="12.2236168"><ele>617.8</ele><time>2026-03-29T08:45:09.445Z</time></trkpt><trkpt lat="43.2418554" lon="12.223528"><ele>620.2</ele><time>2026-03-29T08:45:10.445Z</time></trkpt><trkpt lat="43.2418606" lon="12.223418"><ele>622.6</ele><time>2026-03-29T08:45:11.445Z</time></trkpt><trkpt lat="43.2418003" lon="12.2232634"><ele>625.0</ele><time>2026-03-29T08:45:12.445Z</time></trkpt><trkpt lat="43.2417311" lon="12.2231474"><ele>624.1666666666667</ele><time>2026-03-29T08:45:13.445Z</time></trkpt><trkpt lat="43.2416535" lon="12.2230831"><ele>623.3333333333334</ele><time>2026-03-29T08:45:14.445Z</time></trkpt><trkpt lat="43.2415684" lon="12.2230711"><ele>622.5</ele><time>2026-03-29T08:45:16.445Z</time></trkpt><trkpt lat="43.2415094" lon="12.2230311"><ele>621.6666666666666</ele><time>2026-03-29T08:45:17.445Z</time></trkpt><trkpt lat="43.2415499" lon="12.2229554"><ele>620.8333333333333</ele><time>2026-03-29T08:45:19.445Z</time></trkpt><trkpt lat="43.2415878" lon="12.2228276"><ele>620.0</ele><time>2026-03-29T08:45:22.445Z</time></trkpt><trkpt lat="43.2415195" lon="12.2228197"><ele>617.4</ele><time>2026-03-29T08:45:33.445Z</time></trkpt><trkpt lat="43.2414652" lon="12.2227604"><ele>614.8</ele><time>2026-03-29T08:45:36.444Z</time></trkpt><trkpt lat="43.2414062" lon="12.2227103"><ele>612.2</ele><time>2026-03-29T08:45:38.444Z</time></trkpt><trkpt lat="43.2412785" lon="12.2225722"><ele>609.6</ele><time>2026-03-29T08:45:41.445Z</time></trkpt><trkpt lat="43.2413068" lon="12.2224669"><ele>607.0</ele><time>2026-03-29T08:45:42.445Z</time></trkpt><trkpt lat="43.2413208" lon="12.2223764"><ele>607.0</ele><time>2026-03-29T08:45:43.444Z</time></trkpt><trkpt lat="43.2413089" lon="12.2222432"><ele>607.0</ele><time>2026-03-29T08:45:45.445Z</time></trkpt><trkpt lat="43.2411859" lon="12.2222763"><ele>607.0</ele><time>2026-03-29T08:45:47.444Z</time></trkpt><trkpt lat="43.2410995" lon="12.2222935"><ele>607.0</ele><time>2026-03-29T08:45:48.444Z</time></trkpt><trkpt lat="43.2409673" lon="12.2223414"><ele>607.0</ele><time>2026-03-29T08:45:49.444Z</time></trkpt><trkpt lat="43.2408536" lon="12.2223913"><ele>607.0</ele><time>2026-03-29T08:45:50.445Z</time></trkpt><trkpt lat="43.240733" lon="12.222454"><ele>607.0</ele><time>2026-03-29T08:45:51.445Z</time></trkpt><trkpt lat="43.2406042" lon="12.2225198"><ele>607.0</ele><time>2026-03-29T08:45:52.444Z</time></trkpt><trkpt lat="43.2404701" lon="12.2225735"><ele>607.0</ele><time>2026-03-29T08:45:53.445Z</time></trkpt><trkpt lat="43.2401983" lon="12.2226127"><ele>604.75</ele><time>2026-03-29T08:45:55.444Z</time></trkpt><trkpt lat="43.2400717" lon="12.2225906"><ele>602.5</ele><time>2026-03-29T08:45:56.444Z</time></trkpt><trkpt lat="43.2399492" lon="12.2225348"><ele>600.25</ele><time>2026-03-29T08:45:57.444Z</time></trkpt><trkpt lat="43.2398106" lon="12.222473"><ele>598.0</ele><time>2026-03-29T08:45:58.445Z</time></trkpt><trkpt lat="43.2396642" lon="12.2223908"><ele>596.6666666666667</ele><time>2026-03-29T08:45:59.445Z</time></trkpt><trkpt lat="43.2395177" lon="12.2222982"><ele>595.3333333333334</ele><time>2026-03-29T08:46:00.445Z</time></trkpt><trkpt lat="43.2393699" lon="12.2221996"><ele>594.0</ele><time>2026-03-29T08:46:01.444Z</time></trkpt><trkpt lat="43.2392132" lon="12.2220947"><ele>594.0</ele><time>2026-03-29T08:46:02.445Z</time></trkpt><trkpt lat="43.2390618" lon="12.2220087"><ele>594.0</ele><time>2026-03-29T08:46:03.445Z</time></trkpt><trkpt lat="43.2389109" lon="12.2219277"><ele>594.0</ele><time>2026-03-29T08:46:04.445Z</time></trkpt><trkpt lat="43.2387627" lon="12.2218368"><ele>599.0</ele><time>2026-03-29T08:46:05.445Z</time></trkpt><trkpt lat="43.2386079" lon="12.2217472"><ele>604.0</ele><time>2026-03-29T08:46:06.445Z</time></trkpt><trkpt lat="43.238294" lon="12.2215536"><ele>600.5</ele><time>2026-03-29T08:46:08.444Z</time></trkpt><trkpt lat="43.2381458" lon="12.2214523"><ele>597.0</ele><time>2026-03-29T08:46:09.445Z</time></trkpt><trkpt lat="43.2380253" lon="12.221368"><ele>593.5</ele><time>2026-03-29T08:46:10.445Z</time></trkpt><trkpt lat="43.2379069" lon="12.2212967"><ele>590.0</ele><time>2026-03-29T08:46:11.444Z</time></trkpt><trkpt lat="43.2377935" lon="12.2212368"><ele>590.0</ele><time>2026-03-29T08:46:12.444Z</time></trkpt><trkpt lat="43.2376628" lon="12.221183"><ele>590.0</ele><time>2026-03-29T08:46:13.445Z</time></trkpt><trkpt lat="43.2375258" lon="12.2211484"><ele>590.0</ele><time>2026-03-29T08:46:14.444Z</time></trkpt><trkpt lat="43.2373492" lon="12.2211253"><ele>587.6666666666666</ele><time>2026-03-29T08:46:15.445Z</time></trkpt><trkpt lat="43.2371806" lon="12.2211016"><ele>585.3333333333334</ele><time>2026-03-29T08:46:16.445Z</time></trkpt><trkpt lat="43.2370243" lon="12.2210919"><ele>583.0</ele><time>2026-03-29T08:46:17.444Z</time></trkpt><trkpt lat="43.2368661" lon="12.2210718"><ele>583.0</ele><time>2026-03-29T08:46:18.445Z</time></trkpt><trkpt lat="43.2367267" lon="12.221037"><ele>583.0</ele><time>2026-03-29T08:46:19.444Z</time></trkpt><trkpt lat="43.2365936" lon="12.2209955"><ele>583.0</ele><time>2026-03-29T08:46:20.445Z</time></trkpt><trkpt lat="43.2364823" lon="12.2209288"><ele>583.0</ele><time>2026-03-29T08:46:21.445Z</time></trkpt><trkpt lat="43.236424" lon="12.2208375"><ele>579.0</ele><time>2026-03-29T08:46:22.445Z</time></trkpt><trkpt lat="43.2363792" lon="12.2207048"><ele>575.0</ele><time>2026-03-29T08:46:23.445Z</time></trkpt><trkpt lat="43.2363291" lon="12.2205545"><ele>571.0</ele><time>2026-03-29T08:46:24.444Z</time></trkpt><trkpt lat="43.2362814" lon="12.2203819"><ele>567.0</ele><time>2026-03-29T08:46:25.445Z</time></trkpt><trkpt lat="43.2362336" lon="12.2202049"><ele>567.0</ele><time>2026-03-29T08:46:26.444Z</time></trkpt><trkpt lat="43.2362" lon="12.2200324"><ele>567.0</ele><time>2026-03-29T08:46:27.445Z</time></trkpt><trkpt lat="43.2361754" lon="12.2198482"><ele>567.0</ele><time>2026-03-29T08:46:28.444Z</time></trkpt><trkpt lat="43.236147" lon="12.2196659"><ele>567.0</ele><time>2026-03-29T08:46:29.445Z</time></trkpt><trkpt lat="43.236122" lon="12.2194893"><ele>567.0</ele><time>2026-03-29T08:46:30.445Z</time></trkpt><trkpt lat="43.236098" lon="12.2193349"><ele>567.0</ele><time>2026-03-29T08:46:31.445Z</time></trkpt><trkpt lat="43.2360744" lon="12.21918"><ele>567.0</ele><time>2026-03-29T08:46:32.444Z</time></trkpt><trkpt lat="43.2360452" lon="12.2190386"><ele>567.0</ele><time>2026-03-29T08:46:33.444Z</time></trkpt><trkpt lat="43.236013" lon="12.2188979"><ele>567.0</ele><time>2026-03-29T08:46:34.445Z</time></trkpt><trkpt lat="43.2359455" lon="12.2187504"><ele>567.25</ele><time>2026-03-29T08:46:35.444Z</time></trkpt><trkpt lat="43.2358614" lon="12.2186207"><ele>567.5</ele><time>2026-03-29T08:46:36.445Z</time></trkpt><trkpt lat="43.235751" lon="12.2185215"><ele>567.75</ele><time>2026-03-29T08:46:37.444Z</time></trkpt><trkpt lat="43.2356362" lon="12.2184243"><ele>568.0</ele><time>2026-03-29T08:46:38.445Z</time></trkpt><trkpt lat="43.2355143" lon="12.2183363"><ele>567.0</ele><time>2026-03-29T08:46:39.444Z</time></trkpt><trkpt lat="43.2353822" lon="12.2182573"><ele>566.0</ele><time>2026-03-29T08:46:40.444Z</time></trkpt><trkpt lat="43.2352573" lon="12.2181986"><ele>565.0</ele><time>2026-03-29T08:46:41.444Z</time></trkpt><trkpt lat="43.235139" lon="12.2180803"><ele>564.0</ele><time>2026-03-29T08:46:42.444Z</time></trkpt><trkpt lat="43.2349881" lon="12.2179924"><ele>564.0</ele><time>2026-03-29T08:46:43.445Z</time></trkpt><trkpt lat="43.2348503" lon="12.2178895"><ele>564.0</ele><time>2026-03-29T08:46:44.444Z</time></trkpt><trkpt lat="43.2347421" lon="12.2177734"><ele>564.0</ele><time>2026-03-29T08:46:45.445Z</time></trkpt><trkpt lat="43.2346277" lon="12.2176484"><ele>564.0</ele><time>2026-03-29T08:46:46.445Z</time></trkpt><trkpt lat="43.2345245" lon="12.2174988"><ele>562.0</ele><time>2026-03-29T08:46:47.444Z</time></trkpt><trkpt lat="43.2344545" lon="12.2173292"><ele>560.0</ele><time>2026-03-29T08:46:48.444Z</time></trkpt><trkpt lat="43.2343838" lon="12.2171618"><ele>558.0</ele><time>2026-03-29T08:46:49.445Z</time></trkpt><trkpt lat="43.2343365" lon="12.2169653"><ele>556.0</ele><time>2026-03-29T08:46:50.445Z</time></trkpt><trkpt lat="43.2342753" lon="12.21678"><ele>556.0</ele><time>2026-03-29T08:46:51.445Z</time></trkpt><trkpt lat="43.2342305" lon="12.2165703"><ele>556.0</ele><time>2026-03-29T08:46:52.444Z</time></trkpt><trkpt lat="43.234193" lon="12.2163632"><ele>556.0</ele><time>2026-03-29T08:46:53.445Z</time></trkpt><trkpt lat="43.2341436" lon="12.2161763"><ele>555.25</ele><time>2026-03-29T08:46:54.445Z</time></trkpt><trkpt lat="43.2340785" lon="12.216004"><ele>554.5</ele><time>2026-03-29T08:46:55.445Z</time></trkpt><trkpt lat="43.2340066" lon="12.2158491"><ele>553.75</ele><time>2026-03-29T08:46:56.445Z</time></trkpt><trkpt lat="43.2339145" lon="12.2157279"><ele>553.0</ele><time>2026-03-29T08:46:57.444Z</time></trkpt><trkpt lat="43.2338468" lon="12.2155962"><ele>551.0</ele><time>2026-03-29T08:46:58.445Z</time></trkpt><trkpt lat="43.2337258" lon="12.2155215"><ele>549.0</ele><time>2026-03-29T08:46:59.445Z</time></trkpt><trkpt lat="43.2336493" lon="12.2153967"><ele>547.0</ele><time>2026-03-29T08:47:00.445Z</time></trkpt><trkpt lat="43.2336026" lon="12.2152757"><ele>545.0</ele><time>2026-03-29T08:47:01.445Z</time></trkpt><trkpt lat="43.2335609" lon="12.2151483"><ele>545.0</ele><time>2026-03-29T08:47:02.444Z</time></trkpt><trkpt lat="43.2335982" lon="12.2150142"><ele>545.0</ele><time>2026-03-29T08:47:03.445Z</time></trkpt><trkpt lat="43.2336212" lon="12.2148825"><ele>545.0</ele><time>2026-03-29T08:47:04.444Z</time></trkpt><trkpt lat="43.2336588" lon="12.2147468"><ele>545.0</ele><time>2026-03-29T08:47:05.444Z</time></trkpt><trkpt lat="43.2337118" lon="12.2146351"><ele>545.0</ele><time>2026-03-29T08:47:06.445Z</time></trkpt><trkpt lat="43.2338932" lon="12.2145792"><ele>544.5</ele><time>2026-03-29T08:47:07.443Z</time></trkpt><trkpt lat="43.2339701" lon="12.2144957"><ele>544.0</ele><time>2026-03-29T08:47:08.445Z</time></trkpt><trkpt lat="43.2340662" lon="12.214415"><ele>543.5</ele><time>2026-03-29T08:47:09.445Z</time></trkpt><trkpt lat="43.2342094" lon="12.2144041"><ele>543.0</ele><time>2026-03-29T08:47:10.445Z</time></trkpt><trkpt lat="43.2343448" lon="12.214361"><ele>543.0</ele><time>2026-03-29T08:47:11.444Z</time></trkpt><trkpt lat="43.2344608" lon="12.2144231"><ele>543.0</ele><time>2026-03-29T08:47:12.445Z</time></trkpt><trkpt lat="43.2345631" lon="12.2144161"><ele>543.0</ele><time>2026-03-29T08:47:13.444Z</time></trkpt><trkpt lat="43.234657" lon="12.2144748"><ele>543.0</ele><time>2026-03-29T08:47:14.445Z</time></trkpt><trkpt lat="43.2347253" lon="12.2145817"><ele>543.0</ele><time>2026-03-29T08:47:15.444Z</time></trkpt><trkpt lat="43.2347652" lon="12.2147024"><ele>542.5</ele><time>2026-03-29T08:47:16.444Z</time></trkpt><trkpt lat="43.2348177" lon="12.214885"><ele>542.0</ele><time>2026-03-29T08:47:17.444Z</time></trkpt><trkpt lat="43.2348716" lon="12.215061"><ele>541.5</ele><time>2026-03-29T08:47:18.444Z</time></trkpt><trkpt lat="43.2349157" lon="12.2151984"><ele>541.0</ele><time>2026-03-29T08:47:19.445Z</time></trkpt><trkpt lat="43.2349634" lon="12.2152945"><ele>541.0</ele><time>2026-03-29T08:47:20.444Z</time></trkpt><trkpt lat="43.2350074" lon="12.2153826"><ele>541.0</ele><time>2026-03-29T08:47:21.445Z</time></trkpt><trkpt lat="43.2351137" lon="12.2154667"><ele>541.0</ele><time>2026-03-29T08:47:23.444Z</time></trkpt><trkpt lat="43.2352312" lon="12.2154361"><ele>541.0</ele><time>2026-03-29T08:47:25.444Z</time></trkpt><trkpt lat="43.2352957" lon="12.2153849"><ele>541.0</ele><time>2026-03-29T08:47:26.444Z</time></trkpt><trkpt lat="43.2353501" lon="12.2153354"><ele>541.0</ele><time>2026-03-29T08:47:27.444Z</time></trkpt><trkpt lat="43.2353234" lon="12.2151814"><ele>541.0</ele><time>2026-03-29T08:47:29.444Z</time></trkpt><trkpt lat="43.2353099" lon="12.2150884"><ele>541.0</ele><time>2026-03-29T08:47:31.443Z</time></trkpt><trkpt lat="43.235271" lon="12.2149483"><ele>541.0</ele><time>2026-03-29T08:47:33.446Z</time></trkpt><trkpt lat="43.2352033" lon="12.2148257"><ele>541.0</ele><time>2026-03-29T08:47:34.445Z</time></trkpt><trkpt lat="43.2351657" lon="12.2147199"><ele>539.4</ele><time>2026-03-29T08:47:35.445Z</time></trkpt><trkpt lat="43.2351237" lon="12.2146086"><ele>537.8</ele><time>2026-03-29T08:47:36.444Z</time></trkpt><trkpt lat="43.2350947" lon="12.2144793"><ele>536.1999999999999</ele><time>2026-03-29T08:47:37.445Z</time></trkpt><trkpt lat="43.2350748" lon="12.2143309"><ele>534.6</ele><time>2026-03-29T08:47:38.445Z</time></trkpt><trkpt lat="43.2350539" lon="12.214176"><ele>533.0</ele><time>2026-03-29T08:47:39.445Z</time></trkpt><trkpt lat="43.2350354" lon="12.2140181"><ele>529.1999999999999</ele><time>2026-03-29T08:47:40.445Z</time></trkpt><trkpt lat="43.2349968" lon="12.2138439"><ele>525.4</ele><time>2026-03-29T08:47:41.445Z</time></trkpt><trkpt lat="43.2349672" lon="12.2137104"><ele>521.5999999999999</ele><time>2026-03-29T08:47:42.444Z</time></trkpt><trkpt lat="43.2349385" lon="12.2135662"><ele>517.8</ele><time>2026-03-29T08:47:43.444Z</time></trkpt><trkpt lat="43.2349108" lon="12.2134271"><ele>514.0</ele><time>2026-03-29T08:47:44.445Z</time></trkpt><trkpt lat="43.2348891" lon="12.2132967"><ele>514.0</ele><time>2026-03-29T08:47:45.445Z</time></trkpt><trkpt lat="43.2348705" lon="12.2131671"><ele>514.0</ele><time>2026-03-29T08:47:46.445Z</time></trkpt><trkpt lat="43.2348599" lon="12.2130484"><ele>514.0</ele><time>2026-03-29T08:47:47.445Z</time></trkpt><trkpt lat="43.2349435" lon="12.2129877"><ele>514.0</ele><time>2026-03-29T08:47:49.445Z</time></trkpt><trkpt lat="43.2350466" lon="12.2129533"><ele>514.0</ele><time>2026-03-29T08:47:50.444Z</time></trkpt><trkpt lat="43.2351314" lon="12.2129024"><ele>512.1666666666667</ele><time>2026-03-29T08:47:51.445Z</time></trkpt><trkpt lat="43.2352225" lon="12.2128618"><ele>510.33333333333337</ele><time>2026-03-29T08:47:52.445Z</time></trkpt><trkpt lat="43.2353163" lon="12.2128247"><ele>508.5</ele><time>2026-03-29T08:47:53.445Z</time></trkpt><trkpt lat="43.235412" lon="12.2127933"><ele>506.66666666666663</ele><time>2026-03-29T08:47:54.445Z</time></trkpt><trkpt lat="43.235478" lon="12.2127563"><ele>504.8333333333333</ele><time>2026-03-29T08:47:55.445Z</time></trkpt><trkpt lat="43.235542" lon="12.2127087"><ele>503.0</ele><time>2026-03-29T08:47:56.445Z</time></trkpt><trkpt lat="43.2356012" lon="12.2125815"><ele>502.99999999999994</ele><time>2026-03-29T08:47:58.445Z</time></trkpt><trkpt lat="43.2356079" lon="12.2124266"><ele>503.0</ele><time>2026-03-29T08:48:00.445Z</time></trkpt><trkpt lat="43.2355622" lon="12.2123519"><ele>503.0</ele><time>2026-03-29T08:48:01.445Z</time></trkpt><trkpt lat="43.2355158" lon="12.2122765"><ele>503.0</ele><time>2026-03-29T08:48:02.444Z</time></trkpt><trkpt lat="43.2354635" lon="12.2122263"><ele>502.99999999999994</ele><time>2026-03-29T08:48:03.445Z</time></trkpt><trkpt lat="43.2353555" lon="12.2122392"><ele>503.0</ele><time>2026-03-29T08:48:05.444Z</time></trkpt><trkpt lat="43.2352539" lon="12.2122956"><ele>503.0</ele><time>2026-03-29T08:48:06.445Z</time></trkpt><trkpt lat="43.2351188" lon="12.2123608"><ele>503.0</ele><time>2026-03-29T08:48:07.445Z</time></trkpt><trkpt lat="43.2350139" lon="12.212418"><ele>503.0</ele><time>2026-03-29T08:48:08.444Z</time></trkpt><trkpt lat="43.2349035" lon="12.2124711"><ele>503.0</ele><time>2026-03-29T08:48:09.444Z</time></trkpt><trkpt lat="43.2347903" lon="12.212527"><ele>502.75</ele><time>2026-03-29T08:48:10.444Z</time></trkpt><trkpt lat="43.2346783" lon="12.2125947"><ele>502.5</ele><time>2026-03-29T08:48:11.445Z</time></trkpt><trkpt lat="43.2345639" lon="12.2126438"><ele>502.25</ele><time>2026-03-29T08:48:12.445Z</time></trkpt><trkpt lat="43.2344508" lon="12.2126801"><ele>502.0</ele><time>2026-03-29T08:48:13.444Z</time></trkpt><trkpt lat="43.2343563" lon="12.2126952"><ele>502.00000000000006</ele><time>2026-03-29T08:48:14.445Z</time></trkpt><trkpt lat="43.2342616" lon="12.2127142"><ele>502.0</ele><time>2026-03-29T08:48:15.444Z</time></trkpt><trkpt lat="43.2342079" lon="12.2126461"><ele>502.0</ele><time>2026-03-29T08:48:16.445Z</time></trkpt><trkpt lat="43.2341689" lon="12.2125309"><ele>502.0</ele><time>2026-03-29T08:48:17.445Z</time></trkpt><trkpt lat="43.2341322" lon="12.2124453"><ele>502.00000000000006</ele><time>2026-03-29T08:48:18.445Z</time></trkpt><trkpt lat="43.2340822" lon="12.2123477"><ele>502.0</ele><time>2026-03-29T08:48:19.443Z</time></trkpt><trkpt lat="43.2340231" lon="12.2122506"><ele>501.0</ele><time>2026-03-29T08:48:20.444Z</time></trkpt><trkpt lat="43.2339699" lon="12.2121906"><ele>500.00000000000006</ele><time>2026-03-29T08:48:21.445Z</time></trkpt><trkpt lat="43.2338567" lon="12.2122377"><ele>499.00000000000006</ele><time>2026-03-29T08:48:22.445Z</time></trkpt><trkpt lat="43.2337616" lon="12.2122492"><ele>498.0</ele><time>2026-03-29T08:48:23.445Z</time></trkpt><trkpt lat="43.2336713" lon="12.2122938"><ele>497.0</ele><time>2026-03-29T08:48:24.445Z</time></trkpt><trkpt lat="43.2335794" lon="12.2123786"><ele>497.0</ele><time>2026-03-29T08:48:25.444Z</time></trkpt><trkpt lat="43.2334873" lon="12.2124712"><ele>497.00000000000006</ele><time>2026-03-29T08:48:26.444Z</time></trkpt><trkpt lat="43.2333976" lon="12.212562"><ele>497.00000000000006</ele><time>2026-03-29T08:48:27.445Z</time></trkpt><trkpt lat="43.2333271" lon="12.2126134"><ele>497.0</ele><time>2026-03-29T08:48:28.444Z</time></trkpt><trkpt lat="43.2332496" lon="12.2126705"><ele>497.0</ele><time>2026-03-29T08:48:29.445Z</time></trkpt><trkpt lat="43.2331728" lon="12.2126664"><ele>496.99999999999994</ele><time>2026-03-29T08:48:30.444Z</time></trkpt><trkpt lat="43.2331116" lon="12.2126017"><ele>497.0</ele><time>2026-03-29T08:48:31.445Z</time></trkpt><trkpt lat="43.233081" lon="12.2125164"><ele>497.0</ele><time>2026-03-29T08:48:32.444Z</time></trkpt><trkpt lat="43.2330154" lon="12.2124288"><ele>497.0</ele><time>2026-03-29T08:48:33.444Z</time></trkpt><trkpt lat="43.232966" lon="12.2123186"><ele>496.99999999999994</ele><time>2026-03-29T08:48:34.445Z</time></trkpt><trkpt lat="43.2328968" lon="12.2122347"><ele>497.0</ele><time>2026-03-29T08:48:35.444Z</time></trkpt><trkpt lat="43.2328254" lon="12.2121657"><ele>492.20000000000005</ele><time>2026-03-29T08:48:36.445Z</time></trkpt><trkpt lat="43.232717" lon="12.2122456"><ele>487.40000000000003</ele><time>2026-03-29T08:48:37.444Z</time></trkpt><trkpt lat="43.2326277" lon="12.2122137"><ele>482.59999999999997</ele><time>2026-03-29T08:48:38.445Z</time></trkpt><trkpt lat="43.2325284" lon="12.2122086"><ele>477.79999999999995</ele><time>2026-03-29T08:48:39.445Z</time></trkpt><trkpt lat="43.2324374" lon="12.212254"><ele>473.0</ele><time>2026-03-29T08:48:40.445Z</time></trkpt><trkpt lat="43.2323386" lon="12.2122732"><ele>473.2</ele><time>2026-03-29T08:48:41.445Z</time></trkpt><trkpt lat="43.2322463" lon="12.2122806"><ele>473.4</ele><time>2026-03-29T08:48:42.445Z</time></trkpt><trkpt lat="43.23216" lon="12.2121858"><ele>473.59999999999997</ele><time>2026-03-29T08:48:43.444Z</time></trkpt><trkpt lat="43.2320572" lon="12.2121503"><ele>473.79999999999995</ele><time>2026-03-29T08:48:44.445Z</time></trkpt><trkpt lat="43.232044" lon="12.2120512"><ele>474.0</ele><time>2026-03-29T08:48:45.444Z</time></trkpt><trkpt lat="43.2320072" lon="12.2119592"><ele>474.0</ele><time>2026-03-29T08:48:46.444Z</time></trkpt><trkpt lat="43.2319056" lon="12.2118869"><ele>474.0</ele><time>2026-03-29T08:48:48.445Z</time></trkpt><trkpt lat="43.2318297" lon="12.2119068"><ele>474.0</ele><time>2026-03-29T08:48:49.444Z</time></trkpt><trkpt lat="43.2317454" lon="12.2118976"><ele>474.0</ele><time>2026-03-29T08:48:50.445Z</time></trkpt><trkpt lat="43.2316194" lon="12.2119128"><ele>474.0</ele><time>2026-03-29T08:48:51.444Z</time></trkpt><trkpt lat="43.2314833" lon="12.2119647"><ele>473.3333333333333</ele><time>2026-03-29T08:48:52.445Z</time></trkpt><trkpt lat="43.2313919" lon="12.2119769"><ele>472.66666666666663</ele><time>2026-03-29T08:48:53.444Z</time></trkpt><trkpt lat="43.2312996" lon="12.2120025"><ele>472.0</ele><time>2026-03-29T08:48:54.444Z</time></trkpt><trkpt lat="43.2312165" lon="12.2120071"><ele>471.3333333333333</ele><time>2026-03-29T08:48:55.444Z</time></trkpt><trkpt lat="43.2311188" lon="12.2120034"><ele>470.66666666666663</ele><time>2026-03-29T08:48:56.445Z</time></trkpt><trkpt lat="43.231067" lon="12.211954"><ele>470.0</ele><time>2026-03-29T08:48:57.444Z</time></trkpt><trkpt lat="43.2309944" lon="12.2119109"><ele>469.99999999999994</ele><time>2026-03-29T08:48:58.445Z</time></trkpt><trkpt lat="43.2309225" lon="12.2118425"><ele>470.0</ele><time>2026-03-29T08:48:59.445Z</time></trkpt><trkpt lat="43.2308507" lon="12.2117124"><ele>470.0</ele><time>2026-03-29T08:49:01.445Z</time></trkpt><trkpt lat="43.2307957" lon="12.2116382"><ele>470.0</ele><time>2026-03-29T08:49:02.444Z</time></trkpt><trkpt lat="43.2307422" lon="12.2115652"><ele>469.99999999999994</ele><time>2026-03-29T08:49:03.444Z</time></trkpt><trkpt lat="43.2306881" lon="12.2114785"><ele>470.0</ele><time>2026-03-29T08:49:04.445Z</time></trkpt><trkpt lat="43.2306541" lon="12.2113861"><ele>467.8</ele><time>2026-03-29T08:49:05.444Z</time></trkpt><trkpt lat="43.2306317" lon="12.2112847"><ele>465.6</ele><time>2026-03-29T08:49:06.444Z</time></trkpt><trkpt lat="43.2306319" lon="12.211169"><ele>463.4</ele><time>2026-03-29T08:49:07.445Z</time></trkpt><trkpt lat="43.2306488" lon="12.2110479"><ele>461.2</ele><time>2026-03-29T08:49:08.445Z</time></trkpt><trkpt lat="43.2306792" lon="12.2109194"><ele>459.0</ele><time>2026-03-29T08:49:09.445Z</time></trkpt><trkpt lat="43.2307181" lon="12.2107846"><ele>457.25</ele><time>2026-03-29T08:49:10.446Z</time></trkpt><trkpt lat="43.2307571" lon="12.2106403"><ele>455.5</ele><time>2026-03-29T08:49:11.446Z</time></trkpt><trkpt lat="43.2307927" lon="12.2104904"><ele>453.75</ele><time>2026-03-29T08:49:12.446Z</time></trkpt><trkpt lat="43.2308353" lon="12.2103414"><ele>452.0</ele><time>2026-03-29T08:49:13.445Z</time></trkpt><trkpt lat="43.2308778" lon="12.2101887"><ele>452.0</ele><time>2026-03-29T08:49:14.445Z</time></trkpt><trkpt lat="43.2309178" lon="12.2100292"><ele>452.0</ele><time>2026-03-29T08:49:15.445Z</time></trkpt><trkpt lat="43.230961" lon="12.2098701"><ele>452.0</ele><time>2026-03-29T08:49:16.446Z</time></trkpt><trkpt lat="43.2310016" lon="12.2097078"><ele>452.0</ele><time>2026-03-29T08:49:17.445Z</time></trkpt><trkpt lat="43.2310458" lon="12.2095446"><ele>452.0</ele><time>2026-03-29T08:49:18.446Z</time></trkpt><trkpt lat="43.2310856" lon="12.2093795"><ele>452.0</ele><time>2026-03-29T08:49:19.445Z</time></trkpt><trkpt lat="43.2311286" lon="12.2092176"><ele>452.0</ele><time>2026-03-29T08:49:20.446Z</time></trkpt><trkpt lat="43.2311679" lon="12.2090589"><ele>452.0</ele><time>2026-03-29T08:49:21.445Z</time></trkpt><trkpt lat="43.2311996" lon="12.2088937"><ele>450.75</ele><time>2026-03-29T08:49:22.445Z</time></trkpt><trkpt lat="43.2312271" lon="12.2087247"><ele>449.5</ele><time>2026-03-29T08:49:23.445Z</time></trkpt><trkpt lat="43.23125" lon="12.2085614"><ele>448.25</ele><time>2026-03-29T08:49:24.446Z</time></trkpt><trkpt lat="43.2312679" lon="12.2083979"><ele>447.0</ele><time>2026-03-29T08:49:25.445Z</time></trkpt><trkpt lat="43.2312872" lon="12.2082425"><ele>447.0</ele><time>2026-03-29T08:49:26.446Z</time></trkpt><trkpt lat="43.2313014" lon="12.2080943"><ele>447.00000000000006</ele><time>2026-03-29T08:49:27.446Z</time></trkpt><trkpt lat="43.2313229" lon="12.2079525"><ele>447.00000000000006</ele><time>2026-03-29T08:49:28.445Z</time></trkpt><trkpt lat="43.2313344" lon="12.2078326"><ele>447.0</ele><time>2026-03-29T08:49:29.446Z</time></trkpt><trkpt lat="43.2313374" lon="12.2077249"><ele>447.0</ele><time>2026-03-29T08:49:30.445Z</time></trkpt><trkpt lat="43.2313399" lon="12.2075749"><ele>447.0</ele><time>2026-03-29T08:49:32.445Z</time></trkpt><trkpt lat="43.2313483" lon="12.2074535"><ele>447.00000000000006</ele><time>2026-03-29T08:49:34.445Z</time></trkpt><trkpt lat="43.2313645" lon="12.2072601"><ele>447.00000000000006</ele><time>2026-03-29T08:49:36.445Z</time></trkpt><trkpt lat="43.2313835" lon="12.2071492"><ele>447.0</ele><time>2026-03-29T08:49:37.446Z</time></trkpt><trkpt lat="43.2313828" lon="12.2070395"><ele>447.0</ele><time>2026-03-29T08:49:38.445Z</time></trkpt><trkpt lat="43.2313802" lon="12.2069427"><ele>448.75</ele><time>2026-03-29T08:49:39.445Z</time></trkpt><trkpt lat="43.2312769" lon="12.2068853"><ele>450.5</ele><time>2026-03-29T08:49:41.445Z</time></trkpt><trkpt lat="43.2311703" lon="12.2067961"><ele>452.25</ele><time>2026-03-29T08:49:43.446Z</time></trkpt><trkpt lat="43.2310395" lon="12.2068693"><ele>454.0</ele><time>2026-03-29T08:49:45.445Z</time></trkpt><trkpt lat="43.2309551" lon="12.2069552"><ele>454.0</ele><time>2026-03-29T08:49:47.445Z</time></trkpt><trkpt lat="43.2308973" lon="12.2070023"><ele>454.0</ele><time>2026-03-29T08:49:48.445Z</time></trkpt><trkpt lat="43.230792" lon="12.207115"><ele>454.0</ele><time>2026-03-29T08:49:50.445Z</time></trkpt><trkpt lat="43.2306942" lon="12.2071588"><ele>454.0</ele><time>2026-03-29T08:49:52.445Z</time></trkpt><trkpt lat="43.230618" lon="12.2071883"><ele>454.0</ele><time>2026-03-29T08:49:53.446Z</time></trkpt><trkpt lat="43.2305588" lon="12.2072484"><ele>452.6</ele><time>2026-03-29T08:49:54.446Z</time></trkpt><trkpt lat="43.2304506" lon="12.2073321"><ele>451.2</ele><time>2026-03-29T08:49:56.446Z</time></trkpt><trkpt lat="43.2303903" lon="12.2073878"><ele>449.80000000000007</ele><time>2026-03-29T08:49:57.446Z</time></trkpt><trkpt lat="43.2302891" lon="12.2074525"><ele>448.40000000000003</ele><time>2026-03-29T08:49:59.446Z</time></trkpt><trkpt lat="43.2302346" lon="12.2075098"><ele>447.0</ele><time>2026-03-29T08:50:00.446Z</time></trkpt><trkpt lat="43.2301548" lon="12.2074951"><ele>447.0</ele><time>2026-03-29T08:50:02.446Z</time></trkpt><trkpt lat="43.2300496" lon="12.2075233"><ele>447.00000000000006</ele><time>2026-03-29T08:50:04.446Z</time></trkpt><trkpt lat="43.2299743" lon="12.2075564"><ele>447.00000000000006</ele><time>2026-03-29T08:50:06.445Z</time></trkpt><trkpt lat="43.2298746" lon="12.2075846"><ele>447.0</ele><time>2026-03-29T08:50:09.446Z</time></trkpt><trkpt lat="43.229757" lon="12.2076705"><ele>447.0</ele><time>2026-03-29T08:50:11.445Z</time></trkpt><trkpt lat="43.2295918" lon="12.2077524"><ele>446.6666666666667</ele><time>2026-03-29T08:50:13.445Z</time></trkpt><trkpt lat="43.2295189" lon="12.2077996"><ele>446.33333333333337</ele><time>2026-03-29T08:50:14.445Z</time></trkpt><trkpt lat="43.2294473" lon="12.2078141"><ele>446.0</ele><time>2026-03-29T08:50:15.445Z</time></trkpt><trkpt lat="43.2293368" lon="12.2078791"><ele>445.6666666666667</ele><time>2026-03-29T08:50:16.445Z</time></trkpt><trkpt lat="43.2292743" lon="12.2078368"><ele>445.33333333333337</ele><time>2026-03-29T08:50:18.446Z</time></trkpt><trkpt lat="43.2291998" lon="12.2077922"><ele>445.0</ele><time>2026-03-29T08:50:20.446Z</time></trkpt><trkpt lat="43.2291008" lon="12.2077428"><ele>445.0</ele><time>2026-03-29T08:50:22.445Z</time></trkpt><trkpt lat="43.2289875" lon="12.2077356"><ele>445.0</ele><time>2026-03-29T08:50:23.445Z</time></trkpt><trkpt lat="43.2288993" lon="12.2077441"><ele>445.0</ele><time>2026-03-29T08:50:25.446Z</time></trkpt><trkpt lat="43.2288292" lon="12.2077847"><ele>445.0</ele><time>2026-03-29T08:50:26.445Z</time></trkpt><trkpt lat="43.2287475" lon="12.2078188"><ele>445.0</ele><time>2026-03-29T08:50:27.445Z</time></trkpt><trkpt lat="43.2286025" lon="12.2079012"><ele>444.2</ele><time>2026-03-29T08:50:29.445Z</time></trkpt><trkpt lat="43.2284875" lon="12.2079376"><ele>443.4</ele><time>2026-03-29T08:50:31.446Z</time></trkpt><trkpt lat="43.2284139" lon="12.2079523"><ele>442.6</ele><time>2026-03-29T08:50:34.446Z</time></trkpt><trkpt lat="43.2284844" lon="12.20805"><ele>441.8</ele><time>2026-03-29T08:50:37.445Z</time></trkpt><trkpt lat="43.2285715" lon="12.2080968"><ele>441.0</ele><time>2026-03-29T08:50:39.445Z</time></trkpt><trkpt lat="43.2286296" lon="12.2081419"><ele>436.20000000000005</ele><time>2026-03-29T08:50:40.446Z</time></trkpt><trkpt lat="43.2287048" lon="12.2081941"><ele>431.40000000000003</ele><time>2026-03-29T08:50:42.445Z</time></trkpt><trkpt lat="43.2287326" lon="12.2083098"><ele>426.6</ele><time>2026-03-29T08:50:43.445Z</time></trkpt><trkpt lat="43.2287468" lon="12.2084643"><ele>421.8</ele><time>2026-03-29T08:50:45.446Z</time></trkpt><trkpt lat="43.2286613" lon="12.208574"><ele>417.0</ele><time>2026-03-29T08:50:47.445Z</time></trkpt><trkpt lat="43.2285774" lon="12.2086581"><ele>417.0</ele><time>2026-03-29T08:50:49.445Z</time></trkpt><trkpt lat="43.2284438" lon="12.2086673"><ele>417.0</ele><time>2026-03-29T08:50:51.446Z</time></trkpt><trkpt lat="43.2283691" lon="12.2086768"><ele>417.0</ele><time>2026-03-29T08:50:52.446Z</time></trkpt><trkpt lat="43.2282602" lon="12.2086181"><ele>417.0</ele><time>2026-03-29T08:50:53.446Z</time></trkpt><trkpt lat="43.2281787" lon="12.2086034"><ele>417.0</ele><time>2026-03-29T08:50:54.445Z</time></trkpt><trkpt lat="43.2281071" lon="12.2086245"><ele>417.3333333333333</ele><time>2026-03-29T08:50:57.445Z</time></trkpt><trkpt lat="43.2280932" lon="12.2087169"><ele>417.66666666666663</ele><time>2026-03-29T08:50:59.444Z</time></trkpt><trkpt lat="43.2280831" lon="12.2088132"><ele>418.0</ele><time>2026-03-29T08:51:00.446Z</time></trkpt><trkpt lat="43.2280457" lon="12.2088881"><ele>418.3333333333333</ele><time>2026-03-29T08:51:01.445Z</time></trkpt><trkpt lat="43.2279513" lon="12.2090089"><ele>418.66666666666663</ele><time>2026-03-29T08:51:03.445Z</time></trkpt><trkpt lat="43.2279099" lon="12.209104"><ele>419.0</ele><time>2026-03-29T08:51:05.445Z</time></trkpt><trkpt lat="43.2278631" lon="12.2091887"><ele>412.79999999999995</ele><time>2026-03-29T08:51:07.445Z</time></trkpt><trkpt lat="43.2277622" lon="12.2091953"><ele>406.59999999999997</ele><time>2026-03-29T08:51:10.445Z</time></trkpt><trkpt lat="43.2276944" lon="12.2091688"><ele>400.4</ele><time>2026-03-29T08:51:11.446Z</time></trkpt><trkpt lat="43.2276094" lon="12.2091748"><ele>394.2</ele><time>2026-03-29T08:51:12.445Z</time></trkpt><trkpt lat="43.2274459" lon="12.2092286"><ele>388.0</ele><time>2026-03-29T08:51:14.445Z</time></trkpt><trkpt lat="43.2273685" lon="12.2092178"><ele>388.59999999999997</ele><time>2026-03-29T08:51:15.446Z</time></trkpt><trkpt lat="43.2272995" lon="12.2092582"><ele>389.2</ele><time>2026-03-29T08:51:16.446Z</time></trkpt><trkpt lat="43.2271945" lon="12.2092624"><ele>389.8</ele><time>2026-03-29T08:51:17.446Z</time></trkpt><trkpt lat="43.227094" lon="12.2092732"><ele>390.4</ele><time>2026-03-29T08:51:18.445Z</time></trkpt><trkpt lat="43.2270022" lon="12.2092543"><ele>391.0</ele><time>2026-03-29T08:51:19.445Z</time></trkpt><trkpt lat="43.2269021" lon="12.2092584"><ele>391.00000000000006</ele><time>2026-03-29T08:51:20.446Z</time></trkpt><trkpt lat="43.2267966" lon="12.2092548"><ele>391.0</ele><time>2026-03-29T08:51:21.445Z</time></trkpt><trkpt lat="43.2267304" lon="12.2092306"><ele>391.0</ele><time>2026-03-29T08:51:22.445Z</time></trkpt><trkpt lat="43.2266672" lon="12.2091937"><ele>391.0</ele><time>2026-03-29T08:51:23.446Z</time></trkpt><trkpt lat="43.2265988" lon="12.2091062"><ele>391.00000000000006</ele><time>2026-03-29T08:51:24.446Z</time></trkpt><trkpt lat="43.2265027" lon="12.20909"><ele>391.0</ele><time>2026-03-29T08:51:25.445Z</time></trkpt><trkpt lat="43.2263884" lon="12.2090649"><ele>394.5</ele><time>2026-03-29T08:51:27.446Z</time></trkpt><trkpt lat="43.2262825" lon="12.2090865"><ele>398.0</ele><time>2026-03-29T08:51:29.445Z</time></trkpt><trkpt lat="43.2262325" lon="12.2092407"><ele>401.5</ele><time>2026-03-29T08:51:31.445Z</time></trkpt><trkpt lat="43.2261604" lon="12.2094073"><ele>405.0</ele><time>2026-03-29T08:51:33.446Z</time></trkpt><trkpt lat="43.2261284" lon="12.2095256"><ele>404.99999999999994</ele><time>2026-03-29T08:51:34.445Z</time></trkpt><trkpt lat="43.2260879" lon="12.2096267"><ele>405.0</ele><time>2026-03-29T08:51:35.446Z</time></trkpt><trkpt lat="43.2260403" lon="12.2097064"><ele>405.0</ele><time>2026-03-29T08:51:36.446Z</time></trkpt><trkpt lat="43.225999" lon="12.2097962"><ele>405.0</ele><time>2026-03-29T08:51:37.446Z</time></trkpt><trkpt lat="43.2259418" lon="12.2098579"><ele>405.0</ele><time>2026-03-29T08:51:38.446Z</time></trkpt><trkpt lat="43.2258965" lon="12.2099239"><ele>404.99999999999994</ele><time>2026-03-29T08:51:39.446Z</time></trkpt><trkpt lat="43.2258514" lon="12.2099956"><ele>405.0</ele><time>2026-03-29T08:51:40.445Z</time></trkpt><trkpt lat="43.2257713" lon="12.2100301"><ele>398.6</ele><time>2026-03-29T08:51:41.445Z</time></trkpt><trkpt lat="43.2257266" lon="12.210126"><ele>392.2</ele><time>2026-03-29T08:51:43.445Z</time></trkpt><trkpt lat="43.2256575" lon="12.2102089"><ele>385.79999999999995</ele><time>2026-03-29T08:51:45.445Z</time></trkpt><trkpt lat="43.225569" lon="12.2102747"><ele>379.4</ele><time>2026-03-29T08:51:47.445Z</time></trkpt><trkpt lat="43.225473" lon="12.2103362"><ele>373.0</ele><time>2026-03-29T08:51:49.445Z</time></trkpt><trkpt lat="43.22542" lon="12.2104013"><ele>372.79999999999995</ele><time>2026-03-29T08:51:50.446Z</time></trkpt><trkpt lat="43.2253391" lon="12.2104255"><ele>372.6</ele><time>2026-03-29T08:51:51.446Z</time></trkpt><trkpt lat="43.2252832" lon="12.2104678"><ele>372.4</ele><time>2026-03-29T08:51:52.446Z</time></trkpt><trkpt lat="43.2251734" lon="12.2105363"><ele>372.20000000000005</ele><time>2026-03-29T08:51:54.445Z</time></trkpt><trkpt lat="43.2250572" lon="12.2105913"><ele>372.0</ele><time>2026-03-29T08:51:56.446Z</time></trkpt><trkpt lat="43.2249691" lon="12.2105979"><ele>372.0</ele><time>2026-03-29T08:52:00.446Z</time></trkpt><trkpt lat="43.2248815" lon="12.2106323"><ele>372.0</ele><time>2026-03-29T08:52:02.445Z</time></trkpt><trkpt lat="43.2247838" lon="12.2106429"><ele>372.0</ele><time>2026-03-29T08:52:04.445Z</time></trkpt><trkpt lat="43.2247119" lon="12.2106556"><ele>372.0</ele><time>2026-03-29T08:52:05.446Z</time></trkpt><trkpt lat="43.22463" lon="12.2106596"><ele>372.0</ele><time>2026-03-29T08:52:06.445Z</time></trkpt><trkpt lat="43.2245381" lon="12.2106576"><ele>372.0</ele><time>2026-03-29T08:52:07.445Z</time></trkpt><trkpt lat="43.2244445" lon="12.210653"><ele>370.0</ele><time>2026-03-29T08:52:08.445Z</time></trkpt><trkpt lat="43.2243259" lon="12.2106557"><ele>368.0</ele><time>2026-03-29T08:52:10.444Z</time></trkpt><trkpt lat="43.2242615" lon="12.2106547"><ele>366.0</ele><time>2026-03-29T08:52:11.446Z</time></trkpt><trkpt lat="43.2242011" lon="12.2106839"><ele>364.0</ele><time>2026-03-29T08:52:12.446Z</time></trkpt><trkpt lat="43.2241109" lon="12.2105994"><ele>362.0</ele><time>2026-03-29T08:52:16.446Z</time></trkpt><trkpt lat="43.2239858" lon="12.2105306"><ele>357.8</ele><time>2026-03-29T08:52:18.446Z</time></trkpt><trkpt lat="43.2238819" lon="12.2105014"><ele>353.6</ele><time>2026-03-29T08:52:20.445Z</time></trkpt><trkpt lat="43.2237754" lon="12.210354"><ele>349.40000000000003</ele><time>2026-03-29T08:52:22.445Z</time></trkpt><trkpt lat="43.2237086" lon="12.2102548"><ele>345.20000000000005</ele><time>2026-03-29T08:52:23.445Z</time></trkpt><trkpt lat="43.223644" lon="12.2101889"><ele>341.0</ele><time>2026-03-29T08:52:24.445Z</time></trkpt><trkpt lat="43.2235544" lon="12.2100835"><ele>341.0</ele><time>2026-03-29T08:52:26.445Z</time></trkpt><trkpt lat="43.223484" lon="12.2100149"><ele>341.0</ele><time>2026-03-29T08:52:28.446Z</time></trkpt><trkpt lat="43.2233997" lon="12.2099236"><ele>341.0</ele><time>2026-03-29T08:52:30.445Z</time></trkpt><trkpt lat="43.2233138" lon="12.2098557"><ele>341.0</ele><time>2026-03-29T08:52:31.446Z</time></trkpt><trkpt lat="43.2232362" lon="12.2097868"><ele>341.0</ele><time>2026-03-29T08:52:32.445Z</time></trkpt><trkpt lat="43.2231693" lon="12.2096472"><ele>340.5</ele><time>2026-03-29T08:52:34.446Z</time></trkpt><trkpt lat="43.2231209" lon="12.2095738"><ele>340.0</ele><time>2026-03-29T08:52:35.446Z</time></trkpt><trkpt lat="43.2230727" lon="12.2095088"><ele>339.5</ele><time>2026-03-29T08:52:36.445Z</time></trkpt><trkpt lat="43.2229392" lon="12.2095173"><ele>339.0</ele><time>2026-03-29T08:52:37.445Z</time></trkpt><trkpt lat="43.2228655" lon="12.2094828"><ele>338.5</ele><time>2026-03-29T08:52:38.445Z</time></trkpt><trkpt lat="43.2227849" lon="12.2094421"><ele>338.0</ele><time>2026-03-29T08:52:39.445Z</time></trkpt><trkpt lat="43.2226492" lon="12.2093544"><ele>338.0</ele><time>2026-03-29T08:52:41.445Z</time></trkpt><trkpt lat="43.222583" lon="12.2093056"><ele>338.0</ele><time>2026-03-29T08:52:42.446Z</time></trkpt><trkpt lat="43.2225116" lon="12.2092436"><ele>338.0</ele><time>2026-03-29T08:52:43.446Z</time></trkpt><trkpt lat="43.2224268" lon="12.2091433"><ele>338.0</ele><time>2026-03-29T08:52:44.445Z</time></trkpt><trkpt lat="43.2223559" lon="12.2090637"><ele>338.0</ele><time>2026-03-29T08:52:45.446Z</time></trkpt><trkpt lat="43.2222669" lon="12.2089844"><ele>337.0</ele><time>2026-03-29T08:52:46.445Z</time></trkpt><trkpt lat="43.2221837" lon="12.2089094"><ele>336.0</ele><time>2026-03-29T08:52:47.445Z</time></trkpt><trkpt lat="43.2221624" lon="12.2088134"><ele>335.0</ele><time>2026-03-29T08:52:48.445Z</time></trkpt><trkpt lat="43.2221096" lon="12.2087592"><ele>334.0</ele><time>2026-03-29T08:52:49.446Z</time></trkpt><trkpt lat="43.2220539" lon="12.208702"><ele>333.0</ele><time>2026-03-29T08:52:50.445Z</time></trkpt><trkpt lat="43.2219672" lon="12.2086084"><ele>332.0</ele><time>2026-03-29T08:52:51.446Z</time></trkpt><trkpt lat="43.221896" lon="12.2085384"><ele>332.0</ele><time>2026-03-29T08:52:52.446Z</time></trkpt><trkpt lat="43.221805" lon="12.2084264"><ele>332.0</ele><time>2026-03-29T08:52:53.445Z</time></trkpt><trkpt lat="43.2217264" lon="12.2083289"><ele>332.0</ele><time>2026-03-29T08:52:54.446Z</time></trkpt><trkpt lat="43.2216272" lon="12.2082285"><ele>332.0</ele><time>2026-03-29T08:52:55.446Z</time></trkpt><trkpt lat="43.2215413" lon="12.2081484"><ele>332.8</ele><time>2026-03-29T08:52:56.446Z</time></trkpt><trkpt lat="43.2214446" lon="12.2080686"><ele>333.6</ele><time>2026-03-29T08:52:57.445Z</time></trkpt><trkpt lat="43.2213563" lon="12.2080146"><ele>334.40000000000003</ele><time>2026-03-29T08:52:58.445Z</time></trkpt><trkpt lat="43.2212698" lon="12.2079651"><ele>335.20000000000005</ele><time>2026-03-29T08:52:59.445Z</time></trkpt><trkpt lat="43.2211951" lon="12.207916"><ele>336.0</ele><time>2026-03-29T08:53:00.446Z</time></trkpt><trkpt lat="43.2211119" lon="12.2078712"><ele>336.0</ele><time>2026-03-29T08:53:01.446Z</time></trkpt><trkpt lat="43.2210143" lon="12.2078786"><ele>336.0</ele><time>2026-03-29T08:53:03.446Z</time></trkpt><trkpt lat="43.2209326" lon="12.2078846"><ele>336.0</ele><time>2026-03-29T08:53:04.446Z</time></trkpt><trkpt lat="43.2208561" lon="12.207882"><ele>336.0</ele><time>2026-03-29T08:53:05.445Z</time></trkpt><trkpt lat="43.2207381" lon="12.2079171"><ele>336.0</ele><time>2026-03-29T08:53:07.446Z</time></trkpt><trkpt lat="43.2206651" lon="12.2078686"><ele>334.2857142857143</ele><time>2026-03-29T08:53:08.446Z</time></trkpt><trkpt lat="43.2206044" lon="12.2078329"><ele>332.57142857142856</ele><time>2026-03-29T08:53:09.446Z</time></trkpt><trkpt lat="43.220523" lon="12.2078452"><ele>330.8571428571429</ele><time>2026-03-29T08:53:11.446Z</time></trkpt><trkpt lat="43.2204548" lon="12.2078661"><ele>329.1428571428571</ele><time>2026-03-29T08:53:13.445Z</time></trkpt><trkpt lat="43.2203839" lon="12.2078848"><ele>327.42857142857144</ele><time>2026-03-29T08:53:16.445Z</time></trkpt><trkpt lat="43.2203441" lon="12.2079667"><ele>325.7142857142857</ele><time>2026-03-29T08:53:19.445Z</time></trkpt><trkpt lat="43.2202738" lon="12.2079788"><ele>324.0</ele><time>2026-03-29T08:53:27.445Z</time></trkpt><trkpt lat="43.220203" lon="12.2079328"><ele>324.0</ele><time>2026-03-29T08:53:32.446Z</time></trkpt><trkpt lat="43.2201273" lon="12.2079096"><ele>324.0</ele><time>2026-03-29T08:54:00.445Z</time></trkpt><trkpt lat="43.2200125" lon="12.2078463"><ele>324.0</ele><time>2026-03-29T08:54:02.446Z</time></trkpt><trkpt lat="43.2199615" lon="12.2077557"><ele>324.0</ele><time>2026-03-29T08:54:03.446Z</time></trkpt><trkpt lat="43.2199121" lon="12.207668"><ele>324.0</ele><time>2026-03-29T08:54:04.446Z</time></trkpt><trkpt lat="43.2198651" lon="12.207569"><ele>324.0</ele><time>2026-03-29T08:54:05.446Z</time></trkpt><trkpt lat="43.2198413" lon="12.2073819"><ele>324.0</ele><time>2026-03-29T08:54:06.445Z</time></trkpt><trkpt lat="43.2198057" lon="12.2072409"><ele>324.0</ele><time>2026-03-29T08:54:07.445Z</time></trkpt><trkpt lat="43.2197676" lon="12.2070829"><ele>324.0</ele><time>2026-03-29T08:54:08.446Z</time></trkpt><trkpt lat="43.2197227" lon="12.2069205"><ele>323.0</ele><time>2026-03-29T08:54:09.446Z</time></trkpt><trkpt lat="43.2196508" lon="12.2067327"><ele>322.0</ele><time>2026-03-29T08:54:10.446Z</time></trkpt><trkpt lat="43.2195893" lon="12.2065705"><ele>321.0</ele><time>2026-03-29T08:54:11.445Z</time></trkpt><trkpt lat="43.2195021" lon="12.2063276"><ele>320.3333333333333</ele><time>2026-03-29T08:54:12.446Z</time></trkpt><trkpt lat="43.2194308" lon="12.2061278"><ele>319.66666666666663</ele><time>2026-03-29T08:54:13.445Z</time></trkpt><trkpt lat="43.2193886" lon="12.2059401"><ele>319.0</ele><time>2026-03-29T08:54:14.446Z</time></trkpt><trkpt lat="43.2193418" lon="12.2057419"><ele>319.25</ele><time>2026-03-29T08:54:15.445Z</time></trkpt><trkpt lat="43.2192896" lon="12.2055548"><ele>319.5</ele><time>2026-03-29T08:54:16.446Z</time></trkpt><trkpt lat="43.2192517" lon="12.2053689"><ele>319.75</ele><time>2026-03-29T08:54:17.446Z</time></trkpt><trkpt lat="43.2192226" lon="12.2051842"><ele>320.0</ele><time>2026-03-29T08:54:18.445Z</time></trkpt><trkpt lat="43.2192124" lon="12.2050024"><ele>320.0</ele><time>2026-03-29T08:54:19.445Z</time></trkpt><trkpt lat="43.2192036" lon="12.2048301"><ele>320.0</ele><time>2026-03-29T08:54:20.446Z</time></trkpt><trkpt lat="43.2192031" lon="12.2046572"><ele>320.0</ele><time>2026-03-29T08:54:21.445Z</time></trkpt><trkpt lat="43.2192164" lon="12.2044928"><ele>320.0</ele><time>2026-03-29T08:54:22.446Z</time></trkpt><trkpt lat="43.2192934" lon="12.2043813"><ele>320.2</ele><time>2026-03-29T08:54:23.446Z</time></trkpt><trkpt lat="43.2193412" lon="12.2042517"><ele>320.4</ele><time>2026-03-29T08:54:24.446Z</time></trkpt><trkpt lat="43.219385" lon="12.2041167"><ele>320.6</ele><time>2026-03-29T08:54:25.445Z</time></trkpt><trkpt lat="43.2194257" lon="12.2039813"><ele>320.8</ele><time>2026-03-29T08:54:26.445Z</time></trkpt><trkpt lat="43.2194719" lon="12.2038499"><ele>321.0</ele><time>2026-03-29T08:54:27.446Z</time></trkpt><trkpt lat="43.2194877" lon="12.203713"><ele>320.25</ele><time>2026-03-29T08:54:28.445Z</time></trkpt><trkpt lat="43.2195189" lon="12.2035694"><ele>319.5</ele><time>2026-03-29T08:54:29.445Z</time></trkpt><trkpt lat="43.2195643" lon="12.2033906"><ele>318.75</ele><time>2026-03-29T08:54:30.446Z</time></trkpt><trkpt lat="43.2196138" lon="12.2032561"><ele>318.0</ele><time>2026-03-29T08:54:31.444Z</time></trkpt><trkpt lat="43.2196718" lon="12.2031046"><ele>318.0</ele><time>2026-03-29T08:54:32.445Z</time></trkpt><trkpt lat="43.2197401" lon="12.202953"><ele>318.0</ele><time>2026-03-29T08:54:33.446Z</time></trkpt><trkpt lat="43.2198081" lon="12.2028009"><ele>318.0</ele><time>2026-03-29T08:54:34.445Z</time></trkpt><trkpt lat="43.2198757" lon="12.2026481"><ele>318.0</ele><time>2026-03-29T08:54:35.445Z</time></trkpt><trkpt lat="43.2199403" lon="12.2024813"><ele>318.0</ele><time>2026-03-29T08:54:36.445Z</time></trkpt><trkpt lat="43.2200021" lon="12.2023625"><ele>318.0</ele><time>2026-03-29T08:54:37.445Z</time></trkpt><trkpt lat="43.2200301" lon="12.2022264"><ele>318.0</ele><time>2026-03-29T08:54:38.445Z</time></trkpt><trkpt lat="43.2200706" lon="12.2021102"><ele>318.0</ele><time>2026-03-29T08:54:39.445Z</time></trkpt><trkpt lat="43.219963" lon="12.201908"><ele>318.0</ele><time>2026-03-29T08:54:41.446Z</time></trkpt><trkpt lat="43.2199074" lon="12.2018132"><ele>318.0</ele><time>2026-03-29T08:54:43.446Z</time></trkpt><trkpt lat="43.2198067" lon="12.2017264"><ele>318.0</ele><time>2026-03-29T08:54:45.446Z</time></trkpt><trkpt lat="43.2197401" lon="12.2016303"><ele>318.0</ele><time>2026-03-29T08:54:47.445Z</time></trkpt><trkpt lat="43.2196416" lon="12.2015429"><ele>318.0</ele><time>2026-03-29T08:54:49.446Z</time></trkpt><trkpt lat="43.2195689" lon="12.2015238"><ele>317.4</ele><time>2026-03-29T08:54:50.446Z</time></trkpt><trkpt lat="43.2194919" lon="12.2015408"><ele>316.8</ele><time>2026-03-29T08:54:51.446Z</time></trkpt><trkpt lat="43.2194131" lon="12.2015959"><ele>316.2</ele><time>2026-03-29T08:54:52.445Z</time></trkpt><trkpt lat="43.2193317" lon="12.201663"><ele>315.6</ele><time>2026-03-29T08:54:53.445Z</time></trkpt><trkpt lat="43.2192429" lon="12.2017233"><ele>315.0</ele><time>2026-03-29T08:54:54.445Z</time></trkpt><trkpt lat="43.2191553" lon="12.2017827"><ele>315.0</ele><time>2026-03-29T08:54:55.446Z</time></trkpt><trkpt lat="43.2190718" lon="12.2018333"><ele>315.0</ele><time>2026-03-29T08:54:56.445Z</time></trkpt><trkpt lat="43.2189946" lon="12.2018824"><ele>315.0</ele><time>2026-03-29T08:54:57.445Z</time></trkpt><trkpt lat="43.2189274" lon="12.2019383"><ele>315.0</ele><time>2026-03-29T08:54:58.445Z</time></trkpt><trkpt lat="43.2188685" lon="12.2019721"><ele>315.0</ele><time>2026-03-29T08:54:59.445Z</time></trkpt><trkpt lat="43.2187653" lon="12.2019504"><ele>315.0</ele><time>2026-03-29T08:55:01.445Z</time></trkpt><trkpt lat="43.2187049" lon="12.2018407"><ele>314.8</ele><time>2026-03-29T08:55:03.445Z</time></trkpt><trkpt lat="43.2186808" lon="12.2017558"><ele>314.6</ele><time>2026-03-29T08:55:04.446Z</time></trkpt><trkpt lat="43.2186477" lon="12.2016486"><ele>314.4</ele><time>2026-03-29T08:55:05.446Z</time></trkpt><trkpt lat="43.2186095" lon="12.2015226"><ele>314.2</ele><time>2026-03-29T08:55:06.446Z</time></trkpt><trkpt lat="43.2185615" lon="12.2013839"><ele>314.0</ele><time>2026-03-29T08:55:07.445Z</time></trkpt><trkpt lat="43.2185065" lon="12.2012405"><ele>313.5</ele><time>2026-03-29T08:55:08.445Z</time></trkpt><trkpt lat="43.2184433" lon="12.2010872"><ele>313.0</ele><time>2026-03-29T08:55:09.446Z</time></trkpt><trkpt lat="43.2183751" lon="12.2009256"><ele>312.5</ele><time>2026-03-29T08:55:10.445Z</time></trkpt><trkpt lat="43.2183107" lon="12.2007597"><ele>312.0</ele><time>2026-03-29T08:55:11.445Z</time></trkpt><trkpt lat="43.2182449" lon="12.2005841"><ele>311.6666666666667</ele><time>2026-03-29T08:55:12.446Z</time></trkpt><trkpt lat="43.2181716" lon="12.2004013"><ele>311.33333333333337</ele><time>2026-03-29T08:55:13.446Z</time></trkpt><trkpt lat="43.218083" lon="12.2002125"><ele>311.0</ele><time>2026-03-29T08:55:14.446Z</time></trkpt><trkpt lat="43.2179968" lon="12.2000166"><ele>310.6666666666667</ele><time>2026-03-29T08:55:15.445Z</time></trkpt><trkpt lat="43.2179169" lon="12.1998195"><ele>310.3333333333333</ele><time>2026-03-29T08:55:16.445Z</time></trkpt><trkpt lat="43.2178368" lon="12.1996181"><ele>310.0</ele><time>2026-03-29T08:55:17.446Z</time></trkpt><trkpt lat="43.217754" lon="12.1994056"><ele>310.0</ele><time>2026-03-29T08:55:18.445Z</time></trkpt><trkpt lat="43.21767" lon="12.199185"><ele>310.0</ele><time>2026-03-29T08:55:19.445Z</time></trkpt><trkpt lat="43.2175807" lon="12.1989599"><ele>310.0</ele><time>2026-03-29T08:55:20.445Z</time></trkpt><trkpt lat="43.2174987" lon="12.1987482"><ele>310.0</ele><time>2026-03-29T08:55:21.446Z</time></trkpt><trkpt lat="43.217431" lon="12.198545"><ele>310.0</ele><time>2026-03-29T08:55:22.446Z</time></trkpt><trkpt lat="43.2173804" lon="12.1983394"><ele>310.0</ele><time>2026-03-29T08:55:23.444Z</time></trkpt><trkpt lat="43.217352" lon="12.1981335"><ele>310.0</ele><time>2026-03-29T08:55:24.445Z</time></trkpt><trkpt lat="43.2173319" lon="12.1979144"><ele>310.0</ele><time>2026-03-29T08:55:25.445Z</time></trkpt><trkpt lat="43.217307" lon="12.197679"><ele>310.0</ele><time>2026-03-29T08:55:26.446Z</time></trkpt><trkpt lat="43.2172777" lon="12.1974279"><ele>310.3333333333333</ele><time>2026-03-29T08:55:27.446Z</time></trkpt><trkpt lat="43.2172419" lon="12.1971628"><ele>310.6666666666667</ele><time>2026-03-29T08:55:28.445Z</time></trkpt><trkpt lat="43.2172137" lon="12.196924"><ele>311.0</ele><time>2026-03-29T08:55:29.445Z</time></trkpt><trkpt lat="43.2171893" lon="12.196692"><ele>311.33333333333337</ele><time>2026-03-29T08:55:30.445Z</time></trkpt><trkpt lat="43.2171699" lon="12.1964659"><ele>311.6666666666667</ele><time>2026-03-29T08:55:31.445Z</time></trkpt><trkpt lat="43.2171651" lon="12.1962473"><ele>312.0</ele><time>2026-03-29T08:55:32.446Z</time></trkpt><trkpt lat="43.2171871" lon="12.1960446"><ele>312.0</ele><time>2026-03-29T08:55:33.444Z</time></trkpt><trkpt lat="43.2172125" lon="12.1958776"><ele>312.0</ele><time>2026-03-29T08:55:34.446Z</time></trkpt><trkpt lat="43.217252" lon="12.1956748"><ele>312.0</ele><time>2026-03-29T08:55:35.446Z</time></trkpt><trkpt lat="43.2173023" lon="12.1955048"><ele>312.0</ele><time>2026-03-29T08:55:36.446Z</time></trkpt><trkpt lat="43.2173485" lon="12.1952953"><ele>312.0</ele><time>2026-03-29T08:55:37.445Z</time></trkpt><trkpt lat="43.2173968" lon="12.1951235"><ele>312.0</ele><time>2026-03-29T08:55:38.446Z</time></trkpt><trkpt lat="43.2174246" lon="12.1949771"><ele>312.0</ele><time>2026-03-29T08:55:39.445Z</time></trkpt><trkpt lat="43.2174532" lon="12.1948643"><ele>312.0</ele><time>2026-03-29T08:55:40.445Z</time></trkpt><trkpt lat="43.2174696" lon="12.1947685"><ele>312.0</ele><time>2026-03-29T08:55:41.446Z</time></trkpt><trkpt lat="43.2174618" lon="12.1946647"><ele>312.0</ele><time>2026-03-29T08:55:42.446Z</time></trkpt><trkpt lat="43.2174427" lon="12.19455"><ele>312.0</ele><time>2026-03-29T08:55:43.445Z</time></trkpt><trkpt lat="43.21738" lon="12.1944238"><ele>312.0</ele><time>2026-03-29T08:55:44.446Z</time></trkpt><trkpt lat="43.2173079" lon="12.1943043"><ele>312.0</ele><time>2026-03-29T08:55:45.446Z</time></trkpt><trkpt lat="43.2172377" lon="12.1941651"><ele>312.0</ele><time>2026-03-29T08:55:46.445Z</time></trkpt><trkpt lat="43.2171644" lon="12.1940184"><ele>312.5</ele><time>2026-03-29T08:55:47.445Z</time></trkpt><trkpt lat="43.2171011" lon="12.1938477"><ele>313.0</ele><time>2026-03-29T08:55:48.446Z</time></trkpt><trkpt lat="43.2170545" lon="12.1936987"><ele>313.5</ele><time>2026-03-29T08:55:49.445Z</time></trkpt><trkpt lat="43.216997" lon="12.1935425"><ele>314.0</ele><time>2026-03-29T08:55:50.446Z</time></trkpt><trkpt lat="43.21694" lon="12.1934036"><ele>314.0</ele><time>2026-03-29T08:55:51.445Z</time></trkpt><trkpt lat="43.2168793" lon="12.19326"><ele>314.0</ele><time>2026-03-29T08:55:52.445Z</time></trkpt><trkpt lat="43.2168243" lon="12.1931073"><ele>314.0</ele><time>2026-03-29T08:55:53.445Z</time></trkpt><trkpt lat="43.2167617" lon="12.1929597"><ele>314.0</ele><time>2026-03-29T08:55:54.446Z</time></trkpt><trkpt lat="43.2167004" lon="12.1928172"><ele>313.8</ele><time>2026-03-29T08:55:55.446Z</time></trkpt><trkpt lat="43.2166367" lon="12.1926879"><ele>313.59999999999997</ele><time>2026-03-29T08:55:56.446Z</time></trkpt><trkpt lat="43.2165812" lon="12.19256"><ele>313.4</ele><time>2026-03-29T08:55:57.445Z</time></trkpt><trkpt lat="43.2165344" lon="12.1924336"><ele>313.2</ele><time>2026-03-29T08:55:58.446Z</time></trkpt><trkpt lat="43.2165054" lon="12.1923067"><ele>313.0</ele><time>2026-03-29T08:55:59.445Z</time></trkpt><trkpt lat="43.2164878" lon="12.192191"><ele>313.0</ele><time>2026-03-29T08:56:00.446Z</time></trkpt><trkpt lat="43.2164758" lon="12.1920828"><ele>313.0</ele><time>2026-03-29T08:56:01.445Z</time></trkpt><trkpt lat="43.2164696" lon="12.1919161"><ele>313.0</ele><time>2026-03-29T08:56:03.445Z</time></trkpt><trkpt lat="43.2165116" lon="12.1918392"><ele>313.0</ele><time>2026-03-29T08:56:05.446Z</time></trkpt><trkpt lat="43.2166026" lon="12.1918215"><ele>313.0</ele><time>2026-03-29T08:56:06.445Z</time></trkpt><trkpt lat="43.2167395" lon="12.1918156"><ele>313.0</ele><time>2026-03-29T08:56:08.446Z</time></trkpt><trkpt lat="43.2168252" lon="12.1918055"><ele>313.0</ele><time>2026-03-29T08:56:09.445Z</time></trkpt><trkpt lat="43.2169208" lon="12.1918018"><ele>313.0</ele><time>2026-03-29T08:56:10.446Z</time></trkpt><trkpt lat="43.2170207" lon="12.1918"><ele>313.0</ele><time>2026-03-29T08:56:11.446Z</time></trkpt><trkpt lat="43.2171357" lon="12.1917909"><ele>313.0</ele><time>2026-03-29T08:56:12.445Z</time></trkpt><trkpt lat="43.2172445" lon="12.1917732"><ele>312.75</ele><time>2026-03-29T08:56:13.446Z</time></trkpt><trkpt lat="43.2173532" lon="12.1917638"><ele>312.5</ele><time>2026-03-29T08:56:14.446Z</time></trkpt><trkpt lat="43.2174762" lon="12.1917519"><ele>312.25</ele><time>2026-03-29T08:56:15.445Z</time></trkpt><trkpt lat="43.2176015" lon="12.1917452"><ele>312.0</ele><time>2026-03-29T08:56:16.445Z</time></trkpt><trkpt lat="43.2177238" lon="12.1917362"><ele>312.0</ele><time>2026-03-29T08:56:17.446Z</time></trkpt><trkpt lat="43.2178483" lon="12.1917231"><ele>312.0</ele><time>2026-03-29T08:56:18.446Z</time></trkpt><trkpt lat="43.2179741" lon="12.1917067"><ele>312.0</ele><time>2026-03-29T08:56:19.446Z</time></trkpt><trkpt lat="43.2180975" lon="12.1916927"><ele>312.0</ele><time>2026-03-29T08:56:20.445Z</time></trkpt><trkpt lat="43.2182221" lon="12.1916785"><ele>312.0</ele><time>2026-03-29T08:56:21.445Z</time></trkpt><trkpt lat="43.2183441" lon="12.1916658"><ele>312.0</ele><time>2026-03-29T08:56:22.446Z</time></trkpt><trkpt lat="43.2184668" lon="12.1916459"><ele>312.0</ele><time>2026-03-29T08:56:23.446Z</time></trkpt><trkpt lat="43.2185866" lon="12.1916183"><ele>312.0</ele><time>2026-03-29T08:56:24.446Z</time></trkpt><trkpt lat="43.2187022" lon="12.1915842"><ele>312.0</ele><time>2026-03-29T08:56:25.445Z</time></trkpt><trkpt lat="43.2188105" lon="12.1915394"><ele>312.0</ele><time>2026-03-29T08:56:26.446Z</time></trkpt><trkpt lat="43.2189139" lon="12.1914944"><ele>312.0</ele><time>2026-03-29T08:56:27.445Z</time></trkpt><trkpt lat="43.2190044" lon="12.1914435"><ele>312.0</ele><time>2026-03-29T08:56:28.446Z</time></trkpt><trkpt lat="43.2190875" lon="12.1913725"><ele>312.0</ele><time>2026-03-29T08:56:29.445Z</time></trkpt><trkpt lat="43.2191568" lon="12.1912894"><ele>312.8</ele><time>2026-03-29T08:56:30.446Z</time></trkpt><trkpt lat="43.2192162" lon="12.1911852"><ele>313.6</ele><time>2026-03-29T08:56:31.446Z</time></trkpt><trkpt lat="43.219284" lon="12.1910655"><ele>314.40000000000003</ele><time>2026-03-29T08:56:32.447Z</time></trkpt><trkpt lat="43.219351" lon="12.1909468"><ele>315.2</ele><time>2026-03-29T08:56:33.447Z</time></trkpt><trkpt lat="43.2194282" lon="12.1908314"><ele>316.0</ele><time>2026-03-29T08:56:34.446Z</time></trkpt><trkpt lat="43.2195044" lon="12.190709"><ele>315.75</ele><time>2026-03-29T08:56:35.446Z</time></trkpt><trkpt lat="43.2195814" lon="12.1905855"><ele>315.5</ele><time>2026-03-29T08:56:36.446Z</time></trkpt><trkpt lat="43.2196596" lon="12.1904605"><ele>315.25</ele><time>2026-03-29T08:56:37.447Z</time></trkpt><trkpt lat="43.2197354" lon="12.1903336"><ele>315.0</ele><time>2026-03-29T08:56:38.446Z</time></trkpt><trkpt lat="43.2198077" lon="12.190206"><ele>315.5</ele><time>2026-03-29T08:56:39.446Z</time></trkpt><trkpt lat="43.2198946" lon="12.1900721"><ele>316.0</ele><time>2026-03-29T08:56:40.447Z</time></trkpt><trkpt lat="43.2199731" lon="12.1899281"><ele>316.5</ele><time>2026-03-29T08:56:41.446Z</time></trkpt><trkpt lat="43.2200699" lon="12.1897924"><ele>317.0</ele><time>2026-03-29T08:56:42.447Z</time></trkpt><trkpt lat="43.2201615" lon="12.1896572"><ele>317.0</ele><time>2026-03-29T08:56:43.447Z</time></trkpt><trkpt lat="43.2202574" lon="12.1895183"><ele>317.0</ele><time>2026-03-29T08:56:44.446Z</time></trkpt><trkpt lat="43.2203509" lon="12.189381"><ele>317.0</ele><time>2026-03-29T08:56:45.447Z</time></trkpt><trkpt lat="43.2204359" lon="12.189243"><ele>317.0</ele><time>2026-03-29T08:56:46.447Z</time></trkpt><trkpt lat="43.2205237" lon="12.1891116"><ele>316.75</ele><time>2026-03-29T08:56:47.446Z</time></trkpt><trkpt lat="43.2205972" lon="12.1889704"><ele>316.5</ele><time>2026-03-29T08:56:48.447Z</time></trkpt><trkpt lat="43.2206617" lon="12.1888132"><ele>316.25</ele><time>2026-03-29T08:56:49.446Z</time></trkpt><trkpt lat="43.2207195" lon="12.1886435"><ele>316.0</ele><time>2026-03-29T08:56:50.446Z</time></trkpt><trkpt lat="43.2207627" lon="12.188458"><ele>316.0</ele><time>2026-03-29T08:56:51.447Z</time></trkpt><trkpt lat="43.2208013" lon="12.1882703"><ele>316.0</ele><time>2026-03-29T08:56:52.446Z</time></trkpt><trkpt lat="43.2208295" lon="12.188081"><ele>316.0</ele><time>2026-03-29T08:56:53.447Z</time></trkpt><trkpt lat="43.2208442" lon="12.1878916"><ele>316.0</ele><time>2026-03-29T08:56:54.446Z</time></trkpt><trkpt lat="43.22086" lon="12.1876927"><ele>317.0</ele><time>2026-03-29T08:56:55.447Z</time></trkpt><trkpt lat="43.2208706" lon="12.1874969"><ele>318.0</ele><time>2026-03-29T08:56:56.446Z</time></trkpt><trkpt lat="43.2208853" lon="12.1873038"><ele>319.0</ele><time>2026-03-29T08:56:57.446Z</time></trkpt><trkpt lat="43.2208926" lon="12.1871159"><ele>320.0</ele><time>2026-03-29T08:56:58.447Z</time></trkpt><trkpt lat="43.2209043" lon="12.1869695"><ele>320.5</ele><time>2026-03-29T08:56:59.447Z</time></trkpt><trkpt lat="43.2209207" lon="12.1868504"><ele>321.0</ele><time>2026-03-29T08:57:00.446Z</time></trkpt><trkpt lat="43.2209403" lon="12.1867362"><ele>321.5</ele><time>2026-03-29T08:57:01.447Z</time></trkpt><trkpt lat="43.2209668" lon="12.1866294"><ele>322.0</ele><time>2026-03-29T08:57:02.447Z</time></trkpt><trkpt lat="43.2209942" lon="12.186506"><ele>322.5</ele><time>2026-03-29T08:57:03.447Z</time></trkpt><trkpt lat="43.2210371" lon="12.1863903"><ele>323.0</ele><time>2026-03-29T08:57:04.446Z</time></trkpt><trkpt lat="43.2210729" lon="12.1862687"><ele>323.0</ele><time>2026-03-29T08:57:05.447Z</time></trkpt><trkpt lat="43.2211397" lon="12.1861573"><ele>323.0</ele><time>2026-03-29T08:57:06.446Z</time></trkpt><trkpt lat="43.2212014" lon="12.1860435"><ele>323.0</ele><time>2026-03-29T08:57:07.447Z</time></trkpt><trkpt lat="43.221288" lon="12.1859549"><ele>323.0</ele><time>2026-03-29T08:57:08.447Z</time></trkpt><trkpt lat="43.2213643" lon="12.1858669"><ele>323.0</ele><time>2026-03-29T08:57:09.446Z</time></trkpt><trkpt lat="43.2214437" lon="12.1857814"><ele>325.5</ele><time>2026-03-29T08:57:10.447Z</time></trkpt><trkpt lat="43.2215438" lon="12.1856901"><ele>328.0</ele><time>2026-03-29T08:57:11.446Z</time></trkpt><trkpt lat="43.2216443" lon="12.1856065"><ele>330.5</ele><time>2026-03-29T08:57:12.447Z</time></trkpt><trkpt lat="43.2217469" lon="12.1855218"><ele>333.0</ele><time>2026-03-29T08:57:13.446Z</time></trkpt><trkpt lat="43.2218479" lon="12.185446"><ele>333.0</ele><time>2026-03-29T08:57:14.446Z</time></trkpt><trkpt lat="43.221942" lon="12.1853952"><ele>333.0</ele><time>2026-03-29T08:57:15.446Z</time></trkpt><trkpt lat="43.2220802" lon="12.1854893"><ele>333.0</ele><time>2026-03-29T08:57:17.447Z</time></trkpt><trkpt lat="43.2221397" lon="12.1855406"><ele>333.0</ele><time>2026-03-29T08:57:18.446Z</time></trkpt><trkpt lat="43.2221946" lon="12.1856161"><ele>333.0</ele><time>2026-03-29T08:57:19.446Z</time></trkpt><trkpt lat="43.2222403" lon="12.185758"><ele>337.25</ele><time>2026-03-29T08:57:20.446Z</time></trkpt><trkpt lat="43.2223454" lon="12.1858992"><ele>341.5</ele><time>2026-03-29T08:57:21.447Z</time></trkpt><trkpt lat="43.2224161" lon="12.1860438"><ele>345.75</ele><time>2026-03-29T08:57:22.446Z</time></trkpt><trkpt lat="43.2224939" lon="12.1861893"><ele>350.0</ele><time>2026-03-29T08:57:23.446Z</time></trkpt><trkpt lat="43.2225447" lon="12.1863418"><ele>350.0</ele><time>2026-03-29T08:57:24.447Z</time></trkpt><trkpt lat="43.2225888" lon="12.1864759"><ele>350.0</ele><time>2026-03-29T08:57:25.447Z</time></trkpt><trkpt lat="43.2226708" lon="12.1866583"><ele>350.0</ele><time>2026-03-29T08:57:27.447Z</time></trkpt><trkpt lat="43.222743" lon="12.1867111"><ele>350.0</ele><time>2026-03-29T08:57:28.446Z</time></trkpt><trkpt lat="43.2228303" lon="12.1867386"><ele>350.0</ele><time>2026-03-29T08:57:29.446Z</time></trkpt><trkpt lat="43.2229304" lon="12.1867652"><ele>350.0</ele><time>2026-03-29T08:57:30.447Z</time></trkpt><trkpt lat="43.2230302" lon="12.1867893"><ele>350.0</ele><time>2026-03-29T08:57:31.446Z</time></trkpt><trkpt lat="43.2231139" lon="12.1868132"><ele>350.0</ele><time>2026-03-29T08:57:32.446Z</time></trkpt><trkpt lat="43.2231842" lon="12.1868309"><ele>350.0</ele><time>2026-03-29T08:57:33.446Z</time></trkpt><trkpt lat="43.2232538" lon="12.1868183"><ele>350.0</ele><time>2026-03-29T08:57:34.446Z</time></trkpt><trkpt lat="43.2233267" lon="12.1867976"><ele>350.0</ele><time>2026-03-29T08:57:35.447Z</time></trkpt><trkpt lat="43.2233964" lon="12.1867605"><ele>353.0</ele><time>2026-03-29T08:57:36.447Z</time></trkpt><trkpt lat="43.2234573" lon="12.1867296"><ele>356.0</ele><time>2026-03-29T08:57:37.446Z</time></trkpt><trkpt lat="43.2235802" lon="12.1866654"><ele>359.0</ele><time>2026-03-29T08:57:39.447Z</time></trkpt><trkpt lat="43.2236755" lon="12.1866558"><ele>362.0</ele><time>2026-03-29T08:57:40.446Z</time></trkpt><trkpt lat="43.2237646" lon="12.1866249"><ele>365.0</ele><time>2026-03-29T08:57:41.446Z</time></trkpt><trkpt lat="43.2238369" lon="12.1865722"><ele>365.0</ele><time>2026-03-29T08:57:42.447Z</time></trkpt><trkpt lat="43.2239304" lon="12.186517"><ele>365.0</ele><time>2026-03-29T08:57:43.445Z</time></trkpt><trkpt lat="43.224014" lon="12.186467"><ele>365.0</ele><time>2026-03-29T08:57:44.447Z</time></trkpt><trkpt lat="43.2240979" lon="12.1864196"><ele>365.0</ele><time>2026-03-29T08:57:45.447Z</time></trkpt><trkpt lat="43.2241901" lon="12.186363"><ele>365.0</ele><time>2026-03-29T08:57:46.446Z</time></trkpt><trkpt lat="43.2242772" lon="12.1863262"><ele>367.2</ele><time>2026-03-29T08:57:47.446Z</time></trkpt><trkpt lat="43.2243597" lon="12.1862796"><ele>369.4</ele><time>2026-03-29T08:57:48.446Z</time></trkpt><trkpt lat="43.2244318" lon="12.1862262"><ele>371.6</ele><time>2026-03-29T08:57:49.447Z</time></trkpt><trkpt lat="43.2244855" lon="12.1861777"><ele>373.8</ele><time>2026-03-29T08:57:50.446Z</time></trkpt><trkpt lat="43.2245336" lon="12.1860648"><ele>376.0</ele><time>2026-03-29T08:57:52.446Z</time></trkpt><trkpt lat="43.2244247" lon="12.1859153"><ele>376.0</ele><time>2026-03-29T08:57:54.446Z</time></trkpt><trkpt lat="43.224372" lon="12.1858362"><ele>376.0</ele><time>2026-03-29T08:57:55.446Z</time></trkpt><trkpt lat="43.2243236" lon="12.1857453"><ele>376.0</ele><time>2026-03-29T08:57:56.448Z</time></trkpt><trkpt lat="43.2242724" lon="12.1856506"><ele>376.0</ele><time>2026-03-29T08:57:57.448Z</time></trkpt><trkpt lat="43.2242215" lon="12.1855579"><ele>376.0</ele><time>2026-03-29T08:57:58.447Z</time></trkpt><trkpt lat="43.2241885" lon="12.1854613"><ele>376.0</ele><time>2026-03-29T08:57:59.447Z</time></trkpt><trkpt lat="43.2241659" lon="12.1853711"><ele>375.6</ele><time>2026-03-29T08:58:00.446Z</time></trkpt><trkpt lat="43.2241619" lon="12.1852479"><ele>375.20000000000005</ele><time>2026-03-29T08:58:01.447Z</time></trkpt><trkpt lat="43.2241863" lon="12.1850989"><ele>374.79999999999995</ele><time>2026-03-29T08:58:02.445Z</time></trkpt><trkpt lat="43.2242189" lon="12.1849631"><ele>374.4</ele><time>2026-03-29T08:58:03.446Z</time></trkpt><trkpt lat="43.2242511" lon="12.1848246"><ele>374.0</ele><time>2026-03-29T08:58:04.446Z</time></trkpt><trkpt lat="43.2242752" lon="12.1846537"><ele>373.79999999999995</ele><time>2026-03-29T08:58:05.447Z</time></trkpt><trkpt lat="43.2243137" lon="12.1845042"><ele>373.59999999999997</ele><time>2026-03-29T08:58:06.447Z</time></trkpt><trkpt lat="43.224326" lon="12.184378"><ele>373.4</ele><time>2026-03-29T08:58:07.446Z</time></trkpt><trkpt lat="43.224331" lon="12.1842583"><ele>373.2</ele><time>2026-03-29T08:58:08.447Z</time></trkpt><trkpt lat="43.2243273" lon="12.1841414"><ele>373.0</ele><time>2026-03-29T08:58:09.447Z</time></trkpt><trkpt lat="43.2243116" lon="12.1840342"><ele>373.59999999999997</ele><time>2026-03-29T08:58:10.446Z</time></trkpt><trkpt lat="43.2242929" lon="12.183887"><ele>374.2</ele><time>2026-03-29T08:58:11.448Z</time></trkpt><trkpt lat="43.2242778" lon="12.1837742"><ele>374.8</ele><time>2026-03-29T08:58:12.447Z</time></trkpt><trkpt lat="43.2242674" lon="12.1836197"><ele>375.4</ele><time>2026-03-29T08:58:13.446Z</time></trkpt><trkpt lat="43.224262" lon="12.1834774"><ele>376.0</ele><time>2026-03-29T08:58:14.447Z</time></trkpt><trkpt lat="43.224249" lon="12.1833393"><ele>376.0</ele><time>2026-03-29T08:58:15.447Z</time></trkpt><trkpt lat="43.2242188" lon="12.1832214"><ele>376.0</ele><time>2026-03-29T08:58:16.446Z</time></trkpt><trkpt lat="43.2241626" lon="12.183081"><ele>376.0</ele><time>2026-03-29T08:58:17.446Z</time></trkpt><trkpt lat="43.2241035" lon="12.1830095"><ele>376.0</ele><time>2026-03-29T08:58:18.447Z</time></trkpt><trkpt lat="43.2239905" lon="12.182906"><ele>376.0</ele><time>2026-03-29T08:58:19.446Z</time></trkpt><trkpt lat="43.2238911" lon="12.1828178"><ele>377.5</ele><time>2026-03-29T08:58:20.446Z</time></trkpt><trkpt lat="43.2237849" lon="12.1827256"><ele>379.0</ele><time>2026-03-29T08:58:21.446Z</time></trkpt><trkpt lat="43.2236656" lon="12.1826451"><ele>380.5</ele><time>2026-03-29T08:58:22.447Z</time></trkpt><trkpt lat="43.2235596" lon="12.1825863"><ele>382.0</ele><time>2026-03-29T08:58:23.446Z</time></trkpt><trkpt lat="43.2234604" lon="12.1824907"><ele>382.0</ele><time>2026-03-29T08:58:24.446Z</time></trkpt><trkpt lat="43.2233635" lon="12.1824256"><ele>382.0</ele><time>2026-03-29T08:58:25.447Z</time></trkpt><trkpt lat="43.2232958" lon="12.1823302"><ele>382.0</ele><time>2026-03-29T08:58:26.447Z</time></trkpt><trkpt lat="43.2232443" lon="12.1821927"><ele>382.0</ele><time>2026-03-29T08:58:27.447Z</time></trkpt><trkpt lat="43.2231916" lon="12.1820459"><ele>382.0</ele><time>2026-03-29T08:58:28.447Z</time></trkpt><trkpt lat="43.2231133" lon="12.1818803"><ele>382.6</ele><time>2026-03-29T08:58:29.447Z</time></trkpt><trkpt lat="43.2230465" lon="12.1817367"><ele>383.20000000000005</ele><time>2026-03-29T08:58:30.446Z</time></trkpt><trkpt lat="43.2229748" lon="12.1816315"><ele>383.8</ele><time>2026-03-29T08:58:31.447Z</time></trkpt><trkpt lat="43.2229042" lon="12.1815532"><ele>384.4</ele><time>2026-03-29T08:58:32.446Z</time></trkpt><trkpt lat="43.2228346" lon="12.1814525"><ele>385.0</ele><time>2026-03-29T08:58:33.447Z</time></trkpt><trkpt lat="43.2227733" lon="12.1813491"><ele>386.33333333333337</ele><time>2026-03-29T08:58:34.447Z</time></trkpt><trkpt lat="43.2227416" lon="12.1812394"><ele>387.6666666666667</ele><time>2026-03-29T08:58:35.447Z</time></trkpt><trkpt lat="43.2226877" lon="12.1810859"><ele>389.0</ele><time>2026-03-29T08:58:37.446Z</time></trkpt><trkpt lat="43.222646" lon="12.1809902"><ele>390.33333333333337</ele><time>2026-03-29T08:58:39.445Z</time></trkpt><trkpt lat="43.2226176" lon="12.1809107"><ele>391.6666666666667</ele><time>2026-03-29T08:58:41.446Z</time></trkpt><trkpt lat="43.2226684" lon="12.1809961"><ele>393.0</ele><time>2026-03-29T08:58:46.447Z</time></trkpt><trkpt lat="43.2226833" lon="12.1810985"><ele>393.0</ele><time>2026-03-29T08:58:49.446Z</time></trkpt><trkpt lat="43.2227579" lon="12.1810197"><ele>393.0</ele><time>2026-03-29T08:59:20.446Z</time></trkpt><trkpt lat="43.2228254" lon="12.1808707"><ele>393.0</ele><time>2026-03-29T08:59:22.447Z</time></trkpt><trkpt lat="43.2229179" lon="12.180825"><ele>393.0</ele><time>2026-03-29T08:59:24.447Z</time></trkpt><trkpt lat="43.2230074" lon="12.1808859"><ele>393.0</ele><time>2026-03-29T08:59:26.447Z</time></trkpt><trkpt lat="43.2230815" lon="12.181012"><ele>396.4</ele><time>2026-03-29T08:59:28.447Z</time></trkpt><trkpt lat="43.2231852" lon="12.1810419"><ele>399.79999999999995</ele><time>2026-03-29T08:59:30.447Z</time></trkpt><trkpt lat="43.2233085" lon="12.1810133"><ele>403.2</ele><time>2026-03-29T08:59:32.446Z</time></trkpt><trkpt lat="43.2233746" lon="12.1809833"><ele>406.6</ele><time>2026-03-29T08:59:33.446Z</time></trkpt><trkpt lat="43.2234579" lon="12.1809804"><ele>410.0</ele><time>2026-03-29T08:59:34.447Z</time></trkpt><trkpt lat="43.2235433" lon="12.1809793"><ele>409.99999999999994</ele><time>2026-03-29T08:59:35.447Z</time></trkpt><trkpt lat="43.2236397" lon="12.181034"><ele>410.0</ele><time>2026-03-29T08:59:36.447Z</time></trkpt><trkpt lat="43.2237085" lon="12.1810672"><ele>410.0</ele><time>2026-03-29T08:59:37.446Z</time></trkpt><trkpt lat="43.2237773" lon="12.1811238"><ele>410.0</ele><time>2026-03-29T08:59:38.447Z</time></trkpt><trkpt lat="43.2238573" lon="12.1811602"><ele>409.99999999999994</ele><time>2026-03-29T08:59:39.447Z</time></trkpt><trkpt lat="43.2239405" lon="12.181174"><ele>410.0</ele><time>2026-03-29T08:59:40.446Z</time></trkpt><trkpt lat="43.2240276" lon="12.1811738"><ele>412.3333333333333</ele><time>2026-03-29T08:59:41.447Z</time></trkpt><trkpt lat="43.2241147" lon="12.1811688"><ele>414.66666666666663</ele><time>2026-03-29T08:59:42.446Z</time></trkpt><trkpt lat="43.2242011" lon="12.1811489"><ele>417.0</ele><time>2026-03-29T08:59:43.445Z</time></trkpt><trkpt lat="43.2242825" lon="12.1811287"><ele>419.33333333333337</ele><time>2026-03-29T08:59:44.446Z</time></trkpt><trkpt lat="43.2243574" lon="12.1811106"><ele>421.6666666666667</ele><time>2026-03-29T08:59:45.446Z</time></trkpt><trkpt lat="43.2244296" lon="12.181094"><ele>424.0</ele><time>2026-03-29T08:59:46.447Z</time></trkpt><trkpt lat="43.2244963" lon="12.1810842"><ele>424.0</ele><time>2026-03-29T08:59:47.447Z</time></trkpt><trkpt lat="43.2246006" lon="12.1810808"><ele>424.0</ele><time>2026-03-29T08:59:49.447Z</time></trkpt><trkpt lat="43.2247472" lon="12.1810927"><ele>424.0</ele><time>2026-03-29T08:59:51.448Z</time></trkpt><trkpt lat="43.2248166" lon="12.181079"><ele>424.0</ele><time>2026-03-29T08:59:52.447Z</time></trkpt><trkpt lat="43.2248905" lon="12.1810954"><ele>424.0</ele><time>2026-03-29T08:59:53.446Z</time></trkpt><trkpt lat="43.2250347" lon="12.1811175"><ele>425.6</ele><time>2026-03-29T08:59:55.445Z</time></trkpt><trkpt lat="43.225118" lon="12.1811077"><ele>427.2</ele><time>2026-03-29T08:59:56.448Z</time></trkpt><trkpt lat="43.2252085" lon="12.1811355"><ele>428.80000000000007</ele><time>2026-03-29T08:59:57.448Z</time></trkpt><trkpt lat="43.225313" lon="12.181128"><ele>430.40000000000003</ele><time>2026-03-29T08:59:59.448Z</time></trkpt><trkpt lat="43.2254043" lon="12.1810255"><ele>432.0</ele><time>2026-03-29T09:00:01.448Z</time></trkpt><trkpt lat="43.2253804" lon="12.1808998"><ele>432.0</ele><time>2026-03-29T09:00:02.447Z</time></trkpt><trkpt lat="43.2253068" lon="12.1807346"><ele>432.00000000000006</ele><time>2026-03-29T09:00:03.447Z</time></trkpt><trkpt lat="43.2252536" lon="12.1806063"><ele>432.00000000000006</ele><time>2026-03-29T09:00:04.447Z</time></trkpt><trkpt lat="43.2252049" lon="12.1805091"><ele>432.0</ele><time>2026-03-29T09:00:05.446Z</time></trkpt><trkpt lat="43.2251566" lon="12.180425"><ele>432.0</ele><time>2026-03-29T09:00:06.446Z</time></trkpt><trkpt lat="43.225081" lon="12.1803885"><ele>431.20000000000005</ele><time>2026-03-29T09:00:07.446Z</time></trkpt><trkpt lat="43.2250231" lon="12.1803096"><ele>430.40000000000003</ele><time>2026-03-29T09:00:08.446Z</time></trkpt><trkpt lat="43.2249737" lon="12.1802463"><ele>429.59999999999997</ele><time>2026-03-29T09:00:09.447Z</time></trkpt><trkpt lat="43.2249208" lon="12.1801918"><ele>428.79999999999995</ele><time>2026-03-29T09:00:10.447Z</time></trkpt><trkpt lat="43.224792" lon="12.180159"><ele>428.0</ele><time>2026-03-29T09:00:12.446Z</time></trkpt><trkpt lat="43.2247015" lon="12.1800905"><ele>428.0</ele><time>2026-03-29T09:00:14.446Z</time></trkpt><trkpt lat="43.2247278" lon="12.1799948"><ele>427.99999999999994</ele><time>2026-03-29T09:00:16.445Z</time></trkpt><trkpt lat="43.2247687" lon="12.1798712"><ele>427.99999999999994</ele><time>2026-03-29T09:00:18.447Z</time></trkpt><trkpt lat="43.224824" lon="12.1797471"><ele>428.0</ele><time>2026-03-29T09:00:20.447Z</time></trkpt><trkpt lat="43.2249209" lon="12.1796502"><ele>428.0</ele><time>2026-03-29T09:00:22.446Z</time></trkpt><trkpt lat="43.2250168" lon="12.1796076"><ele>431.2</ele><time>2026-03-29T09:00:24.446Z</time></trkpt><trkpt lat="43.2251375" lon="12.1795792"><ele>434.4</ele><time>2026-03-29T09:00:25.446Z</time></trkpt><trkpt lat="43.2252126" lon="12.1795386"><ele>437.59999999999997</ele><time>2026-03-29T09:00:26.447Z</time></trkpt><trkpt lat="43.2252861" lon="12.179504"><ele>440.79999999999995</ele><time>2026-03-29T09:00:27.446Z</time></trkpt><trkpt lat="43.2253641" lon="12.1794576"><ele>444.0</ele><time>2026-03-29T09:00:28.446Z</time></trkpt><trkpt lat="43.2254375" lon="12.1794016"><ele>444.0</ele><time>2026-03-29T09:00:29.446Z</time></trkpt><trkpt lat="43.2254018" lon="12.1793068"><ele>444.0</ele><time>2026-03-29T09:00:30.446Z</time></trkpt><trkpt lat="43.2254336" lon="12.1792314"><ele>444.0</ele><time>2026-03-29T09:00:31.446Z</time></trkpt><trkpt lat="43.2255188" lon="12.1791305"><ele>444.0</ele><time>2026-03-29T09:00:33.447Z</time></trkpt><trkpt lat="43.225615" lon="12.1790285"><ele>444.0</ele><time>2026-03-29T09:00:35.446Z</time></trkpt><trkpt lat="43.2256595" lon="12.178951"><ele>444.0</ele><time>2026-03-29T09:00:36.446Z</time></trkpt><trkpt lat="43.2255745" lon="12.1787527"><ele>445.4</ele><time>2026-03-29T09:00:38.446Z</time></trkpt><trkpt lat="43.2255456" lon="12.1786498"><ele>446.79999999999995</ele><time>2026-03-29T09:00:40.446Z</time></trkpt><trkpt lat="43.2255631" lon="12.178526"><ele>448.20000000000005</ele><time>2026-03-29T09:00:42.447Z</time></trkpt><trkpt lat="43.2256502" lon="12.1784825"><ele>449.6</ele><time>2026-03-29T09:00:43.447Z</time></trkpt><trkpt lat="43.2257642" lon="12.1783782"><ele>451.0</ele><time>2026-03-29T09:00:45.446Z</time></trkpt><trkpt lat="43.2257477" lon="12.1782653"><ele>452.6666666666667</ele><time>2026-03-29T09:00:46.446Z</time></trkpt><trkpt lat="43.2257696" lon="12.1780937"><ele>454.33333333333337</ele><time>2026-03-29T09:00:48.446Z</time></trkpt><trkpt lat="43.2257725" lon="12.1780029"><ele>456.0</ele><time>2026-03-29T09:00:49.447Z</time></trkpt><trkpt lat="43.2257494" lon="12.1779127"><ele>457.66666666666663</ele><time>2026-03-29T09:00:50.446Z</time></trkpt><trkpt lat="43.225755" lon="12.1778252"><ele>459.3333333333333</ele><time>2026-03-29T09:00:51.446Z</time></trkpt><trkpt lat="43.2257383" lon="12.1777213"><ele>461.0</ele><time>2026-03-29T09:00:52.446Z</time></trkpt><trkpt lat="43.2257201" lon="12.1776257"><ele>460.99999999999994</ele><time>2026-03-29T09:00:53.446Z</time></trkpt><trkpt lat="43.2257142" lon="12.1775045"><ele>461.0</ele><time>2026-03-29T09:00:54.447Z</time></trkpt><trkpt lat="43.2257189" lon="12.1774068"><ele>461.0</ele><time>2026-03-29T09:00:55.447Z</time></trkpt><trkpt lat="43.225712" lon="12.1773045"><ele>461.0</ele><time>2026-03-29T09:00:56.447Z</time></trkpt><trkpt lat="43.2257175" lon="12.1771987"><ele>460.99999999999994</ele><time>2026-03-29T09:00:57.446Z</time></trkpt><trkpt lat="43.2257363" lon="12.177089"><ele>461.0</ele><time>2026-03-29T09:00:58.447Z</time></trkpt><trkpt lat="43.2257541" lon="12.1769988"><ele>461.8</ele><time>2026-03-29T09:00:59.447Z</time></trkpt><trkpt lat="43.2257887" lon="12.1768639"><ele>462.6</ele><time>2026-03-29T09:01:00.446Z</time></trkpt><trkpt lat="43.2258052" lon="12.176776"><ele>463.4</ele><time>2026-03-29T09:01:01.446Z</time></trkpt><trkpt lat="43.2258297" lon="12.176696"><ele>464.2</ele><time>2026-03-29T09:01:02.446Z</time></trkpt><trkpt lat="43.2258836" lon="12.176545"><ele>465.0</ele><time>2026-03-29T09:01:04.446Z</time></trkpt><trkpt lat="43.2259696" lon="12.1764673"><ele>466.6</ele><time>2026-03-29T09:01:06.447Z</time></trkpt><trkpt lat="43.2260525" lon="12.1763127"><ele>468.2</ele><time>2026-03-29T09:01:08.447Z</time></trkpt><trkpt lat="43.2260802" lon="12.1762161"><ele>469.79999999999995</ele><time>2026-03-29T09:01:09.447Z</time></trkpt><trkpt lat="43.2261119" lon="12.1761239"><ele>471.4</ele><time>2026-03-29T09:01:10.447Z</time></trkpt><trkpt lat="43.226147" lon="12.1760162"><ele>473.0</ele><time>2026-03-29T09:01:12.447Z</time></trkpt><trkpt lat="43.2261933" lon="12.1758858"><ele>473.0</ele><time>2026-03-29T09:01:14.447Z</time></trkpt><trkpt lat="43.2261991" lon="12.1757957"><ele>473.0</ele><time>2026-03-29T09:01:15.445Z</time></trkpt><trkpt lat="43.2262177" lon="12.1757079"><ele>473.0</ele><time>2026-03-29T09:01:16.446Z</time></trkpt><trkpt lat="43.226231" lon="12.1756088"><ele>473.0</ele><time>2026-03-29T09:01:17.447Z</time></trkpt><trkpt lat="43.2262585" lon="12.175494"><ele>473.0</ele><time>2026-03-29T09:01:19.445Z</time></trkpt><trkpt lat="43.2262296" lon="12.1754102"><ele>473.0</ele><time>2026-03-29T09:01:20.447Z</time></trkpt><trkpt lat="43.2262098" lon="12.1753022"><ele>473.0</ele><time>2026-03-29T09:01:22.447Z</time></trkpt><trkpt lat="43.226259" lon="12.1751683"><ele>475.16666666666663</ele><time>2026-03-29T09:01:26.447Z</time></trkpt><trkpt lat="43.2262607" lon="12.175066"><ele>477.3333333333333</ele><time>2026-03-29T09:01:30.446Z</time></trkpt><trkpt lat="43.2262363" lon="12.1749649"><ele>479.5</ele><time>2026-03-29T09:01:33.515Z</time></trkpt><trkpt lat="43.226197" lon="12.1748577"><ele>481.66666666666663</ele><time>2026-03-29T09:01:37.446Z</time></trkpt><trkpt lat="43.2261784" lon="12.1747739"><ele>483.8333333333333</ele><time>2026-03-29T09:01:39.502Z</time></trkpt><trkpt lat="43.2260818" lon="12.1746405"><ele>486.0</ele><time>2026-03-29T09:01:41.447Z</time></trkpt><trkpt lat="43.2260251" lon="12.1745526"><ele>488.4</ele><time>2026-03-29T09:01:42.447Z</time></trkpt><trkpt lat="43.2259805" lon="12.174485"><ele>490.8</ele><time>2026-03-29T09:01:43.446Z</time></trkpt><trkpt lat="43.2259301" lon="12.1743909"><ele>493.19999999999993</ele><time>2026-03-29T09:01:45.446Z</time></trkpt><trkpt lat="43.225986" lon="12.1743105"><ele>495.59999999999997</ele><time>2026-03-29T09:01:47.446Z</time></trkpt><trkpt lat="43.2261039" lon="12.1742876"><ele>498.0</ele><time>2026-03-29T09:01:49.446Z</time></trkpt><trkpt lat="43.2262005" lon="12.1742509"><ele>498.0</ele><time>2026-03-29T09:01:51.447Z</time></trkpt><trkpt lat="43.2263008" lon="12.1741839"><ele>498.0</ele><time>2026-03-29T09:01:54.447Z</time></trkpt><trkpt lat="43.2263622" lon="12.1741608"><ele>498.0</ele><time>2026-03-29T09:01:55.447Z</time></trkpt><trkpt lat="43.2264324" lon="12.174111"><ele>498.0</ele><time>2026-03-29T09:01:57.447Z</time></trkpt><trkpt lat="43.2265057" lon="12.1740873"><ele>498.0</ele><time>2026-03-29T09:01:58.447Z</time></trkpt><trkpt lat="43.226581" lon="12.1740661"><ele>498.0</ele><time>2026-03-29T09:02:00.446Z</time></trkpt><trkpt lat="43.2266668" lon="12.1740042"><ele>502.1666666666667</ele><time>2026-03-29T09:02:03.446Z</time></trkpt><trkpt lat="43.2267419" lon="12.1739731"><ele>506.33333333333337</ele><time>2026-03-29T09:02:04.447Z</time></trkpt><trkpt lat="43.2268288" lon="12.17393"><ele>510.5</ele><time>2026-03-29T09:02:06.446Z</time></trkpt><trkpt lat="43.2269211" lon="12.1738866"><ele>514.6666666666667</ele><time>2026-03-29T09:02:08.447Z</time></trkpt><trkpt lat="43.2270107" lon="12.1738563"><ele>518.8333333333334</ele><time>2026-03-29T09:02:09.446Z</time></trkpt><trkpt lat="43.2269787" lon="12.1737679"><ele>523.0</ele><time>2026-03-29T09:02:11.447Z</time></trkpt><trkpt lat="43.2268965" lon="12.1736997"><ele>523.0</ele><time>2026-03-29T09:02:13.447Z</time></trkpt><trkpt lat="43.2268501" lon="12.1736098"><ele>523.0</ele><time>2026-03-29T09:02:16.447Z</time></trkpt><trkpt lat="43.2268032" lon="12.1735103"><ele>523.0</ele><time>2026-03-29T09:02:18.446Z</time></trkpt><trkpt lat="43.2267488" lon="12.1734114"><ele>523.0</ele><time>2026-03-29T09:02:20.448Z</time></trkpt><trkpt lat="43.2267189" lon="12.1732874"><ele>523.0</ele><time>2026-03-29T09:02:22.447Z</time></trkpt><trkpt lat="43.2267805" lon="12.1731467"><ele>525.0</ele><time>2026-03-29T09:02:25.446Z</time></trkpt><trkpt lat="43.2268667" lon="12.1730995"><ele>527.0</ele><time>2026-03-29T09:02:26.447Z</time></trkpt><trkpt lat="43.2269109" lon="12.1730233"><ele>529.0</ele><time>2026-03-29T09:02:28.446Z</time></trkpt><trkpt lat="43.2269299" lon="12.1729165"><ele>531.0</ele><time>2026-03-29T09:02:30.447Z</time></trkpt><trkpt lat="43.2269192" lon="12.1727955"><ele>533.0</ele><time>2026-03-29T09:02:32.446Z</time></trkpt><trkpt lat="43.2269259" lon="12.1726597"><ele>535.0</ele><time>2026-03-29T09:02:34.447Z</time></trkpt><trkpt lat="43.226943" lon="12.1725511"><ele>535.0</ele><time>2026-03-29T09:02:36.447Z</time></trkpt><trkpt lat="43.2269551" lon="12.1724224"><ele>535.0</ele><time>2026-03-29T09:02:39.446Z</time></trkpt><trkpt lat="43.226934" lon="12.1723078"><ele>535.0</ele><time>2026-03-29T09:02:41.448Z</time></trkpt><trkpt lat="43.2269006" lon="12.1721544"><ele>535.0</ele><time>2026-03-29T09:02:42.446Z</time></trkpt><trkpt lat="43.2268704" lon="12.1720145"><ele>535.0</ele><time>2026-03-29T09:02:44.446Z</time></trkpt><trkpt lat="43.2267931" lon="12.1719096"><ele>537.5</ele><time>2026-03-29T09:02:46.446Z</time></trkpt><trkpt lat="43.2267346" lon="12.1718131"><ele>540.0</ele><time>2026-03-29T09:02:48.447Z</time></trkpt><trkpt lat="43.2266896" lon="12.1717408"><ele>542.5</ele><time>2026-03-29T09:02:50.446Z</time></trkpt><trkpt lat="43.2266339" lon="12.1716717"><ele>545.0</ele><time>2026-03-29T09:02:52.446Z</time></trkpt><trkpt lat="43.2266183" lon="12.1715281"><ele>547.5</ele><time>2026-03-29T09:02:54.447Z</time></trkpt><trkpt lat="43.2267037" lon="12.1715002"><ele>550.0</ele><time>2026-03-29T09:02:55.446Z</time></trkpt><trkpt lat="43.2267672" lon="12.1714821"><ele>552.0</ele><time>2026-03-29T09:02:56.447Z</time></trkpt><trkpt lat="43.2268925" lon="12.1714469"><ele>554.0</ele><time>2026-03-29T09:02:58.446Z</time></trkpt><trkpt lat="43.2269608" lon="12.1714328"><ele>556.0</ele><time>2026-03-29T09:02:59.447Z</time></trkpt><trkpt lat="43.2270435" lon="12.1713663"><ele>558.0</ele><time>2026-03-29T09:03:01.446Z</time></trkpt><trkpt lat="43.2270006" lon="12.1713011"><ele>560.0</ele><time>2026-03-29T09:03:03.446Z</time></trkpt><trkpt lat="43.2269464" lon="12.1710986"><ele>560.0</ele><time>2026-03-29T09:03:05.446Z</time></trkpt><trkpt lat="43.2268583" lon="12.1709994"><ele>560.0</ele><time>2026-03-29T09:03:07.447Z</time></trkpt><trkpt lat="43.2267917" lon="12.1709202"><ele>560.0</ele><time>2026-03-29T09:03:09.446Z</time></trkpt><trkpt lat="43.2267588" lon="12.1708242"><ele>560.0</ele><time>2026-03-29T09:03:11.447Z</time></trkpt><trkpt lat="43.2267842" lon="12.1706735"><ele>560.0</ele><time>2026-03-29T09:03:13.445Z</time></trkpt><trkpt lat="43.2267693" lon="12.1705"><ele>561.0</ele><time>2026-03-29T09:03:15.447Z</time></trkpt><trkpt lat="43.2269155" lon="12.1705488"><ele>562.0</ele><time>2026-03-29T09:03:17.446Z</time></trkpt><trkpt lat="43.22701" lon="12.1706006"><ele>563.0</ele><time>2026-03-29T09:03:18.446Z</time></trkpt><trkpt lat="43.2270984" lon="12.1706281"><ele>564.0</ele><time>2026-03-29T09:03:19.447Z</time></trkpt><trkpt lat="43.2271837" lon="12.170652"><ele>565.0</ele><time>2026-03-29T09:03:20.447Z</time></trkpt><trkpt lat="43.2272554" lon="12.1706796"><ele>565.8333333333334</ele><time>2026-03-29T09:03:21.447Z</time></trkpt><trkpt lat="43.2273204" lon="12.1706914"><ele>566.6666666666667</ele><time>2026-03-29T09:03:22.447Z</time></trkpt><trkpt lat="43.2273873" lon="12.1706808"><ele>567.5</ele><time>2026-03-29T09:03:24.446Z</time></trkpt><trkpt lat="43.2274806" lon="12.170674"><ele>568.3333333333334</ele><time>2026-03-29T09:06:52.448Z</time></trkpt><trkpt lat="43.227557" lon="12.1707134"><ele>569.1666666666666</ele><time>2026-03-29T09:06:54.448Z</time></trkpt><trkpt lat="43.2276168" lon="12.1707677"><ele>570.0</ele><time>2026-03-29T09:06:55.447Z</time></trkpt><trkpt lat="43.2276887" lon="12.1708172"><ele>570.0</ele><time>2026-03-29T09:06:56.448Z</time></trkpt><trkpt lat="43.2278091" lon="12.170866"><ele>570.0</ele><time>2026-03-29T09:06:58.448Z</time></trkpt><trkpt lat="43.2278746" lon="12.1708814"><ele>570.0</ele><time>2026-03-29T09:06:59.447Z</time></trkpt><trkpt lat="43.2279432" lon="12.1708798"><ele>570.0</ele><time>2026-03-29T09:07:00.448Z</time></trkpt><trkpt lat="43.2280067" lon="12.1708832"><ele>570.0</ele><time>2026-03-29T09:07:01.447Z</time></trkpt><trkpt lat="43.2280957" lon="12.1708623"><ele>570.0</ele><time>2026-03-29T09:07:02.448Z</time></trkpt><trkpt lat="43.228213" lon="12.1708468"><ele>570.4</ele><time>2026-03-29T09:07:04.448Z</time></trkpt><trkpt lat="43.2282744" lon="12.170923"><ele>570.8</ele><time>2026-03-29T09:07:05.448Z</time></trkpt><trkpt lat="43.2283196" lon="12.1709902"><ele>571.2</ele><time>2026-03-29T09:07:06.448Z</time></trkpt><trkpt lat="43.2283675" lon="12.1710727"><ele>571.6</ele><time>2026-03-29T09:07:07.448Z</time></trkpt><trkpt lat="43.2284319" lon="12.1711666"><ele>572.0</ele><time>2026-03-29T09:07:09.448Z</time></trkpt><trkpt lat="43.2285563" lon="12.1712465"><ele>572.0</ele><time>2026-03-29T09:07:11.447Z</time></trkpt><trkpt lat="43.2286313" lon="12.171272"><ele>572.0</ele><time>2026-03-29T09:07:12.447Z</time></trkpt><trkpt lat="43.2287377" lon="12.1712925"><ele>572.0</ele><time>2026-03-29T09:07:13.447Z</time></trkpt><trkpt lat="43.2288048" lon="12.1713426"><ele>572.0</ele><time>2026-03-29T09:07:14.447Z</time></trkpt><trkpt lat="43.2288759" lon="12.1713906"><ele>572.0</ele><time>2026-03-29T09:07:15.448Z</time></trkpt><trkpt lat="43.2289599" lon="12.1714212"><ele>572.0</ele><time>2026-03-29T09:07:16.448Z</time></trkpt><trkpt lat="43.229036" lon="12.1714438"><ele>574.0</ele><time>2026-03-29T09:07:17.447Z</time></trkpt><trkpt lat="43.2291189" lon="12.1714826"><ele>576.0</ele><time>2026-03-29T09:07:18.447Z</time></trkpt><trkpt lat="43.2291721" lon="12.1715361"><ele>578.0</ele><time>2026-03-29T09:07:19.447Z</time></trkpt><trkpt lat="43.2292535" lon="12.1715993"><ele>580.0</ele><time>2026-03-29T09:07:20.448Z</time></trkpt><trkpt lat="43.2293507" lon="12.1716919"><ele>582.0</ele><time>2026-03-29T09:07:21.448Z</time></trkpt><trkpt lat="43.2294212" lon="12.1717586"><ele>579.1666666666666</ele><time>2026-03-29T09:07:22.448Z</time></trkpt><trkpt lat="43.229483" lon="12.1718294"><ele>576.3333333333334</ele><time>2026-03-29T09:07:23.448Z</time></trkpt><trkpt lat="43.2295474" lon="12.1718907"><ele>573.5</ele><time>2026-03-29T09:07:24.448Z</time></trkpt><trkpt lat="43.2296047" lon="12.1719694"><ele>570.6666666666667</ele><time>2026-03-29T09:07:25.447Z</time></trkpt><trkpt lat="43.2297083" lon="12.1720742"><ele>567.8333333333334</ele><time>2026-03-29T09:07:27.448Z</time></trkpt><trkpt lat="43.2297778" lon="12.1721055"><ele>565.0</ele><time>2026-03-29T09:07:28.448Z</time></trkpt><trkpt lat="43.2298743" lon="12.1720999"><ele>565.0</ele><time>2026-03-29T09:07:29.447Z</time></trkpt><trkpt lat="43.2299561" lon="12.172093"><ele>565.0</ele><time>2026-03-29T09:07:30.447Z</time></trkpt><trkpt lat="43.2300397" lon="12.1721271"><ele>565.0</ele><time>2026-03-29T09:07:31.448Z</time></trkpt><trkpt lat="43.2301186" lon="12.1721467"><ele>565.0</ele><time>2026-03-29T09:07:32.448Z</time></trkpt><trkpt lat="43.2301988" lon="12.1721371"><ele>565.0</ele><time>2026-03-29T09:07:33.447Z</time></trkpt><trkpt lat="43.2302731" lon="12.1720949"><ele>565.0</ele><time>2026-03-29T09:07:34.448Z</time></trkpt><trkpt lat="43.2303462" lon="12.1720672"><ele>565.0</ele><time>2026-03-29T09:07:35.447Z</time></trkpt><trkpt lat="43.2304318" lon="12.1720467"><ele>565.0</ele><time>2026-03-29T09:07:36.448Z</time></trkpt><trkpt lat="43.2305238" lon="12.1720111"><ele>565.0</ele><time>2026-03-29T09:07:37.447Z</time></trkpt><trkpt lat="43.230596" lon="12.1719547"><ele>565.0</ele><time>2026-03-29T09:07:38.448Z</time></trkpt><trkpt lat="43.2306716" lon="12.1718853"><ele>565.0</ele><time>2026-03-29T09:07:39.447Z</time></trkpt><trkpt lat="43.2307454" lon="12.1718266"><ele>565.0</ele><time>2026-03-29T09:07:40.448Z</time></trkpt><trkpt lat="43.2307965" lon="12.1717512"><ele>563.5</ele><time>2026-03-29T09:07:41.447Z</time></trkpt><trkpt lat="43.2308417" lon="12.1716612"><ele>562.0</ele><time>2026-03-29T09:07:42.447Z</time></trkpt><trkpt lat="43.2308839" lon="12.1715835"><ele>560.5</ele><time>2026-03-29T09:07:43.447Z</time></trkpt><trkpt lat="43.2309019" lon="12.1714624"><ele>559.0</ele><time>2026-03-29T09:07:44.448Z</time></trkpt><trkpt lat="43.2309329" lon="12.1713578"><ele>557.5</ele><time>2026-03-29T09:07:45.447Z</time></trkpt><trkpt lat="43.2309535" lon="12.1712343"><ele>556.0</ele><time>2026-03-29T09:07:46.447Z</time></trkpt><trkpt lat="43.2309905" lon="12.1711444"><ele>556.0</ele><time>2026-03-29T09:07:47.448Z</time></trkpt><trkpt lat="43.2310216" lon="12.1710515"><ele>556.0</ele><time>2026-03-29T09:07:48.448Z</time></trkpt><trkpt lat="43.2310089" lon="12.1709385"><ele>556.0</ele><time>2026-03-29T09:07:50.448Z</time></trkpt><trkpt lat="43.2310485" lon="12.1708238"><ele>556.0</ele><time>2026-03-29T09:07:52.447Z</time></trkpt><trkpt lat="43.2311345" lon="12.1707829"><ele>556.0</ele><time>2026-03-29T09:07:53.447Z</time></trkpt><trkpt lat="43.2312059" lon="12.1707768"><ele>556.0</ele><time>2026-03-29T09:07:54.448Z</time></trkpt><trkpt lat="43.2312866" lon="12.1707244"><ele>557.0</ele><time>2026-03-29T09:07:55.447Z</time></trkpt><trkpt lat="43.2313915" lon="12.1706246"><ele>558.0</ele><time>2026-03-29T09:07:57.447Z</time></trkpt><trkpt lat="43.2314301" lon="12.1705544"><ele>559.0</ele><time>2026-03-29T09:07:58.447Z</time></trkpt><trkpt lat="43.2314204" lon="12.1703059"><ele>560.0</ele><time>2026-03-29T09:08:00.448Z</time></trkpt><trkpt lat="43.2314732" lon="12.1702481"><ele>561.0</ele><time>2026-03-29T09:08:02.447Z</time></trkpt><trkpt lat="43.2315674" lon="12.1701811"><ele>561.0</ele><time>2026-03-29T09:08:04.447Z</time></trkpt><trkpt lat="43.2316931" lon="12.170132"><ele>561.0</ele><time>2026-03-29T09:08:05.448Z</time></trkpt><trkpt lat="43.2317757" lon="12.1700877"><ele>561.0</ele><time>2026-03-29T09:08:06.447Z</time></trkpt><trkpt lat="43.2319054" lon="12.1700271"><ele>561.0</ele><time>2026-03-29T09:08:07.447Z</time></trkpt><trkpt lat="43.2320095" lon="12.169941"><ele>561.0</ele><time>2026-03-29T09:08:08.447Z</time></trkpt><trkpt lat="43.2320919" lon="12.1699074"><ele>561.0</ele><time>2026-03-29T09:08:09.447Z</time></trkpt><trkpt lat="43.2321619" lon="12.1698563"><ele>561.0</ele><time>2026-03-29T09:08:10.447Z</time></trkpt><trkpt lat="43.2322234" lon="12.1697891"><ele>561.0</ele><time>2026-03-29T09:08:11.448Z</time></trkpt><trkpt lat="43.2322798" lon="12.1697068"><ele>561.0</ele><time>2026-03-29T09:08:12.447Z</time></trkpt><trkpt lat="43.2323386" lon="12.1696182"><ele>561.0</ele><time>2026-03-29T09:08:13.447Z</time></trkpt><trkpt lat="43.2324008" lon="12.1695139"><ele>562.0</ele><time>2026-03-29T09:08:14.448Z</time></trkpt><trkpt lat="43.2324553" lon="12.1694451"><ele>563.0</ele><time>2026-03-29T09:08:15.447Z</time></trkpt><trkpt lat="43.2324973" lon="12.1693137"><ele>564.0</ele><time>2026-03-29T09:08:16.448Z</time></trkpt><trkpt lat="43.2325533" lon="12.1692348"><ele>565.0</ele><time>2026-03-29T09:08:17.448Z</time></trkpt><trkpt lat="43.2326081" lon="12.1691685"><ele>566.0</ele><time>2026-03-29T09:08:18.448Z</time></trkpt><trkpt lat="43.2326645" lon="12.1691064"><ele>567.0</ele><time>2026-03-29T09:08:19.447Z</time></trkpt><trkpt lat="43.232718" lon="12.1690379"><ele>571.8000000000001</ele><time>2026-03-29T09:08:20.447Z</time></trkpt><trkpt lat="43.2327787" lon="12.1689465"><ele>576.6</ele><time>2026-03-29T09:08:21.447Z</time></trkpt><trkpt lat="43.2328645" lon="12.1688671"><ele>581.4000000000001</ele><time>2026-03-29T09:08:22.447Z</time></trkpt><trkpt lat="43.2329578" lon="12.1687921"><ele>586.2</ele><time>2026-03-29T09:08:23.447Z</time></trkpt><trkpt lat="43.2330349" lon="12.1687297"><ele>591.0</ele><time>2026-03-29T09:08:24.447Z</time></trkpt><trkpt lat="43.2331054" lon="12.1687275"><ele>588.5</ele><time>2026-03-29T09:08:25.448Z</time></trkpt><trkpt lat="43.2331723" lon="12.1687413"><ele>586.0</ele><time>2026-03-29T09:08:27.447Z</time></trkpt><trkpt lat="43.2332498" lon="12.1687423"><ele>583.5</ele><time>2026-03-29T09:08:29.447Z</time></trkpt><trkpt lat="43.2333631" lon="12.1687771"><ele>581.0</ele><time>2026-03-29T09:08:32.448Z</time></trkpt><trkpt lat="43.2334327" lon="12.1687824"><ele>578.5</ele><time>2026-03-29T09:08:33.448Z</time></trkpt><trkpt lat="43.2335064" lon="12.1686981"><ele>576.0</ele><time>2026-03-29T09:08:35.447Z</time></trkpt><trkpt lat="43.233514" lon="12.1686042"><ele>576.0</ele><time>2026-03-29T09:08:37.447Z</time></trkpt><trkpt lat="43.2334366" lon="12.1685465"><ele>576.0</ele><time>2026-03-29T09:08:39.448Z</time></trkpt><trkpt lat="43.233339" lon="12.1685478"><ele>576.0</ele><time>2026-03-29T09:08:40.448Z</time></trkpt><trkpt lat="43.2332369" lon="12.1684712"><ele>576.0</ele><time>2026-03-29T09:08:42.448Z</time></trkpt><trkpt lat="43.2332246" lon="12.1683383"><ele>576.0</ele><time>2026-03-29T09:08:44.447Z</time></trkpt><trkpt lat="43.2332369" lon="12.1681713"><ele>577.0</ele><time>2026-03-29T09:08:45.448Z</time></trkpt><trkpt lat="43.2332662" lon="12.1680817"><ele>578.0</ele><time>2026-03-29T09:08:46.447Z</time></trkpt><trkpt lat="43.2333468" lon="12.1680046"><ele>579.0</ele><time>2026-03-29T09:08:47.447Z</time></trkpt><trkpt lat="43.233352" lon="12.1678208"><ele>580.0</ele><time>2026-03-29T09:08:48.448Z</time></trkpt><trkpt lat="43.2333417" lon="12.1677308"><ele>581.0</ele><time>2026-03-29T09:08:49.448Z</time></trkpt><trkpt lat="43.2333182" lon="12.1676231"><ele>581.0</ele><time>2026-03-29T09:08:50.447Z</time></trkpt><trkpt lat="43.233295" lon="12.1674968"><ele>581.0</ele><time>2026-03-29T09:08:51.447Z</time></trkpt><trkpt lat="43.2332749" lon="12.1673202"><ele>581.0</ele><time>2026-03-29T09:08:53.448Z</time></trkpt><trkpt lat="43.2333013" lon="12.1671307"><ele>581.0</ele><time>2026-03-29T09:08:55.447Z</time></trkpt><trkpt lat="43.2333155" lon="12.1670182"><ele>581.0</ele><time>2026-03-29T09:08:56.447Z</time></trkpt><trkpt lat="43.2333352" lon="12.1668824"><ele>581.2857142857143</ele><time>2026-03-29T09:08:57.447Z</time></trkpt><trkpt lat="43.2333127" lon="12.1667925"><ele>581.5714285714286</ele><time>2026-03-29T09:08:58.447Z</time></trkpt><trkpt lat="43.2333189" lon="12.1666918"><ele>581.8571428571429</ele><time>2026-03-29T09:08:59.448Z</time></trkpt><trkpt lat="43.233304" lon="12.1665846"><ele>582.1428571428571</ele><time>2026-03-29T09:09:00.447Z</time></trkpt><trkpt lat="43.2333007" lon="12.1664875"><ele>582.4285714285714</ele><time>2026-03-29T09:09:01.447Z</time></trkpt><trkpt lat="43.2333393" lon="12.1665676"><ele>582.7142857142858</ele><time>2026-03-29T09:09:02.448Z</time></trkpt><trkpt lat="43.2334039" lon="12.1665763"><ele>583.0</ele><time>2026-03-29T09:09:05.448Z</time></trkpt><trkpt lat="43.2335055" lon="12.1666141"><ele>583.0</ele><time>2026-03-29T09:09:07.448Z</time></trkpt><trkpt lat="43.2336023" lon="12.1666022"><ele>583.0</ele><time>2026-03-29T09:09:08.448Z</time></trkpt><trkpt lat="43.2337719" lon="12.166575"><ele>583.0</ele><time>2026-03-29T09:09:09.448Z</time></trkpt><trkpt lat="43.2339031" lon="12.1664696"><ele>583.0</ele><time>2026-03-29T09:09:10.447Z</time></trkpt><trkpt lat="43.2340284" lon="12.1664381"><ele>582.4</ele><time>2026-03-29T09:09:11.447Z</time></trkpt><trkpt lat="43.2341434" lon="12.1663585"><ele>581.8</ele><time>2026-03-29T09:09:12.447Z</time></trkpt><trkpt lat="43.2342581" lon="12.1662962"><ele>581.2</ele><time>2026-03-29T09:09:13.447Z</time></trkpt><trkpt lat="43.2343321" lon="12.166279"><ele>580.6</ele><time>2026-03-29T09:09:14.448Z</time></trkpt><trkpt lat="43.2344296" lon="12.1663306"><ele>580.0</ele><time>2026-03-29T09:09:16.448Z</time></trkpt><trkpt lat="43.2345401" lon="12.1664012"><ele>580.0</ele><time>2026-03-29T09:09:18.448Z</time></trkpt><trkpt lat="43.23461" lon="12.1664328"><ele>580.0</ele><time>2026-03-29T09:09:19.447Z</time></trkpt><trkpt lat="43.234688" lon="12.1664574"><ele>580.0</ele><time>2026-03-29T09:09:20.448Z</time></trkpt><trkpt lat="43.2348082" lon="12.1664709"><ele>580.0</ele><time>2026-03-29T09:09:21.448Z</time></trkpt><trkpt lat="43.2348908" lon="12.1664811"><ele>580.0</ele><time>2026-03-29T09:09:22.448Z</time></trkpt><trkpt lat="43.2349839" lon="12.1664886"><ele>581.1666666666667</ele><time>2026-03-29T09:09:23.448Z</time></trkpt><trkpt lat="43.2350655" lon="12.1665263"><ele>582.3333333333334</ele><time>2026-03-29T09:09:24.448Z</time></trkpt><trkpt lat="43.2351466" lon="12.166584"><ele>583.5</ele><time>2026-03-29T09:09:25.448Z</time></trkpt><trkpt lat="43.2352105" lon="12.1666709"><ele>584.6666666666666</ele><time>2026-03-29T09:09:26.448Z</time></trkpt><trkpt lat="43.2352864" lon="12.166733"><ele>585.8333333333333</ele><time>2026-03-29T09:09:27.448Z</time></trkpt><trkpt lat="43.2353236" lon="12.166819"><ele>587.0</ele><time>2026-03-29T09:09:28.447Z</time></trkpt><trkpt lat="43.2353756" lon="12.1668748"><ele>583.8333333333333</ele><time>2026-03-29T09:09:29.447Z</time></trkpt><trkpt lat="43.2354418" lon="12.166946"><ele>580.6666666666666</ele><time>2026-03-29T09:09:30.448Z</time></trkpt><trkpt lat="43.2355014" lon="12.1670132"><ele>577.5</ele><time>2026-03-29T09:09:31.448Z</time></trkpt><trkpt lat="43.2355659" lon="12.1670795"><ele>574.3333333333334</ele><time>2026-03-29T09:09:32.447Z</time></trkpt><trkpt lat="43.2356381" lon="12.1671385"><ele>571.1666666666667</ele><time>2026-03-29T09:09:33.448Z</time></trkpt><trkpt lat="43.2356992" lon="12.1672126"><ele>568.0</ele><time>2026-03-29T09:09:34.446Z</time></trkpt><trkpt lat="43.2357628" lon="12.1672792"><ele>568.0</ele><time>2026-03-29T09:09:35.447Z</time></trkpt><trkpt lat="43.2358119" lon="12.1673511"><ele>568.0</ele><time>2026-03-29T09:09:36.447Z</time></trkpt><trkpt lat="43.2358691" lon="12.1674223"><ele>568.0</ele><time>2026-03-29T09:09:38.447Z</time></trkpt><trkpt lat="43.2359709" lon="12.1674054"><ele>568.0</ele><time>2026-03-29T09:09:40.447Z</time></trkpt><trkpt lat="43.2360189" lon="12.1673295"><ele>568.0</ele><time>2026-03-29T09:09:41.448Z</time></trkpt><trkpt lat="43.2360525" lon="12.167219"><ele>568.0</ele><time>2026-03-29T09:09:42.447Z</time></trkpt><trkpt lat="43.2360801" lon="12.1670998"><ele>568.0</ele><time>2026-03-29T09:09:43.448Z</time></trkpt><trkpt lat="43.2361273" lon="12.166995"><ele>568.0</ele><time>2026-03-29T09:09:44.448Z</time></trkpt><trkpt lat="43.2361907" lon="12.1669066"><ele>568.0</ele><time>2026-03-29T09:09:45.448Z</time></trkpt><trkpt lat="43.2362911" lon="12.1667378"><ele>568.0</ele><time>2026-03-29T09:09:47.447Z</time></trkpt><trkpt lat="43.2363949" lon="12.1667328"><ele>568.0</ele><time>2026-03-29T09:09:50.447Z</time></trkpt><trkpt lat="43.2364855" lon="12.1667996"><ele>565.0</ele><time>2026-03-29T09:09:52.447Z</time></trkpt><trkpt lat="43.2366133" lon="12.1668629"><ele>562.0</ele><time>2026-03-29T09:09:54.448Z</time></trkpt><trkpt lat="43.23672" lon="12.1669376"><ele>559.0</ele><time>2026-03-29T09:09:55.447Z</time></trkpt><trkpt lat="43.2367874" lon="12.1669876"><ele>556.0</ele><time>2026-03-29T09:09:56.447Z</time></trkpt><trkpt lat="43.236837" lon="12.1670711"><ele>553.0</ele><time>2026-03-29T09:09:57.447Z</time></trkpt><trkpt lat="43.236893" lon="12.1671332"><ele>553.0</ele><time>2026-03-29T09:09:58.448Z</time></trkpt><trkpt lat="43.2369851" lon="12.16716"><ele>553.0</ele><time>2026-03-29T09:10:00.447Z</time></trkpt><trkpt lat="43.2371212" lon="12.1671548"><ele>553.0</ele><time>2026-03-29T09:10:02.448Z</time></trkpt><trkpt lat="43.2372185" lon="12.1671213"><ele>553.0</ele><time>2026-03-29T09:10:03.447Z</time></trkpt><trkpt lat="43.2372829" lon="12.1670522"><ele>553.0</ele><time>2026-03-29T09:10:04.447Z</time></trkpt><trkpt lat="43.2373434" lon="12.1670112"><ele>551.4</ele><time>2026-03-29T09:10:05.447Z</time></trkpt><trkpt lat="43.2374245" lon="12.1669841"><ele>549.8</ele><time>2026-03-29T09:10:06.448Z</time></trkpt><trkpt lat="43.2375426" lon="12.1669681"><ele>548.2</ele><time>2026-03-29T09:10:08.448Z</time></trkpt><trkpt lat="43.2376357" lon="12.1669684"><ele>546.6</ele><time>2026-03-29T09:10:09.448Z</time></trkpt><trkpt lat="43.2377145" lon="12.1669986"><ele>545.0</ele><time>2026-03-29T09:10:10.447Z</time></trkpt><trkpt lat="43.2377854" lon="12.1670235"><ele>545.0</ele><time>2026-03-29T09:10:11.447Z</time></trkpt><trkpt lat="43.2378634" lon="12.16705"><ele>545.0</ele><time>2026-03-29T09:10:12.447Z</time></trkpt><trkpt lat="43.237954" lon="12.1670732"><ele>545.0</ele><time>2026-03-29T09:10:13.447Z</time></trkpt><trkpt lat="43.2380295" lon="12.1670861"><ele>545.0</ele><time>2026-03-29T09:10:14.447Z</time></trkpt><trkpt lat="43.2381293" lon="12.1670766"><ele>545.0</ele><time>2026-03-29T09:10:15.447Z</time></trkpt><trkpt lat="43.238216" lon="12.1670475"><ele>545.0</ele><time>2026-03-29T09:10:16.447Z</time></trkpt><trkpt lat="43.2383194" lon="12.1670235"><ele>542.1666666666666</ele><time>2026-03-29T09:10:18.447Z</time></trkpt><trkpt lat="43.2383999" lon="12.1670027"><ele>539.3333333333333</ele><time>2026-03-29T09:10:19.447Z</time></trkpt><trkpt lat="43.2384644" lon="12.1670176"><ele>536.5</ele><time>2026-03-29T09:10:20.448Z</time></trkpt><trkpt lat="43.2385722" lon="12.1670547"><ele>533.6666666666666</ele><time>2026-03-29T09:10:21.448Z</time></trkpt><trkpt lat="43.2386461" lon="12.1670923"><ele>530.8333333333334</ele><time>2026-03-29T09:10:22.448Z</time></trkpt><trkpt lat="43.2387115" lon="12.1671323"><ele>528.0</ele><time>2026-03-29T09:10:23.447Z</time></trkpt><trkpt lat="43.2387572" lon="12.1670479"><ele>528.0</ele><time>2026-03-29T09:10:28.447Z</time></trkpt><trkpt lat="43.238725" lon="12.1668873"><ele>528.0</ele><time>2026-03-29T09:10:31.448Z</time></trkpt><trkpt lat="43.2387037" lon="12.1667305"><ele>528.0</ele><time>2026-03-29T09:10:33.447Z</time></trkpt><trkpt lat="43.2386754" lon="12.1666383"><ele>528.0</ele><time>2026-03-29T09:10:34.447Z</time></trkpt><trkpt lat="43.238655" lon="12.1665485"><ele>528.0</ele><time>2026-03-29T09:10:35.448Z</time></trkpt><trkpt lat="43.2386322" lon="12.1664678"><ele>528.0</ele><time>2026-03-29T09:10:36.447Z</time></trkpt><trkpt lat="43.2385993" lon="12.1663391"><ele>529.0</ele><time>2026-03-29T09:10:37.448Z</time></trkpt><trkpt lat="43.2385724" lon="12.1662128"><ele>530.0</ele><time>2026-03-29T09:10:38.447Z</time></trkpt><trkpt lat="43.2385472" lon="12.1660443"><ele>531.0</ele><time>2026-03-29T09:10:39.447Z</time></trkpt><trkpt lat="43.2385218" lon="12.1658984"><ele>532.0</ele><time>2026-03-29T09:10:40.447Z</time></trkpt><trkpt lat="43.2384885" lon="12.1657091"><ele>532.25</ele><time>2026-03-29T09:10:41.448Z</time></trkpt><trkpt lat="43.2384764" lon="12.1655386"><ele>532.5</ele><time>2026-03-29T09:10:42.448Z</time></trkpt><trkpt lat="43.2384625" lon="12.165333"><ele>532.75</ele><time>2026-03-29T09:10:43.448Z</time></trkpt><trkpt lat="43.238439" lon="12.1651353"><ele>533.0</ele><time>2026-03-29T09:10:44.448Z</time></trkpt><trkpt lat="43.2384345" lon="12.1650299"><ele>533.0</ele><time>2026-03-29T09:10:45.447Z</time></trkpt><trkpt lat="43.2384096" lon="12.1648842"><ele>533.0</ele><time>2026-03-29T09:10:46.448Z</time></trkpt><trkpt lat="43.238359" lon="12.1647036"><ele>533.0</ele><time>2026-03-29T09:10:47.447Z</time></trkpt><trkpt lat="43.2383343" lon="12.1645554"><ele>533.0</ele><time>2026-03-29T09:10:48.448Z</time></trkpt><trkpt lat="43.2382902" lon="12.1643886"><ele>532.75</ele><time>2026-03-29T09:10:49.448Z</time></trkpt><trkpt lat="43.2382261" lon="12.1642181"><ele>532.5</ele><time>2026-03-29T09:10:50.447Z</time></trkpt><trkpt lat="43.2382218" lon="12.1640409"><ele>532.25</ele><time>2026-03-29T09:10:51.448Z</time></trkpt><trkpt lat="43.2382889" lon="12.1639437"><ele>532.0</ele><time>2026-03-29T09:10:52.447Z</time></trkpt><trkpt lat="43.238275" lon="12.1638039"><ele>531.6</ele><time>2026-03-29T09:10:53.447Z</time></trkpt><trkpt lat="43.2382468" lon="12.1636664"><ele>531.2</ele><time>2026-03-29T09:10:54.447Z</time></trkpt><trkpt lat="43.2381923" lon="12.1635359"><ele>530.8</ele><time>2026-03-29T09:10:55.448Z</time></trkpt><trkpt lat="43.2381242" lon="12.1633775"><ele>530.4</ele><time>2026-03-29T09:10:56.448Z</time></trkpt><trkpt lat="43.2380427" lon="12.1632989"><ele>530.0</ele><time>2026-03-29T09:10:57.447Z</time></trkpt><trkpt lat="43.2379461" lon="12.1632326"><ele>534.5</ele><time>2026-03-29T09:10:58.447Z</time></trkpt><trkpt lat="43.2378348" lon="12.163187"><ele>539.0</ele><time>2026-03-29T09:10:59.447Z</time></trkpt><trkpt lat="43.2377229" lon="12.1631059"><ele>543.5</ele><time>2026-03-29T09:11:00.448Z</time></trkpt><trkpt lat="43.2376325" lon="12.1630427"><ele>548.0</ele><time>2026-03-29T09:11:01.448Z</time></trkpt><trkpt lat="43.2375549" lon="12.1629295"><ele>548.0</ele><time>2026-03-29T09:11:02.447Z</time></trkpt><trkpt lat="43.2375129" lon="12.1628082"><ele>548.0</ele><time>2026-03-29T09:11:03.448Z</time></trkpt><trkpt lat="43.237482" lon="12.1626798"><ele>548.0</ele><time>2026-03-29T09:11:04.447Z</time></trkpt><trkpt lat="43.2374355" lon="12.1625756"><ele>548.0</ele><time>2026-03-29T09:11:05.448Z</time></trkpt><trkpt lat="43.2373711" lon="12.1624658"><ele>548.0</ele><time>2026-03-29T09:11:06.447Z</time></trkpt><trkpt lat="43.2372712" lon="12.1624017"><ele>551.6666666666666</ele><time>2026-03-29T09:11:07.447Z</time></trkpt><trkpt lat="43.2372019" lon="12.1623795"><ele>555.3333333333333</ele><time>2026-03-29T09:11:08.448Z</time></trkpt><trkpt lat="43.2371274" lon="12.162343"><ele>559.0</ele><time>2026-03-29T09:11:09.448Z</time></trkpt><trkpt lat="43.2370597" lon="12.1623088"><ele>562.6666666666666</ele><time>2026-03-29T09:11:10.447Z</time></trkpt><trkpt lat="43.2370174" lon="12.1622209"><ele>566.3333333333334</ele><time>2026-03-29T09:11:11.448Z</time></trkpt><trkpt lat="43.2369417" lon="12.162054"><ele>570.0</ele><time>2026-03-29T09:11:13.447Z</time></trkpt><trkpt lat="43.2369193" lon="12.1619484"><ele>570.0</ele><time>2026-03-29T09:11:14.447Z</time></trkpt><trkpt lat="43.236874" lon="12.161778"><ele>570.0</ele><time>2026-03-29T09:11:15.448Z</time></trkpt><trkpt lat="43.2368336" lon="12.1616823"><ele>570.0</ele><time>2026-03-29T09:11:16.448Z</time></trkpt><trkpt lat="43.2367815" lon="12.1616001"><ele>570.0</ele><time>2026-03-29T09:11:17.448Z</time></trkpt><trkpt lat="43.236667" lon="12.1615254"><ele>570.0</ele><time>2026-03-29T09:11:19.447Z</time></trkpt><trkpt lat="43.2365484" lon="12.1615082"><ele>574.1666666666666</ele><time>2026-03-29T09:11:20.447Z</time></trkpt><trkpt lat="43.2364633" lon="12.1614704"><ele>578.3333333333334</ele><time>2026-03-29T09:11:21.448Z</time></trkpt><trkpt lat="43.2363888" lon="12.1614316"><ele>582.5</ele><time>2026-03-29T09:11:22.448Z</time></trkpt><trkpt lat="43.2363183" lon="12.1613692"><ele>586.6666666666667</ele><time>2026-03-29T09:11:23.448Z</time></trkpt><trkpt lat="43.236264" lon="12.161265"><ele>590.8333333333334</ele><time>2026-03-29T09:11:24.448Z</time></trkpt><trkpt lat="43.2362164" lon="12.1611531"><ele>595.0</ele><time>2026-03-29T09:11:25.448Z</time></trkpt><trkpt lat="43.2362572" lon="12.1609806"><ele>595.0</ele><time>2026-03-29T09:11:26.448Z</time></trkpt><trkpt lat="43.2363088" lon="12.1608116"><ele>595.0</ele><time>2026-03-29T09:11:27.448Z</time></trkpt><trkpt lat="43.2363681" lon="12.1606245"><ele>595.0</ele><time>2026-03-29T09:11:28.447Z</time></trkpt><trkpt lat="43.2363691" lon="12.1604475"><ele>595.0</ele><time>2026-03-29T09:11:29.448Z</time></trkpt><trkpt lat="43.2363602" lon="12.1602801"><ele>593.5</ele><time>2026-03-29T09:11:30.448Z</time></trkpt><trkpt lat="43.2363453" lon="12.1601208"><ele>592.0</ele><time>2026-03-29T09:11:31.448Z</time></trkpt><trkpt lat="43.2363297" lon="12.1599886"><ele>590.5</ele><time>2026-03-29T09:11:32.448Z</time></trkpt><trkpt lat="43.2363041" lon="12.1598848"><ele>589.0</ele><time>2026-03-29T09:11:33.448Z</time></trkpt><trkpt lat="43.2362527" lon="12.1598059"><ele>587.5</ele><time>2026-03-29T09:11:35.447Z</time></trkpt><trkpt lat="43.2362121" lon="12.1597177"><ele>586.0</ele><time>2026-03-29T09:11:37.448Z</time></trkpt><trkpt lat="43.2361885" lon="12.1595998"><ele>583.0</ele><time>2026-03-29T09:11:39.448Z</time></trkpt><trkpt lat="43.2361629" lon="12.1594509"><ele>580.0</ele><time>2026-03-29T09:11:41.447Z</time></trkpt><trkpt lat="43.2361436" lon="12.1592811"><ele>577.0</ele><time>2026-03-29T09:11:43.448Z</time></trkpt><trkpt lat="43.2361386" lon="12.1591844"><ele>574.0</ele><time>2026-03-29T09:11:44.447Z</time></trkpt><trkpt lat="43.2362471" lon="12.1590645"><ele>571.0</ele><time>2026-03-29T09:11:45.447Z</time></trkpt><trkpt lat="43.236301" lon="12.1589774"><ele>568.6666666666667</ele><time>2026-03-29T09:11:46.448Z</time></trkpt><trkpt lat="43.2363517" lon="12.1588902"><ele>566.3333333333334</ele><time>2026-03-29T09:11:47.448Z</time></trkpt><trkpt lat="43.2364168" lon="12.1587934"><ele>564.0</ele><time>2026-03-29T09:11:48.448Z</time></trkpt><trkpt lat="43.2364573" lon="12.1587251"><ele>561.6666666666666</ele><time>2026-03-29T09:11:49.447Z</time></trkpt><trkpt lat="43.2365403" lon="12.158735"><ele>559.3333333333333</ele><time>2026-03-29T09:11:51.448Z</time></trkpt><trkpt lat="43.2366079" lon="12.1587432"><ele>557.0</ele><time>2026-03-29T09:11:52.447Z</time></trkpt><trkpt lat="43.2367669" lon="12.1588233"><ele>554.3333333333333</ele><time>2026-03-29T09:11:54.448Z</time></trkpt><trkpt lat="43.2368384" lon="12.1588196"><ele>551.6666666666666</ele><time>2026-03-29T09:11:55.448Z</time></trkpt><trkpt lat="43.2369475" lon="12.1587926"><ele>549.0</ele><time>2026-03-29T09:11:57.447Z</time></trkpt><trkpt lat="43.2370177" lon="12.1587811"><ele>546.3333333333334</ele><time>2026-03-29T09:11:58.448Z</time></trkpt><trkpt lat="43.2371107" lon="12.1587185"><ele>543.6666666666667</ele><time>2026-03-29T09:11:59.447Z</time></trkpt><trkpt lat="43.2371909" lon="12.1586817"><ele>541.0</ele><time>2026-03-29T09:12:00.448Z</time></trkpt><trkpt lat="43.23725" lon="12.1586359"><ele>538.1666666666667</ele><time>2026-03-29T09:12:01.447Z</time></trkpt><trkpt lat="43.2373195" lon="12.1585777"><ele>535.3333333333334</ele><time>2026-03-29T09:12:02.448Z</time></trkpt><trkpt lat="43.2373655" lon="12.1585051"><ele>532.5</ele><time>2026-03-29T09:12:03.447Z</time></trkpt><trkpt lat="43.2373784" lon="12.1583482"><ele>529.6666666666666</ele><time>2026-03-29T09:12:05.448Z</time></trkpt><trkpt lat="43.2374093" lon="12.1582675"><ele>526.8333333333333</ele><time>2026-03-29T09:12:06.448Z</time></trkpt><trkpt lat="43.2374579" lon="12.1581883"><ele>524.0</ele><time>2026-03-29T09:12:07.447Z</time></trkpt><trkpt lat="43.2375398" lon="12.1581462"><ele>522.4</ele><time>2026-03-29T09:12:09.448Z</time></trkpt><trkpt lat="43.2376105" lon="12.1580235"><ele>520.8</ele><time>2026-03-29T09:12:11.447Z</time></trkpt><trkpt lat="43.2376397" lon="12.1579388"><ele>519.2</ele><time>2026-03-29T09:12:12.448Z</time></trkpt><trkpt lat="43.2376282" lon="12.1578122"><ele>517.6</ele><time>2026-03-29T09:12:13.448Z</time></trkpt><trkpt lat="43.2376346" lon="12.1577191"><ele>516.0</ele><time>2026-03-29T09:12:14.448Z</time></trkpt><trkpt lat="43.2375237" lon="12.1574722"><ele>516.0</ele><time>2026-03-29T09:12:16.448Z</time></trkpt><trkpt lat="43.2375438" lon="12.1573764"><ele>516.0</ele><time>2026-03-29T09:12:17.448Z</time></trkpt><trkpt lat="43.2375612" lon="12.1572745"><ele>516.0</ele><time>2026-03-29T09:12:18.447Z</time></trkpt><trkpt lat="43.237575" lon="12.1571825"><ele>516.0</ele><time>2026-03-29T09:12:19.446Z</time></trkpt><trkpt lat="43.2375774" lon="12.1570799"><ele>516.0</ele><time>2026-03-29T09:12:20.447Z</time></trkpt><trkpt lat="43.2375285" lon="12.1569956"><ele>516.0</ele><time>2026-03-29T09:12:21.448Z</time></trkpt><trkpt lat="43.2375167" lon="12.1568857"><ele>513.6666666666666</ele><time>2026-03-29T09:12:22.448Z</time></trkpt><trkpt lat="43.2374944" lon="12.1567736"><ele>511.33333333333337</ele><time>2026-03-29T09:12:23.447Z</time></trkpt><trkpt lat="43.2374674" lon="12.1566935"><ele>509.0</ele><time>2026-03-29T09:12:24.447Z</time></trkpt><trkpt lat="43.2373776" lon="12.1566152"><ele>506.6666666666667</ele><time>2026-03-29T09:12:27.447Z</time></trkpt><trkpt lat="43.2373205" lon="12.1564969"><ele>504.33333333333337</ele><time>2026-03-29T09:12:29.448Z</time></trkpt><trkpt lat="43.2373404" lon="12.1564103"><ele>502.0</ele><time>2026-03-29T09:12:30.448Z</time></trkpt><trkpt lat="43.2374409" lon="12.156389"><ele>499.1666666666667</ele><time>2026-03-29T09:12:31.447Z</time></trkpt><trkpt lat="43.2374911" lon="12.1563135"><ele>496.33333333333337</ele><time>2026-03-29T09:12:32.448Z</time></trkpt><trkpt lat="43.237578" lon="12.1562325"><ele>493.5</ele><time>2026-03-29T09:12:33.447Z</time></trkpt><trkpt lat="43.2376343" lon="12.1561661"><ele>490.66666666666663</ele><time>2026-03-29T09:12:34.447Z</time></trkpt><trkpt lat="43.2376875" lon="12.1560932"><ele>487.8333333333333</ele><time>2026-03-29T09:12:35.447Z</time></trkpt><trkpt lat="43.2377448" lon="12.1560075"><ele>485.0</ele><time>2026-03-29T09:12:36.448Z</time></trkpt><trkpt lat="43.2378057" lon="12.155935"><ele>484.99999999999994</ele><time>2026-03-29T09:12:37.447Z</time></trkpt><trkpt lat="43.2378761" lon="12.1558538"><ele>485.0</ele><time>2026-03-29T09:12:38.448Z</time></trkpt><trkpt lat="43.2379173" lon="12.1557857"><ele>485.0</ele><time>2026-03-29T09:12:39.447Z</time></trkpt><trkpt lat="43.2380012" lon="12.1558089"><ele>485.0</ele><time>2026-03-29T09:12:42.448Z</time></trkpt><trkpt lat="43.2379043" lon="12.1558744"><ele>484.99999999999994</ele><time>2026-03-29T09:12:50.447Z</time></trkpt><trkpt lat="43.2378189" lon="12.1558438"><ele>485.0</ele><time>2026-03-29T09:12:54.447Z</time></trkpt><trkpt lat="43.2377442" lon="12.1558186"><ele>485.0</ele><time>2026-03-29T09:12:55.447Z</time></trkpt><trkpt lat="43.2376347" lon="12.155788"><ele>485.0</ele><time>2026-03-29T09:12:57.448Z</time></trkpt><trkpt lat="43.2375243" lon="12.1557433"><ele>485.0</ele><time>2026-03-29T09:12:59.447Z</time></trkpt><trkpt lat="43.2373819" lon="12.1556996"><ele>485.0</ele><time>2026-03-29T09:13:01.448Z</time></trkpt><trkpt lat="43.2373015" lon="12.1556663"><ele>483.99999999999994</ele><time>2026-03-29T09:13:02.448Z</time></trkpt><trkpt lat="43.2372185" lon="12.1556497"><ele>483.0</ele><time>2026-03-29T09:13:03.447Z</time></trkpt><trkpt lat="43.2371444" lon="12.1556231"><ele>482.0</ele><time>2026-03-29T09:13:04.448Z</time></trkpt><trkpt lat="43.2370711" lon="12.1555864"><ele>481.0</ele><time>2026-03-29T09:13:05.448Z</time></trkpt><trkpt lat="43.2370014" lon="12.1555408"><ele>479.99999999999994</ele><time>2026-03-29T09:13:06.447Z</time></trkpt><trkpt lat="43.2369326" lon="12.1554579"><ele>479.0</ele><time>2026-03-29T09:13:07.448Z</time></trkpt><trkpt lat="43.2368188" lon="12.1554324"><ele>479.0</ele><time>2026-03-29T09:13:09.447Z</time></trkpt><trkpt lat="43.2367103" lon="12.1554369"><ele>479.0</ele><time>2026-03-29T09:13:11.448Z</time></trkpt><trkpt lat="43.2365853" lon="12.1554787"><ele>479.0</ele><time>2026-03-29T09:13:13.447Z</time></trkpt><trkpt lat="43.2365061" lon="12.1554958"><ele>479.0</ele><time>2026-03-29T09:13:14.448Z</time></trkpt><trkpt lat="43.2363959" lon="12.1554695"><ele>479.0</ele><time>2026-03-29T09:13:15.447Z</time></trkpt><trkpt lat="43.2363016" lon="12.1553683"><ele>483.16666666666663</ele><time>2026-03-29T09:13:16.447Z</time></trkpt><trkpt lat="43.2362375" lon="12.1553352"><ele>487.3333333333333</ele><time>2026-03-29T09:13:17.448Z</time></trkpt><trkpt lat="43.2361687" lon="12.1552897"><ele>491.5</ele><time>2026-03-29T09:13:18.447Z</time></trkpt><trkpt lat="43.2360973" lon="12.1552791"><ele>495.66666666666663</ele><time>2026-03-29T09:13:19.448Z</time></trkpt><trkpt lat="43.2360178" lon="12.1553444"><ele>499.8333333333333</ele><time>2026-03-29T09:13:21.448Z</time></trkpt><trkpt lat="43.2359453" lon="12.1554093"><ele>504.0</ele><time>2026-03-29T09:13:23.447Z</time></trkpt><trkpt lat="43.235896" lon="12.155286"><ele>504.0</ele><time>2026-03-29T09:13:28.447Z</time></trkpt><trkpt lat="43.2358048" lon="12.1552514"><ele>504.0</ele><time>2026-03-29T09:13:31.447Z</time></trkpt><trkpt lat="43.23573" lon="12.1553118"><ele>504.0</ele><time>2026-03-29T09:13:32.448Z</time></trkpt><trkpt lat="43.235635" lon="12.1554227"><ele>504.0</ele><time>2026-03-29T09:13:34.448Z</time></trkpt><trkpt lat="43.2355423" lon="12.155531"><ele>504.0</ele><time>2026-03-29T09:13:36.448Z</time></trkpt><trkpt lat="43.2355014" lon="12.1556128"><ele>510.3333333333333</ele><time>2026-03-29T09:13:37.447Z</time></trkpt><trkpt lat="43.2354742" lon="12.1557017"><ele>516.6666666666666</ele><time>2026-03-29T09:13:38.448Z</time></trkpt><trkpt lat="43.2354174" lon="12.155746"><ele>523.0</ele><time>2026-03-29T09:13:39.448Z</time></trkpt><trkpt lat="43.2353727" lon="12.1558098"><ele>529.3333333333333</ele><time>2026-03-29T09:13:40.448Z</time></trkpt><trkpt lat="43.2352792" lon="12.1558893"><ele>535.6666666666666</ele><time>2026-03-29T09:13:41.447Z</time></trkpt><trkpt lat="43.2351794" lon="12.1559248"><ele>542.0</ele><time>2026-03-29T09:13:42.447Z</time></trkpt><trkpt lat="43.2350751" lon="12.1558262"><ele>544.4</ele><time>2026-03-29T09:13:43.447Z</time></trkpt><trkpt lat="43.2350204" lon="12.1556587"><ele>546.8000000000001</ele><time>2026-03-29T09:13:46.448Z</time></trkpt><trkpt lat="43.2350043" lon="12.1555658"><ele>549.2</ele><time>2026-03-29T09:13:47.447Z</time></trkpt><trkpt lat="43.2349804" lon="12.1554163"><ele>551.6</ele><time>2026-03-29T09:13:49.448Z</time></trkpt><trkpt lat="43.2350164" lon="12.1553449"><ele>554.0</ele><time>2026-03-29T09:13:50.447Z</time></trkpt><trkpt lat="43.235028" lon="12.155151"><ele>554.0</ele><time>2026-03-29T09:13:52.449Z</time></trkpt><trkpt lat="43.2350441" lon="12.1550293"><ele>554.0</ele><time>2026-03-29T09:13:53.448Z</time></trkpt><trkpt lat="43.2350655" lon="12.1549224"><ele>554.0</ele><time>2026-03-29T09:13:54.448Z</time></trkpt><trkpt lat="43.2350244" lon="12.1547286"><ele>554.0</ele><time>2026-03-29T09:13:56.449Z</time></trkpt><trkpt lat="43.2349922" lon="12.1546295"><ele>554.0</ele><time>2026-03-29T09:13:57.448Z</time></trkpt><trkpt lat="43.2349426" lon="12.1545481"><ele>554.2</ele><time>2026-03-29T09:13:58.449Z</time></trkpt><trkpt lat="43.2348844" lon="12.1544002"><ele>554.4</ele><time>2026-03-29T09:14:00.449Z</time></trkpt><trkpt lat="43.2348144" lon="12.1543351"><ele>554.6</ele><time>2026-03-29T09:14:02.448Z</time></trkpt><trkpt lat="43.2347294" lon="12.1542929"><ele>554.8</ele><time>2026-03-29T09:14:04.449Z</time></trkpt><trkpt lat="43.2346061" lon="12.1542719"><ele>555.0</ele><time>2026-03-29T09:14:06.448Z</time></trkpt><trkpt lat="43.2345336" lon="12.1542801"><ele>560.6</ele><time>2026-03-29T09:14:07.448Z</time></trkpt><trkpt lat="43.2344008" lon="12.1542641"><ele>566.2</ele><time>2026-03-29T09:14:09.448Z</time></trkpt><trkpt lat="43.2343188" lon="12.154202"><ele>571.8</ele><time>2026-03-29T09:14:10.448Z</time></trkpt><trkpt lat="43.2342215" lon="12.154167"><ele>577.4</ele><time>2026-03-29T09:14:12.448Z</time></trkpt><trkpt lat="43.2341088" lon="12.1541503"><ele>583.0</ele><time>2026-03-29T09:14:14.448Z</time></trkpt><trkpt lat="43.2341192" lon="12.1542429"><ele>583.0</ele><time>2026-03-29T09:14:15.448Z</time></trkpt><trkpt lat="43.2340346" lon="12.1543313"><ele>583.0</ele><time>2026-03-29T09:14:17.449Z</time></trkpt><trkpt lat="43.2340215" lon="12.1544178"><ele>583.0</ele><time>2026-03-29T09:14:18.448Z</time></trkpt><trkpt lat="43.2340189" lon="12.1545961"><ele>583.0</ele><time>2026-03-29T09:14:20.449Z</time></trkpt><trkpt lat="43.2340433" lon="12.1546781"><ele>583.0</ele><time>2026-03-29T09:14:21.449Z</time></trkpt><trkpt lat="43.23408" lon="12.1547812"><ele>583.0</ele><time>2026-03-29T09:14:22.448Z</time></trkpt><trkpt lat="43.2340932" lon="12.1549018"><ele>584.0</ele><time>2026-03-29T09:14:23.449Z</time></trkpt><trkpt lat="43.2341158" lon="12.1550217"><ele>585.0</ele><time>2026-03-29T09:14:24.449Z</time></trkpt><trkpt lat="43.2341363" lon="12.1551127"><ele>586.0</ele><time>2026-03-29T09:14:25.448Z</time></trkpt><trkpt lat="43.2341257" lon="12.1552119"><ele>587.0</ele><time>2026-03-29T09:14:26.449Z</time></trkpt><trkpt lat="43.233924" lon="12.1552722"><ele>588.0</ele><time>2026-03-29T09:14:28.449Z</time></trkpt><trkpt lat="43.233858" lon="12.1552996"><ele>592.5</ele><time>2026-03-29T09:14:29.448Z</time></trkpt><trkpt lat="43.2337825" lon="12.1553002"><ele>597.0</ele><time>2026-03-29T09:14:30.448Z</time></trkpt><trkpt lat="43.2337087" lon="12.1553256"><ele>601.5</ele><time>2026-03-29T09:14:31.448Z</time></trkpt><trkpt lat="43.2336437" lon="12.1553348"><ele>606.0</ele><time>2026-03-29T09:14:32.449Z</time></trkpt><trkpt lat="43.2335348" lon="12.1553676"><ele>610.5</ele><time>2026-03-29T09:14:33.449Z</time></trkpt><trkpt lat="43.2334454" lon="12.1553126"><ele>615.0</ele><time>2026-03-29T09:14:35.448Z</time></trkpt><trkpt lat="43.2334324" lon="12.1551939"><ele>615.0</ele><time>2026-03-29T09:14:36.449Z</time></trkpt><trkpt lat="43.2333875" lon="12.1551232"><ele>615.0</ele><time>2026-03-29T09:14:38.448Z</time></trkpt><trkpt lat="43.2333069" lon="12.1551482"><ele>615.0</ele><time>2026-03-29T09:14:40.449Z</time></trkpt><trkpt lat="43.2331743" lon="12.1551221"><ele>615.0</ele><time>2026-03-29T09:14:42.449Z</time></trkpt><trkpt lat="43.2330573" lon="12.1550751"><ele>615.0</ele><time>2026-03-29T09:14:44.447Z</time></trkpt><trkpt lat="43.2329066" lon="12.1549761"><ele>619.2</ele><time>2026-03-29T09:14:45.449Z</time></trkpt><trkpt lat="43.232776" lon="12.1549412"><ele>623.4</ele><time>2026-03-29T09:14:46.448Z</time></trkpt><trkpt lat="43.2326672" lon="12.1549096"><ele>627.6</ele><time>2026-03-29T09:14:47.449Z</time></trkpt><trkpt lat="43.2325707" lon="12.154881"><ele>631.8</ele><time>2026-03-29T09:14:48.449Z</time></trkpt><trkpt lat="43.2324789" lon="12.1548704"><ele>636.0</ele><time>2026-03-29T09:14:49.449Z</time></trkpt><trkpt lat="43.2323964" lon="12.1549304"><ele>636.0</ele><time>2026-03-29T09:14:50.449Z</time></trkpt><trkpt lat="43.2323224" lon="12.1549567"><ele>636.0</ele><time>2026-03-29T09:14:51.448Z</time></trkpt><trkpt lat="43.2322491" lon="12.1550509"><ele>636.0</ele><time>2026-03-29T09:14:53.448Z</time></trkpt><trkpt lat="43.2322325" lon="12.1551709"><ele>636.0</ele><time>2026-03-29T09:14:54.448Z</time></trkpt><trkpt lat="43.2321937" lon="12.1552781"><ele>636.0</ele><time>2026-03-29T09:14:55.449Z</time></trkpt><trkpt lat="43.2321783" lon="12.1553622"><ele>636.0</ele><time>2026-03-29T09:14:56.448Z</time></trkpt><trkpt lat="43.2321654" lon="12.1554484"><ele>636.8333333333334</ele><time>2026-03-29T09:14:57.449Z</time></trkpt><trkpt lat="43.2321448" lon="12.1555532"><ele>637.6666666666666</ele><time>2026-03-29T09:14:58.449Z</time></trkpt><trkpt lat="43.2321236" lon="12.15568"><ele>638.5</ele><time>2026-03-29T09:14:59.449Z</time></trkpt><trkpt lat="43.2320955" lon="12.1557675"><ele>639.3333333333333</ele><time>2026-03-29T09:15:00.448Z</time></trkpt><trkpt lat="43.2320641" lon="12.15586"><ele>640.1666666666666</ele><time>2026-03-29T09:15:01.449Z</time></trkpt><trkpt lat="43.2320142" lon="12.1559407"><ele>641.0</ele><time>2026-03-29T09:15:02.448Z</time></trkpt><trkpt lat="43.2318504" lon="12.155842"><ele>641.0</ele><time>2026-03-29T09:15:03.448Z</time></trkpt><trkpt lat="43.2317735" lon="12.1558029"><ele>641.0</ele><time>2026-03-29T09:15:04.449Z</time></trkpt><trkpt lat="43.2316563" lon="12.1557651"><ele>641.0</ele><time>2026-03-29T09:15:05.448Z</time></trkpt><trkpt lat="43.2315253" lon="12.1557157"><ele>641.0</ele><time>2026-03-29T09:15:06.448Z</time></trkpt><trkpt lat="43.2314113" lon="12.1556536"><ele>643.0</ele><time>2026-03-29T09:15:07.449Z</time></trkpt><trkpt lat="43.231316" lon="12.1556185"><ele>645.0</ele><time>2026-03-29T09:15:08.448Z</time></trkpt><trkpt lat="43.2312361" lon="12.1555957"><ele>647.0</ele><time>2026-03-29T09:15:09.448Z</time></trkpt><trkpt lat="43.2311247" lon="12.1555952"><ele>649.0</ele><time>2026-03-29T09:15:11.448Z</time></trkpt><trkpt lat="43.2310658" lon="12.1557047"><ele>651.0</ele><time>2026-03-29T09:15:13.449Z</time></trkpt><trkpt lat="43.2310282" lon="12.1557827"><ele>651.0</ele><time>2026-03-29T09:15:14.448Z</time></trkpt><trkpt lat="43.2310072" lon="12.1559411"><ele>651.0</ele><time>2026-03-29T09:15:15.449Z</time></trkpt><trkpt lat="43.2310004" lon="12.1560719"><ele>651.0</ele><time>2026-03-29T09:15:16.448Z</time></trkpt><trkpt lat="43.231038" lon="12.1563798"><ele>651.0</ele><time>2026-03-29T09:15:17.448Z</time></trkpt><trkpt lat="43.2309975" lon="12.1565523"><ele>650.5999999999999</ele><time>2026-03-29T09:15:18.449Z</time></trkpt><trkpt lat="43.2310329" lon="12.1567291"><ele>650.2</ele><time>2026-03-29T09:15:19.448Z</time></trkpt><trkpt lat="43.2310041" lon="12.1568317"><ele>649.8</ele><time>2026-03-29T09:15:20.448Z</time></trkpt><trkpt lat="43.2309675" lon="12.1569283"><ele>649.4000000000001</ele><time>2026-03-29T09:15:21.448Z</time></trkpt><trkpt lat="43.2309314" lon="12.1570228"><ele>649.0</ele><time>2026-03-29T09:15:22.448Z</time></trkpt><trkpt lat="43.2308846" lon="12.1571108"><ele>649.0</ele><time>2026-03-29T09:15:23.449Z</time></trkpt><trkpt lat="43.2308284" lon="12.1571696"><ele>649.0</ele><time>2026-03-29T09:15:24.448Z</time></trkpt><trkpt lat="43.2307316" lon="12.1572143"><ele>649.0</ele><time>2026-03-29T09:15:25.448Z</time></trkpt><trkpt lat="43.2306531" lon="12.1572591"><ele>649.0</ele><time>2026-03-29T09:15:26.448Z</time></trkpt><trkpt lat="43.2305719" lon="12.15732"><ele>649.0</ele><time>2026-03-29T09:15:27.448Z</time></trkpt><trkpt lat="43.2304498" lon="12.157469"><ele>648.2</ele><time>2026-03-29T09:15:28.449Z</time></trkpt><trkpt lat="43.2303574" lon="12.157537"><ele>647.4000000000001</ele><time>2026-03-29T09:15:29.448Z</time></trkpt><trkpt lat="43.230266" lon="12.1576133"><ele>646.6</ele><time>2026-03-29T09:15:30.448Z</time></trkpt><trkpt lat="43.2301678" lon="12.1577256"><ele>645.8</ele><time>2026-03-29T09:15:32.448Z</time></trkpt><trkpt lat="43.2300915" lon="12.1577952"><ele>645.0</ele><time>2026-03-29T09:15:34.449Z</time></trkpt><trkpt lat="43.2300176" lon="12.1577797"><ele>645.0</ele><time>2026-03-29T09:15:37.448Z</time></trkpt><trkpt lat="43.2299905" lon="12.1576837"><ele>645.0</ele><time>2026-03-29T09:15:40.449Z</time></trkpt><trkpt lat="43.229993" lon="12.1575487"><ele>645.0</ele><time>2026-03-29T09:15:43.448Z</time></trkpt><trkpt lat="43.2300013" lon="12.1574315"><ele>645.0</ele><time>2026-03-29T09:15:44.448Z</time></trkpt><trkpt lat="43.2300093" lon="12.157324"><ele>645.0</ele><time>2026-03-29T09:15:45.448Z</time></trkpt><trkpt lat="43.2300126" lon="12.1572073"><ele>645.0</ele><time>2026-03-29T09:15:46.449Z</time></trkpt><trkpt lat="43.2300022" lon="12.1569587"><ele>646.8333333333334</ele><time>2026-03-29T09:15:48.449Z</time></trkpt><trkpt lat="43.2299954" lon="12.1568504"><ele>648.6666666666666</ele><time>2026-03-29T09:15:49.448Z</time></trkpt><trkpt lat="43.2300043" lon="12.1567415"><ele>650.5</ele><time>2026-03-29T09:15:50.448Z</time></trkpt><trkpt lat="43.2300183" lon="12.156574"><ele>652.3333333333333</ele><time>2026-03-29T09:15:52.447Z</time></trkpt><trkpt lat="43.2300333" lon="12.1564853"><ele>654.1666666666666</ele><time>2026-03-29T09:15:53.449Z</time></trkpt><trkpt lat="43.2300684" lon="12.1563574"><ele>656.0</ele><time>2026-03-29T09:15:54.448Z</time></trkpt><trkpt lat="43.2300986" lon="12.1561864"><ele>656.0</ele><time>2026-03-29T09:15:55.449Z</time></trkpt><trkpt lat="43.2301418" lon="12.1560686"><ele>656.0</ele><time>2026-03-29T09:15:56.449Z</time></trkpt><trkpt lat="43.2301659" lon="12.155926"><ele>656.0</ele><time>2026-03-29T09:15:57.449Z</time></trkpt><trkpt lat="43.2301964" lon="12.1557833"><ele>656.0</ele><time>2026-03-29T09:15:58.448Z</time></trkpt><trkpt lat="43.2302249" lon="12.1556388"><ele>656.0</ele><time>2026-03-29T09:15:59.448Z</time></trkpt><trkpt lat="43.2302534" lon="12.1555047"><ele>655.3333333333333</ele><time>2026-03-29T09:16:00.448Z</time></trkpt><trkpt lat="43.2302836" lon="12.1553555"><ele>654.6666666666666</ele><time>2026-03-29T09:16:01.449Z</time></trkpt><trkpt lat="43.2303096" lon="12.1552402"><ele>654.0</ele><time>2026-03-29T09:16:02.449Z</time></trkpt><trkpt lat="43.2303358" lon="12.1551132"><ele>653.3333333333334</ele><time>2026-03-29T09:16:03.449Z</time></trkpt><trkpt lat="43.2303518" lon="12.1550214"><ele>652.6666666666667</ele><time>2026-03-29T09:16:04.448Z</time></trkpt><trkpt lat="43.2303755" lon="12.1549264"><ele>652.0</ele><time>2026-03-29T09:16:05.448Z</time></trkpt><trkpt lat="43.2304309" lon="12.1548769"><ele>653.4000000000001</ele><time>2026-03-29T09:16:07.449Z</time></trkpt><trkpt lat="43.2305181" lon="12.1548676"><ele>654.8000000000001</ele><time>2026-03-29T09:16:10.448Z</time></trkpt><trkpt lat="43.2306064" lon="12.1548264"><ele>656.2</ele><time>2026-03-29T09:16:20.449Z</time></trkpt><trkpt lat="43.2307415" lon="12.1547795"><ele>657.6</ele><time>2026-03-29T09:16:22.448Z</time></trkpt><trkpt lat="43.230848" lon="12.1547968"><ele>659.0</ele><time>2026-03-29T09:16:23.449Z</time></trkpt><trkpt lat="43.2309575" lon="12.1548141"><ele>658.2</ele><time>2026-03-29T09:16:24.449Z</time></trkpt><trkpt lat="43.2310574" lon="12.1548336"><ele>657.4000000000001</ele><time>2026-03-29T09:16:25.449Z</time></trkpt><trkpt lat="43.2311706" lon="12.1548532"><ele>656.6</ele><time>2026-03-29T09:16:26.448Z</time></trkpt><trkpt lat="43.2312706" lon="12.1548815"><ele>655.8</ele><time>2026-03-29T09:16:27.448Z</time></trkpt><trkpt lat="43.231352" lon="12.154891"><ele>655.0</ele><time>2026-03-29T09:16:28.449Z</time></trkpt><trkpt lat="43.231415" lon="12.1548524"><ele>655.1666666666667</ele><time>2026-03-29T09:16:29.448Z</time></trkpt><trkpt lat="43.2315006" lon="12.1548431"><ele>655.3333333333334</ele><time>2026-03-29T09:16:30.448Z</time></trkpt><trkpt lat="43.2315315" lon="12.1547641"><ele>655.5</ele><time>2026-03-29T09:16:31.449Z</time></trkpt><trkpt lat="43.231593" lon="12.1547017"><ele>655.6666666666666</ele><time>2026-03-29T09:16:32.449Z</time></trkpt><trkpt lat="43.231647" lon="12.1546063"><ele>655.8333333333333</ele><time>2026-03-29T09:16:33.448Z</time></trkpt><trkpt lat="43.2316784" lon="12.154493"><ele>656.0</ele><time>2026-03-29T09:16:34.448Z</time></trkpt><trkpt lat="43.2317189" lon="12.1543379"><ele>656.0</ele><time>2026-03-29T09:16:36.449Z</time></trkpt><trkpt lat="43.231813" lon="12.1543496"><ele>656.0</ele><time>2026-03-29T09:16:38.448Z</time></trkpt><trkpt lat="43.2318257" lon="12.1542543"><ele>656.0</ele><time>2026-03-29T09:16:40.449Z</time></trkpt><trkpt lat="43.2317866" lon="12.1541772"><ele>656.0</ele><time>2026-03-29T09:16:41.448Z</time></trkpt><trkpt lat="43.2317585" lon="12.1540821"><ele>656.0</ele><time>2026-03-29T09:16:42.449Z</time></trkpt><trkpt lat="43.2317022" lon="12.1539586"><ele>656.0</ele><time>2026-03-29T09:16:44.448Z</time></trkpt><trkpt lat="43.2317288" lon="12.1537773"><ele>655.5999999999999</ele><time>2026-03-29T09:16:46.449Z</time></trkpt><trkpt lat="43.2317413" lon="12.1536066"><ele>655.2</ele><time>2026-03-29T09:16:48.448Z</time></trkpt><trkpt lat="43.2317316" lon="12.1535182"><ele>654.8</ele><time>2026-03-29T09:16:49.449Z</time></trkpt><trkpt lat="43.2317214" lon="12.1533488"><ele>654.4000000000001</ele><time>2026-03-29T09:16:50.448Z</time></trkpt><trkpt lat="43.2316342" lon="12.1532181"><ele>654.0</ele><time>2026-03-29T09:16:52.448Z</time></trkpt><trkpt lat="43.2316014" lon="12.1530901"><ele>654.0</ele><time>2026-03-29T09:16:54.449Z</time></trkpt><trkpt lat="43.2315815" lon="12.1529821"><ele>654.0</ele><time>2026-03-29T09:16:55.448Z</time></trkpt><trkpt lat="43.2316167" lon="12.1528828"><ele>654.0</ele><time>2026-03-29T09:16:57.448Z</time></trkpt><trkpt lat="43.2317326" lon="12.1528"><ele>654.0</ele><time>2026-03-29T09:16:59.448Z</time></trkpt><trkpt lat="43.2317694" lon="12.1527293"><ele>654.0</ele><time>2026-03-29T09:17:00.449Z</time></trkpt><trkpt lat="43.2318073" lon="12.1526073"><ele>654.0</ele><time>2026-03-29T09:17:02.448Z</time></trkpt><trkpt lat="43.2318755" lon="12.1525555"><ele>654.0</ele><time>2026-03-29T09:17:04.449Z</time></trkpt><trkpt lat="43.2320055" lon="12.1525693"><ele>654.0</ele><time>2026-03-29T09:17:06.448Z</time></trkpt><trkpt lat="43.232057" lon="12.1525006"><ele>654.0</ele><time>2026-03-29T09:17:07.449Z</time></trkpt><trkpt lat="43.2321219" lon="12.1524419"><ele>654.0</ele><time>2026-03-29T09:17:08.448Z</time></trkpt><trkpt lat="43.2321929" lon="12.1523567"><ele>655.3333333333334</ele><time>2026-03-29T09:17:09.448Z</time></trkpt><trkpt lat="43.2322588" lon="12.1522867"><ele>656.6666666666666</ele><time>2026-03-29T09:17:10.448Z</time></trkpt><trkpt lat="43.2323306" lon="12.1522115"><ele>658.0</ele><time>2026-03-29T09:17:11.448Z</time></trkpt><trkpt lat="43.2323843" lon="12.1521561"><ele>659.3333333333333</ele><time>2026-03-29T09:17:12.448Z</time></trkpt><trkpt lat="43.2324422" lon="12.1520924"><ele>660.6666666666666</ele><time>2026-03-29T09:17:13.448Z</time></trkpt><trkpt lat="43.2324814" lon="12.1520032"><ele>662.0</ele><time>2026-03-29T09:17:14.447Z</time></trkpt><trkpt lat="43.2325453" lon="12.1518193"><ele>659.3333333333333</ele><time>2026-03-29T09:17:16.449Z</time></trkpt><trkpt lat="43.2325727" lon="12.1517144"><ele>656.6666666666666</ele><time>2026-03-29T09:17:17.449Z</time></trkpt><trkpt lat="43.2325232" lon="12.1515656"><ele>654.0</ele><time>2026-03-29T09:17:19.449Z</time></trkpt><trkpt lat="43.2324975" lon="12.1514734"><ele>651.3333333333334</ele><time>2026-03-29T09:17:20.448Z</time></trkpt><trkpt lat="43.232476" lon="12.1513714"><ele>648.6666666666667</ele><time>2026-03-29T09:17:21.449Z</time></trkpt><trkpt lat="43.2324347" lon="12.1512963"><ele>646.0</ele><time>2026-03-29T09:17:22.449Z</time></trkpt><trkpt lat="43.2324167" lon="12.1511963"><ele>646.0000000000001</ele><time>2026-03-29T09:17:24.449Z</time></trkpt><trkpt lat="43.2324238" lon="12.1510993"><ele>646.0</ele><time>2026-03-29T09:17:26.449Z</time></trkpt><trkpt lat="43.2325072" lon="12.1510547"><ele>646.0</ele><time>2026-03-29T09:17:28.448Z</time></trkpt><trkpt lat="43.2325549" lon="12.1509931"><ele>646.0</ele><time>2026-03-29T09:17:29.448Z</time></trkpt><trkpt lat="43.232613" lon="12.150945"><ele>646.0</ele><time>2026-03-29T09:17:30.449Z</time></trkpt><trkpt lat="43.2326818" lon="12.1509011"><ele>646.0000000000001</ele><time>2026-03-29T09:17:31.449Z</time></trkpt><trkpt lat="43.232711" lon="12.1508007"><ele>646.0</ele><time>2026-03-29T09:17:33.449Z</time></trkpt><trkpt lat="43.2328171" lon="12.1507779"><ele>646.0</ele><time>2026-03-29T09:17:35.449Z</time></trkpt><trkpt lat="43.2329332" lon="12.1507404"><ele>646.0</ele><time>2026-03-29T09:17:37.448Z</time></trkpt><trkpt lat="43.2329997" lon="12.1506868"><ele>646.0</ele><time>2026-03-29T09:17:38.449Z</time></trkpt><trkpt lat="43.2330628" lon="12.1505661"><ele>646.0</ele><time>2026-03-29T09:17:40.448Z</time></trkpt><trkpt lat="43.2331116" lon="12.1503967"><ele>646.0</ele><time>2026-03-29T09:17:41.448Z</time></trkpt><trkpt lat="43.2332081" lon="12.1503069"><ele>642.1999999999999</ele><time>2026-03-29T09:17:42.449Z</time></trkpt><trkpt lat="43.2332976" lon="12.1502416"><ele>638.4</ele><time>2026-03-29T09:17:43.449Z</time></trkpt><trkpt lat="43.2333951" lon="12.1501804"><ele>634.6</ele><time>2026-03-29T09:17:44.448Z</time></trkpt><trkpt lat="43.2334567" lon="12.1501145"><ele>630.8</ele><time>2026-03-29T09:17:45.448Z</time></trkpt><trkpt lat="43.2335481" lon="12.150055"><ele>627.0</ele><time>2026-03-29T09:17:46.449Z</time></trkpt><trkpt lat="43.2336004" lon="12.1499426"><ele>626.3333333333334</ele><time>2026-03-29T09:17:47.448Z</time></trkpt><trkpt lat="43.2336524" lon="12.1498614"><ele>625.6666666666666</ele><time>2026-03-29T09:17:48.448Z</time></trkpt><trkpt lat="43.2337071" lon="12.1497793"><ele>625.0</ele><time>2026-03-29T09:17:49.449Z</time></trkpt><trkpt lat="43.2337514" lon="12.1496978"><ele>624.3333333333333</ele><time>2026-03-29T09:17:50.449Z</time></trkpt><trkpt lat="43.2338346" lon="12.1496141"><ele>623.6666666666666</ele><time>2026-03-29T09:17:52.449Z</time></trkpt><trkpt lat="43.2339354" lon="12.1495898"><ele>623.0</ele><time>2026-03-29T09:17:54.448Z</time></trkpt><trkpt lat="43.2340008" lon="12.1495666"><ele>620.4</ele><time>2026-03-29T09:17:55.449Z</time></trkpt><trkpt lat="43.2341197" lon="12.1495424"><ele>617.8</ele><time>2026-03-29T09:17:57.448Z</time></trkpt><trkpt lat="43.2342517" lon="12.1495537"><ele>615.2</ele><time>2026-03-29T09:17:59.448Z</time></trkpt><trkpt lat="43.2343756" lon="12.1495684"><ele>612.6</ele><time>2026-03-29T09:18:00.448Z</time></trkpt><trkpt lat="43.2344426" lon="12.1495874"><ele>610.0</ele><time>2026-03-29T09:18:01.449Z</time></trkpt><trkpt lat="43.2345067" lon="12.1495982"><ele>610.0</ele><time>2026-03-29T09:18:02.449Z</time></trkpt><trkpt lat="43.2345939" lon="12.1496155"><ele>610.0</ele><time>2026-03-29T09:18:03.447Z</time></trkpt><trkpt lat="43.234672" lon="12.1496339"><ele>610.0</ele><time>2026-03-29T09:18:04.449Z</time></trkpt><trkpt lat="43.2347428" lon="12.1496456"><ele>610.0</ele><time>2026-03-29T09:18:05.448Z</time></trkpt><trkpt lat="43.2348116" lon="12.1496546"><ele>610.0</ele><time>2026-03-29T09:18:06.449Z</time></trkpt><trkpt lat="43.2348737" lon="12.1496713"><ele>610.0</ele><time>2026-03-29T09:18:07.449Z</time></trkpt><trkpt lat="43.234982" lon="12.1497369"><ele>609.2</ele><time>2026-03-29T09:18:09.449Z</time></trkpt><trkpt lat="43.235087" lon="12.149861"><ele>608.4</ele><time>2026-03-29T09:18:11.449Z</time></trkpt><trkpt lat="43.2351752" lon="12.1498982"><ele>607.6</ele><time>2026-03-29T09:18:12.449Z</time></trkpt><trkpt lat="43.235245" lon="12.1499387"><ele>606.8</ele><time>2026-03-29T09:18:13.448Z</time></trkpt><trkpt lat="43.2353246" lon="12.1499818"><ele>606.0</ele><time>2026-03-29T09:18:14.448Z</time></trkpt><trkpt lat="43.235426" lon="12.1500402"><ele>606.0</ele><time>2026-03-29T09:18:16.448Z</time></trkpt><trkpt lat="43.235434" lon="12.1501372"><ele>606.0</ele><time>2026-03-29T09:18:17.449Z</time></trkpt><trkpt lat="43.2354715" lon="12.1502085"><ele>606.0</ele><time>2026-03-29T09:18:18.449Z</time></trkpt><trkpt lat="43.235552" lon="12.150357"><ele>606.0</ele><time>2026-03-29T09:18:20.448Z</time></trkpt><trkpt lat="43.2356084" lon="12.1504035"><ele>606.0</ele><time>2026-03-29T09:18:21.448Z</time></trkpt><trkpt lat="43.2356858" lon="12.1504006"><ele>606.0</ele><time>2026-03-29T09:18:22.449Z</time></trkpt><trkpt lat="43.2357492" lon="12.150397"><ele>602.0</ele><time>2026-03-29T09:18:23.448Z</time></trkpt><trkpt lat="43.2358206" lon="12.1504139"><ele>598.0</ele><time>2026-03-29T09:18:24.448Z</time></trkpt><trkpt lat="43.2358793" lon="12.1504625"><ele>594.0</ele><time>2026-03-29T09:18:25.449Z</time></trkpt><trkpt lat="43.2359314" lon="12.150517"><ele>590.0</ele><time>2026-03-29T09:18:26.449Z</time></trkpt><trkpt lat="43.235992" lon="12.1505516"><ele>586.0</ele><time>2026-03-29T09:18:27.448Z</time></trkpt><trkpt lat="43.2360924" lon="12.150508"><ele>582.0</ele><time>2026-03-29T09:18:29.448Z</time></trkpt><trkpt lat="43.2362164" lon="12.1504487"><ele>582.0</ele><time>2026-03-29T09:18:31.448Z</time></trkpt><trkpt lat="43.2363699" lon="12.1504238"><ele>582.0</ele><time>2026-03-29T09:18:33.449Z</time></trkpt><trkpt lat="43.2364348" lon="12.1504289"><ele>582.0</ele><time>2026-03-29T09:18:34.448Z</time></trkpt><trkpt lat="43.236508" lon="12.15045"><ele>582.0</ele><time>2026-03-29T09:18:35.448Z</time></trkpt><trkpt lat="43.2366131" lon="12.1504703"><ele>582.0</ele><time>2026-03-29T09:18:37.448Z</time></trkpt><trkpt lat="43.2367318" lon="12.15052"><ele>578.0</ele><time>2026-03-29T09:18:39.448Z</time></trkpt><trkpt lat="43.2368511" lon="12.1505362"><ele>574.0</ele><time>2026-03-29T09:18:41.448Z</time></trkpt><trkpt lat="43.236916" lon="12.1505271"><ele>570.0</ele><time>2026-03-29T09:18:42.449Z</time></trkpt><trkpt lat="43.2369813" lon="12.150519"><ele>566.0</ele><time>2026-03-29T09:18:43.449Z</time></trkpt><trkpt lat="43.2370538" lon="12.1504937"><ele>562.0</ele><time>2026-03-29T09:18:44.448Z</time></trkpt><trkpt lat="43.2371543" lon="12.1504522"><ele>558.0</ele><time>2026-03-29T09:18:46.448Z</time></trkpt><trkpt lat="43.2372301" lon="12.1503972"><ele>558.0</ele><time>2026-03-29T09:18:47.449Z</time></trkpt><trkpt lat="43.2372973" lon="12.1504198"><ele>558.0</ele><time>2026-03-29T09:18:48.448Z</time></trkpt><trkpt lat="43.2373874" lon="12.150382"><ele>558.0</ele><time>2026-03-29T09:18:50.448Z</time></trkpt><trkpt lat="43.23748" lon="12.150394"><ele>558.0</ele><time>2026-03-29T09:18:52.449Z</time></trkpt><trkpt lat="43.2375777" lon="12.1503524"><ele>558.0</ele><time>2026-03-29T09:18:54.449Z</time></trkpt><trkpt lat="43.2377101" lon="12.1503764"><ele>553.0</ele><time>2026-03-29T09:18:57.449Z</time></trkpt><trkpt lat="43.2378294" lon="12.1504352"><ele>548.0</ele><time>2026-03-29T09:18:59.448Z</time></trkpt><trkpt lat="43.2379698" lon="12.1504442"><ele>543.0</ele><time>2026-03-29T09:19:01.448Z</time></trkpt><trkpt lat="43.2380388" lon="12.1504436"><ele>538.0</ele><time>2026-03-29T09:19:02.448Z</time></trkpt><trkpt lat="43.2381262" lon="12.150449"><ele>533.0</ele><time>2026-03-29T09:19:03.448Z</time></trkpt><trkpt lat="43.2382015" lon="12.1504448"><ele>530.1666666666666</ele><time>2026-03-29T09:19:04.449Z</time></trkpt><trkpt lat="43.2382721" lon="12.1504218"><ele>527.3333333333333</ele><time>2026-03-29T09:19:05.448Z</time></trkpt><trkpt lat="43.2383836" lon="12.1503764"><ele>524.5</ele><time>2026-03-29T09:19:07.448Z</time></trkpt><trkpt lat="43.2384503" lon="12.150367"><ele>521.6666666666666</ele><time>2026-03-29T09:19:08.449Z</time></trkpt><trkpt lat="43.2385322" lon="12.1503515"><ele>518.8333333333334</ele><time>2026-03-29T09:19:09.449Z</time></trkpt><trkpt lat="43.2386279" lon="12.1503677"><ele>516.0</ele><time>2026-03-29T09:19:11.448Z</time></trkpt><trkpt lat="43.2387424" lon="12.1503385"><ele>516.0</ele><time>2026-03-29T09:19:13.448Z</time></trkpt><trkpt lat="43.2388673" lon="12.1503037"><ele>516.0</ele><time>2026-03-29T09:19:15.447Z</time></trkpt><trkpt lat="43.2389588" lon="12.1502481"><ele>516.0</ele><time>2026-03-29T09:19:17.448Z</time></trkpt><trkpt lat="43.2390247" lon="12.1501602"><ele>516.0</ele><time>2026-03-29T09:19:19.449Z</time></trkpt><trkpt lat="43.2391051" lon="12.1500631"><ele>516.0</ele><time>2026-03-29T09:19:21.449Z</time></trkpt><trkpt lat="43.2391824" lon="12.1499736"><ele>512.1666666666666</ele><time>2026-03-29T09:19:23.449Z</time></trkpt><trkpt lat="43.2392585" lon="12.1498402"><ele>508.33333333333337</ele><time>2026-03-29T09:19:25.449Z</time></trkpt><trkpt lat="43.239301" lon="12.1497731"><ele>504.5</ele><time>2026-03-29T09:19:27.449Z</time></trkpt><trkpt lat="43.239381" lon="12.149785"><ele>500.6666666666667</ele><time>2026-03-29T09:19:29.448Z</time></trkpt><trkpt lat="43.2394716" lon="12.1497472"><ele>496.83333333333337</ele><time>2026-03-29T09:19:31.448Z</time></trkpt><trkpt lat="43.2395343" lon="12.1497289"><ele>493.0</ele><time>2026-03-29T09:19:32.449Z</time></trkpt><trkpt lat="43.2396573" lon="12.149647"><ele>493.0</ele><time>2026-03-29T09:19:34.448Z</time></trkpt><trkpt lat="43.2397284" lon="12.1496012"><ele>492.99999999999994</ele><time>2026-03-29T09:19:35.448Z</time></trkpt><trkpt lat="43.2398055" lon="12.1494622"><ele>492.99999999999994</ele><time>2026-03-29T09:19:37.448Z</time></trkpt><trkpt lat="43.2398483" lon="12.1493694"><ele>493.0</ele><time>2026-03-29T09:19:38.449Z</time></trkpt><trkpt lat="43.2399237" lon="12.1492246"><ele>493.0</ele><time>2026-03-29T09:19:40.448Z</time></trkpt><trkpt lat="43.2399534" lon="12.1491402"><ele>491.83333333333337</ele><time>2026-03-29T09:19:41.449Z</time></trkpt><trkpt lat="43.2400204" lon="12.1490636"><ele>490.6666666666667</ele><time>2026-03-29T09:19:42.449Z</time></trkpt><trkpt lat="43.2400767" lon="12.1489778"><ele>489.5</ele><time>2026-03-29T09:19:43.448Z</time></trkpt><trkpt lat="43.2401569" lon="12.1488539"><ele>488.33333333333337</ele><time>2026-03-29T09:19:45.448Z</time></trkpt><trkpt lat="43.2401922" lon="12.1487674"><ele>487.1666666666667</ele><time>2026-03-29T09:19:46.449Z</time></trkpt><trkpt lat="43.2401445" lon="12.1486767"><ele>486.0</ele><time>2026-03-29T09:19:48.449Z</time></trkpt><trkpt lat="43.2400785" lon="12.1486327"><ele>484.6666666666667</ele><time>2026-03-29T09:19:50.449Z</time></trkpt><trkpt lat="43.2400137" lon="12.1486404"><ele>483.33333333333337</ele><time>2026-03-29T09:19:51.449Z</time></trkpt><trkpt lat="43.2399462" lon="12.148635"><ele>482.0</ele><time>2026-03-29T09:19:52.448Z</time></trkpt><trkpt lat="43.2398401" lon="12.1486299"><ele>480.6666666666667</ele><time>2026-03-29T09:19:53.449Z</time></trkpt><trkpt lat="43.23978" lon="12.1486637"><ele>479.33333333333337</ele><time>2026-03-29T09:19:54.449Z</time></trkpt><trkpt lat="43.2397111" lon="12.1486667"><ele>478.0</ele><time>2026-03-29T09:19:55.448Z</time></trkpt><trkpt lat="43.2396284" lon="12.1486678"><ele>478.0</ele><time>2026-03-29T09:19:56.448Z</time></trkpt><trkpt lat="43.2395058" lon="12.1486194"><ele>478.0</ele><time>2026-03-29T09:19:58.449Z</time></trkpt><trkpt lat="43.2394376" lon="12.1484001"><ele>478.0</ele><time>2026-03-29T09:20:01.449Z</time></trkpt><trkpt lat="43.2394372" lon="12.1483085"><ele>478.0</ele><time>2026-03-29T09:20:02.448Z</time></trkpt><trkpt lat="43.2394594" lon="12.1481996"><ele>475.83333333333337</ele><time>2026-03-29T09:20:03.448Z</time></trkpt><trkpt lat="43.2394448" lon="12.1480923"><ele>473.6666666666667</ele><time>2026-03-29T09:20:04.449Z</time></trkpt><trkpt lat="43.2394243" lon="12.1479874"><ele>471.5</ele><time>2026-03-29T09:20:05.448Z</time></trkpt><trkpt lat="43.2394169" lon="12.1478624"><ele>469.33333333333337</ele><time>2026-03-29T09:20:07.449Z</time></trkpt><trkpt lat="43.2394381" lon="12.1477054"><ele>467.1666666666667</ele><time>2026-03-29T09:20:09.448Z</time></trkpt><trkpt lat="43.2393713" lon="12.1476681"><ele>465.0</ele><time>2026-03-29T09:20:10.449Z</time></trkpt><trkpt lat="43.2392842" lon="12.1475672"><ele>465.0</ele><time>2026-03-29T09:20:12.449Z</time></trkpt><trkpt lat="43.2391482" lon="12.1474948"><ele>465.0</ele><time>2026-03-29T09:20:14.448Z</time></trkpt><trkpt lat="43.2391245" lon="12.1473466"><ele>465.0</ele><time>2026-03-29T09:20:15.449Z</time></trkpt><trkpt lat="43.2391038" lon="12.1472613"><ele>465.0</ele><time>2026-03-29T09:20:16.448Z</time></trkpt><trkpt lat="43.2390546" lon="12.1471037"><ele>465.0</ele><time>2026-03-29T09:20:18.449Z</time></trkpt><trkpt lat="43.2390313" lon="12.1470192"><ele>465.8</ele><time>2026-03-29T09:20:19.448Z</time></trkpt><trkpt lat="43.2390187" lon="12.1468362"><ele>466.6</ele><time>2026-03-29T09:20:21.449Z</time></trkpt><trkpt lat="43.2389656" lon="12.1467017"><ele>467.4</ele><time>2026-03-29T09:20:23.448Z</time></trkpt><trkpt lat="43.2389063" lon="12.1465529"><ele>468.2</ele><time>2026-03-29T09:20:25.449Z</time></trkpt><trkpt lat="43.2388743" lon="12.1464727"><ele>469.0</ele><time>2026-03-29T09:20:26.448Z</time></trkpt><trkpt lat="43.2387927" lon="12.1463669"><ele>467.33333333333337</ele><time>2026-03-29T09:20:28.448Z</time></trkpt><trkpt lat="43.2387675" lon="12.1462801"><ele>465.6666666666667</ele><time>2026-03-29T09:20:29.448Z</time></trkpt><trkpt lat="43.2387405" lon="12.1461303"><ele>464.0</ele><time>2026-03-29T09:20:31.449Z</time></trkpt><trkpt lat="43.2387205" lon="12.1460376"><ele>462.33333333333337</ele><time>2026-03-29T09:20:33.448Z</time></trkpt><trkpt lat="43.2386613" lon="12.1459329"><ele>460.6666666666667</ele><time>2026-03-29T09:20:35.448Z</time></trkpt><trkpt lat="43.2386246" lon="12.145822"><ele>459.0</ele><time>2026-03-29T09:20:36.448Z</time></trkpt><trkpt lat="43.2385906" lon="12.1457267"><ele>457.2</ele><time>2026-03-29T09:20:38.449Z</time></trkpt><trkpt lat="43.2385647" lon="12.1456435"><ele>455.4</ele><time>2026-03-29T09:20:40.448Z</time></trkpt><trkpt lat="43.2385213" lon="12.1455298"><ele>453.6</ele><time>2026-03-29T09:20:42.449Z</time></trkpt><trkpt lat="43.238404" lon="12.1454283"><ele>451.8</ele><time>2026-03-29T09:20:43.449Z</time></trkpt><trkpt lat="43.2383438" lon="12.145311"><ele>450.0</ele><time>2026-03-29T09:20:45.448Z</time></trkpt><trkpt lat="43.2383057" lon="12.145209"><ele>450.0</ele><time>2026-03-29T09:20:46.449Z</time></trkpt><trkpt lat="43.2382264" lon="12.1450839"><ele>450.0</ele><time>2026-03-29T09:20:48.449Z</time></trkpt><trkpt lat="43.2382368" lon="12.144968"><ele>450.0</ele><time>2026-03-29T09:20:50.448Z</time></trkpt><trkpt lat="43.2382829" lon="12.1448356"><ele>450.0</ele><time>2026-03-29T09:20:52.448Z</time></trkpt><trkpt lat="43.238311" lon="12.1447576"><ele>450.0</ele><time>2026-03-29T09:20:53.448Z</time></trkpt><trkpt lat="43.2383518" lon="12.1446799"><ele>450.0</ele><time>2026-03-29T09:20:54.449Z</time></trkpt><trkpt lat="43.238385" lon="12.1445622"><ele>449.8333333333333</ele><time>2026-03-29T09:20:55.449Z</time></trkpt><trkpt lat="43.2384055" lon="12.1444786"><ele>449.66666666666663</ele><time>2026-03-29T09:20:56.448Z</time></trkpt><trkpt lat="43.2384295" lon="12.1443852"><ele>449.5</ele><time>2026-03-29T09:20:57.449Z</time></trkpt><trkpt lat="43.2384997" lon="12.1442611"><ele>449.3333333333333</ele><time>2026-03-29T09:21:00.448Z</time></trkpt><trkpt lat="43.2385922" lon="12.1441946"><ele>449.16666666666663</ele><time>2026-03-29T09:21:02.448Z</time></trkpt><trkpt lat="43.2386822" lon="12.144188"><ele>449.0</ele><time>2026-03-29T09:21:04.449Z</time></trkpt><trkpt lat="43.2388161" lon="12.144124"><ele>449.0</ele><time>2026-03-29T09:21:06.448Z</time></trkpt><trkpt lat="43.238951" lon="12.1440974"><ele>449.0</ele><time>2026-03-29T09:21:08.448Z</time></trkpt><trkpt lat="43.2390211" lon="12.144059"><ele>449.0</ele><time>2026-03-29T09:21:09.448Z</time></trkpt><trkpt lat="43.2391017" lon="12.1440531"><ele>449.0</ele><time>2026-03-29T09:21:10.448Z</time></trkpt><trkpt lat="43.2391739" lon="12.1439463"><ele>449.0</ele><time>2026-03-29T09:21:12.448Z</time></trkpt><trkpt lat="43.2392293" lon="12.1438092"><ele>443.5</ele><time>2026-03-29T09:21:14.448Z</time></trkpt><trkpt lat="43.2392812" lon="12.1436468"><ele>438.0</ele><time>2026-03-29T09:21:16.448Z</time></trkpt><trkpt lat="43.2393804" lon="12.1435624"><ele>432.5</ele><time>2026-03-29T09:21:18.448Z</time></trkpt><trkpt lat="43.2394518" lon="12.1435724"><ele>427.0</ele><time>2026-03-29T09:21:19.448Z</time></trkpt><trkpt lat="43.2396242" lon="12.1436341"><ele>427.0</ele><time>2026-03-29T09:21:21.449Z</time></trkpt><trkpt lat="43.2397466" lon="12.1436752"><ele>427.00000000000006</ele><time>2026-03-29T09:21:22.449Z</time></trkpt><trkpt lat="43.2398446" lon="12.1436913"><ele>427.00000000000006</ele><time>2026-03-29T09:21:23.448Z</time></trkpt><trkpt lat="43.2399511" lon="12.1436996"><ele>427.0</ele><time>2026-03-29T09:21:24.448Z</time></trkpt><trkpt lat="43.2400447" lon="12.1436871"><ele>427.0</ele><time>2026-03-29T09:21:25.449Z</time></trkpt><trkpt lat="43.2401652" lon="12.1436769"><ele>422.33333333333337</ele><time>2026-03-29T09:21:26.448Z</time></trkpt><trkpt lat="43.2402523" lon="12.14366"><ele>417.6666666666667</ele><time>2026-03-29T09:21:27.448Z</time></trkpt><trkpt lat="43.2403184" lon="12.1436452"><ele>413.0</ele><time>2026-03-29T09:21:29.447Z</time></trkpt><trkpt lat="43.24037" lon="12.1435829"><ele>408.33333333333337</ele><time>2026-03-29T09:21:30.448Z</time></trkpt><trkpt lat="43.2403881" lon="12.1434961"><ele>403.6666666666667</ele><time>2026-03-29T09:21:31.449Z</time></trkpt><trkpt lat="43.2403807" lon="12.1433219"><ele>399.0</ele><time>2026-03-29T09:21:33.448Z</time></trkpt><trkpt lat="43.240398" lon="12.1431551"><ele>397.5</ele><time>2026-03-29T09:21:35.449Z</time></trkpt><trkpt lat="43.2404251" lon="12.1430738"><ele>396.0</ele><time>2026-03-29T09:21:36.449Z</time></trkpt><trkpt lat="43.2405033" lon="12.1430995"><ele>394.5</ele><time>2026-03-29T09:21:37.448Z</time></trkpt><trkpt lat="43.240591" lon="12.1430204"><ele>393.0</ele><time>2026-03-29T09:21:39.448Z</time></trkpt><trkpt lat="43.2405889" lon="12.1429077"><ele>391.5</ele><time>2026-03-29T09:21:41.449Z</time></trkpt><trkpt lat="43.2405387" lon="12.1428156"><ele>390.0</ele><time>2026-03-29T09:21:43.449Z</time></trkpt><trkpt lat="43.2404473" lon="12.1428117"><ele>390.0</ele><time>2026-03-29T09:21:45.449Z</time></trkpt><trkpt lat="43.2403554" lon="12.1427205"><ele>390.0</ele><time>2026-03-29T09:21:46.449Z</time></trkpt><trkpt lat="43.2403007" lon="12.1426288"><ele>390.0</ele><time>2026-03-29T09:21:48.449Z</time></trkpt><trkpt lat="43.2402622" lon="12.142525"><ele>390.0</ele><time>2026-03-29T09:21:49.449Z</time></trkpt><trkpt lat="43.2403807" lon="12.1424716"><ele>390.0</ele><time>2026-03-29T09:21:50.449Z</time></trkpt><trkpt lat="43.2404007" lon="12.1423732"><ele>388.75</ele><time>2026-03-29T09:21:51.45Z</time></trkpt><trkpt lat="43.2405797" lon="12.1423226"><ele>387.5</ele><time>2026-03-29T09:21:53.45Z</time></trkpt><trkpt lat="43.2406695" lon="12.1423254"><ele>386.25</ele><time>2026-03-29T09:21:55.449Z</time></trkpt><trkpt lat="43.2407334" lon="12.1424348"><ele>385.0</ele><time>2026-03-29T09:21:57.449Z</time></trkpt><trkpt lat="43.240806" lon="12.1425611"><ele>382.1666666666667</ele><time>2026-03-29T09:21:59.45Z</time></trkpt><trkpt lat="43.2408666" lon="12.1425874"><ele>379.33333333333337</ele><time>2026-03-29T09:22:00.45Z</time></trkpt><trkpt lat="43.2409299" lon="12.1426096"><ele>376.5</ele><time>2026-03-29T09:22:01.449Z</time></trkpt><trkpt lat="43.2410147" lon="12.1426097"><ele>373.6666666666667</ele><time>2026-03-29T09:22:02.45Z</time></trkpt><trkpt lat="43.241099" lon="12.1426002"><ele>370.83333333333337</ele><time>2026-03-29T09:22:03.449Z</time></trkpt><trkpt lat="43.2411943" lon="12.1426748"><ele>368.0</ele><time>2026-03-29T09:22:04.449Z</time></trkpt><trkpt lat="43.2412664" lon="12.1427071"><ele>368.0</ele><time>2026-03-29T09:22:05.449Z</time></trkpt><trkpt lat="43.2413272" lon="12.1427729"><ele>368.0</ele><time>2026-03-29T09:22:06.45Z</time></trkpt><trkpt lat="43.2413873" lon="12.1428377"><ele>368.0</ele><time>2026-03-29T09:22:07.449Z</time></trkpt><trkpt lat="43.2414329" lon="12.1429042"><ele>368.0</ele><time>2026-03-29T09:22:08.45Z</time></trkpt><trkpt lat="43.2415193" lon="12.1429363"><ele>368.0</ele><time>2026-03-29T09:22:10.45Z</time></trkpt><trkpt lat="43.2416358" lon="12.142915"><ele>368.0</ele><time>2026-03-29T09:22:12.45Z</time></trkpt><trkpt lat="43.241692" lon="12.1428691"><ele>367.1666666666667</ele><time>2026-03-29T09:22:13.449Z</time></trkpt><trkpt lat="43.2417581" lon="12.1428303"><ele>366.33333333333337</ele><time>2026-03-29T09:22:14.449Z</time></trkpt><trkpt lat="43.2418316" lon="12.1427985"><ele>365.5</ele><time>2026-03-29T09:22:15.45Z</time></trkpt><trkpt lat="43.2419092" lon="12.1427247"><ele>364.6666666666667</ele><time>2026-03-29T09:22:16.449Z</time></trkpt><trkpt lat="43.2419864" lon="12.1426473"><ele>363.8333333333333</ele><time>2026-03-29T09:22:17.449Z</time></trkpt><trkpt lat="43.2420615" lon="12.1425734"><ele>363.0</ele><time>2026-03-29T09:22:18.45Z</time></trkpt><trkpt lat="43.2421452" lon="12.1425321"><ele>363.0</ele><time>2026-03-29T09:22:19.45Z</time></trkpt><trkpt lat="43.242236" lon="12.1424782"><ele>363.0</ele><time>2026-03-29T09:22:20.449Z</time></trkpt><trkpt lat="43.2423579" lon="12.1423872"><ele>363.0</ele><time>2026-03-29T09:22:21.45Z</time></trkpt><trkpt lat="43.242454" lon="12.1422974"><ele>363.0</ele><time>2026-03-29T09:22:22.45Z</time></trkpt><trkpt lat="43.2425026" lon="12.142221"><ele>363.0</ele><time>2026-03-29T09:22:23.449Z</time></trkpt><trkpt lat="43.2425653" lon="12.1421579"><ele>362.2</ele><time>2026-03-29T09:22:24.45Z</time></trkpt><trkpt lat="43.2426714" lon="12.1421939"><ele>361.4</ele><time>2026-03-29T09:22:25.45Z</time></trkpt><trkpt lat="43.2427599" lon="12.142161"><ele>360.59999999999997</ele><time>2026-03-29T09:22:26.449Z</time></trkpt><trkpt lat="43.2428538" lon="12.1421846"><ele>359.79999999999995</ele><time>2026-03-29T09:22:27.449Z</time></trkpt><trkpt lat="43.2429529" lon="12.1422049"><ele>359.0</ele><time>2026-03-29T09:22:28.45Z</time></trkpt><trkpt lat="43.2430568" lon="12.1421942"><ele>356.79999999999995</ele><time>2026-03-29T09:22:29.45Z</time></trkpt><trkpt lat="43.2431588" lon="12.1422061"><ele>354.59999999999997</ele><time>2026-03-29T09:22:30.45Z</time></trkpt><trkpt lat="43.243259" lon="12.1422038"><ele>352.4</ele><time>2026-03-29T09:22:31.449Z</time></trkpt><trkpt lat="43.2433704" lon="12.1422058"><ele>350.2</ele><time>2026-03-29T09:22:32.45Z</time></trkpt><trkpt lat="43.243493" lon="12.1422028"><ele>348.0</ele><time>2026-03-29T09:22:33.449Z</time></trkpt><trkpt lat="43.2436116" lon="12.1421865"><ele>348.0</ele><time>2026-03-29T09:22:34.449Z</time></trkpt><trkpt lat="43.2437324" lon="12.1421839"><ele>348.0</ele><time>2026-03-29T09:22:35.449Z</time></trkpt><trkpt lat="43.2438418" lon="12.1421799"><ele>348.0</ele><time>2026-03-29T09:22:36.449Z</time></trkpt><trkpt lat="43.243945" lon="12.1421633"><ele>348.0</ele><time>2026-03-29T09:22:37.45Z</time></trkpt><trkpt lat="43.2440487" lon="12.1421592"><ele>348.0</ele><time>2026-03-29T09:22:38.449Z</time></trkpt><trkpt lat="43.2441408" lon="12.1421571"><ele>345.4</ele><time>2026-03-29T09:22:39.45Z</time></trkpt><trkpt lat="43.2442389" lon="12.1421697"><ele>342.79999999999995</ele><time>2026-03-29T09:22:40.45Z</time></trkpt><trkpt lat="43.2443379" lon="12.1421937"><ele>340.2</ele><time>2026-03-29T09:22:41.45Z</time></trkpt><trkpt lat="43.2444342" lon="12.14224"><ele>337.6</ele><time>2026-03-29T09:22:42.449Z</time></trkpt><trkpt lat="43.2445305" lon="12.1423028"><ele>335.0</ele><time>2026-03-29T09:22:43.449Z</time></trkpt><trkpt lat="43.2446331" lon="12.1423716"><ele>334.5</ele><time>2026-03-29T09:22:44.449Z</time></trkpt><trkpt lat="43.2447332" lon="12.142453"><ele>334.0</ele><time>2026-03-29T09:22:45.45Z</time></trkpt><trkpt lat="43.2448446" lon="12.1425336"><ele>333.5</ele><time>2026-03-29T09:22:46.45Z</time></trkpt><trkpt lat="43.244947" lon="12.1426098"><ele>333.0</ele><time>2026-03-29T09:22:47.45Z</time></trkpt><trkpt lat="43.2450502" lon="12.1426769"><ele>331.0</ele><time>2026-03-29T09:22:48.45Z</time></trkpt><trkpt lat="43.2451534" lon="12.1427242"><ele>329.0</ele><time>2026-03-29T09:22:49.449Z</time></trkpt><trkpt lat="43.2452653" lon="12.1427612"><ele>327.0</ele><time>2026-03-29T09:22:50.45Z</time></trkpt><trkpt lat="43.2453781" lon="12.1427786"><ele>325.0</ele><time>2026-03-29T09:22:51.449Z</time></trkpt><trkpt lat="43.2454938" lon="12.1428002"><ele>325.0</ele><time>2026-03-29T09:22:52.45Z</time></trkpt><trkpt lat="43.2456087" lon="12.1428215"><ele>325.0</ele><time>2026-03-29T09:22:53.45Z</time></trkpt><trkpt lat="43.2457221" lon="12.1428434"><ele>325.0</ele><time>2026-03-29T09:22:54.449Z</time></trkpt><trkpt lat="43.2458392" lon="12.1428782"><ele>325.0</ele><time>2026-03-29T09:22:55.45Z</time></trkpt><trkpt lat="43.2459535" lon="12.1429132"><ele>323.8</ele><time>2026-03-29T09:22:56.45Z</time></trkpt><trkpt lat="43.2460606" lon="12.1429642"><ele>322.6</ele><time>2026-03-29T09:22:57.45Z</time></trkpt><trkpt lat="43.2461557" lon="12.1430205"><ele>321.4</ele><time>2026-03-29T09:22:58.449Z</time></trkpt><trkpt lat="43.2462351" lon="12.1430736"><ele>320.2</ele><time>2026-03-29T09:22:59.449Z</time></trkpt><trkpt lat="43.2462975" lon="12.1431352"><ele>319.0</ele><time>2026-03-29T09:23:00.45Z</time></trkpt><trkpt lat="43.2463401" lon="12.1432114"><ele>319.0</ele><time>2026-03-29T09:23:01.449Z</time></trkpt><trkpt lat="43.2463569" lon="12.1433518"><ele>319.0</ele><time>2026-03-29T09:23:03.449Z</time></trkpt><trkpt lat="43.2463342" lon="12.1434458"><ele>319.0</ele><time>2026-03-29T09:23:05.449Z</time></trkpt><trkpt lat="43.2464111" lon="12.143464"><ele>319.0</ele><time>2026-03-29T09:24:08.449Z</time></trkpt><trkpt lat="43.2464239" lon="12.1433569"><ele>319.0</ele><time>2026-03-29T09:24:13.449Z</time></trkpt><trkpt lat="43.2463729" lon="12.1432289"><ele>319.0</ele><time>2026-03-29T09:24:14.45Z</time></trkpt><trkpt lat="43.2463127" lon="12.1431588"><ele>319.0</ele><time>2026-03-29T09:24:15.449Z</time></trkpt><trkpt lat="43.2462077" lon="12.143042"><ele>319.0</ele><time>2026-03-29T09:24:16.45Z</time></trkpt><trkpt lat="43.2461122" lon="12.1429917"><ele>319.0</ele><time>2026-03-29T09:24:17.45Z</time></trkpt><trkpt lat="43.2460116" lon="12.1429569"><ele>319.0</ele><time>2026-03-29T09:24:18.45Z</time></trkpt><trkpt lat="43.2459205" lon="12.1429083"><ele>319.0</ele><time>2026-03-29T09:24:19.45Z</time></trkpt><trkpt lat="43.2458253" lon="12.1428665"><ele>319.0</ele><time>2026-03-29T09:24:20.45Z</time></trkpt><trkpt lat="43.2457345" lon="12.1428436"><ele>319.0</ele><time>2026-03-29T09:24:21.45Z</time></trkpt><trkpt lat="43.2456408" lon="12.1428199"><ele>319.0</ele><time>2026-03-29T09:24:22.449Z</time></trkpt><trkpt lat="43.2455508" lon="12.1427937"><ele>319.0</ele><time>2026-03-29T09:24:23.449Z</time></trkpt><trkpt lat="43.2454551" lon="12.1427713"><ele>319.0</ele><time>2026-03-29T09:24:24.45Z</time></trkpt><trkpt lat="43.2453645" lon="12.1427525"><ele>320.0</ele><time>2026-03-29T09:24:25.449Z</time></trkpt><trkpt lat="43.2452746" lon="12.1427388"><ele>321.0</ele><time>2026-03-29T09:24:26.45Z</time></trkpt><trkpt lat="43.2451908" lon="12.1427155"><ele>322.0</ele><time>2026-03-29T09:24:27.449Z</time></trkpt><trkpt lat="43.2451107" lon="12.1426761"><ele>323.0</ele><time>2026-03-29T09:24:28.45Z</time></trkpt><trkpt lat="43.2450358" lon="12.1426248"><ele>324.0</ele><time>2026-03-29T09:24:29.45Z</time></trkpt><trkpt lat="43.2449647" lon="12.1425751"><ele>325.0</ele><time>2026-03-29T09:24:30.449Z</time></trkpt><trkpt lat="43.2448855" lon="12.1425232"><ele>325.0</ele><time>2026-03-29T09:24:31.449Z</time></trkpt><trkpt lat="43.2448093" lon="12.1424675"><ele>325.0</ele><time>2026-03-29T09:24:32.45Z</time></trkpt><trkpt lat="43.2447367" lon="12.1424096"><ele>325.0</ele><time>2026-03-29T09:24:33.45Z</time></trkpt><trkpt lat="43.2446614" lon="12.14235"><ele>325.0</ele><time>2026-03-29T09:24:34.45Z</time></trkpt><trkpt lat="43.2445912" lon="12.1423058"><ele>325.0</ele><time>2026-03-29T09:24:35.45Z</time></trkpt><trkpt lat="43.2445156" lon="12.1422717"><ele>325.0</ele><time>2026-03-29T09:24:36.449Z</time></trkpt><trkpt lat="43.2444428" lon="12.1422261"><ele>326.66666666666663</ele><time>2026-03-29T09:24:37.45Z</time></trkpt><trkpt lat="43.2443688" lon="12.1421821"><ele>328.3333333333333</ele><time>2026-03-29T09:24:38.45Z</time></trkpt><trkpt lat="43.244293" lon="12.1421529"><ele>330.0</ele><time>2026-03-29T09:24:39.45Z</time></trkpt><trkpt lat="43.2442101" lon="12.1421453"><ele>331.6666666666667</ele><time>2026-03-29T09:24:40.449Z</time></trkpt><trkpt lat="43.2441197" lon="12.142134"><ele>333.33333333333337</ele><time>2026-03-29T09:24:41.449Z</time></trkpt><trkpt lat="43.2440376" lon="12.1421307"><ele>335.0</ele><time>2026-03-29T09:24:42.449Z</time></trkpt><trkpt lat="43.243955" lon="12.1421344"><ele>337.1666666666667</ele><time>2026-03-29T09:24:43.449Z</time></trkpt><trkpt lat="43.2438821" lon="12.1421453"><ele>339.33333333333337</ele><time>2026-03-29T09:24:44.45Z</time></trkpt><trkpt lat="43.2438014" lon="12.1421481"><ele>341.5</ele><time>2026-03-29T09:24:45.449Z</time></trkpt><trkpt lat="43.2437277" lon="12.1421456"><ele>343.6666666666667</ele><time>2026-03-29T09:24:46.449Z</time></trkpt><trkpt lat="43.243649" lon="12.1421443"><ele>345.8333333333333</ele><time>2026-03-29T09:24:47.449Z</time></trkpt><trkpt lat="43.2435697" lon="12.1421483"><ele>348.0</ele><time>2026-03-29T09:24:48.45Z</time></trkpt><trkpt lat="43.2434556" lon="12.1421394"><ele>348.0</ele><time>2026-03-29T09:24:50.449Z</time></trkpt><trkpt lat="43.2433905" lon="12.142143"><ele>348.0</ele><time>2026-03-29T09:24:51.449Z</time></trkpt><trkpt lat="43.2433069" lon="12.1421401"><ele>348.0</ele><time>2026-03-29T09:24:52.45Z</time></trkpt><trkpt lat="43.2432181" lon="12.1421338"><ele>348.0</ele><time>2026-03-29T09:24:53.449Z</time></trkpt><trkpt lat="43.2430953" lon="12.1421006"><ele>348.0</ele><time>2026-03-29T09:24:55.45Z</time></trkpt><trkpt lat="43.2429693" lon="12.1421173"><ele>350.2</ele><time>2026-03-29T09:24:57.45Z</time></trkpt><trkpt lat="43.2428882" lon="12.1421521"><ele>352.4</ele><time>2026-03-29T09:24:58.449Z</time></trkpt><trkpt lat="43.242758" lon="12.1421532"><ele>354.59999999999997</ele><time>2026-03-29T09:25:00.45Z</time></trkpt><trkpt lat="43.2426651" lon="12.1421506"><ele>356.79999999999995</ele><time>2026-03-29T09:25:01.449Z</time></trkpt><trkpt lat="43.2425932" lon="12.1421353"><ele>359.0</ele><time>2026-03-29T09:25:02.45Z</time></trkpt><trkpt lat="43.2425196" lon="12.1421413"><ele>359.0</ele><time>2026-03-29T09:25:03.449Z</time></trkpt><trkpt lat="43.2424557" lon="12.1422062"><ele>359.0</ele><time>2026-03-29T09:25:05.45Z</time></trkpt><trkpt lat="43.2423945" lon="12.1422779"><ele>359.0</ele><time>2026-03-29T09:25:06.448Z</time></trkpt><trkpt lat="43.2423162" lon="12.1423633"><ele>359.0</ele><time>2026-03-29T09:25:08.449Z</time></trkpt><trkpt lat="43.2422219" lon="12.1424302"><ele>359.0</ele><time>2026-03-29T09:25:09.449Z</time></trkpt><trkpt lat="43.2421081" lon="12.1425068"><ele>359.79999999999995</ele><time>2026-03-29T09:25:11.449Z</time></trkpt><trkpt lat="43.2420203" lon="12.1425918"><ele>360.59999999999997</ele><time>2026-03-29T09:25:13.45Z</time></trkpt><trkpt lat="43.241913" lon="12.1426871"><ele>361.4</ele><time>2026-03-29T09:25:15.449Z</time></trkpt><trkpt lat="43.2418504" lon="12.1427336"><ele>362.2</ele><time>2026-03-29T09:25:16.45Z</time></trkpt><trkpt lat="43.2417873" lon="12.1427756"><ele>363.0</ele><time>2026-03-29T09:25:17.45Z</time></trkpt><trkpt lat="43.2417179" lon="12.1428323"><ele>363.0</ele><time>2026-03-29T09:25:18.449Z</time></trkpt><trkpt lat="43.2415981" lon="12.1428892"><ele>363.0</ele><time>2026-03-29T09:25:20.45Z</time></trkpt><trkpt lat="43.241524" lon="12.1428969"><ele>363.0</ele><time>2026-03-29T09:25:21.449Z</time></trkpt><trkpt lat="43.241426" lon="12.1429478"><ele>363.0</ele><time>2026-03-29T09:25:22.45Z</time></trkpt><trkpt lat="43.2413614" lon="12.1429198"><ele>363.0</ele><time>2026-03-29T09:25:25.45Z</time></trkpt><trkpt lat="43.2414539" lon="12.1429396"><ele>363.0</ele><time>2026-03-29T09:31:15.45Z</time></trkpt><trkpt lat="43.2415247" lon="12.1429401"><ele>363.0</ele><time>2026-03-29T09:31:22.451Z</time></trkpt><trkpt lat="43.2416157" lon="12.1428996"><ele>363.0</ele><time>2026-03-29T09:31:24.45Z</time></trkpt><trkpt lat="43.2417187" lon="12.1428628"><ele>363.0</ele><time>2026-03-29T09:31:26.451Z</time></trkpt><trkpt lat="43.2418562" lon="12.1428723"><ele>363.0</ele><time>2026-03-29T09:31:28.45Z</time></trkpt><trkpt lat="43.2419159" lon="12.1428095"><ele>363.0</ele><time>2026-03-29T09:31:29.451Z</time></trkpt><trkpt lat="43.2419918" lon="12.1427178"><ele>363.0</ele><time>2026-03-29T09:31:31.45Z</time></trkpt><trkpt lat="43.2420584" lon="12.1426731"><ele>363.0</ele><time>2026-03-29T09:31:32.45Z</time></trkpt><trkpt lat="43.242181" lon="12.1425572"><ele>363.0</ele><time>2026-03-29T09:31:34.451Z</time></trkpt><trkpt lat="43.2422389" lon="12.1425027"><ele>363.0</ele><time>2026-03-29T09:31:35.45Z</time></trkpt><trkpt lat="43.2423082" lon="12.1424555"><ele>362.4285714285714</ele><time>2026-03-29T09:31:36.45Z</time></trkpt><trkpt lat="43.2423749" lon="12.1423954"><ele>361.85714285714283</ele><time>2026-03-29T09:31:37.451Z</time></trkpt><trkpt lat="43.2424341" lon="12.1423584"><ele>361.2857142857143</ele><time>2026-03-29T09:31:38.451Z</time></trkpt><trkpt lat="43.2425002" lon="12.1422891"><ele>360.71428571428567</ele><time>2026-03-29T09:31:39.451Z</time></trkpt><trkpt lat="43.2425516" lon="12.1422088"><ele>360.14285714285717</ele><time>2026-03-29T09:31:40.451Z</time></trkpt><trkpt lat="43.2426144" lon="12.1421736"><ele>359.57142857142856</ele><time>2026-03-29T09:31:41.45Z</time></trkpt><trkpt lat="43.2426788" lon="12.1421478"><ele>359.0</ele><time>2026-03-29T09:31:42.451Z</time></trkpt><trkpt lat="43.2427447" lon="12.1421645"><ele>359.0</ele><time>2026-03-29T09:31:43.45Z</time></trkpt><trkpt lat="43.2428295" lon="12.1421803"><ele>359.0</ele><time>2026-03-29T09:31:44.45Z</time></trkpt><trkpt lat="43.2429418" lon="12.1421988"><ele>359.0</ele><time>2026-03-29T09:31:45.45Z</time></trkpt><trkpt lat="43.2430356" lon="12.1422008"><ele>359.0</ele><time>2026-03-29T09:31:46.451Z</time></trkpt><trkpt lat="43.2431323" lon="12.142212"><ele>359.0</ele><time>2026-03-29T09:31:47.45Z</time></trkpt><trkpt lat="43.2432344" lon="12.1422316"><ele>356.79999999999995</ele><time>2026-03-29T09:31:48.451Z</time></trkpt><trkpt lat="43.2433314" lon="12.1422489"><ele>354.59999999999997</ele><time>2026-03-29T09:31:49.45Z</time></trkpt><trkpt lat="43.2434311" lon="12.1422222"><ele>352.4</ele><time>2026-03-29T09:31:50.45Z</time></trkpt><trkpt lat="43.2435405" lon="12.142217"><ele>350.2</ele><time>2026-03-29T09:31:51.45Z</time></trkpt><trkpt lat="43.2436525" lon="12.142203"><ele>348.0</ele><time>2026-03-29T09:31:52.451Z</time></trkpt><trkpt lat="43.2437685" lon="12.1421823"><ele>348.0</ele><time>2026-03-29T09:31:53.45Z</time></trkpt><trkpt lat="43.2438823" lon="12.1421839"><ele>348.0</ele><time>2026-03-29T09:31:54.45Z</time></trkpt><trkpt lat="43.2439852" lon="12.1421812"><ele>348.0</ele><time>2026-03-29T09:31:55.451Z</time></trkpt><trkpt lat="43.2440932" lon="12.142179"><ele>348.0</ele><time>2026-03-29T09:31:56.45Z</time></trkpt><trkpt lat="43.2441968" lon="12.1421736"><ele>348.0</ele><time>2026-03-29T09:31:57.451Z</time></trkpt><trkpt lat="43.2442894" lon="12.1421947"><ele>345.4</ele><time>2026-03-29T09:31:58.45Z</time></trkpt><trkpt lat="43.2443895" lon="12.1422295"><ele>342.79999999999995</ele><time>2026-03-29T09:31:59.451Z</time></trkpt><trkpt lat="43.2444831" lon="12.1422815"><ele>340.2</ele><time>2026-03-29T09:32:00.45Z</time></trkpt><trkpt lat="43.2445718" lon="12.1423375"><ele>337.6</ele><time>2026-03-29T09:32:01.45Z</time></trkpt><trkpt lat="43.2446617" lon="12.1424008"><ele>335.0</ele><time>2026-03-29T09:32:02.451Z</time></trkpt><trkpt lat="43.2447444" lon="12.142466"><ele>333.33333333333337</ele><time>2026-03-29T09:32:03.449Z</time></trkpt><trkpt lat="43.2448157" lon="12.1425254"><ele>331.6666666666667</ele><time>2026-03-29T09:32:04.45Z</time></trkpt><trkpt lat="43.2448888" lon="12.1425792"><ele>330.0</ele><time>2026-03-29T09:32:05.45Z</time></trkpt><trkpt lat="43.2449628" lon="12.1426267"><ele>328.3333333333333</ele><time>2026-03-29T09:32:06.451Z</time></trkpt><trkpt lat="43.2450361" lon="12.1426838"><ele>326.66666666666663</ele><time>2026-03-29T09:32:07.451Z</time></trkpt><trkpt lat="43.2451218" lon="12.1427284"><ele>325.0</ele><time>2026-03-29T09:32:08.451Z</time></trkpt><trkpt lat="43.2452152" lon="12.1427606"><ele>325.0</ele><time>2026-03-29T09:32:09.451Z</time></trkpt><trkpt lat="43.2453091" lon="12.1427884"><ele>325.0</ele><time>2026-03-29T09:32:10.449Z</time></trkpt><trkpt lat="43.2454024" lon="12.1428129"><ele>325.0</ele><time>2026-03-29T09:32:11.451Z</time></trkpt><trkpt lat="43.245488" lon="12.1428314"><ele>325.0</ele><time>2026-03-29T09:32:12.45Z</time></trkpt><trkpt lat="43.2455752" lon="12.1428462"><ele>325.0</ele><time>2026-03-29T09:32:13.451Z</time></trkpt><trkpt lat="43.2456624" lon="12.1428567"><ele>324.0</ele><time>2026-03-29T09:32:14.45Z</time></trkpt><trkpt lat="43.2457511" lon="12.1428721"><ele>323.0</ele><time>2026-03-29T09:32:15.45Z</time></trkpt><trkpt lat="43.2458359" lon="12.1429025"><ele>322.0</ele><time>2026-03-29T09:32:16.451Z</time></trkpt><trkpt lat="43.2459253" lon="12.142936"><ele>321.0</ele><time>2026-03-29T09:32:17.45Z</time></trkpt><trkpt lat="43.2460089" lon="12.1429731"><ele>320.0</ele><time>2026-03-29T09:32:18.45Z</time></trkpt><trkpt lat="43.2460906" lon="12.1430142"><ele>319.0</ele><time>2026-03-29T09:32:19.451Z</time></trkpt><trkpt lat="43.2461716" lon="12.1430539"><ele>319.0</ele><time>2026-03-29T09:32:20.45Z</time></trkpt><trkpt lat="43.246238" lon="12.143101"><ele>319.0</ele><time>2026-03-29T09:32:21.45Z</time></trkpt><trkpt lat="43.2462978" lon="12.1431691"><ele>319.0</ele><time>2026-03-29T09:32:22.45Z</time></trkpt><trkpt lat="43.2463384" lon="12.1432485"><ele>319.0</ele><time>2026-03-29T09:32:23.451Z</time></trkpt><trkpt lat="43.2463525" lon="12.1433354"><ele>319.0</ele><time>2026-03-29T09:32:24.451Z</time></trkpt><trkpt lat="43.2463429" lon="12.1434217"><ele>319.0</ele><time>2026-03-29T09:32:25.451Z</time></trkpt><trkpt lat="43.246311" lon="12.1435034"><ele>319.0</ele><time>2026-03-29T09:32:26.45Z</time></trkpt><trkpt lat="43.2462755" lon="12.1435879"><ele>319.0</ele><time>2026-03-29T09:32:27.45Z</time></trkpt><trkpt lat="43.2462367" lon="12.1436664"><ele>319.0</ele><time>2026-03-29T09:32:28.451Z</time></trkpt><trkpt lat="43.2461894" lon="12.1437454"><ele>319.0</ele><time>2026-03-29T09:32:29.45Z</time></trkpt><trkpt lat="43.2461374" lon="12.1438053"><ele>319.0</ele><time>2026-03-29T09:32:30.45Z</time></trkpt><trkpt lat="43.2460677" lon="12.1439415"><ele>319.0</ele><time>2026-03-29T09:32:32.451Z</time></trkpt><trkpt lat="43.2460937" lon="12.1440918"><ele>319.0</ele><time>2026-03-29T09:32:34.45Z</time></trkpt><trkpt lat="43.246135" lon="12.144163"><ele>319.16666666666663</ele><time>2026-03-29T09:32:35.451Z</time></trkpt><trkpt lat="43.2461983" lon="12.1442325"><ele>319.3333333333333</ele><time>2026-03-29T09:32:36.45Z</time></trkpt><trkpt lat="43.2462651" lon="12.1443015"><ele>319.5</ele><time>2026-03-29T09:32:37.451Z</time></trkpt><trkpt lat="43.2463305" lon="12.1443744"><ele>319.6666666666667</ele><time>2026-03-29T09:32:38.45Z</time></trkpt><trkpt lat="43.2463868" lon="12.1444375"><ele>319.83333333333337</ele><time>2026-03-29T09:32:39.451Z</time></trkpt><trkpt lat="43.2464688" lon="12.1445173"><ele>320.0</ele><time>2026-03-29T09:32:41.449Z</time></trkpt><trkpt lat="43.2465206" lon="12.1445777"><ele>308.0</ele><time>2026-03-29T09:32:43.451Z</time></trkpt></trkseg><trkseg><trkpt lat="43.2466491" lon="12.1446278"><ele>308.0</ele><time>2026-03-29T09:54:04.453Z</time></trkpt><trkpt lat="43.2467303" lon="12.1446959"><ele>308.0</ele><time>2026-03-29T09:54:05.452Z</time></trkpt><trkpt lat="43.246829" lon="12.1447768"><ele>308.0</ele><time>2026-03-29T09:54:07.452Z</time></trkpt><trkpt lat="43.2469185" lon="12.1448305"><ele>308.0</ele><time>2026-03-29T09:54:09.453Z</time></trkpt><trkpt lat="43.2469993" lon="12.1448969"><ele>308.0</ele><time>2026-03-29T09:54:11.452Z</time></trkpt><trkpt lat="43.247086" lon="12.1449603"><ele>307.4</ele><time>2026-03-29T09:54:13.453Z</time></trkpt><trkpt lat="43.247191" lon="12.1449349"><ele>306.8</ele><time>2026-03-29T09:54:15.453Z</time></trkpt><trkpt lat="43.2473066" lon="12.1448791"><ele>306.2</ele><time>2026-03-29T09:54:17.452Z</time></trkpt><trkpt lat="43.2474193" lon="12.1448473"><ele>305.6</ele><time>2026-03-29T09:54:19.452Z</time></trkpt><trkpt lat="43.2474643" lon="12.1447822"><ele>305.0</ele><time>2026-03-29T09:54:21.452Z</time></trkpt><trkpt lat="43.2474758" lon="12.1446966"><ele>304.4</ele><time>2026-03-29T09:54:23.452Z</time></trkpt><trkpt lat="43.2474588" lon="12.1445667"><ele>303.8</ele><time>2026-03-29T09:54:25.452Z</time></trkpt><trkpt lat="43.2474565" lon="12.1444216"><ele>303.2</ele><time>2026-03-29T09:54:27.453Z</time></trkpt><trkpt lat="43.2474665" lon="12.1442677"><ele>302.6</ele><time>2026-03-29T09:54:29.452Z</time></trkpt><trkpt lat="43.2474737" lon="12.1440945"><ele>302.0</ele><time>2026-03-29T09:54:31.452Z</time></trkpt><trkpt lat="43.2474754" lon="12.1439038"><ele>302.00000000000006</ele><time>2026-03-29T09:54:33.453Z</time></trkpt><trkpt lat="43.2474747" lon="12.1438058"><ele>302.0</ele><time>2026-03-29T09:54:34.453Z</time></trkpt><trkpt lat="43.2474735" lon="12.1437076"><ele>302.0</ele><time>2026-03-29T09:54:35.452Z</time></trkpt><trkpt lat="43.2474702" lon="12.1436121"><ele>302.0</ele><time>2026-03-29T09:54:36.453Z</time></trkpt><trkpt lat="43.2474667" lon="12.1435199"><ele>302.0</ele><time>2026-03-29T09:54:37.452Z</time></trkpt><trkpt lat="43.2474641" lon="12.1434252"><ele>302.00000000000006</ele><time>2026-03-29T09:54:38.453Z</time></trkpt><trkpt lat="43.2474679" lon="12.1433366"><ele>302.0</ele><time>2026-03-29T09:54:39.452Z</time></trkpt><trkpt lat="43.2474712" lon="12.1432499"><ele>302.42857142857144</ele><time>2026-03-29T09:54:40.453Z</time></trkpt><trkpt lat="43.2474597" lon="12.1431626"><ele>302.8571428571429</ele><time>2026-03-29T09:54:41.453Z</time></trkpt><trkpt lat="43.247443" lon="12.1430782"><ele>303.28571428571433</ele><time>2026-03-29T09:54:42.453Z</time></trkpt><trkpt lat="43.2474212" lon="12.1429943"><ele>303.7142857142857</ele><time>2026-03-29T09:54:43.453Z</time></trkpt><trkpt lat="43.2473752" lon="12.142831"><ele>304.1428571428571</ele><time>2026-03-29T09:54:45.452Z</time></trkpt><trkpt lat="43.2473493" lon="12.1427504"><ele>304.5714285714286</ele><time>2026-03-29T09:54:46.453Z</time></trkpt><trkpt lat="43.2473243" lon="12.1426694"><ele>305.0</ele><time>2026-03-29T09:54:47.453Z</time></trkpt><trkpt lat="43.2472981" lon="12.1425897"><ele>306.33333333333337</ele><time>2026-03-29T09:54:48.452Z</time></trkpt><trkpt lat="43.2472677" lon="12.1425061"><ele>307.6666666666667</ele><time>2026-03-29T09:54:49.453Z</time></trkpt><trkpt lat="43.2472383" lon="12.1424168"><ele>309.0</ele><time>2026-03-29T09:54:50.453Z</time></trkpt><trkpt lat="43.247223" lon="12.1423286"><ele>310.3333333333333</ele><time>2026-03-29T09:54:51.452Z</time></trkpt><trkpt lat="43.2472268" lon="12.1421685"><ele>311.66666666666663</ele><time>2026-03-29T09:54:53.452Z</time></trkpt><trkpt lat="43.247239" lon="12.1420395"><ele>313.0</ele><time>2026-03-29T09:54:55.452Z</time></trkpt><trkpt lat="43.24725" lon="12.14193"><ele>313.0</ele><time>2026-03-29T09:54:57.452Z</time></trkpt><trkpt lat="43.2472676" lon="12.1418449"><ele>313.0</ele><time>2026-03-29T09:54:59.452Z</time></trkpt><trkpt lat="43.247301" lon="12.1417622"><ele>313.0</ele><time>2026-03-29T09:55:02.453Z</time></trkpt><trkpt lat="43.2473713" lon="12.1416833"><ele>313.0</ele><time>2026-03-29T09:55:39.452Z</time></trkpt><trkpt lat="43.2474613" lon="12.1415798"><ele>313.0</ele><time>2026-03-29T09:55:41.453Z</time></trkpt><trkpt lat="43.2475191" lon="12.1415133"><ele>313.0</ele><time>2026-03-29T09:55:42.452Z</time></trkpt><trkpt lat="43.247571" lon="12.1414425"><ele>313.0</ele><time>2026-03-29T09:55:43.452Z</time></trkpt><trkpt lat="43.2476331" lon="12.1413618"><ele>313.0</ele><time>2026-03-29T09:55:44.452Z</time></trkpt><trkpt lat="43.2477032" lon="12.1412684"><ele>313.0</ele><time>2026-03-29T09:55:45.452Z</time></trkpt><trkpt lat="43.2477717" lon="12.1411798"><ele>313.0</ele><time>2026-03-29T09:55:46.453Z</time></trkpt><trkpt lat="43.2478385" lon="12.1410922"><ele>313.0</ele><time>2026-03-29T09:55:47.452Z</time></trkpt><trkpt lat="43.2479116" lon="12.1409982"><ele>313.0</ele><time>2026-03-29T09:55:48.453Z</time></trkpt><trkpt lat="43.2479875" lon="12.1409013"><ele>313.0</ele><time>2026-03-29T09:55:49.452Z</time></trkpt><trkpt lat="43.2481474" lon="12.1406938"><ele>313.0</ele><time>2026-03-29T09:55:51.453Z</time></trkpt><trkpt lat="43.2482264" lon="12.1405974"><ele>313.0</ele><time>2026-03-29T09:55:52.451Z</time></trkpt><trkpt lat="43.2483077" lon="12.1404922"><ele>312.16666666666663</ele><time>2026-03-29T09:55:53.452Z</time></trkpt><trkpt lat="43.2483836" lon="12.1404005"><ele>311.3333333333333</ele><time>2026-03-29T09:55:54.453Z</time></trkpt><trkpt lat="43.2484557" lon="12.1403148"><ele>310.5</ele><time>2026-03-29T09:55:55.452Z</time></trkpt><trkpt lat="43.2485187" lon="12.1402421"><ele>309.6666666666667</ele><time>2026-03-29T09:55:56.453Z</time></trkpt><trkpt lat="43.2485721" lon="12.1401759"><ele>308.83333333333337</ele><time>2026-03-29T09:55:57.453Z</time></trkpt><trkpt lat="43.2486169" lon="12.1401106"><ele>308.0</ele><time>2026-03-29T09:55:58.452Z</time></trkpt><trkpt lat="43.2486646" lon="12.1400483"><ele>308.0</ele><time>2026-03-29T09:55:59.452Z</time></trkpt><trkpt lat="43.2487205" lon="12.1399855"><ele>308.0</ele><time>2026-03-29T09:56:00.453Z</time></trkpt><trkpt lat="43.2487768" lon="12.1399098"><ele>308.0</ele><time>2026-03-29T09:56:01.452Z</time></trkpt><trkpt lat="43.2488352" lon="12.139825"><ele>308.0</ele><time>2026-03-29T09:56:02.452Z</time></trkpt><trkpt lat="43.2489002" lon="12.1397399"><ele>308.0</ele><time>2026-03-29T09:56:03.453Z</time></trkpt><trkpt lat="43.2489714" lon="12.1396508"><ele>308.0</ele><time>2026-03-29T09:56:04.453Z</time></trkpt><trkpt lat="43.2490452" lon="12.1395564"><ele>307.8</ele><time>2026-03-29T09:56:05.453Z</time></trkpt><trkpt lat="43.2491237" lon="12.139461"><ele>307.6</ele><time>2026-03-29T09:56:06.453Z</time></trkpt><trkpt lat="43.2492001" lon="12.1393634"><ele>307.4</ele><time>2026-03-29T09:56:07.452Z</time></trkpt><trkpt lat="43.2492753" lon="12.1392571"><ele>307.2</ele><time>2026-03-29T09:56:08.452Z</time></trkpt><trkpt lat="43.2493514" lon="12.1391581"><ele>307.0</ele><time>2026-03-29T09:56:09.453Z</time></trkpt><trkpt lat="43.2494243" lon="12.1390686"><ele>305.6</ele><time>2026-03-29T09:56:10.453Z</time></trkpt><trkpt lat="43.2494943" lon="12.1389981"><ele>304.2</ele><time>2026-03-29T09:56:11.452Z</time></trkpt><trkpt lat="43.2495673" lon="12.1389393"><ele>302.8</ele><time>2026-03-29T09:56:12.452Z</time></trkpt><trkpt lat="43.2496408" lon="12.1388935"><ele>301.4</ele><time>2026-03-29T09:56:13.453Z</time></trkpt><trkpt lat="43.2497438" lon="12.1388875"><ele>300.0</ele><time>2026-03-29T09:56:14.453Z</time></trkpt><trkpt lat="43.2498499" lon="12.1388987"><ele>300.0</ele><time>2026-03-29T09:56:15.453Z</time></trkpt><trkpt lat="43.2499587" lon="12.1389136"><ele>300.0</ele><time>2026-03-29T09:56:16.452Z</time></trkpt><trkpt lat="43.2500699" lon="12.1389298"><ele>300.0</ele><time>2026-03-29T09:56:17.453Z</time></trkpt><trkpt lat="43.2501812" lon="12.1389468"><ele>300.0</ele><time>2026-03-29T09:56:18.452Z</time></trkpt><trkpt lat="43.2502958" lon="12.1389642"><ele>300.0</ele><time>2026-03-29T09:56:19.453Z</time></trkpt><trkpt lat="43.2504206" lon="12.1389795"><ele>300.0</ele><time>2026-03-29T09:56:20.452Z</time></trkpt><trkpt lat="43.2505479" lon="12.1389948"><ele>300.0</ele><time>2026-03-29T09:56:21.452Z</time></trkpt><trkpt lat="43.2506777" lon="12.1390148"><ele>300.0</ele><time>2026-03-29T09:56:22.453Z</time></trkpt><trkpt lat="43.2508081" lon="12.1390278"><ele>300.0</ele><time>2026-03-29T09:56:23.453Z</time></trkpt><trkpt lat="43.2509404" lon="12.1390411"><ele>299.75</ele><time>2026-03-29T09:56:24.453Z</time></trkpt><trkpt lat="43.2510731" lon="12.1390533"><ele>299.5</ele><time>2026-03-29T09:56:25.452Z</time></trkpt><trkpt lat="43.2512052" lon="12.1390729"><ele>299.25</ele><time>2026-03-29T09:56:26.453Z</time></trkpt><trkpt lat="43.2513366" lon="12.1390892"><ele>299.0</ele><time>2026-03-29T09:56:27.452Z</time></trkpt><trkpt lat="43.2514686" lon="12.1391045"><ele>299.0</ele><time>2026-03-29T09:56:28.453Z</time></trkpt><trkpt lat="43.2516032" lon="12.1391185"><ele>299.0</ele><time>2026-03-29T09:56:29.452Z</time></trkpt><trkpt lat="43.2517397" lon="12.1391333"><ele>299.0</ele><time>2026-03-29T09:56:30.453Z</time></trkpt><trkpt lat="43.2518761" lon="12.1391479"><ele>299.0</ele><time>2026-03-29T09:56:31.452Z</time></trkpt><trkpt lat="43.2520129" lon="12.1391678"><ele>299.0</ele><time>2026-03-29T09:56:32.452Z</time></trkpt><trkpt lat="43.2521535" lon="12.139182"><ele>299.0</ele><time>2026-03-29T09:56:33.453Z</time></trkpt><trkpt lat="43.2522941" lon="12.1391959"><ele>299.0</ele><time>2026-03-29T09:56:34.453Z</time></trkpt><trkpt lat="43.2524363" lon="12.1392109"><ele>299.0</ele><time>2026-03-29T09:56:35.453Z</time></trkpt><trkpt lat="43.2525784" lon="12.1392265"><ele>299.25</ele><time>2026-03-29T09:56:36.452Z</time></trkpt><trkpt lat="43.2527219" lon="12.1392428"><ele>299.5</ele><time>2026-03-29T09:56:37.452Z</time></trkpt><trkpt lat="43.2528671" lon="12.1392604"><ele>299.75</ele><time>2026-03-29T09:56:38.452Z</time></trkpt><trkpt lat="43.2530038" lon="12.1392779"><ele>300.0</ele><time>2026-03-29T09:56:39.452Z</time></trkpt><trkpt lat="43.2531259" lon="12.1392884"><ele>300.4</ele><time>2026-03-29T09:56:40.452Z</time></trkpt><trkpt lat="43.2532394" lon="12.1393012"><ele>300.8</ele><time>2026-03-29T09:56:41.452Z</time></trkpt><trkpt lat="43.2533459" lon="12.1393145"><ele>301.2</ele><time>2026-03-29T09:56:42.453Z</time></trkpt><trkpt lat="43.2534422" lon="12.1393251"><ele>301.6</ele><time>2026-03-29T09:56:43.453Z</time></trkpt><trkpt lat="43.253529" lon="12.1393368"><ele>302.0</ele><time>2026-03-29T09:56:44.453Z</time></trkpt><trkpt lat="43.2536024" lon="12.139349"><ele>302.0</ele><time>2026-03-29T09:56:45.452Z</time></trkpt><trkpt lat="43.2537087" lon="12.1393641"><ele>302.0</ele><time>2026-03-29T09:56:47.452Z</time></trkpt><trkpt lat="43.2537736" lon="12.1393836"><ele>302.0</ele><time>2026-03-29T09:56:49.452Z</time></trkpt><trkpt lat="43.2538429" lon="12.1393915"><ele>302.0</ele><time>2026-03-29T10:00:34.453Z</time></trkpt><trkpt lat="43.2539073" lon="12.1394724"><ele>302.0</ele><time>2026-03-29T10:08:07.454Z</time></trkpt><trkpt lat="43.253965" lon="12.1395431"><ele>302.0</ele><time>2026-03-29T10:16:01.453Z</time></trkpt><trkpt lat="43.2540347" lon="12.139528"><ele>302.0</ele><time>2026-03-29T10:21:52.454Z</time></trkpt><trkpt lat="43.2541026" lon="12.1395567"><ele>302.0</ele><time>2026-03-29T10:22:34.513Z</time></trkpt><trkpt lat="43.2540837" lon="12.1394674"><ele>302.0</ele><time>2026-03-29T10:27:19.454Z</time></trkpt><trkpt lat="43.254051" lon="12.1393539"><ele>302.0</ele><time>2026-03-29T10:28:01.453Z</time></trkpt><trkpt lat="43.2539923" lon="12.1393208"><ele>302.0</ele><time>2026-03-29T10:28:02.453Z</time></trkpt><trkpt lat="43.2538956" lon="12.1392981"><ele>302.0</ele><time>2026-03-29T10:28:03.454Z</time></trkpt><trkpt lat="43.2537683" lon="12.1392871"><ele>302.0</ele><time>2026-03-29T10:28:04.453Z</time></trkpt><trkpt lat="43.2536245" lon="12.1392762"><ele>302.0</ele><time>2026-03-29T10:28:05.453Z</time></trkpt><trkpt lat="43.2534433" lon="12.1392622"><ele>302.0</ele><time>2026-03-29T10:28:06.454Z</time></trkpt><trkpt lat="43.2532737" lon="12.1392451"><ele>301.33333333333337</ele><time>2026-03-29T10:28:07.453Z</time></trkpt><trkpt lat="43.2530975" lon="12.1392247"><ele>300.6666666666667</ele><time>2026-03-29T10:28:08.453Z</time></trkpt><trkpt lat="43.2529125" lon="12.1391985"><ele>300.0</ele><time>2026-03-29T10:28:09.454Z</time></trkpt><trkpt lat="43.2527197" lon="12.1391729"><ele>300.0</ele><time>2026-03-29T10:28:10.453Z</time></trkpt><trkpt lat="43.2525407" lon="12.1391523"><ele>300.0</ele><time>2026-03-29T10:28:11.453Z</time></trkpt><trkpt lat="43.2523549" lon="12.1391299"><ele>300.0</ele><time>2026-03-29T10:28:12.453Z</time></trkpt><trkpt lat="43.2521684" lon="12.1391121"><ele>299.6666666666667</ele><time>2026-03-29T10:28:13.454Z</time></trkpt><trkpt lat="43.251976" lon="12.1390961"><ele>299.33333333333337</ele><time>2026-03-29T10:28:14.454Z</time></trkpt><trkpt lat="43.2517811" lon="12.1390764"><ele>299.0</ele><time>2026-03-29T10:28:15.453Z</time></trkpt><trkpt lat="43.2515869" lon="12.1390531"><ele>298.6666666666667</ele><time>2026-03-29T10:28:16.453Z</time></trkpt><trkpt lat="43.2513896" lon="12.1390278"><ele>298.3333333333333</ele><time>2026-03-29T10:28:17.454Z</time></trkpt><trkpt lat="43.2511867" lon="12.1390025"><ele>298.0</ele><time>2026-03-29T10:28:18.454Z</time></trkpt><trkpt lat="43.2509849" lon="12.1389788"><ele>298.0</ele><time>2026-03-29T10:28:19.453Z</time></trkpt><trkpt lat="43.2507818" lon="12.1389562"><ele>298.0</ele><time>2026-03-29T10:28:20.454Z</time></trkpt><trkpt lat="43.250587" lon="12.1389338"><ele>298.0</ele><time>2026-03-29T10:28:21.453Z</time></trkpt><trkpt lat="43.2504068" lon="12.1389122"><ele>298.66666666666663</ele><time>2026-03-29T10:28:22.453Z</time></trkpt><trkpt lat="43.250239" lon="12.1388931"><ele>299.3333333333333</ele><time>2026-03-29T10:28:23.453Z</time></trkpt><trkpt lat="43.250086" lon="12.1388759"><ele>300.0</ele><time>2026-03-29T10:28:24.454Z</time></trkpt><trkpt lat="43.2499499" lon="12.1388582"><ele>300.0</ele><time>2026-03-29T10:28:25.454Z</time></trkpt><trkpt lat="43.2498348" lon="12.1388239"><ele>300.0</ele><time>2026-03-29T10:28:26.454Z</time></trkpt><trkpt lat="43.2497453" lon="12.1387599"><ele>300.0</ele><time>2026-03-29T10:28:27.453Z</time></trkpt><trkpt lat="43.2496923" lon="12.1386714"><ele>300.0</ele><time>2026-03-29T10:28:28.453Z</time></trkpt><trkpt lat="43.2496615" lon="12.1385823"><ele>300.0</ele><time>2026-03-29T10:28:29.454Z</time></trkpt><trkpt lat="43.2497021" lon="12.1384698"><ele>300.8333333333333</ele><time>2026-03-29T10:28:30.453Z</time></trkpt><trkpt lat="43.2497301" lon="12.1383798"><ele>301.6666666666667</ele><time>2026-03-29T10:28:31.453Z</time></trkpt><trkpt lat="43.2497603" lon="12.1382719"><ele>302.5</ele><time>2026-03-29T10:28:32.454Z</time></trkpt><trkpt lat="43.2497956" lon="12.1381805"><ele>303.33333333333337</ele><time>2026-03-29T10:28:33.454Z</time></trkpt><trkpt lat="43.2498217" lon="12.1380954"><ele>304.1666666666667</ele><time>2026-03-29T10:28:34.454Z</time></trkpt><trkpt lat="43.2498715" lon="12.1379447"><ele>305.0</ele><time>2026-03-29T10:28:36.454Z</time></trkpt><trkpt lat="43.2499096" lon="12.137794"><ele>305.0</ele><time>2026-03-29T10:28:38.454Z</time></trkpt><trkpt lat="43.2499325" lon="12.1377128"><ele>305.0</ele><time>2026-03-29T10:28:39.453Z</time></trkpt><trkpt lat="43.2499579" lon="12.1376304"><ele>305.0</ele><time>2026-03-29T10:28:40.454Z</time></trkpt><trkpt lat="43.250005" lon="12.1374644"><ele>305.0</ele><time>2026-03-29T10:28:42.454Z</time></trkpt><trkpt lat="43.2500338" lon="12.1373731"><ele>305.0</ele><time>2026-03-29T10:28:43.453Z</time></trkpt><trkpt lat="43.2500683" lon="12.1372743"><ele>305.0</ele><time>2026-03-29T10:28:44.454Z</time></trkpt><trkpt lat="43.2501123" lon="12.1371641"><ele>306.0</ele><time>2026-03-29T10:28:45.454Z</time></trkpt><trkpt lat="43.2501647" lon="12.1370671"><ele>307.0</ele><time>2026-03-29T10:28:46.453Z</time></trkpt><trkpt lat="43.250223" lon="12.1369706"><ele>308.0</ele><time>2026-03-29T10:28:47.454Z</time></trkpt><trkpt lat="43.2502823" lon="12.1368707"><ele>309.0</ele><time>2026-03-29T10:28:48.453Z</time></trkpt><trkpt lat="43.2503429" lon="12.13677"><ele>310.0</ele><time>2026-03-29T10:28:49.454Z</time></trkpt><trkpt lat="43.2504071" lon="12.1366708"><ele>310.0</ele><time>2026-03-29T10:28:50.454Z</time></trkpt><trkpt lat="43.2504661" lon="12.1365679"><ele>310.0</ele><time>2026-03-29T10:28:51.453Z</time></trkpt><trkpt lat="43.2505236" lon="12.1364559"><ele>310.0</ele><time>2026-03-29T10:28:52.453Z</time></trkpt><trkpt lat="43.2505781" lon="12.1363391"><ele>310.0</ele><time>2026-03-29T10:28:53.454Z</time></trkpt><trkpt lat="43.2506338" lon="12.1362085"><ele>310.0</ele><time>2026-03-29T10:28:54.453Z</time></trkpt><trkpt lat="43.2506854" lon="12.1360723"><ele>309.0</ele><time>2026-03-29T10:28:55.454Z</time></trkpt><trkpt lat="43.2507283" lon="12.135927"><ele>308.0</ele><time>2026-03-29T10:28:56.454Z</time></trkpt><trkpt lat="43.2507741" lon="12.1357821"><ele>307.0</ele><time>2026-03-29T10:28:57.454Z</time></trkpt><trkpt lat="43.2508212" lon="12.1356317"><ele>306.0</ele><time>2026-03-29T10:28:58.452Z</time></trkpt><trkpt lat="43.2508725" lon="12.1354878"><ele>308.2</ele><time>2026-03-29T10:28:59.453Z</time></trkpt><trkpt lat="43.2509251" lon="12.1353476"><ele>310.40000000000003</ele><time>2026-03-29T10:29:00.452Z</time></trkpt><trkpt lat="43.2509687" lon="12.1352094"><ele>312.6</ele><time>2026-03-29T10:29:01.453Z</time></trkpt><trkpt lat="43.251011" lon="12.1350709"><ele>314.8</ele><time>2026-03-29T10:29:02.453Z</time></trkpt><trkpt lat="43.2510533" lon="12.1349336"><ele>317.0</ele><time>2026-03-29T10:29:03.453Z</time></trkpt><trkpt lat="43.2510973" lon="12.1347906"><ele>315.8</ele><time>2026-03-29T10:29:04.453Z</time></trkpt><trkpt lat="43.2511491" lon="12.1346535"><ele>314.6</ele><time>2026-03-29T10:29:05.454Z</time></trkpt><trkpt lat="43.2512209" lon="12.134541"><ele>313.40000000000003</ele><time>2026-03-29T10:29:06.454Z</time></trkpt><trkpt lat="43.2513106" lon="12.1344476"><ele>312.2</ele><time>2026-03-29T10:29:07.453Z</time></trkpt><trkpt lat="43.2514032" lon="12.1343656"><ele>311.0</ele><time>2026-03-29T10:29:08.453Z</time></trkpt><trkpt lat="43.251492" lon="12.1342791"><ele>311.0</ele><time>2026-03-29T10:29:09.453Z</time></trkpt><trkpt lat="43.2515676" lon="12.1341708"><ele>311.0</ele><time>2026-03-29T10:29:10.453Z</time></trkpt><trkpt lat="43.2516242" lon="12.1340652"><ele>311.0</ele><time>2026-03-29T10:29:11.454Z</time></trkpt><trkpt lat="43.2516923" lon="12.1339394"><ele>311.0</ele><time>2026-03-29T10:29:12.453Z</time></trkpt><trkpt lat="43.25173" lon="12.133788"><ele>311.0</ele><time>2026-03-29T10:29:13.453Z</time></trkpt><trkpt lat="43.2517931" lon="12.1336642"><ele>315.0</ele><time>2026-03-29T10:29:14.454Z</time></trkpt><trkpt lat="43.2518591" lon="12.1335368"><ele>319.0</ele><time>2026-03-29T10:29:15.453Z</time></trkpt><trkpt lat="43.251943" lon="12.1333993"><ele>323.0</ele><time>2026-03-29T10:29:16.454Z</time></trkpt><trkpt lat="43.2520273" lon="12.1332755"><ele>327.0</ele><time>2026-03-29T10:29:17.453Z</time></trkpt><trkpt lat="43.2521139" lon="12.1331633"><ele>328.20000000000005</ele><time>2026-03-29T10:29:18.454Z</time></trkpt><trkpt lat="43.252189" lon="12.1330627"><ele>329.4</ele><time>2026-03-29T10:29:19.454Z</time></trkpt><trkpt lat="43.2522534" lon="12.1329635"><ele>330.6</ele><time>2026-03-29T10:29:20.454Z</time></trkpt><trkpt lat="43.2523017" lon="12.1328529"><ele>331.79999999999995</ele><time>2026-03-29T10:29:21.454Z</time></trkpt><trkpt lat="43.2523275" lon="12.1327353"><ele>333.0</ele><time>2026-03-29T10:29:22.454Z</time></trkpt><trkpt lat="43.2523232" lon="12.1326103"><ele>331.4</ele><time>2026-03-29T10:29:23.452Z</time></trkpt><trkpt lat="43.2523068" lon="12.1324794"><ele>329.79999999999995</ele><time>2026-03-29T10:29:24.454Z</time></trkpt><trkpt lat="43.2522772" lon="12.1323357"><ele>328.2</ele><time>2026-03-29T10:29:25.453Z</time></trkpt><trkpt lat="43.2522478" lon="12.1321902"><ele>326.6</ele><time>2026-03-29T10:29:26.454Z</time></trkpt><trkpt lat="43.2522183" lon="12.1320473"><ele>325.0</ele><time>2026-03-29T10:29:27.454Z</time></trkpt><trkpt lat="43.2521978" lon="12.1319297"><ele>325.0</ele><time>2026-03-29T10:29:28.453Z</time></trkpt><trkpt lat="43.2521711" lon="12.1318085"><ele>325.0</ele><time>2026-03-29T10:29:30.453Z</time></trkpt><trkpt lat="43.2521259" lon="12.1317446"><ele>325.0</ele><time>2026-03-29T10:29:33.453Z</time></trkpt><trkpt lat="43.2520542" lon="12.1317457"><ele>325.0</ele><time>2026-03-29T10:29:36.454Z</time></trkpt><trkpt lat="43.2519879" lon="12.1317277"><ele>325.0</ele><time>2026-03-29T10:29:51.454Z</time></trkpt><trkpt lat="43.2518845" lon="12.1317897"><ele>325.0</ele><time>2026-03-29T10:29:53.454Z</time></trkpt><trkpt lat="43.2518452" lon="12.1319065"><ele>325.0</ele><time>2026-03-29T10:29:55.454Z</time></trkpt><trkpt lat="43.2517717" lon="12.1319584"><ele>325.0</ele><time>2026-03-29T10:29:57.453Z</time></trkpt><trkpt lat="43.2516972" lon="12.1319366"><ele>325.0</ele><time>2026-03-29T10:29:58.453Z</time></trkpt><trkpt lat="43.251609" lon="12.1320287"><ele>325.0</ele><time>2026-03-29T10:30:00.454Z</time></trkpt><trkpt lat="43.2515884" lon="12.1321209"><ele>325.0</ele><time>2026-03-29T10:30:01.454Z</time></trkpt><trkpt lat="43.2515842" lon="12.1322282"><ele>325.0</ele><time>2026-03-29T10:30:02.453Z</time></trkpt><trkpt lat="43.2515779" lon="12.1323335"><ele>326.3333333333333</ele><time>2026-03-29T10:30:03.454Z</time></trkpt><trkpt lat="43.2515869" lon="12.132433"><ele>327.66666666666663</ele><time>2026-03-29T10:30:04.453Z</time></trkpt><trkpt lat="43.2515939" lon="12.1325578"><ele>329.0</ele><time>2026-03-29T10:30:05.454Z</time></trkpt><trkpt lat="43.2515936" lon="12.1326699"><ele>330.3333333333333</ele><time>2026-03-29T10:30:06.454Z</time></trkpt><trkpt lat="43.2515636" lon="12.1327509"><ele>331.6666666666667</ele><time>2026-03-29T10:30:07.454Z</time></trkpt><trkpt lat="43.2514924" lon="12.1328474"><ele>333.0</ele><time>2026-03-29T10:30:09.454Z</time></trkpt><trkpt lat="43.251395" lon="12.1329211"><ele>337.4</ele><time>2026-03-29T10:30:11.454Z</time></trkpt><trkpt lat="43.2512944" lon="12.1329784"><ele>341.79999999999995</ele><time>2026-03-29T10:30:13.453Z</time></trkpt><trkpt lat="43.2511895" lon="12.132872"><ele>346.2</ele><time>2026-03-29T10:30:15.453Z</time></trkpt><trkpt lat="43.2510935" lon="12.1328059"><ele>350.6</ele><time>2026-03-29T10:30:17.453Z</time></trkpt><trkpt lat="43.2510122" lon="12.1327802"><ele>355.0</ele><time>2026-03-29T10:30:19.454Z</time></trkpt><trkpt lat="43.2509767" lon="12.1328985"><ele>355.0</ele><time>2026-03-29T10:30:22.454Z</time></trkpt><trkpt lat="43.2508941" lon="12.1329391"><ele>355.0</ele><time>2026-03-29T10:30:25.454Z</time></trkpt><trkpt lat="43.250832" lon="12.1328887"><ele>355.0</ele><time>2026-03-29T10:30:26.453Z</time></trkpt><trkpt lat="43.2507298" lon="12.1328752"><ele>355.0</ele><time>2026-03-29T10:30:28.453Z</time></trkpt><trkpt lat="43.2506274" lon="12.132871"><ele>355.0</ele><time>2026-03-29T10:30:30.454Z</time></trkpt><trkpt lat="43.2505083" lon="12.13289"><ele>356.66666666666663</ele><time>2026-03-29T10:30:32.453Z</time></trkpt><trkpt lat="43.2504245" lon="12.1328895"><ele>358.3333333333333</ele><time>2026-03-29T10:30:33.453Z</time></trkpt><trkpt lat="43.2503638" lon="12.1329192"><ele>360.0</ele><time>2026-03-29T10:30:34.453Z</time></trkpt><trkpt lat="43.2502906" lon="12.1329371"><ele>361.6666666666667</ele><time>2026-03-29T10:30:35.454Z</time></trkpt><trkpt lat="43.250202" lon="12.1329475"><ele>363.33333333333337</ele><time>2026-03-29T10:30:36.454Z</time></trkpt><trkpt lat="43.2501384" lon="12.1329531"><ele>365.0</ele><time>2026-03-29T10:30:37.454Z</time></trkpt><trkpt lat="43.2500306" lon="12.1329617"><ele>365.0</ele><time>2026-03-29T10:30:39.453Z</time></trkpt><trkpt lat="43.2499666" lon="12.1329706"><ele>365.0</ele><time>2026-03-29T10:30:40.454Z</time></trkpt><trkpt lat="43.2498942" lon="12.1329972"><ele>365.0</ele><time>2026-03-29T10:30:41.454Z</time></trkpt><trkpt lat="43.2498264" lon="12.1329785"><ele>365.0</ele><time>2026-03-29T10:30:42.454Z</time></trkpt><trkpt lat="43.2497005" lon="12.1329441"><ele>365.0</ele><time>2026-03-29T10:30:44.453Z</time></trkpt><trkpt lat="43.2495918" lon="12.1329514"><ele>365.0</ele><time>2026-03-29T10:30:46.454Z</time></trkpt><trkpt lat="43.2494807" lon="12.1330368"><ele>366.6</ele><time>2026-03-29T10:30:48.453Z</time></trkpt><trkpt lat="43.2493597" lon="12.1331113"><ele>368.2</ele><time>2026-03-29T10:30:50.454Z</time></trkpt><trkpt lat="43.249295" lon="12.1331515"><ele>369.79999999999995</ele><time>2026-03-29T10:30:51.453Z</time></trkpt><trkpt lat="43.2492284" lon="12.1331962"><ele>371.4</ele><time>2026-03-29T10:30:52.453Z</time></trkpt><trkpt lat="43.249127" lon="12.1332576"><ele>373.0</ele><time>2026-03-29T10:30:53.453Z</time></trkpt><trkpt lat="43.2490439" lon="12.1332898"><ele>378.25</ele><time>2026-03-29T10:30:54.453Z</time></trkpt><trkpt lat="43.2488985" lon="12.1332313"><ele>383.5</ele><time>2026-03-29T10:30:55.454Z</time></trkpt><trkpt lat="43.2487767" lon="12.1332746"><ele>388.75</ele><time>2026-03-29T10:30:57.453Z</time></trkpt><trkpt lat="43.2486821" lon="12.1333239"><ele>394.0</ele><time>2026-03-29T10:30:59.453Z</time></trkpt><trkpt lat="43.2485683" lon="12.1333612"><ele>394.0</ele><time>2026-03-29T10:31:01.453Z</time></trkpt><trkpt lat="43.2484832" lon="12.1333555"><ele>394.0</ele><time>2026-03-29T10:31:03.453Z</time></trkpt><trkpt lat="43.2483819" lon="12.1333617"><ele>394.0</ele><time>2026-03-29T10:31:05.454Z</time></trkpt><trkpt lat="43.2483018" lon="12.1333505"><ele>394.0</ele><time>2026-03-29T10:31:06.453Z</time></trkpt><trkpt lat="43.24819" lon="12.1333559"><ele>394.0</ele><time>2026-03-29T10:31:08.453Z</time></trkpt><trkpt lat="43.248059" lon="12.1333111"><ele>394.5</ele><time>2026-03-29T10:31:10.454Z</time></trkpt><trkpt lat="43.2478888" lon="12.1332286"><ele>395.0</ele><time>2026-03-29T10:31:12.454Z</time></trkpt><trkpt lat="43.2478075" lon="12.1331678"><ele>395.5</ele><time>2026-03-29T10:31:13.453Z</time></trkpt><trkpt lat="43.2477154" lon="12.1331051"><ele>396.0</ele><time>2026-03-29T10:31:14.453Z</time></trkpt><trkpt lat="43.2475599" lon="12.1330034"><ele>396.0</ele><time>2026-03-29T10:31:15.453Z</time></trkpt><trkpt lat="43.2474847" lon="12.1329337"><ele>396.0</ele><time>2026-03-29T10:31:16.453Z</time></trkpt><trkpt lat="43.2474096" lon="12.1328717"><ele>396.0</ele><time>2026-03-29T10:31:17.454Z</time></trkpt><trkpt lat="43.2473353" lon="12.1327998"><ele>396.0</ele><time>2026-03-29T10:31:18.454Z</time></trkpt><trkpt lat="43.2472712" lon="12.1327209"><ele>396.0</ele><time>2026-03-29T10:31:20.454Z</time></trkpt><trkpt lat="43.2471627" lon="12.132654"><ele>398.8</ele><time>2026-03-29T10:31:22.454Z</time></trkpt><trkpt lat="43.2470795" lon="12.1327073"><ele>401.6</ele><time>2026-03-29T10:31:24.454Z</time></trkpt><trkpt lat="43.2470126" lon="12.1327974"><ele>404.4</ele><time>2026-03-29T10:31:26.453Z</time></trkpt><trkpt lat="43.2469435" lon="12.1328229"><ele>407.2</ele><time>2026-03-29T10:31:27.453Z</time></trkpt><trkpt lat="43.2468608" lon="12.1328551"><ele>410.0</ele><time>2026-03-29T10:31:28.454Z</time></trkpt><trkpt lat="43.2467508" lon="12.1328977"><ele>410.0</ele><time>2026-03-29T10:31:30.453Z</time></trkpt><trkpt lat="43.2466913" lon="12.1330064"><ele>410.0</ele><time>2026-03-29T10:31:32.453Z</time></trkpt><trkpt lat="43.2467317" lon="12.1331547"><ele>410.0</ele><time>2026-03-29T10:31:34.454Z</time></trkpt><trkpt lat="43.2467385" lon="12.1332824"><ele>410.0</ele><time>2026-03-29T10:31:36.454Z</time></trkpt><trkpt lat="43.2467406" lon="12.1334454"><ele>410.0</ele><time>2026-03-29T10:31:38.453Z</time></trkpt><trkpt lat="43.24674" lon="12.1335322"><ele>413.4</ele><time>2026-03-29T10:31:39.454Z</time></trkpt><trkpt lat="43.2467473" lon="12.1337105"><ele>416.8</ele><time>2026-03-29T10:31:41.454Z</time></trkpt><trkpt lat="43.2467302" lon="12.133822"><ele>420.20000000000005</ele><time>2026-03-29T10:31:43.453Z</time></trkpt><trkpt lat="43.2466635" lon="12.1339317"><ele>423.6</ele><time>2026-03-29T10:31:45.453Z</time></trkpt><trkpt lat="43.246612" lon="12.1340837"><ele>427.0</ele><time>2026-03-29T10:31:47.454Z</time></trkpt><trkpt lat="43.2465603" lon="12.1342057"><ele>429.00000000000006</ele><time>2026-03-29T10:31:48.453Z</time></trkpt><trkpt lat="43.2464883" lon="12.1342938"><ele>431.0</ele><time>2026-03-29T10:31:50.454Z</time></trkpt><trkpt lat="43.2464814" lon="12.1343951"><ele>433.0</ele><time>2026-03-29T10:31:52.453Z</time></trkpt><trkpt lat="43.246518" lon="12.1344664"><ele>435.0</ele><time>2026-03-29T10:31:53.453Z</time></trkpt><trkpt lat="43.2464676" lon="12.1345586"><ele>437.00000000000006</ele><time>2026-03-29T10:31:55.454Z</time></trkpt><trkpt lat="43.2464137" lon="12.134642"><ele>439.0</ele><time>2026-03-29T10:31:57.453Z</time></trkpt><trkpt lat="43.2463426" lon="12.134621"><ele>443.4</ele><time>2026-03-29T10:32:00.453Z</time></trkpt><trkpt lat="43.2462517" lon="12.134572"><ele>447.79999999999995</ele><time>2026-03-29T10:32:02.454Z</time></trkpt><trkpt lat="43.2461612" lon="12.1345557"><ele>452.20000000000005</ele><time>2026-03-29T10:32:04.454Z</time></trkpt><trkpt lat="43.2460283" lon="12.1345579"><ele>456.6</ele><time>2026-03-29T10:32:06.454Z</time></trkpt><trkpt lat="43.245942" lon="12.1345586"><ele>461.0</ele><time>2026-03-29T10:32:07.453Z</time></trkpt><trkpt lat="43.2458473" lon="12.1345534"><ele>460.99999999999994</ele><time>2026-03-29T10:32:08.453Z</time></trkpt><trkpt lat="43.2457611" lon="12.1345417"><ele>461.0</ele><time>2026-03-29T10:32:09.454Z</time></trkpt><trkpt lat="43.2456889" lon="12.1345147"><ele>461.0</ele><time>2026-03-29T10:32:10.454Z</time></trkpt><trkpt lat="43.2456085" lon="12.1344911"><ele>461.0</ele><time>2026-03-29T10:32:11.454Z</time></trkpt><trkpt lat="43.2455295" lon="12.1344726"><ele>460.99999999999994</ele><time>2026-03-29T10:32:12.454Z</time></trkpt><trkpt lat="43.2454565" lon="12.1345615"><ele>461.0</ele><time>2026-03-29T10:32:13.453Z</time></trkpt><trkpt lat="43.2453653" lon="12.1345667"><ele>465.4</ele><time>2026-03-29T10:32:14.453Z</time></trkpt><trkpt lat="43.2452834" lon="12.1345915"><ele>469.8</ele><time>2026-03-29T10:32:15.454Z</time></trkpt><trkpt lat="43.2451419" lon="12.1345875"><ele>474.19999999999993</ele><time>2026-03-29T10:32:17.453Z</time></trkpt><trkpt lat="43.2450773" lon="12.1346073"><ele>478.59999999999997</ele><time>2026-03-29T10:32:18.453Z</time></trkpt><trkpt lat="43.2449497" lon="12.1346462"><ele>483.0</ele><time>2026-03-29T10:32:20.454Z</time></trkpt><trkpt lat="43.2448539" lon="12.1346422"><ele>487.59999999999997</ele><time>2026-03-29T10:32:22.454Z</time></trkpt><trkpt lat="43.2447872" lon="12.134657"><ele>492.19999999999993</ele><time>2026-03-29T10:32:23.453Z</time></trkpt><trkpt lat="43.2446936" lon="12.1346643"><ele>496.8</ele><time>2026-03-29T10:32:25.454Z</time></trkpt><trkpt lat="43.2445701" lon="12.1346826"><ele>501.4</ele><time>2026-03-29T10:32:27.453Z</time></trkpt><trkpt lat="43.2444819" lon="12.1346703"><ele>506.0</ele><time>2026-03-29T10:32:28.454Z</time></trkpt><trkpt lat="43.2443821" lon="12.1346508"><ele>506.0</ele><time>2026-03-29T10:32:29.453Z</time></trkpt><trkpt lat="43.2442814" lon="12.1346483"><ele>506.0</ele><time>2026-03-29T10:32:30.453Z</time></trkpt><trkpt lat="43.2441731" lon="12.1346502"><ele>506.0</ele><time>2026-03-29T10:32:31.454Z</time></trkpt><trkpt lat="43.2440606" lon="12.1346569"><ele>506.0</ele><time>2026-03-29T10:32:32.453Z</time></trkpt><trkpt lat="43.2439614" lon="12.134655"><ele>506.0</ele><time>2026-03-29T10:32:33.453Z</time></trkpt><trkpt lat="43.2438632" lon="12.1346541"><ele>510.99999999999994</ele><time>2026-03-29T10:32:34.453Z</time></trkpt><trkpt lat="43.2438003" lon="12.1346491"><ele>516.0</ele><time>2026-03-29T10:32:36.453Z</time></trkpt><trkpt lat="43.243725" lon="12.1346558"><ele>521.0</ele><time>2026-03-29T10:32:39.454Z</time></trkpt><trkpt lat="43.2436625" lon="12.1346438"><ele>526.0</ele><time>2026-03-29T10:32:41.454Z</time></trkpt><trkpt lat="43.243574" lon="12.1346346"><ele>531.0</ele><time>2026-03-29T10:32:44.454Z</time></trkpt><trkpt lat="43.2434651" lon="12.1346277"><ele>536.0</ele><time>2026-03-29T10:32:46.454Z</time></trkpt><trkpt lat="43.2433483" lon="12.1345894"><ele>536.0</ele><time>2026-03-29T10:32:48.453Z</time></trkpt><trkpt lat="43.2432496" lon="12.13455"><ele>536.0</ele><time>2026-03-29T10:32:50.453Z</time></trkpt><trkpt lat="43.2431751" lon="12.1345115"><ele>536.0</ele><time>2026-03-29T10:32:52.454Z</time></trkpt><trkpt lat="43.243109" lon="12.1344918"><ele>536.0</ele><time>2026-03-29T10:32:55.453Z</time></trkpt><trkpt lat="43.2430517" lon="12.1344517"><ele>536.0</ele><time>2026-03-29T10:33:01.454Z</time></trkpt><trkpt lat="43.2429874" lon="12.1343843"><ele>536.0</ele><time>2026-03-29T10:33:16.454Z</time></trkpt><trkpt lat="43.2429242" lon="12.1343466"><ele>540.6</ele><time>2026-03-29T10:33:20.454Z</time></trkpt><trkpt lat="43.2428576" lon="12.134297"><ele>545.2</ele><time>2026-03-29T10:33:22.453Z</time></trkpt><trkpt lat="43.2427546" lon="12.1342701"><ele>549.8</ele><time>2026-03-29T10:33:24.453Z</time></trkpt><trkpt lat="43.2426865" lon="12.1342585"><ele>554.4</ele><time>2026-03-29T10:33:27.454Z</time></trkpt><trkpt lat="43.2425869" lon="12.1342251"><ele>559.0</ele><time>2026-03-29T10:34:08.454Z</time></trkpt><trkpt lat="43.2425038" lon="12.1341417"><ele>559.0</ele><time>2026-03-29T10:34:09.454Z</time></trkpt><trkpt lat="43.2424348" lon="12.1341163"><ele>559.0</ele><time>2026-03-29T10:34:10.454Z</time></trkpt><trkpt lat="43.2423388" lon="12.13408"><ele>559.0</ele><time>2026-03-29T10:34:11.453Z</time></trkpt><trkpt lat="43.242263" lon="12.1340573"><ele>559.0</ele><time>2026-03-29T10:34:12.454Z</time></trkpt><trkpt lat="43.2421924" lon="12.1340231"><ele>559.0</ele><time>2026-03-29T10:34:13.453Z</time></trkpt><trkpt lat="43.2421081" lon="12.1339802"><ele>559.0</ele><time>2026-03-29T10:34:14.453Z</time></trkpt><trkpt lat="43.2420256" lon="12.1339375"><ele>562.2</ele><time>2026-03-29T10:34:15.454Z</time></trkpt><trkpt lat="43.2419491" lon="12.1338962"><ele>565.4</ele><time>2026-03-29T10:34:16.454Z</time></trkpt><trkpt lat="43.241854" lon="12.1338494"><ele>568.6</ele><time>2026-03-29T10:34:18.454Z</time></trkpt><trkpt lat="43.2417366" lon="12.133815"><ele>571.8</ele><time>2026-03-29T10:34:20.453Z</time></trkpt><trkpt lat="43.2416454" lon="12.1337664"><ele>575.0</ele><time>2026-03-29T10:34:21.454Z</time></trkpt><trkpt lat="43.2415666" lon="12.1337344"><ele>575.0</ele><time>2026-03-29T10:34:22.453Z</time></trkpt><trkpt lat="43.2414915" lon="12.1336949"><ele>575.0</ele><time>2026-03-29T10:34:23.454Z</time></trkpt><trkpt lat="43.2414173" lon="12.1336801"><ele>575.0</ele><time>2026-03-29T10:34:24.453Z</time></trkpt><trkpt lat="43.2413386" lon="12.1336478"><ele>575.0</ele><time>2026-03-29T10:34:25.453Z</time></trkpt><trkpt lat="43.2412706" lon="12.1336424"><ele>575.0</ele><time>2026-03-29T10:34:26.454Z</time></trkpt><trkpt lat="43.2411982" lon="12.1336285"><ele>575.0</ele><time>2026-03-29T10:34:27.453Z</time></trkpt><trkpt lat="43.241079" lon="12.1336351"><ele>580.4</ele><time>2026-03-29T10:34:29.454Z</time></trkpt><trkpt lat="43.2409742" lon="12.1336741"><ele>585.8</ele><time>2026-03-29T10:34:31.454Z</time></trkpt><trkpt lat="43.2408717" lon="12.1336593"><ele>591.2</ele><time>2026-03-29T10:34:33.453Z</time></trkpt><trkpt lat="43.2407693" lon="12.1336127"><ele>596.6</ele><time>2026-03-29T10:34:35.453Z</time></trkpt><trkpt lat="43.2406738" lon="12.1335838"><ele>602.0</ele><time>2026-03-29T10:34:37.454Z</time></trkpt><trkpt lat="43.240579" lon="12.1335683"><ele>607.2</ele><time>2026-03-29T10:34:39.454Z</time></trkpt><trkpt lat="43.2405094" lon="12.1335348"><ele>612.4000000000001</ele><time>2026-03-29T10:34:40.454Z</time></trkpt><trkpt lat="43.2403864" lon="12.1334885"><ele>617.5999999999999</ele><time>2026-03-29T10:34:42.453Z</time></trkpt><trkpt lat="43.2403051" lon="12.1334642"><ele>622.8</ele><time>2026-03-29T10:34:43.453Z</time></trkpt><trkpt lat="43.2402304" lon="12.1334328"><ele>628.0</ele><time>2026-03-29T10:34:44.453Z</time></trkpt><trkpt lat="43.2401343" lon="12.1334115"><ele>628.0</ele><time>2026-03-29T10:34:46.454Z</time></trkpt><trkpt lat="43.2400108" lon="12.1333677"><ele>628.0</ele><time>2026-03-29T10:34:48.454Z</time></trkpt><trkpt lat="43.239926" lon="12.1332512"><ele>628.0</ele><time>2026-03-29T10:34:49.454Z</time></trkpt><trkpt lat="43.2398615" lon="12.1332374"><ele>628.0</ele><time>2026-03-29T10:34:53.454Z</time></trkpt><trkpt lat="43.2397941" lon="12.1332124"><ele>628.0</ele><time>2026-03-29T10:34:55.453Z</time></trkpt><trkpt lat="43.239699" lon="12.1331965"><ele>632.5999999999999</ele><time>2026-03-29T10:34:57.453Z</time></trkpt><trkpt lat="43.2396124" lon="12.1331531"><ele>637.1999999999999</ele><time>2026-03-29T10:35:00.454Z</time></trkpt><trkpt lat="43.2395222" lon="12.1330957"><ele>641.8</ele><time>2026-03-29T10:35:02.454Z</time></trkpt><trkpt lat="43.2394545" lon="12.1330778"><ele>646.4</ele><time>2026-03-29T10:35:04.454Z</time></trkpt><trkpt lat="43.2393522" lon="12.133124"><ele>651.0</ele><time>2026-03-29T10:35:06.453Z</time></trkpt><trkpt lat="43.2392526" lon="12.1331419"><ele>651.0</ele><time>2026-03-29T10:35:08.453Z</time></trkpt><trkpt lat="43.2391793" lon="12.1331355"><ele>651.0</ele><time>2026-03-29T10:35:09.454Z</time></trkpt><trkpt lat="43.2390768" lon="12.133115"><ele>651.0</ele><time>2026-03-29T10:35:10.453Z</time></trkpt><trkpt lat="43.2390134" lon="12.1330931"><ele>651.0</ele><time>2026-03-29T10:35:11.454Z</time></trkpt><trkpt lat="43.238954" lon="12.1330428"><ele>651.0</ele><time>2026-03-29T10:35:12.453Z</time></trkpt><trkpt lat="43.2389081" lon="12.1328831"><ele>651.0</ele><time>2026-03-29T10:35:14.454Z</time></trkpt><trkpt lat="43.2388875" lon="12.1327631"><ele>656.0</ele><time>2026-03-29T10:35:15.454Z</time></trkpt><trkpt lat="43.2388535" lon="12.1326102"><ele>656.0</ele><time>2026-03-29T10:35:17.454Z</time></trkpt><trkpt lat="43.2387926" lon="12.1325627"><ele>656.0</ele><time>2026-03-29T10:35:40.454Z</time></trkpt><trkpt lat="43.2387129" lon="12.1325703"><ele>656.0</ele><time>2026-03-29T10:36:12.454Z</time></trkpt><trkpt lat="43.2387832" lon="12.1325918"><ele>656.0</ele><time>2026-03-29T10:36:27.454Z</time></trkpt><trkpt lat="43.2388531" lon="12.1326066"><ele>656.0</ele><time>2026-03-29T10:37:35.454Z</time></trkpt></trkseg><trkseg><trkpt lat="43.2221499" lon="12.1625547"><ele>585.0</ele><time>2026-03-29T11:30:09.452Z</time></trkpt><trkpt lat="43.2220827" lon="12.162614"><ele>585.0</ele><time>2026-03-29T11:30:11.452Z</time></trkpt><trkpt lat="43.2220063" lon="12.1626613"><ele>585.0</ele><time>2026-03-29T11:30:12.451Z</time></trkpt><trkpt lat="43.2219351" lon="12.1626959"><ele>585.0</ele><time>2026-03-29T11:30:13.451Z</time></trkpt><trkpt lat="43.2218445" lon="12.1627182"><ele>585.0</ele><time>2026-03-29T11:30:14.452Z</time></trkpt><trkpt lat="43.2217453" lon="12.1627253"><ele>585.0</ele><time>2026-03-29T11:30:15.452Z</time></trkpt><trkpt lat="43.2216464" lon="12.1627408"><ele>585.0</ele><time>2026-03-29T11:30:16.451Z</time></trkpt><trkpt lat="43.2215446" lon="12.1627768"><ele>585.0</ele><time>2026-03-29T11:30:17.451Z</time></trkpt><trkpt lat="43.2214506" lon="12.162811"><ele>585.0</ele><time>2026-03-29T11:30:18.452Z</time></trkpt><trkpt lat="43.2213594" lon="12.1628395"><ele>585.0</ele><time>2026-03-29T11:30:19.451Z</time></trkpt><trkpt lat="43.2212609" lon="12.1628773"><ele>585.0</ele><time>2026-03-29T11:30:20.451Z</time></trkpt><trkpt lat="43.2211554" lon="12.1629071"><ele>584.0</ele><time>2026-03-29T11:30:21.452Z</time></trkpt><trkpt lat="43.2210438" lon="12.1629332"><ele>583.0</ele><time>2026-03-29T11:30:22.452Z</time></trkpt><trkpt lat="43.2209508" lon="12.1629742"><ele>582.0</ele><time>2026-03-29T11:30:23.452Z</time></trkpt><trkpt lat="43.2208703" lon="12.1630435"><ele>581.0</ele><time>2026-03-29T11:30:24.452Z</time></trkpt><trkpt lat="43.2208064" lon="12.1631242"><ele>580.0</ele><time>2026-03-29T11:30:25.452Z</time></trkpt><trkpt lat="43.2207722" lon="12.1632031"><ele>580.0</ele><time>2026-03-29T11:30:26.452Z</time></trkpt><trkpt lat="43.2207471" lon="12.1633129"><ele>580.0</ele><time>2026-03-29T11:30:27.452Z</time></trkpt><trkpt lat="43.2207199" lon="12.1634105"><ele>580.0</ele><time>2026-03-29T11:30:28.452Z</time></trkpt><trkpt lat="43.2207113" lon="12.163513"><ele>580.0</ele><time>2026-03-29T11:30:29.452Z</time></trkpt><trkpt lat="43.2207231" lon="12.1636291"><ele>580.0</ele><time>2026-03-29T11:30:30.451Z</time></trkpt><trkpt lat="43.2207392" lon="12.1637274"><ele>580.0</ele><time>2026-03-29T11:30:31.451Z</time></trkpt><trkpt lat="43.220762" lon="12.163832"><ele>580.0</ele><time>2026-03-29T11:30:32.452Z</time></trkpt><trkpt lat="43.220805" lon="12.163938"><ele>580.0</ele><time>2026-03-29T11:30:33.45Z</time></trkpt><trkpt lat="43.220866" lon="12.1640307"><ele>580.0</ele><time>2026-03-29T11:30:34.451Z</time></trkpt><trkpt lat="43.2209341" lon="12.1641192"><ele>580.0</ele><time>2026-03-29T11:30:35.452Z</time></trkpt><trkpt lat="43.2210062" lon="12.1641995"><ele>580.0</ele><time>2026-03-29T11:30:36.451Z</time></trkpt><trkpt lat="43.2210727" lon="12.1642748"><ele>578.6666666666667</ele><time>2026-03-29T11:30:37.451Z</time></trkpt><trkpt lat="43.2211301" lon="12.1643534"><ele>577.3333333333334</ele><time>2026-03-29T11:30:38.452Z</time></trkpt><trkpt lat="43.2211792" lon="12.1644283"><ele>576.0</ele><time>2026-03-29T11:30:39.451Z</time></trkpt><trkpt lat="43.2212193" lon="12.1645059"><ele>574.6666666666666</ele><time>2026-03-29T11:30:40.452Z</time></trkpt><trkpt lat="43.2212677" lon="12.1645745"><ele>573.3333333333333</ele><time>2026-03-29T11:30:41.452Z</time></trkpt><trkpt lat="43.2213592" lon="12.16471"><ele>572.0</ele><time>2026-03-29T11:30:43.451Z</time></trkpt><trkpt lat="43.2214389" lon="12.1648287"><ele>568.6666666666666</ele><time>2026-03-29T11:30:45.452Z</time></trkpt><trkpt lat="43.2214767" lon="12.1649182"><ele>565.3333333333333</ele><time>2026-03-29T11:30:47.452Z</time></trkpt><trkpt lat="43.2214154" lon="12.164986"><ele>562.0</ele><time>2026-03-29T11:30:49.452Z</time></trkpt><trkpt lat="43.2213521" lon="12.1649792"><ele>558.6666666666666</ele><time>2026-03-29T11:30:50.451Z</time></trkpt><trkpt lat="43.2212696" lon="12.1649658"><ele>555.3333333333334</ele><time>2026-03-29T11:30:52.451Z</time></trkpt><trkpt lat="43.2212224" lon="12.1650608"><ele>552.0</ele><time>2026-03-29T11:30:54.451Z</time></trkpt><trkpt lat="43.221267" lon="12.1651491"><ele>552.0</ele><time>2026-03-29T11:30:56.452Z</time></trkpt><trkpt lat="43.2213191" lon="12.1652012"><ele>552.0</ele><time>2026-03-29T11:30:57.452Z</time></trkpt><trkpt lat="43.2213853" lon="12.165238"><ele>552.0</ele><time>2026-03-29T11:30:58.451Z</time></trkpt><trkpt lat="43.2214418" lon="12.1652763"><ele>552.0</ele><time>2026-03-29T11:30:59.452Z</time></trkpt><trkpt lat="43.2214636" lon="12.1654074"><ele>552.0</ele><time>2026-03-29T11:31:01.451Z</time></trkpt><trkpt lat="43.2214025" lon="12.1655119"><ele>552.0</ele><time>2026-03-29T11:31:03.452Z</time></trkpt><trkpt lat="43.2212993" lon="12.1656301"><ele>552.0</ele><time>2026-03-29T11:31:05.451Z</time></trkpt><trkpt lat="43.2211876" lon="12.165671"><ele>552.0</ele><time>2026-03-29T11:31:07.451Z</time></trkpt><trkpt lat="43.2210939" lon="12.1657181"><ele>552.0</ele><time>2026-03-29T11:31:09.451Z</time></trkpt><trkpt lat="43.2210272" lon="12.1657596"><ele>552.0</ele><time>2026-03-29T11:31:11.451Z</time></trkpt><trkpt lat="43.221039" lon="12.1659013"><ele>552.0</ele><time>2026-03-29T11:31:14.451Z</time></trkpt><trkpt lat="43.2210188" lon="12.1660258"><ele>549.2</ele><time>2026-03-29T11:31:16.452Z</time></trkpt><trkpt lat="43.2209733" lon="12.1661871"><ele>546.4000000000001</ele><time>2026-03-29T11:31:18.452Z</time></trkpt><trkpt lat="43.2209537" lon="12.1662824"><ele>543.5999999999999</ele><time>2026-03-29T11:31:19.451Z</time></trkpt><trkpt lat="43.2209479" lon="12.1664546"><ele>540.8</ele><time>2026-03-29T11:31:21.451Z</time></trkpt><trkpt lat="43.2209451" lon="12.1665483"><ele>538.0</ele><time>2026-03-29T11:31:22.451Z</time></trkpt><trkpt lat="43.2209359" lon="12.1666377"><ele>535.1999999999999</ele><time>2026-03-29T11:31:23.451Z</time></trkpt><trkpt lat="43.2209812" lon="12.1667747"><ele>532.4</ele><time>2026-03-29T11:31:25.452Z</time></trkpt><trkpt lat="43.2210557" lon="12.1668689"><ele>529.5999999999999</ele><time>2026-03-29T11:31:27.452Z</time></trkpt><trkpt lat="43.2210985" lon="12.1670074"><ele>526.8</ele><time>2026-03-29T11:31:29.451Z</time></trkpt><trkpt lat="43.2211083" lon="12.1671385"><ele>524.0</ele><time>2026-03-29T11:31:31.452Z</time></trkpt><trkpt lat="43.221072" lon="12.1672807"><ele>524.0</ele><time>2026-03-29T11:31:33.451Z</time></trkpt><trkpt lat="43.2210222" lon="12.167341"><ele>524.0</ele><time>2026-03-29T11:31:34.452Z</time></trkpt><trkpt lat="43.2209804" lon="12.1674065"><ele>524.0</ele><time>2026-03-29T11:31:36.451Z</time></trkpt><trkpt lat="43.220991" lon="12.1675031"><ele>524.0</ele><time>2026-03-29T11:31:38.451Z</time></trkpt><trkpt lat="43.2210128" lon="12.167586"><ele>524.0</ele><time>2026-03-29T11:31:40.452Z</time></trkpt><trkpt lat="43.2210465" lon="12.1677152"><ele>524.0</ele><time>2026-03-29T11:31:42.451Z</time></trkpt><trkpt lat="43.2210383" lon="12.1678497"><ele>521.5</ele><time>2026-03-29T11:31:44.451Z</time></trkpt><trkpt lat="43.2209796" lon="12.1679425"><ele>519.0</ele><time>2026-03-29T11:31:46.451Z</time></trkpt><trkpt lat="43.2208927" lon="12.1680109"><ele>516.5</ele><time>2026-03-29T11:31:48.451Z</time></trkpt><trkpt lat="43.2208075" lon="12.1680526"><ele>514.0</ele><time>2026-03-29T11:31:50.452Z</time></trkpt><trkpt lat="43.2207465" lon="12.1680818"><ele>511.49999999999994</ele><time>2026-03-29T11:31:52.451Z</time></trkpt><trkpt lat="43.2206715" lon="12.1681302"><ele>509.0</ele><time>2026-03-29T11:31:56.451Z</time></trkpt><trkpt lat="43.220621" lon="12.1681913"><ele>504.66666666666663</ele><time>2026-03-29T11:31:59.451Z</time></trkpt><trkpt lat="43.2206049" lon="12.168281"><ele>500.3333333333333</ele><time>2026-03-29T11:32:01.451Z</time></trkpt><trkpt lat="43.2206048" lon="12.1683831"><ele>496.0</ele><time>2026-03-29T11:32:03.451Z</time></trkpt><trkpt lat="43.2206128" lon="12.1685014"><ele>491.66666666666663</ele><time>2026-03-29T11:32:05.45Z</time></trkpt><trkpt lat="43.220626" lon="12.1685874"><ele>487.3333333333333</ele><time>2026-03-29T11:32:07.451Z</time></trkpt><trkpt lat="43.2206316" lon="12.1686867"><ele>483.0</ele><time>2026-03-29T11:32:09.451Z</time></trkpt><trkpt lat="43.2205688" lon="12.1687692"><ele>483.0</ele><time>2026-03-29T11:32:10.452Z</time></trkpt><trkpt lat="43.2204608" lon="12.1688477"><ele>483.0</ele><time>2026-03-29T11:32:12.452Z</time></trkpt><trkpt lat="43.2203782" lon="12.1689101"><ele>483.0</ele><time>2026-03-29T11:32:13.451Z</time></trkpt><trkpt lat="43.2202501" lon="12.1690033"><ele>483.0</ele><time>2026-03-29T11:32:15.45Z</time></trkpt><trkpt lat="43.2201497" lon="12.1690723"><ele>480.79999999999995</ele><time>2026-03-29T11:32:17.451Z</time></trkpt><trkpt lat="43.2200739" lon="12.1691483"><ele>478.59999999999997</ele><time>2026-03-29T11:32:19.452Z</time></trkpt><trkpt lat="43.2200244" lon="12.1692445"><ele>476.40000000000003</ele><time>2026-03-29T11:32:21.451Z</time></trkpt><trkpt lat="43.2199425" lon="12.1693722"><ele>474.20000000000005</ele><time>2026-03-29T11:32:23.451Z</time></trkpt><trkpt lat="43.2198528" lon="12.1694374"><ele>472.0</ele><time>2026-03-29T11:32:25.451Z</time></trkpt><trkpt lat="43.2197759" lon="12.1694925"><ele>469.6666666666667</ele><time>2026-03-29T11:32:27.452Z</time></trkpt><trkpt lat="43.2196861" lon="12.169536"><ele>467.33333333333337</ele><time>2026-03-29T11:32:29.451Z</time></trkpt><trkpt lat="43.2196012" lon="12.1695641"><ele>465.0</ele><time>2026-03-29T11:32:32.452Z</time></trkpt><trkpt lat="43.2195085" lon="12.1695802"><ele>462.66666666666663</ele><time>2026-03-29T11:32:34.451Z</time></trkpt><trkpt lat="43.2194349" lon="12.1695583"><ele>460.3333333333333</ele><time>2026-03-29T11:32:36.451Z</time></trkpt><trkpt lat="43.2193574" lon="12.1696245"><ele>458.0</ele><time>2026-03-29T11:32:39.452Z</time></trkpt><trkpt lat="43.2193467" lon="12.1697595"><ele>457.4</ele><time>2026-03-29T11:32:41.451Z</time></trkpt><trkpt lat="43.2192517" lon="12.1698717"><ele>456.79999999999995</ele><time>2026-03-29T11:32:43.452Z</time></trkpt><trkpt lat="43.2191776" lon="12.1699116"><ele>456.2</ele><time>2026-03-29T11:32:44.453Z</time></trkpt><trkpt lat="43.2191133" lon="12.1699518"><ele>455.6</ele><time>2026-03-29T11:32:45.452Z</time></trkpt><trkpt lat="43.2190402" lon="12.1700684"><ele>455.0</ele><time>2026-03-29T11:32:47.451Z</time></trkpt><trkpt lat="43.2189869" lon="12.1702215"><ele>454.99999999999994</ele><time>2026-03-29T11:32:49.452Z</time></trkpt><trkpt lat="43.218952" lon="12.1703341"><ele>455.0</ele><time>2026-03-29T11:32:51.452Z</time></trkpt><trkpt lat="43.2189672" lon="12.1704366"><ele>455.0</ele><time>2026-03-29T11:32:54.452Z</time></trkpt><trkpt lat="43.2190289" lon="12.1704651"><ele>455.0</ele><time>2026-03-29T11:32:56.452Z</time></trkpt><trkpt lat="43.2190974" lon="12.1703918"><ele>454.99999999999994</ele><time>2026-03-29T11:32:58.452Z</time></trkpt><trkpt lat="43.2192043" lon="12.1702897"><ele>455.0</ele><time>2026-03-29T11:33:00.451Z</time></trkpt><trkpt lat="43.2192867" lon="12.1702529"><ele>454.99999999999994</ele><time>2026-03-29T11:33:02.452Z</time></trkpt><trkpt lat="43.2194113" lon="12.1702614"><ele>455.0</ele><time>2026-03-29T11:33:04.452Z</time></trkpt><trkpt lat="43.2194875" lon="12.1703108"><ele>455.0</ele><time>2026-03-29T11:33:05.451Z</time></trkpt><trkpt lat="43.2195555" lon="12.1703747"><ele>455.0</ele><time>2026-03-29T11:33:06.452Z</time></trkpt><trkpt lat="43.2196133" lon="12.1704099"><ele>454.99999999999994</ele><time>2026-03-29T11:33:07.452Z</time></trkpt><trkpt lat="43.2196727" lon="12.1704501"><ele>455.0</ele><time>2026-03-29T11:33:08.451Z</time></trkpt><trkpt lat="43.2197409" lon="12.1704551"><ele>454.99999999999994</ele><time>2026-03-29T11:33:09.452Z</time></trkpt><trkpt lat="43.2198094" lon="12.1704533"><ele>455.0</ele><time>2026-03-29T11:33:10.452Z</time></trkpt><trkpt lat="43.2198936" lon="12.1704748"><ele>455.0</ele><time>2026-03-29T11:33:11.451Z</time></trkpt><trkpt lat="43.2199712" lon="12.1704163"><ele>455.0</ele><time>2026-03-29T11:33:13.452Z</time></trkpt><trkpt lat="43.2200385" lon="12.1703846"><ele>454.99999999999994</ele><time>2026-03-29T11:33:14.452Z</time></trkpt><trkpt lat="43.2201401" lon="12.1703958"><ele>455.0</ele><time>2026-03-29T11:33:16.451Z</time></trkpt><trkpt lat="43.2202572" lon="12.1704014"><ele>456.0</ele><time>2026-03-29T11:33:18.451Z</time></trkpt><trkpt lat="43.2203326" lon="12.1703224"><ele>457.0</ele><time>2026-03-29T11:33:19.451Z</time></trkpt><trkpt lat="43.2204176" lon="12.1702511"><ele>458.0</ele><time>2026-03-29T11:33:20.452Z</time></trkpt><trkpt lat="43.2204803" lon="12.1702092"><ele>459.0</ele><time>2026-03-29T11:33:21.451Z</time></trkpt><trkpt lat="43.2205626" lon="12.1700838"><ele>460.0</ele><time>2026-03-29T11:33:23.451Z</time></trkpt><trkpt lat="43.2206838" lon="12.1699663"><ele>457.4</ele><time>2026-03-29T11:33:25.451Z</time></trkpt><trkpt lat="43.2207887" lon="12.1699317"><ele>454.8</ele><time>2026-03-29T11:33:27.451Z</time></trkpt><trkpt lat="43.2209086" lon="12.1698753"><ele>452.20000000000005</ele><time>2026-03-29T11:33:29.452Z</time></trkpt><trkpt lat="43.2209893" lon="12.1698757"><ele>449.6</ele><time>2026-03-29T11:33:30.451Z</time></trkpt><trkpt lat="43.221084" lon="12.1698626"><ele>447.0</ele><time>2026-03-29T11:33:31.451Z</time></trkpt><trkpt lat="43.221172" lon="12.1698163"><ele>448.6</ele><time>2026-03-29T11:33:32.452Z</time></trkpt><trkpt lat="43.2212556" lon="12.1697555"><ele>450.20000000000005</ele><time>2026-03-29T11:33:33.452Z</time></trkpt><trkpt lat="43.2213365" lon="12.169686"><ele>451.8</ele><time>2026-03-29T11:33:34.451Z</time></trkpt><trkpt lat="43.2214123" lon="12.1696002"><ele>453.4</ele><time>2026-03-29T11:33:35.452Z</time></trkpt><trkpt lat="43.2214399" lon="12.1694551"><ele>455.0</ele><time>2026-03-29T11:33:37.451Z</time></trkpt><trkpt lat="43.2215084" lon="12.1692981"><ele>454.99999999999994</ele><time>2026-03-29T11:33:39.451Z</time></trkpt><trkpt lat="43.2215395" lon="12.1692117"><ele>455.0</ele><time>2026-03-29T11:33:40.452Z</time></trkpt><trkpt lat="43.2215779" lon="12.1691229"><ele>455.0</ele><time>2026-03-29T11:33:41.451Z</time></trkpt><trkpt lat="43.2215967" lon="12.1690198"><ele>455.0</ele><time>2026-03-29T11:33:42.452Z</time></trkpt><trkpt lat="43.2216387" lon="12.1689315"><ele>454.99999999999994</ele><time>2026-03-29T11:33:43.451Z</time></trkpt><trkpt lat="43.2216817" lon="12.1688224"><ele>455.0</ele><time>2026-03-29T11:33:44.452Z</time></trkpt><trkpt lat="43.2217381" lon="12.1687611"><ele>458.16666666666663</ele><time>2026-03-29T11:33:45.451Z</time></trkpt><trkpt lat="43.2217872" lon="12.168664"><ele>461.3333333333333</ele><time>2026-03-29T11:33:47.452Z</time></trkpt><trkpt lat="43.2218728" lon="12.168606"><ele>464.5</ele><time>2026-03-29T11:33:49.451Z</time></trkpt><trkpt lat="43.2219527" lon="12.1686206"><ele>467.66666666666663</ele><time>2026-03-29T11:33:51.451Z</time></trkpt><trkpt lat="43.2219879" lon="12.1687222"><ele>470.8333333333333</ele><time>2026-03-29T11:33:53.45Z</time></trkpt><trkpt lat="43.2220299" lon="12.1688355"><ele>474.0</ele><time>2026-03-29T11:33:55.452Z</time></trkpt><trkpt lat="43.2220731" lon="12.168915"><ele>474.0</ele><time>2026-03-29T11:33:56.451Z</time></trkpt><trkpt lat="43.2221173" lon="12.1689786"><ele>474.0</ele><time>2026-03-29T11:33:57.451Z</time></trkpt><trkpt lat="43.2221534" lon="12.1690603"><ele>474.0</ele><time>2026-03-29T11:33:59.452Z</time></trkpt><trkpt lat="43.2221492" lon="12.1691861"><ele>474.0</ele><time>2026-03-29T11:34:01.451Z</time></trkpt><trkpt lat="43.2221239" lon="12.16931"><ele>474.0</ele><time>2026-03-29T11:34:03.452Z</time></trkpt><trkpt lat="43.2222116" lon="12.1693408"><ele>474.0</ele><time>2026-03-29T11:34:06.451Z</time></trkpt><trkpt lat="43.2222885" lon="12.1693594"><ele>470.2</ele><time>2026-03-29T11:34:09.452Z</time></trkpt><trkpt lat="43.2222824" lon="12.16945"><ele>466.4</ele><time>2026-03-29T11:34:11.451Z</time></trkpt><trkpt lat="43.2222391" lon="12.169549"><ele>462.6</ele><time>2026-03-29T11:34:13.451Z</time></trkpt><trkpt lat="43.2222042" lon="12.1697196"><ele>458.8</ele><time>2026-03-29T11:34:15.451Z</time></trkpt><trkpt lat="43.222192" lon="12.1698527"><ele>455.0</ele><time>2026-03-29T11:34:16.452Z</time></trkpt><trkpt lat="43.2221545" lon="12.1699591"><ele>452.3333333333333</ele><time>2026-03-29T11:34:17.451Z</time></trkpt><trkpt lat="43.2221377" lon="12.1700429"><ele>449.66666666666663</ele><time>2026-03-29T11:34:18.452Z</time></trkpt><trkpt lat="43.2221308" lon="12.1701443"><ele>447.0</ele><time>2026-03-29T11:34:19.452Z</time></trkpt><trkpt lat="43.2221471" lon="12.1702383"><ele>444.33333333333337</ele><time>2026-03-29T11:34:20.452Z</time></trkpt><trkpt lat="43.2221908" lon="12.1703875"><ele>441.6666666666667</ele><time>2026-03-29T11:34:22.451Z</time></trkpt><trkpt lat="43.2222405" lon="12.1704892"><ele>439.0</ele><time>2026-03-29T11:34:24.451Z</time></trkpt><trkpt lat="43.2223242" lon="12.1705568"><ele>439.0</ele><time>2026-03-29T11:34:26.452Z</time></trkpt><trkpt lat="43.2223703" lon="12.1706793"><ele>439.0</ele><time>2026-03-29T11:34:28.452Z</time></trkpt><trkpt lat="43.2224073" lon="12.1708313"><ele>439.0</ele><time>2026-03-29T11:34:30.452Z</time></trkpt><trkpt lat="43.2224882" lon="12.1709157"><ele>439.0</ele><time>2026-03-29T11:34:32.452Z</time></trkpt><trkpt lat="43.2225383" lon="12.171034"><ele>439.0</ele><time>2026-03-29T11:34:34.451Z</time></trkpt><trkpt lat="43.2225532" lon="12.1711303"><ele>436.6</ele><time>2026-03-29T11:34:35.452Z</time></trkpt><trkpt lat="43.2225752" lon="12.1712306"><ele>434.2</ele><time>2026-03-29T11:34:36.452Z</time></trkpt><trkpt lat="43.22262" lon="12.1713638"><ele>431.80000000000007</ele><time>2026-03-29T11:34:37.452Z</time></trkpt><trkpt lat="43.2226453" lon="12.1714733"><ele>429.40000000000003</ele><time>2026-03-29T11:34:38.452Z</time></trkpt><trkpt lat="43.2226795" lon="12.1716087"><ele>427.0</ele><time>2026-03-29T11:34:39.452Z</time></trkpt><trkpt lat="43.2226916" lon="12.1717606"><ele>426.6</ele><time>2026-03-29T11:34:40.451Z</time></trkpt><trkpt lat="43.222646" lon="12.1718723"><ele>426.20000000000005</ele><time>2026-03-29T11:34:41.452Z</time></trkpt><trkpt lat="43.2226028" lon="12.1720199"><ele>425.8</ele><time>2026-03-29T11:34:42.451Z</time></trkpt><trkpt lat="43.22256" lon="12.1721815"><ele>425.4</ele><time>2026-03-29T11:34:43.452Z</time></trkpt><trkpt lat="43.2225165" lon="12.1723216"><ele>425.0</ele><time>2026-03-29T11:34:44.451Z</time></trkpt><trkpt lat="43.2225043" lon="12.1724441"><ele>425.0</ele><time>2026-03-29T11:34:45.451Z</time></trkpt><trkpt lat="43.2224595" lon="12.1726571"><ele>425.0</ele><time>2026-03-29T11:34:46.452Z</time></trkpt><trkpt lat="43.2223902" lon="12.172802"><ele>425.0</ele><time>2026-03-29T11:34:47.452Z</time></trkpt><trkpt lat="43.2223467" lon="12.1729692"><ele>425.0</ele><time>2026-03-29T11:34:48.452Z</time></trkpt><trkpt lat="43.2222844" lon="12.173089"><ele>421.0</ele><time>2026-03-29T11:34:49.452Z</time></trkpt><trkpt lat="43.2222256" lon="12.1732246"><ele>417.0</ele><time>2026-03-29T11:34:50.451Z</time></trkpt><trkpt lat="43.2221579" lon="12.1733381"><ele>413.0</ele><time>2026-03-29T11:34:51.451Z</time></trkpt><trkpt lat="43.2220305" lon="12.1732725"><ele>409.0</ele><time>2026-03-29T11:34:52.452Z</time></trkpt><trkpt lat="43.221952" lon="12.1733377"><ele>409.0</ele><time>2026-03-29T11:34:53.452Z</time></trkpt><trkpt lat="43.2218661" lon="12.1733483"><ele>409.0</ele><time>2026-03-29T11:34:54.451Z</time></trkpt><trkpt lat="43.2218294" lon="12.1735283"><ele>409.0</ele><time>2026-03-29T11:34:56.451Z</time></trkpt><trkpt lat="43.2218032" lon="12.1736268"><ele>409.0</ele><time>2026-03-29T11:34:57.451Z</time></trkpt><trkpt lat="43.2218365" lon="12.1737666"><ele>409.0</ele><time>2026-03-29T11:34:58.452Z</time></trkpt><trkpt lat="43.2218557" lon="12.174018"><ele>407.75</ele><time>2026-03-29T11:34:59.451Z</time></trkpt><trkpt lat="43.2218902" lon="12.1741854"><ele>406.5</ele><time>2026-03-29T11:35:00.451Z</time></trkpt><trkpt lat="43.2219089" lon="12.1743761"><ele>405.25</ele><time>2026-03-29T11:35:01.452Z</time></trkpt><trkpt lat="43.2219519" lon="12.1745653"><ele>404.0</ele><time>2026-03-29T11:35:02.452Z</time></trkpt><trkpt lat="43.2219716" lon="12.1747006"><ele>404.0</ele><time>2026-03-29T11:35:03.452Z</time></trkpt><trkpt lat="43.2220757" lon="12.1747392"><ele>404.0</ele><time>2026-03-29T11:35:04.452Z</time></trkpt><trkpt lat="43.222144" lon="12.1748382"><ele>404.0</ele><time>2026-03-29T11:35:05.452Z</time></trkpt><trkpt lat="43.2222168" lon="12.1748851"><ele>404.0</ele><time>2026-03-29T11:35:06.451Z</time></trkpt><trkpt lat="43.2223031" lon="12.1748996"><ele>404.0</ele><time>2026-03-29T11:35:07.451Z</time></trkpt><trkpt lat="43.2224083" lon="12.174913"><ele>404.75</ele><time>2026-03-29T11:35:08.451Z</time></trkpt><trkpt lat="43.2225185" lon="12.1749079"><ele>405.5</ele><time>2026-03-29T11:35:09.452Z</time></trkpt><trkpt lat="43.2226384" lon="12.1749033"><ele>406.25</ele><time>2026-03-29T11:35:10.452Z</time></trkpt><trkpt lat="43.2227964" lon="12.1749196"><ele>407.0</ele><time>2026-03-29T11:35:11.452Z</time></trkpt><trkpt lat="43.2229177" lon="12.1749415"><ele>407.0</ele><time>2026-03-29T11:35:12.452Z</time></trkpt><trkpt lat="43.22302" lon="12.1749694"><ele>407.0</ele><time>2026-03-29T11:35:13.451Z</time></trkpt><trkpt lat="43.2231166" lon="12.1749956"><ele>407.0</ele><time>2026-03-29T11:35:14.451Z</time></trkpt><trkpt lat="43.2232188" lon="12.1750235"><ele>407.0</ele><time>2026-03-29T11:35:15.452Z</time></trkpt><trkpt lat="43.2233139" lon="12.1750551"><ele>407.0</ele><time>2026-03-29T11:35:16.452Z</time></trkpt><trkpt lat="43.2233304" lon="12.1751556"><ele>407.0</ele><time>2026-03-29T11:35:17.452Z</time></trkpt><trkpt lat="43.2233495" lon="12.1752447"><ele>407.0</ele><time>2026-03-29T11:35:18.452Z</time></trkpt><trkpt lat="43.2233558" lon="12.175419"><ele>407.0</ele><time>2026-03-29T11:35:20.451Z</time></trkpt><trkpt lat="43.2231837" lon="12.1754657"><ele>407.0</ele><time>2026-03-29T11:35:22.451Z</time></trkpt><trkpt lat="43.2230873" lon="12.1754745"><ele>407.0</ele><time>2026-03-29T11:35:23.452Z</time></trkpt><trkpt lat="43.2229773" lon="12.1755512"><ele>407.0</ele><time>2026-03-29T11:35:24.451Z</time></trkpt><trkpt lat="43.2228833" lon="12.1756269"><ele>407.0</ele><time>2026-03-29T11:35:25.451Z</time></trkpt><trkpt lat="43.2227974" lon="12.1756942"><ele>407.0</ele><time>2026-03-29T11:35:26.452Z</time></trkpt><trkpt lat="43.2227031" lon="12.1757295"><ele>407.0</ele><time>2026-03-29T11:35:27.452Z</time></trkpt><trkpt lat="43.2225998" lon="12.1757734"><ele>405.40000000000003</ele><time>2026-03-29T11:35:28.452Z</time></trkpt><trkpt lat="43.2225143" lon="12.1758242"><ele>403.8</ele><time>2026-03-29T11:35:29.451Z</time></trkpt><trkpt lat="43.2224421" lon="12.1759061"><ele>402.2</ele><time>2026-03-29T11:35:30.451Z</time></trkpt><trkpt lat="43.2223718" lon="12.1759987"><ele>400.6</ele><time>2026-03-29T11:35:31.452Z</time></trkpt><trkpt lat="43.2223096" lon="12.1760949"><ele>399.0</ele><time>2026-03-29T11:35:32.451Z</time></trkpt><trkpt lat="43.2222407" lon="12.1761868"><ele>397.0</ele><time>2026-03-29T11:35:33.451Z</time></trkpt><trkpt lat="43.2221774" lon="12.1762761"><ele>395.0</ele><time>2026-03-29T11:35:34.451Z</time></trkpt><trkpt lat="43.2221178" lon="12.1763701"><ele>393.0</ele><time>2026-03-29T11:35:35.452Z</time></trkpt><trkpt lat="43.2220606" lon="12.1764611"><ele>391.0</ele><time>2026-03-29T11:35:36.451Z</time></trkpt><trkpt lat="43.2219999" lon="12.1765352"><ele>389.0</ele><time>2026-03-29T11:35:37.451Z</time></trkpt><trkpt lat="43.2219349" lon="12.1766062"><ele>387.0</ele><time>2026-03-29T11:35:38.45Z</time></trkpt><trkpt lat="43.221864" lon="12.1766121"><ele>387.0</ele><time>2026-03-29T11:35:39.451Z</time></trkpt><trkpt lat="43.2217227" lon="12.1765518"><ele>387.0</ele><time>2026-03-29T11:35:40.451Z</time></trkpt><trkpt lat="43.2216398" lon="12.176551"><ele>387.0</ele><time>2026-03-29T11:35:41.452Z</time></trkpt><trkpt lat="43.2215362" lon="12.1765434"><ele>387.0</ele><time>2026-03-29T11:35:42.451Z</time></trkpt><trkpt lat="43.2214247" lon="12.176512"><ele>387.0</ele><time>2026-03-29T11:35:43.451Z</time></trkpt><trkpt lat="43.2213106" lon="12.1764757"><ele>385.0</ele><time>2026-03-29T11:35:44.451Z</time></trkpt><trkpt lat="43.2212342" lon="12.1764347"><ele>383.0</ele><time>2026-03-29T11:35:45.452Z</time></trkpt><trkpt lat="43.2211275" lon="12.1763736"><ele>381.0</ele><time>2026-03-29T11:35:46.452Z</time></trkpt><trkpt lat="43.2210098" lon="12.1763307"><ele>379.0</ele><time>2026-03-29T11:35:47.452Z</time></trkpt><trkpt lat="43.2209457" lon="12.1762872"><ele>377.0</ele><time>2026-03-29T11:35:48.452Z</time></trkpt><trkpt lat="43.2208566" lon="12.1762544"><ele>377.0</ele><time>2026-03-29T11:35:49.451Z</time></trkpt><trkpt lat="43.2207654" lon="12.1762381"><ele>377.0</ele><time>2026-03-29T11:35:50.45Z</time></trkpt><trkpt lat="43.2206956" lon="12.176265"><ele>377.0</ele><time>2026-03-29T11:35:51.451Z</time></trkpt><trkpt lat="43.2206411" lon="12.1764623"><ele>377.0</ele><time>2026-03-29T11:35:53.451Z</time></trkpt><trkpt lat="43.2205745" lon="12.176557"><ele>377.0</ele><time>2026-03-29T11:35:54.451Z</time></trkpt><trkpt lat="43.2204687" lon="12.1766021"><ele>371.6666666666667</ele><time>2026-03-29T11:35:55.452Z</time></trkpt><trkpt lat="43.2203468" lon="12.1766784"><ele>366.3333333333333</ele><time>2026-03-29T11:35:56.451Z</time></trkpt><trkpt lat="43.2201971" lon="12.1767478"><ele>361.0</ele><time>2026-03-29T11:35:57.452Z</time></trkpt><trkpt lat="43.2200102" lon="12.1768344"><ele>361.0</ele><time>2026-03-29T11:35:58.452Z</time></trkpt><trkpt lat="43.2198405" lon="12.1769146"><ele>361.0</ele><time>2026-03-29T11:35:59.452Z</time></trkpt><trkpt lat="43.2196832" lon="12.1769858"><ele>361.0</ele><time>2026-03-29T11:36:00.452Z</time></trkpt><trkpt lat="43.2195403" lon="12.1770591"><ele>358.5</ele><time>2026-03-29T11:36:01.452Z</time></trkpt><trkpt lat="43.2193974" lon="12.1771402"><ele>356.0</ele><time>2026-03-29T11:36:02.452Z</time></trkpt><trkpt lat="43.2192723" lon="12.1772285"><ele>353.5</ele><time>2026-03-29T11:36:03.451Z</time></trkpt><trkpt lat="43.2191581" lon="12.17732"><ele>351.0</ele><time>2026-03-29T11:36:04.452Z</time></trkpt><trkpt lat="43.2190509" lon="12.1774212"><ele>348.25</ele><time>2026-03-29T11:36:05.451Z</time></trkpt><trkpt lat="43.2189496" lon="12.1775216"><ele>345.5</ele><time>2026-03-29T11:36:06.452Z</time></trkpt><trkpt lat="43.2188515" lon="12.1776253"><ele>342.75</ele><time>2026-03-29T11:36:07.452Z</time></trkpt><trkpt lat="43.2187528" lon="12.1777132"><ele>340.0</ele><time>2026-03-29T11:36:08.451Z</time></trkpt><trkpt lat="43.218661" lon="12.1778076"><ele>340.0</ele><time>2026-03-29T11:36:09.451Z</time></trkpt><trkpt lat="43.2185697" lon="12.1779033"><ele>340.0</ele><time>2026-03-29T11:36:10.452Z</time></trkpt><trkpt lat="43.218477" lon="12.1780013"><ele>340.0</ele><time>2026-03-29T11:36:11.452Z</time></trkpt><trkpt lat="43.2183878" lon="12.1780971"><ele>340.0</ele><time>2026-03-29T11:36:12.452Z</time></trkpt><trkpt lat="43.2182903" lon="12.1781822"><ele>339.6</ele><time>2026-03-29T11:36:13.451Z</time></trkpt><trkpt lat="43.2181962" lon="12.1782408"><ele>339.2</ele><time>2026-03-29T11:36:14.452Z</time></trkpt><trkpt lat="43.2181037" lon="12.178292"><ele>338.79999999999995</ele><time>2026-03-29T11:36:15.452Z</time></trkpt><trkpt lat="43.2180125" lon="12.1783528"><ele>338.4</ele><time>2026-03-29T11:36:16.452Z</time></trkpt><trkpt lat="43.2179375" lon="12.1784077"><ele>338.0</ele><time>2026-03-29T11:36:17.451Z</time></trkpt><trkpt lat="43.2178526" lon="12.1784553"><ele>337.6666666666667</ele><time>2026-03-29T11:36:18.451Z</time></trkpt><trkpt lat="43.2177754" lon="12.1784968"><ele>337.33333333333337</ele><time>2026-03-29T11:36:19.451Z</time></trkpt><trkpt lat="43.2177067" lon="12.1785381"><ele>337.0</ele><time>2026-03-29T11:36:20.451Z</time></trkpt><trkpt lat="43.2176095" lon="12.1785953"><ele>336.6666666666667</ele><time>2026-03-29T11:36:22.452Z</time></trkpt><trkpt lat="43.2175658" lon="12.1785142"><ele>336.3333333333333</ele><time>2026-03-29T11:46:44.451Z</time></trkpt><trkpt lat="43.2174835" lon="12.1784836"><ele>336.0</ele><time>2026-03-29T11:46:47.451Z</time></trkpt><trkpt lat="43.2174109" lon="12.1785274"><ele>336.0</ele><time>2026-03-29T11:46:49.451Z</time></trkpt><trkpt lat="43.2173557" lon="12.1785698"><ele>336.0</ele><time>2026-03-29T11:46:50.451Z</time></trkpt><trkpt lat="43.2172246" lon="12.1786872"><ele>336.0</ele><time>2026-03-29T11:46:52.452Z</time></trkpt><trkpt lat="43.2171604" lon="12.1787647"><ele>336.0</ele><time>2026-03-29T11:46:53.451Z</time></trkpt><trkpt lat="43.2170825" lon="12.1788376"><ele>336.0</ele><time>2026-03-29T11:46:54.451Z</time></trkpt><trkpt lat="43.2169903" lon="12.1789104"><ele>334.5</ele><time>2026-03-29T11:46:55.452Z</time></trkpt><trkpt lat="43.2168905" lon="12.1789969"><ele>333.0</ele><time>2026-03-29T11:46:56.452Z</time></trkpt><trkpt lat="43.2167826" lon="12.1790878"><ele>331.5</ele><time>2026-03-29T11:46:57.451Z</time></trkpt><trkpt lat="43.2166702" lon="12.1791903"><ele>330.0</ele><time>2026-03-29T11:46:58.452Z</time></trkpt><trkpt lat="43.2165491" lon="12.1792922"><ele>327.75</ele><time>2026-03-29T11:46:59.452Z</time></trkpt><trkpt lat="43.2164259" lon="12.179392"><ele>325.5</ele><time>2026-03-29T11:47:00.451Z</time></trkpt><trkpt lat="43.2163044" lon="12.1794924"><ele>323.25</ele><time>2026-03-29T11:47:01.451Z</time></trkpt><trkpt lat="43.2161898" lon="12.179594"><ele>321.0</ele><time>2026-03-29T11:47:02.451Z</time></trkpt><trkpt lat="43.2160802" lon="12.1796925"><ele>321.0</ele><time>2026-03-29T11:47:03.452Z</time></trkpt><trkpt lat="43.2159889" lon="12.1797902"><ele>321.0</ele><time>2026-03-29T11:47:04.452Z</time></trkpt><trkpt lat="43.2159148" lon="12.1798946"><ele>321.0</ele><time>2026-03-29T11:47:05.452Z</time></trkpt><trkpt lat="43.2158662" lon="12.1800104"><ele>321.0</ele><time>2026-03-29T11:47:06.452Z</time></trkpt><trkpt lat="43.2158506" lon="12.1801334"><ele>321.0</ele><time>2026-03-29T11:47:07.452Z</time></trkpt><trkpt lat="43.2158618" lon="12.180251"><ele>320.6</ele><time>2026-03-29T11:47:08.451Z</time></trkpt><trkpt lat="43.2158971" lon="12.1803403"><ele>320.20000000000005</ele><time>2026-03-29T11:47:09.452Z</time></trkpt><trkpt lat="43.2159538" lon="12.1804348"><ele>319.79999999999995</ele><time>2026-03-29T11:47:10.451Z</time></trkpt><trkpt lat="43.2160268" lon="12.1805393"><ele>319.4</ele><time>2026-03-29T11:47:11.451Z</time></trkpt><trkpt lat="43.2161094" lon="12.1806528"><ele>319.0</ele><time>2026-03-29T11:47:12.451Z</time></trkpt><trkpt lat="43.2161945" lon="12.1807664"><ele>318.75</ele><time>2026-03-29T11:47:13.452Z</time></trkpt><trkpt lat="43.2162889" lon="12.1808662"><ele>318.5</ele><time>2026-03-29T11:47:14.451Z</time></trkpt><trkpt lat="43.2163943" lon="12.1809527"><ele>318.25</ele><time>2026-03-29T11:47:15.451Z</time></trkpt><trkpt lat="43.2164993" lon="12.1810484"><ele>318.0</ele><time>2026-03-29T11:47:16.451Z</time></trkpt><trkpt lat="43.2165985" lon="12.1811636"><ele>318.25</ele><time>2026-03-29T11:47:17.451Z</time></trkpt><trkpt lat="43.2166891" lon="12.1812951"><ele>318.5</ele><time>2026-03-29T11:47:18.452Z</time></trkpt><trkpt lat="43.2167829" lon="12.1814381"><ele>318.75</ele><time>2026-03-29T11:47:19.451Z</time></trkpt><trkpt lat="43.2168814" lon="12.1815861"><ele>319.0</ele><time>2026-03-29T11:47:20.452Z</time></trkpt><trkpt lat="43.2169798" lon="12.1817351"><ele>319.0</ele><time>2026-03-29T11:47:21.452Z</time></trkpt><trkpt lat="43.2170798" lon="12.1818801"><ele>319.0</ele><time>2026-03-29T11:47:22.451Z</time></trkpt><trkpt lat="43.2171731" lon="12.1820243"><ele>319.0</ele><time>2026-03-29T11:47:23.452Z</time></trkpt><trkpt lat="43.217268" lon="12.1821694"><ele>319.0</ele><time>2026-03-29T11:47:24.451Z</time></trkpt><trkpt lat="43.2173626" lon="12.182317"><ele>320.0</ele><time>2026-03-29T11:47:25.451Z</time></trkpt><trkpt lat="43.2174592" lon="12.1824661"><ele>321.0</ele><time>2026-03-29T11:47:26.452Z</time></trkpt><trkpt lat="43.217555" lon="12.1826141"><ele>322.0</ele><time>2026-03-29T11:47:27.452Z</time></trkpt><trkpt lat="43.217652" lon="12.1827594"><ele>323.0</ele><time>2026-03-29T11:47:28.451Z</time></trkpt><trkpt lat="43.2177474" lon="12.1829016"><ele>323.0</ele><time>2026-03-29T11:47:29.452Z</time></trkpt><trkpt lat="43.217838" lon="12.1830384"><ele>323.0</ele><time>2026-03-29T11:47:30.452Z</time></trkpt><trkpt lat="43.2179241" lon="12.183175"><ele>323.0</ele><time>2026-03-29T11:47:31.451Z</time></trkpt><trkpt lat="43.2180067" lon="12.1833028"><ele>323.0</ele><time>2026-03-29T11:47:32.452Z</time></trkpt><trkpt lat="43.2180856" lon="12.1834206"><ele>323.4</ele><time>2026-03-29T11:47:33.452Z</time></trkpt><trkpt lat="43.2181591" lon="12.1835311"><ele>323.79999999999995</ele><time>2026-03-29T11:47:34.451Z</time></trkpt><trkpt lat="43.2182288" lon="12.1836356"><ele>324.2</ele><time>2026-03-29T11:47:35.452Z</time></trkpt><trkpt lat="43.2182988" lon="12.183736"><ele>324.6</ele><time>2026-03-29T11:47:36.452Z</time></trkpt><trkpt lat="43.2183721" lon="12.1838346"><ele>325.0</ele><time>2026-03-29T11:47:37.452Z</time></trkpt><trkpt lat="43.2184476" lon="12.1839469"><ele>325.0</ele><time>2026-03-29T11:47:38.452Z</time></trkpt><trkpt lat="43.2185262" lon="12.1840705"><ele>325.0</ele><time>2026-03-29T11:47:39.451Z</time></trkpt><trkpt lat="43.2186103" lon="12.1842001"><ele>325.0</ele><time>2026-03-29T11:47:40.451Z</time></trkpt><trkpt lat="43.2186972" lon="12.1843341"><ele>325.0</ele><time>2026-03-29T11:47:41.451Z</time></trkpt><trkpt lat="43.2187818" lon="12.1844624"><ele>325.0</ele><time>2026-03-29T11:47:42.451Z</time></trkpt><trkpt lat="43.2188763" lon="12.1845877"><ele>325.0</ele><time>2026-03-29T11:47:43.451Z</time></trkpt><trkpt lat="43.218978" lon="12.1847053"><ele>325.0</ele><time>2026-03-29T11:47:44.451Z</time></trkpt><trkpt lat="43.2190791" lon="12.1848257"><ele>325.0</ele><time>2026-03-29T11:47:45.45Z</time></trkpt><trkpt lat="43.2191793" lon="12.1849318"><ele>325.75</ele><time>2026-03-29T11:47:46.451Z</time></trkpt><trkpt lat="43.2192871" lon="12.1850641"><ele>326.5</ele><time>2026-03-29T11:47:47.452Z</time></trkpt><trkpt lat="43.2193919" lon="12.1851835"><ele>327.25</ele><time>2026-03-29T11:47:48.451Z</time></trkpt><trkpt lat="43.2194898" lon="12.1852825"><ele>328.0</ele><time>2026-03-29T11:47:49.451Z</time></trkpt><trkpt lat="43.2195965" lon="12.1853908"><ele>328.0</ele><time>2026-03-29T11:47:50.451Z</time></trkpt><trkpt lat="43.2197094" lon="12.1855047"><ele>328.0</ele><time>2026-03-29T11:47:51.452Z</time></trkpt><trkpt lat="43.2198223" lon="12.1856182"><ele>328.0</ele><time>2026-03-29T11:47:52.452Z</time></trkpt><trkpt lat="43.2199416" lon="12.1857346"><ele>328.0</ele><time>2026-03-29T11:47:53.452Z</time></trkpt><trkpt lat="43.2200624" lon="12.185849"><ele>326.0</ele><time>2026-03-29T11:47:54.451Z</time></trkpt><trkpt lat="43.2201775" lon="12.1859585"><ele>324.0</ele><time>2026-03-29T11:47:55.452Z</time></trkpt><trkpt lat="43.2202754" lon="12.1860525"><ele>322.0</ele><time>2026-03-29T11:47:56.452Z</time></trkpt><trkpt lat="43.2203603" lon="12.1861356"><ele>320.0</ele><time>2026-03-29T11:47:57.451Z</time></trkpt><trkpt lat="43.2204359" lon="12.1862"><ele>320.0</ele><time>2026-03-29T11:47:58.451Z</time></trkpt><trkpt lat="43.2205065" lon="12.1862662"><ele>320.0</ele><time>2026-03-29T11:47:59.451Z</time></trkpt><trkpt lat="43.2205744" lon="12.1863299"><ele>320.0</ele><time>2026-03-29T11:48:00.452Z</time></trkpt><trkpt lat="43.2206349" lon="12.1863913"><ele>320.0</ele><time>2026-03-29T11:48:01.451Z</time></trkpt><trkpt lat="43.2207396" lon="12.1865052"><ele>320.0</ele><time>2026-03-29T11:48:03.451Z</time></trkpt><trkpt lat="43.2208435" lon="12.1866108"><ele>320.8</ele><time>2026-03-29T11:48:05.451Z</time></trkpt><trkpt lat="43.2209177" lon="12.1867242"><ele>321.6</ele><time>2026-03-29T11:48:07.451Z</time></trkpt><trkpt lat="43.2209359" lon="12.1868716"><ele>322.4</ele><time>2026-03-29T11:48:09.452Z</time></trkpt><trkpt lat="43.2209285" lon="12.1869817"><ele>323.2</ele><time>2026-03-29T11:48:10.451Z</time></trkpt><trkpt lat="43.2209182" lon="12.1871007"><ele>324.0</ele><time>2026-03-29T11:48:11.451Z</time></trkpt><trkpt lat="43.2209045" lon="12.1872306"><ele>323.0</ele><time>2026-03-29T11:48:12.451Z</time></trkpt><trkpt lat="43.2208867" lon="12.1873963"><ele>322.0</ele><time>2026-03-29T11:48:13.452Z</time></trkpt><trkpt lat="43.2208748" lon="12.1875634"><ele>321.0</ele><time>2026-03-29T11:48:14.451Z</time></trkpt><trkpt lat="43.220863" lon="12.1877339"><ele>320.0</ele><time>2026-03-29T11:48:15.451Z</time></trkpt><trkpt lat="43.2208412" lon="12.1879048"><ele>320.0</ele><time>2026-03-29T11:48:16.452Z</time></trkpt><trkpt lat="43.220822" lon="12.1880893"><ele>320.0</ele><time>2026-03-29T11:48:17.451Z</time></trkpt><trkpt lat="43.2208009" lon="12.1882629"><ele>320.0</ele><time>2026-03-29T11:48:18.452Z</time></trkpt><trkpt lat="43.2207698" lon="12.1884464"><ele>320.0</ele><time>2026-03-29T11:48:19.452Z</time></trkpt><trkpt lat="43.2207343" lon="12.1886335"><ele>319.25</ele><time>2026-03-29T11:48:20.451Z</time></trkpt><trkpt lat="43.2206808" lon="12.1888065"><ele>318.5</ele><time>2026-03-29T11:48:21.452Z</time></trkpt><trkpt lat="43.2206143" lon="12.1889655"><ele>317.75</ele><time>2026-03-29T11:48:22.451Z</time></trkpt><trkpt lat="43.220526" lon="12.1891223"><ele>317.0</ele><time>2026-03-29T11:48:23.452Z</time></trkpt><trkpt lat="43.2204211" lon="12.189274"><ele>317.0</ele><time>2026-03-29T11:48:24.451Z</time></trkpt><trkpt lat="43.2203147" lon="12.1894283"><ele>317.0</ele><time>2026-03-29T11:48:25.451Z</time></trkpt><trkpt lat="43.2202169" lon="12.1895736"><ele>317.0</ele><time>2026-03-29T11:48:26.451Z</time></trkpt><trkpt lat="43.2201196" lon="12.1897094"><ele>317.0</ele><time>2026-03-29T11:48:27.451Z</time></trkpt><trkpt lat="43.2200321" lon="12.1898495"><ele>316.5</ele><time>2026-03-29T11:48:28.451Z</time></trkpt><trkpt lat="43.2199393" lon="12.1899817"><ele>316.0</ele><time>2026-03-29T11:48:29.452Z</time></trkpt><trkpt lat="43.2198462" lon="12.1901245"><ele>315.5</ele><time>2026-03-29T11:48:30.452Z</time></trkpt><trkpt lat="43.219757" lon="12.1902724"><ele>315.0</ele><time>2026-03-29T11:48:31.451Z</time></trkpt><trkpt lat="43.2196639" lon="12.1904253"><ele>315.0</ele><time>2026-03-29T11:48:32.452Z</time></trkpt><trkpt lat="43.219573" lon="12.1905627"><ele>315.0</ele><time>2026-03-29T11:48:33.451Z</time></trkpt><trkpt lat="43.2194877" lon="12.1906916"><ele>315.0</ele><time>2026-03-29T11:48:34.452Z</time></trkpt><trkpt lat="43.2194121" lon="12.1908147"><ele>315.0</ele><time>2026-03-29T11:48:35.452Z</time></trkpt><trkpt lat="43.2193413" lon="12.1909283"><ele>315.2</ele><time>2026-03-29T11:48:36.452Z</time></trkpt><trkpt lat="43.2192759" lon="12.1910323"><ele>315.4</ele><time>2026-03-29T11:48:37.451Z</time></trkpt><trkpt lat="43.2192231" lon="12.1911225"><ele>315.6</ele><time>2026-03-29T11:48:38.451Z</time></trkpt><trkpt lat="43.2191819" lon="12.1912066"><ele>315.8</ele><time>2026-03-29T11:48:39.452Z</time></trkpt><trkpt lat="43.2191153" lon="12.1913302"><ele>316.0</ele><time>2026-03-29T11:48:41.451Z</time></trkpt><trkpt lat="43.2189953" lon="12.1914321"><ele>315.2</ele><time>2026-03-29T11:48:43.451Z</time></trkpt><trkpt lat="43.2189134" lon="12.1914738"><ele>314.40000000000003</ele><time>2026-03-29T11:48:44.452Z</time></trkpt><trkpt lat="43.2188122" lon="12.1915178"><ele>313.6</ele><time>2026-03-29T11:48:45.452Z</time></trkpt><trkpt lat="43.218697" lon="12.1915563"><ele>312.8</ele><time>2026-03-29T11:48:46.452Z</time></trkpt><trkpt lat="43.2185764" lon="12.1915891"><ele>312.0</ele><time>2026-03-29T11:48:47.45Z</time></trkpt><trkpt lat="43.218444" lon="12.19161"><ele>312.0</ele><time>2026-03-29T11:48:48.451Z</time></trkpt><trkpt lat="43.2183062" lon="12.1916273"><ele>312.0</ele><time>2026-03-29T11:48:49.451Z</time></trkpt><trkpt lat="43.2181735" lon="12.1916435"><ele>312.0</ele><time>2026-03-29T11:48:50.451Z</time></trkpt><trkpt lat="43.218038" lon="12.191658"><ele>312.0</ele><time>2026-03-29T11:48:51.452Z</time></trkpt><trkpt lat="43.2178984" lon="12.1916728"><ele>312.0</ele><time>2026-03-29T11:48:52.45Z</time></trkpt><trkpt lat="43.217761" lon="12.1916891"><ele>312.0</ele><time>2026-03-29T11:48:53.452Z</time></trkpt><trkpt lat="43.2176224" lon="12.1917016"><ele>312.0</ele><time>2026-03-29T11:48:54.452Z</time></trkpt><trkpt lat="43.2174833" lon="12.1917161"><ele>312.0</ele><time>2026-03-29T11:48:55.45Z</time></trkpt><trkpt lat="43.2173483" lon="12.1917351"><ele>312.25</ele><time>2026-03-29T11:48:56.451Z</time></trkpt><trkpt lat="43.2172066" lon="12.1917508"><ele>312.5</ele><time>2026-03-29T11:48:57.451Z</time></trkpt><trkpt lat="43.2170607" lon="12.1917653"><ele>312.75</ele><time>2026-03-29T11:48:58.451Z</time></trkpt><trkpt lat="43.2169269" lon="12.1917786"><ele>313.0</ele><time>2026-03-29T11:48:59.452Z</time></trkpt><trkpt lat="43.2168063" lon="12.1917889"><ele>313.0</ele><time>2026-03-29T11:49:00.452Z</time></trkpt><trkpt lat="43.2166943" lon="12.1917975"><ele>313.0</ele><time>2026-03-29T11:49:01.451Z</time></trkpt><trkpt lat="43.2166033" lon="12.1918051"><ele>313.0</ele><time>2026-03-29T11:49:02.451Z</time></trkpt><trkpt lat="43.2165276" lon="12.1918219"><ele>313.0</ele><time>2026-03-29T11:49:03.451Z</time></trkpt><trkpt lat="43.2164742" lon="12.1918766"><ele>313.0</ele><time>2026-03-29T11:49:04.452Z</time></trkpt><trkpt lat="43.2164389" lon="12.1920443"><ele>313.0</ele><time>2026-03-29T11:49:06.452Z</time></trkpt><trkpt lat="43.2164563" lon="12.1921807"><ele>313.0</ele><time>2026-03-29T11:49:07.452Z</time></trkpt><trkpt lat="43.2164927" lon="12.1923404"><ele>313.0</ele><time>2026-03-29T11:49:08.452Z</time></trkpt><trkpt lat="43.2165301" lon="12.192477"><ele>313.0</ele><time>2026-03-29T11:49:09.451Z</time></trkpt><trkpt lat="43.216579" lon="12.1926109"><ele>313.0</ele><time>2026-03-29T11:49:10.452Z</time></trkpt><trkpt lat="43.2166468" lon="12.1927651"><ele>313.0</ele><time>2026-03-29T11:49:11.452Z</time></trkpt><trkpt lat="43.2167252" lon="12.1929357"><ele>313.0</ele><time>2026-03-29T11:49:12.452Z</time></trkpt><trkpt lat="43.2167996" lon="12.1931102"><ele>313.0</ele><time>2026-03-29T11:49:13.451Z</time></trkpt><trkpt lat="43.2168801" lon="12.1932802"><ele>313.0</ele><time>2026-03-29T11:49:14.451Z</time></trkpt><trkpt lat="43.2169568" lon="12.1934562"><ele>313.0</ele><time>2026-03-29T11:49:15.451Z</time></trkpt><trkpt lat="43.2170295" lon="12.1936379"><ele>313.0</ele><time>2026-03-29T11:49:16.451Z</time></trkpt><trkpt lat="43.2171037" lon="12.193809"><ele>313.0</ele><time>2026-03-29T11:49:17.452Z</time></trkpt><trkpt lat="43.2171706" lon="12.193982"><ele>313.0</ele><time>2026-03-29T11:49:18.451Z</time></trkpt><trkpt lat="43.2172582" lon="12.1941735"><ele>312.75</ele><time>2026-03-29T11:49:19.451Z</time></trkpt><trkpt lat="43.2173353" lon="12.1943337"><ele>312.5</ele><time>2026-03-29T11:49:20.451Z</time></trkpt><trkpt lat="43.2174105" lon="12.1944977"><ele>312.25</ele><time>2026-03-29T11:49:21.452Z</time></trkpt><trkpt lat="43.2174688" lon="12.1946335"><ele>312.0</ele><time>2026-03-29T11:49:22.451Z</time></trkpt><trkpt lat="43.2175037" lon="12.1947681"><ele>312.0</ele><time>2026-03-29T11:49:23.452Z</time></trkpt><trkpt lat="43.2175091" lon="12.1948873"><ele>312.0</ele><time>2026-03-29T11:49:24.452Z</time></trkpt><trkpt lat="43.2174842" lon="12.1949878"><ele>312.0</ele><time>2026-03-29T11:49:25.451Z</time></trkpt><trkpt lat="43.2174909" lon="12.1951089"><ele>312.0</ele><time>2026-03-29T11:49:26.451Z</time></trkpt><trkpt lat="43.2174581" lon="12.1952235"><ele>312.0</ele><time>2026-03-29T11:49:27.451Z</time></trkpt><trkpt lat="43.2173614" lon="12.1955082"><ele>312.0</ele><time>2026-03-29T11:49:28.452Z</time></trkpt><trkpt lat="43.2173151" lon="12.1956891"><ele>312.0</ele><time>2026-03-29T11:49:29.452Z</time></trkpt><trkpt lat="43.2172654" lon="12.1958574"><ele>312.0</ele><time>2026-03-29T11:49:30.451Z</time></trkpt><trkpt lat="43.2172121" lon="12.196052"><ele>312.0</ele><time>2026-03-29T11:49:31.451Z</time></trkpt><trkpt lat="43.2171749" lon="12.1962459"><ele>312.0</ele><time>2026-03-29T11:49:32.451Z</time></trkpt><trkpt lat="43.2171764" lon="12.1964168"><ele>312.0</ele><time>2026-03-29T11:49:33.452Z</time></trkpt><trkpt lat="43.2171754" lon="12.1965889"><ele>312.0</ele><time>2026-03-29T11:49:34.452Z</time></trkpt><trkpt lat="43.2171805" lon="12.1967682"><ele>312.0</ele><time>2026-03-29T11:49:35.451Z</time></trkpt><trkpt lat="43.2172007" lon="12.1969362"><ele>311.75</ele><time>2026-03-29T11:49:36.451Z</time></trkpt><trkpt lat="43.2172237" lon="12.1971042"><ele>311.5</ele><time>2026-03-29T11:49:37.452Z</time></trkpt><trkpt lat="43.2172487" lon="12.1972779"><ele>311.25</ele><time>2026-03-29T11:49:38.452Z</time></trkpt><trkpt lat="43.2172763" lon="12.1974613"><ele>311.0</ele><time>2026-03-29T11:49:39.452Z</time></trkpt><trkpt lat="43.2172984" lon="12.1976529"><ele>311.0</ele><time>2026-03-29T11:49:40.452Z</time></trkpt><trkpt lat="43.2173187" lon="12.1978459"><ele>311.0</ele><time>2026-03-29T11:49:41.451Z</time></trkpt><trkpt lat="43.2173377" lon="12.1980434"><ele>311.0</ele><time>2026-03-29T11:49:42.451Z</time></trkpt><trkpt lat="43.2173575" lon="12.1982417"><ele>311.0</ele><time>2026-03-29T11:49:43.451Z</time></trkpt><trkpt lat="43.2173973" lon="12.1984423"><ele>310.5</ele><time>2026-03-29T11:49:44.452Z</time></trkpt><trkpt lat="43.217451" lon="12.1986347"><ele>310.0</ele><time>2026-03-29T11:49:45.451Z</time></trkpt><trkpt lat="43.2175954" lon="12.1990069"><ele>310.0</ele><time>2026-03-29T11:49:47.452Z</time></trkpt><trkpt lat="43.2176715" lon="12.1991973"><ele>310.0</ele><time>2026-03-29T11:49:48.451Z</time></trkpt><trkpt lat="43.2177454" lon="12.1993859"><ele>310.0</ele><time>2026-03-29T11:49:49.452Z</time></trkpt><trkpt lat="43.2178149" lon="12.199573"><ele>310.0</ele><time>2026-03-29T11:49:50.451Z</time></trkpt><trkpt lat="43.2178848" lon="12.1997599"><ele>310.0</ele><time>2026-03-29T11:49:51.451Z</time></trkpt><trkpt lat="43.2179584" lon="12.1999477"><ele>310.0</ele><time>2026-03-29T11:49:52.452Z</time></trkpt><trkpt lat="43.2180373" lon="12.2001366"><ele>310.0</ele><time>2026-03-29T11:49:53.451Z</time></trkpt><trkpt lat="43.2181188" lon="12.2003314"><ele>310.0</ele><time>2026-03-29T11:49:54.451Z</time></trkpt><trkpt lat="43.2182012" lon="12.2005292"><ele>310.0</ele><time>2026-03-29T11:49:55.452Z</time></trkpt><trkpt lat="43.2182842" lon="12.2007261"><ele>310.66666666666663</ele><time>2026-03-29T11:49:56.452Z</time></trkpt><trkpt lat="43.2183609" lon="12.200922"><ele>311.3333333333333</ele><time>2026-03-29T11:49:57.451Z</time></trkpt><trkpt lat="43.2184318" lon="12.2011081"><ele>312.0</ele><time>2026-03-29T11:49:58.451Z</time></trkpt><trkpt lat="43.2184988" lon="12.2012767"><ele>312.0</ele><time>2026-03-29T11:49:59.452Z</time></trkpt><trkpt lat="43.2185518" lon="12.2014377"><ele>312.0</ele><time>2026-03-29T11:50:00.452Z</time></trkpt><trkpt lat="43.2186011" lon="12.2015864"><ele>312.0</ele><time>2026-03-29T11:50:01.451Z</time></trkpt><trkpt lat="43.2186454" lon="12.2017133"><ele>312.0</ele><time>2026-03-29T11:50:02.452Z</time></trkpt><trkpt lat="43.218686" lon="12.2018289"><ele>312.0</ele><time>2026-03-29T11:50:03.452Z</time></trkpt><trkpt lat="43.2187133" lon="12.2019196"><ele>312.3333333333333</ele><time>2026-03-29T11:50:04.451Z</time></trkpt><trkpt lat="43.2187126" lon="12.202022"><ele>312.6666666666667</ele><time>2026-03-29T11:50:06.451Z</time></trkpt><trkpt lat="43.2186377" lon="12.2020849"><ele>313.0</ele><time>2026-03-29T11:50:08.451Z</time></trkpt><trkpt lat="43.2185735" lon="12.202108"><ele>313.33333333333337</ele><time>2026-03-29T11:50:09.452Z</time></trkpt><trkpt lat="43.2184909" lon="12.2021252"><ele>313.6666666666667</ele><time>2026-03-29T11:50:10.452Z</time></trkpt><trkpt lat="43.218401" lon="12.2021321"><ele>314.0</ele><time>2026-03-29T11:50:11.452Z</time></trkpt><trkpt lat="43.2183003" lon="12.2021393"><ele>314.0</ele><time>2026-03-29T11:50:12.452Z</time></trkpt><trkpt lat="43.2181925" lon="12.2021541"><ele>314.0</ele><time>2026-03-29T11:50:13.451Z</time></trkpt><trkpt lat="43.2180781" lon="12.2021694"><ele>314.0</ele><time>2026-03-29T11:50:14.451Z</time></trkpt><trkpt lat="43.2179567" lon="12.2021867"><ele>314.0</ele><time>2026-03-29T11:50:15.451Z</time></trkpt><trkpt lat="43.2178334" lon="12.2022017"><ele>314.0</ele><time>2026-03-29T11:50:16.451Z</time></trkpt><trkpt lat="43.2177031" lon="12.2022133"><ele>314.0</ele><time>2026-03-29T11:50:17.451Z</time></trkpt><trkpt lat="43.217571" lon="12.202229"><ele>314.0</ele><time>2026-03-29T11:50:18.452Z</time></trkpt><trkpt lat="43.217437" lon="12.2022462"><ele>314.0</ele><time>2026-03-29T11:50:19.451Z</time></trkpt><trkpt lat="43.2173143" lon="12.2022613"><ele>314.0</ele><time>2026-03-29T11:50:20.451Z</time></trkpt><trkpt lat="43.2172071" lon="12.2022867"><ele>314.0</ele><time>2026-03-29T11:50:21.451Z</time></trkpt><trkpt lat="43.2171189" lon="12.2023259"><ele>314.0</ele><time>2026-03-29T11:50:22.451Z</time></trkpt><trkpt lat="43.2170441" lon="12.2023773"><ele>314.0</ele><time>2026-03-29T11:50:23.452Z</time></trkpt><trkpt lat="43.2169759" lon="12.202443"><ele>314.0</ele><time>2026-03-29T11:50:24.452Z</time></trkpt><trkpt lat="43.2169085" lon="12.2025245"><ele>314.0</ele><time>2026-03-29T11:50:25.451Z</time></trkpt><trkpt lat="43.2168473" lon="12.2026035"><ele>314.0</ele><time>2026-03-29T11:50:26.451Z</time></trkpt><trkpt lat="43.2167994" lon="12.2026824"><ele>314.0</ele><time>2026-03-29T11:50:27.451Z</time></trkpt><trkpt lat="43.2167139" lon="12.2028028"><ele>314.0</ele><time>2026-03-29T11:50:29.452Z</time></trkpt><trkpt lat="43.2166636" lon="12.2029157"><ele>314.0</ele><time>2026-03-29T11:50:31.452Z</time></trkpt><trkpt lat="43.2165872" lon="12.2030642"><ele>314.59999999999997</ele><time>2026-03-29T11:50:33.451Z</time></trkpt><trkpt lat="43.2165225" lon="12.2031905"><ele>315.2</ele><time>2026-03-29T11:50:34.452Z</time></trkpt><trkpt lat="43.216453" lon="12.2032922"><ele>315.79999999999995</ele><time>2026-03-29T11:50:35.451Z</time></trkpt><trkpt lat="43.216363" lon="12.2033836"><ele>316.4</ele><time>2026-03-29T11:50:36.451Z</time></trkpt><trkpt lat="43.2162837" lon="12.2035011"><ele>317.0</ele><time>2026-03-29T11:50:37.451Z</time></trkpt><trkpt lat="43.2162122" lon="12.2036125"><ele>317.6</ele><time>2026-03-29T11:50:38.452Z</time></trkpt><trkpt lat="43.2161599" lon="12.2037146"><ele>318.2</ele><time>2026-03-29T11:50:39.451Z</time></trkpt><trkpt lat="43.2160996" lon="12.2038282"><ele>318.8</ele><time>2026-03-29T11:50:40.452Z</time></trkpt><trkpt lat="43.2160413" lon="12.2039615"><ele>319.4</ele><time>2026-03-29T11:50:41.452Z</time></trkpt><trkpt lat="43.2159984" lon="12.204052"><ele>320.0</ele><time>2026-03-29T11:50:42.452Z</time></trkpt><trkpt lat="43.215944" lon="12.2041591"><ele>320.6</ele><time>2026-03-29T11:50:43.452Z</time></trkpt><trkpt lat="43.2158717" lon="12.2042356"><ele>321.2</ele><time>2026-03-29T11:50:44.452Z</time></trkpt><trkpt lat="43.2158115" lon="12.2043314"><ele>321.79999999999995</ele><time>2026-03-29T11:50:45.451Z</time></trkpt><trkpt lat="43.2157492" lon="12.2044099"><ele>322.4</ele><time>2026-03-29T11:50:46.45Z</time></trkpt><trkpt lat="43.2156909" lon="12.2044798"><ele>323.0</ele><time>2026-03-29T11:50:47.452Z</time></trkpt><trkpt lat="43.2155684" lon="12.2045663"><ele>323.5</ele><time>2026-03-29T11:50:48.452Z</time></trkpt><trkpt lat="43.2154833" lon="12.2046365"><ele>324.0</ele><time>2026-03-29T11:50:49.451Z</time></trkpt><trkpt lat="43.2153914" lon="12.2047419"><ele>324.5</ele><time>2026-03-29T11:50:50.451Z</time></trkpt><trkpt lat="43.2152703" lon="12.2049177"><ele>325.0</ele><time>2026-03-29T11:50:51.452Z</time></trkpt><trkpt lat="43.215159" lon="12.2050369"><ele>325.6</ele><time>2026-03-29T11:50:52.451Z</time></trkpt><trkpt lat="43.2150667" lon="12.2051368"><ele>326.2</ele><time>2026-03-29T11:50:53.452Z</time></trkpt><trkpt lat="43.2149683" lon="12.205216"><ele>326.79999999999995</ele><time>2026-03-29T11:50:54.451Z</time></trkpt><trkpt lat="43.2148864" lon="12.2052899"><ele>327.4</ele><time>2026-03-29T11:50:55.451Z</time></trkpt><trkpt lat="43.2148294" lon="12.2053382"><ele>328.0</ele><time>2026-03-29T11:50:56.451Z</time></trkpt><trkpt lat="43.2147717" lon="12.2054039"><ele>328.0</ele><time>2026-03-29T11:50:57.451Z</time></trkpt><trkpt lat="43.2146668" lon="12.2054154"><ele>328.0</ele><time>2026-03-29T11:50:59.452Z</time></trkpt><trkpt lat="43.2145756" lon="12.2055132"><ele>328.0</ele><time>2026-03-29T11:51:01.451Z</time></trkpt><trkpt lat="43.2145218" lon="12.2055683"><ele>328.0</ele><time>2026-03-29T11:51:02.451Z</time></trkpt><trkpt lat="43.2144757" lon="12.2056393"><ele>328.0</ele><time>2026-03-29T11:51:03.453Z</time></trkpt><trkpt lat="43.2144323" lon="12.2057344"><ele>328.0</ele><time>2026-03-29T11:51:04.452Z</time></trkpt><trkpt lat="43.2143856" lon="12.2058099"><ele>328.16666666666663</ele><time>2026-03-29T11:51:05.452Z</time></trkpt><trkpt lat="43.2143325" lon="12.2059104"><ele>328.3333333333333</ele><time>2026-03-29T11:51:06.453Z</time></trkpt><trkpt lat="43.2142923" lon="12.2060325"><ele>328.5</ele><time>2026-03-29T11:51:07.452Z</time></trkpt><trkpt lat="43.2142541" lon="12.2061118"><ele>328.6666666666667</ele><time>2026-03-29T11:51:08.452Z</time></trkpt><trkpt lat="43.2142262" lon="12.2062043"><ele>328.83333333333337</ele><time>2026-03-29T11:51:09.452Z</time></trkpt><trkpt lat="43.2142111" lon="12.2062986"><ele>329.0</ele><time>2026-03-29T11:51:10.453Z</time></trkpt><trkpt lat="43.2141839" lon="12.206405"><ele>329.5</ele><time>2026-03-29T11:51:11.453Z</time></trkpt><trkpt lat="43.2141518" lon="12.2065221"><ele>330.0</ele><time>2026-03-29T11:51:12.453Z</time></trkpt><trkpt lat="43.2141218" lon="12.2066321"><ele>330.5</ele><time>2026-03-29T11:51:13.452Z</time></trkpt><trkpt lat="43.2140976" lon="12.2067305"><ele>331.0</ele><time>2026-03-29T11:51:14.453Z</time></trkpt><trkpt lat="43.2140765" lon="12.2068323"><ele>331.5</ele><time>2026-03-29T11:51:15.453Z</time></trkpt><trkpt lat="43.2140661" lon="12.2069406"><ele>332.0</ele><time>2026-03-29T11:51:16.453Z</time></trkpt><trkpt lat="43.2140573" lon="12.2070315"><ele>332.0</ele><time>2026-03-29T11:51:17.453Z</time></trkpt><trkpt lat="43.2140742" lon="12.2071367"><ele>332.0</ele><time>2026-03-29T11:51:18.452Z</time></trkpt><trkpt lat="43.2140382" lon="12.2072282"><ele>332.0</ele><time>2026-03-29T11:51:19.452Z</time></trkpt><trkpt lat="43.2140699" lon="12.2073832"><ele>332.0</ele><time>2026-03-29T11:51:21.453Z</time></trkpt><trkpt lat="43.2140271" lon="12.2074863"><ele>332.0</ele><time>2026-03-29T11:51:23.452Z</time></trkpt><trkpt lat="43.2139945" lon="12.2076007"><ele>332.0</ele><time>2026-03-29T11:51:24.452Z</time></trkpt><trkpt lat="43.2139331" lon="12.207654"><ele>332.83333333333337</ele><time>2026-03-29T11:51:25.453Z</time></trkpt><trkpt lat="43.2138503" lon="12.2077211"><ele>333.6666666666667</ele><time>2026-03-29T11:51:26.452Z</time></trkpt><trkpt lat="43.2137828" lon="12.2078183"><ele>334.5</ele><time>2026-03-29T11:51:27.453Z</time></trkpt><trkpt lat="43.2137328" lon="12.2078792"><ele>335.3333333333333</ele><time>2026-03-29T11:51:28.453Z</time></trkpt><trkpt lat="43.2136797" lon="12.2079473"><ele>336.16666666666663</ele><time>2026-03-29T11:51:29.452Z</time></trkpt><trkpt lat="43.2136073" lon="12.2079917"><ele>337.0</ele><time>2026-03-29T11:51:30.453Z</time></trkpt><trkpt lat="43.2135284" lon="12.2080143"><ele>337.0</ele><time>2026-03-29T11:51:31.453Z</time></trkpt><trkpt lat="43.2134411" lon="12.2080437"><ele>337.0</ele><time>2026-03-29T11:51:32.452Z</time></trkpt><trkpt lat="43.2133666" lon="12.2080814"><ele>337.0</ele><time>2026-03-29T11:51:33.452Z</time></trkpt><trkpt lat="43.2132282" lon="12.2080601"><ele>337.0</ele><time>2026-03-29T11:51:35.452Z</time></trkpt><trkpt lat="43.2131186" lon="12.2081075"><ele>337.0</ele><time>2026-03-29T11:51:36.453Z</time></trkpt><trkpt lat="43.2130126" lon="12.2081296"><ele>338.25</ele><time>2026-03-29T11:51:37.452Z</time></trkpt><trkpt lat="43.21291" lon="12.2081796"><ele>339.5</ele><time>2026-03-29T11:51:38.452Z</time></trkpt><trkpt lat="43.2128056" lon="12.2082278"><ele>340.75</ele><time>2026-03-29T11:51:39.453Z</time></trkpt><trkpt lat="43.2126592" lon="12.2082901"><ele>342.0</ele><time>2026-03-29T11:51:41.453Z</time></trkpt><trkpt lat="43.2125818" lon="12.2083485"><ele>342.0</ele><time>2026-03-29T11:51:42.453Z</time></trkpt><trkpt lat="43.2125063" lon="12.2084016"><ele>342.0</ele><time>2026-03-29T11:51:43.453Z</time></trkpt><trkpt lat="43.2124292" lon="12.2084461"><ele>342.0</ele><time>2026-03-29T11:51:44.452Z</time></trkpt><trkpt lat="43.2123686" lon="12.2084914"><ele>342.0</ele><time>2026-03-29T11:51:45.452Z</time></trkpt><trkpt lat="43.2123021" lon="12.2085478"><ele>342.0</ele><time>2026-03-29T11:51:46.453Z</time></trkpt><trkpt lat="43.2122348" lon="12.2086143"><ele>342.0</ele><time>2026-03-29T11:51:47.452Z</time></trkpt><trkpt lat="43.2121647" lon="12.2086815"><ele>342.8</ele><time>2026-03-29T11:51:48.452Z</time></trkpt><trkpt lat="43.2120919" lon="12.2087806"><ele>343.6</ele><time>2026-03-29T11:51:49.452Z</time></trkpt><trkpt lat="43.2120297" lon="12.2088651"><ele>344.40000000000003</ele><time>2026-03-29T11:51:50.452Z</time></trkpt><trkpt lat="43.211964" lon="12.2089391"><ele>345.20000000000005</ele><time>2026-03-29T11:51:51.453Z</time></trkpt><trkpt lat="43.2119037" lon="12.2090472"><ele>346.0</ele><time>2026-03-29T11:51:53.453Z</time></trkpt><trkpt lat="43.2119418" lon="12.2091981"><ele>346.0</ele><time>2026-03-29T11:51:54.452Z</time></trkpt><trkpt lat="43.2119599" lon="12.2093141"><ele>346.0</ele><time>2026-03-29T11:51:55.453Z</time></trkpt><trkpt lat="43.2119797" lon="12.2094366"><ele>346.0</ele><time>2026-03-29T11:51:56.452Z</time></trkpt><trkpt lat="43.2120074" lon="12.2095675"><ele>346.0</ele><time>2026-03-29T11:51:57.452Z</time></trkpt><trkpt lat="43.2119922" lon="12.2097299"><ele>346.0</ele><time>2026-03-29T11:51:59.452Z</time></trkpt><trkpt lat="43.2119578" lon="12.2098062"><ele>347.25</ele><time>2026-03-29T11:52:00.453Z</time></trkpt><trkpt lat="43.2119711" lon="12.2099515"><ele>348.5</ele><time>2026-03-29T11:52:02.452Z</time></trkpt><trkpt lat="43.2119958" lon="12.2101676"><ele>349.75</ele><time>2026-03-29T11:52:04.452Z</time></trkpt><trkpt lat="43.2119681" lon="12.2102455"><ele>351.0</ele><time>2026-03-29T11:52:05.453Z</time></trkpt><trkpt lat="43.2119504" lon="12.2104241"><ele>351.0</ele><time>2026-03-29T11:52:06.452Z</time></trkpt><trkpt lat="43.2119404" lon="12.2105971"><ele>351.0</ele><time>2026-03-29T11:52:07.453Z</time></trkpt><trkpt lat="43.2119199" lon="12.2106938"><ele>351.0</ele><time>2026-03-29T11:52:08.453Z</time></trkpt><trkpt lat="43.2118546" lon="12.2107222"><ele>351.0</ele><time>2026-03-29T11:52:10.453Z</time></trkpt><trkpt lat="43.2117712" lon="12.2106993"><ele>351.0</ele><time>2026-03-29T11:52:12.452Z</time></trkpt><trkpt lat="43.2117153" lon="12.2106404"><ele>351.0</ele><time>2026-03-29T11:52:14.452Z</time></trkpt><trkpt lat="43.2116992" lon="12.2105526"><ele>351.0</ele><time>2026-03-29T11:52:16.452Z</time></trkpt><trkpt lat="43.2117223" lon="12.2104246"><ele>351.0</ele><time>2026-03-29T11:52:21.452Z</time></trkpt><trkpt lat="43.2117117" lon="12.2103204"><ele>351.0</ele><time>2026-03-29T11:52:23.453Z</time></trkpt><trkpt lat="43.2116785" lon="12.2102145"><ele>351.0</ele><time>2026-03-29T11:52:25.453Z</time></trkpt><trkpt lat="43.2116444" lon="12.2101177"><ele>351.0</ele><time>2026-03-29T11:52:27.452Z</time></trkpt><trkpt lat="43.2116141" lon="12.209991"><ele>351.0</ele><time>2026-03-29T11:52:29.452Z</time></trkpt><trkpt lat="43.2115634" lon="12.2098767"><ele>352.20000000000005</ele><time>2026-03-29T11:52:31.452Z</time></trkpt><trkpt lat="43.2114779" lon="12.2097896"><ele>353.40000000000003</ele><time>2026-03-29T11:52:33.452Z</time></trkpt><trkpt lat="43.2113953" lon="12.2096844"><ele>354.6</ele><time>2026-03-29T11:52:35.452Z</time></trkpt><trkpt lat="43.2113476" lon="12.209622"><ele>355.8</ele><time>2026-03-29T11:52:36.452Z</time></trkpt><trkpt lat="43.2112709" lon="12.2096139"><ele>357.0</ele><time>2026-03-29T11:52:38.452Z</time></trkpt><trkpt lat="43.2112213" lon="12.2098011"><ele>356.40000000000003</ele><time>2026-03-29T11:52:41.453Z</time></trkpt><trkpt lat="43.211132" lon="12.2098666"><ele>355.8</ele><time>2026-03-29T11:52:43.453Z</time></trkpt><trkpt lat="43.210998" lon="12.2098648"><ele>355.2</ele><time>2026-03-29T11:52:45.453Z</time></trkpt><trkpt lat="43.2109435" lon="12.2099126"><ele>354.6</ele><time>2026-03-29T11:52:46.453Z</time></trkpt><trkpt lat="43.2108921" lon="12.2099631"><ele>354.0</ele><time>2026-03-29T11:52:47.452Z</time></trkpt><trkpt lat="43.2107876" lon="12.2099951"><ele>354.0</ele><time>2026-03-29T11:52:49.453Z</time></trkpt><trkpt lat="43.210711" lon="12.2100229"><ele>354.0</ele><time>2026-03-29T11:52:51.452Z</time></trkpt><trkpt lat="43.2106176" lon="12.2100289"><ele>354.0</ele><time>2026-03-29T11:52:53.452Z</time></trkpt><trkpt lat="43.2105818" lon="12.2101195"><ele>354.0</ele><time>2026-03-29T11:52:56.453Z</time></trkpt><trkpt lat="43.2105125" lon="12.2101988"><ele>354.0</ele><time>2026-03-29T11:52:59.452Z</time></trkpt><trkpt lat="43.2104139" lon="12.2102694"><ele>354.0</ele><time>2026-03-29T11:53:00.453Z</time></trkpt><trkpt lat="43.2103249" lon="12.2103265"><ele>356.4</ele><time>2026-03-29T11:53:01.453Z</time></trkpt><trkpt lat="43.2102577" lon="12.210327"><ele>358.79999999999995</ele><time>2026-03-29T11:53:02.452Z</time></trkpt><trkpt lat="43.2101977" lon="12.2103597"><ele>361.20000000000005</ele><time>2026-03-29T11:53:12.452Z</time></trkpt><trkpt lat="43.2101586" lon="12.2104465"><ele>363.6</ele><time>2026-03-29T11:53:14.452Z</time></trkpt><trkpt lat="43.2100746" lon="12.2106653"><ele>366.0</ele><time>2026-03-29T11:53:16.453Z</time></trkpt><trkpt lat="43.2100102" lon="12.210733"><ele>366.0</ele><time>2026-03-29T11:53:17.453Z</time></trkpt><trkpt lat="43.2099447" lon="12.21079"><ele>366.0</ele><time>2026-03-29T11:53:18.453Z</time></trkpt><trkpt lat="43.2098515" lon="12.2107842"><ele>366.0</ele><time>2026-03-29T11:53:21.453Z</time></trkpt><trkpt lat="43.2097921" lon="12.2108428"><ele>366.0</ele><time>2026-03-29T11:53:25.452Z</time></trkpt><trkpt lat="43.2097144" lon="12.2108284"><ele>366.0</ele><time>2026-03-29T11:53:29.453Z</time></trkpt><trkpt lat="43.2096532" lon="12.2108608"><ele>366.0</ele><time>2026-03-29T11:53:32.452Z</time></trkpt><trkpt lat="43.209584" lon="12.2108944"><ele>367.8333333333333</ele><time>2026-03-29T11:53:35.452Z</time></trkpt><trkpt lat="43.2095201" lon="12.2109307"><ele>369.6666666666667</ele><time>2026-03-29T11:53:37.452Z</time></trkpt><trkpt lat="43.2094638" lon="12.2109749"><ele>371.5</ele><time>2026-03-29T11:53:39.452Z</time></trkpt><trkpt lat="43.2094112" lon="12.2110269"><ele>373.33333333333337</ele><time>2026-03-29T11:53:42.453Z</time></trkpt><trkpt lat="43.2093479" lon="12.2111185"><ele>375.1666666666667</ele><time>2026-03-29T11:53:46.452Z</time></trkpt><trkpt lat="43.2092877" lon="12.2112043"><ele>377.0</ele><time>2026-03-29T11:53:48.452Z</time></trkpt><trkpt lat="43.2092633" lon="12.2113134"><ele>377.0</ele><time>2026-03-29T11:53:49.453Z</time></trkpt><trkpt lat="43.2092175" lon="12.2114134"><ele>377.0</ele><time>2026-03-29T11:53:52.452Z</time></trkpt><trkpt lat="43.20919" lon="12.2115024"><ele>377.0</ele><time>2026-03-29T11:53:54.452Z</time></trkpt><trkpt lat="43.20919" lon="12.2115958"><ele>377.0</ele><time>2026-03-29T11:53:58.453Z</time></trkpt><trkpt lat="43.2091699" lon="12.2117626"><ele>377.0</ele><time>2026-03-29T11:55:20.453Z</time></trkpt><trkpt lat="43.2092224" lon="12.2118476"><ele>377.0</ele><time>2026-03-29T11:55:26.452Z</time></trkpt><trkpt lat="43.2092779" lon="12.2119007"><ele>376.20000000000005</ele><time>2026-03-29T11:55:27.452Z</time></trkpt><trkpt lat="43.2093362" lon="12.211966"><ele>375.4</ele><time>2026-03-29T11:55:28.453Z</time></trkpt><trkpt lat="43.2094006" lon="12.2121397"><ele>374.6</ele><time>2026-03-29T11:55:29.453Z</time></trkpt><trkpt lat="43.2094475" lon="12.2122673"><ele>373.79999999999995</ele><time>2026-03-29T11:55:31.453Z</time></trkpt><trkpt lat="43.2094595" lon="12.2123614"><ele>373.0</ele><time>2026-03-29T11:55:33.452Z</time></trkpt><trkpt lat="43.2094749" lon="12.2124487"><ele>374.5</ele><time>2026-03-29T11:55:36.452Z</time></trkpt><trkpt lat="43.2094737" lon="12.2125462"><ele>376.0</ele><time>2026-03-29T11:55:38.452Z</time></trkpt><trkpt lat="43.2095186" lon="12.2126436"><ele>377.5</ele><time>2026-03-29T11:55:40.453Z</time></trkpt><trkpt lat="43.2095674" lon="12.2127172"><ele>379.0</ele><time>2026-03-29T11:55:41.453Z</time></trkpt><trkpt lat="43.2095963" lon="12.2127967"><ele>380.5</ele><time>2026-03-29T11:55:42.453Z</time></trkpt><trkpt lat="43.2095954" lon="12.2129629"><ele>382.0</ele><time>2026-03-29T11:55:44.453Z</time></trkpt><trkpt lat="43.209588" lon="12.2130563"><ele>382.0</ele><time>2026-03-29T11:55:46.453Z</time></trkpt><trkpt lat="43.2095683" lon="12.2131465"><ele>382.0</ele><time>2026-03-29T11:55:48.453Z</time></trkpt><trkpt lat="43.2095095" lon="12.2132118"><ele>382.0</ele><time>2026-03-29T11:55:50.452Z</time></trkpt><trkpt lat="43.2094773" lon="12.2133204"><ele>382.0</ele><time>2026-03-29T11:55:52.452Z</time></trkpt><trkpt lat="43.2094568" lon="12.2134303"><ele>382.0</ele><time>2026-03-29T11:55:54.452Z</time></trkpt><trkpt lat="43.2094183" lon="12.2135055"><ele>382.0</ele><time>2026-03-29T12:11:10.453Z</time></trkpt><trkpt lat="43.2093878" lon="12.2136068"><ele>385.20000000000005</ele><time>2026-03-29T12:11:13.453Z</time></trkpt><trkpt lat="43.2093424" lon="12.2137734"><ele>388.4</ele><time>2026-03-29T12:11:15.453Z</time></trkpt><trkpt lat="43.2093231" lon="12.2138635"><ele>391.6</ele><time>2026-03-29T12:11:16.452Z</time></trkpt><trkpt lat="43.2093034" lon="12.2139488"><ele>394.79999999999995</ele><time>2026-03-29T12:11:17.453Z</time></trkpt><trkpt lat="43.2092759" lon="12.2140347"><ele>398.0</ele><time>2026-03-29T12:11:18.452Z</time></trkpt><trkpt lat="43.2092411" lon="12.2142048"><ele>400.16666666666663</ele><time>2026-03-29T12:11:20.453Z</time></trkpt><trkpt lat="43.2092415" lon="12.2143842"><ele>402.3333333333333</ele><time>2026-03-29T12:11:22.453Z</time></trkpt><trkpt lat="43.2091988" lon="12.214509"><ele>404.5</ele><time>2026-03-29T12:11:24.453Z</time></trkpt><trkpt lat="43.2091487" lon="12.2145717"><ele>406.66666666666663</ele><time>2026-03-29T12:11:25.452Z</time></trkpt><trkpt lat="43.2090912" lon="12.2146369"><ele>408.8333333333333</ele><time>2026-03-29T12:11:26.453Z</time></trkpt><trkpt lat="43.2090394" lon="12.214707"><ele>411.0</ele><time>2026-03-29T12:11:27.453Z</time></trkpt><trkpt lat="43.2089952" lon="12.2147902"><ele>411.1666666666667</ele><time>2026-03-29T12:11:28.452Z</time></trkpt><trkpt lat="43.2089612" lon="12.2148937"><ele>411.33333333333337</ele><time>2026-03-29T12:11:29.453Z</time></trkpt><trkpt lat="43.2089515" lon="12.2150251"><ele>411.5</ele><time>2026-03-29T12:11:30.452Z</time></trkpt><trkpt lat="43.2089253" lon="12.2151414"><ele>411.6666666666667</ele><time>2026-03-29T12:11:31.453Z</time></trkpt><trkpt lat="43.2089086" lon="12.2152589"><ele>411.83333333333337</ele><time>2026-03-29T12:11:32.453Z</time></trkpt><trkpt lat="43.2088594" lon="12.21536"><ele>412.0</ele><time>2026-03-29T12:11:33.452Z</time></trkpt><trkpt lat="43.2088243" lon="12.2155145"><ele>415.5</ele><time>2026-03-29T12:11:34.453Z</time></trkpt><trkpt lat="43.20879" lon="12.2156787"><ele>419.0</ele><time>2026-03-29T12:11:35.452Z</time></trkpt><trkpt lat="43.2087805" lon="12.2158603"><ele>422.5</ele><time>2026-03-29T12:11:36.453Z</time></trkpt><trkpt lat="43.2087625" lon="12.2160113"><ele>426.0</ele><time>2026-03-29T12:11:37.453Z</time></trkpt><trkpt lat="43.2087628" lon="12.2161336"><ele>426.0</ele><time>2026-03-29T12:11:38.452Z</time></trkpt><trkpt lat="43.2087947" lon="12.2162399"><ele>426.0</ele><time>2026-03-29T12:11:39.453Z</time></trkpt><trkpt lat="43.2088844" lon="12.2163106"><ele>426.0</ele><time>2026-03-29T12:11:40.452Z</time></trkpt><trkpt lat="43.2089247" lon="12.2164046"><ele>426.0</ele><time>2026-03-29T12:11:41.453Z</time></trkpt><trkpt lat="43.20898" lon="12.2164913"><ele>426.0</ele><time>2026-03-29T12:11:42.452Z</time></trkpt><trkpt lat="43.2090933" lon="12.2165357"><ele>430.4</ele><time>2026-03-29T12:11:43.453Z</time></trkpt><trkpt lat="43.209184" lon="12.2165759"><ele>434.8</ele><time>2026-03-29T12:11:44.453Z</time></trkpt><trkpt lat="43.2092627" lon="12.2166057"><ele>439.19999999999993</ele><time>2026-03-29T12:11:45.452Z</time></trkpt><trkpt lat="43.209348" lon="12.216658"><ele>443.59999999999997</ele><time>2026-03-29T12:11:46.452Z</time></trkpt><trkpt lat="43.2094257" lon="12.2167127"><ele>448.0</ele><time>2026-03-29T12:11:47.452Z</time></trkpt><trkpt lat="43.2095067" lon="12.216783"><ele>448.0</ele><time>2026-03-29T12:11:48.452Z</time></trkpt><trkpt lat="43.2095148" lon="12.2168814"><ele>447.99999999999994</ele><time>2026-03-29T12:11:49.453Z</time></trkpt><trkpt lat="43.2096163" lon="12.2169698"><ele>447.99999999999994</ele><time>2026-03-29T12:11:50.453Z</time></trkpt><trkpt lat="43.2097024" lon="12.2170123"><ele>448.0</ele><time>2026-03-29T12:11:51.452Z</time></trkpt><trkpt lat="43.2097808" lon="12.2170634"><ele>448.0</ele><time>2026-03-29T12:11:52.453Z</time></trkpt><trkpt lat="43.2098615" lon="12.2171277"><ele>447.59999999999997</ele><time>2026-03-29T12:11:53.452Z</time></trkpt><trkpt lat="43.2099367" lon="12.2172054"><ele>447.19999999999993</ele><time>2026-03-29T12:11:54.452Z</time></trkpt><trkpt lat="43.2100107" lon="12.2172454"><ele>446.8</ele><time>2026-03-29T12:11:55.453Z</time></trkpt><trkpt lat="43.2100787" lon="12.2173156"><ele>446.4</ele><time>2026-03-29T12:11:56.453Z</time></trkpt><trkpt lat="43.2101946" lon="12.2173664"><ele>446.0</ele><time>2026-03-29T12:11:58.453Z</time></trkpt><trkpt lat="43.2103097" lon="12.2173625"><ele>449.16666666666663</ele><time>2026-03-29T12:11:59.453Z</time></trkpt><trkpt lat="43.2103929" lon="12.2173815"><ele>452.3333333333333</ele><time>2026-03-29T12:12:00.452Z</time></trkpt><trkpt lat="43.2104703" lon="12.2174274"><ele>455.5</ele><time>2026-03-29T12:12:01.452Z</time></trkpt><trkpt lat="43.2105281" lon="12.217486"><ele>458.66666666666663</ele><time>2026-03-29T12:12:02.452Z</time></trkpt><trkpt lat="43.2105531" lon="12.2175674"><ele>461.8333333333333</ele><time>2026-03-29T12:12:03.452Z</time></trkpt><trkpt lat="43.2105602" lon="12.2176676"><ele>465.0</ele><time>2026-03-29T12:12:04.453Z</time></trkpt><trkpt lat="43.2105195" lon="12.2178097"><ele>465.0</ele><time>2026-03-29T12:12:06.452Z</time></trkpt><trkpt lat="43.2104136" lon="12.2179257"><ele>465.0</ele><time>2026-03-29T12:12:07.453Z</time></trkpt><trkpt lat="43.2103348" lon="12.2180281"><ele>465.0</ele><time>2026-03-29T12:12:08.452Z</time></trkpt><trkpt lat="43.2102485" lon="12.2181607"><ele>465.0</ele><time>2026-03-29T12:12:09.453Z</time></trkpt><trkpt lat="43.2101556" lon="12.2182689"><ele>467.25</ele><time>2026-03-29T12:12:10.453Z</time></trkpt><trkpt lat="43.2101206" lon="12.2184187"><ele>469.5</ele><time>2026-03-29T12:12:11.453Z</time></trkpt><trkpt lat="43.2100548" lon="12.2185525"><ele>471.75</ele><time>2026-03-29T12:12:12.453Z</time></trkpt><trkpt lat="43.2099903" lon="12.2186905"><ele>474.0</ele><time>2026-03-29T12:12:13.452Z</time></trkpt><trkpt lat="43.2099077" lon="12.2188514"><ele>476.75</ele><time>2026-03-29T12:12:14.452Z</time></trkpt><trkpt lat="43.2098276" lon="12.2190054"><ele>479.5</ele><time>2026-03-29T12:12:15.452Z</time></trkpt><trkpt lat="43.2097545" lon="12.2191359"><ele>482.25</ele><time>2026-03-29T12:12:16.453Z</time></trkpt><trkpt lat="43.2096946" lon="12.2192504"><ele>485.0</ele><time>2026-03-29T12:12:17.453Z</time></trkpt><trkpt lat="43.209628" lon="12.2193537"><ele>486.2</ele><time>2026-03-29T12:12:18.452Z</time></trkpt><trkpt lat="43.2095609" lon="12.2194509"><ele>487.4</ele><time>2026-03-29T12:12:19.453Z</time></trkpt><trkpt lat="43.2094972" lon="12.2195192"><ele>488.6</ele><time>2026-03-29T12:12:20.453Z</time></trkpt><trkpt lat="43.209446" lon="12.2195783"><ele>489.8</ele><time>2026-03-29T12:12:21.453Z</time></trkpt><trkpt lat="43.2093605" lon="12.2195663"><ele>491.0</ele><time>2026-03-29T12:12:23.452Z</time></trkpt><trkpt lat="43.2092412" lon="12.2194509"><ele>491.0</ele><time>2026-03-29T12:12:24.453Z</time></trkpt><trkpt lat="43.2091561" lon="12.2193951"><ele>491.0</ele><time>2026-03-29T12:12:25.452Z</time></trkpt><trkpt lat="43.209064" lon="12.2192935"><ele>491.0</ele><time>2026-03-29T12:12:26.452Z</time></trkpt><trkpt lat="43.2089886" lon="12.2192284"><ele>491.0</ele><time>2026-03-29T12:12:27.452Z</time></trkpt><trkpt lat="43.2089171" lon="12.219153"><ele>491.0</ele><time>2026-03-29T12:12:28.453Z</time></trkpt><trkpt lat="43.2088389" lon="12.2190771"><ele>490.3333333333333</ele><time>2026-03-29T12:12:29.453Z</time></trkpt><trkpt lat="43.2087349" lon="12.2190292"><ele>489.66666666666663</ele><time>2026-03-29T12:12:31.453Z</time></trkpt><trkpt lat="43.2086197" lon="12.2190584"><ele>489.0</ele><time>2026-03-29T12:12:33.453Z</time></trkpt><trkpt lat="43.2085589" lon="12.2191035"><ele>488.33333333333337</ele><time>2026-03-29T12:12:34.453Z</time></trkpt><trkpt lat="43.2085027" lon="12.2191641"><ele>487.6666666666667</ele><time>2026-03-29T12:12:35.452Z</time></trkpt><trkpt lat="43.2084489" lon="12.2192359"><ele>487.0</ele><time>2026-03-29T12:12:36.452Z</time></trkpt><trkpt lat="43.2083914" lon="12.2193049"><ele>487.0</ele><time>2026-03-29T12:12:37.452Z</time></trkpt><trkpt lat="43.2083334" lon="12.2193824"><ele>487.00000000000006</ele><time>2026-03-29T12:12:38.453Z</time></trkpt><trkpt lat="43.2082541" lon="12.2194636"><ele>487.00000000000006</ele><time>2026-03-29T12:12:39.452Z</time></trkpt><trkpt lat="43.2081832" lon="12.2195546"><ele>487.0</ele><time>2026-03-29T12:12:40.453Z</time></trkpt><trkpt lat="43.2081265" lon="12.219665"><ele>487.0</ele><time>2026-03-29T12:12:41.452Z</time></trkpt><trkpt lat="43.2080494" lon="12.2197896"><ele>491.40000000000003</ele><time>2026-03-29T12:12:42.452Z</time></trkpt><trkpt lat="43.2079777" lon="12.219916"><ele>495.80000000000007</ele><time>2026-03-29T12:12:43.452Z</time></trkpt><trkpt lat="43.2078894" lon="12.2200549"><ele>500.2</ele><time>2026-03-29T12:12:44.453Z</time></trkpt><trkpt lat="43.2078136" lon="12.2201674"><ele>504.6</ele><time>2026-03-29T12:12:45.451Z</time></trkpt><trkpt lat="43.2077628" lon="12.2202289"><ele>509.0</ele><time>2026-03-29T12:12:46.452Z</time></trkpt><trkpt lat="43.207654" lon="12.220208"><ele>509.0</ele><time>2026-03-29T12:12:48.453Z</time></trkpt><trkpt lat="43.2075813" lon="12.2200342"><ele>509.0</ele><time>2026-03-29T12:12:50.452Z</time></trkpt><trkpt lat="43.207525" lon="12.2199777"><ele>509.0</ele><time>2026-03-29T12:12:51.452Z</time></trkpt><trkpt lat="43.2074494" lon="12.2199465"><ele>509.0</ele><time>2026-03-29T12:12:52.452Z</time></trkpt><trkpt lat="43.2073786" lon="12.2199544"><ele>509.0</ele><time>2026-03-29T12:12:53.452Z</time></trkpt><trkpt lat="43.2072913" lon="12.2200079"><ele>510.0</ele><time>2026-03-29T12:12:54.453Z</time></trkpt><trkpt lat="43.2072127" lon="12.2200712"><ele>511.0</ele><time>2026-03-29T12:12:55.452Z</time></trkpt><trkpt lat="43.2071349" lon="12.2201516"><ele>512.0</ele><time>2026-03-29T12:12:56.453Z</time></trkpt><trkpt lat="43.2070437" lon="12.2202309"><ele>513.0</ele><time>2026-03-29T12:12:57.453Z</time></trkpt><trkpt lat="43.2069369" lon="12.2203047"><ele>514.0</ele><time>2026-03-29T12:12:58.453Z</time></trkpt><trkpt lat="43.2068187" lon="12.2203764"><ele>514.0</ele><time>2026-03-29T12:12:59.452Z</time></trkpt><trkpt lat="43.2067089" lon="12.2204614"><ele>514.0</ele><time>2026-03-29T12:13:00.452Z</time></trkpt><trkpt lat="43.2065936" lon="12.2205456"><ele>514.0</ele><time>2026-03-29T12:13:01.451Z</time></trkpt><trkpt lat="43.2064817" lon="12.2206255"><ele>514.0</ele><time>2026-03-29T12:13:02.453Z</time></trkpt><trkpt lat="43.2063811" lon="12.2206667"><ele>515.0</ele><time>2026-03-29T12:13:03.453Z</time></trkpt><trkpt lat="43.2062894" lon="12.2206755"><ele>516.0</ele><time>2026-03-29T12:13:04.452Z</time></trkpt><trkpt lat="43.2061979" lon="12.2206538"><ele>517.0</ele><time>2026-03-29T12:13:05.452Z</time></trkpt><trkpt lat="43.2061099" lon="12.2206064"><ele>518.0</ele><time>2026-03-29T12:13:06.452Z</time></trkpt><trkpt lat="43.2060242" lon="12.2205762"><ele>519.0</ele><time>2026-03-29T12:13:07.453Z</time></trkpt><trkpt lat="43.2059355" lon="12.220572"><ele>519.0</ele><time>2026-03-29T12:13:08.453Z</time></trkpt><trkpt lat="43.2058445" lon="12.2206029"><ele>519.0</ele><time>2026-03-29T12:13:09.452Z</time></trkpt><trkpt lat="43.2057358" lon="12.2206415"><ele>519.0</ele><time>2026-03-29T12:13:10.453Z</time></trkpt><trkpt lat="43.2056377" lon="12.2206759"><ele>519.0</ele><time>2026-03-29T12:13:11.452Z</time></trkpt><trkpt lat="43.2055141" lon="12.2207343"><ele>519.0</ele><time>2026-03-29T12:13:12.453Z</time></trkpt><trkpt lat="43.2053618" lon="12.2207993"><ele>524.2</ele><time>2026-03-29T12:13:13.453Z</time></trkpt><trkpt lat="43.205271" lon="12.2208189"><ele>529.4</ele><time>2026-03-29T12:13:14.452Z</time></trkpt><trkpt lat="43.2051712" lon="12.2208819"><ele>534.6</ele><time>2026-03-29T12:13:15.452Z</time></trkpt><trkpt lat="43.2050773" lon="12.2209401"><ele>539.8</ele><time>2026-03-29T12:13:16.452Z</time></trkpt><trkpt lat="43.2049939" lon="12.2210124"><ele>545.0</ele><time>2026-03-29T12:13:17.453Z</time></trkpt><trkpt lat="43.2049515" lon="12.2211048"><ele>545.0</ele><time>2026-03-29T12:13:18.453Z</time></trkpt><trkpt lat="43.2049231" lon="12.2212661"><ele>545.0</ele><time>2026-03-29T12:13:20.452Z</time></trkpt><trkpt lat="43.2049415" lon="12.2213593"><ele>545.0</ele><time>2026-03-29T12:13:21.453Z</time></trkpt><trkpt lat="43.20501" lon="12.2213816"><ele>545.0</ele><time>2026-03-29T12:13:22.453Z</time></trkpt><trkpt lat="43.2051283" lon="12.2214143"><ele>545.0</ele><time>2026-03-29T12:13:24.452Z</time></trkpt><trkpt lat="43.205172" lon="12.2215275"><ele>547.8</ele><time>2026-03-29T12:13:26.451Z</time></trkpt><trkpt lat="43.2051173" lon="12.2216686"><ele>550.6</ele><time>2026-03-29T12:13:28.453Z</time></trkpt><trkpt lat="43.2050573" lon="12.2217613"><ele>553.4</ele><time>2026-03-29T12:13:29.452Z</time></trkpt><trkpt lat="43.2050021" lon="12.2218565"><ele>556.2</ele><time>2026-03-29T12:13:30.453Z</time></trkpt><trkpt lat="43.2049471" lon="12.2219505"><ele>559.0</ele><time>2026-03-29T12:13:31.453Z</time></trkpt><trkpt lat="43.2048956" lon="12.2220251"><ele>559.8</ele><time>2026-03-29T12:13:32.451Z</time></trkpt><trkpt lat="43.204824" lon="12.222109"><ele>560.5999999999999</ele><time>2026-03-29T12:13:33.453Z</time></trkpt><trkpt lat="43.2047336" lon="12.2221885"><ele>561.4</ele><time>2026-03-29T12:13:34.452Z</time></trkpt><trkpt lat="43.204641" lon="12.2222524"><ele>562.1999999999999</ele><time>2026-03-29T12:13:35.452Z</time></trkpt><trkpt lat="43.2045417" lon="12.222299"><ele>563.0</ele><time>2026-03-29T12:13:36.452Z</time></trkpt><trkpt lat="43.2044401" lon="12.2223274"><ele>566.5</ele><time>2026-03-29T12:13:37.452Z</time></trkpt><trkpt lat="43.2043355" lon="12.2223833"><ele>570.0</ele><time>2026-03-29T12:13:38.453Z</time></trkpt><trkpt lat="43.20423" lon="12.2224397"><ele>573.5</ele><time>2026-03-29T12:13:39.453Z</time></trkpt><trkpt lat="43.2041295" lon="12.2225014"><ele>577.0</ele><time>2026-03-29T12:13:40.453Z</time></trkpt><trkpt lat="43.2040199" lon="12.2225781"><ele>577.5</ele><time>2026-03-29T12:13:41.453Z</time></trkpt><trkpt lat="43.2038961" lon="12.2226724"><ele>578.0</ele><time>2026-03-29T12:13:42.452Z</time></trkpt><trkpt lat="43.2037805" lon="12.2227801"><ele>578.5</ele><time>2026-03-29T12:13:43.453Z</time></trkpt><trkpt lat="43.2036838" lon="12.2228887"><ele>579.0</ele><time>2026-03-29T12:13:44.452Z</time></trkpt><trkpt lat="43.2036035" lon="12.2229894"><ele>579.0</ele><time>2026-03-29T12:13:45.452Z</time></trkpt><trkpt lat="43.2035189" lon="12.2230709"><ele>579.0</ele><time>2026-03-29T12:13:46.452Z</time></trkpt><trkpt lat="43.2034131" lon="12.2231314"><ele>579.0</ele><time>2026-03-29T12:13:47.452Z</time></trkpt><trkpt lat="43.2033018" lon="12.2231899"><ele>579.0</ele><time>2026-03-29T12:13:48.453Z</time></trkpt><trkpt lat="43.2031895" lon="12.2232538"><ele>583.2</ele><time>2026-03-29T12:13:49.452Z</time></trkpt><trkpt lat="43.2030863" lon="12.2232903"><ele>587.4</ele><time>2026-03-29T12:13:50.452Z</time></trkpt><trkpt lat="43.2029855" lon="12.22331"><ele>591.6</ele><time>2026-03-29T12:13:51.453Z</time></trkpt><trkpt lat="43.2028847" lon="12.2232988"><ele>595.8</ele><time>2026-03-29T12:13:52.453Z</time></trkpt><trkpt lat="43.2027886" lon="12.223271"><ele>600.0</ele><time>2026-03-29T12:13:53.453Z</time></trkpt><trkpt lat="43.2027035" lon="12.2232557"><ele>600.0</ele><time>2026-03-29T12:13:54.453Z</time></trkpt><trkpt lat="43.2026191" lon="12.223277"><ele>600.0</ele><time>2026-03-29T12:13:55.453Z</time></trkpt><trkpt lat="43.2025463" lon="12.2233308"><ele>600.0</ele><time>2026-03-29T12:13:56.452Z</time></trkpt><trkpt lat="43.2024878" lon="12.2234121"><ele>600.0</ele><time>2026-03-29T12:13:57.453Z</time></trkpt><trkpt lat="43.2024558" lon="12.223521"><ele>600.0</ele><time>2026-03-29T12:13:58.452Z</time></trkpt><trkpt lat="43.202432" lon="12.2236203"><ele>600.0</ele><time>2026-03-29T12:13:59.453Z</time></trkpt><trkpt lat="43.2023476" lon="12.2237468"><ele>601.3333333333334</ele><time>2026-03-29T12:14:01.452Z</time></trkpt><trkpt lat="43.2022651" lon="12.2237504"><ele>602.6666666666666</ele><time>2026-03-29T12:14:02.453Z</time></trkpt><trkpt lat="43.2021879" lon="12.2237358"><ele>604.0</ele><time>2026-03-29T12:14:03.453Z</time></trkpt><trkpt lat="43.2021244" lon="12.2237535"><ele>605.3333333333333</ele><time>2026-03-29T12:14:04.452Z</time></trkpt><trkpt lat="43.2020451" lon="12.2238805"><ele>606.6666666666666</ele><time>2026-03-29T12:14:06.453Z</time></trkpt><trkpt lat="43.2020581" lon="12.2239734"><ele>608.0</ele><time>2026-03-29T12:14:07.452Z</time></trkpt><trkpt lat="43.2020546" lon="12.2240597"><ele>612.4</ele><time>2026-03-29T12:14:08.453Z</time></trkpt><trkpt lat="43.2020353" lon="12.2242162"><ele>616.8</ele><time>2026-03-29T12:14:10.452Z</time></trkpt><trkpt lat="43.2019203" lon="12.2243023"><ele>621.2</ele><time>2026-03-29T12:14:12.452Z</time></trkpt><trkpt lat="43.201837" lon="12.224334"><ele>625.6</ele><time>2026-03-29T12:14:13.452Z</time></trkpt><trkpt lat="43.2017558" lon="12.224428"><ele>630.0</ele><time>2026-03-29T12:14:14.452Z</time></trkpt><trkpt lat="43.2016809" lon="12.2245081"><ele>630.0</ele><time>2026-03-29T12:14:15.452Z</time></trkpt><trkpt lat="43.2015816" lon="12.2245795"><ele>630.0</ele><time>2026-03-29T12:14:16.453Z</time></trkpt><trkpt lat="43.2015195" lon="12.2246515"><ele>630.0</ele><time>2026-03-29T12:14:17.452Z</time></trkpt><trkpt lat="43.201465" lon="12.2247056"><ele>630.0</ele><time>2026-03-29T12:14:18.452Z</time></trkpt><trkpt lat="43.2013567" lon="12.224746"><ele>630.0</ele><time>2026-03-29T12:14:20.453Z</time></trkpt><trkpt lat="43.2012154" lon="12.2247941"><ele>630.1666666666666</ele><time>2026-03-29T12:14:22.453Z</time></trkpt><trkpt lat="43.2011143" lon="12.2247979"><ele>630.3333333333334</ele><time>2026-03-29T12:14:23.453Z</time></trkpt><trkpt lat="43.20104" lon="12.224835"><ele>630.5</ele><time>2026-03-29T12:14:24.452Z</time></trkpt><trkpt lat="43.2009578" lon="12.2248569"><ele>630.6666666666667</ele><time>2026-03-29T12:14:25.453Z</time></trkpt><trkpt lat="43.200887" lon="12.2248584"><ele>630.8333333333334</ele><time>2026-03-29T12:14:26.451Z</time></trkpt><trkpt lat="43.200793" lon="12.2248322"><ele>631.0</ele><time>2026-03-29T12:14:27.453Z</time></trkpt><trkpt lat="43.2006782" lon="12.2247954"><ele>635.0</ele><time>2026-03-29T12:14:28.452Z</time></trkpt><trkpt lat="43.2005716" lon="12.2247752"><ele>639.0</ele><time>2026-03-29T12:14:29.452Z</time></trkpt><trkpt lat="43.2004713" lon="12.2247578"><ele>643.0</ele><time>2026-03-29T12:14:30.452Z</time></trkpt><trkpt lat="43.2003552" lon="12.2247279"><ele>647.0</ele><time>2026-03-29T12:14:31.452Z</time></trkpt><trkpt lat="43.2002615" lon="12.2247089"><ele>651.0</ele><time>2026-03-29T12:14:32.452Z</time></trkpt><trkpt lat="43.2001675" lon="12.2246873"><ele>651.0</ele><time>2026-03-29T12:14:33.452Z</time></trkpt><trkpt lat="43.2000941" lon="12.2246685"><ele>651.0</ele><time>2026-03-29T12:14:34.452Z</time></trkpt><trkpt lat="43.2000283" lon="12.2246629"><ele>651.0</ele><time>2026-03-29T12:14:35.453Z</time></trkpt><trkpt lat="43.1999685" lon="12.2246923"><ele>651.0</ele><time>2026-03-29T12:14:37.452Z</time></trkpt><trkpt lat="43.2000004" lon="12.224799"><ele>651.0</ele><time>2026-03-29T12:14:39.453Z</time></trkpt><trkpt lat="43.2000462" lon="12.2249008"><ele>651.0</ele><time>2026-03-29T12:14:41.452Z</time></trkpt><trkpt lat="43.2000799" lon="12.2249754"><ele>651.0</ele><time>2026-03-29T12:14:43.453Z</time></trkpt><trkpt lat="43.2001076" lon="12.2250987"><ele>651.4</ele><time>2026-03-29T12:14:47.453Z</time></trkpt><trkpt lat="43.2001634" lon="12.2252382"><ele>651.8</ele><time>2026-03-29T12:14:49.453Z</time></trkpt><trkpt lat="43.2002316" lon="12.225388"><ele>652.1999999999999</ele><time>2026-03-29T12:14:51.453Z</time></trkpt><trkpt lat="43.2002519" lon="12.2254835"><ele>652.5999999999999</ele><time>2026-03-29T12:14:52.451Z</time></trkpt><trkpt lat="43.20026" lon="12.2256105"><ele>653.0</ele><time>2026-03-29T12:14:53.453Z</time></trkpt><trkpt lat="43.2002672" lon="12.2257661"><ele>653.0</ele><time>2026-03-29T12:14:54.452Z</time></trkpt><trkpt lat="43.2002816" lon="12.2259225"><ele>653.0</ele><time>2026-03-29T12:14:55.453Z</time></trkpt><trkpt lat="43.2002934" lon="12.2260756"><ele>653.0</ele><time>2026-03-29T12:14:56.452Z</time></trkpt><trkpt lat="43.2003078" lon="12.2262518"><ele>653.0</ele><time>2026-03-29T12:14:57.454Z</time></trkpt><trkpt lat="43.2003165" lon="12.2264367"><ele>653.5</ele><time>2026-03-29T12:14:58.453Z</time></trkpt><trkpt lat="43.2003295" lon="12.2266163"><ele>654.0</ele><time>2026-03-29T12:14:59.453Z</time></trkpt><trkpt lat="43.2003456" lon="12.2267985"><ele>654.5</ele><time>2026-03-29T12:15:00.453Z</time></trkpt><trkpt lat="43.2003595" lon="12.2269792"><ele>655.0</ele><time>2026-03-29T12:15:01.453Z</time></trkpt><trkpt lat="43.200374" lon="12.2271629"><ele>656.0</ele><time>2026-03-29T12:15:02.453Z</time></trkpt><trkpt lat="43.2003863" lon="12.227342"><ele>657.0</ele><time>2026-03-29T12:15:03.454Z</time></trkpt><trkpt lat="43.2004034" lon="12.2275171"><ele>658.0</ele><time>2026-03-29T12:15:04.454Z</time></trkpt><trkpt lat="43.2004336" lon="12.2276883"><ele>659.0</ele><time>2026-03-29T12:15:05.453Z</time></trkpt><trkpt lat="43.200482" lon="12.2278518"><ele>659.0</ele><time>2026-03-29T12:15:06.454Z</time></trkpt><trkpt lat="43.2005445" lon="12.2280112"><ele>659.0</ele><time>2026-03-29T12:15:07.454Z</time></trkpt><trkpt lat="43.2006181" lon="12.228163"><ele>659.0</ele><time>2026-03-29T12:15:08.454Z</time></trkpt><trkpt lat="43.2007024" lon="12.2283149"><ele>659.0</ele><time>2026-03-29T12:15:09.453Z</time></trkpt><trkpt lat="43.2007822" lon="12.2284587"><ele>661.75</ele><time>2026-03-29T12:15:10.453Z</time></trkpt><trkpt lat="43.2008375" lon="12.2286151"><ele>664.5</ele><time>2026-03-29T12:15:11.454Z</time></trkpt><trkpt lat="43.2008956" lon="12.2287684"><ele>667.25</ele><time>2026-03-29T12:15:12.454Z</time></trkpt><trkpt lat="43.2008827" lon="12.2289361"><ele>670.0</ele><time>2026-03-29T12:15:13.454Z</time></trkpt><trkpt lat="43.2008358" lon="12.2291223"><ele>670.75</ele><time>2026-03-29T12:15:14.454Z</time></trkpt><trkpt lat="43.200801" lon="12.2292856"><ele>671.5</ele><time>2026-03-29T12:15:15.453Z</time></trkpt><trkpt lat="43.2006876" lon="12.2293793"><ele>672.25</ele><time>2026-03-29T12:15:16.453Z</time></trkpt><trkpt lat="43.2005963" lon="12.2294762"><ele>673.0</ele><time>2026-03-29T12:15:17.453Z</time></trkpt><trkpt lat="43.2004624" lon="12.2295016"><ele>668.75</ele><time>2026-03-29T12:15:18.453Z</time></trkpt><trkpt lat="43.2003405" lon="12.2295361"><ele>664.5</ele><time>2026-03-29T12:15:19.453Z</time></trkpt><trkpt lat="43.2002257" lon="12.2295729"><ele>660.25</ele><time>2026-03-29T12:15:20.453Z</time></trkpt><trkpt lat="43.2001194" lon="12.2296069"><ele>656.0</ele><time>2026-03-29T12:15:21.453Z</time></trkpt><trkpt lat="43.2000189" lon="12.229643"><ele>656.0</ele><time>2026-03-29T12:15:22.453Z</time></trkpt><trkpt lat="43.1999217" lon="12.2296974"><ele>656.0</ele><time>2026-03-29T12:15:23.454Z</time></trkpt><trkpt lat="43.1998397" lon="12.2297624"><ele>656.0</ele><time>2026-03-29T12:15:24.453Z</time></trkpt><trkpt lat="43.1997732" lon="12.2298407"><ele>656.0</ele><time>2026-03-29T12:15:25.454Z</time></trkpt><trkpt lat="43.1997245" lon="12.2299462"><ele>656.0</ele><time>2026-03-29T12:15:26.453Z</time></trkpt><trkpt lat="43.1997021" lon="12.2300708"><ele>655.75</ele><time>2026-03-29T12:15:27.453Z</time></trkpt><trkpt lat="43.1997407" lon="12.2302055"><ele>655.5</ele><time>2026-03-29T12:15:28.454Z</time></trkpt><trkpt lat="43.1997985" lon="12.2303355"><ele>655.25</ele><time>2026-03-29T12:15:29.454Z</time></trkpt><trkpt lat="43.1998721" lon="12.2304596"><ele>655.0</ele><time>2026-03-29T12:15:30.454Z</time></trkpt><trkpt lat="43.1999488" lon="12.2305894"><ele>655.5</ele><time>2026-03-29T12:15:31.454Z</time></trkpt><trkpt lat="43.2000357" lon="12.2307219"><ele>656.0</ele><time>2026-03-29T12:15:32.453Z</time></trkpt><trkpt lat="43.2001348" lon="12.2308563"><ele>656.5</ele><time>2026-03-29T12:15:33.454Z</time></trkpt><trkpt lat="43.2002445" lon="12.230976"><ele>657.0</ele><time>2026-03-29T12:15:34.453Z</time></trkpt><trkpt lat="43.200373" lon="12.2310788"><ele>657.0</ele><time>2026-03-29T12:15:35.453Z</time></trkpt><trkpt lat="43.200519" lon="12.2311592"><ele>657.0</ele><time>2026-03-29T12:15:36.453Z</time></trkpt><trkpt lat="43.2006631" lon="12.2312189"><ele>657.0</ele><time>2026-03-29T12:15:37.454Z</time></trkpt><trkpt lat="43.2008157" lon="12.2312506"><ele>658.25</ele><time>2026-03-29T12:15:38.453Z</time></trkpt><trkpt lat="43.2009655" lon="12.231275"><ele>659.5</ele><time>2026-03-29T12:15:39.453Z</time></trkpt><trkpt lat="43.2011085" lon="12.231297"><ele>660.75</ele><time>2026-03-29T12:15:40.453Z</time></trkpt><trkpt lat="43.2012448" lon="12.2313398"><ele>662.0</ele><time>2026-03-29T12:15:41.454Z</time></trkpt><trkpt lat="43.20136" lon="12.2314107"><ele>656.25</ele><time>2026-03-29T12:15:42.454Z</time></trkpt><trkpt lat="43.2014196" lon="12.2315261"><ele>650.5</ele><time>2026-03-29T12:15:43.454Z</time></trkpt><trkpt lat="43.2014575" lon="12.2316831"><ele>644.75</ele><time>2026-03-29T12:15:44.454Z</time></trkpt><trkpt lat="43.2014544" lon="12.2318633"><ele>639.0</ele><time>2026-03-29T12:15:45.453Z</time></trkpt><trkpt lat="43.2014298" lon="12.2320563"><ele>639.0</ele><time>2026-03-29T12:15:46.454Z</time></trkpt><trkpt lat="43.2013989" lon="12.2322585"><ele>639.0</ele><time>2026-03-29T12:15:47.454Z</time></trkpt><trkpt lat="43.2013703" lon="12.2324645"><ele>639.0</ele><time>2026-03-29T12:15:48.454Z</time></trkpt><trkpt lat="43.2013518" lon="12.2326765"><ele>634.3333333333334</ele><time>2026-03-29T12:15:49.454Z</time></trkpt><trkpt lat="43.2013511" lon="12.2328936"><ele>629.6666666666667</ele><time>2026-03-29T12:15:50.453Z</time></trkpt><trkpt lat="43.2013657" lon="12.2331051"><ele>625.0</ele><time>2026-03-29T12:15:51.454Z</time></trkpt><trkpt lat="43.2013929" lon="12.2333191"><ele>625.0</ele><time>2026-03-29T12:15:52.453Z</time></trkpt><trkpt lat="43.2014273" lon="12.2335383"><ele>625.0</ele><time>2026-03-29T12:15:53.454Z</time></trkpt><trkpt lat="43.2014646" lon="12.2337567"><ele>625.0</ele><time>2026-03-29T12:15:54.453Z</time></trkpt><trkpt lat="43.2015018" lon="12.233974"><ele>630.3333333333334</ele><time>2026-03-29T12:15:55.453Z</time></trkpt><trkpt lat="43.2015378" lon="12.2341919"><ele>635.6666666666666</ele><time>2026-03-29T12:15:56.454Z</time></trkpt><trkpt lat="43.2015756" lon="12.2344125"><ele>641.0</ele><time>2026-03-29T12:15:57.453Z</time></trkpt><trkpt lat="43.2016117" lon="12.234627"><ele>641.6666666666666</ele><time>2026-03-29T12:15:58.453Z</time></trkpt><trkpt lat="43.2016455" lon="12.2348423"><ele>642.3333333333334</ele><time>2026-03-29T12:15:59.454Z</time></trkpt><trkpt lat="43.2016791" lon="12.2350561"><ele>643.0</ele><time>2026-03-29T12:16:00.453Z</time></trkpt><trkpt lat="43.2017144" lon="12.2352707"><ele>643.0</ele><time>2026-03-29T12:16:01.454Z</time></trkpt><trkpt lat="43.2017495" lon="12.2354803"><ele>643.0</ele><time>2026-03-29T12:16:02.453Z</time></trkpt><trkpt lat="43.2017894" lon="12.2356901"><ele>643.0</ele><time>2026-03-29T12:16:03.454Z</time></trkpt><trkpt lat="43.2018345" lon="12.2359021"><ele>642.6666666666667</ele><time>2026-03-29T12:16:04.454Z</time></trkpt><trkpt lat="43.2018877" lon="12.2361161"><ele>642.3333333333334</ele><time>2026-03-29T12:16:05.454Z</time></trkpt><trkpt lat="43.2019466" lon="12.2363286"><ele>642.0</ele><time>2026-03-29T12:16:06.454Z</time></trkpt><trkpt lat="43.2020092" lon="12.2365459"><ele>641.0</ele><time>2026-03-29T12:16:07.454Z</time></trkpt><trkpt lat="43.2020694" lon="12.2367638"><ele>640.0</ele><time>2026-03-29T12:16:08.454Z</time></trkpt><trkpt lat="43.2021252" lon="12.2369843"><ele>639.0</ele><time>2026-03-29T12:16:09.453Z</time></trkpt><trkpt lat="43.2021745" lon="12.2372078"><ele>638.6666666666666</ele><time>2026-03-29T12:16:10.453Z</time></trkpt><trkpt lat="43.2022196" lon="12.2374377"><ele>638.3333333333333</ele><time>2026-03-29T12:16:11.453Z</time></trkpt><trkpt lat="43.2022616" lon="12.2376606"><ele>638.0</ele><time>2026-03-29T12:16:12.454Z</time></trkpt><trkpt lat="43.2023022" lon="12.2378811"><ele>643.0</ele><time>2026-03-29T12:16:13.454Z</time></trkpt><trkpt lat="43.2023416" lon="12.2380959"><ele>648.0</ele><time>2026-03-29T12:16:14.453Z</time></trkpt><trkpt lat="43.2023834" lon="12.2383042"><ele>653.0</ele><time>2026-03-29T12:16:15.453Z</time></trkpt><trkpt lat="43.2024246" lon="12.2385002"><ele>653.25</ele><time>2026-03-29T12:16:16.454Z</time></trkpt><trkpt lat="43.2024688" lon="12.2386767"><ele>653.5</ele><time>2026-03-29T12:16:17.453Z</time></trkpt><trkpt lat="43.2025156" lon="12.2388367"><ele>653.75</ele><time>2026-03-29T12:16:18.453Z</time></trkpt><trkpt lat="43.2025678" lon="12.238981"><ele>654.0</ele><time>2026-03-29T12:16:19.454Z</time></trkpt><trkpt lat="43.2026213" lon="12.2391057"><ele>653.5</ele><time>2026-03-29T12:16:20.453Z</time></trkpt><trkpt lat="43.2026707" lon="12.2392316"><ele>653.0</ele><time>2026-03-29T12:16:21.453Z</time></trkpt><trkpt lat="43.2027476" lon="12.2394401"><ele>652.5</ele><time>2026-03-29T12:16:23.453Z</time></trkpt><trkpt lat="43.2027682" lon="12.239533"><ele>652.0</ele><time>2026-03-29T12:16:24.454Z</time></trkpt><trkpt lat="43.202725" lon="12.2397142"><ele>652.1666666666667</ele><time>2026-03-29T12:16:26.454Z</time></trkpt><trkpt lat="43.202679" lon="12.23981"><ele>652.3333333333334</ele><time>2026-03-29T12:16:27.453Z</time></trkpt><trkpt lat="43.202623" lon="12.239915"><ele>652.5</ele><time>2026-03-29T12:16:28.453Z</time></trkpt><trkpt lat="43.202571" lon="12.2400062"><ele>652.6666666666666</ele><time>2026-03-29T12:16:29.454Z</time></trkpt><trkpt lat="43.2025227" lon="12.240095"><ele>652.8333333333333</ele><time>2026-03-29T12:16:30.454Z</time></trkpt><trkpt lat="43.2024638" lon="12.2401894"><ele>653.0</ele><time>2026-03-29T12:16:31.453Z</time></trkpt><trkpt lat="43.2024111" lon="12.2402739"><ele>653.0</ele><time>2026-03-29T12:16:32.453Z</time></trkpt><trkpt lat="43.2023598" lon="12.2403605"><ele>653.0</ele><time>2026-03-29T12:16:33.453Z</time></trkpt><trkpt lat="43.2023206" lon="12.2404448"><ele>653.0</ele><time>2026-03-29T12:16:34.454Z</time></trkpt><trkpt lat="43.2023006" lon="12.2405337"><ele>653.0</ele><time>2026-03-29T12:16:35.454Z</time></trkpt><trkpt lat="43.2023061" lon="12.2406271"><ele>653.0</ele><time>2026-03-29T12:16:36.454Z</time></trkpt><trkpt lat="43.2023355" lon="12.2407284"><ele>653.0</ele><time>2026-03-29T12:16:37.454Z</time></trkpt><trkpt lat="43.2023784" lon="12.2408283"><ele>652.5999999999999</ele><time>2026-03-29T12:16:38.454Z</time></trkpt><trkpt lat="43.202441" lon="12.2409175"><ele>652.1999999999999</ele><time>2026-03-29T12:16:39.454Z</time></trkpt><trkpt lat="43.202516" lon="12.2410066"><ele>651.8</ele><time>2026-03-29T12:16:40.453Z</time></trkpt><trkpt lat="43.2026058" lon="12.2410841"><ele>651.4</ele><time>2026-03-29T12:16:41.452Z</time></trkpt><trkpt lat="43.2026972" lon="12.2411653"><ele>651.0</ele><time>2026-03-29T12:16:42.452Z</time></trkpt><trkpt lat="43.2028773" lon="12.2413174"><ele>651.0</ele><time>2026-03-29T12:16:44.453Z</time></trkpt><trkpt lat="43.2029688" lon="12.2414052"><ele>651.0</ele><time>2026-03-29T12:16:45.454Z</time></trkpt><trkpt lat="43.2030605" lon="12.2415014"><ele>651.0</ele><time>2026-03-29T12:16:46.454Z</time></trkpt><trkpt lat="43.203162" lon="12.2416002"><ele>651.0</ele><time>2026-03-29T12:16:47.452Z</time></trkpt><trkpt lat="43.2032619" lon="12.2417044"><ele>649.4</ele><time>2026-03-29T12:16:48.453Z</time></trkpt><trkpt lat="43.2033546" lon="12.2418071"><ele>647.8</ele><time>2026-03-29T12:16:49.453Z</time></trkpt><trkpt lat="43.2034398" lon="12.2418719"><ele>646.1999999999999</ele><time>2026-03-29T12:16:50.454Z</time></trkpt><trkpt lat="43.2035284" lon="12.241946"><ele>644.5999999999999</ele><time>2026-03-29T12:16:51.454Z</time></trkpt><trkpt lat="43.203603" lon="12.241985"><ele>643.0</ele><time>2026-03-29T12:16:52.453Z</time></trkpt><trkpt lat="43.2036922" lon="12.2420451"><ele>643.0</ele><time>2026-03-29T12:16:53.454Z</time></trkpt><trkpt lat="43.2037807" lon="12.2422125"><ele>643.0</ele><time>2026-03-29T12:16:55.454Z</time></trkpt><trkpt lat="43.2038157" lon="12.2423257"><ele>643.0</ele><time>2026-03-29T12:16:56.454Z</time></trkpt><trkpt lat="43.2038068" lon="12.2424838"><ele>643.0</ele><time>2026-03-29T12:16:57.454Z</time></trkpt><trkpt lat="43.203815" lon="12.2425858"><ele>643.0</ele><time>2026-03-29T12:16:58.454Z</time></trkpt><trkpt lat="43.2038201" lon="12.2426857"><ele>638.8</ele><time>2026-03-29T12:16:59.453Z</time></trkpt><trkpt lat="43.2038125" lon="12.2427926"><ele>634.5999999999999</ele><time>2026-03-29T12:17:00.453Z</time></trkpt><trkpt lat="43.203745" lon="12.2429909"><ele>630.4000000000001</ele><time>2026-03-29T12:17:03.454Z</time></trkpt><trkpt lat="43.2036687" lon="12.2430221"><ele>626.2</ele><time>2026-03-29T12:17:04.453Z</time></trkpt><trkpt lat="43.2036051" lon="12.243097"><ele>622.0</ele><time>2026-03-29T12:17:05.454Z</time></trkpt><trkpt lat="43.2034667" lon="12.2431083"><ele>624.0</ele><time>2026-03-29T12:17:06.453Z</time></trkpt><trkpt lat="43.2033632" lon="12.2431488"><ele>626.0</ele><time>2026-03-29T12:17:07.454Z</time></trkpt><trkpt lat="43.2032514" lon="12.2431761"><ele>628.0</ele><time>2026-03-29T12:17:08.453Z</time></trkpt><trkpt lat="43.2031391" lon="12.2431896"><ele>630.0</ele><time>2026-03-29T12:17:09.454Z</time></trkpt><trkpt lat="43.2030271" lon="12.2432122"><ele>632.0</ele><time>2026-03-29T12:17:10.454Z</time></trkpt><trkpt lat="43.2029402" lon="12.2432886"><ele>627.0</ele><time>2026-03-29T12:17:11.454Z</time></trkpt><trkpt lat="43.2028642" lon="12.2433826"><ele>622.0</ele><time>2026-03-29T12:17:12.454Z</time></trkpt><trkpt lat="43.2027827" lon="12.2434814"><ele>617.0</ele><time>2026-03-29T12:17:13.453Z</time></trkpt><trkpt lat="43.2026702" lon="12.2435452"><ele>612.0</ele><time>2026-03-29T12:17:14.453Z</time></trkpt><trkpt lat="43.202584" lon="12.2436392"><ele>607.0</ele><time>2026-03-29T12:17:15.453Z</time></trkpt><trkpt lat="43.2025725" lon="12.2437286"><ele>607.0</ele><time>2026-03-29T12:17:16.453Z</time></trkpt><trkpt lat="43.2024811" lon="12.2437775"><ele>607.0</ele><time>2026-03-29T12:17:18.454Z</time></trkpt><trkpt lat="43.2024017" lon="12.2437741"><ele>607.0</ele><time>2026-03-29T12:17:19.454Z</time></trkpt><trkpt lat="43.2023196" lon="12.2438017"><ele>607.0</ele><time>2026-03-29T12:17:20.453Z</time></trkpt><trkpt lat="43.2022374" lon="12.2438044"><ele>607.0</ele><time>2026-03-29T12:17:21.454Z</time></trkpt><trkpt lat="43.2021402" lon="12.2438248"><ele>607.0</ele><time>2026-03-29T12:17:22.454Z</time></trkpt><trkpt lat="43.2020725" lon="12.2439284"><ele>604.6</ele><time>2026-03-29T12:17:23.453Z</time></trkpt><trkpt lat="43.2019976" lon="12.2440054"><ele>602.2</ele><time>2026-03-29T12:17:24.454Z</time></trkpt><trkpt lat="43.2019269" lon="12.2441135"><ele>599.8</ele><time>2026-03-29T12:17:25.454Z</time></trkpt><trkpt lat="43.2018533" lon="12.244246"><ele>597.4</ele><time>2026-03-29T12:17:26.453Z</time></trkpt><trkpt lat="43.2017906" lon="12.244378"><ele>595.0</ele><time>2026-03-29T12:17:27.454Z</time></trkpt><trkpt lat="43.201731" lon="12.2445167"><ele>595.0</ele><time>2026-03-29T12:17:28.453Z</time></trkpt><trkpt lat="43.2016851" lon="12.2446386"><ele>595.0</ele><time>2026-03-29T12:17:29.454Z</time></trkpt><trkpt lat="43.2016766" lon="12.2447496"><ele>595.0</ele><time>2026-03-29T12:17:30.454Z</time></trkpt><trkpt lat="43.2017405" lon="12.2447709"><ele>595.0</ele><time>2026-03-29T12:17:31.453Z</time></trkpt><trkpt lat="43.2017754" lon="12.2449169"><ele>595.0</ele><time>2026-03-29T12:17:33.455Z</time></trkpt><trkpt lat="43.2018412" lon="12.2449683"><ele>595.0</ele><time>2026-03-29T12:17:34.453Z</time></trkpt><trkpt lat="43.2018829" lon="12.2450679"><ele>595.5</ele><time>2026-03-29T12:17:35.454Z</time></trkpt><trkpt lat="43.2019151" lon="12.2452217"><ele>596.0</ele><time>2026-03-29T12:17:36.453Z</time></trkpt><trkpt lat="43.2019308" lon="12.2453693"><ele>596.5</ele><time>2026-03-29T12:17:37.454Z</time></trkpt><trkpt lat="43.2019468" lon="12.2455185"><ele>597.0</ele><time>2026-03-29T12:17:38.453Z</time></trkpt><trkpt lat="43.2019606" lon="12.2456834"><ele>595.0</ele><time>2026-03-29T12:17:39.453Z</time></trkpt><trkpt lat="43.2019819" lon="12.245826"><ele>593.0</ele><time>2026-03-29T12:17:40.453Z</time></trkpt><trkpt lat="43.2020028" lon="12.2459695"><ele>591.0</ele><time>2026-03-29T12:17:41.454Z</time></trkpt><trkpt lat="43.2020307" lon="12.2461184"><ele>589.0</ele><time>2026-03-29T12:17:42.453Z</time></trkpt><trkpt lat="43.2020485" lon="12.2462764"><ele>587.0</ele><time>2026-03-29T12:17:43.454Z</time></trkpt><trkpt lat="43.2019995" lon="12.2464646"><ele>587.0</ele><time>2026-03-29T12:17:44.454Z</time></trkpt><trkpt lat="43.2018992" lon="12.2465834"><ele>587.0</ele><time>2026-03-29T12:17:45.454Z</time></trkpt><trkpt lat="43.201857" lon="12.2466895"><ele>587.0</ele><time>2026-03-29T12:17:46.454Z</time></trkpt><trkpt lat="43.2018219" lon="12.246815"><ele>587.0</ele><time>2026-03-29T12:17:47.454Z</time></trkpt><trkpt lat="43.2017935" lon="12.246935"><ele>587.0</ele><time>2026-03-29T12:17:48.453Z</time></trkpt><trkpt lat="43.2018305" lon="12.2470653"><ele>587.0</ele><time>2026-03-29T12:17:49.453Z</time></trkpt><trkpt lat="43.2018316" lon="12.247183"><ele>587.0</ele><time>2026-03-29T12:17:50.453Z</time></trkpt><trkpt lat="43.2018556" lon="12.2472839"><ele>587.0</ele><time>2026-03-29T12:17:51.454Z</time></trkpt><trkpt lat="43.2018838" lon="12.24739"><ele>587.0</ele><time>2026-03-29T12:17:52.454Z</time></trkpt><trkpt lat="43.201908" lon="12.2474763"><ele>587.0</ele><time>2026-03-29T12:17:53.453Z</time></trkpt><trkpt lat="43.2019215" lon="12.2476491"><ele>587.0</ele><time>2026-03-29T12:17:55.453Z</time></trkpt><trkpt lat="43.2018893" lon="12.2477897"><ele>587.8333333333333</ele><time>2026-03-29T12:17:57.453Z</time></trkpt><trkpt lat="43.2018463" lon="12.2478772"><ele>588.6666666666666</ele><time>2026-03-29T12:17:58.454Z</time></trkpt><trkpt lat="43.2018009" lon="12.2479502"><ele>589.5</ele><time>2026-03-29T12:17:59.454Z</time></trkpt><trkpt lat="43.2017563" lon="12.2480511"><ele>590.3333333333334</ele><time>2026-03-29T12:18:00.454Z</time></trkpt><trkpt lat="43.2017178" lon="12.2481633"><ele>591.1666666666667</ele><time>2026-03-29T12:18:01.454Z</time></trkpt><trkpt lat="43.2017097" lon="12.2482696"><ele>592.0</ele><time>2026-03-29T12:18:02.454Z</time></trkpt><trkpt lat="43.2017019" lon="12.248419"><ele>592.0</ele><time>2026-03-29T12:18:03.453Z</time></trkpt><trkpt lat="43.2017037" lon="12.2485523"><ele>592.0</ele><time>2026-03-29T12:18:04.454Z</time></trkpt><trkpt lat="43.201699" lon="12.2486689"><ele>592.0</ele><time>2026-03-29T12:18:05.454Z</time></trkpt><trkpt lat="43.2016982" lon="12.2487828"><ele>592.0</ele><time>2026-03-29T12:18:06.454Z</time></trkpt><trkpt lat="43.2016936" lon="12.2489058"><ele>592.0</ele><time>2026-03-29T12:18:07.453Z</time></trkpt><trkpt lat="43.2016977" lon="12.2490104"><ele>592.0</ele><time>2026-03-29T12:18:08.453Z</time></trkpt><trkpt lat="43.2017177" lon="12.2490945"><ele>588.8000000000001</ele><time>2026-03-29T12:18:09.454Z</time></trkpt><trkpt lat="43.2018032" lon="12.2492141"><ele>585.6</ele><time>2026-03-29T12:18:11.453Z</time></trkpt><trkpt lat="43.2018671" lon="12.2492749"><ele>582.4000000000001</ele><time>2026-03-29T12:18:12.453Z</time></trkpt><trkpt lat="43.2019523" lon="12.2493446"><ele>579.2</ele><time>2026-03-29T12:18:13.453Z</time></trkpt><trkpt lat="43.2020371" lon="12.2494315"><ele>576.0</ele><time>2026-03-29T12:18:14.454Z</time></trkpt><trkpt lat="43.2021138" lon="12.2494954"><ele>576.0</ele><time>2026-03-29T12:18:15.453Z</time></trkpt><trkpt lat="43.2021821" lon="12.2495669"><ele>576.0</ele><time>2026-03-29T12:18:16.454Z</time></trkpt><trkpt lat="43.2022461" lon="12.2496119"><ele>576.0</ele><time>2026-03-29T12:18:17.454Z</time></trkpt><trkpt lat="43.2023119" lon="12.2496552"><ele>576.0</ele><time>2026-03-29T12:18:18.453Z</time></trkpt><trkpt lat="43.2023729" lon="12.2496908"><ele>576.0</ele><time>2026-03-29T12:18:19.453Z</time></trkpt><trkpt lat="43.202458" lon="12.2497653"><ele>576.0</ele><time>2026-03-29T12:18:21.454Z</time></trkpt><trkpt lat="43.2024917" lon="12.249847"><ele>575.1666666666666</ele><time>2026-03-29T12:18:22.454Z</time></trkpt><trkpt lat="43.2024718" lon="12.2499399"><ele>574.3333333333334</ele><time>2026-03-29T12:18:23.453Z</time></trkpt><trkpt lat="43.2024652" lon="12.2500407"><ele>573.5</ele><time>2026-03-29T12:18:24.453Z</time></trkpt><trkpt lat="43.2024491" lon="12.2501672"><ele>572.6666666666667</ele><time>2026-03-29T12:18:25.453Z</time></trkpt><trkpt lat="43.2024218" lon="12.2502603"><ele>571.8333333333334</ele><time>2026-03-29T12:18:26.454Z</time></trkpt><trkpt lat="43.2023777" lon="12.250343"><ele>571.0</ele><time>2026-03-29T12:18:27.453Z</time></trkpt><trkpt lat="43.2023263" lon="12.2504138"><ele>568.6</ele><time>2026-03-29T12:18:28.453Z</time></trkpt><trkpt lat="43.202222" lon="12.2504665"><ele>566.2</ele><time>2026-03-29T12:18:30.453Z</time></trkpt><trkpt lat="43.2021256" lon="12.2504499"><ele>563.8</ele><time>2026-03-29T12:18:31.454Z</time></trkpt><trkpt lat="43.202043" lon="12.2504068"><ele>561.4</ele><time>2026-03-29T12:18:32.454Z</time></trkpt><trkpt lat="43.2019508" lon="12.2503661"><ele>559.0</ele><time>2026-03-29T12:18:33.454Z</time></trkpt><trkpt lat="43.2018652" lon="12.2503422"><ele>559.0</ele><time>2026-03-29T12:18:34.454Z</time></trkpt><trkpt lat="43.2017942" lon="12.2503191"><ele>559.0</ele><time>2026-03-29T12:18:35.453Z</time></trkpt><trkpt lat="43.2016666" lon="12.250299"><ele>559.0</ele><time>2026-03-29T12:18:37.454Z</time></trkpt><trkpt lat="43.2015837" lon="12.2504015"><ele>559.0</ele><time>2026-03-29T12:18:39.453Z</time></trkpt><trkpt lat="43.2015434" lon="12.250482"><ele>559.0</ele><time>2026-03-29T12:18:40.454Z</time></trkpt><trkpt lat="43.201522" lon="12.2505876"><ele>557.8</ele><time>2026-03-29T12:18:41.453Z</time></trkpt><trkpt lat="43.2015153" lon="12.2507764"><ele>556.5999999999999</ele><time>2026-03-29T12:18:43.453Z</time></trkpt><trkpt lat="43.2015257" lon="12.2508873"><ele>555.4</ele><time>2026-03-29T12:18:44.453Z</time></trkpt><trkpt lat="43.2015353" lon="12.2509982"><ele>554.1999999999999</ele><time>2026-03-29T12:18:45.454Z</time></trkpt><trkpt lat="43.2015352" lon="12.2510937"><ele>553.0</ele><time>2026-03-29T12:18:46.453Z</time></trkpt><trkpt lat="43.2014982" lon="12.2511945"><ele>549.0</ele><time>2026-03-29T12:18:47.454Z</time></trkpt><trkpt lat="43.2014507" lon="12.2512801"><ele>545.0</ele><time>2026-03-29T12:18:48.454Z</time></trkpt><trkpt lat="43.2013847" lon="12.2513736"><ele>541.0</ele><time>2026-03-29T12:18:49.453Z</time></trkpt><trkpt lat="43.2013204" lon="12.251476"><ele>537.0</ele><time>2026-03-29T12:18:50.454Z</time></trkpt><trkpt lat="43.2012489" lon="12.251576"><ele>533.0</ele><time>2026-03-29T12:18:51.454Z</time></trkpt><trkpt lat="43.2011913" lon="12.2516697"><ele>533.0</ele><time>2026-03-29T12:18:52.453Z</time></trkpt><trkpt lat="43.201136" lon="12.2517874"><ele>533.0</ele><time>2026-03-29T12:18:53.453Z</time></trkpt><trkpt lat="43.201078" lon="12.2519016"><ele>533.0</ele><time>2026-03-29T12:18:54.453Z</time></trkpt><trkpt lat="43.2010291" lon="12.2520116"><ele>533.0</ele><time>2026-03-29T12:18:55.453Z</time></trkpt><trkpt lat="43.2009835" lon="12.252117"><ele>533.0</ele><time>2026-03-29T12:18:56.453Z</time></trkpt><trkpt lat="43.2009447" lon="12.2522171"><ele>533.1999999999999</ele><time>2026-03-29T12:18:57.453Z</time></trkpt><trkpt lat="43.2008884" lon="12.2523201"><ele>533.4</ele><time>2026-03-29T12:18:58.454Z</time></trkpt><trkpt lat="43.2008302" lon="12.2524405"><ele>533.5999999999999</ele><time>2026-03-29T12:18:59.453Z</time></trkpt><trkpt lat="43.2007804" lon="12.2525501"><ele>533.8</ele><time>2026-03-29T12:19:00.454Z</time></trkpt><trkpt lat="43.2007329" lon="12.2526712"><ele>534.0</ele><time>2026-03-29T12:19:01.453Z</time></trkpt><trkpt lat="43.2006777" lon="12.2527911"><ele>533.8</ele><time>2026-03-29T12:19:02.453Z</time></trkpt><trkpt lat="43.2006188" lon="12.2529155"><ele>533.5999999999999</ele><time>2026-03-29T12:19:03.454Z</time></trkpt><trkpt lat="43.2005726" lon="12.2530392"><ele>533.4</ele><time>2026-03-29T12:19:04.454Z</time></trkpt><trkpt lat="43.2004908" lon="12.2531589"><ele>533.1999999999999</ele><time>2026-03-29T12:19:05.454Z</time></trkpt><trkpt lat="43.2004385" lon="12.2532687"><ele>533.0</ele><time>2026-03-29T12:19:06.453Z</time></trkpt><trkpt lat="43.2003652" lon="12.2533329"><ele>533.0</ele><time>2026-03-29T12:19:07.453Z</time></trkpt><trkpt lat="43.2002813" lon="12.253394"><ele>533.0</ele><time>2026-03-29T12:19:08.454Z</time></trkpt><trkpt lat="43.2002025" lon="12.2534188"><ele>533.0</ele><time>2026-03-29T12:19:09.454Z</time></trkpt><trkpt lat="43.2001092" lon="12.253438"><ele>533.0</ele><time>2026-03-29T12:19:10.454Z</time></trkpt><trkpt lat="43.2000225" lon="12.2534422"><ele>533.0</ele><time>2026-03-29T12:19:11.454Z</time></trkpt><trkpt lat="43.1999383" lon="12.2534502"><ele>533.0</ele><time>2026-03-29T12:19:12.453Z</time></trkpt><trkpt lat="43.1998667" lon="12.2534715"><ele>531.8</ele><time>2026-03-29T12:19:13.453Z</time></trkpt><trkpt lat="43.1997924" lon="12.2534984"><ele>530.5999999999999</ele><time>2026-03-29T12:19:14.454Z</time></trkpt><trkpt lat="43.1996901" lon="12.2535118"><ele>529.4000000000001</ele><time>2026-03-29T12:19:15.453Z</time></trkpt><trkpt lat="43.1995957" lon="12.2535579"><ele>528.2</ele><time>2026-03-29T12:19:16.453Z</time></trkpt><trkpt lat="43.1995028" lon="12.2536218"><ele>527.0</ele><time>2026-03-29T12:19:17.454Z</time></trkpt><trkpt lat="43.1993621" lon="12.253656"><ele>527.0</ele><time>2026-03-29T12:19:18.454Z</time></trkpt><trkpt lat="43.199272" lon="12.2537289"><ele>527.0</ele><time>2026-03-29T12:19:19.453Z</time></trkpt><trkpt lat="43.1991744" lon="12.2537958"><ele>527.0</ele><time>2026-03-29T12:19:20.454Z</time></trkpt><trkpt lat="43.199082" lon="12.2538569"><ele>527.0</ele><time>2026-03-29T12:19:21.453Z</time></trkpt><trkpt lat="43.1990151" lon="12.2539341"><ele>527.0</ele><time>2026-03-29T12:19:22.454Z</time></trkpt><trkpt lat="43.1989485" lon="12.2540153"><ele>527.6</ele><time>2026-03-29T12:19:23.454Z</time></trkpt><trkpt lat="43.1988924" lon="12.2541136"><ele>528.2</ele><time>2026-03-29T12:19:24.453Z</time></trkpt><trkpt lat="43.1988108" lon="12.254178"><ele>528.8</ele><time>2026-03-29T12:19:25.453Z</time></trkpt><trkpt lat="43.1987217" lon="12.2542335"><ele>529.4</ele><time>2026-03-29T12:19:26.454Z</time></trkpt><trkpt lat="43.1986346" lon="12.2542655"><ele>530.0</ele><time>2026-03-29T12:19:27.453Z</time></trkpt><trkpt lat="43.1985262" lon="12.2542924"><ele>530.0</ele><time>2026-03-29T12:19:28.453Z</time></trkpt><trkpt lat="43.1984148" lon="12.2543194"><ele>530.0</ele><time>2026-03-29T12:19:29.454Z</time></trkpt><trkpt lat="43.1983154" lon="12.2543452"><ele>530.0</ele><time>2026-03-29T12:19:30.453Z</time></trkpt><trkpt lat="43.1982176" lon="12.2543709"><ele>530.0</ele><time>2026-03-29T12:19:31.454Z</time></trkpt><trkpt lat="43.1981257" lon="12.2544048"><ele>530.0</ele><time>2026-03-29T12:19:32.453Z</time></trkpt><trkpt lat="43.1980276" lon="12.2544216"><ele>527.4</ele><time>2026-03-29T12:19:33.453Z</time></trkpt><trkpt lat="43.1979436" lon="12.2544321"><ele>524.8</ele><time>2026-03-29T12:19:34.453Z</time></trkpt><trkpt lat="43.1978322" lon="12.254436"><ele>522.2</ele><time>2026-03-29T12:19:35.453Z</time></trkpt><trkpt lat="43.1977367" lon="12.254467"><ele>519.6</ele><time>2026-03-29T12:19:36.454Z</time></trkpt><trkpt lat="43.1976872" lon="12.2545659"><ele>517.0</ele><time>2026-03-29T12:19:37.453Z</time></trkpt><trkpt lat="43.1975887" lon="12.2546263"><ele>517.0</ele><time>2026-03-29T12:19:38.453Z</time></trkpt><trkpt lat="43.1975145" lon="12.2546622"><ele>517.0</ele><time>2026-03-29T12:19:39.454Z</time></trkpt><trkpt lat="43.197453" lon="12.2547622"><ele>517.0</ele><time>2026-03-29T12:19:40.454Z</time></trkpt><trkpt lat="43.1974067" lon="12.2548715"><ele>517.0</ele><time>2026-03-29T12:19:41.454Z</time></trkpt><trkpt lat="43.1973684" lon="12.2549608"><ele>517.0</ele><time>2026-03-29T12:19:42.454Z</time></trkpt><trkpt lat="43.1973452" lon="12.2550631"><ele>517.0</ele><time>2026-03-29T12:19:43.453Z</time></trkpt><trkpt lat="43.1973386" lon="12.2551692"><ele>516.5</ele><time>2026-03-29T12:19:44.453Z</time></trkpt><trkpt lat="43.1973531" lon="12.2552742"><ele>516.0</ele><time>2026-03-29T12:19:45.454Z</time></trkpt><trkpt lat="43.1973753" lon="12.2553788"><ele>515.5</ele><time>2026-03-29T12:19:46.453Z</time></trkpt><trkpt lat="43.1974044" lon="12.2554866"><ele>515.0</ele><time>2026-03-29T12:19:47.454Z</time></trkpt><trkpt lat="43.1973362" lon="12.2556006"><ele>514.5</ele><time>2026-03-29T12:19:49.454Z</time></trkpt><trkpt lat="43.1972761" lon="12.2556399"><ele>514.0</ele><time>2026-03-29T12:19:50.453Z</time></trkpt><trkpt lat="43.1971983" lon="12.2557068"><ele>511.0</ele><time>2026-03-29T12:19:51.453Z</time></trkpt><trkpt lat="43.1971189" lon="12.2557768"><ele>508.0</ele><time>2026-03-29T12:19:52.454Z</time></trkpt><trkpt lat="43.1970334" lon="12.2558534"><ele>505.0</ele><time>2026-03-29T12:19:53.453Z</time></trkpt><trkpt lat="43.1969377" lon="12.2559389"><ele>502.0</ele><time>2026-03-29T12:19:54.454Z</time></trkpt><trkpt lat="43.1968504" lon="12.2559962"><ele>499.0</ele><time>2026-03-29T12:19:55.453Z</time></trkpt><trkpt lat="43.1967512" lon="12.2560683"><ele>499.0</ele><time>2026-03-29T12:19:56.453Z</time></trkpt><trkpt lat="43.1966696" lon="12.2560744"><ele>499.0</ele><time>2026-03-29T12:19:57.454Z</time></trkpt><trkpt lat="43.1965769" lon="12.2560936"><ele>499.0</ele><time>2026-03-29T12:19:58.453Z</time></trkpt><trkpt lat="43.1964308" lon="12.2560703"><ele>499.0</ele><time>2026-03-29T12:19:59.454Z</time></trkpt><trkpt lat="43.1962951" lon="12.2560474"><ele>497.6</ele><time>2026-03-29T12:20:00.453Z</time></trkpt><trkpt lat="43.1961766" lon="12.25605"><ele>496.2</ele><time>2026-03-29T12:20:01.454Z</time></trkpt><trkpt lat="43.1960718" lon="12.2560882"><ele>494.80000000000007</ele><time>2026-03-29T12:20:02.453Z</time></trkpt><trkpt lat="43.1959687" lon="12.2561189"><ele>493.40000000000003</ele><time>2026-03-29T12:20:03.452Z</time></trkpt><trkpt lat="43.1958889" lon="12.2561526"><ele>492.0</ele><time>2026-03-29T12:20:04.454Z</time></trkpt><trkpt lat="43.1958261" lon="12.2561771"><ele>492.0</ele><time>2026-03-29T12:20:05.453Z</time></trkpt><trkpt lat="43.1957407" lon="12.2561606"><ele>492.0</ele><time>2026-03-29T12:20:07.453Z</time></trkpt><trkpt lat="43.1956384" lon="12.2559784"><ele>492.0</ele><time>2026-03-29T12:20:09.454Z</time></trkpt><trkpt lat="43.1955892" lon="12.2558543"><ele>492.0</ele><time>2026-03-29T12:20:10.454Z</time></trkpt><trkpt lat="43.1955218" lon="12.2557437"><ele>490.0</ele><time>2026-03-29T12:20:11.454Z</time></trkpt><trkpt lat="43.1954077" lon="12.2556112"><ele>488.00000000000006</ele><time>2026-03-29T12:20:12.453Z</time></trkpt><trkpt lat="43.1953502" lon="12.2555215"><ele>486.00000000000006</ele><time>2026-03-29T12:20:13.454Z</time></trkpt><trkpt lat="43.1952764" lon="12.2554376"><ele>484.0</ele><time>2026-03-29T12:20:14.454Z</time></trkpt><trkpt lat="43.1952266" lon="12.2553689"><ele>482.0</ele><time>2026-03-29T12:20:15.454Z</time></trkpt><trkpt lat="43.1951877" lon="12.2552995"><ele>481.99999999999994</ele><time>2026-03-29T12:20:16.453Z</time></trkpt><trkpt lat="43.1951229" lon="12.2551638"><ele>482.0</ele><time>2026-03-29T12:20:18.454Z</time></trkpt><trkpt lat="43.195068" lon="12.2551047"><ele>482.0</ele><time>2026-03-29T12:20:19.454Z</time></trkpt><trkpt lat="43.1949654" lon="12.2550888"><ele>482.0</ele><time>2026-03-29T12:20:21.453Z</time></trkpt><trkpt lat="43.1949006" lon="12.2551456"><ele>481.99999999999994</ele><time>2026-03-29T12:20:23.453Z</time></trkpt><trkpt lat="43.1949312" lon="12.255222"><ele>482.0</ele><time>2026-03-29T12:20:24.453Z</time></trkpt><trkpt lat="43.1949047" lon="12.255332"><ele>482.0</ele><time>2026-03-29T12:20:26.454Z</time></trkpt><trkpt lat="43.1948411" lon="12.2553754"><ele>482.00000000000006</ele><time>2026-03-29T12:20:28.454Z</time></trkpt><trkpt lat="43.1947074" lon="12.2552997"><ele>482.00000000000006</ele><time>2026-03-29T12:20:30.454Z</time></trkpt><trkpt lat="43.1945911" lon="12.2552804"><ele>482.0</ele><time>2026-03-29T12:20:31.454Z</time></trkpt><trkpt lat="43.194513" lon="12.2552888"><ele>482.0</ele><time>2026-03-29T12:20:32.453Z</time></trkpt><trkpt lat="43.1944033" lon="12.2553124"><ele>480.20000000000005</ele><time>2026-03-29T12:20:33.454Z</time></trkpt><trkpt lat="43.1942937" lon="12.2553419"><ele>478.40000000000003</ele><time>2026-03-29T12:20:34.453Z</time></trkpt><trkpt lat="43.1941868" lon="12.255379"><ele>476.59999999999997</ele><time>2026-03-29T12:20:35.453Z</time></trkpt><trkpt lat="43.1940852" lon="12.2554283"><ele>474.79999999999995</ele><time>2026-03-29T12:20:36.454Z</time></trkpt><trkpt lat="43.1939754" lon="12.2554744"><ele>473.0</ele><time>2026-03-29T12:20:37.454Z</time></trkpt><trkpt lat="43.1938666" lon="12.2555344"><ele>473.5</ele><time>2026-03-29T12:20:38.453Z</time></trkpt><trkpt lat="43.1937378" lon="12.2555952"><ele>474.0</ele><time>2026-03-29T12:20:39.454Z</time></trkpt><trkpt lat="43.1936202" lon="12.2556744"><ele>474.5</ele><time>2026-03-29T12:20:40.454Z</time></trkpt><trkpt lat="43.1935209" lon="12.2557505"><ele>475.0</ele><time>2026-03-29T12:20:41.454Z</time></trkpt><trkpt lat="43.1934327" lon="12.2558227"><ele>475.0</ele><time>2026-03-29T12:20:42.453Z</time></trkpt><trkpt lat="43.1933348" lon="12.2558942"><ele>475.0</ele><time>2026-03-29T12:20:43.453Z</time></trkpt><trkpt lat="43.1932535" lon="12.2559548"><ele>475.0</ele><time>2026-03-29T12:20:44.453Z</time></trkpt><trkpt lat="43.1931821" lon="12.2560074"><ele>475.0</ele><time>2026-03-29T12:20:45.454Z</time></trkpt><trkpt lat="43.1931036" lon="12.2560593"><ele>475.0</ele><time>2026-03-29T12:20:46.454Z</time></trkpt><trkpt lat="43.192961" lon="12.2558784"><ele>476.0</ele><time>2026-03-29T12:20:48.453Z</time></trkpt><trkpt lat="43.1928389" lon="12.2557783"><ele>477.0</ele><time>2026-03-29T12:20:49.452Z</time></trkpt><trkpt lat="43.1927444" lon="12.2557117"><ele>478.0</ele><time>2026-03-29T12:20:50.453Z</time></trkpt><trkpt lat="43.1926359" lon="12.2556418"><ele>479.0</ele><time>2026-03-29T12:20:51.453Z</time></trkpt><trkpt lat="43.1925436" lon="12.2556506"><ele>478.99999999999994</ele><time>2026-03-29T12:20:52.454Z</time></trkpt><trkpt lat="43.1924809" lon="12.2556708"><ele>479.0</ele><time>2026-03-29T12:20:53.453Z</time></trkpt><trkpt lat="43.192384" lon="12.2557008"><ele>479.0</ele><time>2026-03-29T12:20:54.453Z</time></trkpt><trkpt lat="43.1923137" lon="12.2557378"><ele>479.0</ele><time>2026-03-29T12:20:55.454Z</time></trkpt><trkpt lat="43.192254" lon="12.2557747"><ele>478.99999999999994</ele><time>2026-03-29T12:20:56.454Z</time></trkpt><trkpt lat="43.1921938" lon="12.2558086"><ele>479.0</ele><time>2026-03-29T12:20:57.453Z</time></trkpt><trkpt lat="43.1921001" lon="12.2558477"><ele>477.49999999999994</ele><time>2026-03-29T12:20:59.453Z</time></trkpt><trkpt lat="43.1920345" lon="12.2558153"><ele>476.0</ele><time>2026-03-29T12:21:01.453Z</time></trkpt><trkpt lat="43.1920026" lon="12.2557066"><ele>474.5</ele><time>2026-03-29T12:21:03.453Z</time></trkpt><trkpt lat="43.1920109" lon="12.2556033"><ele>473.0</ele><time>2026-03-29T12:21:04.454Z</time></trkpt><trkpt lat="43.1920202" lon="12.2555079"><ele>471.49999999999994</ele><time>2026-03-29T12:21:05.454Z</time></trkpt><trkpt lat="43.1920306" lon="12.2553768"><ele>470.0</ele><time>2026-03-29T12:21:06.453Z</time></trkpt><trkpt lat="43.1920309" lon="12.2552388"><ele>467.49999999999994</ele><time>2026-03-29T12:21:07.454Z</time></trkpt><trkpt lat="43.1920091" lon="12.2551372"><ele>465.0</ele><time>2026-03-29T12:21:08.454Z</time></trkpt><trkpt lat="43.1919747" lon="12.2550512"><ele>462.5</ele><time>2026-03-29T12:21:09.454Z</time></trkpt><trkpt lat="43.1919164" lon="12.2549282"><ele>460.0</ele><time>2026-03-29T12:21:10.453Z</time></trkpt><trkpt lat="43.1918861" lon="12.2548081"><ele>457.49999999999994</ele><time>2026-03-29T12:21:11.453Z</time></trkpt><trkpt lat="43.1918327" lon="12.2547212"><ele>455.0</ele><time>2026-03-29T12:21:12.454Z</time></trkpt><trkpt lat="43.19178" lon="12.2546352"><ele>452.99999999999994</ele><time>2026-03-29T12:21:13.454Z</time></trkpt><trkpt lat="43.1917361" lon="12.2545448"><ele>451.0</ele><time>2026-03-29T12:21:14.453Z</time></trkpt><trkpt lat="43.1917219" lon="12.2544533"><ele>449.0</ele><time>2026-03-29T12:21:15.453Z</time></trkpt><trkpt lat="43.1917989" lon="12.2544073"><ele>447.0</ele><time>2026-03-29T12:21:17.453Z</time></trkpt><trkpt lat="43.1919153" lon="12.2544174"><ele>444.99999999999994</ele><time>2026-03-29T12:21:18.453Z</time></trkpt><trkpt lat="43.1920003" lon="12.254427"><ele>443.0</ele><time>2026-03-29T12:21:19.453Z</time></trkpt><trkpt lat="43.1920681" lon="12.2544427"><ele>443.0</ele><time>2026-03-29T12:21:20.454Z</time></trkpt><trkpt lat="43.192138" lon="12.2544424"><ele>442.99999999999994</ele><time>2026-03-29T12:21:21.454Z</time></trkpt><trkpt lat="43.19226" lon="12.2544208"><ele>442.99999999999994</ele><time>2026-03-29T12:21:22.454Z</time></trkpt><trkpt lat="43.1923588" lon="12.2543919"><ele>443.0</ele><time>2026-03-29T12:21:23.454Z</time></trkpt><trkpt lat="43.1924547" lon="12.2543675"><ele>443.0</ele><time>2026-03-29T12:21:24.453Z</time></trkpt><trkpt lat="43.1925763" lon="12.2543551"><ele>445.59999999999997</ele><time>2026-03-29T12:21:26.454Z</time></trkpt><trkpt lat="43.1926651" lon="12.2544202"><ele>448.19999999999993</ele><time>2026-03-29T12:21:27.453Z</time></trkpt><trkpt lat="43.1927339" lon="12.2544398"><ele>450.8</ele><time>2026-03-29T12:21:28.453Z</time></trkpt><trkpt lat="43.1928519" lon="12.2544421"><ele>453.4</ele><time>2026-03-29T12:21:30.454Z</time></trkpt><trkpt lat="43.1929267" lon="12.2543706"><ele>456.0</ele><time>2026-03-29T12:21:32.453Z</time></trkpt><trkpt lat="43.1928624" lon="12.2543113"><ele>456.0</ele><time>2026-03-29T12:21:33.453Z</time></trkpt><trkpt lat="43.1927698" lon="12.254242"><ele>456.0</ele><time>2026-03-29T12:21:35.453Z</time></trkpt><trkpt lat="43.1927099" lon="12.2542105"><ele>456.0</ele><time>2026-03-29T12:21:36.454Z</time></trkpt><trkpt lat="43.1926496" lon="12.2541738"><ele>456.0</ele><time>2026-03-29T12:21:37.452Z</time></trkpt><trkpt lat="43.1925951" lon="12.2541238"><ele>456.0</ele><time>2026-03-29T12:21:38.454Z</time></trkpt><trkpt lat="43.1925114" lon="12.2540717"><ele>456.0</ele><time>2026-03-29T12:21:39.452Z</time></trkpt><trkpt lat="43.1924445" lon="12.2540381"><ele>453.4</ele><time>2026-03-29T12:21:40.453Z</time></trkpt><trkpt lat="43.1923072" lon="12.2540141"><ele>450.8</ele><time>2026-03-29T12:21:42.453Z</time></trkpt><trkpt lat="43.1922383" lon="12.2539996"><ele>448.19999999999993</ele><time>2026-03-29T12:21:43.453Z</time></trkpt><trkpt lat="43.1921582" lon="12.2539861"><ele>445.59999999999997</ele><time>2026-03-29T12:21:44.454Z</time></trkpt><trkpt lat="43.1920824" lon="12.2539848"><ele>443.0</ele><time>2026-03-29T12:21:45.454Z</time></trkpt><trkpt lat="43.1919926" lon="12.2539032"><ele>438.25</ele><time>2026-03-29T12:21:46.454Z</time></trkpt><trkpt lat="43.1918664" lon="12.253889"><ele>433.5</ele><time>2026-03-29T12:21:48.454Z</time></trkpt><trkpt lat="43.1917901" lon="12.2538583"><ele>428.75</ele><time>2026-03-29T12:21:49.453Z</time></trkpt><trkpt lat="43.1916724" lon="12.2537878"><ele>424.0</ele><time>2026-03-29T12:21:51.454Z</time></trkpt><trkpt lat="43.1915445" lon="12.2537401"><ele>421.0</ele><time>2026-03-29T12:21:53.454Z</time></trkpt><trkpt lat="43.191444" lon="12.2537142"><ele>418.0</ele><time>2026-03-29T12:21:55.453Z</time></trkpt><trkpt lat="43.1913455" lon="12.2536897"><ele>415.0</ele><time>2026-03-29T12:21:57.453Z</time></trkpt><trkpt lat="43.1912718" lon="12.253688"><ele>412.0</ele><time>2026-03-29T12:21:59.454Z</time></trkpt><trkpt lat="43.1912168" lon="12.2536231"><ele>409.0</ele><time>2026-03-29T12:22:01.454Z</time></trkpt><trkpt lat="43.1911157" lon="12.2536256"><ele>409.0</ele><time>2026-03-29T12:22:03.454Z</time></trkpt><trkpt lat="43.1910455" lon="12.2537272"><ele>409.0</ele><time>2026-03-29T12:22:06.454Z</time></trkpt><trkpt lat="43.1910237" lon="12.2538319"><ele>409.0</ele><time>2026-03-29T12:22:07.453Z</time></trkpt><trkpt lat="43.1909767" lon="12.2539147"><ele>409.0</ele><time>2026-03-29T12:22:09.453Z</time></trkpt><trkpt lat="43.1909568" lon="12.2540636"><ele>409.0</ele><time>2026-03-29T12:22:11.454Z</time></trkpt><trkpt lat="43.1909536" lon="12.2542769"><ele>411.2</ele><time>2026-03-29T12:22:13.453Z</time></trkpt><trkpt lat="43.1908997" lon="12.2544065"><ele>413.4</ele><time>2026-03-29T12:22:15.454Z</time></trkpt><trkpt lat="43.1908512" lon="12.254477"><ele>415.6</ele><time>2026-03-29T12:22:16.454Z</time></trkpt><trkpt lat="43.1908192" lon="12.2545558"><ele>417.8</ele><time>2026-03-29T12:22:17.453Z</time></trkpt><trkpt lat="43.190747" lon="12.25469"><ele>420.0</ele><time>2026-03-29T12:22:19.453Z</time></trkpt><trkpt lat="43.1907053" lon="12.2547992"><ele>419.6</ele><time>2026-03-29T12:22:21.454Z</time></trkpt><trkpt lat="43.1906189" lon="12.2549007"><ele>419.2</ele><time>2026-03-29T12:22:23.453Z</time></trkpt><trkpt lat="43.1905573" lon="12.2549241"><ele>418.79999999999995</ele><time>2026-03-29T12:22:24.454Z</time></trkpt><trkpt lat="43.1904345" lon="12.2549336"><ele>418.4</ele><time>2026-03-29T12:22:26.454Z</time></trkpt><trkpt lat="43.1903334" lon="12.2549256"><ele>418.0</ele><time>2026-03-29T12:22:27.454Z</time></trkpt><trkpt lat="43.190237" lon="12.2549057"><ele>418.0</ele><time>2026-03-29T12:22:28.453Z</time></trkpt><trkpt lat="43.1901693" lon="12.2549298"><ele>418.0</ele><time>2026-03-29T12:22:29.453Z</time></trkpt><trkpt lat="43.1900103" lon="12.2549274"><ele>418.0</ele><time>2026-03-29T12:22:30.453Z</time></trkpt><trkpt lat="43.1899712" lon="12.2550383"><ele>418.0</ele><time>2026-03-29T12:22:31.454Z</time></trkpt><trkpt lat="43.1899329" lon="12.2551648"><ele>418.0</ele><time>2026-03-29T12:22:32.453Z</time></trkpt><trkpt lat="43.1898755" lon="12.2552864"><ele>416.4</ele><time>2026-03-29T12:22:33.453Z</time></trkpt><trkpt lat="43.1898144" lon="12.2552462"><ele>414.79999999999995</ele><time>2026-03-29T12:22:35.454Z</time></trkpt><trkpt lat="43.1897124" lon="12.2551629"><ele>413.2</ele><time>2026-03-29T12:22:37.454Z</time></trkpt><trkpt lat="43.1896194" lon="12.2550995"><ele>411.6</ele><time>2026-03-29T12:22:39.453Z</time></trkpt><trkpt lat="43.1894893" lon="12.2550206"><ele>410.0</ele><time>2026-03-29T12:22:40.454Z</time></trkpt><trkpt lat="43.1894193" lon="12.255018"><ele>410.0</ele><time>2026-03-29T12:22:41.454Z</time></trkpt><trkpt lat="43.1893535" lon="12.2550169"><ele>410.0</ele><time>2026-03-29T12:22:42.454Z</time></trkpt><trkpt lat="43.189273" lon="12.2550424"><ele>410.0</ele><time>2026-03-29T12:22:43.454Z</time></trkpt><trkpt lat="43.1892083" lon="12.2551124"><ele>410.0</ele><time>2026-03-29T12:22:44.454Z</time></trkpt><trkpt lat="43.1890315" lon="12.2550247"><ele>410.0</ele><time>2026-03-29T12:22:45.454Z</time></trkpt><trkpt lat="43.1889764" lon="12.2549599"><ele>409.7142857142857</ele><time>2026-03-29T12:22:46.454Z</time></trkpt><trkpt lat="43.1888978" lon="12.2548916"><ele>409.4285714285714</ele><time>2026-03-29T12:22:47.453Z</time></trkpt><trkpt lat="43.1888327" lon="12.2548512"><ele>409.1428571428571</ele><time>2026-03-29T12:22:48.454Z</time></trkpt><trkpt lat="43.1887636" lon="12.2548179"><ele>408.8571428571429</ele><time>2026-03-29T12:22:49.454Z</time></trkpt><trkpt lat="43.1887027" lon="12.2547813"><ele>408.57142857142856</ele><time>2026-03-29T12:22:50.453Z</time></trkpt><trkpt lat="43.1886343" lon="12.2547702"><ele>408.2857142857143</ele><time>2026-03-29T12:22:51.454Z</time></trkpt><trkpt lat="43.1885603" lon="12.2547846"><ele>408.0</ele><time>2026-03-29T12:22:52.453Z</time></trkpt><trkpt lat="43.1884836" lon="12.2548118"><ele>408.0</ele><time>2026-03-29T12:22:53.454Z</time></trkpt><trkpt lat="43.1883945" lon="12.2548142"><ele>408.0</ele><time>2026-03-29T12:22:54.454Z</time></trkpt><trkpt lat="43.1883067" lon="12.2548327"><ele>408.0</ele><time>2026-03-29T12:22:55.454Z</time></trkpt><trkpt lat="43.1882107" lon="12.2547175"><ele>408.0</ele><time>2026-03-29T12:22:56.453Z</time></trkpt><trkpt lat="43.1881059" lon="12.2546401"><ele>408.0</ele><time>2026-03-29T12:22:58.454Z</time></trkpt><trkpt lat="43.1880649" lon="12.254574"><ele>404.4</ele><time>2026-03-29T12:22:59.453Z</time></trkpt><trkpt lat="43.1880133" lon="12.2544951"><ele>400.79999999999995</ele><time>2026-03-29T12:23:00.453Z</time></trkpt><trkpt lat="43.1879507" lon="12.2544391"><ele>397.2</ele><time>2026-03-29T12:23:01.453Z</time></trkpt><trkpt lat="43.1878351" lon="12.2544319"><ele>393.6</ele><time>2026-03-29T12:23:03.453Z</time></trkpt><trkpt lat="43.1877706" lon="12.2544354"><ele>390.0</ele><time>2026-03-29T12:23:04.454Z</time></trkpt><trkpt lat="43.1876477" lon="12.2544017"><ele>390.0</ele><time>2026-03-29T12:23:05.454Z</time></trkpt><trkpt lat="43.1875076" lon="12.2544333"><ele>390.0</ele><time>2026-03-29T12:23:07.454Z</time></trkpt><trkpt lat="43.1874427" lon="12.2544553"><ele>390.0</ele><time>2026-03-29T12:23:08.454Z</time></trkpt><trkpt lat="43.1873801" lon="12.2544646"><ele>390.0</ele><time>2026-03-29T12:23:09.453Z</time></trkpt><trkpt lat="43.1873117" lon="12.2544742"><ele>390.0</ele><time>2026-03-29T12:23:10.453Z</time></trkpt><trkpt lat="43.1872467" lon="12.2544879"><ele>390.0</ele><time>2026-03-29T12:23:11.453Z</time></trkpt><trkpt lat="43.1871732" lon="12.2544979"><ele>388.5</ele><time>2026-03-29T12:23:12.453Z</time></trkpt><trkpt lat="43.1870993" lon="12.2545502"><ele>387.0</ele><time>2026-03-29T12:23:13.453Z</time></trkpt><trkpt lat="43.1870309" lon="12.2545913"><ele>385.5</ele><time>2026-03-29T12:23:14.453Z</time></trkpt><trkpt lat="43.186971" lon="12.2546349"><ele>384.0</ele><time>2026-03-29T12:23:15.454Z</time></trkpt><trkpt lat="43.1868641" lon="12.2546272"><ele>382.5</ele><time>2026-03-29T12:23:16.453Z</time></trkpt><trkpt lat="43.1868071" lon="12.2547178"><ele>381.0</ele><time>2026-03-29T12:23:18.454Z</time></trkpt><trkpt lat="43.1866884" lon="12.2548009"><ele>384.0</ele><time>2026-03-29T12:23:20.453Z</time></trkpt><trkpt lat="43.1865589" lon="12.2548488"><ele>387.0</ele><time>2026-03-29T12:23:22.453Z</time></trkpt><trkpt lat="43.1864142" lon="12.2549152"><ele>390.0</ele><time>2026-03-29T12:23:24.453Z</time></trkpt><trkpt lat="43.1863283" lon="12.2549268"><ele>393.0</ele><time>2026-03-29T12:23:25.454Z</time></trkpt><trkpt lat="43.1862275" lon="12.2549411"><ele>393.0</ele><time>2026-03-29T12:23:26.453Z</time></trkpt><trkpt lat="43.1861488" lon="12.2549007"><ele>393.0</ele><time>2026-03-29T12:23:27.453Z</time></trkpt><trkpt lat="43.1860276" lon="12.2548908"><ele>393.0</ele><time>2026-03-29T12:23:29.454Z</time></trkpt><trkpt lat="43.1859174" lon="12.2548681"><ele>393.0</ele><time>2026-03-29T12:23:30.453Z</time></trkpt><trkpt lat="43.1858249" lon="12.254862"><ele>393.0</ele><time>2026-03-29T12:23:31.453Z</time></trkpt><trkpt lat="43.1857067" lon="12.2548839"><ele>390.4</ele><time>2026-03-29T12:23:33.453Z</time></trkpt><trkpt lat="43.1856391" lon="12.2548899"><ele>387.79999999999995</ele><time>2026-03-29T12:23:34.454Z</time></trkpt><trkpt lat="43.1855683" lon="12.2549744"><ele>385.2</ele><time>2026-03-29T12:23:36.454Z</time></trkpt><trkpt lat="43.1854375" lon="12.2551093"><ele>382.6</ele><time>2026-03-29T12:23:38.454Z</time></trkpt><trkpt lat="43.1853141" lon="12.2551154"><ele>380.0</ele><time>2026-03-29T12:23:40.453Z</time></trkpt><trkpt lat="43.1851699" lon="12.255103"><ele>380.0</ele><time>2026-03-29T12:23:42.453Z</time></trkpt><trkpt lat="43.1850697" lon="12.2550317"><ele>380.0</ele><time>2026-03-29T12:23:43.453Z</time></trkpt><trkpt lat="43.1849733" lon="12.2549944"><ele>380.0</ele><time>2026-03-29T12:23:44.453Z</time></trkpt><trkpt lat="43.1848739" lon="12.2549358"><ele>380.0</ele><time>2026-03-29T12:23:45.453Z</time></trkpt><trkpt lat="43.1848032" lon="12.2549081"><ele>380.0</ele><time>2026-03-29T12:23:46.453Z</time></trkpt><trkpt lat="43.1846879" lon="12.2549182"><ele>377.1666666666667</ele><time>2026-03-29T12:23:48.453Z</time></trkpt><trkpt lat="43.184623" lon="12.2549334"><ele>374.33333333333337</ele><time>2026-03-29T12:23:49.453Z</time></trkpt><trkpt lat="43.1845556" lon="12.2550624"><ele>371.5</ele><time>2026-03-29T12:23:51.453Z</time></trkpt><trkpt lat="43.1845066" lon="12.2551337"><ele>368.6666666666667</ele><time>2026-03-29T12:23:52.454Z</time></trkpt><trkpt lat="43.1844736" lon="12.2552085"><ele>365.8333333333333</ele><time>2026-03-29T12:23:53.454Z</time></trkpt><trkpt lat="43.1844255" lon="12.2552816"><ele>363.0</ele><time>2026-03-29T12:23:54.453Z</time></trkpt><trkpt lat="43.1843662" lon="12.2553237"><ele>363.0</ele><time>2026-03-29T12:23:55.454Z</time></trkpt><trkpt lat="43.1842707" lon="12.255379"><ele>363.0</ele><time>2026-03-29T12:23:56.453Z</time></trkpt><trkpt lat="43.1842123" lon="12.2554528"><ele>363.0</ele><time>2026-03-29T12:23:57.454Z</time></trkpt><trkpt lat="43.1841327" lon="12.2555081"><ele>363.0</ele><time>2026-03-29T12:23:58.454Z</time></trkpt><trkpt lat="43.1840642" lon="12.2555777"><ele>363.0</ele><time>2026-03-29T12:23:59.453Z</time></trkpt><trkpt lat="43.184002" lon="12.255646"><ele>363.0</ele><time>2026-03-29T12:24:00.454Z</time></trkpt><trkpt lat="43.1839547" lon="12.2557211"><ele>360.6666666666667</ele><time>2026-03-29T12:24:01.453Z</time></trkpt><trkpt lat="43.183889" lon="12.2558095"><ele>358.3333333333333</ele><time>2026-03-29T12:24:02.454Z</time></trkpt><trkpt lat="43.1838503" lon="12.2558968"><ele>356.0</ele><time>2026-03-29T12:24:03.453Z</time></trkpt><trkpt lat="43.1838485" lon="12.2559891"><ele>353.66666666666663</ele><time>2026-03-29T12:24:04.453Z</time></trkpt><trkpt lat="43.1838856" lon="12.2561161"><ele>351.3333333333333</ele><time>2026-03-29T12:24:05.454Z</time></trkpt><trkpt lat="43.1839192" lon="12.2562246"><ele>349.0</ele><time>2026-03-29T12:24:07.453Z</time></trkpt><trkpt lat="43.183923" lon="12.2563668"><ele>349.0</ele><time>2026-03-29T12:24:09.454Z</time></trkpt><trkpt lat="43.1838986" lon="12.2562782"><ele>349.0</ele><time>2026-03-29T12:24:10.454Z</time></trkpt><trkpt lat="43.1838552" lon="12.2561296"><ele>349.0</ele><time>2026-03-29T12:24:13.453Z</time></trkpt><trkpt lat="43.1837709" lon="12.2559674"><ele>349.0</ele><time>2026-03-29T12:24:15.453Z</time></trkpt><trkpt lat="43.1836868" lon="12.2559088"><ele>349.0</ele><time>2026-03-29T12:24:17.453Z</time></trkpt><trkpt lat="43.1836159" lon="12.2558476"><ele>349.0</ele><time>2026-03-29T12:24:18.454Z</time></trkpt><trkpt lat="43.1835746" lon="12.2557585"><ele>349.0</ele><time>2026-03-29T12:24:19.454Z</time></trkpt><trkpt lat="43.1834749" lon="12.2556706"><ele>349.0</ele><time>2026-03-29T12:24:21.453Z</time></trkpt><trkpt lat="43.1834465" lon="12.2555574"><ele>349.0</ele><time>2026-03-29T12:24:22.453Z</time></trkpt><trkpt lat="43.1833756" lon="12.2554423"><ele>349.0</ele><time>2026-03-29T12:24:24.453Z</time></trkpt><trkpt lat="43.1832967" lon="12.2553047"><ele>348.5</ele><time>2026-03-29T12:24:26.453Z</time></trkpt><trkpt lat="43.1832428" lon="12.2552449"><ele>348.0</ele><time>2026-03-29T12:24:27.453Z</time></trkpt><trkpt lat="43.1831836" lon="12.2552135"><ele>347.5</ele><time>2026-03-29T12:24:28.453Z</time></trkpt><trkpt lat="43.1831053" lon="12.2552163"><ele>347.0</ele><time>2026-03-29T12:24:31.453Z</time></trkpt><trkpt lat="43.1830333" lon="12.2550568"><ele>346.5</ele><time>2026-03-29T12:24:34.454Z</time></trkpt><trkpt lat="43.1830496" lon="12.2549327"><ele>346.0</ele><time>2026-03-29T12:24:35.453Z</time></trkpt><trkpt lat="43.1830396" lon="12.2548466"><ele>342.5</ele><time>2026-03-29T12:24:36.453Z</time></trkpt><trkpt lat="43.1829604" lon="12.2547991"><ele>339.0</ele><time>2026-03-29T12:24:38.453Z</time></trkpt><trkpt lat="43.1829168" lon="12.2548889"><ele>335.5</ele><time>2026-03-29T12:24:40.454Z</time></trkpt><trkpt lat="43.1828837" lon="12.2549882"><ele>332.0</ele><time>2026-03-29T12:24:42.453Z</time></trkpt><trkpt lat="43.1828783" lon="12.2551228"><ele>328.5</ele><time>2026-03-29T12:24:44.454Z</time></trkpt><trkpt lat="43.1828829" lon="12.2552285"><ele>325.0</ele><time>2026-03-29T12:24:45.453Z</time></trkpt><trkpt lat="43.1828979" lon="12.2553251"><ele>325.0</ele><time>2026-03-29T12:24:46.454Z</time></trkpt><trkpt lat="43.1829183" lon="12.255451"><ele>325.0</ele><time>2026-03-29T12:24:48.454Z</time></trkpt><trkpt lat="43.1829414" lon="12.2555386"><ele>325.0</ele><time>2026-03-29T12:24:55.454Z</time></trkpt><trkpt lat="43.1829036" lon="12.2556481"><ele>325.0</ele><time>2026-03-29T12:25:05.453Z</time></trkpt><trkpt lat="43.182834" lon="12.2556522"><ele>325.0</ele><time>2026-03-29T12:25:07.454Z</time></trkpt><trkpt lat="43.1827497" lon="12.2555912"><ele>325.0</ele><time>2026-03-29T12:25:09.453Z</time></trkpt><trkpt lat="43.182695" lon="12.2555326"><ele>325.0</ele><time>2026-03-29T12:25:10.453Z</time></trkpt><trkpt lat="43.1826213" lon="12.2554599"><ele>325.0</ele><time>2026-03-29T12:25:11.453Z</time></trkpt><trkpt lat="43.1825705" lon="12.2553879"><ele>325.0</ele><time>2026-03-29T12:25:12.454Z</time></trkpt><trkpt lat="43.1825083" lon="12.2553007"><ele>325.0</ele><time>2026-03-29T12:25:13.453Z</time></trkpt><trkpt lat="43.18244" lon="12.2551763"><ele>325.0</ele><time>2026-03-29T12:25:14.453Z</time></trkpt><trkpt lat="43.182368" lon="12.2550666"><ele>322.0</ele><time>2026-03-29T12:25:15.454Z</time></trkpt><trkpt lat="43.1822996" lon="12.2549846"><ele>319.0</ele><time>2026-03-29T12:25:16.454Z</time></trkpt><trkpt lat="43.1822264" lon="12.2548904"><ele>316.0</ele><time>2026-03-29T12:25:17.454Z</time></trkpt><trkpt lat="43.1821569" lon="12.2547927"><ele>313.0</ele><time>2026-03-29T12:25:18.453Z</time></trkpt><trkpt lat="43.1820893" lon="12.2546882"><ele>310.0</ele><time>2026-03-29T12:25:19.454Z</time></trkpt><trkpt lat="43.1820341" lon="12.2545821"><ele>309.6</ele><time>2026-03-29T12:25:20.453Z</time></trkpt><trkpt lat="43.181987" lon="12.2544776"><ele>309.2</ele><time>2026-03-29T12:25:21.453Z</time></trkpt><trkpt lat="43.1819351" lon="12.2543733"><ele>308.8</ele><time>2026-03-29T12:25:22.453Z</time></trkpt><trkpt lat="43.1818462" lon="12.2542665"><ele>308.4</ele><time>2026-03-29T12:25:24.453Z</time></trkpt><trkpt lat="43.1817561" lon="12.2542001"><ele>308.0</ele><time>2026-03-29T12:25:26.453Z</time></trkpt><trkpt lat="43.1816705" lon="12.2541901"><ele>308.0</ele><time>2026-03-29T12:25:28.454Z</time></trkpt><trkpt lat="43.1815763" lon="12.2541788"><ele>308.0</ele><time>2026-03-29T12:25:30.454Z</time></trkpt><trkpt lat="43.1814923" lon="12.2541612"><ele>308.0</ele><time>2026-03-29T12:25:36.454Z</time></trkpt><trkpt lat="43.1814159" lon="12.2541374"><ele>308.0</ele><time>2026-03-29T12:25:38.453Z</time></trkpt><trkpt lat="43.1813274" lon="12.2541157"><ele>308.0</ele><time>2026-03-29T12:25:39.453Z</time></trkpt><trkpt lat="43.1812221" lon="12.2539464"><ele>308.0</ele><time>2026-03-29T12:25:41.454Z</time></trkpt><trkpt lat="43.1811977" lon="12.2538523"><ele>308.0</ele><time>2026-03-29T12:25:42.454Z</time></trkpt><trkpt lat="43.1811617" lon="12.2537645"><ele>308.0</ele><time>2026-03-29T12:25:43.453Z</time></trkpt><trkpt lat="43.1811138" lon="12.2536724"><ele>308.0</ele><time>2026-03-29T12:25:44.454Z</time></trkpt><trkpt lat="43.1809992" lon="12.2536612"><ele>308.0</ele><time>2026-03-29T12:25:46.453Z</time></trkpt><trkpt lat="43.1809126" lon="12.2536495"><ele>308.0</ele><time>2026-03-29T12:25:47.453Z</time></trkpt><trkpt lat="43.1808223" lon="12.2536345"><ele>308.0</ele><time>2026-03-29T12:25:48.454Z</time></trkpt><trkpt lat="43.1807268" lon="12.253596"><ele>308.0</ele><time>2026-03-29T12:25:49.453Z</time></trkpt><trkpt lat="43.1806179" lon="12.2535511"><ele>308.0</ele><time>2026-03-29T12:25:50.454Z</time></trkpt><trkpt lat="43.1805086" lon="12.253498"><ele>308.0</ele><time>2026-03-29T12:25:51.453Z</time></trkpt><trkpt lat="43.1804116" lon="12.2534408"><ele>308.0</ele><time>2026-03-29T12:25:52.453Z</time></trkpt><trkpt lat="43.1803165" lon="12.2533746"><ele>307.8</ele><time>2026-03-29T12:25:53.454Z</time></trkpt><trkpt lat="43.1802266" lon="12.2532904"><ele>307.6</ele><time>2026-03-29T12:25:54.453Z</time></trkpt><trkpt lat="43.1801449" lon="12.2531786"><ele>307.4</ele><time>2026-03-29T12:25:55.453Z</time></trkpt><trkpt lat="43.1800835" lon="12.2530558"><ele>307.2</ele><time>2026-03-29T12:25:56.454Z</time></trkpt><trkpt lat="43.1800337" lon="12.2529389"><ele>307.0</ele><time>2026-03-29T12:25:57.453Z</time></trkpt><trkpt lat="43.1800053" lon="12.2528317"><ele>307.0</ele><time>2026-03-29T12:25:58.453Z</time></trkpt><trkpt lat="43.1799855" lon="12.2526799"><ele>307.0</ele><time>2026-03-29T12:26:00.454Z</time></trkpt><trkpt lat="43.1800069" lon="12.2528021"><ele>307.0</ele><time>2026-03-29T12:26:08.453Z</time></trkpt><trkpt lat="43.1799924" lon="12.2528909"><ele>307.0</ele><time>2026-03-29T12:26:11.454Z</time></trkpt><trkpt lat="43.179904" lon="12.2529144"><ele>307.0</ele><time>2026-03-29T12:26:14.454Z</time></trkpt><trkpt lat="43.1798315" lon="12.252967"><ele>307.0</ele><time>2026-03-29T12:26:18.453Z</time></trkpt><trkpt lat="43.1797934" lon="12.2530535"><ele>311.3333333333333</ele><time>2026-03-29T12:26:50.453Z</time></trkpt><trkpt lat="43.1797197" lon="12.25305"><ele>315.66666666666663</ele><time>2026-03-29T12:29:33.455Z</time></trkpt><trkpt lat="43.1796518" lon="12.2530969"><ele>320.0</ele><time>2026-03-29T12:30:35.455Z</time></trkpt><trkpt lat="43.1795953" lon="12.253201"><ele>324.3333333333333</ele><time>2026-03-29T12:30:38.454Z</time></trkpt><trkpt lat="43.1795352" lon="12.2533006"><ele>328.6666666666667</ele><time>2026-03-29T12:30:40.454Z</time></trkpt><trkpt lat="43.1795003" lon="12.2533877"><ele>333.0</ele><time>2026-03-29T12:30:42.454Z</time></trkpt><trkpt lat="43.1794572" lon="12.2534819"><ele>334.3333333333333</ele><time>2026-03-29T12:30:44.454Z</time></trkpt><trkpt lat="43.1794085" lon="12.2535637"><ele>335.6666666666667</ele><time>2026-03-29T12:30:46.455Z</time></trkpt><trkpt lat="43.1793435" lon="12.2536412"><ele>337.0</ele><time>2026-03-29T12:30:49.454Z</time></trkpt><trkpt lat="43.1792931" lon="12.253716"><ele>338.33333333333337</ele><time>2026-03-29T12:30:51.454Z</time></trkpt><trkpt lat="43.1792424" lon="12.2537843"><ele>339.6666666666667</ele><time>2026-03-29T12:30:53.455Z</time></trkpt><trkpt lat="43.1791948" lon="12.2538676"><ele>341.0</ele><time>2026-03-29T12:30:55.455Z</time></trkpt><trkpt lat="43.1791642" lon="12.2540701"><ele>343.20000000000005</ele><time>2026-03-29T12:30:57.455Z</time></trkpt><trkpt lat="43.1791243" lon="12.2542245"><ele>345.40000000000003</ele><time>2026-03-29T12:30:58.455Z</time></trkpt><trkpt lat="43.1790922" lon="12.2543285"><ele>347.6</ele><time>2026-03-29T12:31:01.454Z</time></trkpt><trkpt lat="43.1790647" lon="12.2544448"><ele>349.8</ele><time>2026-03-29T12:31:03.454Z</time></trkpt><trkpt lat="43.1790023" lon="12.2545501"><ele>352.0</ele><time>2026-03-29T12:31:05.455Z</time></trkpt><trkpt lat="43.1789879" lon="12.2546383"><ele>355.0</ele><time>2026-03-29T12:31:28.453Z</time></trkpt><trkpt lat="43.1789306" lon="12.2547085"><ele>358.0</ele><time>2026-03-29T12:31:35.454Z</time></trkpt><trkpt lat="43.1788905" lon="12.2546411"><ele>361.0</ele><time>2026-03-29T12:31:39.454Z</time></trkpt><trkpt lat="43.1788814" lon="12.2545512"><ele>364.0</ele><time>2026-03-29T12:31:41.454Z</time></trkpt><trkpt lat="43.1788754" lon="12.2543885"><ele>367.0</ele><time>2026-03-29T12:31:43.455Z</time></trkpt><trkpt lat="43.1788575" lon="12.2542972"><ele>370.0</ele><time>2026-03-29T12:31:44.453Z</time></trkpt><trkpt lat="43.1788351" lon="12.2541967"><ele>370.0</ele><time>2026-03-29T12:31:45.454Z</time></trkpt><trkpt lat="43.1788062" lon="12.2541105"><ele>370.0</ele><time>2026-03-29T12:31:46.454Z</time></trkpt><trkpt lat="43.1787191" lon="12.2540462"><ele>370.0</ele><time>2026-03-29T12:31:48.455Z</time></trkpt><trkpt lat="43.1786445" lon="12.2539778"><ele>370.0</ele><time>2026-03-29T12:31:49.455Z</time></trkpt><trkpt lat="43.1785367" lon="12.2539961"><ele>370.0</ele><time>2026-03-29T12:31:51.454Z</time></trkpt><trkpt lat="43.1784536" lon="12.2540014"><ele>368.8</ele><time>2026-03-29T12:31:52.455Z</time></trkpt><trkpt lat="43.1784016" lon="12.2539241"><ele>367.6</ele><time>2026-03-29T12:31:54.455Z</time></trkpt><trkpt lat="43.1783715" lon="12.2537916"><ele>366.4</ele><time>2026-03-29T12:31:56.455Z</time></trkpt><trkpt lat="43.1783629" lon="12.2536502"><ele>365.2</ele><time>2026-03-29T12:31:58.455Z</time></trkpt><trkpt lat="43.1783736" lon="12.2534924"><ele>364.0</ele><time>2026-03-29T12:32:00.454Z</time></trkpt><trkpt lat="43.1783887" lon="12.2533597"><ele>364.0</ele><time>2026-03-29T12:32:02.454Z</time></trkpt><trkpt lat="43.1784032" lon="12.2532395"><ele>364.0</ele><time>2026-03-29T12:32:03.454Z</time></trkpt><trkpt lat="43.1784297" lon="12.2531196"><ele>364.0</ele><time>2026-03-29T12:32:04.454Z</time></trkpt><trkpt lat="43.178442" lon="12.2530067"><ele>364.0</ele><time>2026-03-29T12:32:05.453Z</time></trkpt><trkpt lat="43.1784512" lon="12.2529049"><ele>364.0</ele><time>2026-03-29T12:32:06.454Z</time></trkpt><trkpt lat="43.1784654" lon="12.2527824"><ele>364.0</ele><time>2026-03-29T12:32:07.454Z</time></trkpt><trkpt lat="43.1784974" lon="12.252638"><ele>363.0</ele><time>2026-03-29T12:32:08.454Z</time></trkpt><trkpt lat="43.1784816" lon="12.2525457"><ele>362.0</ele><time>2026-03-29T12:32:09.454Z</time></trkpt><trkpt lat="43.1784423" lon="12.2524618"><ele>361.0</ele><time>2026-03-29T12:32:10.454Z</time></trkpt><trkpt lat="43.1784159" lon="12.2523479"><ele>360.0</ele><time>2026-03-29T12:32:11.454Z</time></trkpt><trkpt lat="43.1783485" lon="12.2522743"><ele>359.0</ele><time>2026-03-29T12:32:12.454Z</time></trkpt><trkpt lat="43.1783021" lon="12.2521401"><ele>358.0</ele><time>2026-03-29T12:32:13.454Z</time></trkpt><trkpt lat="43.1782497" lon="12.2520462"><ele>355.0</ele><time>2026-03-29T12:32:14.454Z</time></trkpt><trkpt lat="43.178204" lon="12.2519529"><ele>352.0</ele><time>2026-03-29T12:32:15.455Z</time></trkpt><trkpt lat="43.1781891" lon="12.2518096"><ele>349.0</ele><time>2026-03-29T12:32:18.454Z</time></trkpt><trkpt lat="43.1781335" lon="12.2518736"><ele>346.0</ele><time>2026-03-29T12:32:44.455Z</time></trkpt><trkpt lat="43.1780605" lon="12.2519621"><ele>343.0</ele><time>2026-03-29T12:32:48.455Z</time></trkpt><trkpt lat="43.1780064" lon="12.2520724"><ele>343.8333333333333</ele><time>2026-03-29T12:32:50.454Z</time></trkpt><trkpt lat="43.1779757" lon="12.2522115"><ele>344.66666666666663</ele><time>2026-03-29T12:32:52.453Z</time></trkpt><trkpt lat="43.1779458" lon="12.2523403"><ele>345.5</ele><time>2026-03-29T12:32:54.454Z</time></trkpt><trkpt lat="43.1779116" lon="12.2524353"><ele>346.3333333333333</ele><time>2026-03-29T12:32:55.455Z</time></trkpt><trkpt lat="43.1779022" lon="12.2525412"><ele>347.1666666666667</ele><time>2026-03-29T12:32:56.454Z</time></trkpt><trkpt lat="43.1778741" lon="12.2526256"><ele>348.0</ele><time>2026-03-29T12:32:57.455Z</time></trkpt><trkpt lat="43.1778526" lon="12.2527173"><ele>348.0</ele><time>2026-03-29T12:32:58.455Z</time></trkpt><trkpt lat="43.1778362" lon="12.2528784"><ele>348.0</ele><time>2026-03-29T12:33:00.454Z</time></trkpt><trkpt lat="43.177831" lon="12.2529668"><ele>348.0</ele><time>2026-03-29T12:33:01.455Z</time></trkpt><trkpt lat="43.1778233" lon="12.2531021"><ele>348.0</ele><time>2026-03-29T12:33:03.454Z</time></trkpt><trkpt lat="43.1778384" lon="12.2532633"><ele>348.0</ele><time>2026-03-29T12:33:05.454Z</time></trkpt><trkpt lat="43.1778161" lon="12.2533606"><ele>350.4</ele><time>2026-03-29T12:33:07.455Z</time></trkpt><trkpt lat="43.177789" lon="12.2534861"><ele>352.79999999999995</ele><time>2026-03-29T12:33:09.455Z</time></trkpt><trkpt lat="43.1778323" lon="12.2536601"><ele>355.2</ele><time>2026-03-29T12:33:11.454Z</time></trkpt><trkpt lat="43.1778355" lon="12.253772"><ele>357.6</ele><time>2026-03-29T12:33:12.455Z</time></trkpt><trkpt lat="43.1778418" lon="12.2539057"><ele>360.0</ele><time>2026-03-29T12:33:14.454Z</time></trkpt><trkpt lat="43.1778262" lon="12.2540027"><ele>362.3333333333333</ele><time>2026-03-29T12:33:15.455Z</time></trkpt><trkpt lat="43.1778018" lon="12.2540993"><ele>364.6666666666667</ele><time>2026-03-29T12:33:16.454Z</time></trkpt><trkpt lat="43.1778232" lon="12.2542786"><ele>367.0</ele><time>2026-03-29T12:33:18.455Z</time></trkpt><trkpt lat="43.1778398" lon="12.2543663"><ele>369.33333333333337</ele><time>2026-03-29T12:33:19.454Z</time></trkpt><trkpt lat="43.1778529" lon="12.2544582"><ele>371.6666666666667</ele><time>2026-03-29T12:33:20.454Z</time></trkpt><trkpt lat="43.1778636" lon="12.2545991"><ele>374.0</ele><time>2026-03-29T12:33:22.455Z</time></trkpt><trkpt lat="43.1779326" lon="12.2547177"><ele>377.0</ele><time>2026-03-29T12:33:24.455Z</time></trkpt><trkpt lat="43.1779722" lon="12.254801"><ele>380.0</ele><time>2026-03-29T12:33:25.455Z</time></trkpt><trkpt lat="43.1780263" lon="12.2548863"><ele>383.0</ele><time>2026-03-29T12:33:26.455Z</time></trkpt><trkpt lat="43.1780691" lon="12.254987"><ele>386.0</ele><time>2026-03-29T12:33:27.454Z</time></trkpt><trkpt lat="43.178106" lon="12.2550882"><ele>388.99999999999994</ele><time>2026-03-29T12:33:28.455Z</time></trkpt><trkpt lat="43.1781323" lon="12.2552067"><ele>392.0</ele><time>2026-03-29T12:33:29.454Z</time></trkpt><trkpt lat="43.1781632" lon="12.255346"><ele>389.40000000000003</ele><time>2026-03-29T12:33:30.455Z</time></trkpt><trkpt lat="43.1781946" lon="12.2554488"><ele>386.8</ele><time>2026-03-29T12:33:31.454Z</time></trkpt><trkpt lat="43.1781495" lon="12.2556454"><ele>384.2</ele><time>2026-03-29T12:33:32.454Z</time></trkpt><trkpt lat="43.1781435" lon="12.2557765"><ele>381.6</ele><time>2026-03-29T12:33:33.454Z</time></trkpt><trkpt lat="43.1781276" lon="12.2558899"><ele>379.0</ele><time>2026-03-29T12:33:34.454Z</time></trkpt><trkpt lat="43.1781219" lon="12.2559813"><ele>382.8333333333333</ele><time>2026-03-29T12:33:35.454Z</time></trkpt><trkpt lat="43.1781031" lon="12.2560959"><ele>386.66666666666663</ele><time>2026-03-29T12:33:36.454Z</time></trkpt><trkpt lat="43.1780977" lon="12.2561946"><ele>390.5</ele><time>2026-03-29T12:33:37.455Z</time></trkpt><trkpt lat="43.1780505" lon="12.2563822"><ele>394.3333333333333</ele><time>2026-03-29T12:33:39.454Z</time></trkpt><trkpt lat="43.1780521" lon="12.2564881"><ele>398.1666666666667</ele><time>2026-03-29T12:33:40.454Z</time></trkpt><trkpt lat="43.1781102" lon="12.2565356"><ele>402.0</ele><time>2026-03-29T12:33:41.455Z</time></trkpt><trkpt lat="43.1782112" lon="12.2565173"><ele>402.0</ele><time>2026-03-29T12:33:43.455Z</time></trkpt><trkpt lat="43.1783245" lon="12.2565151"><ele>402.0</ele><time>2026-03-29T12:33:45.454Z</time></trkpt><trkpt lat="43.1784742" lon="12.2564786"><ele>402.0</ele><time>2026-03-29T12:33:47.455Z</time></trkpt><trkpt lat="43.1786225" lon="12.2564377"><ele>402.0</ele><time>2026-03-29T12:33:48.454Z</time></trkpt><trkpt lat="43.1787037" lon="12.2564162"><ele>402.0</ele><time>2026-03-29T12:33:49.454Z</time></trkpt><trkpt lat="43.178784" lon="12.2564131"><ele>402.0</ele><time>2026-03-29T12:33:50.454Z</time></trkpt><trkpt lat="43.1788913" lon="12.2563986"><ele>402.0</ele><time>2026-03-29T12:33:52.455Z</time></trkpt><trkpt lat="43.1789495" lon="12.2564557"><ele>402.0</ele><time>2026-03-29T12:33:54.454Z</time></trkpt><trkpt lat="43.1788671" lon="12.2565493"><ele>402.0</ele><time>2026-03-29T12:33:57.454Z</time></trkpt><trkpt lat="43.1787898" lon="12.2566585"><ele>402.0</ele><time>2026-03-29T12:33:59.455Z</time></trkpt><trkpt lat="43.1787318" lon="12.2567758"><ele>402.0</ele><time>2026-03-29T12:34:01.455Z</time></trkpt><trkpt lat="43.1786974" lon="12.2568874"><ele>402.0</ele><time>2026-03-29T12:34:02.454Z</time></trkpt><trkpt lat="43.1786618" lon="12.2570109"><ele>402.0</ele><time>2026-03-29T12:34:04.455Z</time></trkpt><trkpt lat="43.1785751" lon="12.2571294"><ele>402.0</ele><time>2026-03-29T12:34:06.454Z</time></trkpt><trkpt lat="43.1784677" lon="12.2571811"><ele>402.0</ele><time>2026-03-29T12:34:07.455Z</time></trkpt><trkpt lat="43.1784061" lon="12.257256"><ele>402.0</ele><time>2026-03-29T12:34:08.454Z</time></trkpt><trkpt lat="43.1783216" lon="12.2573504"><ele>402.0</ele><time>2026-03-29T12:34:09.454Z</time></trkpt><trkpt lat="43.1782411" lon="12.2574594"><ele>402.0</ele><time>2026-03-29T12:34:10.454Z</time></trkpt><trkpt lat="43.1781699" lon="12.2575011"><ele>402.0</ele><time>2026-03-29T12:34:11.455Z</time></trkpt><trkpt lat="43.1779916" lon="12.2574836"><ele>407.6</ele><time>2026-03-29T12:34:14.454Z</time></trkpt><trkpt lat="43.1780269" lon="12.2575812"><ele>413.20000000000005</ele><time>2026-03-29T12:34:18.455Z</time></trkpt><trkpt lat="43.1780543" lon="12.2576763"><ele>418.8</ele><time>2026-03-29T12:34:20.455Z</time></trkpt><trkpt lat="43.1780759" lon="12.2578053"><ele>424.4</ele><time>2026-03-29T12:34:22.454Z</time></trkpt><trkpt lat="43.1780938" lon="12.257978"><ele>430.0</ele><time>2026-03-29T12:34:24.455Z</time></trkpt><trkpt lat="43.1780759" lon="12.2581736"><ele>431.2</ele><time>2026-03-29T12:34:26.454Z</time></trkpt><trkpt lat="43.1780413" lon="12.2583217"><ele>432.4</ele><time>2026-03-29T12:34:28.454Z</time></trkpt><trkpt lat="43.1780296" lon="12.2584102"><ele>433.6</ele><time>2026-03-29T12:34:29.455Z</time></trkpt><trkpt lat="43.1780489" lon="12.2585028"><ele>434.8</ele><time>2026-03-29T12:34:30.455Z</time></trkpt><trkpt lat="43.1780532" lon="12.2586051"><ele>436.0</ele><time>2026-03-29T12:34:31.454Z</time></trkpt><trkpt lat="43.1780513" lon="12.2587913"><ele>436.0</ele><time>2026-03-29T12:34:33.455Z</time></trkpt><trkpt lat="43.1780364" lon="12.2588791"><ele>436.0</ele><time>2026-03-29T12:34:34.454Z</time></trkpt><trkpt lat="43.1780354" lon="12.2589782"><ele>436.0</ele><time>2026-03-29T12:34:35.454Z</time></trkpt><trkpt lat="43.1780531" lon="12.2591246"><ele>436.0</ele><time>2026-03-29T12:34:36.455Z</time></trkpt><trkpt lat="43.1780345" lon="12.2592629"><ele>436.0</ele><time>2026-03-29T12:34:37.455Z</time></trkpt><trkpt lat="43.1779824" lon="12.259408"><ele>435.00000000000006</ele><time>2026-03-29T12:34:39.454Z</time></trkpt><trkpt lat="43.1780433" lon="12.2593675"><ele>434.0</ele><time>2026-03-29T12:34:40.454Z</time></trkpt><trkpt lat="43.1781097" lon="12.2594541"><ele>433.0</ele><time>2026-03-29T12:34:42.455Z</time></trkpt><trkpt lat="43.178132" lon="12.2595484"><ele>432.0</ele><time>2026-03-29T12:34:44.454Z</time></trkpt><trkpt lat="43.1781744" lon="12.2596183"><ele>431.00000000000006</ele><time>2026-03-29T12:34:46.455Z</time></trkpt><trkpt lat="43.1782483" lon="12.2597354"><ele>430.0</ele><time>2026-03-29T12:34:48.455Z</time></trkpt><trkpt lat="43.1783014" lon="12.2598357"><ele>426.2</ele><time>2026-03-29T12:34:49.454Z</time></trkpt><trkpt lat="43.1784241" lon="12.2599324"><ele>422.4</ele><time>2026-03-29T12:34:50.454Z</time></trkpt><trkpt lat="43.1785751" lon="12.2599626"><ele>418.6</ele><time>2026-03-29T12:34:51.454Z</time></trkpt><trkpt lat="43.1786371" lon="12.2600082"><ele>414.8</ele><time>2026-03-29T12:34:52.455Z</time></trkpt><trkpt lat="43.1787065" lon="12.2600214"><ele>411.0</ele><time>2026-03-29T12:35:02.455Z</time></trkpt><trkpt lat="43.1787532" lon="12.2600866"><ele>411.0</ele><time>2026-03-29T12:35:44.454Z</time></trkpt><trkpt lat="43.1788072" lon="12.2601612"><ele>411.0</ele><time>2026-03-29T12:35:46.454Z</time></trkpt><trkpt lat="43.1788421" lon="12.2602379"><ele>411.0</ele><time>2026-03-29T12:35:47.454Z</time></trkpt><trkpt lat="43.1788721" lon="12.260317"><ele>411.0</ele><time>2026-03-29T12:35:48.454Z</time></trkpt><trkpt lat="43.1788957" lon="12.2604107"><ele>411.0</ele><time>2026-03-29T12:35:49.454Z</time></trkpt><trkpt lat="43.1789034" lon="12.2604991"><ele>411.0</ele><time>2026-03-29T12:35:50.455Z</time></trkpt><trkpt lat="43.178924" lon="12.2605855"><ele>411.0</ele><time>2026-03-29T12:35:51.455Z</time></trkpt><trkpt lat="43.1789727" lon="12.2606515"><ele>411.6</ele><time>2026-03-29T12:35:52.454Z</time></trkpt><trkpt lat="43.1790481" lon="12.2606666"><ele>412.20000000000005</ele><time>2026-03-29T12:35:54.453Z</time></trkpt><trkpt lat="43.1791254" lon="12.2606291"><ele>412.79999999999995</ele><time>2026-03-29T12:35:55.455Z</time></trkpt><trkpt lat="43.1792258" lon="12.2605541"><ele>413.4</ele><time>2026-03-29T12:35:57.455Z</time></trkpt><trkpt lat="43.1793444" lon="12.2604799"><ele>414.0</ele><time>2026-03-29T12:35:59.455Z</time></trkpt><trkpt lat="43.1794616" lon="12.260511"><ele>414.0</ele><time>2026-03-29T12:36:01.455Z</time></trkpt><trkpt lat="43.1795696" lon="12.2605572"><ele>414.0</ele><time>2026-03-29T12:36:03.454Z</time></trkpt><trkpt lat="43.1796747" lon="12.2606643"><ele>414.0</ele><time>2026-03-29T12:36:05.454Z</time></trkpt><trkpt lat="43.1797847" lon="12.2606803"><ele>414.0</ele><time>2026-03-29T12:36:07.455Z</time></trkpt><trkpt lat="43.1798864" lon="12.2606853"><ele>414.5</ele><time>2026-03-29T12:36:08.455Z</time></trkpt><trkpt lat="43.1799531" lon="12.2606783"><ele>415.0</ele><time>2026-03-29T12:36:09.455Z</time></trkpt><trkpt lat="43.1800297" lon="12.2606803"><ele>415.5</ele><time>2026-03-29T12:36:10.454Z</time></trkpt><trkpt lat="43.1801203" lon="12.2606733"><ele>416.0</ele><time>2026-03-29T12:36:11.454Z</time></trkpt><trkpt lat="43.1802108" lon="12.2607122"><ele>416.5</ele><time>2026-03-29T12:36:13.454Z</time></trkpt><trkpt lat="43.1802772" lon="12.2606797"><ele>417.0</ele><time>2026-03-29T12:36:14.455Z</time></trkpt><trkpt lat="43.1803544" lon="12.2606694"><ele>417.0</ele><time>2026-03-29T12:36:15.455Z</time></trkpt><trkpt lat="43.1804482" lon="12.2606441"><ele>417.0</ele><time>2026-03-29T12:36:16.455Z</time></trkpt><trkpt lat="43.1805584" lon="12.2606532"><ele>417.0</ele><time>2026-03-29T12:36:18.455Z</time></trkpt><trkpt lat="43.1806308" lon="12.2607077"><ele>417.0</ele><time>2026-03-29T12:36:20.455Z</time></trkpt><trkpt lat="43.1806597" lon="12.2608136"><ele>417.0</ele><time>2026-03-29T12:36:22.453Z</time></trkpt><trkpt lat="43.1806061" lon="12.2609402"><ele>417.0</ele><time>2026-03-29T12:36:24.455Z</time></trkpt><trkpt lat="43.1805526" lon="12.2610128"><ele>417.0</ele><time>2026-03-29T12:36:26.454Z</time></trkpt><trkpt lat="43.1804783" lon="12.2611001"><ele>417.0</ele><time>2026-03-29T12:36:29.454Z</time></trkpt><trkpt lat="43.1803919" lon="12.2611564"><ele>417.0</ele><time>2026-03-29T12:36:30.454Z</time></trkpt><trkpt lat="43.1803324" lon="12.2611928"><ele>417.0</ele><time>2026-03-29T12:36:31.455Z</time></trkpt><trkpt lat="43.1802572" lon="12.2612449"><ele>417.0</ele><time>2026-03-29T12:36:32.453Z</time></trkpt><trkpt lat="43.18016" lon="12.2612918"><ele>417.0</ele><time>2026-03-29T12:36:33.455Z</time></trkpt><trkpt lat="43.1800913" lon="12.2613496"><ele>417.0</ele><time>2026-03-29T12:36:34.454Z</time></trkpt><trkpt lat="43.1799992" lon="12.2614129"><ele>417.0</ele><time>2026-03-29T12:36:35.454Z</time></trkpt><trkpt lat="43.1799067" lon="12.2614735"><ele>417.0</ele><time>2026-03-29T12:36:36.455Z</time></trkpt><trkpt lat="43.179793" lon="12.2615389"><ele>417.0</ele><time>2026-03-29T12:36:37.454Z</time></trkpt><trkpt lat="43.1796866" lon="12.2616323"><ele>421.20000000000005</ele><time>2026-03-29T12:36:38.454Z</time></trkpt><trkpt lat="43.1796019" lon="12.2616468"><ele>425.4</ele><time>2026-03-29T12:36:39.455Z</time></trkpt><trkpt lat="43.179515" lon="12.2616876"><ele>429.59999999999997</ele><time>2026-03-29T12:36:40.455Z</time></trkpt><trkpt lat="43.1794384" lon="12.2617336"><ele>433.79999999999995</ele><time>2026-03-29T12:36:41.454Z</time></trkpt><trkpt lat="43.1793391" lon="12.2618104"><ele>438.0</ele><time>2026-03-29T12:36:42.454Z</time></trkpt><trkpt lat="43.1792084" lon="12.2619031"><ele>438.0</ele><time>2026-03-29T12:36:43.454Z</time></trkpt><trkpt lat="43.1790878" lon="12.2619911"><ele>438.0</ele><time>2026-03-29T12:36:44.455Z</time></trkpt><trkpt lat="43.1789975" lon="12.2620299"><ele>438.0</ele><time>2026-03-29T12:36:45.454Z</time></trkpt><trkpt lat="43.178904" lon="12.2620998"><ele>438.0</ele><time>2026-03-29T12:36:46.454Z</time></trkpt><trkpt lat="43.1787893" lon="12.2621362"><ele>439.0</ele><time>2026-03-29T12:36:47.454Z</time></trkpt><trkpt lat="43.1787306" lon="12.2621802"><ele>440.0</ele><time>2026-03-29T12:36:48.454Z</time></trkpt><trkpt lat="43.1786649" lon="12.2621847"><ele>441.0</ele><time>2026-03-29T12:36:50.455Z</time></trkpt><trkpt lat="43.1785843" lon="12.262202"><ele>442.0</ele><time>2026-03-29T12:36:52.455Z</time></trkpt><trkpt lat="43.1784999" lon="12.2621992"><ele>443.0</ele><time>2026-03-29T12:36:54.454Z</time></trkpt><trkpt lat="43.1784041" lon="12.2621948"><ele>444.0</ele><time>2026-03-29T12:36:56.454Z</time></trkpt><trkpt lat="43.1782301" lon="12.2621715"><ele>445.6</ele><time>2026-03-29T12:36:58.455Z</time></trkpt><trkpt lat="43.1781426" lon="12.2621549"><ele>447.2</ele><time>2026-03-29T12:36:59.454Z</time></trkpt><trkpt lat="43.1780505" lon="12.2621315"><ele>448.80000000000007</ele><time>2026-03-29T12:37:00.454Z</time></trkpt><trkpt lat="43.1779497" lon="12.2620959"><ele>450.40000000000003</ele><time>2026-03-29T12:37:01.454Z</time></trkpt><trkpt lat="43.1778393" lon="12.2620411"><ele>452.0</ele><time>2026-03-29T12:37:02.455Z</time></trkpt><trkpt lat="43.1777461" lon="12.2619804"><ele>452.0</ele><time>2026-03-29T12:37:03.455Z</time></trkpt><trkpt lat="43.1776554" lon="12.2619148"><ele>452.00000000000006</ele><time>2026-03-29T12:37:04.455Z</time></trkpt><trkpt lat="43.1775705" lon="12.2618406"><ele>452.00000000000006</ele><time>2026-03-29T12:37:05.454Z</time></trkpt><trkpt lat="43.1774693" lon="12.2617774"><ele>452.0</ele><time>2026-03-29T12:37:06.454Z</time></trkpt><trkpt lat="43.1773716" lon="12.2617181"><ele>452.0</ele><time>2026-03-29T12:37:07.455Z</time></trkpt><trkpt lat="43.1772662" lon="12.2616696"><ele>452.8</ele><time>2026-03-29T12:37:08.454Z</time></trkpt><trkpt lat="43.1771589" lon="12.2616273"><ele>453.6</ele><time>2026-03-29T12:37:09.455Z</time></trkpt><trkpt lat="43.1770561" lon="12.2616025"><ele>454.40000000000003</ele><time>2026-03-29T12:37:10.455Z</time></trkpt><trkpt lat="43.1769471" lon="12.2615777"><ele>455.20000000000005</ele><time>2026-03-29T12:37:11.453Z</time></trkpt><trkpt lat="43.1768513" lon="12.2615619"><ele>456.0</ele><time>2026-03-29T12:37:12.455Z</time></trkpt><trkpt lat="43.1767697" lon="12.2615483"><ele>456.0</ele><time>2026-03-29T12:37:13.453Z</time></trkpt><trkpt lat="43.1766906" lon="12.2615273"><ele>456.0</ele><time>2026-03-29T12:37:14.454Z</time></trkpt><trkpt lat="43.1765825" lon="12.2614832"><ele>456.0</ele><time>2026-03-29T12:37:16.454Z</time></trkpt><trkpt lat="43.176479" lon="12.2614026"><ele>456.0</ele><time>2026-03-29T12:37:18.455Z</time></trkpt><trkpt lat="43.1764197" lon="12.2613263"><ele>456.0</ele><time>2026-03-29T12:37:19.454Z</time></trkpt><trkpt lat="43.1763484" lon="12.2612262"><ele>455.4</ele><time>2026-03-29T12:37:20.454Z</time></trkpt><trkpt lat="43.176274" lon="12.26113"><ele>454.8</ele><time>2026-03-29T12:37:21.454Z</time></trkpt><trkpt lat="43.1762025" lon="12.2610261"><ele>454.19999999999993</ele><time>2026-03-29T12:37:22.454Z</time></trkpt><trkpt lat="43.1761348" lon="12.2609179"><ele>453.59999999999997</ele><time>2026-03-29T12:37:23.454Z</time></trkpt><trkpt lat="43.1760801" lon="12.2608029"><ele>453.0</ele><time>2026-03-29T12:37:24.455Z</time></trkpt><trkpt lat="43.1760318" lon="12.2606938"><ele>454.3333333333333</ele><time>2026-03-29T12:37:25.454Z</time></trkpt><trkpt lat="43.1759934" lon="12.260589"><ele>455.66666666666663</ele><time>2026-03-29T12:37:26.454Z</time></trkpt><trkpt lat="43.1759684" lon="12.2604702"><ele>457.0</ele><time>2026-03-29T12:37:27.455Z</time></trkpt><trkpt lat="43.1759661" lon="12.2603511"><ele>458.3333333333333</ele><time>2026-03-29T12:37:28.455Z</time></trkpt><trkpt lat="43.1759766" lon="12.2602334"><ele>459.66666666666663</ele><time>2026-03-29T12:37:29.455Z</time></trkpt><trkpt lat="43.1759969" lon="12.2601173"><ele>461.0</ele><time>2026-03-29T12:37:30.455Z</time></trkpt><trkpt lat="43.176021" lon="12.259988"><ele>461.0</ele><time>2026-03-29T12:37:31.455Z</time></trkpt><trkpt lat="43.1760402" lon="12.2598461"><ele>461.0</ele><time>2026-03-29T12:37:32.454Z</time></trkpt><trkpt lat="43.1760602" lon="12.2596983"><ele>461.0</ele><time>2026-03-29T12:37:33.455Z</time></trkpt><trkpt lat="43.1760807" lon="12.2595542"><ele>461.0</ele><time>2026-03-29T12:37:34.455Z</time></trkpt><trkpt lat="43.176109" lon="12.2594149"><ele>461.0</ele><time>2026-03-29T12:37:35.455Z</time></trkpt><trkpt lat="43.176141" lon="12.2592887"><ele>460.5714285714286</ele><time>2026-03-29T12:37:36.455Z</time></trkpt><trkpt lat="43.176168" lon="12.2591853"><ele>460.1428571428572</ele><time>2026-03-29T12:37:37.455Z</time></trkpt><trkpt lat="43.1761706" lon="12.2590982"><ele>459.7142857142857</ele><time>2026-03-29T12:37:38.454Z</time></trkpt><trkpt lat="43.1761507" lon="12.2590093"><ele>459.28571428571433</ele><time>2026-03-29T12:37:39.453Z</time></trkpt><trkpt lat="43.1761182" lon="12.2589258"><ele>458.8571428571429</ele><time>2026-03-29T12:37:40.454Z</time></trkpt><trkpt lat="43.1760631" lon="12.2588655"><ele>458.42857142857144</ele><time>2026-03-29T12:37:41.454Z</time></trkpt><trkpt lat="43.1759877" lon="12.2588048"><ele>458.0</ele><time>2026-03-29T12:37:42.454Z</time></trkpt><trkpt lat="43.1759008" lon="12.2587556"><ele>458.0</ele><time>2026-03-29T12:37:43.455Z</time></trkpt><trkpt lat="43.1758033" lon="12.2587175"><ele>457.99999999999994</ele><time>2026-03-29T12:37:44.455Z</time></trkpt><trkpt lat="43.1756969" lon="12.2586975"><ele>457.99999999999994</ele><time>2026-03-29T12:37:45.454Z</time></trkpt><trkpt lat="43.175589" lon="12.2586941"><ele>458.0</ele><time>2026-03-29T12:37:46.455Z</time></trkpt><trkpt lat="43.1754689" lon="12.258708"><ele>458.0</ele><time>2026-03-29T12:37:47.455Z</time></trkpt><trkpt lat="43.1753431" lon="12.2587202"><ele>459.25</ele><time>2026-03-29T12:37:48.455Z</time></trkpt><trkpt lat="43.1752122" lon="12.2587153"><ele>460.5</ele><time>2026-03-29T12:37:49.454Z</time></trkpt><trkpt lat="43.1750758" lon="12.2587054"><ele>461.75</ele><time>2026-03-29T12:37:50.454Z</time></trkpt><trkpt lat="43.1749318" lon="12.2586887"><ele>463.0</ele><time>2026-03-29T12:37:51.455Z</time></trkpt><trkpt lat="43.1747861" lon="12.2586674"><ele>464.25</ele><time>2026-03-29T12:37:52.454Z</time></trkpt><trkpt lat="43.1746526" lon="12.2586473"><ele>465.5</ele><time>2026-03-29T12:37:53.454Z</time></trkpt><trkpt lat="43.1745331" lon="12.2586305"><ele>466.75</ele><time>2026-03-29T12:37:54.454Z</time></trkpt><trkpt lat="43.174426" lon="12.2586107"><ele>468.0</ele><time>2026-03-29T12:37:55.455Z</time></trkpt><trkpt lat="43.1743302" lon="12.2585799"><ele>468.0</ele><time>2026-03-29T12:37:56.454Z</time></trkpt><trkpt lat="43.1742446" lon="12.2585374"><ele>467.99999999999994</ele><time>2026-03-29T12:37:57.455Z</time></trkpt><trkpt lat="43.1741539" lon="12.2584913"><ele>467.99999999999994</ele><time>2026-03-29T12:37:58.455Z</time></trkpt><trkpt lat="43.1740664" lon="12.258441"><ele>468.0</ele><time>2026-03-29T12:37:59.455Z</time></trkpt><trkpt lat="43.1739611" lon="12.2583845"><ele>468.0</ele><time>2026-03-29T12:38:00.455Z</time></trkpt><trkpt lat="43.1738551" lon="12.2583176"><ele>468.25</ele><time>2026-03-29T12:38:01.454Z</time></trkpt><trkpt lat="43.1737416" lon="12.2582354"><ele>468.5</ele><time>2026-03-29T12:38:02.455Z</time></trkpt><trkpt lat="43.17363" lon="12.2581428"><ele>468.75</ele><time>2026-03-29T12:38:03.454Z</time></trkpt><trkpt lat="43.1735246" lon="12.2580393"><ele>469.0</ele><time>2026-03-29T12:38:04.455Z</time></trkpt><trkpt lat="43.1734255" lon="12.257925"><ele>469.0</ele><time>2026-03-29T12:38:05.455Z</time></trkpt><trkpt lat="43.1733318" lon="12.2578004"><ele>469.0</ele><time>2026-03-29T12:38:06.454Z</time></trkpt><trkpt lat="43.1732375" lon="12.2576769"><ele>469.0</ele><time>2026-03-29T12:38:07.454Z</time></trkpt><trkpt lat="43.1731442" lon="12.2575486"><ele>469.0</ele><time>2026-03-29T12:38:08.455Z</time></trkpt><trkpt lat="43.1730517" lon="12.2574246"><ele>468.5</ele><time>2026-03-29T12:38:09.455Z</time></trkpt><trkpt lat="43.1729598" lon="12.2573016"><ele>468.0</ele><time>2026-03-29T12:38:10.454Z</time></trkpt><trkpt lat="43.1728735" lon="12.257181"><ele>467.5</ele><time>2026-03-29T12:38:11.454Z</time></trkpt><trkpt lat="43.1727836" lon="12.2570731"><ele>467.0</ele><time>2026-03-29T12:38:12.455Z</time></trkpt><trkpt lat="43.1726946" lon="12.2569775"><ele>467.0</ele><time>2026-03-29T12:38:13.454Z</time></trkpt><trkpt lat="43.1725899" lon="12.2568991"><ele>467.0</ele><time>2026-03-29T12:38:14.454Z</time></trkpt><trkpt lat="43.1724745" lon="12.2568414"><ele>467.0</ele><time>2026-03-29T12:38:15.454Z</time></trkpt><trkpt lat="43.1723616" lon="12.2568005"><ele>467.0</ele><time>2026-03-29T12:38:16.454Z</time></trkpt><trkpt lat="43.1722567" lon="12.2567363"><ele>467.20000000000005</ele><time>2026-03-29T12:38:17.454Z</time></trkpt><trkpt lat="43.1721558" lon="12.2566622"><ele>467.40000000000003</ele><time>2026-03-29T12:38:18.455Z</time></trkpt><trkpt lat="43.1720556" lon="12.2565958"><ele>467.59999999999997</ele><time>2026-03-29T12:38:19.455Z</time></trkpt><trkpt lat="43.1719551" lon="12.2565436"><ele>467.79999999999995</ele><time>2026-03-29T12:38:20.454Z</time></trkpt><trkpt lat="43.1718553" lon="12.2565157"><ele>468.0</ele><time>2026-03-29T12:38:21.454Z</time></trkpt><trkpt lat="43.1717547" lon="12.2564997"><ele>468.0</ele><time>2026-03-29T12:38:22.454Z</time></trkpt><trkpt lat="43.1716569" lon="12.2564851"><ele>467.99999999999994</ele><time>2026-03-29T12:38:23.454Z</time></trkpt><trkpt lat="43.1715628" lon="12.2564648"><ele>467.99999999999994</ele><time>2026-03-29T12:38:24.455Z</time></trkpt><trkpt lat="43.1714788" lon="12.2564275"><ele>468.0</ele><time>2026-03-29T12:38:25.455Z</time></trkpt><trkpt lat="43.1714038" lon="12.2563685"><ele>468.0</ele><time>2026-03-29T12:38:26.455Z</time></trkpt><trkpt lat="43.1713431" lon="12.2562876"><ele>466.8333333333333</ele><time>2026-03-29T12:38:27.454Z</time></trkpt><trkpt lat="43.1712865" lon="12.2561939"><ele>465.66666666666663</ele><time>2026-03-29T12:38:28.455Z</time></trkpt><trkpt lat="43.1712381" lon="12.2560876"><ele>464.5</ele><time>2026-03-29T12:38:29.454Z</time></trkpt><trkpt lat="43.171191" lon="12.2559792"><ele>463.3333333333333</ele><time>2026-03-29T12:38:30.454Z</time></trkpt><trkpt lat="43.1711459" lon="12.2558758"><ele>462.16666666666663</ele><time>2026-03-29T12:38:31.455Z</time></trkpt><trkpt lat="43.1711016" lon="12.2557701"><ele>461.0</ele><time>2026-03-29T12:38:32.455Z</time></trkpt><trkpt lat="43.1710572" lon="12.2556656"><ele>459.8333333333333</ele><time>2026-03-29T12:38:33.454Z</time></trkpt><trkpt lat="43.1710078" lon="12.2555539"><ele>458.66666666666663</ele><time>2026-03-29T12:38:34.454Z</time></trkpt><trkpt lat="43.170962" lon="12.2554407"><ele>457.5</ele><time>2026-03-29T12:38:35.454Z</time></trkpt><trkpt lat="43.1709268" lon="12.2553317"><ele>456.33333333333337</ele><time>2026-03-29T12:38:36.455Z</time></trkpt><trkpt lat="43.1709071" lon="12.2552257"><ele>455.1666666666667</ele><time>2026-03-29T12:38:37.454Z</time></trkpt><trkpt lat="43.1709018" lon="12.2551264"><ele>454.0</ele><time>2026-03-29T12:38:38.455Z</time></trkpt><trkpt lat="43.1709205" lon="12.2550303"><ele>454.00000000000006</ele><time>2026-03-29T12:38:39.454Z</time></trkpt><trkpt lat="43.1709469" lon="12.2549437"><ele>454.0</ele><time>2026-03-29T12:38:40.454Z</time></trkpt><trkpt lat="43.170998" lon="12.2548224"><ele>454.0</ele><time>2026-03-29T12:38:42.454Z</time></trkpt><trkpt lat="43.1710356" lon="12.2547301"><ele>454.0</ele><time>2026-03-29T12:38:45.454Z</time></trkpt><trkpt lat="43.1710016" lon="12.2546542"><ele>454.00000000000006</ele><time>2026-03-29T12:39:04.455Z</time></trkpt><trkpt lat="43.1709204" lon="12.2546066"><ele>454.0</ele><time>2026-03-29T12:39:07.454Z</time></trkpt><trkpt lat="43.1709413" lon="12.2547109"><ele>454.00000000000006</ele><time>2026-03-29T12:39:12.455Z</time></trkpt><trkpt lat="43.1710308" lon="12.2547216"><ele>454.0</ele><time>2026-03-29T12:39:14.455Z</time></trkpt><trkpt lat="43.1710965" lon="12.2547628"><ele>454.0</ele><time>2026-03-29T12:39:38.454Z</time></trkpt><trkpt lat="43.1711843" lon="12.2547864"><ele>454.0</ele><time>2026-03-29T12:39:40.454Z</time></trkpt><trkpt lat="43.17125" lon="12.2547954"><ele>454.00000000000006</ele><time>2026-03-29T12:39:41.454Z</time></trkpt><trkpt lat="43.1713286" lon="12.2548058"><ele>454.0</ele><time>2026-03-29T12:39:42.454Z</time></trkpt><trkpt lat="43.1714117" lon="12.2548188"><ele>454.00000000000006</ele><time>2026-03-29T12:39:43.454Z</time></trkpt><trkpt lat="43.1714991" lon="12.254833"><ele>454.0</ele><time>2026-03-29T12:39:44.454Z</time></trkpt><trkpt lat="43.1715815" lon="12.2548502"><ele>454.0</ele><time>2026-03-29T12:39:45.454Z</time></trkpt><trkpt lat="43.1716637" lon="12.2548618"><ele>454.0</ele><time>2026-03-29T12:39:46.454Z</time></trkpt><trkpt lat="43.1717426" lon="12.2548725"><ele>454.00000000000006</ele><time>2026-03-29T12:39:47.454Z</time></trkpt><trkpt lat="43.1718135" lon="12.2548827"><ele>454.0</ele><time>2026-03-29T12:39:48.455Z</time></trkpt><trkpt lat="43.1718888" lon="12.2548852"><ele>454.1666666666667</ele><time>2026-03-29T12:39:49.454Z</time></trkpt><trkpt lat="43.1719972" lon="12.2548295"><ele>454.33333333333337</ele><time>2026-03-29T12:39:51.455Z</time></trkpt><trkpt lat="43.1720643" lon="12.2547989"><ele>454.5</ele><time>2026-03-29T12:39:52.454Z</time></trkpt><trkpt lat="43.1721451" lon="12.2547663"><ele>454.66666666666663</ele><time>2026-03-29T12:39:53.454Z</time></trkpt><trkpt lat="43.1722205" lon="12.2547375"><ele>454.8333333333333</ele><time>2026-03-29T12:39:54.454Z</time></trkpt><trkpt lat="43.1722915" lon="12.2546904"><ele>455.0</ele><time>2026-03-29T12:39:55.455Z</time></trkpt><trkpt lat="43.1723509" lon="12.2546206"><ele>451.6</ele><time>2026-03-29T12:39:56.454Z</time></trkpt><trkpt lat="43.1724099" lon="12.2545512"><ele>448.2</ele><time>2026-03-29T12:39:57.454Z</time></trkpt><trkpt lat="43.172471" lon="12.2544899"><ele>444.79999999999995</ele><time>2026-03-29T12:39:58.455Z</time></trkpt><trkpt lat="43.1725788" lon="12.254451"><ele>441.4</ele><time>2026-03-29T12:40:00.454Z</time></trkpt><trkpt lat="43.1726763" lon="12.2544056"><ele>438.0</ele><time>2026-03-29T12:40:02.455Z</time></trkpt><trkpt lat="43.1727739" lon="12.2543016"><ele>438.0</ele><time>2026-03-29T12:40:04.455Z</time></trkpt><trkpt lat="43.17282" lon="12.2542327"><ele>437.99999999999994</ele><time>2026-03-29T12:40:05.455Z</time></trkpt><trkpt lat="43.172897" lon="12.2540923"><ele>437.99999999999994</ele><time>2026-03-29T12:40:07.454Z</time></trkpt><trkpt lat="43.173014" lon="12.2540327"><ele>438.0</ele><time>2026-03-29T12:40:09.455Z</time></trkpt><trkpt lat="43.1730941" lon="12.2539925"><ele>438.0</ele><time>2026-03-29T12:40:10.455Z</time></trkpt><trkpt lat="43.1731816" lon="12.2539368"><ele>435.79999999999995</ele><time>2026-03-29T12:40:11.455Z</time></trkpt><trkpt lat="43.1732631" lon="12.2538687"><ele>433.59999999999997</ele><time>2026-03-29T12:40:12.454Z</time></trkpt><trkpt lat="43.1733512" lon="12.2538035"><ele>431.40000000000003</ele><time>2026-03-29T12:40:13.455Z</time></trkpt><trkpt lat="43.1734426" lon="12.2537313"><ele>429.20000000000005</ele><time>2026-03-29T12:40:14.454Z</time></trkpt><trkpt lat="43.1735416" lon="12.2536592"><ele>427.0</ele><time>2026-03-29T12:40:15.454Z</time></trkpt><trkpt lat="43.1736285" lon="12.2535951"><ele>427.00000000000006</ele><time>2026-03-29T12:40:16.455Z</time></trkpt><trkpt lat="43.1737051" lon="12.2535329"><ele>427.0</ele><time>2026-03-29T12:40:17.455Z</time></trkpt><trkpt lat="43.173778" lon="12.2534579"><ele>427.0</ele><time>2026-03-29T12:40:18.453Z</time></trkpt><trkpt lat="43.173836" lon="12.2533696"><ele>427.0</ele><time>2026-03-29T12:40:19.455Z</time></trkpt><trkpt lat="43.1738892" lon="12.2532786"><ele>427.00000000000006</ele><time>2026-03-29T12:40:20.455Z</time></trkpt><trkpt lat="43.1739477" lon="12.2531996"><ele>427.0</ele><time>2026-03-29T12:40:21.455Z</time></trkpt><trkpt lat="43.1740335" lon="12.2531052"><ele>424.85714285714283</ele><time>2026-03-29T12:40:23.454Z</time></trkpt><trkpt lat="43.174109" lon="12.2530209"><ele>422.7142857142857</ele><time>2026-03-29T12:40:25.455Z</time></trkpt><trkpt lat="43.1741664" lon="12.2529759"><ele>420.57142857142856</ele><time>2026-03-29T12:40:26.454Z</time></trkpt><trkpt lat="43.1742237" lon="12.252934"><ele>418.42857142857144</ele><time>2026-03-29T12:40:27.455Z</time></trkpt><trkpt lat="43.1742929" lon="12.2528923"><ele>416.2857142857143</ele><time>2026-03-29T12:40:28.455Z</time></trkpt><trkpt lat="43.1743531" lon="12.2528323"><ele>414.1428571428571</ele><time>2026-03-29T12:40:29.455Z</time></trkpt><trkpt lat="43.174405" lon="12.2527803"><ele>412.0</ele><time>2026-03-29T12:40:30.454Z</time></trkpt><trkpt lat="43.1744629" lon="12.2526968"><ele>412.00000000000006</ele><time>2026-03-29T12:40:31.454Z</time></trkpt><trkpt lat="43.1745149" lon="12.2526202"><ele>412.0</ele><time>2026-03-29T12:40:32.454Z</time></trkpt><trkpt lat="43.1745686" lon="12.2525248"><ele>412.0</ele><time>2026-03-29T12:40:33.455Z</time></trkpt><trkpt lat="43.174643" lon="12.2524196"><ele>412.0</ele><time>2026-03-29T12:40:34.454Z</time></trkpt><trkpt lat="43.1746959" lon="12.2523446"><ele>412.00000000000006</ele><time>2026-03-29T12:40:35.455Z</time></trkpt><trkpt lat="43.1747483" lon="12.2522244"><ele>412.0</ele><time>2026-03-29T12:40:37.454Z</time></trkpt><trkpt lat="43.174822" lon="12.2521318"><ele>408.25</ele><time>2026-03-29T12:40:39.455Z</time></trkpt><trkpt lat="43.1749426" lon="12.252099"><ele>404.5</ele><time>2026-03-29T12:40:41.455Z</time></trkpt><trkpt lat="43.1750588" lon="12.2520053"><ele>400.75</ele><time>2026-03-29T12:40:43.455Z</time></trkpt><trkpt lat="43.1751325" lon="12.2519716"><ele>397.0</ele><time>2026-03-29T12:40:44.454Z</time></trkpt><trkpt lat="43.1752473" lon="12.2519175"><ele>397.0</ele><time>2026-03-29T12:40:46.455Z</time></trkpt><trkpt lat="43.1753454" lon="12.2519069"><ele>397.0</ele><time>2026-03-29T12:40:47.454Z</time></trkpt><trkpt lat="43.1754097" lon="12.2518996"><ele>397.0</ele><time>2026-03-29T12:40:48.454Z</time></trkpt><trkpt lat="43.1754743" lon="12.2518918"><ele>397.0</ele><time>2026-03-29T12:40:49.455Z</time></trkpt><trkpt lat="43.175538" lon="12.2519238"><ele>397.0</ele><time>2026-03-29T12:40:50.454Z</time></trkpt><trkpt lat="43.1756016" lon="12.2519401"><ele>397.0</ele><time>2026-03-29T12:40:51.455Z</time></trkpt><trkpt lat="43.175682" lon="12.2519601"><ele>397.0</ele><time>2026-03-29T12:40:52.454Z</time></trkpt><trkpt lat="43.1757628" lon="12.2519232"><ele>397.0</ele><time>2026-03-29T12:40:54.454Z</time></trkpt><trkpt lat="43.1757912" lon="12.2518424"><ele>397.0</ele><time>2026-03-29T12:40:55.454Z</time></trkpt><trkpt lat="43.1757658" lon="12.2516798"><ele>397.0</ele><time>2026-03-29T12:40:57.455Z</time></trkpt><trkpt lat="43.1756494" lon="12.2515658"><ele>397.0</ele><time>2026-03-29T12:40:59.455Z</time></trkpt><trkpt lat="43.1755616" lon="12.2514218"><ele>393.1666666666667</ele><time>2026-03-29T12:41:01.454Z</time></trkpt><trkpt lat="43.1754967" lon="12.251332"><ele>389.33333333333337</ele><time>2026-03-29T12:41:03.455Z</time></trkpt><trkpt lat="43.1754144" lon="12.2512792"><ele>385.5</ele><time>2026-03-29T12:41:05.454Z</time></trkpt><trkpt lat="43.1753602" lon="12.2512334"><ele>381.6666666666667</ele><time>2026-03-29T12:41:06.455Z</time></trkpt><trkpt lat="43.1753075" lon="12.2511744"><ele>377.83333333333337</ele><time>2026-03-29T12:41:07.455Z</time></trkpt><trkpt lat="43.1753203" lon="12.2510669"><ele>374.0</ele><time>2026-03-29T12:41:09.455Z</time></trkpt><trkpt lat="43.1753697" lon="12.2509709"><ele>374.0</ele><time>2026-03-29T12:41:11.455Z</time></trkpt><trkpt lat="43.1754354" lon="12.2509274"><ele>374.0</ele><time>2026-03-29T12:41:12.455Z</time></trkpt><trkpt lat="43.1755081" lon="12.2509123"><ele>374.0</ele><time>2026-03-29T12:41:13.455Z</time></trkpt><trkpt lat="43.1756235" lon="12.2508371"><ele>374.0</ele><time>2026-03-29T12:41:15.455Z</time></trkpt><trkpt lat="43.1757074" lon="12.2508025"><ele>374.0</ele><time>2026-03-29T12:41:16.455Z</time></trkpt><trkpt lat="43.1758406" lon="12.2507417"><ele>374.0</ele><time>2026-03-29T12:41:18.455Z</time></trkpt><trkpt lat="43.1759098" lon="12.2507183"><ele>374.0</ele><time>2026-03-29T12:41:19.455Z</time></trkpt><trkpt lat="43.1760048" lon="12.2507456"><ele>374.0</ele><time>2026-03-29T12:41:21.455Z</time></trkpt><trkpt lat="43.1761159" lon="12.2507449"><ele>374.0</ele><time>2026-03-29T12:41:23.455Z</time></trkpt><trkpt lat="43.176224" lon="12.2507673"><ele>374.0</ele><time>2026-03-29T12:41:25.456Z</time></trkpt><trkpt lat="43.1763306" lon="12.2507657"><ele>374.0</ele><time>2026-03-29T12:41:27.455Z</time></trkpt><trkpt lat="43.1763787" lon="12.2506485"><ele>374.0</ele><time>2026-03-29T12:41:29.455Z</time></trkpt><trkpt lat="43.1763801" lon="12.2505529"><ele>374.0</ele><time>2026-03-29T12:41:30.456Z</time></trkpt><trkpt lat="43.1763756" lon="12.2503976"><ele>374.0</ele><time>2026-03-29T12:41:32.455Z</time></trkpt><trkpt lat="43.1763955" lon="12.250301"><ele>374.0</ele><time>2026-03-29T12:41:33.456Z</time></trkpt><trkpt lat="43.1764184" lon="12.2501883"><ele>374.0</ele><time>2026-03-29T12:41:34.455Z</time></trkpt><trkpt lat="43.1764369" lon="12.250074"><ele>370.83333333333337</ele><time>2026-03-29T12:41:35.455Z</time></trkpt><trkpt lat="43.1764571" lon="12.2499697"><ele>367.6666666666667</ele><time>2026-03-29T12:41:36.456Z</time></trkpt><trkpt lat="43.1764674" lon="12.2498227"><ele>364.5</ele><time>2026-03-29T12:41:38.455Z</time></trkpt><trkpt lat="43.1764971" lon="12.2496873"><ele>361.3333333333333</ele><time>2026-03-29T12:41:40.456Z</time></trkpt><trkpt lat="43.176473" lon="12.2496035"><ele>358.16666666666663</ele><time>2026-03-29T12:41:41.455Z</time></trkpt><trkpt lat="43.1764787" lon="12.2494962"><ele>355.0</ele><time>2026-03-29T12:41:42.455Z</time></trkpt><trkpt lat="43.1764803" lon="12.2494006"><ele>352.0</ele><time>2026-03-29T12:41:43.456Z</time></trkpt><trkpt lat="43.1764675" lon="12.2492647"><ele>349.0</ele><time>2026-03-29T12:41:45.455Z</time></trkpt><trkpt lat="43.1764653" lon="12.2491214"><ele>346.0</ele><time>2026-03-29T12:41:47.455Z</time></trkpt><trkpt lat="43.1764755" lon="12.2489812"><ele>343.0</ele><time>2026-03-29T12:41:49.455Z</time></trkpt><trkpt lat="43.1764761" lon="12.2488913"><ele>340.0</ele><time>2026-03-29T12:41:50.455Z</time></trkpt><trkpt lat="43.1764739" lon="12.2487994"><ele>337.0</ele><time>2026-03-29T12:41:51.455Z</time></trkpt><trkpt lat="43.1764677" lon="12.2486572"><ele>335.40000000000003</ele><time>2026-03-29T12:41:53.455Z</time></trkpt><trkpt lat="43.1764689" lon="12.2484998"><ele>333.8</ele><time>2026-03-29T12:41:55.455Z</time></trkpt><trkpt lat="43.1764715" lon="12.2483502"><ele>332.2</ele><time>2026-03-29T12:41:57.454Z</time></trkpt><trkpt lat="43.1764617" lon="12.2482584"><ele>330.6</ele><time>2026-03-29T12:41:58.456Z</time></trkpt><trkpt lat="43.1764477" lon="12.248095"><ele>329.0</ele><time>2026-03-29T12:42:00.455Z</time></trkpt><trkpt lat="43.1764439" lon="12.2479996"><ele>327.5</ele><time>2026-03-29T12:42:01.455Z</time></trkpt><trkpt lat="43.1764432" lon="12.2479059"><ele>326.0</ele><time>2026-03-29T12:42:02.455Z</time></trkpt><trkpt lat="43.1764542" lon="12.2478208"><ele>324.5</ele><time>2026-03-29T12:42:03.456Z</time></trkpt><trkpt lat="43.1764385" lon="12.2477313"><ele>323.0</ele><time>2026-03-29T12:42:04.456Z</time></trkpt><trkpt lat="43.1764287" lon="12.2476423"><ele>321.5</ele><time>2026-03-29T12:42:05.455Z</time></trkpt><trkpt lat="43.1764287" lon="12.247508"><ele>320.0</ele><time>2026-03-29T12:42:07.456Z</time></trkpt><trkpt lat="43.1764803" lon="12.2474029"><ele>320.0</ele><time>2026-03-29T12:42:09.455Z</time></trkpt><trkpt lat="43.1765158" lon="12.2473119"><ele>320.0</ele><time>2026-03-29T12:42:11.456Z</time></trkpt><trkpt lat="43.1765378" lon="12.2472198"><ele>320.0</ele><time>2026-03-29T12:42:14.455Z</time></trkpt><trkpt lat="43.1764787" lon="12.2471534"><ele>320.0</ele><time>2026-03-29T12:42:17.456Z</time></trkpt><trkpt lat="43.1763667" lon="12.2471428"><ele>320.0</ele><time>2026-03-29T12:42:20.456Z</time></trkpt><trkpt lat="43.176325" lon="12.2472547"><ele>320.0</ele><time>2026-03-29T12:42:23.456Z</time></trkpt><trkpt lat="43.1762848" lon="12.2473374"><ele>320.0</ele><time>2026-03-29T12:42:30.456Z</time></trkpt><trkpt lat="43.1762457" lon="12.2474427"><ele>320.0</ele><time>2026-03-29T12:42:32.456Z</time></trkpt><trkpt lat="43.1762052" lon="12.2475353"><ele>320.0</ele><time>2026-03-29T12:42:33.455Z</time></trkpt><trkpt lat="43.1761429" lon="12.2476443"><ele>320.0</ele><time>2026-03-29T12:42:35.456Z</time></trkpt><trkpt lat="43.176075" lon="12.247771"><ele>320.0</ele><time>2026-03-29T12:42:37.456Z</time></trkpt><trkpt lat="43.1760273" lon="12.2479025"><ele>320.0</ele><time>2026-03-29T12:42:39.455Z</time></trkpt><trkpt lat="43.1759822" lon="12.2480442"><ele>320.0</ele><time>2026-03-29T12:42:41.456Z</time></trkpt><trkpt lat="43.1759253" lon="12.2481517"><ele>320.0</ele><time>2026-03-29T12:42:44.455Z</time></trkpt><trkpt lat="43.1758869" lon="12.2482312"><ele>320.0</ele><time>2026-03-29T12:42:46.455Z</time></trkpt><trkpt lat="43.1758398" lon="12.2481138"><ele>320.0</ele><time>2026-03-29T12:42:50.456Z</time></trkpt><trkpt lat="43.1758369" lon="12.2480011"><ele>320.0</ele><time>2026-03-29T12:42:52.455Z</time></trkpt><trkpt lat="43.1758327" lon="12.2478907"><ele>320.0</ele><time>2026-03-29T12:42:54.455Z</time></trkpt><trkpt lat="43.1758331" lon="12.2477592"><ele>320.0</ele><time>2026-03-29T12:42:56.455Z</time></trkpt><trkpt lat="43.1757954" lon="12.2476325"><ele>320.0</ele><time>2026-03-29T12:42:58.455Z</time></trkpt><trkpt lat="43.1757789" lon="12.2474821"><ele>320.0</ele><time>2026-03-29T12:43:00.456Z</time></trkpt><trkpt lat="43.1757741" lon="12.2473601"><ele>318.0</ele><time>2026-03-29T12:43:02.456Z</time></trkpt><trkpt lat="43.1757435" lon="12.2472458"><ele>316.0</ele><time>2026-03-29T12:43:04.455Z</time></trkpt><trkpt lat="43.1757732" lon="12.2470932"><ele>314.0</ele><time>2026-03-29T12:43:06.456Z</time></trkpt><trkpt lat="43.1758405" lon="12.2469325"><ele>312.0</ele><time>2026-03-29T12:43:08.456Z</time></trkpt><trkpt lat="43.175868" lon="12.2468365"><ele>310.0</ele><time>2026-03-29T12:43:09.455Z</time></trkpt><trkpt lat="43.1758823" lon="12.24674"><ele>310.0</ele><time>2026-03-29T12:43:10.455Z</time></trkpt><trkpt lat="43.1759047" lon="12.2466532"><ele>310.0</ele><time>2026-03-29T12:43:11.456Z</time></trkpt><trkpt lat="43.1759152" lon="12.2465679"><ele>310.0</ele><time>2026-03-29T12:43:12.455Z</time></trkpt><trkpt lat="43.1759302" lon="12.2464815"><ele>310.0</ele><time>2026-03-29T12:43:13.456Z</time></trkpt><trkpt lat="43.1759808" lon="12.2464049"><ele>310.0</ele><time>2026-03-29T12:43:14.455Z</time></trkpt><trkpt lat="43.1760134" lon="12.2463229"><ele>310.0</ele><time>2026-03-29T12:43:15.455Z</time></trkpt><trkpt lat="43.1760341" lon="12.2462396"><ele>310.0</ele><time>2026-03-29T12:43:16.455Z</time></trkpt><trkpt lat="43.1760326" lon="12.2461511"><ele>309.16666666666663</ele><time>2026-03-29T12:43:17.455Z</time></trkpt><trkpt lat="43.176005" lon="12.2460666"><ele>308.3333333333333</ele><time>2026-03-29T12:43:18.456Z</time></trkpt><trkpt lat="43.1760053" lon="12.2459729"><ele>307.5</ele><time>2026-03-29T12:43:19.455Z</time></trkpt><trkpt lat="43.1760757" lon="12.2458067"><ele>306.6666666666667</ele><time>2026-03-29T12:43:21.455Z</time></trkpt><trkpt lat="43.1761116" lon="12.2457355"><ele>305.83333333333337</ele><time>2026-03-29T12:43:22.454Z</time></trkpt><trkpt lat="43.1761596" lon="12.2456524"><ele>305.0</ele><time>2026-03-29T12:43:23.456Z</time></trkpt><trkpt lat="43.176209" lon="12.2455833"><ele>305.0</ele><time>2026-03-29T12:43:24.455Z</time></trkpt><trkpt lat="43.1762582" lon="12.2455008"><ele>305.0</ele><time>2026-03-29T12:43:25.455Z</time></trkpt><trkpt lat="43.176302" lon="12.2454263"><ele>305.0</ele><time>2026-03-29T12:43:26.455Z</time></trkpt><trkpt lat="43.1763499" lon="12.2453416"><ele>305.0</ele><time>2026-03-29T12:43:27.456Z</time></trkpt><trkpt lat="43.1763954" lon="12.2452591"><ele>305.0</ele><time>2026-03-29T12:43:28.455Z</time></trkpt><trkpt lat="43.1764712" lon="12.2451311"><ele>305.0</ele><time>2026-03-29T12:43:30.456Z</time></trkpt><trkpt lat="43.1765163" lon="12.2450355"><ele>303.0</ele><time>2026-03-29T12:43:32.455Z</time></trkpt><trkpt lat="43.1765634" lon="12.244961"><ele>301.0</ele><time>2026-03-29T12:43:34.455Z</time></trkpt><trkpt lat="43.1766291" lon="12.2448818"><ele>299.0</ele><time>2026-03-29T12:43:36.455Z</time></trkpt><trkpt lat="43.176674" lon="12.2448036"><ele>297.0</ele><time>2026-03-29T12:43:37.455Z</time></trkpt><trkpt lat="43.1767172" lon="12.2447156"><ele>295.0</ele><time>2026-03-29T12:43:38.455Z</time></trkpt><trkpt lat="43.1767396" lon="12.2446051"><ele>293.0</ele><time>2026-03-29T12:43:39.455Z</time></trkpt><trkpt lat="43.1767461" lon="12.2444888"><ele>292.4</ele><time>2026-03-29T12:43:40.455Z</time></trkpt><trkpt lat="43.1767298" lon="12.2443647"><ele>291.8</ele><time>2026-03-29T12:43:41.456Z</time></trkpt><trkpt lat="43.1767057" lon="12.2442296"><ele>291.2</ele><time>2026-03-29T12:43:42.456Z</time></trkpt><trkpt lat="43.1766884" lon="12.2441044"><ele>290.6</ele><time>2026-03-29T12:43:43.456Z</time></trkpt><trkpt lat="43.176684" lon="12.2439824"><ele>290.0</ele><time>2026-03-29T12:43:44.456Z</time></trkpt><trkpt lat="43.1766941" lon="12.2438746"><ele>289.75</ele><time>2026-03-29T12:43:45.456Z</time></trkpt><trkpt lat="43.1767464" lon="12.2436817"><ele>289.5</ele><time>2026-03-29T12:43:48.456Z</time></trkpt><trkpt lat="43.1766948" lon="12.2435334"><ele>289.25</ele><time>2026-03-29T12:43:50.456Z</time></trkpt><trkpt lat="43.1766296" lon="12.24345"><ele>289.0</ele><time>2026-03-29T12:43:51.455Z</time></trkpt><trkpt lat="43.17656" lon="12.2433674"><ele>289.0</ele><time>2026-03-29T12:43:52.455Z</time></trkpt><trkpt lat="43.1764688" lon="12.2432848"><ele>289.0</ele><time>2026-03-29T12:43:53.455Z</time></trkpt><trkpt lat="43.1763808" lon="12.2431931"><ele>289.0</ele><time>2026-03-29T12:43:54.455Z</time></trkpt><trkpt lat="43.1763057" lon="12.243097"><ele>289.0</ele><time>2026-03-29T12:43:55.455Z</time></trkpt><trkpt lat="43.1762562" lon="12.2429921"><ele>289.0</ele><time>2026-03-29T12:43:56.456Z</time></trkpt><trkpt lat="43.1762238" lon="12.2428641"><ele>288.59999999999997</ele><time>2026-03-29T12:43:57.455Z</time></trkpt><trkpt lat="43.1762125" lon="12.2427251"><ele>288.2</ele><time>2026-03-29T12:43:58.456Z</time></trkpt><trkpt lat="43.1762077" lon="12.2425972"><ele>287.79999999999995</ele><time>2026-03-29T12:43:59.456Z</time></trkpt><trkpt lat="43.176183" lon="12.2424641"><ele>287.4</ele><time>2026-03-29T12:44:00.456Z</time></trkpt><trkpt lat="43.1761402" lon="12.2423273"><ele>287.0</ele><time>2026-03-29T12:44:01.455Z</time></trkpt><trkpt lat="43.1760843" lon="12.2421813"><ele>286.75</ele><time>2026-03-29T12:44:02.456Z</time></trkpt><trkpt lat="43.1760215" lon="12.2420207"><ele>286.5</ele><time>2026-03-29T12:44:03.455Z</time></trkpt><trkpt lat="43.1759614" lon="12.2418554"><ele>286.25</ele><time>2026-03-29T12:44:04.455Z</time></trkpt><trkpt lat="43.1759028" lon="12.2416858"><ele>286.0</ele><time>2026-03-29T12:44:05.455Z</time></trkpt><trkpt lat="43.1758482" lon="12.2415052"><ele>286.25</ele><time>2026-03-29T12:44:06.455Z</time></trkpt><trkpt lat="43.1757937" lon="12.2413195"><ele>286.5</ele><time>2026-03-29T12:44:07.456Z</time></trkpt><trkpt lat="43.1757379" lon="12.2411296"><ele>286.75</ele><time>2026-03-29T12:44:08.455Z</time></trkpt><trkpt lat="43.1756803" lon="12.2409368"><ele>287.0</ele><time>2026-03-29T12:44:09.456Z</time></trkpt><trkpt lat="43.1756216" lon="12.2407372"><ele>286.0</ele><time>2026-03-29T12:44:10.456Z</time></trkpt><trkpt lat="43.1755671" lon="12.240531"><ele>285.0</ele><time>2026-03-29T12:44:11.455Z</time></trkpt><trkpt lat="43.1755187" lon="12.2403149"><ele>284.0</ele><time>2026-03-29T12:44:12.456Z</time></trkpt><trkpt lat="43.1754763" lon="12.240089"><ele>284.0</ele><time>2026-03-29T12:44:13.456Z</time></trkpt><trkpt lat="43.1754417" lon="12.2398537"><ele>284.0</ele><time>2026-03-29T12:44:14.456Z</time></trkpt><trkpt lat="43.175407" lon="12.2396185"><ele>284.0</ele><time>2026-03-29T12:44:15.456Z</time></trkpt><trkpt lat="43.1753657" lon="12.2393809"><ele>283.6666666666667</ele><time>2026-03-29T12:44:16.455Z</time></trkpt><trkpt lat="43.1753097" lon="12.2391398"><ele>283.3333333333333</ele><time>2026-03-29T12:44:17.455Z</time></trkpt><trkpt lat="43.1752442" lon="12.2388983"><ele>283.0</ele><time>2026-03-29T12:44:18.455Z</time></trkpt><trkpt lat="43.175179" lon="12.2386512"><ele>282.66666666666663</ele><time>2026-03-29T12:44:19.455Z</time></trkpt><trkpt lat="43.1751214" lon="12.2383968"><ele>282.3333333333333</ele><time>2026-03-29T12:44:20.456Z</time></trkpt><trkpt lat="43.1750717" lon="12.2381552"><ele>282.0</ele><time>2026-03-29T12:44:21.456Z</time></trkpt><trkpt lat="43.1750388" lon="12.2379154"><ele>283.3333333333333</ele><time>2026-03-29T12:44:22.456Z</time></trkpt><trkpt lat="43.1750155" lon="12.2376807"><ele>284.66666666666663</ele><time>2026-03-29T12:44:23.455Z</time></trkpt><trkpt lat="43.1749854" lon="12.2374721"><ele>286.0</ele><time>2026-03-29T12:44:24.455Z</time></trkpt><trkpt lat="43.1749355" lon="12.2372736"><ele>287.25</ele><time>2026-03-29T12:44:25.455Z</time></trkpt><trkpt lat="43.1748783" lon="12.2370935"><ele>288.5</ele><time>2026-03-29T12:44:26.456Z</time></trkpt><trkpt lat="43.1748166" lon="12.2369293"><ele>289.75</ele><time>2026-03-29T12:44:27.456Z</time></trkpt><trkpt lat="43.1747517" lon="12.2367863"><ele>291.0</ele><time>2026-03-29T12:44:28.455Z</time></trkpt><trkpt lat="43.1746856" lon="12.2366682"><ele>289.8</ele><time>2026-03-29T12:44:29.456Z</time></trkpt><trkpt lat="43.1746249" lon="12.2365606"><ele>288.6</ele><time>2026-03-29T12:44:30.455Z</time></trkpt><trkpt lat="43.1745736" lon="12.2364847"><ele>287.4</ele><time>2026-03-29T12:44:31.455Z</time></trkpt><trkpt lat="43.1745018" lon="12.2363859"><ele>286.2</ele><time>2026-03-29T12:44:33.455Z</time></trkpt><trkpt lat="43.1744373" lon="12.2362999"><ele>285.0</ele><time>2026-03-29T12:44:35.456Z</time></trkpt><trkpt lat="43.1743595" lon="12.2361733"><ele>285.0</ele><time>2026-03-29T12:44:37.455Z</time></trkpt><trkpt lat="43.1743108" lon="12.2360921"><ele>285.0</ele><time>2026-03-29T12:44:38.456Z</time></trkpt><trkpt lat="43.1742557" lon="12.2360012"><ele>285.0</ele><time>2026-03-29T12:44:39.456Z</time></trkpt><trkpt lat="43.1742001" lon="12.2359019"><ele>285.0</ele><time>2026-03-29T12:44:40.456Z</time></trkpt><trkpt lat="43.1741439" lon="12.2357961"><ele>285.0</ele><time>2026-03-29T12:44:41.456Z</time></trkpt><trkpt lat="43.1740856" lon="12.2356851"><ele>285.0</ele><time>2026-03-29T12:44:42.455Z</time></trkpt><trkpt lat="43.1740277" lon="12.2355745"><ele>283.4</ele><time>2026-03-29T12:44:43.456Z</time></trkpt><trkpt lat="43.173965" lon="12.2354661"><ele>281.8</ele><time>2026-03-29T12:44:44.455Z</time></trkpt><trkpt lat="43.1739024" lon="12.235358"><ele>280.2</ele><time>2026-03-29T12:44:45.456Z</time></trkpt><trkpt lat="43.1738437" lon="12.2352543"><ele>278.6</ele><time>2026-03-29T12:44:46.455Z</time></trkpt><trkpt lat="43.1737864" lon="12.2351469"><ele>277.0</ele><time>2026-03-29T12:44:47.455Z</time></trkpt><trkpt lat="43.1737276" lon="12.2350383"><ele>277.0</ele><time>2026-03-29T12:44:48.455Z</time></trkpt><trkpt lat="43.1736692" lon="12.2349343"><ele>277.0</ele><time>2026-03-29T12:44:49.455Z</time></trkpt><trkpt lat="43.1736132" lon="12.234834"><ele>277.0</ele><time>2026-03-29T12:44:50.456Z</time></trkpt><trkpt lat="43.1735609" lon="12.2347388"><ele>277.0</ele><time>2026-03-29T12:44:51.456Z</time></trkpt><trkpt lat="43.1735105" lon="12.2346446"><ele>277.0</ele><time>2026-03-29T12:44:52.455Z</time></trkpt><trkpt lat="43.173465" lon="12.2345531"><ele>277.0</ele><time>2026-03-29T12:44:53.455Z</time></trkpt><trkpt lat="43.1734235" lon="12.2344602"><ele>276.66666666666663</ele><time>2026-03-29T12:44:54.456Z</time></trkpt><trkpt lat="43.1733762" lon="12.2343699"><ele>276.3333333333333</ele><time>2026-03-29T12:44:55.455Z</time></trkpt><trkpt lat="43.1733305" lon="12.2342776"><ele>276.0</ele><time>2026-03-29T12:44:56.455Z</time></trkpt><trkpt lat="43.1732904" lon="12.2341819"><ele>275.6666666666667</ele><time>2026-03-29T12:44:57.456Z</time></trkpt><trkpt lat="43.1732527" lon="12.2340849"><ele>275.33333333333337</ele><time>2026-03-29T12:44:58.455Z</time></trkpt><trkpt lat="43.1732133" lon="12.2339875"><ele>275.0</ele><time>2026-03-29T12:44:59.456Z</time></trkpt><trkpt lat="43.1731731" lon="12.2338814"><ele>275.0</ele><time>2026-03-29T12:45:00.455Z</time></trkpt><trkpt lat="43.1731308" lon="12.2337736"><ele>275.0</ele><time>2026-03-29T12:45:01.456Z</time></trkpt><trkpt lat="43.1730849" lon="12.2336687"><ele>275.0</ele><time>2026-03-29T12:45:02.456Z</time></trkpt><trkpt lat="43.1730345" lon="12.2335586"><ele>275.0</ele><time>2026-03-29T12:45:03.455Z</time></trkpt><trkpt lat="43.1729735" lon="12.2334531"><ele>275.0</ele><time>2026-03-29T12:45:04.456Z</time></trkpt><trkpt lat="43.1729042" lon="12.2333586"><ele>275.0</ele><time>2026-03-29T12:45:05.456Z</time></trkpt><trkpt lat="43.1728277" lon="12.2332755"><ele>275.0</ele><time>2026-03-29T12:45:06.456Z</time></trkpt><trkpt lat="43.1727487" lon="12.2331947"><ele>275.0</ele><time>2026-03-29T12:45:07.456Z</time></trkpt><trkpt lat="43.1726701" lon="12.2331144"><ele>275.0</ele><time>2026-03-29T12:45:08.456Z</time></trkpt><trkpt lat="43.1725909" lon="12.2330364"><ele>275.0</ele><time>2026-03-29T12:45:09.456Z</time></trkpt><trkpt lat="43.1725154" lon="12.2329521"><ele>274.6666666666667</ele><time>2026-03-29T12:45:10.455Z</time></trkpt><trkpt lat="43.1724388" lon="12.2328678"><ele>274.33333333333337</ele><time>2026-03-29T12:45:11.455Z</time></trkpt><trkpt lat="43.1723667" lon="12.2327875"><ele>274.0</ele><time>2026-03-29T12:45:12.456Z</time></trkpt><trkpt lat="43.1723046" lon="12.2327112"><ele>273.6666666666667</ele><time>2026-03-29T12:45:13.455Z</time></trkpt><trkpt lat="43.1722512" lon="12.2326334"><ele>273.3333333333333</ele><time>2026-03-29T12:45:14.455Z</time></trkpt><trkpt lat="43.1722021" lon="12.2325559"><ele>273.0</ele><time>2026-03-29T12:45:15.455Z</time></trkpt><trkpt lat="43.1721545" lon="12.2324733"><ele>273.0</ele><time>2026-03-29T12:45:16.455Z</time></trkpt><trkpt lat="43.1721084" lon="12.2323885"><ele>273.0</ele><time>2026-03-29T12:45:17.456Z</time></trkpt><trkpt lat="43.1720621" lon="12.2323094"><ele>273.0</ele><time>2026-03-29T12:45:18.456Z</time></trkpt><trkpt lat="43.172019" lon="12.2322317"><ele>273.0</ele><time>2026-03-29T12:45:19.455Z</time></trkpt><trkpt lat="43.1719808" lon="12.2321623"><ele>273.0</ele><time>2026-03-29T12:45:20.456Z</time></trkpt><trkpt lat="43.1719099" lon="12.2320383"><ele>273.0</ele><time>2026-03-29T12:45:22.455Z</time></trkpt><trkpt lat="43.17185" lon="12.2319263"><ele>274.3333333333333</ele><time>2026-03-29T12:45:24.455Z</time></trkpt><trkpt lat="43.1718" lon="12.2318307"><ele>275.6666666666667</ele><time>2026-03-29T12:45:26.456Z</time></trkpt><trkpt lat="43.1717619" lon="12.2317581"><ele>277.0</ele><time>2026-03-29T12:45:28.456Z</time></trkpt><trkpt lat="43.1717143" lon="12.2316881"><ele>278.33333333333337</ele><time>2026-03-29T12:45:31.455Z</time></trkpt><trkpt lat="43.1717326" lon="12.2318089"><ele>279.6666666666667</ele><time>2026-03-29T12:45:43.455Z</time></trkpt><trkpt lat="43.1717815" lon="12.2318671"><ele>281.0</ele><time>2026-03-29T12:45:44.456Z</time></trkpt><trkpt lat="43.1718538" lon="12.2319748"><ele>281.0</ele><time>2026-03-29T12:45:46.455Z</time></trkpt><trkpt lat="43.1718996" lon="12.2320601"><ele>281.0</ele><time>2026-03-29T12:45:47.455Z</time></trkpt><trkpt lat="43.1719486" lon="12.2321528"><ele>281.0</ele><time>2026-03-29T12:45:48.456Z</time></trkpt><trkpt lat="43.1720019" lon="12.2322484"><ele>281.0</ele><time>2026-03-29T12:45:49.455Z</time></trkpt><trkpt lat="43.1720595" lon="12.2323533"><ele>281.0</ele><time>2026-03-29T12:45:50.455Z</time></trkpt><trkpt lat="43.1721234" lon="12.2324613"><ele>281.0</ele><time>2026-03-29T12:45:51.455Z</time></trkpt><trkpt lat="43.1721906" lon="12.2325686"><ele>281.40000000000003</ele><time>2026-03-29T12:45:52.456Z</time></trkpt><trkpt lat="43.1722552" lon="12.2326704"><ele>281.8</ele><time>2026-03-29T12:45:53.455Z</time></trkpt><trkpt lat="43.1723241" lon="12.2327732"><ele>282.20000000000005</ele><time>2026-03-29T12:45:54.456Z</time></trkpt><trkpt lat="43.1724049" lon="12.2328793"><ele>282.6</ele><time>2026-03-29T12:45:55.456Z</time></trkpt><trkpt lat="43.1724933" lon="12.2329776"><ele>283.0</ele><time>2026-03-29T12:45:56.455Z</time></trkpt><trkpt lat="43.172589" lon="12.2330723"><ele>281.4</ele><time>2026-03-29T12:45:57.456Z</time></trkpt><trkpt lat="43.1726863" lon="12.2331748"><ele>279.8</ele><time>2026-03-29T12:45:58.456Z</time></trkpt><trkpt lat="43.1727753" lon="12.2332693"><ele>278.2</ele><time>2026-03-29T12:45:59.456Z</time></trkpt><trkpt lat="43.1728581" lon="12.2333643"><ele>276.6</ele><time>2026-03-29T12:46:00.456Z</time></trkpt><trkpt lat="43.1729344" lon="12.2334601"><ele>275.0</ele><time>2026-03-29T12:46:01.455Z</time></trkpt><trkpt lat="43.173008" lon="12.2335719"><ele>275.0</ele><time>2026-03-29T12:46:02.455Z</time></trkpt><trkpt lat="43.1730698" lon="12.2336948"><ele>275.0</ele><time>2026-03-29T12:46:03.456Z</time></trkpt><trkpt lat="43.1731179" lon="12.2338237"><ele>275.0</ele><time>2026-03-29T12:46:04.456Z</time></trkpt><trkpt lat="43.1731696" lon="12.2339593"><ele>275.0</ele><time>2026-03-29T12:46:05.456Z</time></trkpt><trkpt lat="43.1732265" lon="12.2340999"><ele>275.0</ele><time>2026-03-29T12:46:06.454Z</time></trkpt><trkpt lat="43.1732901" lon="12.2342465"><ele>275.5</ele><time>2026-03-29T12:46:07.455Z</time></trkpt><trkpt lat="43.1733597" lon="12.2343918"><ele>276.0</ele><time>2026-03-29T12:46:08.455Z</time></trkpt><trkpt lat="43.1734333" lon="12.2345376"><ele>276.5</ele><time>2026-03-29T12:46:09.456Z</time></trkpt><trkpt lat="43.1735153" lon="12.2346864"><ele>277.0</ele><time>2026-03-29T12:46:10.455Z</time></trkpt><trkpt lat="43.1735995" lon="12.2348378"><ele>277.0</ele><time>2026-03-29T12:46:11.455Z</time></trkpt><trkpt lat="43.1736855" lon="12.234995"><ele>277.0</ele><time>2026-03-29T12:46:12.456Z</time></trkpt><trkpt lat="43.1737716" lon="12.2351554"><ele>277.0</ele><time>2026-03-29T12:46:13.456Z</time></trkpt><trkpt lat="43.173859" lon="12.2353208"><ele>277.0</ele><time>2026-03-29T12:46:14.455Z</time></trkpt><trkpt lat="43.1739452" lon="12.2354777"><ele>279.0</ele><time>2026-03-29T12:46:15.456Z</time></trkpt><trkpt lat="43.1740298" lon="12.2356308"><ele>281.0</ele><time>2026-03-29T12:46:16.455Z</time></trkpt><trkpt lat="43.1741129" lon="12.2357803"><ele>283.0</ele><time>2026-03-29T12:46:17.455Z</time></trkpt><trkpt lat="43.1741922" lon="12.23592"><ele>285.0</ele><time>2026-03-29T12:46:18.456Z</time></trkpt><trkpt lat="43.1742657" lon="12.2360467"><ele>285.0</ele><time>2026-03-29T12:46:19.455Z</time></trkpt><trkpt lat="43.1743263" lon="12.236148"><ele>285.0</ele><time>2026-03-29T12:46:20.455Z</time></trkpt><trkpt lat="43.1743768" lon="12.2362354"><ele>285.0</ele><time>2026-03-29T12:46:21.455Z</time></trkpt><trkpt lat="43.1744387" lon="12.2363481"><ele>285.0</ele><time>2026-03-29T12:46:23.455Z</time></trkpt><trkpt lat="43.1744312" lon="12.2364518"><ele>285.0</ele><time>2026-03-29T12:46:26.456Z</time></trkpt><trkpt lat="43.1743769" lon="12.2365157"><ele>285.0</ele><time>2026-03-29T12:46:28.456Z</time></trkpt><trkpt lat="43.1742752" lon="12.2365801"><ele>284.2</ele><time>2026-03-29T12:46:30.456Z</time></trkpt><trkpt lat="43.1742185" lon="12.2366216"><ele>283.4</ele><time>2026-03-29T12:46:31.456Z</time></trkpt><trkpt lat="43.1741485" lon="12.2366663"><ele>282.6</ele><time>2026-03-29T12:46:32.455Z</time></trkpt><trkpt lat="43.1740535" lon="12.2367469"><ele>281.8</ele><time>2026-03-29T12:46:33.456Z</time></trkpt><trkpt lat="43.1739621" lon="12.2368269"><ele>281.0</ele><time>2026-03-29T12:46:34.456Z</time></trkpt><trkpt lat="43.1738695" lon="12.2369142"><ele>280.5</ele><time>2026-03-29T12:46:35.456Z</time></trkpt><trkpt lat="43.1737832" lon="12.2370014"><ele>280.0</ele><time>2026-03-29T12:46:36.455Z</time></trkpt><trkpt lat="43.173706" lon="12.237046"><ele>279.5</ele><time>2026-03-29T12:46:37.455Z</time></trkpt><trkpt lat="43.1736405" lon="12.2370906"><ele>279.0</ele><time>2026-03-29T12:46:38.455Z</time></trkpt><trkpt lat="43.1735885" lon="12.2371574"><ele>278.5</ele><time>2026-03-29T12:46:39.455Z</time></trkpt><trkpt lat="43.1735703" lon="12.2372412"><ele>278.0</ele><time>2026-03-29T12:46:41.455Z</time></trkpt><trkpt lat="43.1735632" lon="12.237343"><ele>277.8</ele><time>2026-03-29T12:46:43.456Z</time></trkpt><trkpt lat="43.173574" lon="12.2374913"><ele>277.6</ele><time>2026-03-29T12:46:45.455Z</time></trkpt><trkpt lat="43.1735826" lon="12.2376061"><ele>277.4</ele><time>2026-03-29T12:46:47.456Z</time></trkpt><trkpt lat="43.1735405" lon="12.2376962"><ele>277.2</ele><time>2026-03-29T12:46:49.455Z</time></trkpt><trkpt lat="43.1734285" lon="12.2377518"><ele>277.0</ele><time>2026-03-29T12:46:51.456Z</time></trkpt><trkpt lat="43.1732849" lon="12.2378077"><ele>277.0</ele><time>2026-03-29T12:46:53.456Z</time></trkpt><trkpt lat="43.1732041" lon="12.2378461"><ele>277.0</ele><time>2026-03-29T12:46:54.456Z</time></trkpt><trkpt lat="43.1731257" lon="12.2378745"><ele>277.0</ele><time>2026-03-29T12:46:55.455Z</time></trkpt><trkpt lat="43.1730452" lon="12.2379021"><ele>277.0</ele><time>2026-03-29T12:46:56.456Z</time></trkpt><trkpt lat="43.1729631" lon="12.2379424"><ele>277.0</ele><time>2026-03-29T12:46:57.455Z</time></trkpt><trkpt lat="43.1728806" lon="12.2379951"><ele>277.0</ele><time>2026-03-29T12:46:58.456Z</time></trkpt><trkpt lat="43.1728586" lon="12.2380812"><ele>277.5</ele><time>2026-03-29T12:46:59.456Z</time></trkpt><trkpt lat="43.1728091" lon="12.2381638"><ele>278.0</ele><time>2026-03-29T12:47:00.456Z</time></trkpt><trkpt lat="43.1727461" lon="12.2382569"><ele>278.5</ele><time>2026-03-29T12:47:01.455Z</time></trkpt><trkpt lat="43.1726873" lon="12.2383469"><ele>279.0</ele><time>2026-03-29T12:47:02.455Z</time></trkpt><trkpt lat="43.1726327" lon="12.2384335"><ele>279.5</ele><time>2026-03-29T12:47:03.456Z</time></trkpt><trkpt lat="43.1725738" lon="12.2385248"><ele>280.0</ele><time>2026-03-29T12:47:04.456Z</time></trkpt><trkpt lat="43.1725106" lon="12.2386157"><ele>280.0</ele><time>2026-03-29T12:47:05.455Z</time></trkpt><trkpt lat="43.1724461" lon="12.2386744"><ele>280.0</ele><time>2026-03-29T12:47:06.456Z</time></trkpt><trkpt lat="43.1723957" lon="12.2387446"><ele>280.0</ele><time>2026-03-29T12:47:07.454Z</time></trkpt><trkpt lat="43.1723645" lon="12.2388477"><ele>280.0</ele><time>2026-03-29T12:47:09.455Z</time></trkpt><trkpt lat="43.1723351" lon="12.2389453"><ele>280.0</ele><time>2026-03-29T12:47:10.455Z</time></trkpt><trkpt lat="43.1722838" lon="12.2390224"><ele>280.0</ele><time>2026-03-29T12:47:11.456Z</time></trkpt><trkpt lat="43.1722463" lon="12.2391114"><ele>281.66666666666663</ele><time>2026-03-29T12:47:12.455Z</time></trkpt><trkpt lat="43.1722085" lon="12.2392022"><ele>283.3333333333333</ele><time>2026-03-29T12:47:13.456Z</time></trkpt><trkpt lat="43.1721424" lon="12.2392675"><ele>285.0</ele><time>2026-03-29T12:47:14.455Z</time></trkpt><trkpt lat="43.1720947" lon="12.2393239"><ele>286.6666666666667</ele><time>2026-03-29T12:47:15.455Z</time></trkpt><trkpt lat="43.1720329" lon="12.2394398"><ele>288.33333333333337</ele><time>2026-03-29T12:47:17.455Z</time></trkpt><trkpt lat="43.1719895" lon="12.2395989"><ele>290.0</ele><time>2026-03-29T12:47:19.456Z</time></trkpt><trkpt lat="43.171944" lon="12.2397141"><ele>290.6666666666667</ele><time>2026-03-29T12:47:21.455Z</time></trkpt><trkpt lat="43.171876" lon="12.2398084"><ele>291.33333333333337</ele><time>2026-03-29T12:47:23.456Z</time></trkpt><trkpt lat="43.1718247" lon="12.2398692"><ele>292.0</ele><time>2026-03-29T12:47:24.456Z</time></trkpt><trkpt lat="43.1717696" lon="12.2399176"><ele>292.6666666666667</ele><time>2026-03-29T12:47:25.456Z</time></trkpt><trkpt lat="43.1717033" lon="12.2399795"><ele>293.3333333333333</ele><time>2026-03-29T12:47:26.455Z</time></trkpt><trkpt lat="43.1716332" lon="12.2400516"><ele>294.0</ele><time>2026-03-29T12:47:27.456Z</time></trkpt><trkpt lat="43.171578" lon="12.2401141"><ele>294.0</ele><time>2026-03-29T12:47:28.455Z</time></trkpt><trkpt lat="43.1715389" lon="12.2401903"><ele>294.0</ele><time>2026-03-29T12:47:29.455Z</time></trkpt><trkpt lat="43.1715204" lon="12.2403468"><ele>294.0</ele><time>2026-03-29T12:47:31.455Z</time></trkpt><trkpt lat="43.1715433" lon="12.2404304"><ele>294.0</ele><time>2026-03-29T12:47:32.456Z</time></trkpt><trkpt lat="43.1715785" lon="12.240518"><ele>294.0</ele><time>2026-03-29T12:47:33.456Z</time></trkpt><trkpt lat="43.1716332" lon="12.2406024"><ele>294.0</ele><time>2026-03-29T12:47:34.455Z</time></trkpt><trkpt lat="43.1716812" lon="12.2406985"><ele>296.0</ele><time>2026-03-29T12:47:35.455Z</time></trkpt><trkpt lat="43.171737" lon="12.2407994"><ele>298.0</ele><time>2026-03-29T12:47:36.455Z</time></trkpt><trkpt lat="43.1717854" lon="12.2408926"><ele>300.0</ele><time>2026-03-29T12:47:37.455Z</time></trkpt><trkpt lat="43.1718426" lon="12.2409975"><ele>302.0</ele><time>2026-03-29T12:47:38.455Z</time></trkpt><trkpt lat="43.1718936" lon="12.2410951"><ele>304.0</ele><time>2026-03-29T12:47:39.456Z</time></trkpt><trkpt lat="43.171942" lon="12.2411769"><ele>306.0</ele><time>2026-03-29T12:47:40.456Z</time></trkpt><trkpt lat="43.1719869" lon="12.2412546"><ele>306.0</ele><time>2026-03-29T12:47:41.456Z</time></trkpt><trkpt lat="43.1720328" lon="12.2413366"><ele>306.0</ele><time>2026-03-29T12:47:42.455Z</time></trkpt><trkpt lat="43.1720817" lon="12.2414159"><ele>306.0</ele><time>2026-03-29T12:47:43.456Z</time></trkpt><trkpt lat="43.17214" lon="12.2415846"><ele>306.0</ele><time>2026-03-29T12:47:45.456Z</time></trkpt><trkpt lat="43.1721396" lon="12.2416818"><ele>306.0</ele><time>2026-03-29T12:47:46.455Z</time></trkpt><trkpt lat="43.1721265" lon="12.2417908"><ele>306.0</ele><time>2026-03-29T12:47:47.456Z</time></trkpt><trkpt lat="43.1721147" lon="12.2419028"><ele>308.1666666666667</ele><time>2026-03-29T12:47:48.456Z</time></trkpt><trkpt lat="43.1720819" lon="12.2420283"><ele>310.3333333333333</ele><time>2026-03-29T12:47:49.455Z</time></trkpt><trkpt lat="43.1720609" lon="12.2421606"><ele>312.5</ele><time>2026-03-29T12:47:50.455Z</time></trkpt><trkpt lat="43.1720618" lon="12.2422641"><ele>314.66666666666663</ele><time>2026-03-29T12:47:51.455Z</time></trkpt><trkpt lat="43.1720489" lon="12.242376"><ele>316.8333333333333</ele><time>2026-03-29T12:47:52.455Z</time></trkpt><trkpt lat="43.1720108" lon="12.2424613"><ele>319.0</ele><time>2026-03-29T12:47:54.456Z</time></trkpt><trkpt lat="43.1719831" lon="12.2425975"><ele>322.75</ele><time>2026-03-29T12:47:56.455Z</time></trkpt><trkpt lat="43.171914" lon="12.2426701"><ele>326.5</ele><time>2026-03-29T12:47:58.455Z</time></trkpt><trkpt lat="43.1718651" lon="12.2427979"><ele>330.25</ele><time>2026-03-29T12:48:00.456Z</time></trkpt><trkpt lat="43.1717982" lon="12.2429359"><ele>334.0</ele><time>2026-03-29T12:48:02.456Z</time></trkpt><trkpt lat="43.1718225" lon="12.2431512"><ele>336.16666666666663</ele><time>2026-03-29T12:48:04.456Z</time></trkpt><trkpt lat="43.1718477" lon="12.2432625"><ele>338.3333333333333</ele><time>2026-03-29T12:48:05.455Z</time></trkpt><trkpt lat="43.1718623" lon="12.2433926"><ele>340.5</ele><time>2026-03-29T12:48:06.455Z</time></trkpt><trkpt lat="43.1718796" lon="12.2434955"><ele>342.6666666666667</ele><time>2026-03-29T12:48:07.456Z</time></trkpt><trkpt lat="43.1718989" lon="12.2435782"><ele>344.83333333333337</ele><time>2026-03-29T12:48:08.456Z</time></trkpt><trkpt lat="43.171918" lon="12.2436824"><ele>347.0</ele><time>2026-03-29T12:48:09.455Z</time></trkpt><trkpt lat="43.1719668" lon="12.2437532"><ele>347.0</ele><time>2026-03-29T12:48:10.456Z</time></trkpt><trkpt lat="43.1720285" lon="12.2438116"><ele>347.0</ele><time>2026-03-29T12:48:11.456Z</time></trkpt><trkpt lat="43.1721052" lon="12.2439056"><ele>347.0</ele><time>2026-03-29T12:48:13.455Z</time></trkpt><trkpt lat="43.1721933" lon="12.2439793"><ele>347.0</ele><time>2026-03-29T12:48:15.456Z</time></trkpt><trkpt lat="43.1722516" lon="12.2440597"><ele>347.0</ele><time>2026-03-29T12:48:17.456Z</time></trkpt><trkpt lat="43.1723055" lon="12.2441463"><ele>347.0</ele><time>2026-03-29T12:48:19.456Z</time></trkpt><trkpt lat="43.1723258" lon="12.2442508"><ele>349.40000000000003</ele><time>2026-03-29T12:48:21.456Z</time></trkpt><trkpt lat="43.1722772" lon="12.2443428"><ele>351.8</ele><time>2026-03-29T12:48:23.455Z</time></trkpt><trkpt lat="43.172207" lon="12.2444267"><ele>354.2</ele><time>2026-03-29T12:48:25.456Z</time></trkpt><trkpt lat="43.1721644" lon="12.244547"><ele>356.6</ele><time>2026-03-29T12:48:27.456Z</time></trkpt><trkpt lat="43.1721318" lon="12.2447356"><ele>359.0</ele><time>2026-03-29T12:48:29.455Z</time></trkpt><trkpt lat="43.172117" lon="12.2448478"><ele>361.6666666666667</ele><time>2026-03-29T12:48:30.455Z</time></trkpt><trkpt lat="43.1720999" lon="12.2449388"><ele>364.33333333333337</ele><time>2026-03-29T12:48:31.456Z</time></trkpt><trkpt lat="43.1720996" lon="12.2450373"><ele>367.0</ele><time>2026-03-29T12:48:32.455Z</time></trkpt><trkpt lat="43.172107" lon="12.245131"><ele>369.6666666666667</ele><time>2026-03-29T12:48:34.454Z</time></trkpt><trkpt lat="43.1721769" lon="12.2451935"><ele>372.3333333333333</ele><time>2026-03-29T12:48:37.456Z</time></trkpt><trkpt lat="43.1722341" lon="12.2452636"><ele>375.0</ele><time>2026-03-29T12:48:39.456Z</time></trkpt><trkpt lat="43.1722773" lon="12.2453796"><ele>375.0</ele><time>2026-03-29T12:48:41.456Z</time></trkpt><trkpt lat="43.1722786" lon="12.2454906"><ele>375.0</ele><time>2026-03-29T12:48:43.455Z</time></trkpt><trkpt lat="43.1722349" lon="12.2455974"><ele>375.0</ele><time>2026-03-29T12:48:45.456Z</time></trkpt><trkpt lat="43.172192" lon="12.2457708"><ele>375.0</ele><time>2026-03-29T12:48:47.456Z</time></trkpt><trkpt lat="43.1721782" lon="12.2458844"><ele>375.0</ele><time>2026-03-29T12:48:49.455Z</time></trkpt><trkpt lat="43.1721684" lon="12.2460099"><ele>375.6</ele><time>2026-03-29T12:48:51.456Z</time></trkpt><trkpt lat="43.1722119" lon="12.2461413"><ele>376.2</ele><time>2026-03-29T12:48:53.456Z</time></trkpt><trkpt lat="43.172265" lon="12.2461985"><ele>376.79999999999995</ele><time>2026-03-29T12:48:55.456Z</time></trkpt><trkpt lat="43.1723687" lon="12.2462402"><ele>377.4</ele><time>2026-03-29T12:48:57.455Z</time></trkpt><trkpt lat="43.172486" lon="12.2462566"><ele>378.0</ele><time>2026-03-29T12:48:58.455Z</time></trkpt><trkpt lat="43.1725907" lon="12.2462719"><ele>378.0</ele><time>2026-03-29T12:48:59.455Z</time></trkpt><trkpt lat="43.1726923" lon="12.2463028"><ele>378.0</ele><time>2026-03-29T12:49:00.456Z</time></trkpt><trkpt lat="43.1727892" lon="12.2463534"><ele>378.0</ele><time>2026-03-29T12:49:01.456Z</time></trkpt><trkpt lat="43.1729102" lon="12.2464826"><ele>378.0</ele><time>2026-03-29T12:49:03.455Z</time></trkpt><trkpt lat="43.1729553" lon="12.2465453"><ele>378.0</ele><time>2026-03-29T12:49:04.456Z</time></trkpt><trkpt lat="43.1729615" lon="12.2467346"><ele>380.1666666666667</ele><time>2026-03-29T12:49:06.456Z</time></trkpt><trkpt lat="43.1729665" lon="12.2468311"><ele>382.33333333333337</ele><time>2026-03-29T12:49:07.455Z</time></trkpt><trkpt lat="43.1729424" lon="12.2469246"><ele>384.5</ele><time>2026-03-29T12:49:08.455Z</time></trkpt><trkpt lat="43.1729431" lon="12.2470395"><ele>386.6666666666667</ele><time>2026-03-29T12:49:09.456Z</time></trkpt><trkpt lat="43.1729401" lon="12.2471589"><ele>388.83333333333337</ele><time>2026-03-29T12:49:10.455Z</time></trkpt><trkpt lat="43.1729259" lon="12.2472475"><ele>391.0</ele><time>2026-03-29T12:49:11.455Z</time></trkpt><trkpt lat="43.1728334" lon="12.2473373"><ele>392.33333333333337</ele><time>2026-03-29T12:49:13.455Z</time></trkpt><trkpt lat="43.1727484" lon="12.2473116"><ele>393.6666666666667</ele><time>2026-03-29T12:49:15.455Z</time></trkpt><trkpt lat="43.1726652" lon="12.2473151"><ele>395.0</ele><time>2026-03-29T12:49:18.456Z</time></trkpt><trkpt lat="43.1725987" lon="12.2472957"><ele>396.33333333333337</ele><time>2026-03-29T12:49:21.455Z</time></trkpt><trkpt lat="43.1725369" lon="12.2473438"><ele>397.6666666666667</ele><time>2026-03-29T12:49:25.455Z</time></trkpt><trkpt lat="43.1724656" lon="12.2473513"><ele>399.0</ele><time>2026-03-29T12:49:27.456Z</time></trkpt><trkpt lat="43.1723807" lon="12.2474533"><ele>401.6</ele><time>2026-03-29T12:49:29.456Z</time></trkpt><trkpt lat="43.1723362" lon="12.2475219"><ele>404.2</ele><time>2026-03-29T12:49:30.456Z</time></trkpt><trkpt lat="43.1722772" lon="12.2475741"><ele>406.8</ele><time>2026-03-29T12:49:31.455Z</time></trkpt><trkpt lat="43.1721693" lon="12.2476499"><ele>409.40000000000003</ele><time>2026-03-29T12:49:33.455Z</time></trkpt><trkpt lat="43.1720873" lon="12.2477727"><ele>412.0</ele><time>2026-03-29T12:49:35.456Z</time></trkpt><trkpt lat="43.1720333" lon="12.2478608"><ele>412.00000000000006</ele><time>2026-03-29T12:49:37.455Z</time></trkpt><trkpt lat="43.1720163" lon="12.2479861"><ele>412.0</ele><time>2026-03-29T12:51:06.456Z</time></trkpt><trkpt lat="43.1719795" lon="12.2480927"><ele>412.0</ele><time>2026-03-29T12:51:08.456Z</time></trkpt><trkpt lat="43.1719141" lon="12.2481663"><ele>412.0</ele><time>2026-03-29T12:51:09.456Z</time></trkpt><trkpt lat="43.1718554" lon="12.2482354"><ele>412.00000000000006</ele><time>2026-03-29T12:51:10.456Z</time></trkpt><trkpt lat="43.1717968" lon="12.2483111"><ele>412.0</ele><time>2026-03-29T12:51:11.455Z</time></trkpt><trkpt lat="43.1716966" lon="12.2484528"><ele>411.8</ele><time>2026-03-29T12:51:12.455Z</time></trkpt><trkpt lat="43.1716588" lon="12.248581"><ele>411.6</ele><time>2026-03-29T12:51:13.455Z</time></trkpt><trkpt lat="43.171603" lon="12.2486827"><ele>411.40000000000003</ele><time>2026-03-29T12:51:14.455Z</time></trkpt><trkpt lat="43.1715729" lon="12.2487821"><ele>411.20000000000005</ele><time>2026-03-29T12:51:15.456Z</time></trkpt><trkpt lat="43.171558" lon="12.2488748"><ele>411.0</ele><time>2026-03-29T12:51:16.456Z</time></trkpt><trkpt lat="43.1716639" lon="12.2489079"><ele>413.0</ele><time>2026-03-29T12:51:17.456Z</time></trkpt><trkpt lat="43.1716973" lon="12.2489852"><ele>415.0</ele><time>2026-03-29T12:51:18.455Z</time></trkpt><trkpt lat="43.1718304" lon="12.2490383"><ele>417.0</ele><time>2026-03-29T12:51:19.455Z</time></trkpt><trkpt lat="43.1719163" lon="12.2490867"><ele>419.0</ele><time>2026-03-29T12:51:20.456Z</time></trkpt><trkpt lat="43.171986" lon="12.2491191"><ele>421.0</ele><time>2026-03-29T12:51:21.455Z</time></trkpt><trkpt lat="43.17206" lon="12.2491867"><ele>421.00000000000006</ele><time>2026-03-29T12:51:23.455Z</time></trkpt><trkpt lat="43.1721382" lon="12.249279"><ele>421.0</ele><time>2026-03-29T12:51:25.455Z</time></trkpt><trkpt lat="43.1721805" lon="12.2493522"><ele>421.0</ele><time>2026-03-29T12:51:26.456Z</time></trkpt><trkpt lat="43.1722232" lon="12.2494199"><ele>421.0</ele><time>2026-03-29T12:51:27.455Z</time></trkpt><trkpt lat="43.1722711" lon="12.2495808"><ele>421.00000000000006</ele><time>2026-03-29T12:51:29.456Z</time></trkpt><trkpt lat="43.1723074" lon="12.2496743"><ele>421.0</ele><time>2026-03-29T12:51:30.454Z</time></trkpt><trkpt lat="43.1723352" lon="12.2498021"><ele>419.4</ele><time>2026-03-29T12:51:31.456Z</time></trkpt><trkpt lat="43.1723581" lon="12.2498959"><ele>417.8</ele><time>2026-03-29T12:51:32.456Z</time></trkpt><trkpt lat="43.1723764" lon="12.2500134"><ele>416.2</ele><time>2026-03-29T12:51:33.456Z</time></trkpt><trkpt lat="43.1723585" lon="12.2501753"><ele>414.59999999999997</ele><time>2026-03-29T12:51:34.455Z</time></trkpt><trkpt lat="43.1722992" lon="12.2502786"><ele>413.0</ele><time>2026-03-29T12:51:35.456Z</time></trkpt><trkpt lat="43.1722602" lon="12.2503833"><ele>416.3333333333333</ele><time>2026-03-29T12:51:36.456Z</time></trkpt><trkpt lat="43.1721423" lon="12.2504822"><ele>419.66666666666663</ele><time>2026-03-29T12:51:38.455Z</time></trkpt><trkpt lat="43.1720588" lon="12.2504907"><ele>423.0</ele><time>2026-03-29T12:51:39.456Z</time></trkpt><trkpt lat="43.1719862" lon="12.2505124"><ele>426.33333333333337</ele><time>2026-03-29T12:51:40.455Z</time></trkpt><trkpt lat="43.1719129" lon="12.2505031"><ele>429.6666666666667</ele><time>2026-03-29T12:51:41.455Z</time></trkpt><trkpt lat="43.171841" lon="12.25052"><ele>433.0</ele><time>2026-03-29T12:51:42.455Z</time></trkpt><trkpt lat="43.1717606" lon="12.250544"><ele>433.0</ele><time>2026-03-29T12:51:43.456Z</time></trkpt><trkpt lat="43.1716516" lon="12.2506187"><ele>432.99999999999994</ele><time>2026-03-29T12:51:45.455Z</time></trkpt><trkpt lat="43.171588" lon="12.250717"><ele>432.99999999999994</ele><time>2026-03-29T12:51:46.455Z</time></trkpt><trkpt lat="43.171582" lon="12.2508199"><ele>433.0</ele><time>2026-03-29T12:51:47.456Z</time></trkpt><trkpt lat="43.1715641" lon="12.2509505"><ele>433.0</ele><time>2026-03-29T12:51:48.455Z</time></trkpt><trkpt lat="43.1715566" lon="12.2510565"><ele>431.59999999999997</ele><time>2026-03-29T12:51:49.455Z</time></trkpt><trkpt lat="43.1715538" lon="12.2511913"><ele>430.19999999999993</ele><time>2026-03-29T12:51:50.455Z</time></trkpt><trkpt lat="43.1715406" lon="12.2513078"><ele>428.8</ele><time>2026-03-29T12:51:51.455Z</time></trkpt><trkpt lat="43.1715509" lon="12.251446"><ele>427.4</ele><time>2026-03-29T12:51:53.456Z</time></trkpt><trkpt lat="43.1715493" lon="12.2515345"><ele>426.0</ele><time>2026-03-29T12:51:54.456Z</time></trkpt><trkpt lat="43.171477" lon="12.2516535"><ele>429.8333333333333</ele><time>2026-03-29T12:51:56.456Z</time></trkpt><trkpt lat="43.1714319" lon="12.2517249"><ele>433.66666666666663</ele><time>2026-03-29T12:51:57.455Z</time></trkpt><trkpt lat="43.1713721" lon="12.2517912"><ele>437.5</ele><time>2026-03-29T12:51:58.456Z</time></trkpt><trkpt lat="43.1712986" lon="12.2518589"><ele>441.3333333333333</ele><time>2026-03-29T12:51:59.455Z</time></trkpt><trkpt lat="43.1712604" lon="12.2520011"><ele>445.16666666666663</ele><time>2026-03-29T12:52:00.456Z</time></trkpt><trkpt lat="43.1712018" lon="12.2520913"><ele>449.0</ele><time>2026-03-29T12:52:01.456Z</time></trkpt><trkpt lat="43.171161" lon="12.2522642"><ele>447.66666666666663</ele><time>2026-03-29T12:52:03.455Z</time></trkpt><trkpt lat="43.171113" lon="12.2523394"><ele>446.3333333333333</ele><time>2026-03-29T12:52:04.455Z</time></trkpt><trkpt lat="43.1710463" lon="12.2524117"><ele>445.0</ele><time>2026-03-29T12:52:06.456Z</time></trkpt><trkpt lat="43.1709846" lon="12.2524491"><ele>443.66666666666663</ele><time>2026-03-29T12:52:07.456Z</time></trkpt><trkpt lat="43.1709173" lon="12.2524778"><ele>442.3333333333333</ele><time>2026-03-29T12:52:08.455Z</time></trkpt><trkpt lat="43.1708427" lon="12.2525098"><ele>441.0</ele><time>2026-03-29T12:52:09.455Z</time></trkpt><trkpt lat="43.1707484" lon="12.2525524"><ele>441.1666666666667</ele><time>2026-03-29T12:52:10.455Z</time></trkpt><trkpt lat="43.1706283" lon="12.2526045"><ele>441.33333333333337</ele><time>2026-03-29T12:52:12.455Z</time></trkpt><trkpt lat="43.1705689" lon="12.2525178"><ele>441.5</ele><time>2026-03-29T12:52:14.455Z</time></trkpt><trkpt lat="43.17055" lon="12.2524116"><ele>441.6666666666667</ele><time>2026-03-29T12:52:16.456Z</time></trkpt><trkpt lat="43.1705401" lon="12.25231"><ele>441.83333333333337</ele><time>2026-03-29T12:52:18.456Z</time></trkpt><trkpt lat="43.1705132" lon="12.2522185"><ele>442.0</ele><time>2026-03-29T12:52:21.456Z</time></trkpt><trkpt lat="43.1704864" lon="12.2521141"><ele>442.00000000000006</ele><time>2026-03-29T12:52:25.455Z</time></trkpt><trkpt lat="43.1704681" lon="12.251974"><ele>442.0</ele><time>2026-03-29T12:52:28.455Z</time></trkpt><trkpt lat="43.1704502" lon="12.2518227"><ele>442.0</ele><time>2026-03-29T12:52:30.456Z</time></trkpt><trkpt lat="43.1704307" lon="12.2517358"><ele>442.0</ele><time>2026-03-29T12:52:31.455Z</time></trkpt><trkpt lat="43.1703993" lon="12.2516441"><ele>442.00000000000006</ele><time>2026-03-29T12:52:32.456Z</time></trkpt><trkpt lat="43.1703553" lon="12.2515637"><ele>442.0</ele><time>2026-03-29T12:52:33.455Z</time></trkpt><trkpt lat="43.1702908" lon="12.2514907"><ele>444.0</ele><time>2026-03-29T12:52:34.455Z</time></trkpt><trkpt lat="43.1702217" lon="12.251427"><ele>446.00000000000006</ele><time>2026-03-29T12:52:35.456Z</time></trkpt><trkpt lat="43.1701209" lon="12.2513721"><ele>448.00000000000006</ele><time>2026-03-29T12:52:36.454Z</time></trkpt><trkpt lat="43.170024" lon="12.25131"><ele>450.0</ele><time>2026-03-29T12:52:37.456Z</time></trkpt><trkpt lat="43.1699275" lon="12.2512443"><ele>452.0</ele><time>2026-03-29T12:52:38.456Z</time></trkpt><trkpt lat="43.1698234" lon="12.251181"><ele>452.0</ele><time>2026-03-29T12:52:39.456Z</time></trkpt><trkpt lat="43.1697387" lon="12.2510908"><ele>452.00000000000006</ele><time>2026-03-29T12:52:40.454Z</time></trkpt><trkpt lat="43.1696616" lon="12.251015"><ele>452.00000000000006</ele><time>2026-03-29T12:52:41.456Z</time></trkpt><trkpt lat="43.1695815" lon="12.2509112"><ele>452.0</ele><time>2026-03-29T12:52:42.455Z</time></trkpt><trkpt lat="43.1694994" lon="12.2508122"><ele>452.0</ele><time>2026-03-29T12:52:43.455Z</time></trkpt><trkpt lat="43.1694309" lon="12.2506981"><ele>454.20000000000005</ele><time>2026-03-29T12:52:44.456Z</time></trkpt><trkpt lat="43.1693581" lon="12.250599"><ele>456.40000000000003</ele><time>2026-03-29T12:52:45.456Z</time></trkpt><trkpt lat="43.1692945" lon="12.2504886"><ele>458.59999999999997</ele><time>2026-03-29T12:52:46.455Z</time></trkpt><trkpt lat="43.1692067" lon="12.2503738"><ele>460.79999999999995</ele><time>2026-03-29T12:52:47.456Z</time></trkpt><trkpt lat="43.1691387" lon="12.2503407"><ele>463.0</ele><time>2026-03-29T12:52:48.455Z</time></trkpt><trkpt lat="43.169077" lon="12.2502407"><ele>463.00000000000006</ele><time>2026-03-29T12:52:49.456Z</time></trkpt><trkpt lat="43.1690295" lon="12.250147"><ele>463.0</ele><time>2026-03-29T12:52:50.455Z</time></trkpt><trkpt lat="43.1689899" lon="12.2500386"><ele>463.0</ele><time>2026-03-29T12:52:51.455Z</time></trkpt><trkpt lat="43.1689471" lon="12.2499298"><ele>463.0</ele><time>2026-03-29T12:52:52.456Z</time></trkpt><trkpt lat="43.168887" lon="12.24984"><ele>463.00000000000006</ele><time>2026-03-29T12:52:53.455Z</time></trkpt><trkpt lat="43.1688422" lon="12.2497633"><ele>463.0</ele><time>2026-03-29T12:52:54.455Z</time></trkpt><trkpt lat="43.1687858" lon="12.2496621"><ele>462.79999999999995</ele><time>2026-03-29T12:52:55.455Z</time></trkpt><trkpt lat="43.1687168" lon="12.2495548"><ele>462.59999999999997</ele><time>2026-03-29T12:52:56.456Z</time></trkpt><trkpt lat="43.1686402" lon="12.249478"><ele>462.40000000000003</ele><time>2026-03-29T12:52:57.455Z</time></trkpt><trkpt lat="43.1685658" lon="12.2493925"><ele>462.20000000000005</ele><time>2026-03-29T12:52:58.455Z</time></trkpt><trkpt lat="43.1684919" lon="12.2493108"><ele>462.0</ele><time>2026-03-29T12:52:59.456Z</time></trkpt><trkpt lat="43.1684131" lon="12.2492105"><ele>462.0</ele><time>2026-03-29T12:53:00.456Z</time></trkpt><trkpt lat="43.1683403" lon="12.2491013"><ele>462.0</ele><time>2026-03-29T12:53:01.456Z</time></trkpt><trkpt lat="43.1682656" lon="12.2489897"><ele>462.0</ele><time>2026-03-29T12:53:02.456Z</time></trkpt><trkpt lat="43.1681777" lon="12.2488423"><ele>462.0</ele><time>2026-03-29T12:53:03.456Z</time></trkpt><trkpt lat="43.1680982" lon="12.2487097"><ele>462.0</ele><time>2026-03-29T12:53:04.456Z</time></trkpt><trkpt lat="43.1680106" lon="12.2485912"><ele>462.0</ele><time>2026-03-29T12:53:05.456Z</time></trkpt><trkpt lat="43.1679212" lon="12.248477"><ele>462.0</ele><time>2026-03-29T12:53:06.455Z</time></trkpt><trkpt lat="43.16784" lon="12.2483847"><ele>462.0</ele><time>2026-03-29T12:53:07.456Z</time></trkpt><trkpt lat="43.167767" lon="12.2482871"><ele>462.0</ele><time>2026-03-29T12:53:08.455Z</time></trkpt><trkpt lat="43.1676986" lon="12.2481818"><ele>462.00000000000006</ele><time>2026-03-29T12:53:09.456Z</time></trkpt><trkpt lat="43.1676414" lon="12.2481097"><ele>462.00000000000006</ele><time>2026-03-29T12:53:10.456Z</time></trkpt><trkpt lat="43.1675081" lon="12.2480596"><ele>462.0</ele><time>2026-03-29T12:53:12.455Z</time></trkpt><trkpt lat="43.1674226" lon="12.248066"><ele>462.0</ele><time>2026-03-29T12:53:13.455Z</time></trkpt><trkpt lat="43.1673295" lon="12.2480871"><ele>460.0</ele><time>2026-03-29T12:53:14.455Z</time></trkpt><trkpt lat="43.1672426" lon="12.2481122"><ele>458.0</ele><time>2026-03-29T12:53:15.456Z</time></trkpt><trkpt lat="43.1671752" lon="12.2480925"><ele>456.0</ele><time>2026-03-29T12:53:16.455Z</time></trkpt><trkpt lat="43.1670981" lon="12.2480962"><ele>454.0</ele><time>2026-03-29T12:53:17.455Z</time></trkpt><trkpt lat="43.1669687" lon="12.2480694"><ele>452.0</ele><time>2026-03-29T12:53:19.456Z</time></trkpt><trkpt lat="43.166893" lon="12.2480833"><ele>450.0</ele><time>2026-03-29T12:53:20.455Z</time></trkpt><trkpt lat="43.1668118" lon="12.248111"><ele>451.4</ele><time>2026-03-29T12:53:21.456Z</time></trkpt><trkpt lat="43.1667353" lon="12.2481498"><ele>452.8</ele><time>2026-03-29T12:53:22.457Z</time></trkpt><trkpt lat="43.1666551" lon="12.2481872"><ele>454.20000000000005</ele><time>2026-03-29T12:53:23.456Z</time></trkpt><trkpt lat="43.1665708" lon="12.2482287"><ele>455.6</ele><time>2026-03-29T12:53:24.456Z</time></trkpt><trkpt lat="43.1664578" lon="12.2482815"><ele>457.0</ele><time>2026-03-29T12:53:25.457Z</time></trkpt><trkpt lat="43.1663516" lon="12.2483387"><ele>457.0</ele><time>2026-03-29T12:53:26.457Z</time></trkpt><trkpt lat="43.1662473" lon="12.2484124"><ele>457.0</ele><time>2026-03-29T12:53:27.457Z</time></trkpt><trkpt lat="43.1661515" lon="12.2484988"><ele>457.0</ele><time>2026-03-29T12:53:28.455Z</time></trkpt><trkpt lat="43.1660541" lon="12.2486022"><ele>457.0</ele><time>2026-03-29T12:53:29.457Z</time></trkpt><trkpt lat="43.1659672" lon="12.2487198"><ele>457.0</ele><time>2026-03-29T12:53:30.456Z</time></trkpt><trkpt lat="43.165884" lon="12.2488409"><ele>457.0</ele><time>2026-03-29T12:53:31.457Z</time></trkpt><trkpt lat="43.1658078" lon="12.2489668"><ele>457.0</ele><time>2026-03-29T12:53:32.457Z</time></trkpt><trkpt lat="43.1657329" lon="12.2490914"><ele>457.0</ele><time>2026-03-29T12:53:33.456Z</time></trkpt><trkpt lat="43.1656552" lon="12.2492167"><ele>458.20000000000005</ele><time>2026-03-29T12:53:34.455Z</time></trkpt><trkpt lat="43.1655806" lon="12.2493335"><ele>459.40000000000003</ele><time>2026-03-29T12:53:35.457Z</time></trkpt><trkpt lat="43.1655056" lon="12.2494412"><ele>460.59999999999997</ele><time>2026-03-29T12:53:36.456Z</time></trkpt><trkpt lat="43.1654232" lon="12.2495287"><ele>461.79999999999995</ele><time>2026-03-29T12:53:37.457Z</time></trkpt><trkpt lat="43.1653646" lon="12.2495941"><ele>463.0</ele><time>2026-03-29T12:53:38.456Z</time></trkpt><trkpt lat="43.1652554" lon="12.2496914"><ele>463.0</ele><time>2026-03-29T12:53:40.457Z</time></trkpt><trkpt lat="43.1651085" lon="12.2497147"><ele>463.0</ele><time>2026-03-29T12:53:42.456Z</time></trkpt><trkpt lat="43.1650175" lon="12.2497124"><ele>463.0</ele><time>2026-03-29T12:53:43.457Z</time></trkpt><trkpt lat="43.1649111" lon="12.2497101"><ele>463.0</ele><time>2026-03-29T12:53:44.456Z</time></trkpt><trkpt lat="43.1648035" lon="12.2497023"><ele>464.4</ele><time>2026-03-29T12:53:45.456Z</time></trkpt><trkpt lat="43.1647097" lon="12.2496877"><ele>465.79999999999995</ele><time>2026-03-29T12:53:46.457Z</time></trkpt><trkpt lat="43.1646053" lon="12.2496627"><ele>467.2</ele><time>2026-03-29T12:53:47.456Z</time></trkpt><trkpt lat="43.1645068" lon="12.2496304"><ele>468.6</ele><time>2026-03-29T12:53:48.456Z</time></trkpt><trkpt lat="43.1644208" lon="12.2495872"><ele>470.0</ele><time>2026-03-29T12:53:49.456Z</time></trkpt><trkpt lat="43.1643631" lon="12.2495248"><ele>470.0</ele><time>2026-03-29T12:53:50.456Z</time></trkpt><trkpt lat="43.1642975" lon="12.2493475"><ele>470.0</ele><time>2026-03-29T12:53:52.456Z</time></trkpt><trkpt lat="43.1642086" lon="12.2492287"><ele>470.0</ele><time>2026-03-29T12:53:54.456Z</time></trkpt><trkpt lat="43.1641694" lon="12.2491458"><ele>470.0</ele><time>2026-03-29T12:53:55.456Z</time></trkpt><trkpt lat="43.1640436" lon="12.2490253"><ele>472.4</ele><time>2026-03-29T12:53:57.457Z</time></trkpt><trkpt lat="43.1639509" lon="12.2490118"><ele>474.8</ele><time>2026-03-29T12:53:58.457Z</time></trkpt><trkpt lat="43.1638831" lon="12.2489932"><ele>477.20000000000005</ele><time>2026-03-29T12:53:59.456Z</time></trkpt><trkpt lat="43.1637784" lon="12.248886"><ele>479.6</ele><time>2026-03-29T12:54:01.457Z</time></trkpt><trkpt lat="43.16372" lon="12.2487886"><ele>482.0</ele><time>2026-03-29T12:54:02.456Z</time></trkpt><trkpt lat="43.1636782" lon="12.2486544"><ele>481.99999999999994</ele><time>2026-03-29T12:54:03.457Z</time></trkpt><trkpt lat="43.1636464" lon="12.2485609"><ele>482.0</ele><time>2026-03-29T12:54:04.456Z</time></trkpt><trkpt lat="43.1636098" lon="12.24847"><ele>482.0</ele><time>2026-03-29T12:54:05.457Z</time></trkpt><trkpt lat="43.1635752" lon="12.2483861"><ele>482.0</ele><time>2026-03-29T12:54:06.456Z</time></trkpt><trkpt lat="43.1635257" lon="12.2482894"><ele>481.99999999999994</ele><time>2026-03-29T12:54:07.456Z</time></trkpt><trkpt lat="43.1634591" lon="12.2482365"><ele>482.0</ele><time>2026-03-29T12:54:08.456Z</time></trkpt><trkpt lat="43.1633577" lon="12.2482435"><ele>483.0</ele><time>2026-03-29T12:54:09.457Z</time></trkpt><trkpt lat="43.1631698" lon="12.2482696"><ele>484.00000000000006</ele><time>2026-03-29T12:54:11.457Z</time></trkpt><trkpt lat="43.1630852" lon="12.2482959"><ele>485.00000000000006</ele><time>2026-03-29T12:54:12.457Z</time></trkpt><trkpt lat="43.1630241" lon="12.2483359"><ele>486.0</ele><time>2026-03-29T12:54:13.457Z</time></trkpt><trkpt lat="43.1629607" lon="12.2484063"><ele>487.0</ele><time>2026-03-29T12:54:14.456Z</time></trkpt><trkpt lat="43.1628583" lon="12.2485133"><ele>487.00000000000006</ele><time>2026-03-29T12:54:16.456Z</time></trkpt><trkpt lat="43.1627922" lon="12.248598"><ele>487.0</ele><time>2026-03-29T12:54:18.457Z</time></trkpt><trkpt lat="43.1627128" lon="12.2486025"><ele>487.0</ele><time>2026-03-29T12:54:20.456Z</time></trkpt><trkpt lat="43.1626139" lon="12.2485952"><ele>487.0</ele><time>2026-03-29T12:54:22.457Z</time></trkpt><trkpt lat="43.1625595" lon="12.248535"><ele>487.00000000000006</ele><time>2026-03-29T12:54:23.457Z</time></trkpt><trkpt lat="43.162472" lon="12.2485161"><ele>487.0</ele><time>2026-03-29T12:54:24.457Z</time></trkpt><trkpt lat="43.1623954" lon="12.2484938"><ele>488.20000000000005</ele><time>2026-03-29T12:54:25.457Z</time></trkpt><trkpt lat="43.1622699" lon="12.2484397"><ele>489.40000000000003</ele><time>2026-03-29T12:54:27.456Z</time></trkpt><trkpt lat="43.1622045" lon="12.248399"><ele>490.59999999999997</ele><time>2026-03-29T12:54:28.457Z</time></trkpt><trkpt lat="43.162125" lon="12.2483526"><ele>491.79999999999995</ele><time>2026-03-29T12:54:29.457Z</time></trkpt><trkpt lat="43.1620337" lon="12.2483117"><ele>493.0</ele><time>2026-03-29T12:54:30.456Z</time></trkpt><trkpt lat="43.1619339" lon="12.2482383"><ele>493.0</ele><time>2026-03-29T12:54:32.456Z</time></trkpt><trkpt lat="43.1618729" lon="12.2481748"><ele>492.99999999999994</ele><time>2026-03-29T12:54:33.457Z</time></trkpt><trkpt lat="43.1617812" lon="12.2480919"><ele>492.99999999999994</ele><time>2026-03-29T12:54:34.456Z</time></trkpt><trkpt lat="43.1616904" lon="12.2480642"><ele>493.0</ele><time>2026-03-29T12:54:35.456Z</time></trkpt><trkpt lat="43.1616248" lon="12.2480107"><ele>493.0</ele><time>2026-03-29T12:54:36.456Z</time></trkpt><trkpt lat="43.1614916" lon="12.2479378"><ele>493.33333333333337</ele><time>2026-03-29T12:54:38.456Z</time></trkpt><trkpt lat="43.1614168" lon="12.2479272"><ele>493.6666666666667</ele><time>2026-03-29T12:54:39.457Z</time></trkpt><trkpt lat="43.1613382" lon="12.2478738"><ele>494.0</ele><time>2026-03-29T12:54:41.456Z</time></trkpt><trkpt lat="43.1612824" lon="12.2477825"><ele>494.33333333333337</ele><time>2026-03-29T12:54:42.457Z</time></trkpt><trkpt lat="43.1612222" lon="12.2477276"><ele>494.6666666666667</ele><time>2026-03-29T12:54:43.456Z</time></trkpt><trkpt lat="43.1611467" lon="12.2476842"><ele>495.0</ele><time>2026-03-29T12:54:44.456Z</time></trkpt><trkpt lat="43.1610759" lon="12.247645"><ele>495.0</ele><time>2026-03-29T12:54:45.457Z</time></trkpt><trkpt lat="43.1610129" lon="12.2476141"><ele>495.0</ele><time>2026-03-29T12:54:46.456Z</time></trkpt><trkpt lat="43.1609512" lon="12.247581"><ele>495.0</ele><time>2026-03-29T12:54:47.457Z</time></trkpt><trkpt lat="43.1608852" lon="12.2475528"><ele>495.0</ele><time>2026-03-29T12:54:48.456Z</time></trkpt><trkpt lat="43.1607986" lon="12.2474633"><ele>495.0</ele><time>2026-03-29T12:54:50.456Z</time></trkpt><trkpt lat="43.1607129" lon="12.247328"><ele>495.0</ele><time>2026-03-29T12:54:52.456Z</time></trkpt><trkpt lat="43.1606735" lon="12.247194"><ele>498.4</ele><time>2026-03-29T12:54:53.456Z</time></trkpt><trkpt lat="43.1606324" lon="12.2470879"><ele>501.8</ele><time>2026-03-29T12:54:54.457Z</time></trkpt><trkpt lat="43.1605928" lon="12.2469827"><ele>505.20000000000005</ele><time>2026-03-29T12:54:55.457Z</time></trkpt><trkpt lat="43.1605414" lon="12.2468731"><ele>508.6</ele><time>2026-03-29T12:54:56.456Z</time></trkpt><trkpt lat="43.160473" lon="12.2467607"><ele>512.0</ele><time>2026-03-29T12:54:57.457Z</time></trkpt><trkpt lat="43.1604135" lon="12.2466289"><ele>512.0</ele><time>2026-03-29T12:54:58.457Z</time></trkpt><trkpt lat="43.160354" lon="12.2465295"><ele>512.0</ele><time>2026-03-29T12:54:59.456Z</time></trkpt><trkpt lat="43.1602767" lon="12.2464386"><ele>512.0</ele><time>2026-03-29T12:55:00.456Z</time></trkpt><trkpt lat="43.16019" lon="12.2463245"><ele>512.0</ele><time>2026-03-29T12:55:01.457Z</time></trkpt><trkpt lat="43.1601119" lon="12.2462465"><ele>512.0</ele><time>2026-03-29T12:55:02.455Z</time></trkpt><trkpt lat="43.160037" lon="12.2461508"><ele>511.6</ele><time>2026-03-29T12:55:03.457Z</time></trkpt><trkpt lat="43.1599964" lon="12.2460069"><ele>511.20000000000005</ele><time>2026-03-29T12:55:04.456Z</time></trkpt><trkpt lat="43.1599349" lon="12.2458739"><ele>510.8</ele><time>2026-03-29T12:55:05.456Z</time></trkpt><trkpt lat="43.159926" lon="12.2457496"><ele>510.4</ele><time>2026-03-29T12:55:06.457Z</time></trkpt><trkpt lat="43.1599835" lon="12.2456217"><ele>510.0</ele><time>2026-03-29T12:55:07.457Z</time></trkpt><trkpt lat="43.1599967" lon="12.2454835"><ele>510.0</ele><time>2026-03-29T12:55:08.456Z</time></trkpt><trkpt lat="43.160019" lon="12.2453616"><ele>510.0</ele><time>2026-03-29T12:55:09.457Z</time></trkpt><trkpt lat="43.1600375" lon="12.2452397"><ele>510.0</ele><time>2026-03-29T12:55:10.457Z</time></trkpt><trkpt lat="43.1600497" lon="12.2451433"><ele>510.0</ele><time>2026-03-29T12:55:11.457Z</time></trkpt><trkpt lat="43.1600516" lon="12.2450407"><ele>510.0</ele><time>2026-03-29T12:55:12.457Z</time></trkpt><trkpt lat="43.1600386" lon="12.244924"><ele>510.0</ele><time>2026-03-29T12:55:13.457Z</time></trkpt><trkpt lat="43.1600039" lon="12.2447552"><ele>509.3333333333333</ele><time>2026-03-29T12:55:15.457Z</time></trkpt><trkpt lat="43.1599743" lon="12.2446666"><ele>508.66666666666663</ele><time>2026-03-29T12:55:16.457Z</time></trkpt><trkpt lat="43.1599168" lon="12.2445437"><ele>508.0</ele><time>2026-03-29T12:55:18.457Z</time></trkpt><trkpt lat="43.1598779" lon="12.2444341"><ele>507.3333333333333</ele><time>2026-03-29T12:55:20.457Z</time></trkpt><trkpt lat="43.1598381" lon="12.2443607"><ele>506.66666666666663</ele><time>2026-03-29T12:55:23.456Z</time></trkpt><trkpt lat="43.1598329" lon="12.2442557"><ele>506.0</ele><time>2026-03-29T13:02:54.456Z</time></trkpt><trkpt lat="43.1598299" lon="12.2441686"><ele>505.4</ele><time>2026-03-29T13:02:56.457Z</time></trkpt><trkpt lat="43.1598042" lon="12.2440598"><ele>504.8</ele><time>2026-03-29T13:02:58.458Z</time></trkpt><trkpt lat="43.1597766" lon="12.2439315"><ele>504.19999999999993</ele><time>2026-03-29T13:03:00.457Z</time></trkpt><trkpt lat="43.1597356" lon="12.2437816"><ele>503.59999999999997</ele><time>2026-03-29T13:03:02.457Z</time></trkpt><trkpt lat="43.1596981" lon="12.2436289"><ele>503.0</ele><time>2026-03-29T13:03:04.458Z</time></trkpt><trkpt lat="43.159659" lon="12.2434726"><ele>501.49999999999994</ele><time>2026-03-29T13:03:06.456Z</time></trkpt><trkpt lat="43.1596066" lon="12.2433175"><ele>500.0</ele><time>2026-03-29T13:03:08.457Z</time></trkpt><trkpt lat="43.1595753" lon="12.2432334"><ele>498.5</ele><time>2026-03-29T13:03:09.456Z</time></trkpt><trkpt lat="43.1595402" lon="12.2431495"><ele>497.0</ele><time>2026-03-29T13:03:10.457Z</time></trkpt><trkpt lat="43.1595012" lon="12.2430628"><ele>495.49999999999994</ele><time>2026-03-29T13:03:11.456Z</time></trkpt><trkpt lat="43.1594585" lon="12.2429733"><ele>494.0</ele><time>2026-03-29T13:03:12.456Z</time></trkpt><trkpt lat="43.159419" lon="12.2428812"><ele>491.66666666666663</ele><time>2026-03-29T13:03:13.457Z</time></trkpt><trkpt lat="43.1593905" lon="12.2427815"><ele>489.3333333333333</ele><time>2026-03-29T13:03:14.456Z</time></trkpt><trkpt lat="43.1593626" lon="12.2426674"><ele>487.0</ele><time>2026-03-29T13:03:15.457Z</time></trkpt><trkpt lat="43.1593472" lon="12.2425425"><ele>484.66666666666663</ele><time>2026-03-29T13:03:16.457Z</time></trkpt><trkpt lat="43.1593206" lon="12.2424219"><ele>482.3333333333333</ele><time>2026-03-29T13:03:17.457Z</time></trkpt><trkpt lat="43.1592895" lon="12.242296"><ele>480.0</ele><time>2026-03-29T13:03:18.457Z</time></trkpt><trkpt lat="43.1592534" lon="12.2421765"><ele>478.4</ele><time>2026-03-29T13:03:19.457Z</time></trkpt><trkpt lat="43.1592126" lon="12.2420569"><ele>476.8</ele><time>2026-03-29T13:03:20.457Z</time></trkpt><trkpt lat="43.1591712" lon="12.2419344"><ele>475.20000000000005</ele><time>2026-03-29T13:03:21.457Z</time></trkpt><trkpt lat="43.1591369" lon="12.2418142"><ele>473.6</ele><time>2026-03-29T13:03:22.456Z</time></trkpt><trkpt lat="43.1591015" lon="12.2416941"><ele>472.0</ele><time>2026-03-29T13:03:23.457Z</time></trkpt><trkpt lat="43.1590564" lon="12.2415814"><ele>470.50000000000006</ele><time>2026-03-29T13:03:24.456Z</time></trkpt><trkpt lat="43.1590218" lon="12.2414875"><ele>469.0</ele><time>2026-03-29T13:03:25.457Z</time></trkpt><trkpt lat="43.1589882" lon="12.2413913"><ele>467.5</ele><time>2026-03-29T13:03:26.456Z</time></trkpt><trkpt lat="43.1589641" lon="12.2412624"><ele>466.0</ele><time>2026-03-29T13:03:28.457Z</time></trkpt><trkpt lat="43.1589696" lon="12.2411677"><ele>464.50000000000006</ele><time>2026-03-29T13:03:30.457Z</time></trkpt><trkpt lat="43.159046" lon="12.2410689"><ele>463.0</ele><time>2026-03-29T13:03:33.457Z</time></trkpt><trkpt lat="43.1590994" lon="12.2410208"><ele>463.0</ele><time>2026-03-29T13:03:34.456Z</time></trkpt><trkpt lat="43.1591608" lon="12.240961"><ele>462.99999999999994</ele><time>2026-03-29T13:03:35.456Z</time></trkpt><trkpt lat="43.1592136" lon="12.2408942"><ele>463.0</ele><time>2026-03-29T13:03:36.457Z</time></trkpt><trkpt lat="43.1592654" lon="12.2408311"><ele>463.0</ele><time>2026-03-29T13:03:37.456Z</time></trkpt><trkpt lat="43.1593187" lon="12.2407615"><ele>462.99999999999994</ele><time>2026-03-29T13:03:38.457Z</time></trkpt><trkpt lat="43.1593802" lon="12.2406975"><ele>463.0</ele><time>2026-03-29T13:03:39.457Z</time></trkpt><trkpt lat="43.1594408" lon="12.2406315"><ele>463.0</ele><time>2026-03-29T13:03:40.457Z</time></trkpt><trkpt lat="43.1594965" lon="12.2405512"><ele>461.83333333333337</ele><time>2026-03-29T13:03:41.457Z</time></trkpt><trkpt lat="43.1595496" lon="12.2404762"><ele>460.6666666666667</ele><time>2026-03-29T13:03:42.456Z</time></trkpt><trkpt lat="43.1596071" lon="12.240405"><ele>459.5</ele><time>2026-03-29T13:03:43.457Z</time></trkpt><trkpt lat="43.1596591" lon="12.2403474"><ele>458.33333333333337</ele><time>2026-03-29T13:03:44.456Z</time></trkpt><trkpt lat="43.1597231" lon="12.2403122"><ele>457.1666666666667</ele><time>2026-03-29T13:03:45.457Z</time></trkpt><trkpt lat="43.159861" lon="12.2402797"><ele>456.0</ele><time>2026-03-29T13:03:47.456Z</time></trkpt><trkpt lat="43.1599483" lon="12.2402631"><ele>455.3333333333333</ele><time>2026-03-29T13:03:48.457Z</time></trkpt><trkpt lat="43.1600328" lon="12.2402425"><ele>454.66666666666663</ele><time>2026-03-29T13:03:49.457Z</time></trkpt><trkpt lat="43.1601111" lon="12.2402402"><ele>454.0</ele><time>2026-03-29T13:03:50.457Z</time></trkpt><trkpt lat="43.1601947" lon="12.2402423"><ele>453.3333333333333</ele><time>2026-03-29T13:03:51.456Z</time></trkpt><trkpt lat="43.1602846" lon="12.2402609"><ele>452.66666666666663</ele><time>2026-03-29T13:03:52.456Z</time></trkpt><trkpt lat="43.1603589" lon="12.2402315"><ele>452.0</ele><time>2026-03-29T13:03:53.456Z</time></trkpt><trkpt lat="43.1604402" lon="12.2402216"><ele>452.0</ele><time>2026-03-29T13:03:54.457Z</time></trkpt><trkpt lat="43.1605433" lon="12.2402237"><ele>452.00000000000006</ele><time>2026-03-29T13:03:55.457Z</time></trkpt><trkpt lat="43.1606342" lon="12.2402322"><ele>452.00000000000006</ele><time>2026-03-29T13:03:56.456Z</time></trkpt><trkpt lat="43.1607242" lon="12.2402365"><ele>452.0</ele><time>2026-03-29T13:03:57.456Z</time></trkpt><trkpt lat="43.1608634" lon="12.2402967"><ele>452.0</ele><time>2026-03-29T13:03:59.456Z</time></trkpt><trkpt lat="43.1609272" lon="12.2403441"><ele>448.6</ele><time>2026-03-29T13:04:00.457Z</time></trkpt><trkpt lat="43.1610072" lon="12.2403762"><ele>445.20000000000005</ele><time>2026-03-29T13:04:01.456Z</time></trkpt><trkpt lat="43.1610774" lon="12.2403936"><ele>441.8</ele><time>2026-03-29T13:04:02.457Z</time></trkpt><trkpt lat="43.1612134" lon="12.2404432"><ele>438.4</ele><time>2026-03-29T13:04:04.457Z</time></trkpt><trkpt lat="43.1612903" lon="12.2404856"><ele>435.0</ele><time>2026-03-29T13:04:05.456Z</time></trkpt><trkpt lat="43.1614324" lon="12.2405459"><ele>435.0</ele><time>2026-03-29T13:04:06.457Z</time></trkpt><trkpt lat="43.1615274" lon="12.2406117"><ele>435.0</ele><time>2026-03-29T13:04:07.455Z</time></trkpt><trkpt lat="43.1616164" lon="12.2406428"><ele>435.0</ele><time>2026-03-29T13:04:08.456Z</time></trkpt><trkpt lat="43.1617033" lon="12.2406751"><ele>435.0</ele><time>2026-03-29T13:04:09.456Z</time></trkpt><trkpt lat="43.1617895" lon="12.2406914"><ele>435.0</ele><time>2026-03-29T13:04:10.457Z</time></trkpt><trkpt lat="43.1618678" lon="12.2406805"><ele>435.5</ele><time>2026-03-29T13:04:11.456Z</time></trkpt><trkpt lat="43.1619474" lon="12.2406596"><ele>436.0</ele><time>2026-03-29T13:04:12.456Z</time></trkpt><trkpt lat="43.1620277" lon="12.2406215"><ele>436.5</ele><time>2026-03-29T13:04:13.456Z</time></trkpt><trkpt lat="43.1621034" lon="12.2405725"><ele>437.0</ele><time>2026-03-29T13:04:14.456Z</time></trkpt><trkpt lat="43.1621784" lon="12.2405162"><ele>437.5</ele><time>2026-03-29T13:04:15.456Z</time></trkpt><trkpt lat="43.1622531" lon="12.2404429"><ele>438.0</ele><time>2026-03-29T13:04:16.457Z</time></trkpt><trkpt lat="43.1623267" lon="12.2403554"><ele>434.59999999999997</ele><time>2026-03-29T13:04:17.456Z</time></trkpt><trkpt lat="43.1624023" lon="12.2402647"><ele>431.19999999999993</ele><time>2026-03-29T13:04:18.456Z</time></trkpt><trkpt lat="43.1624816" lon="12.2401782"><ele>427.8</ele><time>2026-03-29T13:04:19.457Z</time></trkpt><trkpt lat="43.1625535" lon="12.2400995"><ele>424.4</ele><time>2026-03-29T13:04:20.457Z</time></trkpt><trkpt lat="43.1626173" lon="12.2400218"><ele>421.0</ele><time>2026-03-29T13:04:21.457Z</time></trkpt><trkpt lat="43.1626843" lon="12.2399451"><ele>421.0</ele><time>2026-03-29T13:04:22.457Z</time></trkpt><trkpt lat="43.1627543" lon="12.2398708"><ele>421.0</ele><time>2026-03-29T13:04:23.457Z</time></trkpt><trkpt lat="43.1628323" lon="12.2397895"><ele>421.0</ele><time>2026-03-29T13:04:24.456Z</time></trkpt><trkpt lat="43.1629135" lon="12.2397109"><ele>421.0</ele><time>2026-03-29T13:04:25.457Z</time></trkpt><trkpt lat="43.1629842" lon="12.2396415"><ele>421.0</ele><time>2026-03-29T13:04:26.457Z</time></trkpt><trkpt lat="43.1630519" lon="12.2395627"><ele>419.1666666666667</ele><time>2026-03-29T13:04:27.457Z</time></trkpt><trkpt lat="43.1631284" lon="12.2394836"><ele>417.33333333333337</ele><time>2026-03-29T13:04:28.456Z</time></trkpt><trkpt lat="43.163207" lon="12.2394096"><ele>415.5</ele><time>2026-03-29T13:04:29.456Z</time></trkpt><trkpt lat="43.1632758" lon="12.2393326"><ele>413.66666666666663</ele><time>2026-03-29T13:04:30.457Z</time></trkpt><trkpt lat="43.16333" lon="12.2392598"><ele>411.8333333333333</ele><time>2026-03-29T13:04:31.456Z</time></trkpt><trkpt lat="43.1633943" lon="12.2391964"><ele>410.0</ele><time>2026-03-29T13:04:32.456Z</time></trkpt><trkpt lat="43.1634597" lon="12.239131"><ele>409.2</ele><time>2026-03-29T13:04:33.457Z</time></trkpt><trkpt lat="43.163528" lon="12.2390693"><ele>408.4</ele><time>2026-03-29T13:04:34.457Z</time></trkpt><trkpt lat="43.1635777" lon="12.2389904"><ele>407.6</ele><time>2026-03-29T13:04:35.457Z</time></trkpt><trkpt lat="43.1636614" lon="12.2388643"><ele>406.8</ele><time>2026-03-29T13:04:37.456Z</time></trkpt><trkpt lat="43.1637529" lon="12.2387715"><ele>406.0</ele><time>2026-03-29T13:04:39.457Z</time></trkpt><trkpt lat="43.1638623" lon="12.2387219"><ele>403.33333333333337</ele><time>2026-03-29T13:04:41.456Z</time></trkpt><trkpt lat="43.1639311" lon="12.2387448"><ele>400.6666666666667</ele><time>2026-03-29T13:04:42.457Z</time></trkpt><trkpt lat="43.1640439" lon="12.2387869"><ele>398.0</ele><time>2026-03-29T13:04:44.455Z</time></trkpt><trkpt lat="43.1641083" lon="12.2387922"><ele>395.33333333333337</ele><time>2026-03-29T13:04:45.457Z</time></trkpt><trkpt lat="43.1642019" lon="12.2387723"><ele>392.6666666666667</ele><time>2026-03-29T13:04:47.457Z</time></trkpt><trkpt lat="43.1642467" lon="12.2386675"><ele>390.0</ele><time>2026-03-29T13:04:49.456Z</time></trkpt><trkpt lat="43.1642464" lon="12.2385691"><ele>388.0</ele><time>2026-03-29T13:04:50.456Z</time></trkpt><trkpt lat="43.1642659" lon="12.2384786"><ele>386.0</ele><time>2026-03-29T13:04:51.456Z</time></trkpt><trkpt lat="43.1642811" lon="12.2383821"><ele>384.0</ele><time>2026-03-29T13:04:52.456Z</time></trkpt><trkpt lat="43.1642407" lon="12.2382679"><ele>382.0</ele><time>2026-03-29T13:04:54.457Z</time></trkpt><trkpt lat="43.1641703" lon="12.2381723"><ele>380.0</ele><time>2026-03-29T13:04:56.456Z</time></trkpt><trkpt lat="43.164104" lon="12.2380348"><ele>379.0</ele><time>2026-03-29T13:04:58.456Z</time></trkpt><trkpt lat="43.1640579" lon="12.2379307"><ele>378.0</ele><time>2026-03-29T13:05:00.456Z</time></trkpt><trkpt lat="43.1639828" lon="12.2378396"><ele>377.0</ele><time>2026-03-29T13:05:02.457Z</time></trkpt><trkpt lat="43.1638954" lon="12.2377702"><ele>376.0</ele><time>2026-03-29T13:05:04.457Z</time></trkpt><trkpt lat="43.163869" lon="12.2376837"><ele>375.0</ele><time>2026-03-29T13:05:06.457Z</time></trkpt><trkpt lat="43.1639536" lon="12.2375859"><ele>373.0</ele><time>2026-03-29T13:05:08.457Z</time></trkpt><trkpt lat="43.1640627" lon="12.2375697"><ele>371.0</ele><time>2026-03-29T13:05:10.456Z</time></trkpt><trkpt lat="43.1641683" lon="12.2375487"><ele>369.0</ele><time>2026-03-29T13:05:12.457Z</time></trkpt><trkpt lat="43.1642811" lon="12.2375387"><ele>367.0</ele><time>2026-03-29T13:05:14.457Z</time></trkpt><trkpt lat="43.1643824" lon="12.2375454"><ele>365.0</ele><time>2026-03-29T13:05:16.457Z</time></trkpt><trkpt lat="43.164472" lon="12.2375266"><ele>365.0</ele><time>2026-03-29T13:05:18.457Z</time></trkpt><trkpt lat="43.1645725" lon="12.2375212"><ele>365.0</ele><time>2026-03-29T13:05:20.457Z</time></trkpt><trkpt lat="43.1646842" lon="12.2375082"><ele>365.0</ele><time>2026-03-29T13:05:22.456Z</time></trkpt><trkpt lat="43.1647532" lon="12.2375013"><ele>365.0</ele><time>2026-03-29T13:05:23.456Z</time></trkpt><trkpt lat="43.1648612" lon="12.2374888"><ele>365.0</ele><time>2026-03-29T13:05:25.456Z</time></trkpt><trkpt lat="43.1649378" lon="12.2374861"><ele>363.5</ele><time>2026-03-29T13:05:26.456Z</time></trkpt><trkpt lat="43.1650025" lon="12.2374784"><ele>362.0</ele><time>2026-03-29T13:05:27.457Z</time></trkpt><trkpt lat="43.1650834" lon="12.2375308"><ele>360.5</ele><time>2026-03-29T13:05:29.456Z</time></trkpt><trkpt lat="43.165204" lon="12.2375327"><ele>359.0</ele><time>2026-03-29T13:05:31.456Z</time></trkpt><trkpt lat="43.1652667" lon="12.2374993"><ele>357.5</ele><time>2026-03-29T13:05:32.456Z</time></trkpt><trkpt lat="43.1653124" lon="12.2374327"><ele>356.0</ele><time>2026-03-29T13:05:33.456Z</time></trkpt><trkpt lat="43.1653676" lon="12.2373658"><ele>354.1666666666667</ele><time>2026-03-29T13:05:34.457Z</time></trkpt><trkpt lat="43.1654285" lon="12.2372925"><ele>352.33333333333337</ele><time>2026-03-29T13:05:35.456Z</time></trkpt><trkpt lat="43.1654721" lon="12.2372156"><ele>350.5</ele><time>2026-03-29T13:05:36.457Z</time></trkpt><trkpt lat="43.1654915" lon="12.237108"><ele>348.6666666666667</ele><time>2026-03-29T13:05:38.457Z</time></trkpt><trkpt lat="43.1655181" lon="12.236984"><ele>346.8333333333333</ele><time>2026-03-29T13:05:40.456Z</time></trkpt><trkpt lat="43.1655945" lon="12.2368787"><ele>345.0</ele><time>2026-03-29T13:05:42.456Z</time></trkpt><trkpt lat="43.1656686" lon="12.2367745"><ele>343.2</ele><time>2026-03-29T13:05:44.456Z</time></trkpt><trkpt lat="43.1657528" lon="12.2366794"><ele>341.4</ele><time>2026-03-29T13:05:46.456Z</time></trkpt><trkpt lat="43.1658238" lon="12.2365486"><ele>339.6</ele><time>2026-03-29T13:05:48.456Z</time></trkpt><trkpt lat="43.165913" lon="12.2364695"><ele>337.8</ele><time>2026-03-29T13:05:50.457Z</time></trkpt><trkpt lat="43.1659716" lon="12.2364227"><ele>336.0</ele><time>2026-03-29T13:05:51.456Z</time></trkpt><trkpt lat="43.1660358" lon="12.2363976"><ele>335.1666666666667</ele><time>2026-03-29T13:05:52.457Z</time></trkpt><trkpt lat="43.1661054" lon="12.2363683"><ele>334.3333333333333</ele><time>2026-03-29T13:05:53.457Z</time></trkpt><trkpt lat="43.1661711" lon="12.2363331"><ele>333.5</ele><time>2026-03-29T13:05:54.456Z</time></trkpt><trkpt lat="43.1662832" lon="12.2362541"><ele>332.66666666666663</ele><time>2026-03-29T13:05:56.456Z</time></trkpt><trkpt lat="43.1663302" lon="12.2361952"><ele>331.8333333333333</ele><time>2026-03-29T13:05:57.456Z</time></trkpt><trkpt lat="43.1664166" lon="12.2361164"><ele>331.0</ele><time>2026-03-29T13:05:59.457Z</time></trkpt><trkpt lat="43.1664954" lon="12.2359893"><ele>329.4</ele><time>2026-03-29T13:06:01.457Z</time></trkpt><trkpt lat="43.1665504" lon="12.2359129"><ele>327.8</ele><time>2026-03-29T13:06:02.456Z</time></trkpt><trkpt lat="43.1665844" lon="12.2358322"><ele>326.2</ele><time>2026-03-29T13:06:03.455Z</time></trkpt><trkpt lat="43.1666227" lon="12.2357626"><ele>324.59999999999997</ele><time>2026-03-29T13:06:04.457Z</time></trkpt><trkpt lat="43.1666636" lon="12.2356094"><ele>323.0</ele><time>2026-03-29T13:06:06.456Z</time></trkpt><trkpt lat="43.1667299" lon="12.2354559"><ele>322.4</ele><time>2026-03-29T13:06:08.456Z</time></trkpt><trkpt lat="43.1668131" lon="12.2353811"><ele>321.79999999999995</ele><time>2026-03-29T13:06:10.456Z</time></trkpt><trkpt lat="43.166908" lon="12.2352721"><ele>321.2</ele><time>2026-03-29T13:06:12.456Z</time></trkpt><trkpt lat="43.1669823" lon="12.2351343"><ele>320.6</ele><time>2026-03-29T13:06:14.457Z</time></trkpt><trkpt lat="43.167" lon="12.2350432"><ele>320.0</ele><time>2026-03-29T13:06:15.457Z</time></trkpt><trkpt lat="43.1669863" lon="12.2349463"><ele>320.0</ele><time>2026-03-29T13:06:16.457Z</time></trkpt><trkpt lat="43.1669791" lon="12.2348483"><ele>320.0</ele><time>2026-03-29T13:06:17.457Z</time></trkpt><trkpt lat="43.1669317" lon="12.2347643"><ele>320.0</ele><time>2026-03-29T13:06:18.456Z</time></trkpt><trkpt lat="43.1668799" lon="12.2347048"><ele>320.0</ele><time>2026-03-29T13:06:19.457Z</time></trkpt><trkpt lat="43.1668139" lon="12.2346655"><ele>320.0</ele><time>2026-03-29T13:06:20.457Z</time></trkpt><trkpt lat="43.1667647" lon="12.2346057"><ele>320.0</ele><time>2026-03-29T13:06:21.456Z</time></trkpt><trkpt lat="43.1667276" lon="12.2345106"><ele>320.0</ele><time>2026-03-29T13:06:23.457Z</time></trkpt><trkpt lat="43.166718" lon="12.2343889"><ele>318.0</ele><time>2026-03-29T13:06:25.457Z</time></trkpt><trkpt lat="43.1666859" lon="12.2342279"><ele>316.0</ele><time>2026-03-29T13:06:27.457Z</time></trkpt><trkpt lat="43.1666589" lon="12.2341407"><ele>314.0</ele><time>2026-03-29T13:06:28.456Z</time></trkpt><trkpt lat="43.1666272" lon="12.2340558"><ele>312.0</ele><time>2026-03-29T13:06:29.457Z</time></trkpt><trkpt lat="43.1665883" lon="12.2339649"><ele>310.0</ele><time>2026-03-29T13:06:30.457Z</time></trkpt><trkpt lat="43.1665568" lon="12.2338625"><ele>308.0</ele><time>2026-03-29T13:06:31.456Z</time></trkpt><trkpt lat="43.166525" lon="12.2337542"><ele>305.83333333333337</ele><time>2026-03-29T13:06:32.457Z</time></trkpt><trkpt lat="43.1664929" lon="12.2336421"><ele>303.6666666666667</ele><time>2026-03-29T13:06:33.455Z</time></trkpt><trkpt lat="43.1664711" lon="12.2335275"><ele>301.5</ele><time>2026-03-29T13:06:34.457Z</time></trkpt><trkpt lat="43.1664355" lon="12.2334129"><ele>299.3333333333333</ele><time>2026-03-29T13:06:35.457Z</time></trkpt><trkpt lat="43.1664062" lon="12.2332974"><ele>297.16666666666663</ele><time>2026-03-29T13:06:36.457Z</time></trkpt><trkpt lat="43.1663765" lon="12.2331925"><ele>295.0</ele><time>2026-03-29T13:06:37.456Z</time></trkpt><trkpt lat="43.1663517" lon="12.2330644"><ele>293.6</ele><time>2026-03-29T13:06:38.457Z</time></trkpt><trkpt lat="43.1663157" lon="12.2329372"><ele>292.2</ele><time>2026-03-29T13:06:39.456Z</time></trkpt><trkpt lat="43.1662846" lon="12.2328114"><ele>290.8</ele><time>2026-03-29T13:06:40.456Z</time></trkpt><trkpt lat="43.1662687" lon="12.2327192"><ele>289.4</ele><time>2026-03-29T13:06:41.456Z</time></trkpt><trkpt lat="43.1662626" lon="12.2326188"><ele>288.0</ele><time>2026-03-29T13:06:42.457Z</time></trkpt><trkpt lat="43.1662928" lon="12.2324358"><ele>288.0</ele><time>2026-03-29T13:06:44.456Z</time></trkpt><trkpt lat="43.1662984" lon="12.2323083"><ele>288.0</ele><time>2026-03-29T13:06:45.456Z</time></trkpt><trkpt lat="43.1662981" lon="12.2322072"><ele>288.0</ele><time>2026-03-29T13:06:46.456Z</time></trkpt><trkpt lat="43.166314" lon="12.2320841"><ele>288.0</ele><time>2026-03-29T13:06:47.457Z</time></trkpt><trkpt lat="43.1662856" lon="12.2319361"><ele>288.0</ele><time>2026-03-29T13:06:49.456Z</time></trkpt><trkpt lat="43.1662521" lon="12.2318475"><ele>288.0</ele><time>2026-03-29T13:06:50.457Z</time></trkpt><trkpt lat="43.1662191" lon="12.2317645"><ele>287.0</ele><time>2026-03-29T13:06:51.456Z</time></trkpt><trkpt lat="43.1661734" lon="12.2316205"><ele>286.0</ele><time>2026-03-29T13:06:53.457Z</time></trkpt><trkpt lat="43.1662435" lon="12.2315111"><ele>285.0</ele><time>2026-03-29T13:06:55.456Z</time></trkpt><trkpt lat="43.1662683" lon="12.2313609"><ele>284.0</ele><time>2026-03-29T13:06:57.455Z</time></trkpt><trkpt lat="43.1662272" lon="12.2312235"><ele>283.0</ele><time>2026-03-29T13:06:59.456Z</time></trkpt><trkpt lat="43.166179" lon="12.2311662"><ele>281.5</ele><time>2026-03-29T13:07:00.456Z</time></trkpt><trkpt lat="43.1661171" lon="12.2311249"><ele>280.0</ele><time>2026-03-29T13:07:01.457Z</time></trkpt><trkpt lat="43.1660472" lon="12.2311095"><ele>278.5</ele><time>2026-03-29T13:07:02.457Z</time></trkpt><trkpt lat="43.1659723" lon="12.2311194"><ele>277.0</ele><time>2026-03-29T13:07:03.456Z</time></trkpt><trkpt lat="43.1659083" lon="12.2311442"><ele>275.5</ele><time>2026-03-29T13:07:04.457Z</time></trkpt><trkpt lat="43.1657892" lon="12.2312315"><ele>274.0</ele><time>2026-03-29T13:07:06.456Z</time></trkpt><trkpt lat="43.1657444" lon="12.2313127"><ele>274.0</ele><time>2026-03-29T13:07:07.457Z</time></trkpt><trkpt lat="43.1657204" lon="12.2314062"><ele>274.0</ele><time>2026-03-29T13:07:08.456Z</time></trkpt><trkpt lat="43.1657132" lon="12.23151"><ele>274.0</ele><time>2026-03-29T13:07:09.457Z</time></trkpt><trkpt lat="43.1656958" lon="12.2316322"><ele>274.0</ele><time>2026-03-29T13:07:10.457Z</time></trkpt><trkpt lat="43.1656788" lon="12.2317467"><ele>274.0</ele><time>2026-03-29T13:07:11.457Z</time></trkpt><trkpt lat="43.1656551" lon="12.2318425"><ele>274.0</ele><time>2026-03-29T13:07:12.457Z</time></trkpt><trkpt lat="43.1656216" lon="12.2319538"><ele>274.4</ele><time>2026-03-29T13:07:13.457Z</time></trkpt><trkpt lat="43.1655505" lon="12.2320443"><ele>274.79999999999995</ele><time>2026-03-29T13:07:15.456Z</time></trkpt><trkpt lat="43.1654656" lon="12.2319938"><ele>275.20000000000005</ele><time>2026-03-29T13:07:17.456Z</time></trkpt><trkpt lat="43.1653723" lon="12.2319017"><ele>275.6</ele><time>2026-03-29T13:07:18.457Z</time></trkpt><trkpt lat="43.1653005" lon="12.2317325"><ele>276.0</ele><time>2026-03-29T13:07:19.457Z</time></trkpt><trkpt lat="43.165234" lon="12.2316117"><ele>274.0</ele><time>2026-03-29T13:07:20.457Z</time></trkpt><trkpt lat="43.1651745" lon="12.2314721"><ele>272.0</ele><time>2026-03-29T13:07:21.456Z</time></trkpt><trkpt lat="43.1651144" lon="12.2313481"><ele>270.0</ele><time>2026-03-29T13:07:22.457Z</time></trkpt><trkpt lat="43.1650439" lon="12.2312204"><ele>268.0</ele><time>2026-03-29T13:07:23.457Z</time></trkpt><trkpt lat="43.1649705" lon="12.2310967"><ele>268.0</ele><time>2026-03-29T13:07:24.456Z</time></trkpt><trkpt lat="43.1648918" lon="12.2309693"><ele>268.0</ele><time>2026-03-29T13:07:25.457Z</time></trkpt><trkpt lat="43.1648144" lon="12.2308392"><ele>268.0</ele><time>2026-03-29T13:07:26.456Z</time></trkpt><trkpt lat="43.164743" lon="12.2307005"><ele>268.0</ele><time>2026-03-29T13:07:27.456Z</time></trkpt><trkpt lat="43.1646837" lon="12.230551"><ele>268.5</ele><time>2026-03-29T13:07:28.457Z</time></trkpt><trkpt lat="43.1646426" lon="12.2303957"><ele>269.0</ele><time>2026-03-29T13:07:29.458Z</time></trkpt><trkpt lat="43.1646201" lon="12.2302309"><ele>269.5</ele><time>2026-03-29T13:07:30.458Z</time></trkpt><trkpt lat="43.1646128" lon="12.2300557"><ele>270.0</ele><time>2026-03-29T13:07:31.457Z</time></trkpt><trkpt lat="43.1646261" lon="12.2298894"><ele>269.5</ele><time>2026-03-29T13:07:32.457Z</time></trkpt><trkpt lat="43.1646539" lon="12.2297214"><ele>269.0</ele><time>2026-03-29T13:07:33.457Z</time></trkpt><trkpt lat="43.164695" lon="12.2295505"><ele>268.5</ele><time>2026-03-29T13:07:34.458Z</time></trkpt><trkpt lat="43.1647406" lon="12.2293833"><ele>268.0</ele><time>2026-03-29T13:07:35.458Z</time></trkpt><trkpt lat="43.1648003" lon="12.2292152"><ele>267.25</ele><time>2026-03-29T13:07:36.458Z</time></trkpt><trkpt lat="43.1648699" lon="12.2290484"><ele>266.5</ele><time>2026-03-29T13:07:37.458Z</time></trkpt><trkpt lat="43.1649378" lon="12.2288886"><ele>265.75</ele><time>2026-03-29T13:07:38.456Z</time></trkpt><trkpt lat="43.1650029" lon="12.2287329"><ele>265.0</ele><time>2026-03-29T13:07:39.458Z</time></trkpt><trkpt lat="43.1650712" lon="12.2285798"><ele>265.0</ele><time>2026-03-29T13:07:40.457Z</time></trkpt><trkpt lat="43.16514" lon="12.2284349"><ele>265.0</ele><time>2026-03-29T13:07:41.458Z</time></trkpt><trkpt lat="43.165216" lon="12.2283059"><ele>265.0</ele><time>2026-03-29T13:07:42.457Z</time></trkpt><trkpt lat="43.1652975" lon="12.228197"><ele>265.0</ele><time>2026-03-29T13:07:43.457Z</time></trkpt><trkpt lat="43.1653695" lon="12.2281036"><ele>264.5</ele><time>2026-03-29T13:07:44.458Z</time></trkpt><trkpt lat="43.1654271" lon="12.228013"><ele>264.0</ele><time>2026-03-29T13:07:45.458Z</time></trkpt><trkpt lat="43.1654831" lon="12.2279252"><ele>263.5</ele><time>2026-03-29T13:07:46.458Z</time></trkpt><trkpt lat="43.1655494" lon="12.2278641"><ele>263.0</ele><time>2026-03-29T13:07:47.458Z</time></trkpt><trkpt lat="43.1656293" lon="12.2278157"><ele>262.5</ele><time>2026-03-29T13:07:48.458Z</time></trkpt><trkpt lat="43.1657217" lon="12.2277737"><ele>262.0</ele><time>2026-03-29T13:07:49.457Z</time></trkpt><trkpt lat="43.1658117" lon="12.2277053"><ele>261.75</ele><time>2026-03-29T13:07:50.458Z</time></trkpt><trkpt lat="43.1659036" lon="12.2276117"><ele>261.5</ele><time>2026-03-29T13:07:51.457Z</time></trkpt><trkpt lat="43.1659955" lon="12.2275078"><ele>261.25</ele><time>2026-03-29T13:07:52.457Z</time></trkpt><trkpt lat="43.1660851" lon="12.2273977"><ele>261.0</ele><time>2026-03-29T13:07:53.459Z</time></trkpt><trkpt lat="43.1661826" lon="12.2272907"><ele>261.0</ele><time>2026-03-29T13:07:54.457Z</time></trkpt><trkpt lat="43.1662878" lon="12.2271905"><ele>261.0</ele><time>2026-03-29T13:07:55.457Z</time></trkpt><trkpt lat="43.1663961" lon="12.2270913"><ele>261.0</ele><time>2026-03-29T13:07:56.457Z</time></trkpt><trkpt lat="43.1665031" lon="12.2269817"><ele>261.0</ele><time>2026-03-29T13:07:57.458Z</time></trkpt><trkpt lat="43.1665999" lon="12.2268566"><ele>261.0</ele><time>2026-03-29T13:07:58.457Z</time></trkpt><trkpt lat="43.1666883" lon="12.2267136"><ele>261.0</ele><time>2026-03-29T13:07:59.457Z</time></trkpt><trkpt lat="43.1667638" lon="12.2265717"><ele>261.0</ele><time>2026-03-29T13:08:00.458Z</time></trkpt><trkpt lat="43.1668328" lon="12.2264422"><ele>261.0</ele><time>2026-03-29T13:08:01.458Z</time></trkpt><trkpt lat="43.1668859" lon="12.2263423"><ele>261.1666666666667</ele><time>2026-03-29T13:08:02.457Z</time></trkpt><trkpt lat="43.166929" lon="12.2262624"><ele>261.3333333333333</ele><time>2026-03-29T13:08:03.457Z</time></trkpt><trkpt lat="43.1669744" lon="12.2261655"><ele>261.5</ele><time>2026-03-29T13:08:05.458Z</time></trkpt><trkpt lat="43.1669534" lon="12.2260546"><ele>261.66666666666663</ele><time>2026-03-29T13:08:08.459Z</time></trkpt><trkpt lat="43.1668621" lon="12.2259554"><ele>261.8333333333333</ele><time>2026-03-29T13:08:10.458Z</time></trkpt><trkpt lat="43.1668006" lon="12.2258969"><ele>262.0</ele><time>2026-03-29T13:08:11.457Z</time></trkpt><trkpt lat="43.1667256" lon="12.2258234"><ele>262.0</ele><time>2026-03-29T13:08:12.458Z</time></trkpt><trkpt lat="43.1666459" lon="12.2257474"><ele>262.0</ele><time>2026-03-29T13:08:13.457Z</time></trkpt><trkpt lat="43.1665579" lon="12.2256641"><ele>262.0</ele><time>2026-03-29T13:08:14.457Z</time></trkpt><trkpt lat="43.1664679" lon="12.225574"><ele>262.0</ele><time>2026-03-29T13:08:15.458Z</time></trkpt><trkpt lat="43.1663707" lon="12.2254784"><ele>262.0</ele><time>2026-03-29T13:08:16.457Z</time></trkpt><trkpt lat="43.1662677" lon="12.2253794"><ele>261.25</ele><time>2026-03-29T13:08:17.457Z</time></trkpt><trkpt lat="43.1661593" lon="12.2252786"><ele>260.5</ele><time>2026-03-29T13:08:18.458Z</time></trkpt><trkpt lat="43.1660477" lon="12.2251695"><ele>259.75</ele><time>2026-03-29T13:08:19.458Z</time></trkpt><trkpt lat="43.1659283" lon="12.2250557"><ele>259.0</ele><time>2026-03-29T13:08:20.457Z</time></trkpt><trkpt lat="43.1658054" lon="12.2249323"><ele>258.66666666666663</ele><time>2026-03-29T13:08:21.458Z</time></trkpt><trkpt lat="43.165679" lon="12.2248019"><ele>258.3333333333333</ele><time>2026-03-29T13:08:22.457Z</time></trkpt><trkpt lat="43.1655521" lon="12.2246641"><ele>258.0</ele><time>2026-03-29T13:08:23.457Z</time></trkpt><trkpt lat="43.1654268" lon="12.2245154"><ele>258.0</ele><time>2026-03-29T13:08:24.458Z</time></trkpt><trkpt lat="43.1653061" lon="12.2243644"><ele>258.0</ele><time>2026-03-29T13:08:25.458Z</time></trkpt><trkpt lat="43.1651868" lon="12.2242101"><ele>258.0</ele><time>2026-03-29T13:08:26.457Z</time></trkpt><trkpt lat="43.1650667" lon="12.2240571"><ele>257.6666666666667</ele><time>2026-03-29T13:08:27.457Z</time></trkpt><trkpt lat="43.1649453" lon="12.2239006"><ele>257.33333333333337</ele><time>2026-03-29T13:08:28.458Z</time></trkpt><trkpt lat="43.1648248" lon="12.2237398"><ele>257.0</ele><time>2026-03-29T13:08:29.458Z</time></trkpt><trkpt lat="43.1647002" lon="12.2235764"><ele>256.33333333333337</ele><time>2026-03-29T13:08:30.457Z</time></trkpt><trkpt lat="43.1645727" lon="12.223411"><ele>255.66666666666669</ele><time>2026-03-29T13:08:31.457Z</time></trkpt><trkpt lat="43.1644472" lon="12.2232423"><ele>255.0</ele><time>2026-03-29T13:08:32.457Z</time></trkpt><trkpt lat="43.1643156" lon="12.2230743"><ele>255.0</ele><time>2026-03-29T13:08:33.458Z</time></trkpt><trkpt lat="43.1641886" lon="12.2228975"><ele>255.0</ele><time>2026-03-29T13:08:34.457Z</time></trkpt><trkpt lat="43.1640656" lon="12.2227245"><ele>255.0</ele><time>2026-03-29T13:08:35.458Z</time></trkpt><trkpt lat="43.1639484" lon="12.2225653"><ele>255.0</ele><time>2026-03-29T13:08:36.458Z</time></trkpt><trkpt lat="43.1638395" lon="12.2224177"><ele>255.0</ele><time>2026-03-29T13:08:37.458Z</time></trkpt><trkpt lat="43.1637382" lon="12.2222766"><ele>255.0</ele><time>2026-03-29T13:08:38.458Z</time></trkpt><trkpt lat="43.1636432" lon="12.2221441"><ele>255.0</ele><time>2026-03-29T13:08:39.458Z</time></trkpt><trkpt lat="43.1635674" lon="12.2220308"><ele>255.0</ele><time>2026-03-29T13:08:40.457Z</time></trkpt><trkpt lat="43.1635071" lon="12.2219387"><ele>255.0</ele><time>2026-03-29T13:08:41.457Z</time></trkpt><trkpt lat="43.1634659" lon="12.2218713"><ele>255.0</ele><time>2026-03-29T13:08:42.457Z</time></trkpt><trkpt lat="43.1634245" lon="12.2217995"><ele>255.0</ele><time>2026-03-29T13:08:44.457Z</time></trkpt><trkpt lat="43.1634348" lon="12.2219196"><ele>255.0</ele><time>2026-03-29T13:08:50.458Z</time></trkpt><trkpt lat="43.1635211" lon="12.2219821"><ele>255.0</ele><time>2026-03-29T13:08:52.457Z</time></trkpt><trkpt lat="43.1636295" lon="12.2219801"><ele>255.0</ele><time>2026-03-29T13:08:54.458Z</time></trkpt><trkpt lat="43.1636899" lon="12.2219415"><ele>255.0</ele><time>2026-03-29T13:08:55.457Z</time></trkpt><trkpt lat="43.1637628" lon="12.2218866"><ele>255.0</ele><time>2026-03-29T13:08:56.457Z</time></trkpt><trkpt lat="43.163844" lon="12.2218257"><ele>255.0</ele><time>2026-03-29T13:08:57.458Z</time></trkpt><trkpt lat="43.1639279" lon="12.2217554"><ele>255.0</ele><time>2026-03-29T13:08:58.458Z</time></trkpt><trkpt lat="43.1640261" lon="12.2216746"><ele>255.4</ele><time>2026-03-29T13:08:59.458Z</time></trkpt><trkpt lat="43.1641286" lon="12.2215885"><ele>255.8</ele><time>2026-03-29T13:09:00.457Z</time></trkpt><trkpt lat="43.164229" lon="12.2215034"><ele>256.2</ele><time>2026-03-29T13:09:01.458Z</time></trkpt><trkpt lat="43.1643192" lon="12.2214241"><ele>256.6</ele><time>2026-03-29T13:09:02.458Z</time></trkpt><trkpt lat="43.1643981" lon="12.2213639"><ele>257.0</ele><time>2026-03-29T13:09:03.457Z</time></trkpt><trkpt lat="43.1644784" lon="12.2213046"><ele>257.0</ele><time>2026-03-29T13:09:04.457Z</time></trkpt><trkpt lat="43.1645713" lon="12.2212342"><ele>257.0</ele><time>2026-03-29T13:09:05.457Z</time></trkpt><trkpt lat="43.1646634" lon="12.2211562"><ele>257.0</ele><time>2026-03-29T13:09:06.457Z</time></trkpt><trkpt lat="43.164764" lon="12.2210751"><ele>257.0</ele><time>2026-03-29T13:09:07.457Z</time></trkpt><trkpt lat="43.1648638" lon="12.220994"><ele>257.0</ele><time>2026-03-29T13:09:08.458Z</time></trkpt><trkpt lat="43.1649706" lon="12.2209181"><ele>257.25</ele><time>2026-03-29T13:09:09.457Z</time></trkpt><trkpt lat="43.1650856" lon="12.2208518"><ele>257.5</ele><time>2026-03-29T13:09:10.458Z</time></trkpt><trkpt lat="43.1652036" lon="12.2207796"><ele>257.75</ele><time>2026-03-29T13:09:11.457Z</time></trkpt><trkpt lat="43.1653271" lon="12.2207118"><ele>258.0</ele><time>2026-03-29T13:09:12.458Z</time></trkpt><trkpt lat="43.1654424" lon="12.2206488"><ele>258.25</ele><time>2026-03-29T13:09:13.458Z</time></trkpt><trkpt lat="43.165561" lon="12.2205898"><ele>258.5</ele><time>2026-03-29T13:09:14.457Z</time></trkpt><trkpt lat="43.1656808" lon="12.2205268"><ele>258.75</ele><time>2026-03-29T13:09:15.457Z</time></trkpt><trkpt lat="43.1658018" lon="12.2204591"><ele>259.0</ele><time>2026-03-29T13:09:16.458Z</time></trkpt><trkpt lat="43.1659376" lon="12.2203881"><ele>259.0</ele><time>2026-03-29T13:09:17.457Z</time></trkpt><trkpt lat="43.1660813" lon="12.2203078"><ele>259.0</ele><time>2026-03-29T13:09:18.458Z</time></trkpt><trkpt lat="43.1662302" lon="12.2202244"><ele>259.0</ele><time>2026-03-29T13:09:19.458Z</time></trkpt><trkpt lat="43.1663916" lon="12.2201372"><ele>259.3333333333333</ele><time>2026-03-29T13:09:20.457Z</time></trkpt><trkpt lat="43.1665607" lon="12.220045"><ele>259.6666666666667</ele><time>2026-03-29T13:09:21.457Z</time></trkpt><trkpt lat="43.1667525" lon="12.2199399"><ele>260.0</ele><time>2026-03-29T13:09:22.457Z</time></trkpt><trkpt lat="43.1669639" lon="12.2198225"><ele>260.0</ele><time>2026-03-29T13:09:23.458Z</time></trkpt><trkpt lat="43.1671935" lon="12.2196971"><ele>260.0</ele><time>2026-03-29T13:09:24.458Z</time></trkpt><trkpt lat="43.1674209" lon="12.2195744"><ele>260.5</ele><time>2026-03-29T13:09:25.458Z</time></trkpt><trkpt lat="43.1676343" lon="12.2194602"><ele>261.0</ele><time>2026-03-29T13:09:26.457Z</time></trkpt><trkpt lat="43.1678577" lon="12.2193379"><ele>261.0</ele><time>2026-03-29T13:09:27.458Z</time></trkpt><trkpt lat="43.1680954" lon="12.21921"><ele>261.0</ele><time>2026-03-29T13:09:28.457Z</time></trkpt><trkpt lat="43.1683364" lon="12.2190827"><ele>262.0</ele><time>2026-03-29T13:09:29.458Z</time></trkpt><trkpt lat="43.1685695" lon="12.218947"><ele>263.0</ele><time>2026-03-29T13:09:30.457Z</time></trkpt><trkpt lat="43.1687898" lon="12.2188273"><ele>263.0</ele><time>2026-03-29T13:09:31.458Z</time></trkpt><trkpt lat="43.1689758" lon="12.2187236"><ele>263.0</ele><time>2026-03-29T13:09:32.457Z</time></trkpt><trkpt lat="43.1691531" lon="12.2186311"><ele>263.0</ele><time>2026-03-29T13:09:33.457Z</time></trkpt><trkpt lat="43.1693075" lon="12.2185457"><ele>264.0</ele><time>2026-03-29T13:09:34.457Z</time></trkpt><trkpt lat="43.1694458" lon="12.2184657"><ele>265.0</ele><time>2026-03-29T13:09:35.458Z</time></trkpt><trkpt lat="43.169566" lon="12.2183986"><ele>266.0</ele><time>2026-03-29T13:09:36.458Z</time></trkpt><trkpt lat="43.169662" lon="12.2183437"><ele>267.0</ele><time>2026-03-29T13:09:37.458Z</time></trkpt><trkpt lat="43.1697353" lon="12.2182995"><ele>267.0</ele><time>2026-03-29T13:09:38.457Z</time></trkpt><trkpt lat="43.1698292" lon="12.2182392"><ele>267.0</ele><time>2026-03-29T13:09:40.458Z</time></trkpt><trkpt lat="43.1699253" lon="12.2182108"><ele>267.0</ele><time>2026-03-29T13:09:47.458Z</time></trkpt><trkpt lat="43.1699988" lon="12.2182124"><ele>267.0</ele><time>2026-03-29T13:09:49.458Z</time></trkpt><trkpt lat="43.1700974" lon="12.2181713"><ele>267.0</ele><time>2026-03-29T13:09:51.457Z</time></trkpt><trkpt lat="43.1701746" lon="12.2181527"><ele>267.4</ele><time>2026-03-29T13:09:52.457Z</time></trkpt><trkpt lat="43.1702586" lon="12.2181177"><ele>267.79999999999995</ele><time>2026-03-29T13:09:53.458Z</time></trkpt><trkpt lat="43.1703598" lon="12.218078"><ele>268.2</ele><time>2026-03-29T13:09:54.457Z</time></trkpt><trkpt lat="43.1704795" lon="12.2180296"><ele>268.59999999999997</ele><time>2026-03-29T13:09:55.458Z</time></trkpt><trkpt lat="43.1705977" lon="12.2179831"><ele>269.0</ele><time>2026-03-29T13:09:56.458Z</time></trkpt><trkpt lat="43.1707196" lon="12.2179352"><ele>270.2</ele><time>2026-03-29T13:09:57.457Z</time></trkpt><trkpt lat="43.1708239" lon="12.2178841"><ele>271.4</ele><time>2026-03-29T13:09:58.457Z</time></trkpt><trkpt lat="43.1709279" lon="12.2178427"><ele>272.6</ele><time>2026-03-29T13:09:59.458Z</time></trkpt><trkpt lat="43.1710383" lon="12.2178204"><ele>273.8</ele><time>2026-03-29T13:10:00.457Z</time></trkpt><trkpt lat="43.1711495" lon="12.2177781"><ele>275.0</ele><time>2026-03-29T13:10:01.457Z</time></trkpt><trkpt lat="43.1712708" lon="12.2177313"><ele>275.0</ele><time>2026-03-29T13:10:02.456Z</time></trkpt><trkpt lat="43.1713893" lon="12.2176869"><ele>275.0</ele><time>2026-03-29T13:10:03.458Z</time></trkpt><trkpt lat="43.1715109" lon="12.2176362"><ele>275.0</ele><time>2026-03-29T13:10:04.457Z</time></trkpt><trkpt lat="43.1716236" lon="12.2175843"><ele>275.0</ele><time>2026-03-29T13:10:05.458Z</time></trkpt><trkpt lat="43.1717316" lon="12.2175513"><ele>276.2</ele><time>2026-03-29T13:10:06.458Z</time></trkpt><trkpt lat="43.1718343" lon="12.2175659"><ele>277.4</ele><time>2026-03-29T13:10:07.457Z</time></trkpt><trkpt lat="43.1719136" lon="12.2176246"><ele>278.6</ele><time>2026-03-29T13:10:08.457Z</time></trkpt><trkpt lat="43.1719972" lon="12.21768"><ele>279.8</ele><time>2026-03-29T13:10:09.457Z</time></trkpt><trkpt lat="43.172096" lon="12.2177304"><ele>281.0</ele><time>2026-03-29T13:10:10.458Z</time></trkpt><trkpt lat="43.1722005" lon="12.2177819"><ele>281.0</ele><time>2026-03-29T13:10:11.458Z</time></trkpt><trkpt lat="43.1723025" lon="12.2178213"><ele>281.0</ele><time>2026-03-29T13:10:12.458Z</time></trkpt><trkpt lat="43.1723998" lon="12.2178645"><ele>281.0</ele><time>2026-03-29T13:10:13.457Z</time></trkpt><trkpt lat="43.1724881" lon="12.2178921"><ele>281.0</ele><time>2026-03-29T13:10:14.458Z</time></trkpt><trkpt lat="43.1725723" lon="12.2179211"><ele>281.0</ele><time>2026-03-29T13:10:15.458Z</time></trkpt><trkpt lat="43.1726483" lon="12.2179539"><ele>282.0</ele><time>2026-03-29T13:10:16.458Z</time></trkpt><trkpt lat="43.1727364" lon="12.2179945"><ele>283.0</ele><time>2026-03-29T13:10:17.458Z</time></trkpt><trkpt lat="43.172812" lon="12.2180371"><ele>284.0</ele><time>2026-03-29T13:10:18.458Z</time></trkpt><trkpt lat="43.1728829" lon="12.218053"><ele>285.0</ele><time>2026-03-29T13:10:19.458Z</time></trkpt><trkpt lat="43.1729558" lon="12.2180894"><ele>286.0</ele><time>2026-03-29T13:10:20.458Z</time></trkpt><trkpt lat="43.1730225" lon="12.2181159"><ele>287.0</ele><time>2026-03-29T13:10:21.458Z</time></trkpt><trkpt lat="43.173097" lon="12.218171"><ele>287.8</ele><time>2026-03-29T13:10:22.458Z</time></trkpt><trkpt lat="43.1731557" lon="12.2182056"><ele>288.6</ele><time>2026-03-29T13:10:23.457Z</time></trkpt><trkpt lat="43.1732611" lon="12.218228"><ele>289.40000000000003</ele><time>2026-03-29T13:10:25.457Z</time></trkpt><trkpt lat="43.1733363" lon="12.2181861"><ele>290.2</ele><time>2026-03-29T13:10:27.457Z</time></trkpt><trkpt lat="43.1733742" lon="12.2180066"><ele>291.0</ele><time>2026-03-29T13:10:29.458Z</time></trkpt><trkpt lat="43.1733934" lon="12.2178829"><ele>291.25</ele><time>2026-03-29T13:10:30.458Z</time></trkpt><trkpt lat="43.1734089" lon="12.2177386"><ele>291.5</ele><time>2026-03-29T13:10:31.458Z</time></trkpt><trkpt lat="43.1734315" lon="12.2175732"><ele>291.75</ele><time>2026-03-29T13:10:32.458Z</time></trkpt><trkpt lat="43.1734595" lon="12.2173895"><ele>292.0</ele><time>2026-03-29T13:10:33.457Z</time></trkpt><trkpt lat="43.1734878" lon="12.2171934"><ele>290.3333333333333</ele><time>2026-03-29T13:10:34.457Z</time></trkpt><trkpt lat="43.1735196" lon="12.2169737"><ele>288.6666666666667</ele><time>2026-03-29T13:10:35.457Z</time></trkpt><trkpt lat="43.1735508" lon="12.2167702"><ele>287.0</ele><time>2026-03-29T13:10:36.458Z</time></trkpt><trkpt lat="43.1735849" lon="12.2165789"><ele>286.33333333333337</ele><time>2026-03-29T13:10:37.457Z</time></trkpt><trkpt lat="43.1736092" lon="12.21637"><ele>285.6666666666667</ele><time>2026-03-29T13:10:38.458Z</time></trkpt><trkpt lat="43.1736446" lon="12.2161473"><ele>285.0</ele><time>2026-03-29T13:10:39.458Z</time></trkpt><trkpt lat="43.1736746" lon="12.2159342"><ele>285.0</ele><time>2026-03-29T13:10:40.456Z</time></trkpt><trkpt lat="43.1737089" lon="12.2157341"><ele>285.0</ele><time>2026-03-29T13:10:41.457Z</time></trkpt><trkpt lat="43.1737365" lon="12.215565"><ele>285.0</ele><time>2026-03-29T13:10:42.457Z</time></trkpt><trkpt lat="43.1737505" lon="12.2154223"><ele>285.0</ele><time>2026-03-29T13:10:43.456Z</time></trkpt><trkpt lat="43.1737573" lon="12.215309"><ele>284.8</ele><time>2026-03-29T13:10:44.458Z</time></trkpt><trkpt lat="43.1737708" lon="12.215209"><ele>284.6</ele><time>2026-03-29T13:10:45.457Z</time></trkpt><trkpt lat="43.1738007" lon="12.2150562"><ele>284.4</ele><time>2026-03-29T13:10:47.457Z</time></trkpt><trkpt lat="43.1737875" lon="12.2149582"><ele>284.2</ele><time>2026-03-29T13:10:49.457Z</time></trkpt><trkpt lat="43.1737046" lon="12.2148931"><ele>284.0</ele><time>2026-03-29T13:10:51.458Z</time></trkpt><trkpt lat="43.1736036" lon="12.2148823"><ele>284.0</ele><time>2026-03-29T13:10:52.457Z</time></trkpt><trkpt lat="43.1735075" lon="12.2148704"><ele>284.0</ele><time>2026-03-29T13:10:53.458Z</time></trkpt><trkpt lat="43.1734009" lon="12.2148418"><ele>284.0</ele><time>2026-03-29T13:10:54.457Z</time></trkpt><trkpt lat="43.1732899" lon="12.2148025"><ele>284.0</ele><time>2026-03-29T13:10:55.457Z</time></trkpt><trkpt lat="43.1731784" lon="12.214756"><ele>284.0</ele><time>2026-03-29T13:10:56.457Z</time></trkpt><trkpt lat="43.1730689" lon="12.2147049"><ele>283.0</ele><time>2026-03-29T13:10:57.458Z</time></trkpt><trkpt lat="43.1729654" lon="12.2146319"><ele>282.0</ele><time>2026-03-29T13:10:58.458Z</time></trkpt><trkpt lat="43.1728647" lon="12.2145474"><ele>281.0</ele><time>2026-03-29T13:10:59.457Z</time></trkpt><trkpt lat="43.1727751" lon="12.2144541"><ele>280.0</ele><time>2026-03-29T13:11:00.456Z</time></trkpt><trkpt lat="43.1726983" lon="12.2143442"><ele>280.0</ele><time>2026-03-29T13:11:01.458Z</time></trkpt><trkpt lat="43.1726443" lon="12.2142164"><ele>280.0</ele><time>2026-03-29T13:11:02.458Z</time></trkpt><trkpt lat="43.1726141" lon="12.2140767"><ele>280.0</ele><time>2026-03-29T13:11:03.458Z</time></trkpt><trkpt lat="43.1726069" lon="12.2139261"><ele>280.0</ele><time>2026-03-29T13:11:04.458Z</time></trkpt><trkpt lat="43.1726246" lon="12.2137803"><ele>280.0</ele><time>2026-03-29T13:11:05.458Z</time></trkpt><trkpt lat="43.1726648" lon="12.21364"><ele>279.5</ele><time>2026-03-29T13:11:06.458Z</time></trkpt><trkpt lat="43.1727282" lon="12.2135225"><ele>279.0</ele><time>2026-03-29T13:11:07.458Z</time></trkpt><trkpt lat="43.1728035" lon="12.2134004"><ele>278.5</ele><time>2026-03-29T13:11:08.457Z</time></trkpt><trkpt lat="43.172886" lon="12.2132728"><ele>278.0</ele><time>2026-03-29T13:11:09.457Z</time></trkpt><trkpt lat="43.1729722" lon="12.2131346"><ele>278.0</ele><time>2026-03-29T13:11:10.458Z</time></trkpt><trkpt lat="43.1730549" lon="12.2129853"><ele>278.0</ele><time>2026-03-29T13:11:11.457Z</time></trkpt><trkpt lat="43.1731318" lon="12.2128211"><ele>278.0</ele><time>2026-03-29T13:11:12.457Z</time></trkpt><trkpt lat="43.1732062" lon="12.2126452"><ele>278.0</ele><time>2026-03-29T13:11:13.458Z</time></trkpt><trkpt lat="43.1732761" lon="12.2124627"><ele>278.0</ele><time>2026-03-29T13:11:14.457Z</time></trkpt><trkpt lat="43.1733459" lon="12.2122797"><ele>278.0</ele><time>2026-03-29T13:11:15.457Z</time></trkpt><trkpt lat="43.1734121" lon="12.212107"><ele>278.0</ele><time>2026-03-29T13:11:16.458Z</time></trkpt><trkpt lat="43.1734668" lon="12.2119395"><ele>278.0</ele><time>2026-03-29T13:11:17.457Z</time></trkpt><trkpt lat="43.173503" lon="12.2117774"><ele>278.0</ele><time>2026-03-29T13:11:18.457Z</time></trkpt><trkpt lat="43.1735272" lon="12.2116248"><ele>278.0</ele><time>2026-03-29T13:11:19.458Z</time></trkpt><trkpt lat="43.173548" lon="12.2114784"><ele>278.0</ele><time>2026-03-29T13:11:20.457Z</time></trkpt><trkpt lat="43.1735865" lon="12.2113392"><ele>278.0</ele><time>2026-03-29T13:11:21.458Z</time></trkpt><trkpt lat="43.1736468" lon="12.2112145"><ele>278.0</ele><time>2026-03-29T13:11:22.458Z</time></trkpt><trkpt lat="43.173724" lon="12.2111064"><ele>277.75</ele><time>2026-03-29T13:11:23.458Z</time></trkpt><trkpt lat="43.1738158" lon="12.2110203"><ele>277.5</ele><time>2026-03-29T13:11:24.456Z</time></trkpt><trkpt lat="43.1739213" lon="12.2109551"><ele>277.25</ele><time>2026-03-29T13:11:25.457Z</time></trkpt><trkpt lat="43.1740328" lon="12.2108995"><ele>277.0</ele><time>2026-03-29T13:11:26.456Z</time></trkpt><trkpt lat="43.1741388" lon="12.210838"><ele>277.75</ele><time>2026-03-29T13:11:27.458Z</time></trkpt><trkpt lat="43.1742385" lon="12.2107426"><ele>278.5</ele><time>2026-03-29T13:11:28.458Z</time></trkpt><trkpt lat="43.1743365" lon="12.2106276"><ele>279.25</ele><time>2026-03-29T13:11:29.458Z</time></trkpt><trkpt lat="43.1744336" lon="12.210507"><ele>280.0</ele><time>2026-03-29T13:11:30.458Z</time></trkpt><trkpt lat="43.1745319" lon="12.210401"><ele>280.0</ele><time>2026-03-29T13:11:31.458Z</time></trkpt><trkpt lat="43.1746369" lon="12.2103225"><ele>280.0</ele><time>2026-03-29T13:11:32.458Z</time></trkpt><trkpt lat="43.1747465" lon="12.2102641"><ele>280.0</ele><time>2026-03-29T13:11:33.458Z</time></trkpt><trkpt lat="43.1748487" lon="12.2102218"><ele>280.0</ele><time>2026-03-29T13:11:34.458Z</time></trkpt><trkpt lat="43.1749401" lon="12.2101826"><ele>280.0</ele><time>2026-03-29T13:11:35.458Z</time></trkpt><trkpt lat="43.175019" lon="12.210131"><ele>280.66666666666663</ele><time>2026-03-29T13:11:36.457Z</time></trkpt><trkpt lat="43.1750738" lon="12.2100823"><ele>281.3333333333333</ele><time>2026-03-29T13:11:37.458Z</time></trkpt><trkpt lat="43.1751285" lon="12.2100263"><ele>282.0</ele><time>2026-03-29T13:11:38.458Z</time></trkpt><trkpt lat="43.1751691" lon="12.2099258"><ele>282.6666666666667</ele><time>2026-03-29T13:11:40.457Z</time></trkpt><trkpt lat="43.1751806" lon="12.2097679"><ele>283.33333333333337</ele><time>2026-03-29T13:11:42.457Z</time></trkpt><trkpt lat="43.1751641" lon="12.209651"><ele>284.0</ele><time>2026-03-29T13:11:43.458Z</time></trkpt><trkpt lat="43.1751454" lon="12.2095088"><ele>284.0</ele><time>2026-03-29T13:11:44.458Z</time></trkpt><trkpt lat="43.17512" lon="12.2093592"><ele>284.0</ele><time>2026-03-29T13:11:45.458Z</time></trkpt><trkpt lat="43.1750967" lon="12.2092016"><ele>284.0</ele><time>2026-03-29T13:11:46.457Z</time></trkpt><trkpt lat="43.1750728" lon="12.2090603"><ele>284.0</ele><time>2026-03-29T13:11:47.457Z</time></trkpt><trkpt lat="43.1750564" lon="12.2089167"><ele>284.0</ele><time>2026-03-29T13:11:48.457Z</time></trkpt><trkpt lat="43.1750673" lon="12.2087875"><ele>285.59999999999997</ele><time>2026-03-29T13:11:49.457Z</time></trkpt><trkpt lat="43.175082" lon="12.208655"><ele>287.2</ele><time>2026-03-29T13:11:50.457Z</time></trkpt><trkpt lat="43.1751689" lon="12.2084743"><ele>288.79999999999995</ele><time>2026-03-29T13:11:52.457Z</time></trkpt><trkpt lat="43.1752153" lon="12.2083889"><ele>290.4</ele><time>2026-03-29T13:11:53.457Z</time></trkpt><trkpt lat="43.1752785" lon="12.2083105"><ele>292.0</ele><time>2026-03-29T13:11:54.457Z</time></trkpt><trkpt lat="43.1753196" lon="12.208222"><ele>294.4</ele><time>2026-03-29T13:11:55.458Z</time></trkpt><trkpt lat="43.1753903" lon="12.2081282"><ele>296.79999999999995</ele><time>2026-03-29T13:11:56.457Z</time></trkpt><trkpt lat="43.1754504" lon="12.2080496"><ele>299.2</ele><time>2026-03-29T13:11:57.457Z</time></trkpt><trkpt lat="43.175541" lon="12.207953"><ele>301.59999999999997</ele><time>2026-03-29T13:11:58.457Z</time></trkpt><trkpt lat="43.1755953" lon="12.2078668"><ele>304.0</ele><time>2026-03-29T13:11:59.457Z</time></trkpt><trkpt lat="43.1756586" lon="12.2077296"><ele>304.0</ele><time>2026-03-29T13:12:01.458Z</time></trkpt><trkpt lat="43.1756124" lon="12.2076285"><ele>304.0</ele><time>2026-03-29T13:12:03.458Z</time></trkpt><trkpt lat="43.1755067" lon="12.2076209"><ele>304.0</ele><time>2026-03-29T13:12:04.459Z</time></trkpt><trkpt lat="43.1754587" lon="12.2075123"><ele>304.0</ele><time>2026-03-29T13:12:06.459Z</time></trkpt><trkpt lat="43.1755464" lon="12.2073715"><ele>304.0</ele><time>2026-03-29T13:12:08.458Z</time></trkpt><trkpt lat="43.1755876" lon="12.2072913"><ele>306.8</ele><time>2026-03-29T13:12:09.457Z</time></trkpt><trkpt lat="43.1756142" lon="12.2071955"><ele>309.59999999999997</ele><time>2026-03-29T13:12:10.458Z</time></trkpt><trkpt lat="43.1756289" lon="12.2070102"><ele>312.4</ele><time>2026-03-29T13:12:12.458Z</time></trkpt><trkpt lat="43.1756339" lon="12.2069135"><ele>315.2</ele><time>2026-03-29T13:12:13.458Z</time></trkpt><trkpt lat="43.1756243" lon="12.2068033"><ele>318.0</ele><time>2026-03-29T13:12:14.458Z</time></trkpt><trkpt lat="43.1756156" lon="12.2066685"><ele>318.0</ele><time>2026-03-29T13:12:15.458Z</time></trkpt><trkpt lat="43.1756166" lon="12.2065658"><ele>318.0</ele><time>2026-03-29T13:12:16.458Z</time></trkpt><trkpt lat="43.1756052" lon="12.2064713"><ele>318.0</ele><time>2026-03-29T13:12:17.458Z</time></trkpt><trkpt lat="43.1755763" lon="12.2063604"><ele>318.0</ele><time>2026-03-29T13:12:18.458Z</time></trkpt><trkpt lat="43.1754883" lon="12.2062429"><ele>318.0</ele><time>2026-03-29T13:12:20.457Z</time></trkpt><trkpt lat="43.175409" lon="12.2061366"><ele>319.4</ele><time>2026-03-29T13:12:22.458Z</time></trkpt><trkpt lat="43.1753408" lon="12.2060119"><ele>320.8</ele><time>2026-03-29T13:12:24.457Z</time></trkpt><trkpt lat="43.1753" lon="12.2059051"><ele>322.2</ele><time>2026-03-29T13:12:25.458Z</time></trkpt><trkpt lat="43.1752188" lon="12.2058073"><ele>323.6</ele><time>2026-03-29T13:12:27.457Z</time></trkpt><trkpt lat="43.1751426" lon="12.2056974"><ele>325.0</ele><time>2026-03-29T13:12:29.458Z</time></trkpt><trkpt lat="43.1751096" lon="12.2056226"><ele>325.0</ele><time>2026-03-29T13:12:30.457Z</time></trkpt><trkpt lat="43.1750847" lon="12.2057127"><ele>325.0</ele><time>2026-03-29T13:12:36.457Z</time></trkpt><trkpt lat="43.1751015" lon="12.2058023"><ele>325.0</ele><time>2026-03-29T13:12:38.457Z</time></trkpt><trkpt lat="43.1751042" lon="12.2059193"><ele>325.0</ele><time>2026-03-29T13:12:41.457Z</time></trkpt><trkpt lat="43.1751562" lon="12.2060016"><ele>325.0</ele><time>2026-03-29T13:12:43.458Z</time></trkpt><trkpt lat="43.175214" lon="12.2061139"><ele>325.0</ele><time>2026-03-29T13:12:45.458Z</time></trkpt><trkpt lat="43.175264" lon="12.2062549"><ele>325.0</ele><time>2026-03-29T13:12:47.457Z</time></trkpt><trkpt lat="43.1752767" lon="12.2064072"><ele>325.0</ele><time>2026-03-29T13:12:49.457Z</time></trkpt><trkpt lat="43.1752654" lon="12.2065029"><ele>325.0</ele><time>2026-03-29T13:12:50.458Z</time></trkpt><trkpt lat="43.1752446" lon="12.2065854"><ele>325.0</ele><time>2026-03-29T13:12:51.458Z</time></trkpt><trkpt lat="43.1751766" lon="12.2067094"><ele>325.0</ele><time>2026-03-29T13:12:53.457Z</time></trkpt><trkpt lat="43.1751211" lon="12.2067622"><ele>325.0</ele><time>2026-03-29T13:12:54.457Z</time></trkpt><trkpt lat="43.1750637" lon="12.2068049"><ele>323.6</ele><time>2026-03-29T13:12:55.457Z</time></trkpt><trkpt lat="43.1749996" lon="12.2068482"><ele>322.2</ele><time>2026-03-29T13:12:56.457Z</time></trkpt><trkpt lat="43.1748788" lon="12.2068877"><ele>320.8</ele><time>2026-03-29T13:12:58.458Z</time></trkpt><trkpt lat="43.1747761" lon="12.2069407"><ele>319.4</ele><time>2026-03-29T13:13:00.457Z</time></trkpt><trkpt lat="43.1746745" lon="12.2070188"><ele>318.0</ele><time>2026-03-29T13:13:02.457Z</time></trkpt><trkpt lat="43.1746036" lon="12.2070924"><ele>317.8333333333333</ele><time>2026-03-29T13:13:03.458Z</time></trkpt><trkpt lat="43.1745367" lon="12.2071491"><ele>317.6666666666667</ele><time>2026-03-29T13:13:04.458Z</time></trkpt><trkpt lat="43.174469" lon="12.2072114"><ele>317.5</ele><time>2026-03-29T13:13:05.457Z</time></trkpt><trkpt lat="43.1743864" lon="12.2072811"><ele>317.33333333333337</ele><time>2026-03-29T13:13:06.457Z</time></trkpt><trkpt lat="43.1743181" lon="12.2073569"><ele>317.1666666666667</ele><time>2026-03-29T13:13:07.458Z</time></trkpt><trkpt lat="43.1742468" lon="12.2074357"><ele>317.0</ele><time>2026-03-29T13:13:08.458Z</time></trkpt><trkpt lat="43.1741793" lon="12.2075184"><ele>317.0</ele><time>2026-03-29T13:13:09.458Z</time></trkpt><trkpt lat="43.1741102" lon="12.2076072"><ele>317.0</ele><time>2026-03-29T13:13:10.458Z</time></trkpt><trkpt lat="43.1740317" lon="12.2076928"><ele>317.0</ele><time>2026-03-29T13:13:11.458Z</time></trkpt><trkpt lat="43.1739474" lon="12.2077642"><ele>317.0</ele><time>2026-03-29T13:13:12.458Z</time></trkpt><trkpt lat="43.1738577" lon="12.207828"><ele>317.0</ele><time>2026-03-29T13:13:13.458Z</time></trkpt><trkpt lat="43.1737879" lon="12.2079133"><ele>320.75</ele><time>2026-03-29T13:13:14.457Z</time></trkpt><trkpt lat="43.1736974" lon="12.2079687"><ele>324.5</ele><time>2026-03-29T13:13:15.458Z</time></trkpt><trkpt lat="43.1735885" lon="12.2080279"><ele>328.25</ele><time>2026-03-29T13:13:16.458Z</time></trkpt><trkpt lat="43.1734772" lon="12.2080839"><ele>332.0</ele><time>2026-03-29T13:13:17.458Z</time></trkpt><trkpt lat="43.1733671" lon="12.2081384"><ele>328.25</ele><time>2026-03-29T13:13:18.457Z</time></trkpt><trkpt lat="43.1732619" lon="12.2081809"><ele>324.5</ele><time>2026-03-29T13:13:19.457Z</time></trkpt><trkpt lat="43.1731511" lon="12.2082382"><ele>320.75</ele><time>2026-03-29T13:13:20.457Z</time></trkpt><trkpt lat="43.1730366" lon="12.2083"><ele>317.0</ele><time>2026-03-29T13:13:21.457Z</time></trkpt><trkpt lat="43.1729339" lon="12.2083565"><ele>317.0</ele><time>2026-03-29T13:13:22.458Z</time></trkpt><trkpt lat="43.1728385" lon="12.2084007"><ele>317.0</ele><time>2026-03-29T13:13:23.457Z</time></trkpt><trkpt lat="43.1726898" lon="12.2084837"><ele>317.0</ele><time>2026-03-29T13:13:25.457Z</time></trkpt><trkpt lat="43.1725954" lon="12.2085093"><ele>317.0</ele><time>2026-03-29T13:13:26.458Z</time></trkpt><trkpt lat="43.1725224" lon="12.2085277"><ele>317.0</ele><time>2026-03-29T13:13:27.458Z</time></trkpt><trkpt lat="43.1724487" lon="12.2085075"><ele>317.0</ele><time>2026-03-29T13:13:28.457Z</time></trkpt><trkpt lat="43.1723733" lon="12.208484"><ele>317.0</ele><time>2026-03-29T13:13:29.457Z</time></trkpt><trkpt lat="43.1722984" lon="12.2084691"><ele>317.0</ele><time>2026-03-29T13:13:30.457Z</time></trkpt><trkpt lat="43.1722172" lon="12.208541"><ele>317.0</ele><time>2026-03-29T13:13:31.457Z</time></trkpt><trkpt lat="43.172146" lon="12.2085637"><ele>317.0</ele><time>2026-03-29T13:13:32.458Z</time></trkpt><trkpt lat="43.1720689" lon="12.20856"><ele>317.0</ele><time>2026-03-29T13:13:33.457Z</time></trkpt><trkpt lat="43.1719977" lon="12.2085454"><ele>318.1666666666667</ele><time>2026-03-29T13:13:34.457Z</time></trkpt><trkpt lat="43.1719309" lon="12.2085494"><ele>319.33333333333337</ele><time>2026-03-29T13:13:35.457Z</time></trkpt><trkpt lat="43.1718368" lon="12.2086274"><ele>320.5</ele><time>2026-03-29T13:13:37.458Z</time></trkpt><trkpt lat="43.171769" lon="12.2086094"><ele>321.6666666666667</ele><time>2026-03-29T13:13:39.458Z</time></trkpt><trkpt lat="43.1717351" lon="12.2084988"><ele>322.8333333333333</ele><time>2026-03-29T13:13:41.457Z</time></trkpt><trkpt lat="43.1716314" lon="12.2084405"><ele>324.0</ele><time>2026-03-29T13:13:43.457Z</time></trkpt><trkpt lat="43.1715421" lon="12.2083818"><ele>325.1666666666667</ele><time>2026-03-29T13:13:44.457Z</time></trkpt><trkpt lat="43.1714698" lon="12.2083542"><ele>326.3333333333333</ele><time>2026-03-29T13:13:45.457Z</time></trkpt><trkpt lat="43.1713919" lon="12.208315"><ele>327.5</ele><time>2026-03-29T13:13:46.457Z</time></trkpt><trkpt lat="43.1713109" lon="12.2082877"><ele>328.66666666666663</ele><time>2026-03-29T13:13:47.457Z</time></trkpt><trkpt lat="43.1712504" lon="12.2082107"><ele>329.8333333333333</ele><time>2026-03-29T13:13:49.457Z</time></trkpt><trkpt lat="43.171225" lon="12.2081007"><ele>331.0</ele><time>2026-03-29T13:13:51.457Z</time></trkpt><trkpt lat="43.1711882" lon="12.20803"><ele>334.8333333333333</ele><time>2026-03-29T13:13:52.458Z</time></trkpt><trkpt lat="43.1711316" lon="12.2079634"><ele>338.66666666666663</ele><time>2026-03-29T13:13:53.458Z</time></trkpt><trkpt lat="43.1710716" lon="12.2078973"><ele>342.5</ele><time>2026-03-29T13:13:54.457Z</time></trkpt><trkpt lat="43.1710042" lon="12.2078327"><ele>346.3333333333333</ele><time>2026-03-29T13:13:55.458Z</time></trkpt><trkpt lat="43.1709197" lon="12.207801"><ele>350.1666666666667</ele><time>2026-03-29T13:13:56.457Z</time></trkpt><trkpt lat="43.170854" lon="12.2077414"><ele>354.0</ele><time>2026-03-29T13:13:57.457Z</time></trkpt><trkpt lat="43.1708025" lon="12.2076849"><ele>354.0</ele><time>2026-03-29T13:13:58.458Z</time></trkpt><trkpt lat="43.1707577" lon="12.2076228"><ele>354.0</ele><time>2026-03-29T13:13:59.457Z</time></trkpt><trkpt lat="43.1707533" lon="12.2075215"><ele>354.0</ele><time>2026-03-29T13:14:01.458Z</time></trkpt><trkpt lat="43.1708139" lon="12.2074963"><ele>354.0</ele><time>2026-03-29T13:14:03.457Z</time></trkpt><trkpt lat="43.170894" lon="12.2074652"><ele>354.0</ele><time>2026-03-29T13:14:05.457Z</time></trkpt><trkpt lat="43.170968" lon="12.2074552"><ele>354.0</ele><time>2026-03-29T13:14:07.457Z</time></trkpt><trkpt lat="43.1710548" lon="12.207389"><ele>357.0</ele><time>2026-03-29T13:14:09.458Z</time></trkpt><trkpt lat="43.1711482" lon="12.2072544"><ele>360.0</ele><time>2026-03-29T13:14:11.457Z</time></trkpt><trkpt lat="43.1712177" lon="12.2071651"><ele>363.0</ele><time>2026-03-29T13:14:13.458Z</time></trkpt><trkpt lat="43.1712601" lon="12.2070328"><ele>366.0</ele><time>2026-03-29T13:14:15.458Z</time></trkpt><trkpt lat="43.1713211" lon="12.2069029"><ele>369.0</ele><time>2026-03-29T13:14:17.458Z</time></trkpt><trkpt lat="43.1713683" lon="12.2067829"><ele>369.0</ele><time>2026-03-29T13:14:19.457Z</time></trkpt><trkpt lat="43.1713209" lon="12.2067177"><ele>369.0</ele><time>2026-03-29T13:14:22.458Z</time></trkpt><trkpt lat="43.1712535" lon="12.2066796"><ele>369.0</ele><time>2026-03-29T13:14:24.457Z</time></trkpt><trkpt lat="43.1712013" lon="12.2066196"><ele>369.0</ele><time>2026-03-29T13:14:26.457Z</time></trkpt><trkpt lat="43.1711511" lon="12.2065544"><ele>369.0</ele><time>2026-03-29T13:14:28.458Z</time></trkpt><trkpt lat="43.1710978" lon="12.2064463"><ele>369.0</ele><time>2026-03-29T13:14:31.458Z</time></trkpt><trkpt lat="43.1709995" lon="12.2064259"><ele>373.2</ele><time>2026-03-29T13:14:33.458Z</time></trkpt><trkpt lat="43.1708931" lon="12.2063704"><ele>377.4</ele><time>2026-03-29T13:14:35.457Z</time></trkpt><trkpt lat="43.1707775" lon="12.2063379"><ele>381.6</ele><time>2026-03-29T13:14:37.458Z</time></trkpt><trkpt lat="43.1707385" lon="12.2062464"><ele>385.8</ele><time>2026-03-29T13:14:40.456Z</time></trkpt><trkpt lat="43.1708211" lon="12.2061632"><ele>390.0</ele><time>2026-03-29T13:14:42.457Z</time></trkpt><trkpt lat="43.1709492" lon="12.2060255"><ele>390.0</ele><time>2026-03-29T13:14:44.457Z</time></trkpt><trkpt lat="43.1710154" lon="12.2059227"><ele>390.0</ele><time>2026-03-29T13:14:45.457Z</time></trkpt><trkpt lat="43.1710677" lon="12.2058015"><ele>390.0</ele><time>2026-03-29T13:14:46.458Z</time></trkpt><trkpt lat="43.1711254" lon="12.2057077"><ele>390.0</ele><time>2026-03-29T13:14:47.458Z</time></trkpt><trkpt lat="43.1711921" lon="12.2055954"><ele>390.0</ele><time>2026-03-29T13:14:48.458Z</time></trkpt><trkpt lat="43.1712477" lon="12.2054659"><ele>392.3333333333333</ele><time>2026-03-29T13:14:49.458Z</time></trkpt><trkpt lat="43.1713056" lon="12.2053454"><ele>394.66666666666663</ele><time>2026-03-29T13:14:50.458Z</time></trkpt><trkpt lat="43.1713653" lon="12.2052252"><ele>397.0</ele><time>2026-03-29T13:14:51.457Z</time></trkpt><trkpt lat="43.1713701" lon="12.2051295"><ele>399.3333333333333</ele><time>2026-03-29T13:14:52.457Z</time></trkpt><trkpt lat="43.1714087" lon="12.2050559"><ele>401.66666666666663</ele><time>2026-03-29T13:14:53.457Z</time></trkpt><trkpt lat="43.1714515" lon="12.2049757"><ele>404.0</ele><time>2026-03-29T13:14:55.457Z</time></trkpt><trkpt lat="43.1715517" lon="12.2049671"><ele>404.0</ele><time>2026-03-29T13:14:58.458Z</time></trkpt><trkpt lat="43.1716606" lon="12.2049314"><ele>404.0</ele><time>2026-03-29T13:15:00.457Z</time></trkpt><trkpt lat="43.171801" lon="12.2048448"><ele>404.0</ele><time>2026-03-29T13:15:02.457Z</time></trkpt><trkpt lat="43.1719273" lon="12.2047847"><ele>404.0</ele><time>2026-03-29T13:15:03.458Z</time></trkpt><trkpt lat="43.172003" lon="12.2047628"><ele>404.66666666666663</ele><time>2026-03-29T13:15:04.457Z</time></trkpt><trkpt lat="43.1720832" lon="12.2047399"><ele>405.3333333333333</ele><time>2026-03-29T13:15:05.458Z</time></trkpt><trkpt lat="43.1722001" lon="12.2047168"><ele>406.0</ele><time>2026-03-29T13:15:06.457Z</time></trkpt><trkpt lat="43.1722713" lon="12.2046863"><ele>406.66666666666663</ele><time>2026-03-29T13:15:07.458Z</time></trkpt><trkpt lat="43.172326" lon="12.2046237"><ele>407.3333333333333</ele><time>2026-03-29T13:15:09.457Z</time></trkpt><trkpt lat="43.1723708" lon="12.2045266"><ele>408.0</ele><time>2026-03-29T13:15:19.457Z</time></trkpt><trkpt lat="43.1723891" lon="12.2044268"><ele>408.0</ele><time>2026-03-29T13:15:21.457Z</time></trkpt><trkpt lat="43.1724058" lon="12.2043281"><ele>408.0</ele><time>2026-03-29T13:15:23.457Z</time></trkpt><trkpt lat="43.1724487" lon="12.2042279"><ele>408.0</ele><time>2026-03-29T13:15:34.457Z</time></trkpt><trkpt lat="43.1724868" lon="12.2041516"><ele>408.0</ele><time>2026-03-29T13:15:35.457Z</time></trkpt><trkpt lat="43.1725466" lon="12.2039675"><ele>408.0</ele><time>2026-03-29T13:15:37.458Z</time></trkpt><trkpt lat="43.1725735" lon="12.2038336"><ele>411.1666666666667</ele><time>2026-03-29T13:15:38.458Z</time></trkpt><trkpt lat="43.1726085" lon="12.2037234"><ele>414.33333333333337</ele><time>2026-03-29T13:15:39.457Z</time></trkpt><trkpt lat="43.1726524" lon="12.2036325"><ele>417.5</ele><time>2026-03-29T13:15:40.458Z</time></trkpt><trkpt lat="43.1727104" lon="12.2035692"><ele>420.6666666666667</ele><time>2026-03-29T13:15:41.457Z</time></trkpt><trkpt lat="43.1727927" lon="12.2034563"><ele>423.83333333333337</ele><time>2026-03-29T13:15:43.458Z</time></trkpt><trkpt lat="43.1728393" lon="12.2033963"><ele>427.0</ele><time>2026-03-29T13:15:44.457Z</time></trkpt><trkpt lat="43.1728842" lon="12.2033314"><ele>427.0</ele><time>2026-03-29T13:15:45.457Z</time></trkpt><trkpt lat="43.172897" lon="12.2031708"><ele>427.00000000000006</ele><time>2026-03-29T13:15:47.457Z</time></trkpt><trkpt lat="43.1729108" lon="12.2030777"><ele>427.00000000000006</ele><time>2026-03-29T13:15:48.457Z</time></trkpt><trkpt lat="43.172927" lon="12.2029536"><ele>427.0</ele><time>2026-03-29T13:15:50.457Z</time></trkpt><trkpt lat="43.1729329" lon="12.2028157"><ele>427.0</ele><time>2026-03-29T13:15:52.457Z</time></trkpt><trkpt lat="43.172968" lon="12.2026683"><ele>429.0</ele><time>2026-03-29T13:15:53.458Z</time></trkpt><trkpt lat="43.1729997" lon="12.2025326"><ele>431.00000000000006</ele><time>2026-03-29T13:15:54.458Z</time></trkpt><trkpt lat="43.1730768" lon="12.2023199"><ele>433.00000000000006</ele><time>2026-03-29T13:15:56.458Z</time></trkpt><trkpt lat="43.173108" lon="12.202219"><ele>435.0</ele><time>2026-03-29T13:15:57.457Z</time></trkpt><trkpt lat="43.1731306" lon="12.2021226"><ele>437.0</ele><time>2026-03-29T13:15:58.457Z</time></trkpt><trkpt lat="43.1731279" lon="12.2019703"><ele>437.0</ele><time>2026-03-29T13:16:00.457Z</time></trkpt><trkpt lat="43.1730945" lon="12.2018564"><ele>437.00000000000006</ele><time>2026-03-29T13:16:01.457Z</time></trkpt><trkpt lat="43.1730608" lon="12.201726"><ele>437.00000000000006</ele><time>2026-03-29T13:16:02.458Z</time></trkpt><trkpt lat="43.1730389" lon="12.2016161"><ele>437.0</ele><time>2026-03-29T13:16:03.457Z</time></trkpt><trkpt lat="43.1730093" lon="12.2014706"><ele>437.0</ele><time>2026-03-29T13:16:04.458Z</time></trkpt><trkpt lat="43.1729864" lon="12.2013784"><ele>434.66666666666663</ele><time>2026-03-29T13:16:05.458Z</time></trkpt><trkpt lat="43.1729508" lon="12.2012871"><ele>432.3333333333333</ele><time>2026-03-29T13:16:06.458Z</time></trkpt><trkpt lat="43.1729275" lon="12.2011816"><ele>430.0</ele><time>2026-03-29T13:16:07.458Z</time></trkpt><trkpt lat="43.1728975" lon="12.201105"><ele>427.66666666666663</ele><time>2026-03-29T13:16:08.457Z</time></trkpt><trkpt lat="43.1728823" lon="12.201002"><ele>425.3333333333333</ele><time>2026-03-29T13:16:09.457Z</time></trkpt><trkpt lat="43.1728386" lon="12.200888"><ele>423.0</ele><time>2026-03-29T13:16:11.457Z</time></trkpt><trkpt lat="43.1727623" lon="12.2007702"><ele>421.59999999999997</ele><time>2026-03-29T13:16:13.458Z</time></trkpt><trkpt lat="43.1726804" lon="12.2006558"><ele>420.2</ele><time>2026-03-29T13:16:15.458Z</time></trkpt><trkpt lat="43.1726346" lon="12.2005692"><ele>418.8</ele><time>2026-03-29T13:16:16.457Z</time></trkpt><trkpt lat="43.1725481" lon="12.2004231"><ele>417.4</ele><time>2026-03-29T13:16:18.458Z</time></trkpt><trkpt lat="43.172499" lon="12.2003358"><ele>416.0</ele><time>2026-03-29T13:16:19.458Z</time></trkpt><trkpt lat="43.1724471" lon="12.2002683"><ele>415.99999999999994</ele><time>2026-03-29T13:16:20.457Z</time></trkpt><trkpt lat="43.1724018" lon="12.2002052"><ele>416.0</ele><time>2026-03-29T13:16:21.457Z</time></trkpt><trkpt lat="43.1723402" lon="12.200184"><ele>416.0</ele><time>2026-03-29T13:16:22.457Z</time></trkpt><trkpt lat="43.1721902" lon="12.2001716"><ele>416.0</ele><time>2026-03-29T13:16:24.458Z</time></trkpt><trkpt lat="43.1721205" lon="12.2001559"><ele>415.99999999999994</ele><time>2026-03-29T13:16:25.458Z</time></trkpt><trkpt lat="43.1720343" lon="12.2002022"><ele>416.0</ele><time>2026-03-29T13:16:27.457Z</time></trkpt><trkpt lat="43.1719435" lon="12.2002602"><ele>416.6</ele><time>2026-03-29T13:16:29.457Z</time></trkpt><trkpt lat="43.1718564" lon="12.2002876"><ele>417.20000000000005</ele><time>2026-03-29T13:16:31.457Z</time></trkpt><trkpt lat="43.1717525" lon="12.2003349"><ele>417.79999999999995</ele><time>2026-03-29T13:16:33.457Z</time></trkpt><trkpt lat="43.171647" lon="12.2003774"><ele>418.4</ele><time>2026-03-29T13:16:35.458Z</time></trkpt><trkpt lat="43.1715613" lon="12.2004008"><ele>419.0</ele><time>2026-03-29T13:16:37.458Z</time></trkpt><trkpt lat="43.1714959" lon="12.2004524"><ele>420.66666666666663</ele><time>2026-03-29T13:16:39.458Z</time></trkpt><trkpt lat="43.171417" lon="12.2005094"><ele>422.3333333333333</ele><time>2026-03-29T13:16:41.458Z</time></trkpt><trkpt lat="43.171322" lon="12.2005532"><ele>424.0</ele><time>2026-03-29T13:16:43.458Z</time></trkpt><trkpt lat="43.171246" lon="12.2005557"><ele>425.66666666666663</ele><time>2026-03-29T13:16:45.457Z</time></trkpt><trkpt lat="43.1711812" lon="12.2005805"><ele>427.3333333333333</ele><time>2026-03-29T13:16:47.458Z</time></trkpt><trkpt lat="43.1710907" lon="12.2006262"><ele>429.0</ele><time>2026-03-29T13:16:49.457Z</time></trkpt><trkpt lat="43.1710262" lon="12.2006621"><ele>431.5</ele><time>2026-03-29T13:16:50.457Z</time></trkpt><trkpt lat="43.1709637" lon="12.2007027"><ele>434.0</ele><time>2026-03-29T13:16:51.457Z</time></trkpt><trkpt lat="43.1708825" lon="12.2007288"><ele>436.5</ele><time>2026-03-29T13:16:52.458Z</time></trkpt><trkpt lat="43.1708195" lon="12.2007515"><ele>439.0</ele><time>2026-03-29T13:16:53.457Z</time></trkpt><trkpt lat="43.1707339" lon="12.2007962"><ele>441.5</ele><time>2026-03-29T13:16:55.458Z</time></trkpt><trkpt lat="43.1706424" lon="12.2008778"><ele>444.0</ele><time>2026-03-29T13:16:57.457Z</time></trkpt><trkpt lat="43.1705799" lon="12.2009313"><ele>444.6</ele><time>2026-03-29T13:16:58.457Z</time></trkpt><trkpt lat="43.1704615" lon="12.2009576"><ele>445.2</ele><time>2026-03-29T13:17:00.457Z</time></trkpt><trkpt lat="43.170357" lon="12.2010136"><ele>445.80000000000007</ele><time>2026-03-29T13:17:02.457Z</time></trkpt><trkpt lat="43.1702733" lon="12.2010722"><ele>446.40000000000003</ele><time>2026-03-29T13:17:04.458Z</time></trkpt><trkpt lat="43.1701586" lon="12.2011056"><ele>447.0</ele><time>2026-03-29T13:17:06.457Z</time></trkpt><trkpt lat="43.1700405" lon="12.2011465"><ele>447.0</ele><time>2026-03-29T13:17:08.458Z</time></trkpt><trkpt lat="43.1699772" lon="12.2011776"><ele>447.00000000000006</ele><time>2026-03-29T13:17:09.457Z</time></trkpt><trkpt lat="43.169883" lon="12.2012377"><ele>447.00000000000006</ele><time>2026-03-29T13:17:11.458Z</time></trkpt><trkpt lat="43.1697659" lon="12.2012153"><ele>447.0</ele><time>2026-03-29T13:17:13.457Z</time></trkpt><trkpt lat="43.1696449" lon="12.2011969"><ele>447.0</ele><time>2026-03-29T13:17:15.458Z</time></trkpt><trkpt lat="43.1695224" lon="12.201226"><ele>446.8</ele><time>2026-03-29T13:17:17.458Z</time></trkpt><trkpt lat="43.1693989" lon="12.2012716"><ele>446.6</ele><time>2026-03-29T13:17:19.458Z</time></trkpt><trkpt lat="43.1693258" lon="12.2012822"><ele>446.40000000000003</ele><time>2026-03-29T13:17:20.458Z</time></trkpt><trkpt lat="43.1692527" lon="12.2012826"><ele>446.20000000000005</ele><time>2026-03-29T13:17:21.457Z</time></trkpt><trkpt lat="43.1691817" lon="12.2012756"><ele>446.0</ele><time>2026-03-29T13:17:22.457Z</time></trkpt><trkpt lat="43.1690581" lon="12.2012571"><ele>446.20000000000005</ele><time>2026-03-29T13:17:24.458Z</time></trkpt><trkpt lat="43.1689238" lon="12.2012465"><ele>446.40000000000003</ele><time>2026-03-29T13:17:26.458Z</time></trkpt><trkpt lat="43.1688385" lon="12.2012336"><ele>446.6</ele><time>2026-03-29T13:17:27.458Z</time></trkpt><trkpt lat="43.1687549" lon="12.2012152"><ele>446.8</ele><time>2026-03-29T13:17:28.457Z</time></trkpt><trkpt lat="43.1686574" lon="12.2011875"><ele>447.0</ele><time>2026-03-29T13:17:29.456Z</time></trkpt><trkpt lat="43.1685536" lon="12.2011666"><ele>447.0</ele><time>2026-03-29T13:17:30.457Z</time></trkpt><trkpt lat="43.1684602" lon="12.2011511"><ele>447.0</ele><time>2026-03-29T13:17:31.458Z</time></trkpt><trkpt lat="43.1683722" lon="12.2011289"><ele>447.0</ele><time>2026-03-29T13:17:32.458Z</time></trkpt><trkpt lat="43.1682852" lon="12.2011112"><ele>447.0</ele><time>2026-03-29T13:17:33.457Z</time></trkpt><trkpt lat="43.1681988" lon="12.2010973"><ele>447.0</ele><time>2026-03-29T13:17:34.457Z</time></trkpt><trkpt lat="43.168119" lon="12.2010916"><ele>447.0</ele><time>2026-03-29T13:17:35.458Z</time></trkpt><trkpt lat="43.168051" lon="12.2010865"><ele>446.75</ele><time>2026-03-29T13:17:36.457Z</time></trkpt><trkpt lat="43.1679309" lon="12.201069"><ele>446.5</ele><time>2026-03-29T13:17:38.457Z</time></trkpt><trkpt lat="43.1678194" lon="12.2010378"><ele>446.25</ele><time>2026-03-29T13:17:40.458Z</time></trkpt><trkpt lat="43.1676959" lon="12.2010046"><ele>446.0</ele><time>2026-03-29T13:17:42.457Z</time></trkpt><trkpt lat="43.1675794" lon="12.2009519"><ele>446.0</ele><time>2026-03-29T13:17:43.458Z</time></trkpt><trkpt lat="43.1674942" lon="12.2009152"><ele>446.0</ele><time>2026-03-29T13:17:44.457Z</time></trkpt><trkpt lat="43.1673262" lon="12.2008436"><ele>446.0</ele><time>2026-03-29T13:17:46.457Z</time></trkpt><trkpt lat="43.1672347" lon="12.2008022"><ele>446.0</ele><time>2026-03-29T13:17:47.458Z</time></trkpt><trkpt lat="43.1671648" lon="12.2007961"><ele>446.0</ele><time>2026-03-29T13:17:48.458Z</time></trkpt><trkpt lat="43.1670999" lon="12.2007908"><ele>445.49999999999994</ele><time>2026-03-29T13:17:49.457Z</time></trkpt><trkpt lat="43.1670206" lon="12.2007766"><ele>445.0</ele><time>2026-03-29T13:17:50.458Z</time></trkpt><trkpt lat="43.1669444" lon="12.2007613"><ele>444.5</ele><time>2026-03-29T13:17:51.458Z</time></trkpt><trkpt lat="43.1668669" lon="12.2007496"><ele>444.0</ele><time>2026-03-29T13:17:52.457Z</time></trkpt><trkpt lat="43.1667809" lon="12.2007036"><ele>443.49999999999994</ele><time>2026-03-29T13:17:53.457Z</time></trkpt><trkpt lat="43.1667136" lon="12.2006583"><ele>443.0</ele><time>2026-03-29T13:17:54.458Z</time></trkpt><trkpt lat="43.1666351" lon="12.2006389"><ele>441.4</ele><time>2026-03-29T13:17:55.458Z</time></trkpt><trkpt lat="43.1665476" lon="12.2006606"><ele>439.79999999999995</ele><time>2026-03-29T13:17:56.457Z</time></trkpt><trkpt lat="43.1664514" lon="12.2006906"><ele>438.2</ele><time>2026-03-29T13:17:57.458Z</time></trkpt><trkpt lat="43.1663479" lon="12.2007269"><ele>436.6</ele><time>2026-03-29T13:17:58.457Z</time></trkpt><trkpt lat="43.1662375" lon="12.2007557"><ele>435.0</ele><time>2026-03-29T13:17:59.457Z</time></trkpt><trkpt lat="43.166126" lon="12.2007875"><ele>435.0</ele><time>2026-03-29T13:18:00.458Z</time></trkpt><trkpt lat="43.1660176" lon="12.2008127"><ele>435.0</ele><time>2026-03-29T13:18:01.457Z</time></trkpt><trkpt lat="43.1659111" lon="12.200851"><ele>435.0</ele><time>2026-03-29T13:18:02.457Z</time></trkpt><trkpt lat="43.1658055" lon="12.2008739"><ele>435.0</ele><time>2026-03-29T13:18:03.458Z</time></trkpt><trkpt lat="43.1656939" lon="12.2009047"><ele>435.0</ele><time>2026-03-29T13:18:04.458Z</time></trkpt><trkpt lat="43.1655835" lon="12.2009408"><ele>433.25</ele><time>2026-03-29T13:18:05.457Z</time></trkpt><trkpt lat="43.165471" lon="12.2009716"><ele>431.5</ele><time>2026-03-29T13:18:06.457Z</time></trkpt><trkpt lat="43.1653636" lon="12.2010014"><ele>429.75</ele><time>2026-03-29T13:18:07.457Z</time></trkpt><trkpt lat="43.1651611" lon="12.201048"><ele>428.0</ele><time>2026-03-29T13:18:09.457Z</time></trkpt><trkpt lat="43.1650609" lon="12.2010747"><ele>428.0</ele><time>2026-03-29T13:18:10.457Z</time></trkpt><trkpt lat="43.164964" lon="12.2011014"><ele>427.99999999999994</ele><time>2026-03-29T13:18:11.457Z</time></trkpt><trkpt lat="43.1648724" lon="12.2011293"><ele>427.99999999999994</ele><time>2026-03-29T13:18:12.457Z</time></trkpt><trkpt lat="43.1647781" lon="12.2011584"><ele>428.0</ele><time>2026-03-29T13:18:13.457Z</time></trkpt><trkpt lat="43.1646859" lon="12.2011781"><ele>428.0</ele><time>2026-03-29T13:18:14.458Z</time></trkpt><trkpt lat="43.1646016" lon="12.2011935"><ele>426.16666666666663</ele><time>2026-03-29T13:18:15.457Z</time></trkpt><trkpt lat="43.1645168" lon="12.2012473"><ele>424.3333333333333</ele><time>2026-03-29T13:18:16.458Z</time></trkpt><trkpt lat="43.1644367" lon="12.2012623"><ele>422.5</ele><time>2026-03-29T13:18:17.458Z</time></trkpt><trkpt lat="43.1643519" lon="12.2012994"><ele>420.66666666666663</ele><time>2026-03-29T13:18:19.457Z</time></trkpt><trkpt lat="43.1643479" lon="12.2014122"><ele>418.8333333333333</ele><time>2026-03-29T13:18:21.457Z</time></trkpt><trkpt lat="43.1643529" lon="12.2015288"><ele>417.0</ele><time>2026-03-29T13:18:23.458Z</time></trkpt><trkpt lat="43.1643388" lon="12.2016376"><ele>416.0</ele><time>2026-03-29T13:18:25.458Z</time></trkpt><trkpt lat="43.1643648" lon="12.2017672"><ele>415.0</ele><time>2026-03-29T13:18:27.457Z</time></trkpt><trkpt lat="43.1643361" lon="12.2018441"><ele>414.0</ele><time>2026-03-29T13:18:29.458Z</time></trkpt><trkpt lat="43.1642502" lon="12.2018634"><ele>413.0</ele><time>2026-03-29T13:18:31.457Z</time></trkpt><trkpt lat="43.1641549" lon="12.2018205"><ele>412.0</ele><time>2026-03-29T13:18:33.458Z</time></trkpt><trkpt lat="43.1640852" lon="12.2018"><ele>411.0</ele><time>2026-03-29T13:18:34.458Z</time></trkpt><trkpt lat="43.1640111" lon="12.2017731"><ele>409.8333333333333</ele><time>2026-03-29T13:18:35.459Z</time></trkpt><trkpt lat="43.1639471" lon="12.2017261"><ele>408.66666666666663</ele><time>2026-03-29T13:18:36.458Z</time></trkpt><trkpt lat="43.1638607" lon="12.2016667"><ele>407.5</ele><time>2026-03-29T13:18:37.459Z</time></trkpt><trkpt lat="43.1637848" lon="12.2016455"><ele>406.3333333333333</ele><time>2026-03-29T13:18:38.458Z</time></trkpt><trkpt lat="43.1636699" lon="12.2016192"><ele>405.16666666666663</ele><time>2026-03-29T13:18:40.458Z</time></trkpt><trkpt lat="43.1635848" lon="12.2016233"><ele>404.0</ele><time>2026-03-29T13:18:42.458Z</time></trkpt><trkpt lat="43.163511" lon="12.2016315"><ele>404.0</ele><time>2026-03-29T13:18:45.458Z</time></trkpt><trkpt lat="43.1634215" lon="12.2017091"><ele>404.0</ele><time>2026-03-29T13:19:28.458Z</time></trkpt><trkpt lat="43.1633029" lon="12.2017325"><ele>404.0</ele><time>2026-03-29T13:19:30.458Z</time></trkpt><trkpt lat="43.1631401" lon="12.2017172"><ele>404.0</ele><time>2026-03-29T13:19:32.458Z</time></trkpt><trkpt lat="43.1630557" lon="12.2016868"><ele>404.4</ele><time>2026-03-29T13:19:33.457Z</time></trkpt><trkpt lat="43.1629593" lon="12.2016717"><ele>404.79999999999995</ele><time>2026-03-29T13:19:34.458Z</time></trkpt><trkpt lat="43.162853" lon="12.2016718"><ele>405.20000000000005</ele><time>2026-03-29T13:19:35.458Z</time></trkpt><trkpt lat="43.1627435" lon="12.2016738"><ele>405.6</ele><time>2026-03-29T13:19:36.458Z</time></trkpt><trkpt lat="43.1626469" lon="12.2016835"><ele>406.0</ele><time>2026-03-29T13:19:37.459Z</time></trkpt><trkpt lat="43.1625508" lon="12.2017186"><ele>406.00000000000006</ele><time>2026-03-29T13:19:38.459Z</time></trkpt><trkpt lat="43.1624652" lon="12.2017625"><ele>406.0</ele><time>2026-03-29T13:19:39.459Z</time></trkpt><trkpt lat="43.162391" lon="12.2018075"><ele>406.0</ele><time>2026-03-29T13:19:40.458Z</time></trkpt><trkpt lat="43.1623102" lon="12.2018429"><ele>406.0</ele><time>2026-03-29T13:19:41.458Z</time></trkpt><trkpt lat="43.1622241" lon="12.2018578"><ele>406.00000000000006</ele><time>2026-03-29T13:19:42.458Z</time></trkpt><trkpt lat="43.1621498" lon="12.2018554"><ele>406.0</ele><time>2026-03-29T13:19:43.458Z</time></trkpt><trkpt lat="43.1620764" lon="12.2018468"><ele>404.6666666666667</ele><time>2026-03-29T13:19:44.459Z</time></trkpt><trkpt lat="43.161999" lon="12.2018541"><ele>403.33333333333337</ele><time>2026-03-29T13:19:45.459Z</time></trkpt><trkpt lat="43.1619595" lon="12.2019264"><ele>402.0</ele><time>2026-03-29T13:19:46.459Z</time></trkpt><trkpt lat="43.1618787" lon="12.2020251"><ele>400.66666666666663</ele><time>2026-03-29T13:19:47.459Z</time></trkpt><trkpt lat="43.1617913" lon="12.2020946"><ele>399.3333333333333</ele><time>2026-03-29T13:19:48.459Z</time></trkpt><trkpt lat="43.1617071" lon="12.2021574"><ele>398.0</ele><time>2026-03-29T13:19:49.459Z</time></trkpt><trkpt lat="43.1616288" lon="12.2022278"><ele>399.0</ele><time>2026-03-29T13:19:50.459Z</time></trkpt><trkpt lat="43.1615101" lon="12.2022986"><ele>400.0</ele><time>2026-03-29T13:19:51.458Z</time></trkpt><trkpt lat="43.1614051" lon="12.2023585"><ele>401.0</ele><time>2026-03-29T13:19:52.459Z</time></trkpt><trkpt lat="43.1612999" lon="12.202414"><ele>402.0</ele><time>2026-03-29T13:19:53.459Z</time></trkpt><trkpt lat="43.1612074" lon="12.202484"><ele>402.0</ele><time>2026-03-29T13:19:54.458Z</time></trkpt><trkpt lat="43.1611033" lon="12.2025614"><ele>402.0</ele><time>2026-03-29T13:19:55.459Z</time></trkpt><trkpt lat="43.1610031" lon="12.2026385"><ele>402.0</ele><time>2026-03-29T13:19:56.459Z</time></trkpt><trkpt lat="43.1608997" lon="12.2027025"><ele>402.0</ele><time>2026-03-29T13:19:57.458Z</time></trkpt><trkpt lat="43.1607987" lon="12.2027682"><ele>402.0</ele><time>2026-03-29T13:19:58.458Z</time></trkpt><trkpt lat="43.160707" lon="12.2028642"><ele>402.0</ele><time>2026-03-29T13:19:59.459Z</time></trkpt><trkpt lat="43.1606239" lon="12.2029547"><ele>402.0</ele><time>2026-03-29T13:20:00.459Z</time></trkpt><trkpt lat="43.1605403" lon="12.2030354"><ele>402.0</ele><time>2026-03-29T13:20:01.459Z</time></trkpt><trkpt lat="43.1604476" lon="12.2030798"><ele>402.0</ele><time>2026-03-29T13:20:02.458Z</time></trkpt><trkpt lat="43.1603644" lon="12.2031125"><ele>401.40000000000003</ele><time>2026-03-29T13:20:03.458Z</time></trkpt><trkpt lat="43.1602785" lon="12.2031471"><ele>400.8</ele><time>2026-03-29T13:20:04.459Z</time></trkpt><trkpt lat="43.1601955" lon="12.2032274"><ele>400.2</ele><time>2026-03-29T13:20:05.459Z</time></trkpt><trkpt lat="43.1601071" lon="12.2033113"><ele>399.6</ele><time>2026-03-29T13:20:06.459Z</time></trkpt><trkpt lat="43.1600095" lon="12.2034041"><ele>399.0</ele><time>2026-03-29T13:20:07.458Z</time></trkpt><trkpt lat="43.1599245" lon="12.2035017"><ele>399.5</ele><time>2026-03-29T13:20:08.459Z</time></trkpt><trkpt lat="43.1598311" lon="12.2035862"><ele>400.0</ele><time>2026-03-29T13:20:09.459Z</time></trkpt><trkpt lat="43.1597447" lon="12.2036449"><ele>400.5</ele><time>2026-03-29T13:20:10.458Z</time></trkpt><trkpt lat="43.1596241" lon="12.2036896"><ele>401.0</ele><time>2026-03-29T13:20:11.458Z</time></trkpt><trkpt lat="43.1595076" lon="12.2037321"><ele>401.0</ele><time>2026-03-29T13:20:12.458Z</time></trkpt><trkpt lat="43.1593897" lon="12.2037615"><ele>401.0</ele><time>2026-03-29T13:20:13.458Z</time></trkpt><trkpt lat="43.1592545" lon="12.2037814"><ele>401.0</ele><time>2026-03-29T13:20:14.459Z</time></trkpt><trkpt lat="43.1591125" lon="12.2037784"><ele>401.0</ele><time>2026-03-29T13:20:15.459Z</time></trkpt><trkpt lat="43.1589749" lon="12.2037841"><ele>400.75</ele><time>2026-03-29T13:20:16.458Z</time></trkpt><trkpt lat="43.1588349" lon="12.2037934"><ele>400.5</ele><time>2026-03-29T13:20:17.458Z</time></trkpt><trkpt lat="43.158709" lon="12.2038003"><ele>400.25</ele><time>2026-03-29T13:20:18.458Z</time></trkpt><trkpt lat="43.1586013" lon="12.2038048"><ele>400.0</ele><time>2026-03-29T13:20:19.459Z</time></trkpt><trkpt lat="43.1584869" lon="12.2038172"><ele>400.0</ele><time>2026-03-29T13:20:20.458Z</time></trkpt><trkpt lat="43.1583891" lon="12.2038469"><ele>400.0</ele><time>2026-03-29T13:20:21.459Z</time></trkpt><trkpt lat="43.1582783" lon="12.2039189"><ele>400.0</ele><time>2026-03-29T13:20:22.459Z</time></trkpt><trkpt lat="43.1581843" lon="12.2039757"><ele>400.0</ele><time>2026-03-29T13:20:23.458Z</time></trkpt><trkpt lat="43.1580371" lon="12.2040106"><ele>403.0</ele><time>2026-03-29T13:20:24.459Z</time></trkpt><trkpt lat="43.1579072" lon="12.2040486"><ele>406.0</ele><time>2026-03-29T13:20:25.458Z</time></trkpt><trkpt lat="43.1577745" lon="12.2040927"><ele>409.0</ele><time>2026-03-29T13:20:26.458Z</time></trkpt><trkpt lat="43.1576407" lon="12.2041499"><ele>412.0</ele><time>2026-03-29T13:20:27.458Z</time></trkpt><trkpt lat="43.1575092" lon="12.2042053"><ele>412.0</ele><time>2026-03-29T13:20:28.459Z</time></trkpt><trkpt lat="43.1573829" lon="12.2042166"><ele>412.0</ele><time>2026-03-29T13:20:29.459Z</time></trkpt><trkpt lat="43.1572443" lon="12.2042381"><ele>412.0</ele><time>2026-03-29T13:20:30.459Z</time></trkpt><trkpt lat="43.1571297" lon="12.2042648"><ele>412.0</ele><time>2026-03-29T13:20:31.458Z</time></trkpt><trkpt lat="43.157022" lon="12.2042715"><ele>413.40000000000003</ele><time>2026-03-29T13:20:32.459Z</time></trkpt><trkpt lat="43.1569307" lon="12.204276"><ele>414.8</ele><time>2026-03-29T13:20:33.459Z</time></trkpt><trkpt lat="43.1568327" lon="12.2042828"><ele>416.2</ele><time>2026-03-29T13:20:34.458Z</time></trkpt><trkpt lat="43.156746" lon="12.2042416"><ele>417.6</ele><time>2026-03-29T13:20:35.459Z</time></trkpt><trkpt lat="43.1566544" lon="12.2042091"><ele>419.0</ele><time>2026-03-29T13:20:36.458Z</time></trkpt><trkpt lat="43.1565802" lon="12.2041428"><ele>418.2</ele><time>2026-03-29T13:20:37.458Z</time></trkpt><trkpt lat="43.1565177" lon="12.2040429"><ele>417.4</ele><time>2026-03-29T13:20:38.459Z</time></trkpt><trkpt lat="43.1564333" lon="12.2039644"><ele>416.6</ele><time>2026-03-29T13:20:39.458Z</time></trkpt><trkpt lat="43.1563341" lon="12.2039284"><ele>415.8</ele><time>2026-03-29T13:20:40.459Z</time></trkpt><trkpt lat="43.156233" lon="12.2038694"><ele>415.0</ele><time>2026-03-29T13:20:41.458Z</time></trkpt><trkpt lat="43.1561284" lon="12.2038056"><ele>415.0</ele><time>2026-03-29T13:20:42.459Z</time></trkpt><trkpt lat="43.1560312" lon="12.2037437"><ele>415.0</ele><time>2026-03-29T13:20:43.459Z</time></trkpt><trkpt lat="43.1559077" lon="12.203627"><ele>415.0</ele><time>2026-03-29T13:20:44.458Z</time></trkpt><trkpt lat="43.1558091" lon="12.203502"><ele>415.0</ele><time>2026-03-29T13:20:45.459Z</time></trkpt><trkpt lat="43.1557182" lon="12.2033908"><ele>413.25</ele><time>2026-03-29T13:20:46.458Z</time></trkpt><trkpt lat="43.1556231" lon="12.2032448"><ele>411.5</ele><time>2026-03-29T13:20:47.458Z</time></trkpt><trkpt lat="43.1555379" lon="12.2031165"><ele>409.75</ele><time>2026-03-29T13:20:48.458Z</time></trkpt><trkpt lat="43.155446" lon="12.2029679"><ele>408.0</ele><time>2026-03-29T13:20:49.459Z</time></trkpt><trkpt lat="43.1553438" lon="12.2028286"><ele>408.0</ele><time>2026-03-29T13:20:50.459Z</time></trkpt><trkpt lat="43.1552483" lon="12.2027138"><ele>408.0</ele><time>2026-03-29T13:20:51.458Z</time></trkpt><trkpt lat="43.1551752" lon="12.2026108"><ele>408.0</ele><time>2026-03-29T13:20:52.459Z</time></trkpt><trkpt lat="43.1551272" lon="12.2025267"><ele>408.0</ele><time>2026-03-29T13:20:53.458Z</time></trkpt><trkpt lat="43.1550918" lon="12.2024452"><ele>408.0</ele><time>2026-03-29T13:20:54.459Z</time></trkpt><trkpt lat="43.1550098" lon="12.2022831"><ele>408.2</ele><time>2026-03-29T13:20:56.458Z</time></trkpt><trkpt lat="43.1549569" lon="12.2021898"><ele>408.4</ele><time>2026-03-29T13:20:57.459Z</time></trkpt><trkpt lat="43.1548854" lon="12.2020894"><ele>408.59999999999997</ele><time>2026-03-29T13:20:58.459Z</time></trkpt><trkpt lat="43.1548021" lon="12.2019854"><ele>408.79999999999995</ele><time>2026-03-29T13:20:59.459Z</time></trkpt><trkpt lat="43.1547068" lon="12.2018759"><ele>409.0</ele><time>2026-03-29T13:21:00.458Z</time></trkpt><trkpt lat="43.1546151" lon="12.2017682"><ele>409.4</ele><time>2026-03-29T13:21:01.458Z</time></trkpt><trkpt lat="43.1545236" lon="12.2016724"><ele>409.79999999999995</ele><time>2026-03-29T13:21:02.457Z</time></trkpt><trkpt lat="43.154441" lon="12.2015851"><ele>410.20000000000005</ele><time>2026-03-29T13:21:03.458Z</time></trkpt><trkpt lat="43.1543662" lon="12.2015105"><ele>410.6</ele><time>2026-03-29T13:21:04.459Z</time></trkpt><trkpt lat="43.1543036" lon="12.2014537"><ele>411.0</ele><time>2026-03-29T13:21:05.459Z</time></trkpt><trkpt lat="43.1542078" lon="12.2013923"><ele>410.20000000000005</ele><time>2026-03-29T13:21:07.458Z</time></trkpt><trkpt lat="43.1541328" lon="12.2014164"><ele>409.40000000000003</ele><time>2026-03-29T13:21:09.459Z</time></trkpt><trkpt lat="43.1540568" lon="12.2014817"><ele>408.6</ele><time>2026-03-29T13:21:11.459Z</time></trkpt><trkpt lat="43.1539618" lon="12.2015076"><ele>407.8</ele><time>2026-03-29T13:21:13.459Z</time></trkpt><trkpt lat="43.1538528" lon="12.2014911"><ele>407.0</ele><time>2026-03-29T13:21:14.458Z</time></trkpt><trkpt lat="43.1537619" lon="12.2014867"><ele>409.0</ele><time>2026-03-29T13:21:15.458Z</time></trkpt><trkpt lat="43.1536626" lon="12.2014812"><ele>411.0</ele><time>2026-03-29T13:21:16.459Z</time></trkpt><trkpt lat="43.15354" lon="12.2014562"><ele>413.0</ele><time>2026-03-29T13:21:17.459Z</time></trkpt><trkpt lat="43.1534195" lon="12.2014199"><ele>415.0</ele><time>2026-03-29T13:21:18.459Z</time></trkpt><trkpt lat="43.1532755" lon="12.2013825"><ele>416.25</ele><time>2026-03-29T13:21:19.459Z</time></trkpt><trkpt lat="43.1531384" lon="12.2012842"><ele>417.5</ele><time>2026-03-29T13:21:20.459Z</time></trkpt><trkpt lat="43.1530177" lon="12.2012206"><ele>418.75</ele><time>2026-03-29T13:21:21.459Z</time></trkpt><trkpt lat="43.1529052" lon="12.2011587"><ele>420.0</ele><time>2026-03-29T13:21:22.458Z</time></trkpt><trkpt lat="43.1527803" lon="12.2011675"><ele>420.0</ele><time>2026-03-29T13:21:23.458Z</time></trkpt><trkpt lat="43.152648" lon="12.2011546"><ele>420.0</ele><time>2026-03-29T13:21:24.458Z</time></trkpt><trkpt lat="43.1525131" lon="12.2011576"><ele>420.0</ele><time>2026-03-29T13:21:25.458Z</time></trkpt><trkpt lat="43.1524054" lon="12.2011554"><ele>420.0</ele><time>2026-03-29T13:21:26.459Z</time></trkpt><trkpt lat="43.1522916" lon="12.2011235"><ele>420.8</ele><time>2026-03-29T13:21:27.459Z</time></trkpt><trkpt lat="43.1521712" lon="12.2010539"><ele>421.6</ele><time>2026-03-29T13:21:28.459Z</time></trkpt><trkpt lat="43.1520598" lon="12.200976"><ele>422.4</ele><time>2026-03-29T13:21:29.458Z</time></trkpt><trkpt lat="43.1519709" lon="12.2009147"><ele>423.2</ele><time>2026-03-29T13:21:30.458Z</time></trkpt><trkpt lat="43.1519058" lon="12.2008698"><ele>424.0</ele><time>2026-03-29T13:21:31.458Z</time></trkpt><trkpt lat="43.1518379" lon="12.2007944"><ele>424.00000000000006</ele><time>2026-03-29T13:21:33.459Z</time></trkpt><trkpt lat="43.1518402" lon="12.2008969"><ele>424.0</ele><time>2026-03-29T13:21:37.459Z</time></trkpt><trkpt lat="43.1519244" lon="12.2009122"><ele>424.0</ele><time>2026-03-29T13:21:39.458Z</time></trkpt><trkpt lat="43.1519783" lon="12.2008282"><ele>424.0</ele><time>2026-03-29T13:21:41.459Z</time></trkpt><trkpt lat="43.1519975" lon="12.2007092"><ele>424.00000000000006</ele><time>2026-03-29T13:21:43.459Z</time></trkpt><trkpt lat="43.151962" lon="12.2005924"><ele>424.0</ele><time>2026-03-29T13:21:45.459Z</time></trkpt><trkpt lat="43.1519197" lon="12.2004878"><ele>422.79999999999995</ele><time>2026-03-29T13:21:46.459Z</time></trkpt><trkpt lat="43.1518809" lon="12.2003812"><ele>421.59999999999997</ele><time>2026-03-29T13:21:47.459Z</time></trkpt><trkpt lat="43.1518309" lon="12.2002542"><ele>420.4</ele><time>2026-03-29T13:21:48.458Z</time></trkpt><trkpt lat="43.1518431" lon="12.2001184"><ele>419.2</ele><time>2026-03-29T13:21:49.459Z</time></trkpt><trkpt lat="43.1518331" lon="12.1999756"><ele>418.0</ele><time>2026-03-29T13:21:50.458Z</time></trkpt><trkpt lat="43.1518349" lon="12.1997854"><ele>415.2</ele><time>2026-03-29T13:21:51.458Z</time></trkpt><trkpt lat="43.1518206" lon="12.1996207"><ele>412.4</ele><time>2026-03-29T13:21:52.458Z</time></trkpt><trkpt lat="43.1518208" lon="12.1994932"><ele>409.59999999999997</ele><time>2026-03-29T13:21:53.458Z</time></trkpt><trkpt lat="43.1518031" lon="12.199387"><ele>406.79999999999995</ele><time>2026-03-29T13:21:54.458Z</time></trkpt><trkpt lat="43.1517849" lon="12.1992662"><ele>404.0</ele><time>2026-03-29T13:21:55.459Z</time></trkpt><trkpt lat="43.1517506" lon="12.1990981"><ele>401.75</ele><time>2026-03-29T13:21:56.459Z</time></trkpt><trkpt lat="43.1517195" lon="12.1989163"><ele>399.5</ele><time>2026-03-29T13:21:57.459Z</time></trkpt><trkpt lat="43.1516844" lon="12.1987564"><ele>397.25</ele><time>2026-03-29T13:21:58.458Z</time></trkpt><trkpt lat="43.1516401" lon="12.1986307"><ele>395.0</ele><time>2026-03-29T13:21:59.458Z</time></trkpt><trkpt lat="43.1515965" lon="12.1984974"><ele>395.0</ele><time>2026-03-29T13:22:00.458Z</time></trkpt><trkpt lat="43.1515629" lon="12.1983674"><ele>395.0</ele><time>2026-03-29T13:22:01.459Z</time></trkpt><trkpt lat="43.1515254" lon="12.1982503"><ele>395.0</ele><time>2026-03-29T13:22:02.459Z</time></trkpt><trkpt lat="43.1514763" lon="12.1981244"><ele>395.0</ele><time>2026-03-29T13:22:03.458Z</time></trkpt><trkpt lat="43.1514127" lon="12.1979939"><ele>395.0</ele><time>2026-03-29T13:22:04.458Z</time></trkpt><trkpt lat="43.1513416" lon="12.1978716"><ele>392.5</ele><time>2026-03-29T13:22:05.458Z</time></trkpt><trkpt lat="43.1512678" lon="12.1977426"><ele>390.0</ele><time>2026-03-29T13:22:06.459Z</time></trkpt><trkpt lat="43.1511883" lon="12.1976218"><ele>387.5</ele><time>2026-03-29T13:22:07.458Z</time></trkpt><trkpt lat="43.1511188" lon="12.1975104"><ele>385.0</ele><time>2026-03-29T13:22:08.459Z</time></trkpt><trkpt lat="43.1510533" lon="12.197395"><ele>385.83333333333337</ele><time>2026-03-29T13:22:09.458Z</time></trkpt><trkpt lat="43.1509974" lon="12.1972926"><ele>386.6666666666667</ele><time>2026-03-29T13:22:10.459Z</time></trkpt><trkpt lat="43.1509514" lon="12.1971988"><ele>387.5</ele><time>2026-03-29T13:22:11.458Z</time></trkpt><trkpt lat="43.1509136" lon="12.1971184"><ele>388.33333333333337</ele><time>2026-03-29T13:22:12.458Z</time></trkpt><trkpt lat="43.1508794" lon="12.1970394"><ele>389.1666666666667</ele><time>2026-03-29T13:22:13.458Z</time></trkpt><trkpt lat="43.1508133" lon="12.1968883"><ele>390.0</ele><time>2026-03-29T13:22:15.459Z</time></trkpt><trkpt lat="43.1507694" lon="12.1968134"><ele>385.4</ele><time>2026-03-29T13:22:16.458Z</time></trkpt><trkpt lat="43.1506976" lon="12.1966701"><ele>380.8</ele><time>2026-03-29T13:22:18.458Z</time></trkpt><trkpt lat="43.1506728" lon="12.1965887"><ele>376.20000000000005</ele><time>2026-03-29T13:22:19.459Z</time></trkpt><trkpt lat="43.1506364" lon="12.1964793"><ele>371.6</ele><time>2026-03-29T13:22:21.459Z</time></trkpt><trkpt lat="43.1505769" lon="12.1965554"><ele>367.0</ele><time>2026-03-29T13:22:24.458Z</time></trkpt><trkpt lat="43.1505419" lon="12.19668"><ele>367.0</ele><time>2026-03-29T13:22:26.458Z</time></trkpt><trkpt lat="43.1504718" lon="12.1967118"><ele>367.0</ele><time>2026-03-29T13:22:28.459Z</time></trkpt><trkpt lat="43.1503867" lon="12.1966046"><ele>367.0</ele><time>2026-03-29T13:22:30.459Z</time></trkpt><trkpt lat="43.1503401" lon="12.1965035"><ele>367.0</ele><time>2026-03-29T13:22:31.458Z</time></trkpt><trkpt lat="43.1502929" lon="12.1964036"><ele>367.0</ele><time>2026-03-29T13:22:32.458Z</time></trkpt><trkpt lat="43.1502437" lon="12.1963036"><ele>366.8333333333333</ele><time>2026-03-29T13:22:33.459Z</time></trkpt><trkpt lat="43.1501974" lon="12.1962047"><ele>366.66666666666663</ele><time>2026-03-29T13:22:34.458Z</time></trkpt><trkpt lat="43.1501633" lon="12.1961171"><ele>366.5</ele><time>2026-03-29T13:22:35.458Z</time></trkpt><trkpt lat="43.1501457" lon="12.1960214"><ele>366.3333333333333</ele><time>2026-03-29T13:22:36.459Z</time></trkpt><trkpt lat="43.1501484" lon="12.1959151"><ele>366.1666666666667</ele><time>2026-03-29T13:22:37.458Z</time></trkpt><trkpt lat="43.1501696" lon="12.1958141"><ele>366.0</ele><time>2026-03-29T13:22:38.458Z</time></trkpt><trkpt lat="43.1502061" lon="12.1957213"><ele>364.0</ele><time>2026-03-29T13:22:39.458Z</time></trkpt><trkpt lat="43.1502603" lon="12.1956487"><ele>362.0</ele><time>2026-03-29T13:22:40.459Z</time></trkpt><trkpt lat="43.1503179" lon="12.1955812"><ele>360.0</ele><time>2026-03-29T13:22:41.459Z</time></trkpt><trkpt lat="43.1504316" lon="12.1955105"><ele>358.0</ele><time>2026-03-29T13:22:42.458Z</time></trkpt><trkpt lat="43.15052" lon="12.1954367"><ele>356.0</ele><time>2026-03-29T13:22:43.459Z</time></trkpt><trkpt lat="43.1506011" lon="12.1953551"><ele>356.0</ele><time>2026-03-29T13:22:44.459Z</time></trkpt><trkpt lat="43.1506726" lon="12.1952542"><ele>356.0</ele><time>2026-03-29T13:22:45.458Z</time></trkpt><trkpt lat="43.1507348" lon="12.1951698"><ele>356.0</ele><time>2026-03-29T13:22:46.459Z</time></trkpt><trkpt lat="43.1508105" lon="12.1951022"><ele>356.0</ele><time>2026-03-29T13:22:47.459Z</time></trkpt><trkpt lat="43.1508914" lon="12.1950402"><ele>356.0</ele><time>2026-03-29T13:22:48.459Z</time></trkpt><trkpt lat="43.1509802" lon="12.1949904"><ele>357.20000000000005</ele><time>2026-03-29T13:22:49.459Z</time></trkpt><trkpt lat="43.1510741" lon="12.194953"><ele>358.40000000000003</ele><time>2026-03-29T13:22:50.459Z</time></trkpt><trkpt lat="43.1511676" lon="12.1949311"><ele>359.6</ele><time>2026-03-29T13:22:51.458Z</time></trkpt><trkpt lat="43.1512696" lon="12.1949185"><ele>360.8</ele><time>2026-03-29T13:22:52.458Z</time></trkpt><trkpt lat="43.15137" lon="12.1949146"><ele>362.0</ele><time>2026-03-29T13:22:53.458Z</time></trkpt><trkpt lat="43.1514642" lon="12.1949154"><ele>360.6</ele><time>2026-03-29T13:22:54.458Z</time></trkpt><trkpt lat="43.1515464" lon="12.1949271"><ele>359.20000000000005</ele><time>2026-03-29T13:22:55.458Z</time></trkpt><trkpt lat="43.1516557" lon="12.1949207"><ele>357.8</ele><time>2026-03-29T13:22:57.458Z</time></trkpt><trkpt lat="43.1517117" lon="12.1948741"><ele>356.4</ele><time>2026-03-29T13:23:00.458Z</time></trkpt><trkpt lat="43.1516652" lon="12.1947842"><ele>355.0</ele><time>2026-03-29T13:23:03.459Z</time></trkpt><trkpt lat="43.1515501" lon="12.1947483"><ele>356.0</ele><time>2026-03-29T13:23:05.458Z</time></trkpt><trkpt lat="43.1514132" lon="12.1947018"><ele>357.0</ele><time>2026-03-29T13:23:07.459Z</time></trkpt><trkpt lat="43.151336" lon="12.1946765"><ele>358.0</ele><time>2026-03-29T13:23:08.459Z</time></trkpt><trkpt lat="43.1512589" lon="12.1946527"><ele>359.0</ele><time>2026-03-29T13:23:09.458Z</time></trkpt><trkpt lat="43.1511924" lon="12.1946411"><ele>360.0</ele><time>2026-03-29T13:23:10.459Z</time></trkpt><trkpt lat="43.151118" lon="12.1946153"><ele>361.0</ele><time>2026-03-29T13:23:12.458Z</time></trkpt><trkpt lat="43.151005" lon="12.1946157"><ele>361.0</ele><time>2026-03-29T13:23:18.459Z</time></trkpt><trkpt lat="43.1509276" lon="12.1946238"><ele>361.0</ele><time>2026-03-29T13:23:19.459Z</time></trkpt><trkpt lat="43.1508418" lon="12.1946358"><ele>361.0</ele><time>2026-03-29T13:23:20.459Z</time></trkpt><trkpt lat="43.1507469" lon="12.1946618"><ele>361.0</ele><time>2026-03-29T13:23:21.459Z</time></trkpt><trkpt lat="43.1506407" lon="12.1947"><ele>361.0</ele><time>2026-03-29T13:23:22.459Z</time></trkpt><trkpt lat="43.150539" lon="12.1947381"><ele>360.5</ele><time>2026-03-29T13:23:23.458Z</time></trkpt><trkpt lat="43.1504446" lon="12.1947733"><ele>360.0</ele><time>2026-03-29T13:23:24.458Z</time></trkpt><trkpt lat="43.1503611" lon="12.1948062"><ele>359.5</ele><time>2026-03-29T13:23:25.458Z</time></trkpt><trkpt lat="43.1502966" lon="12.1948255"><ele>359.0</ele><time>2026-03-29T13:23:26.459Z</time></trkpt><trkpt lat="43.1502169" lon="12.1947887"><ele>358.5</ele><time>2026-03-29T13:23:28.458Z</time></trkpt><trkpt lat="43.1501652" lon="12.1946539"><ele>358.0</ele><time>2026-03-29T13:23:30.459Z</time></trkpt><trkpt lat="43.1501428" lon="12.1945616"><ele>358.0</ele><time>2026-03-29T13:23:31.459Z</time></trkpt><trkpt lat="43.1501198" lon="12.194455"><ele>358.0</ele><time>2026-03-29T13:23:32.459Z</time></trkpt><trkpt lat="43.1500934" lon="12.1943422"><ele>358.0</ele><time>2026-03-29T13:23:33.458Z</time></trkpt><trkpt lat="43.1500468" lon="12.1942218"><ele>358.0</ele><time>2026-03-29T13:23:34.458Z</time></trkpt><trkpt lat="43.1499823" lon="12.1941065"><ele>358.0</ele><time>2026-03-29T13:23:35.459Z</time></trkpt><trkpt lat="43.1499001" lon="12.1940083"><ele>358.0</ele><time>2026-03-29T13:23:36.459Z</time></trkpt><trkpt lat="43.1498026" lon="12.1939131"><ele>358.0</ele><time>2026-03-29T13:23:37.458Z</time></trkpt><trkpt lat="43.1497048" lon="12.1938209"><ele>358.0</ele><time>2026-03-29T13:23:38.459Z</time></trkpt><trkpt lat="43.1496161" lon="12.1937144"><ele>358.0</ele><time>2026-03-29T13:23:39.459Z</time></trkpt><trkpt lat="43.1495338" lon="12.1935897"><ele>358.0</ele><time>2026-03-29T13:23:40.458Z</time></trkpt><trkpt lat="43.1494684" lon="12.1934538"><ele>358.0</ele><time>2026-03-29T13:23:41.459Z</time></trkpt><trkpt lat="43.1493994" lon="12.1933056"><ele>358.0</ele><time>2026-03-29T13:23:42.458Z</time></trkpt><trkpt lat="43.1493315" lon="12.1931634"><ele>358.0</ele><time>2026-03-29T13:23:43.458Z</time></trkpt><trkpt lat="43.1492697" lon="12.1930137"><ele>360.0</ele><time>2026-03-29T13:23:44.458Z</time></trkpt><trkpt lat="43.1492096" lon="12.1928618"><ele>362.0</ele><time>2026-03-29T13:23:45.457Z</time></trkpt><trkpt lat="43.1491546" lon="12.1927013"><ele>364.0</ele><time>2026-03-29T13:23:46.458Z</time></trkpt><trkpt lat="43.1490928" lon="12.1925482"><ele>366.0</ele><time>2026-03-29T13:23:47.459Z</time></trkpt><trkpt lat="43.1490396" lon="12.1924019"><ele>366.25</ele><time>2026-03-29T13:23:48.459Z</time></trkpt><trkpt lat="43.149009" lon="12.1922562"><ele>366.5</ele><time>2026-03-29T13:23:49.458Z</time></trkpt><trkpt lat="43.1489984" lon="12.1920915"><ele>366.75</ele><time>2026-03-29T13:23:50.458Z</time></trkpt><trkpt lat="43.1490193" lon="12.1919193"><ele>367.0</ele><time>2026-03-29T13:23:51.458Z</time></trkpt><trkpt lat="43.1490599" lon="12.1917307"><ele>367.0</ele><time>2026-03-29T13:23:52.458Z</time></trkpt><trkpt lat="43.1491138" lon="12.1915337"><ele>367.0</ele><time>2026-03-29T13:23:53.459Z</time></trkpt><trkpt lat="43.1491752" lon="12.1913288"><ele>367.0</ele><time>2026-03-29T13:23:54.459Z</time></trkpt><trkpt lat="43.1492371" lon="12.1911387"><ele>367.0</ele><time>2026-03-29T13:23:55.458Z</time></trkpt><trkpt lat="43.1492925" lon="12.190972"><ele>367.0</ele><time>2026-03-29T13:23:56.459Z</time></trkpt><trkpt lat="43.1493421" lon="12.1908307"><ele>367.0</ele><time>2026-03-29T13:23:57.459Z</time></trkpt><trkpt lat="43.1493877" lon="12.1906999"><ele>367.0</ele><time>2026-03-29T13:23:58.458Z</time></trkpt><trkpt lat="43.1494263" lon="12.1905698"><ele>367.66666666666663</ele><time>2026-03-29T13:23:59.458Z</time></trkpt><trkpt lat="43.1494509" lon="12.1904343"><ele>368.3333333333333</ele><time>2026-03-29T13:24:00.459Z</time></trkpt><trkpt lat="43.1494589" lon="12.1902993"><ele>369.0</ele><time>2026-03-29T13:24:01.459Z</time></trkpt><trkpt lat="43.1494557" lon="12.1901674"><ele>369.6666666666667</ele><time>2026-03-29T13:24:02.458Z</time></trkpt><trkpt lat="43.1494377" lon="12.1900613"><ele>370.33333333333337</ele><time>2026-03-29T13:24:03.458Z</time></trkpt><trkpt lat="43.1494031" lon="12.1899766"><ele>371.0</ele><time>2026-03-29T13:24:04.459Z</time></trkpt><trkpt lat="43.1493493" lon="12.1899232"><ele>371.0</ele><time>2026-03-29T13:24:05.458Z</time></trkpt><trkpt lat="43.1492805" lon="12.1899059"><ele>371.0</ele><time>2026-03-29T13:24:06.458Z</time></trkpt><trkpt lat="43.1492091" lon="12.1898895"><ele>371.0</ele><time>2026-03-29T13:24:07.459Z</time></trkpt><trkpt lat="43.1491361" lon="12.1898689"><ele>371.0</ele><time>2026-03-29T13:24:08.459Z</time></trkpt><trkpt lat="43.1490644" lon="12.1898445"><ele>371.0</ele><time>2026-03-29T13:24:09.458Z</time></trkpt><trkpt lat="43.1489921" lon="12.1898228"><ele>371.0</ele><time>2026-03-29T13:24:10.458Z</time></trkpt><trkpt lat="43.1489201" lon="12.1898007"><ele>371.0</ele><time>2026-03-29T13:24:11.458Z</time></trkpt><trkpt lat="43.1488461" lon="12.1897733"><ele>373.0</ele><time>2026-03-29T13:24:12.458Z</time></trkpt><trkpt lat="43.1487673" lon="12.1897305"><ele>375.0</ele><time>2026-03-29T13:24:13.458Z</time></trkpt><trkpt lat="43.1486844" lon="12.1896738"><ele>377.0</ele><time>2026-03-29T13:24:14.458Z</time></trkpt><trkpt lat="43.1485902" lon="12.1896204"><ele>379.0</ele><time>2026-03-29T13:24:15.458Z</time></trkpt><trkpt lat="43.1484954" lon="12.1895742"><ele>381.0</ele><time>2026-03-29T13:24:16.458Z</time></trkpt><trkpt lat="43.1483956" lon="12.189534"><ele>381.0</ele><time>2026-03-29T13:24:17.459Z</time></trkpt><trkpt lat="43.1482918" lon="12.1895034"><ele>381.0</ele><time>2026-03-29T13:24:18.459Z</time></trkpt><trkpt lat="43.1481792" lon="12.1894683"><ele>381.0</ele><time>2026-03-29T13:24:19.459Z</time></trkpt><trkpt lat="43.1480399" lon="12.189456"><ele>381.0</ele><time>2026-03-29T13:24:20.458Z</time></trkpt><trkpt lat="43.1479106" lon="12.189444"><ele>378.25</ele><time>2026-03-29T13:24:21.459Z</time></trkpt><trkpt lat="43.1477845" lon="12.1894315"><ele>375.5</ele><time>2026-03-29T13:24:22.459Z</time></trkpt><trkpt lat="43.1476555" lon="12.1894179"><ele>372.75</ele><time>2026-03-29T13:24:23.459Z</time></trkpt><trkpt lat="43.1475296" lon="12.1893739"><ele>370.0</ele><time>2026-03-29T13:24:24.459Z</time></trkpt><trkpt lat="43.1474181" lon="12.1893419"><ele>367.6</ele><time>2026-03-29T13:24:25.459Z</time></trkpt><trkpt lat="43.1472942" lon="12.189313"><ele>365.2</ele><time>2026-03-29T13:24:26.458Z</time></trkpt><trkpt lat="43.1471839" lon="12.1892919"><ele>362.79999999999995</ele><time>2026-03-29T13:24:27.458Z</time></trkpt><trkpt lat="43.1470865" lon="12.1892834"><ele>360.4</ele><time>2026-03-29T13:24:28.459Z</time></trkpt><trkpt lat="43.1469834" lon="12.1892747"><ele>358.0</ele><time>2026-03-29T13:24:29.458Z</time></trkpt><trkpt lat="43.1469101" lon="12.1893164"><ele>358.0</ele><time>2026-03-29T13:24:30.459Z</time></trkpt><trkpt lat="43.1468225" lon="12.1893445"><ele>358.0</ele><time>2026-03-29T13:24:31.459Z</time></trkpt><trkpt lat="43.146735" lon="12.1893635"><ele>358.0</ele><time>2026-03-29T13:24:32.458Z</time></trkpt><trkpt lat="43.146656" lon="12.1893686"><ele>358.0</ele><time>2026-03-29T13:24:33.458Z</time></trkpt><trkpt lat="43.1465892" lon="12.1893574"><ele>358.0</ele><time>2026-03-29T13:24:34.459Z</time></trkpt><trkpt lat="43.1465039" lon="12.1892906"><ele>358.0</ele><time>2026-03-29T13:24:36.459Z</time></trkpt><trkpt lat="43.1464663" lon="12.1891889"><ele>357.0</ele><time>2026-03-29T13:24:37.458Z</time></trkpt><trkpt lat="43.1464233" lon="12.1890884"><ele>356.0</ele><time>2026-03-29T13:24:38.459Z</time></trkpt><trkpt lat="43.1463684" lon="12.1889724"><ele>355.0</ele><time>2026-03-29T13:24:39.459Z</time></trkpt><trkpt lat="43.1462889" lon="12.1888278"><ele>354.0</ele><time>2026-03-29T13:24:40.459Z</time></trkpt><trkpt lat="43.1462222" lon="12.1886855"><ele>353.0</ele><time>2026-03-29T13:24:41.459Z</time></trkpt><trkpt lat="43.146155" lon="12.1885567"><ele>353.0</ele><time>2026-03-29T13:24:42.459Z</time></trkpt><trkpt lat="43.1461044" lon="12.1884602"><ele>353.0</ele><time>2026-03-29T13:24:43.459Z</time></trkpt><trkpt lat="43.1460555" lon="12.1883863"><ele>353.0</ele><time>2026-03-29T13:24:44.458Z</time></trkpt><trkpt lat="43.145999" lon="12.1883199"><ele>353.0</ele><time>2026-03-29T13:24:45.459Z</time></trkpt><trkpt lat="43.145925" lon="12.1882623"><ele>353.0</ele><time>2026-03-29T13:24:46.458Z</time></trkpt><trkpt lat="43.1458626" lon="12.1882142"><ele>353.0</ele><time>2026-03-29T13:24:47.459Z</time></trkpt><trkpt lat="43.1457929" lon="12.1881398"><ele>354.2</ele><time>2026-03-29T13:24:48.458Z</time></trkpt><trkpt lat="43.1457223" lon="12.1880555"><ele>355.4</ele><time>2026-03-29T13:24:49.459Z</time></trkpt><trkpt lat="43.1456563" lon="12.1879873"><ele>356.59999999999997</ele><time>2026-03-29T13:24:50.458Z</time></trkpt><trkpt lat="43.1455805" lon="12.1879019"><ele>357.79999999999995</ele><time>2026-03-29T13:24:51.458Z</time></trkpt><trkpt lat="43.1455068" lon="12.1878076"><ele>359.0</ele><time>2026-03-29T13:24:52.459Z</time></trkpt><trkpt lat="43.1454391" lon="12.187728"><ele>359.0</ele><time>2026-03-29T13:24:53.458Z</time></trkpt><trkpt lat="43.1453859" lon="12.1876701"><ele>359.0</ele><time>2026-03-29T13:24:54.459Z</time></trkpt><trkpt lat="43.1453174" lon="12.1876135"><ele>359.0</ele><time>2026-03-29T13:24:55.458Z</time></trkpt><trkpt lat="43.1452481" lon="12.1875599"><ele>359.0</ele><time>2026-03-29T13:24:56.458Z</time></trkpt><trkpt lat="43.1451603" lon="12.187514"><ele>359.0</ele><time>2026-03-29T13:24:57.458Z</time></trkpt><trkpt lat="43.1450771" lon="12.1875232"><ele>359.0</ele><time>2026-03-29T13:24:58.458Z</time></trkpt><trkpt lat="43.1449949" lon="12.1875291"><ele>359.0</ele><time>2026-03-29T13:24:59.459Z</time></trkpt><trkpt lat="43.1448934" lon="12.1875695"><ele>359.0</ele><time>2026-03-29T13:25:00.459Z</time></trkpt><trkpt lat="43.1447628" lon="12.1876561"><ele>359.0</ele><time>2026-03-29T13:25:01.458Z</time></trkpt><trkpt lat="43.1446794" lon="12.1877104"><ele>359.0</ele><time>2026-03-29T13:25:02.458Z</time></trkpt><trkpt lat="43.144595" lon="12.1877604"><ele>359.0</ele><time>2026-03-29T13:25:03.458Z</time></trkpt><trkpt lat="43.1445088" lon="12.1877812"><ele>359.1666666666667</ele><time>2026-03-29T13:25:04.459Z</time></trkpt><trkpt lat="43.1444456" lon="12.1877617"><ele>359.33333333333337</ele><time>2026-03-29T13:25:05.458Z</time></trkpt><trkpt lat="43.1443995" lon="12.1876977"><ele>359.5</ele><time>2026-03-29T13:25:06.458Z</time></trkpt><trkpt lat="43.1443747" lon="12.1876042"><ele>359.6666666666667</ele><time>2026-03-29T13:25:07.459Z</time></trkpt><trkpt lat="43.1443753" lon="12.1874874"><ele>359.8333333333333</ele><time>2026-03-29T13:25:08.458Z</time></trkpt><trkpt lat="43.1443747" lon="12.1873427"><ele>360.0</ele><time>2026-03-29T13:25:09.458Z</time></trkpt><trkpt lat="43.1443662" lon="12.1871526"><ele>360.0</ele><time>2026-03-29T13:25:10.459Z</time></trkpt><trkpt lat="43.144363" lon="12.186979"><ele>360.0</ele><time>2026-03-29T13:25:11.458Z</time></trkpt><trkpt lat="43.144356" lon="12.1868157"><ele>360.0</ele><time>2026-03-29T13:25:12.458Z</time></trkpt><trkpt lat="43.1443528" lon="12.1866563"><ele>360.0</ele><time>2026-03-29T13:25:13.459Z</time></trkpt><trkpt lat="43.1443328" lon="12.1864875"><ele>361.6666666666667</ele><time>2026-03-29T13:25:15.459Z</time></trkpt><trkpt lat="43.1442758" lon="12.1864174"><ele>363.3333333333333</ele><time>2026-03-29T13:25:17.459Z</time></trkpt><trkpt lat="43.1443118" lon="12.1862678"><ele>365.0</ele><time>2026-03-29T13:25:20.458Z</time></trkpt><trkpt lat="43.1443536" lon="12.186186"><ele>366.66666666666663</ele><time>2026-03-29T13:25:21.458Z</time></trkpt><trkpt lat="43.1443811" lon="12.1860973"><ele>368.3333333333333</ele><time>2026-03-29T13:25:22.458Z</time></trkpt><trkpt lat="43.1443895" lon="12.1860058"><ele>370.0</ele><time>2026-03-29T13:25:23.459Z</time></trkpt><trkpt lat="43.1443777" lon="12.1859011"><ele>370.0</ele><time>2026-03-29T13:25:24.459Z</time></trkpt><trkpt lat="43.1443679" lon="12.185778"><ele>370.0</ele><time>2026-03-29T13:25:25.459Z</time></trkpt><trkpt lat="43.1443374" lon="12.1856546"><ele>370.0</ele><time>2026-03-29T13:25:26.459Z</time></trkpt><trkpt lat="43.1443058" lon="12.1855366"><ele>370.0</ele><time>2026-03-29T13:25:27.459Z</time></trkpt><trkpt lat="43.1442658" lon="12.1853995"><ele>370.0</ele><time>2026-03-29T13:25:28.459Z</time></trkpt><trkpt lat="43.1442151" lon="12.1852468"><ele>372.6</ele><time>2026-03-29T13:25:29.459Z</time></trkpt><trkpt lat="43.1441767" lon="12.1851183"><ele>375.2</ele><time>2026-03-29T13:25:30.458Z</time></trkpt><trkpt lat="43.1441518" lon="12.1849863"><ele>377.79999999999995</ele><time>2026-03-29T13:25:31.459Z</time></trkpt><trkpt lat="43.1441286" lon="12.1848709"><ele>380.4</ele><time>2026-03-29T13:25:32.458Z</time></trkpt><trkpt lat="43.1441037" lon="12.1847447"><ele>383.0</ele><time>2026-03-29T13:25:33.459Z</time></trkpt><trkpt lat="43.1440781" lon="12.1846163"><ele>383.79999999999995</ele><time>2026-03-29T13:25:34.458Z</time></trkpt><trkpt lat="43.1440267" lon="12.184507"><ele>384.6</ele><time>2026-03-29T13:25:35.459Z</time></trkpt><trkpt lat="43.1439737" lon="12.1843793"><ele>385.4</ele><time>2026-03-29T13:25:36.458Z</time></trkpt><trkpt lat="43.1439181" lon="12.184253"><ele>386.20000000000005</ele><time>2026-03-29T13:25:37.459Z</time></trkpt><trkpt lat="43.1438648" lon="12.1841412"><ele>387.0</ele><time>2026-03-29T13:25:38.459Z</time></trkpt><trkpt lat="43.1438027" lon="12.1840417"><ele>390.40000000000003</ele><time>2026-03-29T13:25:39.459Z</time></trkpt><trkpt lat="43.1436962" lon="12.1839149"><ele>393.8</ele><time>2026-03-29T13:25:41.458Z</time></trkpt><trkpt lat="43.1436347" lon="12.1838377"><ele>397.2</ele><time>2026-03-29T13:25:42.458Z</time></trkpt><trkpt lat="43.1435586" lon="12.1837466"><ele>400.6</ele><time>2026-03-29T13:25:43.459Z</time></trkpt><trkpt lat="43.143467" lon="12.1836435"><ele>404.0</ele><time>2026-03-29T13:25:44.459Z</time></trkpt><trkpt lat="43.1433884" lon="12.1835514"><ele>404.0</ele><time>2026-03-29T13:25:45.459Z</time></trkpt><trkpt lat="43.1432999" lon="12.1834532"><ele>404.0</ele><time>2026-03-29T13:25:46.459Z</time></trkpt><trkpt lat="43.1432374" lon="12.1833689"><ele>404.0</ele><time>2026-03-29T13:25:47.459Z</time></trkpt><trkpt lat="43.1431718" lon="12.1832894"><ele>404.0</ele><time>2026-03-29T13:25:48.458Z</time></trkpt><trkpt lat="43.1430986" lon="12.1832108"><ele>404.0</ele><time>2026-03-29T13:25:49.458Z</time></trkpt><trkpt lat="43.1430133" lon="12.1831477"><ele>405.8333333333333</ele><time>2026-03-29T13:25:50.459Z</time></trkpt><trkpt lat="43.1429118" lon="12.1831058"><ele>407.66666666666663</ele><time>2026-03-29T13:25:51.458Z</time></trkpt><trkpt lat="43.1428197" lon="12.1830927"><ele>409.5</ele><time>2026-03-29T13:25:52.459Z</time></trkpt><trkpt lat="43.1427255" lon="12.1830891"><ele>411.33333333333337</ele><time>2026-03-29T13:25:53.458Z</time></trkpt><trkpt lat="43.1426513" lon="12.1830459"><ele>413.1666666666667</ele><time>2026-03-29T13:25:54.458Z</time></trkpt><trkpt lat="43.1425797" lon="12.18304"><ele>415.0</ele><time>2026-03-29T13:25:55.459Z</time></trkpt><trkpt lat="43.1424787" lon="12.183"><ele>415.0</ele><time>2026-03-29T13:25:56.459Z</time></trkpt><trkpt lat="43.1423906" lon="12.1829769"><ele>415.0</ele><time>2026-03-29T13:25:57.459Z</time></trkpt><trkpt lat="43.1422786" lon="12.1829224"><ele>415.0</ele><time>2026-03-29T13:25:58.457Z</time></trkpt><trkpt lat="43.142203" lon="12.1828845"><ele>415.0</ele><time>2026-03-29T13:25:59.458Z</time></trkpt><trkpt lat="43.1421216" lon="12.1828331"><ele>415.0</ele><time>2026-03-29T13:26:00.459Z</time></trkpt><trkpt lat="43.1420171" lon="12.1827721"><ele>414.0</ele><time>2026-03-29T13:26:01.459Z</time></trkpt><trkpt lat="43.1419339" lon="12.1827173"><ele>413.0</ele><time>2026-03-29T13:26:02.459Z</time></trkpt><trkpt lat="43.1418566" lon="12.1826675"><ele>412.0</ele><time>2026-03-29T13:26:03.459Z</time></trkpt><trkpt lat="43.1417438" lon="12.182652"><ele>411.0</ele><time>2026-03-29T13:26:05.458Z</time></trkpt><trkpt lat="43.1416493" lon="12.1826754"><ele>410.0</ele><time>2026-03-29T13:26:09.458Z</time></trkpt><trkpt lat="43.1415501" lon="12.1826651"><ele>410.3333333333333</ele><time>2026-03-29T13:26:11.459Z</time></trkpt><trkpt lat="43.1414828" lon="12.1826658"><ele>410.66666666666663</ele><time>2026-03-29T13:26:12.458Z</time></trkpt><trkpt lat="43.1414173" lon="12.1826864"><ele>411.0</ele><time>2026-03-29T13:26:13.459Z</time></trkpt><trkpt lat="43.1412846" lon="12.182733"><ele>411.33333333333337</ele><time>2026-03-29T13:26:15.458Z</time></trkpt><trkpt lat="43.1412175" lon="12.1827595"><ele>411.6666666666667</ele><time>2026-03-29T13:26:16.458Z</time></trkpt><trkpt lat="43.1411197" lon="12.182793"><ele>412.0</ele><time>2026-03-29T13:26:17.458Z</time></trkpt><trkpt lat="43.1410463" lon="12.1828077"><ele>412.00000000000006</ele><time>2026-03-29T13:26:18.458Z</time></trkpt><trkpt lat="43.1409501" lon="12.1827959"><ele>412.0</ele><time>2026-03-29T13:26:20.459Z</time></trkpt><trkpt lat="43.1408864" lon="12.1827911"><ele>412.0</ele><time>2026-03-29T13:26:24.458Z</time></trkpt><trkpt lat="43.1408091" lon="12.1828358"><ele>412.0</ele><time>2026-03-29T13:26:26.459Z</time></trkpt><trkpt lat="43.1407288" lon="12.1828691"><ele>412.00000000000006</ele><time>2026-03-29T13:26:28.459Z</time></trkpt><trkpt lat="43.1406367" lon="12.1829143"><ele>412.0</ele><time>2026-03-29T13:26:30.459Z</time></trkpt><trkpt lat="43.1405712" lon="12.18294"><ele>412.40000000000003</ele><time>2026-03-29T13:26:31.457Z</time></trkpt><trkpt lat="43.1404966" lon="12.182962"><ele>412.8</ele><time>2026-03-29T13:26:32.458Z</time></trkpt><trkpt lat="43.1404072" lon="12.1829896"><ele>413.2</ele><time>2026-03-29T13:26:33.458Z</time></trkpt><trkpt lat="43.1403176" lon="12.1830069"><ele>413.6</ele><time>2026-03-29T13:26:34.458Z</time></trkpt><trkpt lat="43.1402195" lon="12.1830224"><ele>414.0</ele><time>2026-03-29T13:26:35.458Z</time></trkpt><trkpt lat="43.1401135" lon="12.1830281"><ele>414.0</ele><time>2026-03-29T13:26:36.458Z</time></trkpt><trkpt lat="43.1400041" lon="12.1830257"><ele>414.0</ele><time>2026-03-29T13:26:37.459Z</time></trkpt><trkpt lat="43.1398917" lon="12.1830234"><ele>414.0</ele><time>2026-03-29T13:26:38.458Z</time></trkpt><trkpt lat="43.1397795" lon="12.1830346"><ele>414.0</ele><time>2026-03-29T13:26:39.459Z</time></trkpt><trkpt lat="43.1396697" lon="12.183059"><ele>414.0</ele><time>2026-03-29T13:26:40.459Z</time></trkpt><trkpt lat="43.1395589" lon="12.1830764"><ele>414.5</ele><time>2026-03-29T13:26:41.459Z</time></trkpt><trkpt lat="43.1394496" lon="12.1830816"><ele>415.0</ele><time>2026-03-29T13:26:42.459Z</time></trkpt><trkpt lat="43.1393381" lon="12.1830915"><ele>415.5</ele><time>2026-03-29T13:26:43.458Z</time></trkpt><trkpt lat="43.139225" lon="12.1831117"><ele>416.0</ele><time>2026-03-29T13:26:44.459Z</time></trkpt><trkpt lat="43.1391092" lon="12.1831346"><ele>415.5</ele><time>2026-03-29T13:26:45.458Z</time></trkpt><trkpt lat="43.1389923" lon="12.1831519"><ele>415.0</ele><time>2026-03-29T13:26:46.459Z</time></trkpt><trkpt lat="43.1388755" lon="12.1831531"><ele>414.5</ele><time>2026-03-29T13:26:47.458Z</time></trkpt><trkpt lat="43.1387594" lon="12.1831371"><ele>414.0</ele><time>2026-03-29T13:26:48.458Z</time></trkpt><trkpt lat="43.138636" lon="12.18312"><ele>414.0</ele><time>2026-03-29T13:26:49.459Z</time></trkpt><trkpt lat="43.1385102" lon="12.1831"><ele>414.0</ele><time>2026-03-29T13:26:50.459Z</time></trkpt><trkpt lat="43.1383882" lon="12.1830775"><ele>414.0</ele><time>2026-03-29T13:26:51.458Z</time></trkpt><trkpt lat="43.1382731" lon="12.183056"><ele>414.0</ele><time>2026-03-29T13:26:52.457Z</time></trkpt><trkpt lat="43.1381629" lon="12.1830365"><ele>412.6</ele><time>2026-03-29T13:26:53.459Z</time></trkpt><trkpt lat="43.1380577" lon="12.183027"><ele>411.2</ele><time>2026-03-29T13:26:54.458Z</time></trkpt><trkpt lat="43.1379591" lon="12.1830258"><ele>409.8</ele><time>2026-03-29T13:26:55.459Z</time></trkpt><trkpt lat="43.1378634" lon="12.1830219"><ele>408.40000000000003</ele><time>2026-03-29T13:26:56.458Z</time></trkpt><trkpt lat="43.1377759" lon="12.183011"><ele>407.0</ele><time>2026-03-29T13:26:57.459Z</time></trkpt><trkpt lat="43.1376978" lon="12.1829984"><ele>406.99999999999994</ele><time>2026-03-29T13:26:58.459Z</time></trkpt><trkpt lat="43.13763" lon="12.1829904"><ele>407.0</ele><time>2026-03-29T13:26:59.459Z</time></trkpt><trkpt lat="43.137535" lon="12.1830299"><ele>407.0</ele><time>2026-03-29T13:27:01.458Z</time></trkpt><trkpt lat="43.137487" lon="12.1831125"><ele>407.0</ele><time>2026-03-29T13:27:05.459Z</time></trkpt><trkpt lat="43.1374505" lon="12.1831949"><ele>406.99999999999994</ele><time>2026-03-29T13:27:07.459Z</time></trkpt><trkpt lat="43.1374214" lon="12.1833273"><ele>407.0</ele><time>2026-03-29T13:27:09.458Z</time></trkpt><trkpt lat="43.1374062" lon="12.1834217"><ele>406.8333333333333</ele><time>2026-03-29T13:27:10.459Z</time></trkpt><trkpt lat="43.1373894" lon="12.1835159"><ele>406.66666666666663</ele><time>2026-03-29T13:27:11.459Z</time></trkpt><trkpt lat="43.1373681" lon="12.1836113"><ele>406.5</ele><time>2026-03-29T13:27:12.458Z</time></trkpt><trkpt lat="43.1373491" lon="12.183707"><ele>406.33333333333337</ele><time>2026-03-29T13:27:13.459Z</time></trkpt><trkpt lat="43.1373269" lon="12.1838114"><ele>406.1666666666667</ele><time>2026-03-29T13:27:14.458Z</time></trkpt><trkpt lat="43.1372985" lon="12.1839109"><ele>406.0</ele><time>2026-03-29T13:27:15.459Z</time></trkpt><trkpt lat="43.1372505" lon="12.1839989"><ele>407.8</ele><time>2026-03-29T13:27:16.458Z</time></trkpt><trkpt lat="43.1371892" lon="12.1840423"><ele>409.6</ele><time>2026-03-29T13:27:17.458Z</time></trkpt><trkpt lat="43.1371171" lon="12.1840915"><ele>411.4</ele><time>2026-03-29T13:27:18.458Z</time></trkpt><trkpt lat="43.1369874" lon="12.1840755"><ele>413.2</ele><time>2026-03-29T13:27:19.458Z</time></trkpt><trkpt lat="43.1368682" lon="12.1841001"><ele>415.0</ele><time>2026-03-29T13:27:20.458Z</time></trkpt><trkpt lat="43.1367481" lon="12.184124"><ele>415.0</ele><time>2026-03-29T13:27:21.458Z</time></trkpt><trkpt lat="43.1366307" lon="12.1841721"><ele>415.0</ele><time>2026-03-29T13:27:22.458Z</time></trkpt><trkpt lat="43.1365106" lon="12.1842393"><ele>415.0</ele><time>2026-03-29T13:27:23.458Z</time></trkpt><trkpt lat="43.1363925" lon="12.1843281"><ele>415.0</ele><time>2026-03-29T13:27:24.458Z</time></trkpt><trkpt lat="43.1362795" lon="12.1844175"><ele>413.6666666666667</ele><time>2026-03-29T13:27:25.459Z</time></trkpt><trkpt lat="43.1361783" lon="12.1844858"><ele>412.33333333333337</ele><time>2026-03-29T13:27:26.458Z</time></trkpt><trkpt lat="43.1360951" lon="12.184517"><ele>411.0</ele><time>2026-03-29T13:27:27.458Z</time></trkpt><trkpt lat="43.1360157" lon="12.1845196"><ele>409.66666666666663</ele><time>2026-03-29T13:27:28.458Z</time></trkpt><trkpt lat="43.1359369" lon="12.1844654"><ele>408.3333333333333</ele><time>2026-03-29T13:27:29.458Z</time></trkpt><trkpt lat="43.1358591" lon="12.1844274"><ele>407.0</ele><time>2026-03-29T13:27:30.458Z</time></trkpt><trkpt lat="43.1357724" lon="12.1844022"><ele>404.8333333333333</ele><time>2026-03-29T13:27:31.458Z</time></trkpt><trkpt lat="43.1356912" lon="12.1843974"><ele>402.66666666666663</ele><time>2026-03-29T13:27:32.459Z</time></trkpt><trkpt lat="43.1356218" lon="12.1843972"><ele>400.5</ele><time>2026-03-29T13:27:33.459Z</time></trkpt><trkpt lat="43.1355555" lon="12.1844046"><ele>398.33333333333337</ele><time>2026-03-29T13:27:34.459Z</time></trkpt><trkpt lat="43.1354543" lon="12.1844237"><ele>396.1666666666667</ele><time>2026-03-29T13:27:36.458Z</time></trkpt><trkpt lat="43.1354057" lon="12.1843415"><ele>394.0</ele><time>2026-03-29T13:27:39.458Z</time></trkpt><trkpt lat="43.1354245" lon="12.1841857"><ele>394.00000000000006</ele><time>2026-03-29T13:27:41.458Z</time></trkpt><trkpt lat="43.1354591" lon="12.1840989"><ele>394.0</ele><time>2026-03-29T13:27:42.459Z</time></trkpt><trkpt lat="43.1354995" lon="12.1840072"><ele>394.0</ele><time>2026-03-29T13:27:43.458Z</time></trkpt><trkpt lat="43.1355502" lon="12.1839102"><ele>394.0</ele><time>2026-03-29T13:27:44.458Z</time></trkpt><trkpt lat="43.1356159" lon="12.1838135"><ele>394.00000000000006</ele><time>2026-03-29T13:27:45.459Z</time></trkpt><trkpt lat="43.1356971" lon="12.183719"><ele>394.0</ele><time>2026-03-29T13:27:46.459Z</time></trkpt><trkpt lat="43.1358648" lon="12.1835266"><ele>394.2</ele><time>2026-03-29T13:27:48.458Z</time></trkpt><trkpt lat="43.1359273" lon="12.1834197"><ele>394.4</ele><time>2026-03-29T13:27:49.459Z</time></trkpt><trkpt lat="43.1359751" lon="12.1832965"><ele>394.6</ele><time>2026-03-29T13:27:50.459Z</time></trkpt><trkpt lat="43.1360051" lon="12.1831646"><ele>394.8</ele><time>2026-03-29T13:27:51.458Z</time></trkpt><trkpt lat="43.1360191" lon="12.1830384"><ele>395.0</ele><time>2026-03-29T13:27:52.458Z</time></trkpt><trkpt lat="43.1360179" lon="12.1829385"><ele>394.66666666666663</ele><time>2026-03-29T13:27:53.459Z</time></trkpt><trkpt lat="43.1359945" lon="12.1828498"><ele>394.3333333333333</ele><time>2026-03-29T13:27:54.458Z</time></trkpt><trkpt lat="43.135955" lon="12.1827707"><ele>394.0</ele><time>2026-03-29T13:27:55.458Z</time></trkpt><trkpt lat="43.1359015" lon="12.1826949"><ele>393.66666666666663</ele><time>2026-03-29T13:27:56.458Z</time></trkpt><trkpt lat="43.1358453" lon="12.1826128"><ele>393.3333333333333</ele><time>2026-03-29T13:27:57.458Z</time></trkpt><trkpt lat="43.1357911" lon="12.1825188"><ele>393.0</ele><time>2026-03-29T13:27:58.459Z</time></trkpt><trkpt lat="43.1357331" lon="12.1824223"><ele>392.5</ele><time>2026-03-29T13:27:59.459Z</time></trkpt><trkpt lat="43.1356855" lon="12.1823341"><ele>392.0</ele><time>2026-03-29T13:28:00.459Z</time></trkpt><trkpt lat="43.1356428" lon="12.1822564"><ele>391.5</ele><time>2026-03-29T13:28:01.458Z</time></trkpt><trkpt lat="43.1355955" lon="12.1821877"><ele>391.0</ele><time>2026-03-29T13:28:02.458Z</time></trkpt><trkpt lat="43.1355311" lon="12.1821302"><ele>390.5</ele><time>2026-03-29T13:28:03.458Z</time></trkpt><trkpt lat="43.1354586" lon="12.1820665"><ele>390.0</ele><time>2026-03-29T13:28:04.459Z</time></trkpt><trkpt lat="43.1353805" lon="12.1819937"><ele>390.0</ele><time>2026-03-29T13:28:05.458Z</time></trkpt><trkpt lat="43.1352981" lon="12.1819004"><ele>390.0</ele><time>2026-03-29T13:28:06.458Z</time></trkpt><trkpt lat="43.1352151" lon="12.1818076"><ele>390.0</ele><time>2026-03-29T13:28:07.459Z</time></trkpt><trkpt lat="43.1351158" lon="12.1817207"><ele>390.0</ele><time>2026-03-29T13:28:08.458Z</time></trkpt><trkpt lat="43.1350103" lon="12.1816345"><ele>390.0</ele><time>2026-03-29T13:28:09.459Z</time></trkpt><trkpt lat="43.134907" lon="12.1815356"><ele>390.0</ele><time>2026-03-29T13:28:10.458Z</time></trkpt><trkpt lat="43.1348003" lon="12.1814451"><ele>390.0</ele><time>2026-03-29T13:28:11.459Z</time></trkpt><trkpt lat="43.134675" lon="12.1813688"><ele>390.0</ele><time>2026-03-29T13:28:12.458Z</time></trkpt><trkpt lat="43.134542" lon="12.1813046"><ele>390.75</ele><time>2026-03-29T13:28:13.458Z</time></trkpt><trkpt lat="43.134414" lon="12.1812323"><ele>391.5</ele><time>2026-03-29T13:28:14.458Z</time></trkpt><trkpt lat="43.1342846" lon="12.1811563"><ele>392.25</ele><time>2026-03-29T13:28:15.459Z</time></trkpt><trkpt lat="43.1341586" lon="12.1810806"><ele>393.0</ele><time>2026-03-29T13:28:16.459Z</time></trkpt><trkpt lat="43.1340337" lon="12.1810133"><ele>391.25</ele><time>2026-03-29T13:28:17.459Z</time></trkpt><trkpt lat="43.1339054" lon="12.1809496"><ele>389.5</ele><time>2026-03-29T13:28:18.459Z</time></trkpt><trkpt lat="43.1337699" lon="12.1808847"><ele>387.75</ele><time>2026-03-29T13:28:19.458Z</time></trkpt><trkpt lat="43.1336271" lon="12.1808136"><ele>386.0</ele><time>2026-03-29T13:28:20.458Z</time></trkpt><trkpt lat="43.133482" lon="12.1807407"><ele>386.0</ele><time>2026-03-29T13:28:21.459Z</time></trkpt><trkpt lat="43.1333317" lon="12.18067"><ele>386.0</ele><time>2026-03-29T13:28:22.457Z</time></trkpt><trkpt lat="43.1331764" lon="12.1806032"><ele>386.0</ele><time>2026-03-29T13:28:23.459Z</time></trkpt><trkpt lat="43.1330193" lon="12.1805415"><ele>386.0</ele><time>2026-03-29T13:28:24.459Z</time></trkpt><trkpt lat="43.1328657" lon="12.1804794"><ele>386.0</ele><time>2026-03-29T13:28:25.459Z</time></trkpt><trkpt lat="43.1327188" lon="12.1804171"><ele>386.0</ele><time>2026-03-29T13:28:26.458Z</time></trkpt><trkpt lat="43.1325805" lon="12.1803613"><ele>386.0</ele><time>2026-03-29T13:28:27.459Z</time></trkpt><trkpt lat="43.1324479" lon="12.1803008"><ele>386.0</ele><time>2026-03-29T13:28:28.458Z</time></trkpt><trkpt lat="43.1323218" lon="12.1802404"><ele>386.0</ele><time>2026-03-29T13:28:29.458Z</time></trkpt><trkpt lat="43.1321974" lon="12.1801742"><ele>386.0</ele><time>2026-03-29T13:28:30.459Z</time></trkpt><trkpt lat="43.132074" lon="12.1801071"><ele>385.25</ele><time>2026-03-29T13:28:31.46Z</time></trkpt><trkpt lat="43.1319436" lon="12.1800462"><ele>384.5</ele><time>2026-03-29T13:28:32.459Z</time></trkpt><trkpt lat="43.1318122" lon="12.1800072"><ele>383.75</ele><time>2026-03-29T13:28:33.46Z</time></trkpt><trkpt lat="43.1316902" lon="12.1799667"><ele>383.0</ele><time>2026-03-29T13:28:34.459Z</time></trkpt><trkpt lat="43.1315751" lon="12.1799177"><ele>381.5</ele><time>2026-03-29T13:28:35.459Z</time></trkpt><trkpt lat="43.131377" lon="12.1797795"><ele>380.0</ele><time>2026-03-29T13:28:37.461Z</time></trkpt><trkpt lat="43.1312802" lon="12.1797074"><ele>378.5</ele><time>2026-03-29T13:28:38.459Z</time></trkpt><trkpt lat="43.1311819" lon="12.1796572"><ele>377.0</ele><time>2026-03-29T13:28:39.459Z</time></trkpt><trkpt lat="43.1310775" lon="12.1796192"><ele>377.0</ele><time>2026-03-29T13:28:40.459Z</time></trkpt><trkpt lat="43.1309732" lon="12.1795816"><ele>377.0</ele><time>2026-03-29T13:28:41.459Z</time></trkpt><trkpt lat="43.1308668" lon="12.1795418"><ele>377.0</ele><time>2026-03-29T13:28:42.46Z</time></trkpt><trkpt lat="43.1307565" lon="12.1794979"><ele>377.0</ele><time>2026-03-29T13:28:43.459Z</time></trkpt><trkpt lat="43.1306386" lon="12.1794546"><ele>377.6666666666667</ele><time>2026-03-29T13:28:44.46Z</time></trkpt><trkpt lat="43.1303947" lon="12.1793528"><ele>378.3333333333333</ele><time>2026-03-29T13:28:46.459Z</time></trkpt><trkpt lat="43.1302769" lon="12.1792966"><ele>379.0</ele><time>2026-03-29T13:28:47.46Z</time></trkpt><trkpt lat="43.130157" lon="12.1792466"><ele>379.0</ele><time>2026-03-29T13:28:48.46Z</time></trkpt><trkpt lat="43.1300318" lon="12.1791958"><ele>379.0</ele><time>2026-03-29T13:28:49.459Z</time></trkpt><trkpt lat="43.1299075" lon="12.1791378"><ele>379.0</ele><time>2026-03-29T13:28:50.459Z</time></trkpt><trkpt lat="43.1297797" lon="12.179079"><ele>379.0</ele><time>2026-03-29T13:28:51.459Z</time></trkpt><trkpt lat="43.1296463" lon="12.1790186"><ele>377.5</ele><time>2026-03-29T13:28:52.459Z</time></trkpt><trkpt lat="43.1295133" lon="12.1789586"><ele>376.0</ele><time>2026-03-29T13:28:53.459Z</time></trkpt><trkpt lat="43.1293809" lon="12.178891"><ele>374.5</ele><time>2026-03-29T13:28:54.46Z</time></trkpt><trkpt lat="43.1292468" lon="12.1788201"><ele>373.0</ele><time>2026-03-29T13:28:55.46Z</time></trkpt><trkpt lat="43.1291109" lon="12.1787469"><ele>373.75</ele><time>2026-03-29T13:28:56.459Z</time></trkpt><trkpt lat="43.1289737" lon="12.1786747"><ele>374.5</ele><time>2026-03-29T13:28:57.459Z</time></trkpt><trkpt lat="43.1288322" lon="12.1786046"><ele>375.25</ele><time>2026-03-29T13:28:58.46Z</time></trkpt><trkpt lat="43.1286942" lon="12.1785342"><ele>376.0</ele><time>2026-03-29T13:28:59.459Z</time></trkpt><trkpt lat="43.1285587" lon="12.178463"><ele>376.0</ele><time>2026-03-29T13:29:00.459Z</time></trkpt><trkpt lat="43.1284344" lon="12.1783953"><ele>376.0</ele><time>2026-03-29T13:29:01.459Z</time></trkpt><trkpt lat="43.1283201" lon="12.1783144"><ele>376.0</ele><time>2026-03-29T13:29:02.459Z</time></trkpt><trkpt lat="43.1282085" lon="12.1782261"><ele>376.0</ele><time>2026-03-29T13:29:03.459Z</time></trkpt><trkpt lat="43.1281009" lon="12.1781295"><ele>375.25</ele><time>2026-03-29T13:29:04.46Z</time></trkpt><trkpt lat="43.1280002" lon="12.1780284"><ele>374.5</ele><time>2026-03-29T13:29:05.46Z</time></trkpt><trkpt lat="43.1279059" lon="12.1779228"><ele>373.75</ele><time>2026-03-29T13:29:06.46Z</time></trkpt><trkpt lat="43.1278199" lon="12.1778149"><ele>373.0</ele><time>2026-03-29T13:29:07.459Z</time></trkpt><trkpt lat="43.1277373" lon="12.1776978"><ele>373.0</ele><time>2026-03-29T13:29:08.46Z</time></trkpt><trkpt lat="43.1276593" lon="12.1775831"><ele>373.0</ele><time>2026-03-29T13:29:09.459Z</time></trkpt><trkpt lat="43.1275915" lon="12.1774849"><ele>373.0</ele><time>2026-03-29T13:29:10.46Z</time></trkpt><trkpt lat="43.1275321" lon="12.1774062"><ele>373.0</ele><time>2026-03-29T13:29:11.46Z</time></trkpt><trkpt lat="43.1274817" lon="12.1773439"><ele>373.0</ele><time>2026-03-29T13:29:12.459Z</time></trkpt><trkpt lat="43.1274001" lon="12.1772689"><ele>373.3333333333333</ele><time>2026-03-29T13:29:14.459Z</time></trkpt><trkpt lat="43.1272983" lon="12.1772391"><ele>373.66666666666663</ele><time>2026-03-29T13:29:16.46Z</time></trkpt><trkpt lat="43.1272087" lon="12.1772608"><ele>374.0</ele><time>2026-03-29T13:29:18.46Z</time></trkpt><trkpt lat="43.1271544" lon="12.1773073"><ele>374.3333333333333</ele><time>2026-03-29T13:29:20.459Z</time></trkpt><trkpt lat="43.1271337" lon="12.1774025"><ele>374.6666666666667</ele><time>2026-03-29T13:29:22.459Z</time></trkpt><trkpt lat="43.1270785" lon="12.1775075"><ele>375.0</ele><time>2026-03-29T13:29:25.46Z</time></trkpt><trkpt lat="43.1269968" lon="12.1776166"><ele>375.0</ele><time>2026-03-29T13:29:27.459Z</time></trkpt><trkpt lat="43.1269408" lon="12.1776725"><ele>375.0</ele><time>2026-03-29T13:29:28.46Z</time></trkpt><trkpt lat="43.1268804" lon="12.1777322"><ele>375.0</ele><time>2026-03-29T13:29:29.459Z</time></trkpt><trkpt lat="43.1268141" lon="12.1777999"><ele>375.0</ele><time>2026-03-29T13:29:30.46Z</time></trkpt><trkpt lat="43.1267281" lon="12.177857"><ele>375.0</ele><time>2026-03-29T13:29:31.459Z</time></trkpt><trkpt lat="43.1266415" lon="12.1778895"><ele>375.0</ele><time>2026-03-29T13:29:32.46Z</time></trkpt><trkpt lat="43.1265418" lon="12.1779056"><ele>377.0</ele><time>2026-03-29T13:29:33.46Z</time></trkpt><trkpt lat="43.1264426" lon="12.1779077"><ele>379.0</ele><time>2026-03-29T13:29:34.459Z</time></trkpt><trkpt lat="43.1263415" lon="12.1779088"><ele>381.0</ele><time>2026-03-29T13:29:35.46Z</time></trkpt><trkpt lat="43.1262372" lon="12.1779122"><ele>383.0</ele><time>2026-03-29T13:29:36.46Z</time></trkpt><trkpt lat="43.1261298" lon="12.1779209"><ele>385.0</ele><time>2026-03-29T13:29:37.459Z</time></trkpt><trkpt lat="43.1260226" lon="12.1779307"><ele>385.0</ele><time>2026-03-29T13:29:38.46Z</time></trkpt><trkpt lat="43.1259232" lon="12.1779379"><ele>385.0</ele><time>2026-03-29T13:29:39.459Z</time></trkpt><trkpt lat="43.1258246" lon="12.1779456"><ele>385.0</ele><time>2026-03-29T13:29:40.46Z</time></trkpt><trkpt lat="43.1257313" lon="12.1779601"><ele>385.0</ele><time>2026-03-29T13:29:41.46Z</time></trkpt><trkpt lat="43.1256437" lon="12.177983"><ele>385.0</ele><time>2026-03-29T13:29:42.459Z</time></trkpt><trkpt lat="43.1255543" lon="12.1780115"><ele>384.50000000000006</ele><time>2026-03-29T13:29:43.46Z</time></trkpt><trkpt lat="43.1254718" lon="12.1780554"><ele>384.0</ele><time>2026-03-29T13:29:44.459Z</time></trkpt><trkpt lat="43.1254023" lon="12.178111"><ele>383.5</ele><time>2026-03-29T13:29:45.459Z</time></trkpt><trkpt lat="43.1253314" lon="12.1781923"><ele>383.0</ele><time>2026-03-29T13:29:46.459Z</time></trkpt><trkpt lat="43.1252815" lon="12.1782734"><ele>382.5</ele><time>2026-03-29T13:29:47.46Z</time></trkpt><trkpt lat="43.1252318" lon="12.1783623"><ele>382.0</ele><time>2026-03-29T13:29:48.46Z</time></trkpt><trkpt lat="43.1251874" lon="12.1784493"><ele>382.0</ele><time>2026-03-29T13:29:49.46Z</time></trkpt><trkpt lat="43.1251245" lon="12.1785368"><ele>382.0</ele><time>2026-03-29T13:29:50.46Z</time></trkpt><trkpt lat="43.1250635" lon="12.17862"><ele>382.0</ele><time>2026-03-29T13:29:51.459Z</time></trkpt><trkpt lat="43.1250039" lon="12.1786865"><ele>382.0</ele><time>2026-03-29T13:29:52.458Z</time></trkpt><trkpt lat="43.1249542" lon="12.1787401"><ele>382.0</ele><time>2026-03-29T13:29:53.46Z</time></trkpt><trkpt lat="43.124888" lon="12.1787913"><ele>382.0</ele><time>2026-03-29T13:29:55.46Z</time></trkpt><trkpt lat="43.1248411" lon="12.1789217"><ele>380.8</ele><time>2026-03-29T13:29:58.46Z</time></trkpt><trkpt lat="43.124817" lon="12.1790863"><ele>379.6</ele><time>2026-03-29T13:30:00.459Z</time></trkpt><trkpt lat="43.1247953" lon="12.1792531"><ele>378.40000000000003</ele><time>2026-03-29T13:30:02.459Z</time></trkpt><trkpt lat="43.1247821" lon="12.1793532"><ele>377.20000000000005</ele><time>2026-03-29T13:30:03.459Z</time></trkpt><trkpt lat="43.1247736" lon="12.1794641"><ele>376.0</ele><time>2026-03-29T13:30:04.46Z</time></trkpt><trkpt lat="43.1247633" lon="12.1795909"><ele>376.0</ele><time>2026-03-29T13:30:05.459Z</time></trkpt><trkpt lat="43.1247549" lon="12.1797099"><ele>376.0</ele><time>2026-03-29T13:30:06.459Z</time></trkpt><trkpt lat="43.1247473" lon="12.1798348"><ele>376.0</ele><time>2026-03-29T13:30:07.46Z</time></trkpt><trkpt lat="43.1247396" lon="12.1799548"><ele>376.0</ele><time>2026-03-29T13:30:08.459Z</time></trkpt><trkpt lat="43.1247292" lon="12.1800774"><ele>376.0</ele><time>2026-03-29T13:30:09.459Z</time></trkpt><trkpt lat="43.1247165" lon="12.1802085"><ele>377.6</ele><time>2026-03-29T13:30:10.46Z</time></trkpt><trkpt lat="43.1247016" lon="12.1803375"><ele>379.20000000000005</ele><time>2026-03-29T13:30:11.459Z</time></trkpt><trkpt lat="43.1246879" lon="12.18046"><ele>380.79999999999995</ele><time>2026-03-29T13:30:12.46Z</time></trkpt><trkpt lat="43.1246753" lon="12.1805823"><ele>382.4</ele><time>2026-03-29T13:30:13.46Z</time></trkpt><trkpt lat="43.1246663" lon="12.1807063"><ele>384.0</ele><time>2026-03-29T13:30:14.459Z</time></trkpt><trkpt lat="43.1246621" lon="12.1808322"><ele>384.0</ele><time>2026-03-29T13:30:15.459Z</time></trkpt><trkpt lat="43.124668" lon="12.1809649"><ele>384.0</ele><time>2026-03-29T13:30:16.46Z</time></trkpt><trkpt lat="43.1246844" lon="12.1811069"><ele>384.0</ele><time>2026-03-29T13:30:17.459Z</time></trkpt><trkpt lat="43.1247056" lon="12.1812511"><ele>384.0</ele><time>2026-03-29T13:30:18.46Z</time></trkpt><trkpt lat="43.124733" lon="12.1814008"><ele>384.0</ele><time>2026-03-29T13:30:19.46Z</time></trkpt><trkpt lat="43.1247607" lon="12.1815462"><ele>382.75</ele><time>2026-03-29T13:30:20.46Z</time></trkpt><trkpt lat="43.124775" lon="12.1816989"><ele>381.5</ele><time>2026-03-29T13:30:21.459Z</time></trkpt><trkpt lat="43.1247839" lon="12.181855"><ele>380.25</ele><time>2026-03-29T13:30:22.46Z</time></trkpt><trkpt lat="43.1247896" lon="12.1820125"><ele>379.0</ele><time>2026-03-29T13:30:23.46Z</time></trkpt><trkpt lat="43.1247992" lon="12.1821677"><ele>379.0</ele><time>2026-03-29T13:30:24.459Z</time></trkpt><trkpt lat="43.1248079" lon="12.1822967"><ele>379.0</ele><time>2026-03-29T13:30:25.459Z</time></trkpt><trkpt lat="43.1247992" lon="12.1823957"><ele>379.0</ele><time>2026-03-29T13:30:26.46Z</time></trkpt><trkpt lat="43.1247641" lon="12.1824854"><ele>379.0</ele><time>2026-03-29T13:30:27.459Z</time></trkpt><trkpt lat="43.1247185" lon="12.1825652"><ele>379.0</ele><time>2026-03-29T13:30:28.46Z</time></trkpt><trkpt lat="43.1246714" lon="12.1826441"><ele>379.0</ele><time>2026-03-29T13:30:29.459Z</time></trkpt><trkpt lat="43.1245883" lon="12.182722"><ele>380.79999999999995</ele><time>2026-03-29T13:30:30.459Z</time></trkpt><trkpt lat="43.1245062" lon="12.1827823"><ele>382.59999999999997</ele><time>2026-03-29T13:30:31.459Z</time></trkpt><trkpt lat="43.1244131" lon="12.1828269"><ele>384.4</ele><time>2026-03-29T13:30:32.46Z</time></trkpt><trkpt lat="43.1243339" lon="12.1828587"><ele>386.2</ele><time>2026-03-29T13:30:33.459Z</time></trkpt><trkpt lat="43.1242468" lon="12.1828951"><ele>388.0</ele><time>2026-03-29T13:30:34.46Z</time></trkpt><trkpt lat="43.1240991" lon="12.1830139"><ele>388.0</ele><time>2026-03-29T13:30:36.459Z</time></trkpt><trkpt lat="43.1239634" lon="12.1830402"><ele>388.0</ele><time>2026-03-29T13:30:38.459Z</time></trkpt><trkpt lat="43.1238888" lon="12.1830262"><ele>388.0</ele><time>2026-03-29T13:30:39.46Z</time></trkpt><trkpt lat="43.123801" lon="12.1830253"><ele>388.0</ele><time>2026-03-29T13:30:40.459Z</time></trkpt><trkpt lat="43.1237169" lon="12.1830468"><ele>388.0</ele><time>2026-03-29T13:30:41.46Z</time></trkpt><trkpt lat="43.1236368" lon="12.183082"><ele>388.00000000000006</ele><time>2026-03-29T13:30:42.46Z</time></trkpt><trkpt lat="43.1235647" lon="12.1831517"><ele>388.0</ele><time>2026-03-29T13:30:43.459Z</time></trkpt><trkpt lat="43.1235367" lon="12.1832419"><ele>388.0</ele><time>2026-03-29T13:30:44.459Z</time></trkpt><trkpt lat="43.1235068" lon="12.1833451"><ele>388.0</ele><time>2026-03-29T13:30:45.46Z</time></trkpt><trkpt lat="43.1234594" lon="12.1834213"><ele>388.00000000000006</ele><time>2026-03-29T13:30:47.459Z</time></trkpt><trkpt lat="43.1234148" lon="12.183557"><ele>388.0</ele><time>2026-03-29T13:30:49.46Z</time></trkpt><trkpt lat="43.1233841" lon="12.1836454"><ele>389.0</ele><time>2026-03-29T13:30:50.46Z</time></trkpt><trkpt lat="43.1232442" lon="12.1836862"><ele>390.0</ele><time>2026-03-29T13:30:52.46Z</time></trkpt><trkpt lat="43.1231604" lon="12.183734"><ele>391.0</ele><time>2026-03-29T13:30:53.459Z</time></trkpt><trkpt lat="43.1230697" lon="12.1838012"><ele>392.0</ele><time>2026-03-29T13:30:54.46Z</time></trkpt><trkpt lat="43.1229489" lon="12.1838218"><ele>392.0</ele><time>2026-03-29T13:30:55.459Z</time></trkpt><trkpt lat="43.1228043" lon="12.1838625"><ele>392.0</ele><time>2026-03-29T13:30:56.46Z</time></trkpt><trkpt lat="43.1226795" lon="12.1838907"><ele>392.0</ele><time>2026-03-29T13:30:57.46Z</time></trkpt><trkpt lat="43.1225804" lon="12.183919"><ele>392.0</ele><time>2026-03-29T13:30:58.458Z</time></trkpt><trkpt lat="43.1224923" lon="12.1839582"><ele>393.20000000000005</ele><time>2026-03-29T13:30:59.459Z</time></trkpt><trkpt lat="43.1224111" lon="12.1840181"><ele>394.4</ele><time>2026-03-29T13:31:00.459Z</time></trkpt><trkpt lat="43.1223245" lon="12.1841065"><ele>395.6</ele><time>2026-03-29T13:31:01.46Z</time></trkpt><trkpt lat="43.122241" lon="12.1842154"><ele>396.79999999999995</ele><time>2026-03-29T13:31:02.459Z</time></trkpt><trkpt lat="43.1221762" lon="12.1843226"><ele>398.0</ele><time>2026-03-29T13:31:03.46Z</time></trkpt><trkpt lat="43.1221278" lon="12.1844345"><ele>399.4</ele><time>2026-03-29T13:31:04.46Z</time></trkpt><trkpt lat="43.1220788" lon="12.1845568"><ele>400.79999999999995</ele><time>2026-03-29T13:31:05.459Z</time></trkpt><trkpt lat="43.1220405" lon="12.1846802"><ele>402.2</ele><time>2026-03-29T13:31:06.459Z</time></trkpt><trkpt lat="43.1220105" lon="12.1848366"><ele>403.6</ele><time>2026-03-29T13:31:07.46Z</time></trkpt><trkpt lat="43.1219743" lon="12.1849455"><ele>405.0</ele><time>2026-03-29T13:31:08.459Z</time></trkpt><trkpt lat="43.1219264" lon="12.1850481"><ele>405.0</ele><time>2026-03-29T13:31:09.459Z</time></trkpt><trkpt lat="43.1218605" lon="12.1851274"><ele>405.0</ele><time>2026-03-29T13:31:10.459Z</time></trkpt><trkpt lat="43.1217771" lon="12.1852048"><ele>405.0</ele><time>2026-03-29T13:31:11.46Z</time></trkpt><trkpt lat="43.1216961" lon="12.1852758"><ele>405.0</ele><time>2026-03-29T13:31:12.46Z</time></trkpt><trkpt lat="43.1216238" lon="12.185357"><ele>405.0</ele><time>2026-03-29T13:31:13.459Z</time></trkpt><trkpt lat="43.1215308" lon="12.1854682"><ele>404.0</ele><time>2026-03-29T13:31:14.46Z</time></trkpt><trkpt lat="43.1214431" lon="12.1855659"><ele>403.0</ele><time>2026-03-29T13:31:15.459Z</time></trkpt><trkpt lat="43.121326" lon="12.1856594"><ele>402.0</ele><time>2026-03-29T13:31:16.459Z</time></trkpt><trkpt lat="43.1212379" lon="12.1857573"><ele>401.0</ele><time>2026-03-29T13:31:17.459Z</time></trkpt><trkpt lat="43.1211603" lon="12.1858332"><ele>401.0</ele><time>2026-03-29T13:31:18.459Z</time></trkpt><trkpt lat="43.1211214" lon="12.1859713"><ele>401.0</ele><time>2026-03-29T13:31:20.46Z</time></trkpt><trkpt lat="43.1210977" lon="12.1861294"><ele>401.0</ele><time>2026-03-29T13:31:22.46Z</time></trkpt><trkpt lat="43.1210767" lon="12.1862542"><ele>401.0</ele><time>2026-03-29T13:31:24.46Z</time></trkpt><trkpt lat="43.1210711" lon="12.1863544"><ele>401.0</ele><time>2026-03-29T13:31:26.459Z</time></trkpt><trkpt lat="43.1210043" lon="12.1864499"><ele>400.0</ele><time>2026-03-29T13:31:28.459Z</time></trkpt><trkpt lat="43.1209201" lon="12.1865399"><ele>399.0</ele><time>2026-03-29T13:31:29.46Z</time></trkpt><trkpt lat="43.120864" lon="12.1866536"><ele>398.0</ele><time>2026-03-29T13:31:30.46Z</time></trkpt><trkpt lat="43.1207799" lon="12.1867811"><ele>397.0</ele><time>2026-03-29T13:31:32.46Z</time></trkpt><trkpt lat="43.120727" lon="12.186832"><ele>396.0</ele><time>2026-03-29T13:31:33.459Z</time></trkpt><trkpt lat="43.1206732" lon="12.1868906"><ele>395.6</ele><time>2026-03-29T13:31:34.459Z</time></trkpt><trkpt lat="43.1205842" lon="12.1869968"><ele>395.20000000000005</ele><time>2026-03-29T13:31:36.46Z</time></trkpt><trkpt lat="43.1204632" lon="12.1870396"><ele>394.79999999999995</ele><time>2026-03-29T13:31:37.459Z</time></trkpt><trkpt lat="43.1203956" lon="12.187098"><ele>394.4</ele><time>2026-03-29T13:31:38.46Z</time></trkpt><trkpt lat="43.1203092" lon="12.1871539"><ele>394.0</ele><time>2026-03-29T13:31:39.459Z</time></trkpt><trkpt lat="43.120228" lon="12.1871887"><ele>394.00000000000006</ele><time>2026-03-29T13:31:40.459Z</time></trkpt><trkpt lat="43.1201684" lon="12.1872343"><ele>394.0</ele><time>2026-03-29T13:31:41.459Z</time></trkpt><trkpt lat="43.120106" lon="12.1872898"><ele>394.0</ele><time>2026-03-29T13:31:42.459Z</time></trkpt><trkpt lat="43.1200549" lon="12.1873852"><ele>394.0</ele><time>2026-03-29T13:31:43.459Z</time></trkpt><trkpt lat="43.119994" lon="12.1874708"><ele>394.00000000000006</ele><time>2026-03-29T13:31:44.46Z</time></trkpt><trkpt lat="43.1199417" lon="12.1875236"><ele>394.0</ele><time>2026-03-29T13:31:46.459Z</time></trkpt><trkpt lat="43.119883" lon="12.1875976"><ele>391.33333333333337</ele><time>2026-03-29T13:31:52.459Z</time></trkpt><trkpt lat="43.1198154" lon="12.1876268"><ele>388.6666666666667</ele><time>2026-03-29T13:31:55.459Z</time></trkpt><trkpt lat="43.1197157" lon="12.1876474"><ele>386.0</ele><time>2026-03-29T13:31:57.458Z</time></trkpt><trkpt lat="43.1196609" lon="12.1877029"><ele>383.33333333333337</ele><time>2026-03-29T13:31:59.46Z</time></trkpt><trkpt lat="43.1195979" lon="12.1877128"><ele>380.6666666666667</ele><time>2026-03-29T13:32:00.46Z</time></trkpt><trkpt lat="43.1194718" lon="12.1877628"><ele>378.0</ele><time>2026-03-29T13:32:02.46Z</time></trkpt><trkpt lat="43.119417" lon="12.1878133"><ele>378.0</ele><time>2026-03-29T13:32:03.459Z</time></trkpt><trkpt lat="43.119372" lon="12.1878822"><ele>378.0</ele><time>2026-03-29T13:32:04.459Z</time></trkpt><trkpt lat="43.1193128" lon="12.187939"><ele>378.0</ele><time>2026-03-29T13:32:05.46Z</time></trkpt><trkpt lat="43.1192132" lon="12.187996"><ele>378.0</ele><time>2026-03-29T13:32:07.459Z</time></trkpt><trkpt lat="43.1191226" lon="12.1880659"><ele>378.0</ele><time>2026-03-29T13:32:09.459Z</time></trkpt><trkpt lat="43.1190451" lon="12.1881767"><ele>377.0</ele><time>2026-03-29T13:32:11.46Z</time></trkpt><trkpt lat="43.1190158" lon="12.1882551"><ele>376.0</ele><time>2026-03-29T13:32:12.459Z</time></trkpt><trkpt lat="43.1189756" lon="12.1883706"><ele>375.0</ele><time>2026-03-29T13:32:13.459Z</time></trkpt><trkpt lat="43.1188717" lon="12.1884948"><ele>374.0</ele><time>2026-03-29T13:32:15.46Z</time></trkpt><trkpt lat="43.1188259" lon="12.1885607"><ele>373.0</ele><time>2026-03-29T13:32:16.46Z</time></trkpt><trkpt lat="43.118763" lon="12.1886273"><ele>372.0</ele><time>2026-03-29T13:32:17.459Z</time></trkpt><trkpt lat="43.1187073" lon="12.1886899"><ele>372.0</ele><time>2026-03-29T13:32:18.46Z</time></trkpt><trkpt lat="43.1186459" lon="12.1887458"><ele>372.0</ele><time>2026-03-29T13:32:19.458Z</time></trkpt><trkpt lat="43.1185707" lon="12.1888048"><ele>372.0</ele><time>2026-03-29T13:32:20.46Z</time></trkpt><trkpt lat="43.1185278" lon="12.1888701"><ele>372.0</ele><time>2026-03-29T13:32:21.459Z</time></trkpt><trkpt lat="43.1184142" lon="12.1889089"><ele>372.0</ele><time>2026-03-29T13:32:23.459Z</time></trkpt><trkpt lat="43.118319" lon="12.1889874"><ele>371.1666666666667</ele><time>2026-03-29T13:32:25.459Z</time></trkpt><trkpt lat="43.1182257" lon="12.1890114"><ele>370.3333333333333</ele><time>2026-03-29T13:32:26.459Z</time></trkpt><trkpt lat="43.1181365" lon="12.1890044"><ele>369.5</ele><time>2026-03-29T13:32:27.46Z</time></trkpt><trkpt lat="43.1180709" lon="12.1890104"><ele>368.66666666666663</ele><time>2026-03-29T13:32:28.46Z</time></trkpt><trkpt lat="43.1180031" lon="12.1890323"><ele>367.8333333333333</ele><time>2026-03-29T13:32:29.46Z</time></trkpt><trkpt lat="43.1179219" lon="12.1890609"><ele>367.0</ele><time>2026-03-29T13:32:30.459Z</time></trkpt><trkpt lat="43.1178251" lon="12.1890658"><ele>366.0</ele><time>2026-03-29T13:32:31.46Z</time></trkpt><trkpt lat="43.1177382" lon="12.1890623"><ele>365.0</ele><time>2026-03-29T13:32:32.459Z</time></trkpt><trkpt lat="43.1176512" lon="12.1890484"><ele>364.0</ele><time>2026-03-29T13:32:33.46Z</time></trkpt><trkpt lat="43.1175798" lon="12.1890354"><ele>363.0</ele><time>2026-03-29T13:32:34.459Z</time></trkpt><trkpt lat="43.117514" lon="12.1890367"><ele>362.0</ele><time>2026-03-29T13:32:35.46Z</time></trkpt><trkpt lat="43.1174173" lon="12.1891113"><ele>361.0</ele><time>2026-03-29T13:32:37.46Z</time></trkpt><trkpt lat="43.1173241" lon="12.1891885"><ele>361.0</ele><time>2026-03-29T13:32:39.459Z</time></trkpt><trkpt lat="43.1172626" lon="12.1892268"><ele>361.0</ele><time>2026-03-29T13:32:40.46Z</time></trkpt><trkpt lat="43.1171817" lon="12.1893255"><ele>361.0</ele><time>2026-03-29T13:32:42.459Z</time></trkpt><trkpt lat="43.117099" lon="12.1893812"><ele>361.0</ele><time>2026-03-29T13:32:44.46Z</time></trkpt><trkpt lat="43.1170237" lon="12.1894391"><ele>361.0</ele><time>2026-03-29T13:32:46.46Z</time></trkpt><trkpt lat="43.1170128" lon="12.1895639"><ele>361.0</ele><time>2026-03-29T13:32:48.459Z</time></trkpt><trkpt lat="43.1169475" lon="12.1897204"><ele>361.0</ele><time>2026-03-29T13:32:50.46Z</time></trkpt><trkpt lat="43.1169204" lon="12.1898046"><ele>361.0</ele><time>2026-03-29T13:32:51.459Z</time></trkpt><trkpt lat="43.1169036" lon="12.1898943"><ele>361.0</ele><time>2026-03-29T13:32:52.459Z</time></trkpt><trkpt lat="43.1168938" lon="12.1900713"><ele>361.0</ele><time>2026-03-29T13:32:54.46Z</time></trkpt><trkpt lat="43.1168505" lon="12.1901358"><ele>361.0</ele><time>2026-03-29T13:32:55.46Z</time></trkpt><trkpt lat="43.1168068" lon="12.1901982"><ele>361.0</ele><time>2026-03-29T13:32:56.459Z</time></trkpt><trkpt lat="43.1167644" lon="12.1902744"><ele>361.5</ele><time>2026-03-29T13:32:57.46Z</time></trkpt><trkpt lat="43.1167195" lon="12.190346"><ele>362.0</ele><time>2026-03-29T13:32:58.46Z</time></trkpt><trkpt lat="43.1166306" lon="12.1904421"><ele>362.5</ele><time>2026-03-29T13:33:00.46Z</time></trkpt><trkpt lat="43.1165602" lon="12.1905326"><ele>363.0</ele><time>2026-03-29T13:33:02.459Z</time></trkpt><trkpt lat="43.1164947" lon="12.1906098"><ele>363.5</ele><time>2026-03-29T13:33:04.459Z</time></trkpt><trkpt lat="43.1164495" lon="12.1906892"><ele>364.0</ele><time>2026-03-29T13:33:06.46Z</time></trkpt><trkpt lat="43.1164086" lon="12.1907806"><ele>364.16666666666663</ele><time>2026-03-29T13:33:08.459Z</time></trkpt><trkpt lat="43.116373" lon="12.1908839"><ele>364.3333333333333</ele><time>2026-03-29T13:33:10.459Z</time></trkpt><trkpt lat="43.1163294" lon="12.1910228"><ele>364.5</ele><time>2026-03-29T13:33:12.46Z</time></trkpt><trkpt lat="43.116289" lon="12.1911249"><ele>364.6666666666667</ele><time>2026-03-29T13:33:14.459Z</time></trkpt><trkpt lat="43.1162405" lon="12.191204"><ele>364.83333333333337</ele><time>2026-03-29T13:33:16.46Z</time></trkpt><trkpt lat="43.116172" lon="12.1912651"><ele>365.0</ele><time>2026-03-29T13:33:17.46Z</time></trkpt><trkpt lat="43.1160852" lon="12.191415"><ele>365.0</ele><time>2026-03-29T13:33:19.459Z</time></trkpt><trkpt lat="43.1160394" lon="12.1914983"><ele>365.0</ele><time>2026-03-29T13:33:20.459Z</time></trkpt><trkpt lat="43.1159741" lon="12.1916362"><ele>365.0</ele><time>2026-03-29T13:33:21.458Z</time></trkpt><trkpt lat="43.1159417" lon="12.1917681"><ele>365.0</ele><time>2026-03-29T13:33:22.459Z</time></trkpt><trkpt lat="43.1159069" lon="12.191916"><ele>365.0</ele><time>2026-03-29T13:33:23.459Z</time></trkpt><trkpt lat="43.1158862" lon="12.1920537"><ele>363.83333333333337</ele><time>2026-03-29T13:33:24.46Z</time></trkpt><trkpt lat="43.1158693" lon="12.192195"><ele>362.6666666666667</ele><time>2026-03-29T13:33:25.46Z</time></trkpt><trkpt lat="43.1158147" lon="12.1923569"><ele>361.5</ele><time>2026-03-29T13:33:27.459Z</time></trkpt><trkpt lat="43.1157679" lon="12.1924367"><ele>360.3333333333333</ele><time>2026-03-29T13:33:28.46Z</time></trkpt><trkpt lat="43.1157017" lon="12.1924214"><ele>359.16666666666663</ele><time>2026-03-29T13:33:29.46Z</time></trkpt><trkpt lat="43.1156381" lon="12.1924568"><ele>358.0</ele><time>2026-03-29T13:33:30.46Z</time></trkpt><trkpt lat="43.1155717" lon="12.1924907"><ele>357.28571428571433</ele><time>2026-03-29T13:33:31.46Z</time></trkpt><trkpt lat="43.1155082" lon="12.1925344"><ele>356.57142857142856</ele><time>2026-03-29T13:33:32.459Z</time></trkpt><trkpt lat="43.1154394" lon="12.1925676"><ele>355.8571428571429</ele><time>2026-03-29T13:33:33.459Z</time></trkpt><trkpt lat="43.1153712" lon="12.1925918"><ele>355.14285714285717</ele><time>2026-03-29T13:33:34.46Z</time></trkpt><trkpt lat="43.1153035" lon="12.1926152"><ele>354.42857142857144</ele><time>2026-03-29T13:33:35.46Z</time></trkpt><trkpt lat="43.1152335" lon="12.1926438"><ele>353.7142857142857</ele><time>2026-03-29T13:33:36.459Z</time></trkpt><trkpt lat="43.1151717" lon="12.1926868"><ele>353.0</ele><time>2026-03-29T13:33:37.459Z</time></trkpt><trkpt lat="43.1151031" lon="12.1927806"><ele>353.0</ele><time>2026-03-29T13:33:38.459Z</time></trkpt><trkpt lat="43.1150815" lon="12.1929135"><ele>353.0</ele><time>2026-03-29T13:33:39.459Z</time></trkpt><trkpt lat="43.1150398" lon="12.1930164"><ele>353.0</ele><time>2026-03-29T13:33:40.46Z</time></trkpt><trkpt lat="43.1149896" lon="12.1931271"><ele>353.0</ele><time>2026-03-29T13:33:41.46Z</time></trkpt><trkpt lat="43.1149559" lon="12.1932186"><ele>353.0</ele><time>2026-03-29T13:33:42.46Z</time></trkpt><trkpt lat="43.1149001" lon="12.1933703"><ele>353.0</ele><time>2026-03-29T13:33:44.459Z</time></trkpt><trkpt lat="43.1148838" lon="12.1934571"><ele>353.0</ele><time>2026-03-29T13:33:48.46Z</time></trkpt><trkpt lat="43.1149331" lon="12.19335"><ele>353.0</ele><time>2026-03-29T13:33:57.46Z</time></trkpt><trkpt lat="43.114952" lon="12.1932323"><ele>353.0</ele><time>2026-03-29T13:34:04.46Z</time></trkpt><trkpt lat="43.1150136" lon="12.1931711"><ele>353.0</ele><time>2026-03-29T13:34:07.459Z</time></trkpt><trkpt lat="43.1151315" lon="12.1932027"><ele>353.0</ele><time>2026-03-29T13:34:09.459Z</time></trkpt><trkpt lat="43.1152078" lon="12.1932238"><ele>350.6666666666667</ele><time>2026-03-29T13:34:10.46Z</time></trkpt><trkpt lat="43.115274" lon="12.193276"><ele>348.33333333333337</ele><time>2026-03-29T13:34:11.46Z</time></trkpt><trkpt lat="43.1153364" lon="12.19332"><ele>346.0</ele><time>2026-03-29T13:34:12.46Z</time></trkpt><trkpt lat="43.1154022" lon="12.1933638"><ele>343.6666666666667</ele><time>2026-03-29T13:34:13.46Z</time></trkpt><trkpt lat="43.1154774" lon="12.1934075"><ele>341.3333333333333</ele><time>2026-03-29T13:34:14.46Z</time></trkpt><trkpt lat="43.1155461" lon="12.1934452"><ele>339.0</ele><time>2026-03-29T13:34:15.459Z</time></trkpt><trkpt lat="43.115617" lon="12.1934896"><ele>339.0</ele><time>2026-03-29T13:34:16.459Z</time></trkpt><trkpt lat="43.1156887" lon="12.1935425"><ele>339.0</ele><time>2026-03-29T13:34:17.459Z</time></trkpt><trkpt lat="43.1157568" lon="12.1935967"><ele>339.0</ele><time>2026-03-29T13:34:18.459Z</time></trkpt><trkpt lat="43.1158181" lon="12.1936717"><ele>339.0</ele><time>2026-03-29T13:34:19.459Z</time></trkpt><trkpt lat="43.1158718" lon="12.1937624"><ele>339.0</ele><time>2026-03-29T13:34:20.46Z</time></trkpt><trkpt lat="43.1159209" lon="12.1938383"><ele>339.0</ele><time>2026-03-29T13:34:21.46Z</time></trkpt><trkpt lat="43.1159695" lon="12.1938952"><ele>336.6666666666667</ele><time>2026-03-29T13:34:22.458Z</time></trkpt><trkpt lat="43.1160903" lon="12.1939479"><ele>334.3333333333333</ele><time>2026-03-29T13:34:24.459Z</time></trkpt><trkpt lat="43.1161613" lon="12.1939607"><ele>332.0</ele><time>2026-03-29T13:34:25.459Z</time></trkpt><trkpt lat="43.116233" lon="12.1939685"><ele>329.66666666666663</ele><time>2026-03-29T13:34:26.459Z</time></trkpt><trkpt lat="43.1163062" lon="12.1939863"><ele>327.3333333333333</ele><time>2026-03-29T13:34:27.46Z</time></trkpt><trkpt lat="43.1163723" lon="12.1940237"><ele>325.0</ele><time>2026-03-29T13:34:28.459Z</time></trkpt><trkpt lat="43.1164203" lon="12.1941025"><ele>323.3333333333333</ele><time>2026-03-29T13:34:29.46Z</time></trkpt><trkpt lat="43.1164906" lon="12.1942132"><ele>321.66666666666663</ele><time>2026-03-29T13:34:30.46Z</time></trkpt><trkpt lat="43.116544" lon="12.1943176"><ele>320.0</ele><time>2026-03-29T13:34:31.46Z</time></trkpt><trkpt lat="43.1165921" lon="12.1944084"><ele>318.3333333333333</ele><time>2026-03-29T13:34:32.46Z</time></trkpt><trkpt lat="43.1166393" lon="12.194475"><ele>316.6666666666667</ele><time>2026-03-29T13:34:33.46Z</time></trkpt><trkpt lat="43.1166999" lon="12.1945228"><ele>315.0</ele><time>2026-03-29T13:34:34.459Z</time></trkpt><trkpt lat="43.1167715" lon="12.1945716"><ele>312.8</ele><time>2026-03-29T13:34:35.459Z</time></trkpt><trkpt lat="43.1168319" lon="12.1946325"><ele>310.6</ele><time>2026-03-29T13:34:36.459Z</time></trkpt><trkpt lat="43.1168906" lon="12.1947269"><ele>308.4</ele><time>2026-03-29T13:34:37.458Z</time></trkpt><trkpt lat="43.1169445" lon="12.1948315"><ele>306.2</ele><time>2026-03-29T13:34:38.459Z</time></trkpt><trkpt lat="43.1170099" lon="12.1949389"><ele>304.0</ele><time>2026-03-29T13:34:39.46Z</time></trkpt><trkpt lat="43.117079" lon="12.1950388"><ele>303.2</ele><time>2026-03-29T13:34:40.46Z</time></trkpt><trkpt lat="43.1171448" lon="12.1951414"><ele>302.4</ele><time>2026-03-29T13:34:41.46Z</time></trkpt><trkpt lat="43.1172073" lon="12.195259"><ele>301.6</ele><time>2026-03-29T13:34:42.46Z</time></trkpt><trkpt lat="43.117269" lon="12.1953794"><ele>300.8</ele><time>2026-03-29T13:34:43.46Z</time></trkpt><trkpt lat="43.1173295" lon="12.195503"><ele>300.0</ele><time>2026-03-29T13:34:44.46Z</time></trkpt><trkpt lat="43.1173852" lon="12.1956205"><ele>297.5</ele><time>2026-03-29T13:34:45.459Z</time></trkpt><trkpt lat="43.1174372" lon="12.1957359"><ele>295.0</ele><time>2026-03-29T13:34:46.459Z</time></trkpt><trkpt lat="43.117488" lon="12.1958391"><ele>292.5</ele><time>2026-03-29T13:34:47.459Z</time></trkpt><trkpt lat="43.1175404" lon="12.1959236"><ele>290.0</ele><time>2026-03-29T13:34:48.459Z</time></trkpt><trkpt lat="43.1176" lon="12.1959779"><ele>287.5</ele><time>2026-03-29T13:34:49.459Z</time></trkpt><trkpt lat="43.1176632" lon="12.1960182"><ele>285.0</ele><time>2026-03-29T13:34:50.46Z</time></trkpt><trkpt lat="43.1177243" lon="12.1960618"><ele>285.0</ele><time>2026-03-29T13:34:51.459Z</time></trkpt><trkpt lat="43.1177969" lon="12.1960483"><ele>285.0</ele><time>2026-03-29T13:34:52.46Z</time></trkpt><trkpt lat="43.1178788" lon="12.1960702"><ele>285.0</ele><time>2026-03-29T13:34:53.459Z</time></trkpt><trkpt lat="43.1179453" lon="12.196139"><ele>285.0</ele><time>2026-03-29T13:34:54.46Z</time></trkpt><trkpt lat="43.1180096" lon="12.1962295"><ele>285.0</ele><time>2026-03-29T13:34:55.459Z</time></trkpt><trkpt lat="43.1180691" lon="12.1963369"><ele>285.0</ele><time>2026-03-29T13:34:56.459Z</time></trkpt><trkpt lat="43.1181206" lon="12.1964535"><ele>284.2</ele><time>2026-03-29T13:34:57.459Z</time></trkpt><trkpt lat="43.1181524" lon="12.1965755"><ele>283.4</ele><time>2026-03-29T13:34:58.46Z</time></trkpt><trkpt lat="43.1181609" lon="12.1967069"><ele>282.6</ele><time>2026-03-29T13:34:59.459Z</time></trkpt><trkpt lat="43.1181567" lon="12.1968426"><ele>281.8</ele><time>2026-03-29T13:35:00.459Z</time></trkpt><trkpt lat="43.1181412" lon="12.1969735"><ele>281.0</ele><time>2026-03-29T13:35:01.46Z</time></trkpt><trkpt lat="43.11811" lon="12.1970911"><ele>281.00000000000006</ele><time>2026-03-29T13:35:02.458Z</time></trkpt><trkpt lat="43.1180632" lon="12.1971975"><ele>281.0</ele><time>2026-03-29T13:35:03.459Z</time></trkpt><trkpt lat="43.1180142" lon="12.1972766"><ele>281.0</ele><time>2026-03-29T13:35:04.46Z</time></trkpt><trkpt lat="43.1179739" lon="12.197348"><ele>281.0</ele><time>2026-03-29T13:35:05.459Z</time></trkpt><trkpt lat="43.1179426" lon="12.1974371"><ele>281.0</ele><time>2026-03-29T13:35:06.46Z</time></trkpt><trkpt lat="43.1179339" lon="12.1975358"><ele>281.00000000000006</ele><time>2026-03-29T13:35:07.46Z</time></trkpt><trkpt lat="43.1179344" lon="12.1976281"><ele>281.0</ele><time>2026-03-29T13:35:08.459Z</time></trkpt><trkpt lat="43.1179452" lon="12.1977354"><ele>278.8</ele><time>2026-03-29T13:35:09.46Z</time></trkpt><trkpt lat="43.1179597" lon="12.1978667"><ele>276.6</ele><time>2026-03-29T13:35:10.459Z</time></trkpt><trkpt lat="43.1179638" lon="12.1980059"><ele>274.4</ele><time>2026-03-29T13:35:11.459Z</time></trkpt><trkpt lat="43.117962" lon="12.1981475"><ele>272.2</ele><time>2026-03-29T13:35:12.459Z</time></trkpt><trkpt lat="43.1179703" lon="12.1982977"><ele>270.0</ele><time>2026-03-29T13:35:13.46Z</time></trkpt><trkpt lat="43.1179749" lon="12.1984453"><ele>267.6</ele><time>2026-03-29T13:35:14.459Z</time></trkpt><trkpt lat="43.1179805" lon="12.1985967"><ele>265.2</ele><time>2026-03-29T13:35:15.459Z</time></trkpt><trkpt lat="43.1179902" lon="12.1987453"><ele>262.8</ele><time>2026-03-29T13:35:16.46Z</time></trkpt><trkpt lat="43.1180099" lon="12.1988906"><ele>260.4</ele><time>2026-03-29T13:35:17.46Z</time></trkpt><trkpt lat="43.1180351" lon="12.199036"><ele>258.0</ele><time>2026-03-29T13:35:18.46Z</time></trkpt><trkpt lat="43.1180618" lon="12.1991885"><ele>256.8</ele><time>2026-03-29T13:35:19.46Z</time></trkpt><trkpt lat="43.1180799" lon="12.1993428"><ele>255.60000000000002</ele><time>2026-03-29T13:35:20.459Z</time></trkpt><trkpt lat="43.1180907" lon="12.1994937"><ele>254.39999999999998</ele><time>2026-03-29T13:35:21.459Z</time></trkpt><trkpt lat="43.1181011" lon="12.1996387"><ele>253.2</ele><time>2026-03-29T13:35:22.46Z</time></trkpt><trkpt lat="43.1181109" lon="12.1997761"><ele>252.0</ele><time>2026-03-29T13:35:23.459Z</time></trkpt><trkpt lat="43.1181194" lon="12.1999082"><ele>251.16666666666666</ele><time>2026-03-29T13:35:24.459Z</time></trkpt><trkpt lat="43.1181265" lon="12.2000341"><ele>250.33333333333331</ele><time>2026-03-29T13:35:25.46Z</time></trkpt><trkpt lat="43.1181333" lon="12.2001495"><ele>249.5</ele><time>2026-03-29T13:35:26.46Z</time></trkpt><trkpt lat="43.1181404" lon="12.2002561"><ele>248.66666666666666</ele><time>2026-03-29T13:35:27.459Z</time></trkpt><trkpt lat="43.1181506" lon="12.2003499"><ele>247.83333333333331</ele><time>2026-03-29T13:35:28.46Z</time></trkpt><trkpt lat="43.1181706" lon="12.2004973"><ele>247.0</ele><time>2026-03-29T13:35:30.46Z</time></trkpt><trkpt lat="43.118192" lon="12.2005862"><ele>246.2</ele><time>2026-03-29T13:35:33.459Z</time></trkpt><trkpt lat="43.118274" lon="12.2007038"><ele>245.39999999999998</ele><time>2026-03-29T13:36:31.459Z</time></trkpt><trkpt lat="43.1183676" lon="12.2007768"><ele>244.60000000000002</ele><time>2026-03-29T13:36:33.46Z</time></trkpt><trkpt lat="43.1184149" lon="12.2008745"><ele>243.8</ele><time>2026-03-29T13:36:35.459Z</time></trkpt><trkpt lat="43.1184114" lon="12.2009623"><ele>243.0</ele><time>2026-03-29T13:36:37.46Z</time></trkpt><trkpt lat="43.1183898" lon="12.2010946"><ele>243.0</ele><time>2026-03-29T13:37:43.459Z</time></trkpt><trkpt lat="43.1183769" lon="12.2012935"><ele>243.0</ele><time>2026-03-29T13:37:45.46Z</time></trkpt><trkpt lat="43.118378" lon="12.2014248"><ele>243.0</ele><time>2026-03-29T13:37:46.459Z</time></trkpt><trkpt lat="43.1183835" lon="12.2015684"><ele>243.0</ele><time>2026-03-29T13:37:47.46Z</time></trkpt><trkpt lat="43.1183836" lon="12.2017232"><ele>242.75</ele><time>2026-03-29T13:37:48.46Z</time></trkpt><trkpt lat="43.1183859" lon="12.2018929"><ele>242.5</ele><time>2026-03-29T13:37:49.46Z</time></trkpt><trkpt lat="43.1183878" lon="12.2020636"><ele>242.25</ele><time>2026-03-29T13:37:50.46Z</time></trkpt><trkpt lat="43.1183883" lon="12.2022356"><ele>242.0</ele><time>2026-03-29T13:37:51.459Z</time></trkpt><trkpt lat="43.1183876" lon="12.2024108"><ele>242.0</ele><time>2026-03-29T13:37:52.46Z</time></trkpt><trkpt lat="43.1183914" lon="12.2025859"><ele>242.0</ele><time>2026-03-29T13:37:53.46Z</time></trkpt><trkpt lat="43.1183965" lon="12.2027625"><ele>242.0</ele><time>2026-03-29T13:37:54.459Z</time></trkpt><trkpt lat="43.1183998" lon="12.2029272"><ele>242.0</ele><time>2026-03-29T13:37:55.46Z</time></trkpt><trkpt lat="43.1183996" lon="12.2030558"><ele>242.00000000000003</ele><time>2026-03-29T13:37:56.459Z</time></trkpt><trkpt lat="43.1183875" lon="12.2031576"><ele>242.0</ele><time>2026-03-29T13:37:57.46Z</time></trkpt><trkpt lat="43.1183549" lon="12.2032356"><ele>242.0</ele><time>2026-03-29T13:37:58.459Z</time></trkpt><trkpt lat="43.1182887" lon="12.2032898"><ele>242.0</ele><time>2026-03-29T13:37:59.459Z</time></trkpt><trkpt lat="43.1182066" lon="12.2033297"><ele>242.00000000000003</ele><time>2026-03-29T13:38:00.459Z</time></trkpt><trkpt lat="43.1181108" lon="12.2033597"><ele>242.0</ele><time>2026-03-29T13:38:01.459Z</time></trkpt><trkpt lat="43.1180159" lon="12.2034004"><ele>242.39999999999998</ele><time>2026-03-29T13:38:02.459Z</time></trkpt><trkpt lat="43.1179359" lon="12.2034402"><ele>242.79999999999998</ele><time>2026-03-29T13:38:03.46Z</time></trkpt><trkpt lat="43.1178043" lon="12.2035386"><ele>243.2</ele><time>2026-03-29T13:38:05.46Z</time></trkpt><trkpt lat="43.1177514" lon="12.2036124"><ele>243.6</ele><time>2026-03-29T13:38:06.46Z</time></trkpt><trkpt lat="43.1177044" lon="12.2036994"><ele>244.0</ele><time>2026-03-29T13:38:07.46Z</time></trkpt><trkpt lat="43.1176645" lon="12.2038023"><ele>244.0</ele><time>2026-03-29T13:38:08.459Z</time></trkpt><trkpt lat="43.1176289" lon="12.2039168"><ele>243.99999999999997</ele><time>2026-03-29T13:38:09.459Z</time></trkpt><trkpt lat="43.1175978" lon="12.2040396"><ele>243.99999999999997</ele><time>2026-03-29T13:38:10.459Z</time></trkpt><trkpt lat="43.117567" lon="12.204165"><ele>244.0</ele><time>2026-03-29T13:38:11.46Z</time></trkpt><trkpt lat="43.1175201" lon="12.2042754"><ele>244.0</ele><time>2026-03-29T13:38:12.459Z</time></trkpt><trkpt lat="43.1174607" lon="12.2043809"><ele>244.28571428571425</ele><time>2026-03-29T13:38:13.46Z</time></trkpt><trkpt lat="43.1173895" lon="12.2044634"><ele>244.57142857142856</ele><time>2026-03-29T13:38:14.459Z</time></trkpt><trkpt lat="43.1173282" lon="12.2045245"><ele>244.85714285714286</ele><time>2026-03-29T13:38:15.459Z</time></trkpt><trkpt lat="43.1172695" lon="12.2045752"><ele>245.14285714285714</ele><time>2026-03-29T13:38:16.459Z</time></trkpt><trkpt lat="43.1172111" lon="12.2046213"><ele>245.42857142857144</ele><time>2026-03-29T13:38:17.46Z</time></trkpt><trkpt lat="43.1171545" lon="12.2046668"><ele>245.71428571428575</ele><time>2026-03-29T13:38:18.46Z</time></trkpt><trkpt lat="43.1171039" lon="12.204721"><ele>246.00000000000003</ele><time>2026-03-29T13:38:19.46Z</time></trkpt><trkpt lat="43.1170587" lon="12.2047835"><ele>246.5</ele><time>2026-03-29T13:38:20.459Z</time></trkpt><trkpt lat="43.1170204" lon="12.204858"><ele>247.0</ele><time>2026-03-29T13:38:21.46Z</time></trkpt><trkpt lat="43.117" lon="12.2049417"><ele>247.5</ele><time>2026-03-29T13:38:22.459Z</time></trkpt><trkpt lat="43.116975" lon="12.2050239"><ele>248.0</ele><time>2026-03-29T13:38:23.46Z</time></trkpt><trkpt lat="43.1169244" lon="12.2050979"><ele>248.5</ele><time>2026-03-29T13:38:24.46Z</time></trkpt><trkpt lat="43.1168623" lon="12.2051791"><ele>249.0</ele><time>2026-03-29T13:38:25.459Z</time></trkpt><trkpt lat="43.1167856" lon="12.2052699"><ele>249.0</ele><time>2026-03-29T13:38:26.46Z</time></trkpt><trkpt lat="43.116707" lon="12.2053661"><ele>249.0</ele><time>2026-03-29T13:38:27.46Z</time></trkpt><trkpt lat="43.1166145" lon="12.2054671"><ele>249.0</ele><time>2026-03-29T13:38:28.46Z</time></trkpt><trkpt lat="43.1165165" lon="12.205572"><ele>249.0</ele><time>2026-03-29T13:38:29.459Z</time></trkpt><trkpt lat="43.1164149" lon="12.2056769"><ele>249.0</ele><time>2026-03-29T13:38:30.459Z</time></trkpt><trkpt lat="43.1163144" lon="12.2057801"><ele>249.0</ele><time>2026-03-29T13:38:31.46Z</time></trkpt><trkpt lat="43.1162214" lon="12.2058864"><ele>249.0</ele><time>2026-03-29T13:38:32.46Z</time></trkpt><trkpt lat="43.1161395" lon="12.2059862"><ele>249.0</ele><time>2026-03-29T13:38:33.459Z</time></trkpt><trkpt lat="43.1160724" lon="12.2060953"><ele>249.0</ele><time>2026-03-29T13:38:34.46Z</time></trkpt><trkpt lat="43.1160175" lon="12.2062208"><ele>248.99999999999997</ele><time>2026-03-29T13:38:35.459Z</time></trkpt><trkpt lat="43.1159649" lon="12.2063503"><ele>248.99999999999997</ele><time>2026-03-29T13:38:36.459Z</time></trkpt><trkpt lat="43.115907" lon="12.2064878"><ele>249.0</ele><time>2026-03-29T13:38:37.459Z</time></trkpt><trkpt lat="43.1158475" lon="12.2066276"><ele>249.0</ele><time>2026-03-29T13:38:38.46Z</time></trkpt><trkpt lat="43.1157849" lon="12.2067691"><ele>250.39999999999998</ele><time>2026-03-29T13:38:39.46Z</time></trkpt><trkpt lat="43.1157187" lon="12.206903"><ele>251.79999999999998</ele><time>2026-03-29T13:38:40.458Z</time></trkpt><trkpt lat="43.1156387" lon="12.2070198"><ele>253.20000000000002</ele><time>2026-03-29T13:38:41.458Z</time></trkpt><trkpt lat="43.11555" lon="12.2071152"><ele>254.60000000000002</ele><time>2026-03-29T13:38:42.46Z</time></trkpt><trkpt lat="43.1154698" lon="12.207194"><ele>256.0</ele><time>2026-03-29T13:38:43.46Z</time></trkpt><trkpt lat="43.1154061" lon="12.2072639"><ele>256.16666666666663</ele><time>2026-03-29T13:38:44.458Z</time></trkpt><trkpt lat="43.1153539" lon="12.2073446"><ele>256.3333333333333</ele><time>2026-03-29T13:38:45.46Z</time></trkpt><trkpt lat="43.1153176" lon="12.2074401"><ele>256.5</ele><time>2026-03-29T13:38:46.459Z</time></trkpt><trkpt lat="43.115295" lon="12.2075467"><ele>256.6666666666667</ele><time>2026-03-29T13:38:47.459Z</time></trkpt><trkpt lat="43.1152938" lon="12.2076806"><ele>256.83333333333337</ele><time>2026-03-29T13:38:48.46Z</time></trkpt><trkpt lat="43.1152999" lon="12.2078257"><ele>257.0</ele><time>2026-03-29T13:38:49.46Z</time></trkpt><trkpt lat="43.1153077" lon="12.2079668"><ele>257.0</ele><time>2026-03-29T13:38:50.459Z</time></trkpt><trkpt lat="43.1153248" lon="12.2081185"><ele>257.0</ele><time>2026-03-29T13:38:51.459Z</time></trkpt><trkpt lat="43.1153415" lon="12.2082761"><ele>257.0</ele><time>2026-03-29T13:38:52.46Z</time></trkpt><trkpt lat="43.1153516" lon="12.2084324"><ele>257.0</ele><time>2026-03-29T13:38:53.458Z</time></trkpt><trkpt lat="43.1153572" lon="12.2085935"><ele>257.0</ele><time>2026-03-29T13:38:54.459Z</time></trkpt><trkpt lat="43.1153602" lon="12.2087461"><ele>257.0</ele><time>2026-03-29T13:38:55.459Z</time></trkpt><trkpt lat="43.1153634" lon="12.2089051"><ele>257.0</ele><time>2026-03-29T13:38:56.46Z</time></trkpt><trkpt lat="43.1153756" lon="12.2090592"><ele>257.0</ele><time>2026-03-29T13:38:57.46Z</time></trkpt><trkpt lat="43.1154039" lon="12.2092136"><ele>259.25</ele><time>2026-03-29T13:38:58.459Z</time></trkpt><trkpt lat="43.1154471" lon="12.2093663"><ele>261.5</ele><time>2026-03-29T13:38:59.459Z</time></trkpt><trkpt lat="43.1154969" lon="12.2095142"><ele>263.75</ele><time>2026-03-29T13:39:00.459Z</time></trkpt><trkpt lat="43.1155434" lon="12.2096513"><ele>266.0</ele><time>2026-03-29T13:39:01.46Z</time></trkpt><trkpt lat="43.1155767" lon="12.2097881"><ele>266.2</ele><time>2026-03-29T13:39:02.46Z</time></trkpt><trkpt lat="43.1156063" lon="12.2099178"><ele>266.40000000000003</ele><time>2026-03-29T13:39:03.46Z</time></trkpt><trkpt lat="43.1156443" lon="12.210046"><ele>266.6</ele><time>2026-03-29T13:39:04.462Z</time></trkpt><trkpt lat="43.1156845" lon="12.2101881"><ele>266.8</ele><time>2026-03-29T13:39:05.46Z</time></trkpt><trkpt lat="43.115724" lon="12.2103336"><ele>267.0</ele><time>2026-03-29T13:39:06.461Z</time></trkpt><trkpt lat="43.115766" lon="12.2105075"><ele>267.5</ele><time>2026-03-29T13:39:07.461Z</time></trkpt><trkpt lat="43.1157874" lon="12.2106792"><ele>268.0</ele><time>2026-03-29T13:39:08.462Z</time></trkpt><trkpt lat="43.1158215" lon="12.2108522"><ele>268.5</ele><time>2026-03-29T13:39:09.46Z</time></trkpt><trkpt lat="43.1158594" lon="12.2110168"><ele>269.0</ele><time>2026-03-29T13:39:10.461Z</time></trkpt><trkpt lat="43.1158908" lon="12.2112152"><ele>269.0</ele><time>2026-03-29T13:39:11.46Z</time></trkpt><trkpt lat="43.1159189" lon="12.2114015"><ele>269.0</ele><time>2026-03-29T13:39:12.46Z</time></trkpt><trkpt lat="43.1159452" lon="12.2115755"><ele>269.0</ele><time>2026-03-29T13:39:13.46Z</time></trkpt><trkpt lat="43.1159664" lon="12.2117282"><ele>269.0</ele><time>2026-03-29T13:39:14.46Z</time></trkpt><trkpt lat="43.1159838" lon="12.2118782"><ele>270.0</ele><time>2026-03-29T13:39:15.461Z</time></trkpt><trkpt lat="43.1159881" lon="12.2120288"><ele>271.0</ele><time>2026-03-29T13:39:16.462Z</time></trkpt><trkpt lat="43.1159763" lon="12.212189"><ele>272.0</ele><time>2026-03-29T13:39:17.461Z</time></trkpt><trkpt lat="43.1159543" lon="12.2123601"><ele>273.0</ele><time>2026-03-29T13:39:18.461Z</time></trkpt><trkpt lat="43.1159277" lon="12.2125219"><ele>273.0</ele><time>2026-03-29T13:39:19.461Z</time></trkpt><trkpt lat="43.1159012" lon="12.2126641"><ele>273.0</ele><time>2026-03-29T13:39:20.46Z</time></trkpt><trkpt lat="43.1158865" lon="12.2128024"><ele>273.0</ele><time>2026-03-29T13:39:21.46Z</time></trkpt><trkpt lat="43.1158974" lon="12.2129291"><ele>273.0</ele><time>2026-03-29T13:39:22.461Z</time></trkpt><trkpt lat="43.1159311" lon="12.2130481"><ele>273.0</ele><time>2026-03-29T13:39:23.461Z</time></trkpt><trkpt lat="43.1159837" lon="12.213163"><ele>273.0</ele><time>2026-03-29T13:39:24.461Z</time></trkpt><trkpt lat="43.1160469" lon="12.21328"><ele>273.0</ele><time>2026-03-29T13:39:25.461Z</time></trkpt><trkpt lat="43.1161131" lon="12.21339"><ele>273.0</ele><time>2026-03-29T13:39:26.46Z</time></trkpt><trkpt lat="43.1161749" lon="12.2134805"><ele>273.0</ele><time>2026-03-29T13:39:27.46Z</time></trkpt><trkpt lat="43.1162296" lon="12.2135593"><ele>273.0</ele><time>2026-03-29T13:39:28.46Z</time></trkpt><trkpt lat="43.116289" lon="12.2136826"><ele>273.0</ele><time>2026-03-29T13:39:30.461Z</time></trkpt><trkpt lat="43.1162614" lon="12.2137719"><ele>273.0</ele><time>2026-03-29T13:39:32.46Z</time></trkpt><trkpt lat="43.116174" lon="12.2138269"><ele>273.0</ele><time>2026-03-29T13:39:34.461Z</time></trkpt><trkpt lat="43.1161052" lon="12.2138576"><ele>273.0</ele><time>2026-03-29T13:39:35.46Z</time></trkpt><trkpt lat="43.1160188" lon="12.2138813"><ele>273.0</ele><time>2026-03-29T13:39:36.46Z</time></trkpt><trkpt lat="43.1159205" lon="12.2139032"><ele>273.0</ele><time>2026-03-29T13:39:37.46Z</time></trkpt><trkpt lat="43.1158183" lon="12.213918"><ele>274.1666666666667</ele><time>2026-03-29T13:39:38.461Z</time></trkpt><trkpt lat="43.1157324" lon="12.2139385"><ele>275.3333333333333</ele><time>2026-03-29T13:39:39.461Z</time></trkpt><trkpt lat="43.1156623" lon="12.2139763"><ele>276.5</ele><time>2026-03-29T13:39:40.46Z</time></trkpt><trkpt lat="43.115603" lon="12.2140333"><ele>277.66666666666663</ele><time>2026-03-29T13:39:41.461Z</time></trkpt><trkpt lat="43.1155364" lon="12.2141838"><ele>278.8333333333333</ele><time>2026-03-29T13:39:43.461Z</time></trkpt><trkpt lat="43.1155361" lon="12.2142811"><ele>280.0</ele><time>2026-03-29T13:39:44.46Z</time></trkpt><trkpt lat="43.1155399" lon="12.2143896"><ele>280.66666666666663</ele><time>2026-03-29T13:39:45.461Z</time></trkpt><trkpt lat="43.115541" lon="12.2145181"><ele>281.3333333333333</ele><time>2026-03-29T13:39:46.46Z</time></trkpt><trkpt lat="43.1155612" lon="12.2146221"><ele>282.0</ele><time>2026-03-29T13:39:47.46Z</time></trkpt><trkpt lat="43.115609" lon="12.2147062"><ele>282.6666666666667</ele><time>2026-03-29T13:39:48.46Z</time></trkpt><trkpt lat="43.1156807" lon="12.2147892"><ele>283.33333333333337</ele><time>2026-03-29T13:39:49.461Z</time></trkpt><trkpt lat="43.1157486" lon="12.2148551"><ele>284.0</ele><time>2026-03-29T13:39:50.46Z</time></trkpt><trkpt lat="43.1158261" lon="12.2149455"><ele>284.0</ele><time>2026-03-29T13:39:51.46Z</time></trkpt><trkpt lat="43.1159405" lon="12.2150551"><ele>284.0</ele><time>2026-03-29T13:39:52.461Z</time></trkpt><trkpt lat="43.1160143" lon="12.2151209"><ele>284.0</ele><time>2026-03-29T13:39:53.461Z</time></trkpt><trkpt lat="43.1160702" lon="12.2151742"><ele>284.0</ele><time>2026-03-29T13:39:54.46Z</time></trkpt><trkpt lat="43.1161594" lon="12.2152675"><ele>284.0</ele><time>2026-03-29T13:39:56.461Z</time></trkpt><trkpt lat="43.1162353" lon="12.2153501"><ele>284.0</ele><time>2026-03-29T13:39:58.46Z</time></trkpt><trkpt lat="43.1163125" lon="12.2154407"><ele>284.0</ele><time>2026-03-29T13:40:00.461Z</time></trkpt><trkpt lat="43.1163821" lon="12.2155236"><ele>284.0</ele><time>2026-03-29T13:40:02.46Z</time></trkpt><trkpt lat="43.1164571" lon="12.2155886"><ele>284.0</ele><time>2026-03-29T13:40:04.461Z</time></trkpt><trkpt lat="43.1164547" lon="12.2156873"><ele>284.0</ele><time>2026-03-29T13:40:07.46Z</time></trkpt><trkpt lat="43.1163875" lon="12.2157383"><ele>284.0</ele><time>2026-03-29T13:40:09.46Z</time></trkpt><trkpt lat="43.1162151" lon="12.2157581"><ele>287.0</ele><time>2026-03-29T13:40:11.461Z</time></trkpt><trkpt lat="43.1160935" lon="12.215766"><ele>290.0</ele><time>2026-03-29T13:40:12.46Z</time></trkpt><trkpt lat="43.1159663" lon="12.2157896"><ele>293.0</ele><time>2026-03-29T13:40:13.46Z</time></trkpt><trkpt lat="43.1158699" lon="12.2158307"><ele>296.0</ele><time>2026-03-29T13:40:14.46Z</time></trkpt><trkpt lat="43.1157732" lon="12.2158644"><ele>296.5</ele><time>2026-03-29T13:40:15.46Z</time></trkpt><trkpt lat="43.1156822" lon="12.2159006"><ele>297.0</ele><time>2026-03-29T13:40:16.46Z</time></trkpt><trkpt lat="43.1155993" lon="12.2159857"><ele>297.5</ele><time>2026-03-29T13:40:17.46Z</time></trkpt><trkpt lat="43.1155308" lon="12.2160518"><ele>298.0</ele><time>2026-03-29T13:40:18.461Z</time></trkpt><trkpt lat="43.1154643" lon="12.2160945"><ele>298.5</ele><time>2026-03-29T13:40:19.46Z</time></trkpt><trkpt lat="43.1153965" lon="12.2161306"><ele>299.0</ele><time>2026-03-29T13:40:20.461Z</time></trkpt><trkpt lat="43.11533" lon="12.216161"><ele>299.0</ele><time>2026-03-29T13:40:21.46Z</time></trkpt><trkpt lat="43.1152609" lon="12.2162089"><ele>299.0</ele><time>2026-03-29T13:40:22.461Z</time></trkpt><trkpt lat="43.1151911" lon="12.2162627"><ele>299.0</ele><time>2026-03-29T13:40:23.461Z</time></trkpt><trkpt lat="43.1151221" lon="12.2163301"><ele>299.0</ele><time>2026-03-29T13:40:24.46Z</time></trkpt><trkpt lat="43.1150577" lon="12.2164455"><ele>299.0</ele><time>2026-03-29T13:40:25.46Z</time></trkpt><trkpt lat="43.1149817" lon="12.2165398"><ele>301.0</ele><time>2026-03-29T13:40:26.46Z</time></trkpt><trkpt lat="43.1149238" lon="12.2166416"><ele>303.0</ele><time>2026-03-29T13:40:28.461Z</time></trkpt><trkpt lat="43.1148867" lon="12.2167163"><ele>305.0</ele><time>2026-03-29T13:40:29.46Z</time></trkpt><trkpt lat="43.1148552" lon="12.2168418"><ele>307.0</ele><time>2026-03-29T13:40:31.461Z</time></trkpt><trkpt lat="43.1148781" lon="12.2169826"><ele>309.0</ele><time>2026-03-29T13:40:33.46Z</time></trkpt><trkpt lat="43.1149394" lon="12.2169507"><ele>311.0</ele><time>2026-03-29T13:40:35.46Z</time></trkpt><trkpt lat="43.115025" lon="12.2169053"><ele>311.0</ele><time>2026-03-29T13:40:36.461Z</time></trkpt><trkpt lat="43.1150987" lon="12.2168823"><ele>311.0</ele><time>2026-03-29T13:40:37.46Z</time></trkpt><trkpt lat="43.1152214" lon="12.2168279"><ele>311.0</ele><time>2026-03-29T13:40:39.46Z</time></trkpt><trkpt lat="43.1153013" lon="12.2168034"><ele>311.0</ele><time>2026-03-29T13:40:40.461Z</time></trkpt><trkpt lat="43.1154267" lon="12.2167774"><ele>311.0</ele><time>2026-03-29T13:40:41.46Z</time></trkpt><trkpt lat="43.1155209" lon="12.2168169"><ele>311.0</ele><time>2026-03-29T13:40:42.461Z</time></trkpt><trkpt lat="43.1155936" lon="12.2168389"><ele>311.0</ele><time>2026-03-29T13:40:43.46Z</time></trkpt><trkpt lat="43.1156158" lon="12.2169377"><ele>311.0</ele><time>2026-03-29T13:40:45.46Z</time></trkpt><trkpt lat="43.1155673" lon="12.2170059"><ele>311.0</ele><time>2026-03-29T13:40:47.461Z</time></trkpt><trkpt lat="43.1155074" lon="12.2170349"><ele>311.0</ele><time>2026-03-29T13:40:48.461Z</time></trkpt><trkpt lat="43.1154189" lon="12.2171497"><ele>311.0</ele><time>2026-03-29T13:40:50.46Z</time></trkpt><trkpt lat="43.1153604" lon="12.2173069"><ele>314.4</ele><time>2026-03-29T13:40:52.46Z</time></trkpt><trkpt lat="43.1153224" lon="12.2173986"><ele>317.8</ele><time>2026-03-29T13:40:53.46Z</time></trkpt><trkpt lat="43.1152809" lon="12.2174894"><ele>321.2</ele><time>2026-03-29T13:40:54.461Z</time></trkpt><trkpt lat="43.1152081" lon="12.2175793"><ele>324.59999999999997</ele><time>2026-03-29T13:40:55.461Z</time></trkpt><trkpt lat="43.1151134" lon="12.2176908"><ele>328.0</ele><time>2026-03-29T13:40:56.46Z</time></trkpt><trkpt lat="43.1150008" lon="12.2177683"><ele>328.0</ele><time>2026-03-29T13:40:57.461Z</time></trkpt><trkpt lat="43.1149321" lon="12.2178216"><ele>328.0</ele><time>2026-03-29T13:40:58.461Z</time></trkpt><trkpt lat="43.1148626" lon="12.2178761"><ele>328.0</ele><time>2026-03-29T13:40:59.461Z</time></trkpt><trkpt lat="43.1147987" lon="12.2179964"><ele>328.0</ele><time>2026-03-29T13:41:01.461Z</time></trkpt><trkpt lat="43.1148891" lon="12.218067"><ele>328.0</ele><time>2026-03-29T13:41:03.461Z</time></trkpt><trkpt lat="43.1149826" lon="12.2181092"><ele>330.5</ele><time>2026-03-29T13:41:05.46Z</time></trkpt><trkpt lat="43.1150784" lon="12.2182412"><ele>333.0</ele><time>2026-03-29T13:41:07.461Z</time></trkpt><trkpt lat="43.1151156" lon="12.2183202"><ele>335.5</ele><time>2026-03-29T13:41:08.46Z</time></trkpt><trkpt lat="43.1151285" lon="12.2184068"><ele>338.0</ele><time>2026-03-29T13:41:09.46Z</time></trkpt><trkpt lat="43.1151388" lon="12.2185023"><ele>340.5</ele><time>2026-03-29T13:41:10.46Z</time></trkpt><trkpt lat="43.1151294" lon="12.2185886"><ele>343.0</ele><time>2026-03-29T13:41:11.46Z</time></trkpt><trkpt lat="43.1150986" lon="12.2186825"><ele>343.0</ele><time>2026-03-29T13:41:12.46Z</time></trkpt><trkpt lat="43.1150432" lon="12.2187779"><ele>343.0</ele><time>2026-03-29T13:41:13.461Z</time></trkpt><trkpt lat="43.1149891" lon="12.21887"><ele>343.0</ele><time>2026-03-29T13:41:14.46Z</time></trkpt><trkpt lat="43.1149295" lon="12.2189728"><ele>343.0</ele><time>2026-03-29T13:41:15.461Z</time></trkpt><trkpt lat="43.1148894" lon="12.2191324"><ele>343.0</ele><time>2026-03-29T13:41:16.461Z</time></trkpt><trkpt lat="43.1148414" lon="12.2192571"><ele>346.3333333333333</ele><time>2026-03-29T13:41:17.46Z</time></trkpt><trkpt lat="43.1148096" lon="12.219375"><ele>349.66666666666663</ele><time>2026-03-29T13:41:18.46Z</time></trkpt><trkpt lat="43.1147786" lon="12.219497"><ele>353.0</ele><time>2026-03-29T13:41:19.46Z</time></trkpt><trkpt lat="43.1147261" lon="12.2195678"><ele>356.3333333333333</ele><time>2026-03-29T13:41:20.46Z</time></trkpt><trkpt lat="43.1146639" lon="12.2196591"><ele>359.6666666666667</ele><time>2026-03-29T13:41:21.46Z</time></trkpt><trkpt lat="43.1145987" lon="12.2197516"><ele>363.0</ele><time>2026-03-29T13:41:22.46Z</time></trkpt><trkpt lat="43.1145255" lon="12.2198474"><ele>364.79999999999995</ele><time>2026-03-29T13:41:23.46Z</time></trkpt><trkpt lat="43.1144656" lon="12.2199277"><ele>366.6</ele><time>2026-03-29T13:41:24.46Z</time></trkpt><trkpt lat="43.1143982" lon="12.219969"><ele>368.4</ele><time>2026-03-29T13:41:25.461Z</time></trkpt><trkpt lat="43.1143116" lon="12.2200016"><ele>370.20000000000005</ele><time>2026-03-29T13:41:26.461Z</time></trkpt><trkpt lat="43.1142123" lon="12.2200389"><ele>372.0</ele><time>2026-03-29T13:41:27.461Z</time></trkpt><trkpt lat="43.1141153" lon="12.2200931"><ele>374.0</ele><time>2026-03-29T13:41:28.461Z</time></trkpt><trkpt lat="43.1140355" lon="12.2201434"><ele>376.0</ele><time>2026-03-29T13:41:29.46Z</time></trkpt><trkpt lat="43.1139662" lon="12.2201319"><ele>378.0</ele><time>2026-03-29T13:41:30.46Z</time></trkpt><trkpt lat="43.1138641" lon="12.2201429"><ele>380.0</ele><time>2026-03-29T13:41:31.461Z</time></trkpt><trkpt lat="43.1137704" lon="12.2201714"><ele>382.0</ele><time>2026-03-29T13:41:32.46Z</time></trkpt><trkpt lat="43.1136625" lon="12.2202051"><ele>382.0</ele><time>2026-03-29T13:41:33.46Z</time></trkpt><trkpt lat="43.1135419" lon="12.220207"><ele>382.0</ele><time>2026-03-29T13:41:34.46Z</time></trkpt><trkpt lat="43.1134571" lon="12.220222"><ele>382.0</ele><time>2026-03-29T13:41:35.461Z</time></trkpt><trkpt lat="43.1133741" lon="12.2202312"><ele>382.0</ele><time>2026-03-29T13:41:36.46Z</time></trkpt><trkpt lat="43.113311" lon="12.2202892"><ele>382.0</ele><time>2026-03-29T13:41:37.46Z</time></trkpt><trkpt lat="43.113332" lon="12.2203808"><ele>382.0</ele><time>2026-03-29T13:41:39.46Z</time></trkpt><trkpt lat="43.1134042" lon="12.2205053"><ele>382.0</ele><time>2026-03-29T13:41:40.46Z</time></trkpt><trkpt lat="43.113426" lon="12.2206158"><ele>382.0</ele><time>2026-03-29T13:41:41.46Z</time></trkpt><trkpt lat="43.1134059" lon="12.2207974"><ele>382.0</ele><time>2026-03-29T13:41:43.461Z</time></trkpt><trkpt lat="43.113453" lon="12.2209411"><ele>382.0</ele><time>2026-03-29T13:41:45.46Z</time></trkpt><trkpt lat="43.1135377" lon="12.2210056"><ele>382.0</ele><time>2026-03-29T13:41:46.46Z</time></trkpt><trkpt lat="43.1136123" lon="12.221061"><ele>385.40000000000003</ele><time>2026-03-29T13:41:47.461Z</time></trkpt><trkpt lat="43.1136835" lon="12.2211564"><ele>388.8</ele><time>2026-03-29T13:41:48.461Z</time></trkpt><trkpt lat="43.1137638" lon="12.2212357"><ele>392.2</ele><time>2026-03-29T13:41:49.46Z</time></trkpt><trkpt lat="43.1138472" lon="12.2213221"><ele>395.6</ele><time>2026-03-29T13:41:50.461Z</time></trkpt><trkpt lat="43.1139158" lon="12.2214053"><ele>399.0</ele><time>2026-03-29T13:41:51.46Z</time></trkpt><trkpt lat="43.1139572" lon="12.2214973"><ele>399.0</ele><time>2026-03-29T13:41:53.461Z</time></trkpt><trkpt lat="43.1140149" lon="12.2215534"><ele>399.0</ele><time>2026-03-29T13:41:55.46Z</time></trkpt><trkpt lat="43.114078" lon="12.2215936"><ele>399.0</ele><time>2026-03-29T13:41:58.46Z</time></trkpt><trkpt lat="43.114151" lon="12.2216424"><ele>399.0</ele><time>2026-03-29T13:42:01.461Z</time></trkpt><trkpt lat="43.1142199" lon="12.2216863"><ele>399.0</ele><time>2026-03-29T13:42:08.461Z</time></trkpt><trkpt lat="43.1142997" lon="12.2217459"><ele>399.0</ele><time>2026-03-29T13:42:10.46Z</time></trkpt><trkpt lat="43.1143451" lon="12.2218112"><ele>399.0</ele><time>2026-03-29T13:42:11.46Z</time></trkpt><trkpt lat="43.1143906" lon="12.2219068"><ele>399.0</ele><time>2026-03-29T13:42:12.461Z</time></trkpt><trkpt lat="43.114431" lon="12.221993"><ele>399.0</ele><time>2026-03-29T13:42:13.46Z</time></trkpt><trkpt lat="43.1144757" lon="12.2220747"><ele>399.0</ele><time>2026-03-29T13:42:14.46Z</time></trkpt><trkpt lat="43.1145222" lon="12.2221559"><ele>399.0</ele><time>2026-03-29T13:42:15.461Z</time></trkpt><trkpt lat="43.1145604" lon="12.2222299"><ele>399.0</ele><time>2026-03-29T13:42:16.461Z</time></trkpt><trkpt lat="43.1145797" lon="12.2223742"><ele>401.0</ele><time>2026-03-29T13:42:18.461Z</time></trkpt><trkpt lat="43.1145585" lon="12.2224932"><ele>403.0</ele><time>2026-03-29T13:42:19.461Z</time></trkpt><trkpt lat="43.1145371" lon="12.2225973"><ele>405.0</ele><time>2026-03-29T13:42:20.461Z</time></trkpt><trkpt lat="43.1145175" lon="12.222711"><ele>407.0</ele><time>2026-03-29T13:42:21.46Z</time></trkpt><trkpt lat="43.1145042" lon="12.2228127"><ele>409.0</ele><time>2026-03-29T13:42:22.46Z</time></trkpt><trkpt lat="43.1145074" lon="12.2229177"><ele>411.0</ele><time>2026-03-29T13:42:23.46Z</time></trkpt><trkpt lat="43.1145409" lon="12.2230382"><ele>411.0</ele><time>2026-03-29T13:42:24.461Z</time></trkpt><trkpt lat="43.1146776" lon="12.2229432"><ele>411.0</ele><time>2026-03-29T13:42:27.46Z</time></trkpt><trkpt lat="43.1147432" lon="12.222919"><ele>411.0</ele><time>2026-03-29T13:42:28.461Z</time></trkpt><trkpt lat="43.1148122" lon="12.2229162"><ele>411.0</ele><time>2026-03-29T13:42:29.46Z</time></trkpt><trkpt lat="43.1149175" lon="12.2228911"><ele>411.0</ele><time>2026-03-29T13:42:30.46Z</time></trkpt><trkpt lat="43.1150524" lon="12.222857"><ele>403.0</ele><time>2026-03-29T13:42:31.46Z</time></trkpt><trkpt lat="43.1151814" lon="12.2228532"><ele>395.0</ele><time>2026-03-29T13:42:32.461Z</time></trkpt><trkpt lat="43.1153608" lon="12.2228484"><ele>387.0</ele><time>2026-03-29T13:42:33.46Z</time></trkpt><trkpt lat="43.1155103" lon="12.2228192"><ele>387.0</ele><time>2026-03-29T13:42:34.46Z</time></trkpt><trkpt lat="43.1156489" lon="12.2227935"><ele>387.0</ele><time>2026-03-29T13:42:35.461Z</time></trkpt><trkpt lat="43.1157841" lon="12.2227717"><ele>387.0</ele><time>2026-03-29T13:42:36.461Z</time></trkpt><trkpt lat="43.1159147" lon="12.2227535"><ele>387.0</ele><time>2026-03-29T13:42:37.46Z</time></trkpt><trkpt lat="43.1160293" lon="12.2227526"><ele>384.20000000000005</ele><time>2026-03-29T13:42:38.46Z</time></trkpt><trkpt lat="43.1161242" lon="12.222799"><ele>381.4</ele><time>2026-03-29T13:42:39.46Z</time></trkpt><trkpt lat="43.1162427" lon="12.2228251"><ele>378.6</ele><time>2026-03-29T13:42:40.46Z</time></trkpt><trkpt lat="43.1163539" lon="12.2228655"><ele>375.79999999999995</ele><time>2026-03-29T13:42:41.46Z</time></trkpt><trkpt lat="43.1164485" lon="12.222894"><ele>373.0</ele><time>2026-03-29T13:42:42.46Z</time></trkpt><trkpt lat="43.1165711" lon="12.2229089"><ele>371.5</ele><time>2026-03-29T13:42:43.46Z</time></trkpt><trkpt lat="43.1166994" lon="12.2229122"><ele>370.0</ele><time>2026-03-29T13:42:44.46Z</time></trkpt><trkpt lat="43.1168269" lon="12.2229143"><ele>368.5</ele><time>2026-03-29T13:42:45.46Z</time></trkpt><trkpt lat="43.1169515" lon="12.2229223"><ele>367.0</ele><time>2026-03-29T13:42:46.46Z</time></trkpt><trkpt lat="43.1170773" lon="12.222933"><ele>367.0</ele><time>2026-03-29T13:42:47.461Z</time></trkpt><trkpt lat="43.1171881" lon="12.2229532"><ele>367.0</ele><time>2026-03-29T13:42:48.46Z</time></trkpt><trkpt lat="43.117294" lon="12.2229752"><ele>367.0</ele><time>2026-03-29T13:42:49.46Z</time></trkpt><trkpt lat="43.1173944" lon="12.223002"><ele>367.0</ele><time>2026-03-29T13:42:50.461Z</time></trkpt><trkpt lat="43.1174806" lon="12.2230048"><ele>367.0</ele><time>2026-03-29T13:42:51.461Z</time></trkpt><trkpt lat="43.1175574" lon="12.2230306"><ele>367.0</ele><time>2026-03-29T13:42:53.461Z</time></trkpt><trkpt lat="43.117636" lon="12.2230338"><ele>367.0</ele><time>2026-03-29T13:42:55.46Z</time></trkpt><trkpt lat="43.1175178" lon="12.2229897"><ele>367.0</ele><time>2026-03-29T13:43:04.46Z</time></trkpt><trkpt lat="43.1174006" lon="12.2229658"><ele>367.0</ele><time>2026-03-29T13:43:06.46Z</time></trkpt><trkpt lat="43.117294" lon="12.22295"><ele>367.0</ele><time>2026-03-29T13:43:08.46Z</time></trkpt><trkpt lat="43.1171944" lon="12.2230075"><ele>367.0</ele><time>2026-03-29T13:43:10.461Z</time></trkpt><trkpt lat="43.11709" lon="12.2230988"><ele>367.0</ele><time>2026-03-29T13:43:12.461Z</time></trkpt><trkpt lat="43.1170281" lon="12.2231552"><ele>367.0</ele><time>2026-03-29T13:43:13.46Z</time></trkpt><trkpt lat="43.116987" lon="12.2232263"><ele>367.0</ele><time>2026-03-29T13:43:14.46Z</time></trkpt><trkpt lat="43.1169514" lon="12.2233006"><ele>367.0</ele><time>2026-03-29T13:43:15.46Z</time></trkpt><trkpt lat="43.1169114" lon="12.2233842"><ele>367.0</ele><time>2026-03-29T13:43:16.46Z</time></trkpt><trkpt lat="43.1168694" lon="12.2234846"><ele>371.40000000000003</ele><time>2026-03-29T13:43:17.461Z</time></trkpt><trkpt lat="43.1167532" lon="12.2235424"><ele>375.8</ele><time>2026-03-29T13:43:19.461Z</time></trkpt><trkpt lat="43.1166462" lon="12.2235751"><ele>380.2</ele><time>2026-03-29T13:43:20.46Z</time></trkpt><trkpt lat="43.1165559" lon="12.2236217"><ele>384.6</ele><time>2026-03-29T13:43:21.461Z</time></trkpt><trkpt lat="43.1164462" lon="12.2236782"><ele>389.0</ele><time>2026-03-29T13:43:22.461Z</time></trkpt><trkpt lat="43.1163796" lon="12.2237428"><ele>389.79999999999995</ele><time>2026-03-29T13:43:23.461Z</time></trkpt><trkpt lat="43.116295" lon="12.2237934"><ele>390.59999999999997</ele><time>2026-03-29T13:43:24.461Z</time></trkpt><trkpt lat="43.116185" lon="12.2238255"><ele>391.4</ele><time>2026-03-29T13:43:25.46Z</time></trkpt><trkpt lat="43.116088" lon="12.2238478"><ele>392.2</ele><time>2026-03-29T13:43:26.46Z</time></trkpt><trkpt lat="43.1160295" lon="12.223922"><ele>393.0</ele><time>2026-03-29T13:43:27.46Z</time></trkpt><trkpt lat="43.1159679" lon="12.2239693"><ele>395.8333333333333</ele><time>2026-03-29T13:43:28.46Z</time></trkpt><trkpt lat="43.1159336" lon="12.2240484"><ele>398.66666666666663</ele><time>2026-03-29T13:43:29.461Z</time></trkpt><trkpt lat="43.1160521" lon="12.2241422"><ele>401.5</ele><time>2026-03-29T13:43:31.461Z</time></trkpt><trkpt lat="43.1161032" lon="12.2242236"><ele>404.3333333333333</ele><time>2026-03-29T13:43:32.461Z</time></trkpt><trkpt lat="43.1161403" lon="12.2243011"><ele>407.16666666666663</ele><time>2026-03-29T13:43:33.461Z</time></trkpt><trkpt lat="43.1161512" lon="12.2243897"><ele>410.0</ele><time>2026-03-29T13:43:35.46Z</time></trkpt><trkpt lat="43.116093" lon="12.2244773"><ele>410.0</ele><time>2026-03-29T13:43:37.461Z</time></trkpt><trkpt lat="43.115963" lon="12.2245153"><ele>410.0</ele><time>2026-03-29T13:43:39.46Z</time></trkpt><trkpt lat="43.1158798" lon="12.2245436"><ele>410.0</ele><time>2026-03-29T13:43:40.46Z</time></trkpt><trkpt lat="43.1157941" lon="12.2245555"><ele>410.0</ele><time>2026-03-29T13:43:41.46Z</time></trkpt><trkpt lat="43.1156822" lon="12.2245708"><ele>410.0</ele><time>2026-03-29T13:43:42.46Z</time></trkpt><trkpt lat="43.1155803" lon="12.2245912"><ele>411.49999999999994</ele><time>2026-03-29T13:43:43.46Z</time></trkpt><trkpt lat="43.1154901" lon="12.2246026"><ele>413.0</ele><time>2026-03-29T13:43:44.461Z</time></trkpt><trkpt lat="43.1153833" lon="12.2246031"><ele>414.5</ele><time>2026-03-29T13:43:46.46Z</time></trkpt><trkpt lat="43.1153233" lon="12.2245753"><ele>416.0</ele><time>2026-03-29T13:43:47.46Z</time></trkpt><trkpt lat="43.1152356" lon="12.224524"><ele>417.49999999999994</ele><time>2026-03-29T13:43:49.461Z</time></trkpt><trkpt lat="43.1151729" lon="12.2245724"><ele>419.0</ele><time>2026-03-29T13:43:51.46Z</time></trkpt><trkpt lat="43.1151186" lon="12.2246677"><ele>420.2</ele><time>2026-03-29T13:43:53.46Z</time></trkpt><trkpt lat="43.1150356" lon="12.2248151"><ele>421.4</ele><time>2026-03-29T13:43:55.461Z</time></trkpt><trkpt lat="43.1149292" lon="12.2249144"><ele>422.6</ele><time>2026-03-29T13:43:57.46Z</time></trkpt><trkpt lat="43.1148656" lon="12.2249479"><ele>423.8</ele><time>2026-03-29T13:43:58.461Z</time></trkpt><trkpt lat="43.1147999" lon="12.2250434"><ele>425.0</ele><time>2026-03-29T13:44:00.461Z</time></trkpt><trkpt lat="43.1147267" lon="12.2251083"><ele>427.6</ele><time>2026-03-29T13:44:02.461Z</time></trkpt><trkpt lat="43.1146465" lon="12.2251562"><ele>430.2</ele><time>2026-03-29T13:44:03.46Z</time></trkpt><trkpt lat="43.1145517" lon="12.2252033"><ele>432.79999999999995</ele><time>2026-03-29T13:44:05.46Z</time></trkpt><trkpt lat="43.1144431" lon="12.2251818"><ele>435.4</ele><time>2026-03-29T13:44:07.461Z</time></trkpt><trkpt lat="43.1143081" lon="12.2251312"><ele>438.0</ele><time>2026-03-29T13:44:09.46Z</time></trkpt><trkpt lat="43.1142426" lon="12.2251158"><ele>438.0</ele><time>2026-03-29T13:44:10.46Z</time></trkpt><trkpt lat="43.1141687" lon="12.2250882"><ele>438.0</ele><time>2026-03-29T13:44:11.46Z</time></trkpt><trkpt lat="43.1140952" lon="12.2250332"><ele>438.0</ele><time>2026-03-29T13:44:12.46Z</time></trkpt><trkpt lat="43.1140327" lon="12.2249652"><ele>438.0</ele><time>2026-03-29T13:44:13.46Z</time></trkpt><trkpt lat="43.1139684" lon="12.2249104"><ele>438.0</ele><time>2026-03-29T13:44:14.461Z</time></trkpt><trkpt lat="43.113948" lon="12.2247887"><ele>438.0</ele><time>2026-03-29T13:44:16.46Z</time></trkpt><trkpt lat="43.1138699" lon="12.2247316"><ele>440.0</ele><time>2026-03-29T13:44:18.461Z</time></trkpt><trkpt lat="43.1137558" lon="12.2246965"><ele>441.99999999999994</ele><time>2026-03-29T13:44:20.46Z</time></trkpt><trkpt lat="43.1136632" lon="12.2246537"><ele>443.99999999999994</ele><time>2026-03-29T13:44:22.461Z</time></trkpt><trkpt lat="43.113554" lon="12.2246151"><ele>446.0</ele><time>2026-03-29T13:44:24.46Z</time></trkpt><trkpt lat="43.11347" lon="12.2245536"><ele>448.0</ele><time>2026-03-29T13:44:26.461Z</time></trkpt><trkpt lat="43.1133659" lon="12.2244867"><ele>448.0</ele><time>2026-03-29T13:44:28.46Z</time></trkpt><trkpt lat="43.113276" lon="12.2244033"><ele>447.99999999999994</ele><time>2026-03-29T13:44:30.461Z</time></trkpt><trkpt lat="43.1132405" lon="12.2242944"><ele>447.99999999999994</ele><time>2026-03-29T13:44:32.461Z</time></trkpt><trkpt lat="43.1132019" lon="12.2241706"><ele>448.0</ele><time>2026-03-29T13:44:34.46Z</time></trkpt><trkpt lat="43.1131582" lon="12.2240347"><ele>448.0</ele><time>2026-03-29T13:44:36.461Z</time></trkpt><trkpt lat="43.1130732" lon="12.2239522"><ele>449.50000000000006</ele><time>2026-03-29T13:44:38.461Z</time></trkpt><trkpt lat="43.1130191" lon="12.2238578"><ele>451.0</ele><time>2026-03-29T13:44:40.461Z</time></trkpt><trkpt lat="43.1130127" lon="12.2237532"><ele>452.5</ele><time>2026-03-29T13:44:41.46Z</time></trkpt><trkpt lat="43.1129954" lon="12.2236632"><ele>454.0</ele><time>2026-03-29T13:44:42.461Z</time></trkpt><trkpt lat="43.1129671" lon="12.2235679"><ele>455.50000000000006</ele><time>2026-03-29T13:44:43.461Z</time></trkpt><trkpt lat="43.1129389" lon="12.2234731"><ele>457.0</ele><time>2026-03-29T13:44:44.461Z</time></trkpt><trkpt lat="43.1128699" lon="12.2233292"><ele>457.00000000000006</ele><time>2026-03-29T13:44:46.461Z</time></trkpt><trkpt lat="43.1128345" lon="12.2232578"><ele>457.0</ele><time>2026-03-29T13:44:47.461Z</time></trkpt><trkpt lat="43.1127628" lon="12.2231612"><ele>457.0</ele><time>2026-03-29T13:44:49.461Z</time></trkpt><trkpt lat="43.1126972" lon="12.2231632"><ele>457.0</ele><time>2026-03-29T13:44:51.461Z</time></trkpt><trkpt lat="43.1126398" lon="12.2232666"><ele>457.00000000000006</ele><time>2026-03-29T13:44:53.46Z</time></trkpt><trkpt lat="43.1125669" lon="12.2234055"><ele>457.0</ele><time>2026-03-29T13:44:55.461Z</time></trkpt><trkpt lat="43.1125147" lon="12.2234717"><ele>457.00000000000006</ele><time>2026-03-29T13:44:56.461Z</time></trkpt><trkpt lat="43.1124679" lon="12.2235402"><ele>457.0</ele><time>2026-03-29T13:44:57.46Z</time></trkpt><trkpt lat="43.1124331" lon="12.2236146"><ele>457.0</ele><time>2026-03-29T13:44:58.461Z</time></trkpt><trkpt lat="43.112398" lon="12.2236868"><ele>457.0</ele><time>2026-03-29T13:44:59.46Z</time></trkpt><trkpt lat="43.1123604" lon="12.2237706"><ele>457.00000000000006</ele><time>2026-03-29T13:45:00.461Z</time></trkpt><trkpt lat="43.1122838" lon="12.2238683"><ele>457.0</ele><time>2026-03-29T13:45:02.461Z</time></trkpt><trkpt lat="43.1122181" lon="12.2239345"><ele>462.0</ele><time>2026-03-29T13:45:04.461Z</time></trkpt><trkpt lat="43.1121081" lon="12.2240062"><ele>467.00000000000006</ele><time>2026-03-29T13:45:06.46Z</time></trkpt><trkpt lat="43.1120092" lon="12.2240557"><ele>472.00000000000006</ele><time>2026-03-29T13:45:09.46Z</time></trkpt><trkpt lat="43.1119406" lon="12.2241412"><ele>477.0</ele><time>2026-03-29T13:45:11.46Z</time></trkpt><trkpt lat="43.1118623" lon="12.2241692"><ele>482.0</ele><time>2026-03-29T13:45:12.46Z</time></trkpt><trkpt lat="43.1118003" lon="12.2242052"><ele>481.99999999999994</ele><time>2026-03-29T13:45:13.461Z</time></trkpt><trkpt lat="43.1117344" lon="12.2242293"><ele>482.0</ele><time>2026-03-29T13:45:14.461Z</time></trkpt><trkpt lat="43.1116814" lon="12.2242822"><ele>482.0</ele><time>2026-03-29T13:45:15.461Z</time></trkpt><trkpt lat="43.1116187" lon="12.2243502"><ele>482.0</ele><time>2026-03-29T13:45:16.46Z</time></trkpt><trkpt lat="43.1115661" lon="12.2244155"><ele>481.99999999999994</ele><time>2026-03-29T13:45:17.46Z</time></trkpt><trkpt lat="43.1114477" lon="12.2245253"><ele>482.0</ele><time>2026-03-29T13:45:19.46Z</time></trkpt><trkpt lat="43.111392" lon="12.224586"><ele>483.20000000000005</ele><time>2026-03-29T13:45:20.46Z</time></trkpt><trkpt lat="43.1112642" lon="12.2246346"><ele>484.40000000000003</ele><time>2026-03-29T13:45:22.461Z</time></trkpt><trkpt lat="43.1111787" lon="12.2247167"><ele>485.59999999999997</ele><time>2026-03-29T13:45:24.461Z</time></trkpt><trkpt lat="43.1110623" lon="12.2247254"><ele>486.79999999999995</ele><time>2026-03-29T13:45:26.461Z</time></trkpt><trkpt lat="43.1109977" lon="12.2247077"><ele>488.0</ele><time>2026-03-29T13:45:27.461Z</time></trkpt><trkpt lat="43.1109345" lon="12.2246736"><ele>487.99999999999994</ele><time>2026-03-29T13:45:28.46Z</time></trkpt><trkpt lat="43.1108567" lon="12.2245855"><ele>488.0</ele><time>2026-03-29T13:45:30.46Z</time></trkpt><trkpt lat="43.1108287" lon="12.2245044"><ele>488.0</ele><time>2026-03-29T13:45:31.461Z</time></trkpt><trkpt lat="43.1107913" lon="12.2244287"><ele>488.0</ele><time>2026-03-29T13:45:32.461Z</time></trkpt><trkpt lat="43.1107417" lon="12.2242765"><ele>487.99999999999994</ele><time>2026-03-29T13:45:34.46Z</time></trkpt><trkpt lat="43.1107166" lon="12.2241872"><ele>488.0</ele><time>2026-03-29T13:45:35.46Z</time></trkpt><trkpt lat="43.1106918" lon="12.2240974"><ele>486.4</ele><time>2026-03-29T13:45:36.461Z</time></trkpt><trkpt lat="43.1106708" lon="12.2240125"><ele>484.79999999999995</ele><time>2026-03-29T13:45:37.461Z</time></trkpt><trkpt lat="43.1106374" lon="12.2238909"><ele>483.2</ele><time>2026-03-29T13:45:39.46Z</time></trkpt><trkpt lat="43.1106091" lon="12.2237876"><ele>481.6</ele><time>2026-03-29T13:45:41.459Z</time></trkpt><trkpt lat="43.1105027" lon="12.2236773"><ele>480.0</ele><time>2026-03-29T13:45:43.46Z</time></trkpt><trkpt lat="43.1104187" lon="12.223574"><ele>480.0</ele><time>2026-03-29T13:45:44.461Z</time></trkpt><trkpt lat="43.1103492" lon="12.2234821"><ele>480.0</ele><time>2026-03-29T13:45:45.46Z</time></trkpt><trkpt lat="43.1102873" lon="12.2233988"><ele>480.0</ele><time>2026-03-29T13:45:46.461Z</time></trkpt><trkpt lat="43.1102334" lon="12.2233064"><ele>480.0</ele><time>2026-03-29T13:45:47.46Z</time></trkpt><trkpt lat="43.1101791" lon="12.223218"><ele>480.0</ele><time>2026-03-29T13:45:48.46Z</time></trkpt><trkpt lat="43.1101213" lon="12.2231362"><ele>480.0</ele><time>2026-03-29T13:45:49.461Z</time></trkpt><trkpt lat="43.1100803" lon="12.2230536"><ele>479.1666666666667</ele><time>2026-03-29T13:45:50.46Z</time></trkpt><trkpt lat="43.1100261" lon="12.2229491"><ele>478.33333333333337</ele><time>2026-03-29T13:45:51.46Z</time></trkpt><trkpt lat="43.1099873" lon="12.2228407"><ele>477.5</ele><time>2026-03-29T13:45:52.461Z</time></trkpt><trkpt lat="43.1099674" lon="12.2227385"><ele>476.6666666666667</ele><time>2026-03-29T13:45:53.461Z</time></trkpt><trkpt lat="43.109938" lon="12.2226335"><ele>475.83333333333337</ele><time>2026-03-29T13:45:54.46Z</time></trkpt><trkpt lat="43.1098996" lon="12.2225228"><ele>475.0</ele><time>2026-03-29T13:45:55.46Z</time></trkpt><trkpt lat="43.1098407" lon="12.2224118"><ele>473.33333333333337</ele><time>2026-03-29T13:45:56.46Z</time></trkpt><trkpt lat="43.1097882" lon="12.2222926"><ele>471.6666666666667</ele><time>2026-03-29T13:45:57.46Z</time></trkpt><trkpt lat="43.1097399" lon="12.2221871"><ele>470.0</ele><time>2026-03-29T13:45:58.461Z</time></trkpt><trkpt lat="43.1096936" lon="12.2220811"><ele>468.33333333333337</ele><time>2026-03-29T13:45:59.461Z</time></trkpt><trkpt lat="43.1096367" lon="12.2220155"><ele>466.6666666666667</ele><time>2026-03-29T13:46:00.461Z</time></trkpt><trkpt lat="43.1096039" lon="12.2219388"><ele>465.0</ele><time>2026-03-29T13:46:01.461Z</time></trkpt><trkpt lat="43.1095736" lon="12.2218396"><ele>465.0</ele><time>2026-03-29T13:46:02.46Z</time></trkpt><trkpt lat="43.1095412" lon="12.22175"><ele>465.0</ele><time>2026-03-29T13:46:03.461Z</time></trkpt><trkpt lat="43.1095406" lon="12.2216477"><ele>465.0</ele><time>2026-03-29T13:46:04.46Z</time></trkpt><trkpt lat="43.1095282" lon="12.2215468"><ele>465.0</ele><time>2026-03-29T13:46:05.46Z</time></trkpt><trkpt lat="43.109483" lon="12.2214659"><ele>465.0</ele><time>2026-03-29T13:46:07.46Z</time></trkpt><trkpt lat="43.1094424" lon="12.2213943"><ele>465.0</ele><time>2026-03-29T13:46:08.46Z</time></trkpt><trkpt lat="43.1094005" lon="12.221249"><ele>463.8333333333333</ele><time>2026-03-29T13:46:10.461Z</time></trkpt><trkpt lat="43.1093336" lon="12.2211901"><ele>462.66666666666663</ele><time>2026-03-29T13:46:12.46Z</time></trkpt><trkpt lat="43.109245" lon="12.2211128"><ele>461.5</ele><time>2026-03-29T13:46:14.46Z</time></trkpt><trkpt lat="43.1091916" lon="12.2210542"><ele>460.3333333333333</ele><time>2026-03-29T13:46:15.46Z</time></trkpt><trkpt lat="43.1091557" lon="12.2209754"><ele>459.16666666666663</ele><time>2026-03-29T13:46:16.461Z</time></trkpt><trkpt lat="43.109109" lon="12.2208465"><ele>458.0</ele><time>2026-03-29T13:46:17.46Z</time></trkpt><trkpt lat="43.109051" lon="12.2207633"><ele>457.3333333333333</ele><time>2026-03-29T13:46:18.461Z</time></trkpt><trkpt lat="43.1089839" lon="12.2207289"><ele>456.66666666666663</ele><time>2026-03-29T13:46:19.46Z</time></trkpt><trkpt lat="43.1089018" lon="12.2206678"><ele>456.0</ele><time>2026-03-29T13:46:20.461Z</time></trkpt><trkpt lat="43.1088261" lon="12.2206234"><ele>455.33333333333337</ele><time>2026-03-29T13:46:21.46Z</time></trkpt><trkpt lat="43.1087518" lon="12.2205675"><ele>454.6666666666667</ele><time>2026-03-29T13:46:22.46Z</time></trkpt><trkpt lat="43.1086805" lon="12.2205059"><ele>454.0</ele><time>2026-03-29T13:46:23.461Z</time></trkpt><trkpt lat="43.1086236" lon="12.2204357"><ele>454.0</ele><time>2026-03-29T13:46:24.46Z</time></trkpt><trkpt lat="43.1085728" lon="12.2203537"><ele>454.0</ele><time>2026-03-29T13:46:25.46Z</time></trkpt><trkpt lat="43.1085348" lon="12.2202795"><ele>454.0</ele><time>2026-03-29T13:46:26.46Z</time></trkpt><trkpt lat="43.1084584" lon="12.220154"><ele>454.0</ele><time>2026-03-29T13:46:28.46Z</time></trkpt><trkpt lat="43.1083776" lon="12.2199949"><ele>454.0</ele><time>2026-03-29T13:46:30.461Z</time></trkpt><trkpt lat="43.1083334" lon="12.2199195"><ele>454.00000000000006</ele><time>2026-03-29T13:46:31.46Z</time></trkpt><trkpt lat="43.1082748" lon="12.2198551"><ele>454.0</ele><time>2026-03-29T13:46:32.46Z</time></trkpt><trkpt lat="43.1082087" lon="12.2198055"><ele>454.0</ele><time>2026-03-29T13:46:33.461Z</time></trkpt><trkpt lat="43.108148" lon="12.2197569"><ele>454.0</ele><time>2026-03-29T13:46:34.461Z</time></trkpt><trkpt lat="43.1080564" lon="12.2196928"><ele>454.00000000000006</ele><time>2026-03-29T13:46:36.46Z</time></trkpt><trkpt lat="43.1079783" lon="12.2196807"><ele>454.0</ele><time>2026-03-29T13:46:39.46Z</time></trkpt><trkpt lat="43.1079029" lon="12.2196975"><ele>456.00000000000006</ele><time>2026-03-29T13:46:42.46Z</time></trkpt><trkpt lat="43.1078325" lon="12.2196696"><ele>458.0</ele><time>2026-03-29T13:46:44.461Z</time></trkpt><trkpt lat="43.1077278" lon="12.2196592"><ele>460.0</ele><time>2026-03-29T13:46:46.46Z</time></trkpt><trkpt lat="43.1076208" lon="12.219668"><ele>462.0</ele><time>2026-03-29T13:46:48.46Z</time></trkpt><trkpt lat="43.1075351" lon="12.2196509"><ele>464.00000000000006</ele><time>2026-03-29T13:46:50.461Z</time></trkpt><trkpt lat="43.1074753" lon="12.2197114"><ele>466.0</ele><time>2026-03-29T13:46:53.461Z</time></trkpt><trkpt lat="43.1075416" lon="12.2197681"><ele>466.00000000000006</ele><time>2026-03-29T13:46:55.46Z</time></trkpt><trkpt lat="43.1076134" lon="12.2198038"><ele>466.0</ele><time>2026-03-29T13:46:57.46Z</time></trkpt><trkpt lat="43.1076816" lon="12.2198459"><ele>466.0</ele><time>2026-03-29T13:46:59.46Z</time></trkpt><trkpt lat="43.1077262" lon="12.2199154"><ele>466.0</ele><time>2026-03-29T13:47:01.46Z</time></trkpt><trkpt lat="43.1077696" lon="12.2199847"><ele>466.00000000000006</ele><time>2026-03-29T13:47:03.461Z</time></trkpt><trkpt lat="43.1078305" lon="12.2200554"><ele>466.0</ele><time>2026-03-29T13:47:06.461Z</time></trkpt><trkpt lat="43.107875" lon="12.2202025"><ele>462.50000000000006</ele><time>2026-03-29T13:47:09.46Z</time></trkpt><trkpt lat="43.1078915" lon="12.2202872"><ele>459.0</ele><time>2026-03-29T13:47:10.46Z</time></trkpt><trkpt lat="43.1079141" lon="12.2204131"><ele>455.5</ele><time>2026-03-29T13:47:12.46Z</time></trkpt><trkpt lat="43.1079488" lon="12.2205536"><ele>452.0</ele><time>2026-03-29T13:47:14.461Z</time></trkpt><trkpt lat="43.1079769" lon="12.2206534"><ele>448.50000000000006</ele><time>2026-03-29T13:47:16.46Z</time></trkpt><trkpt lat="43.1080185" lon="12.220729"><ele>445.0</ele><time>2026-03-29T13:47:18.46Z</time></trkpt><trkpt lat="43.108074" lon="12.2208167"><ele>445.2</ele><time>2026-03-29T13:47:20.461Z</time></trkpt><trkpt lat="43.1081398" lon="12.2209333"><ele>445.4</ele><time>2026-03-29T13:47:22.461Z</time></trkpt><trkpt lat="43.1081843" lon="12.2210009"><ele>445.6</ele><time>2026-03-29T13:47:24.46Z</time></trkpt><trkpt lat="43.1082218" lon="12.2210823"><ele>445.8</ele><time>2026-03-29T13:47:26.461Z</time></trkpt><trkpt lat="43.1082586" lon="12.2211569"><ele>446.0</ele><time>2026-03-29T13:47:28.46Z</time></trkpt><trkpt lat="43.1082811" lon="12.2213466"><ele>445.99999999999994</ele><time>2026-03-29T13:47:30.459Z</time></trkpt><trkpt lat="43.1082826" lon="12.2214735"><ele>446.0</ele><time>2026-03-29T13:47:31.461Z</time></trkpt><trkpt lat="43.1082905" lon="12.2215729"><ele>446.0</ele><time>2026-03-29T13:47:32.461Z</time></trkpt><trkpt lat="43.1082983" lon="12.2216815"><ele>446.0</ele><time>2026-03-29T13:47:33.461Z</time></trkpt><trkpt lat="43.1082772" lon="12.2218508"><ele>445.99999999999994</ele><time>2026-03-29T13:47:34.461Z</time></trkpt><trkpt lat="43.1082803" lon="12.2219536"><ele>446.0</ele><time>2026-03-29T13:47:35.461Z</time></trkpt><trkpt lat="43.1082656" lon="12.2221409"><ele>444.20000000000005</ele><time>2026-03-29T13:47:37.461Z</time></trkpt><trkpt lat="43.1082616" lon="12.2222926"><ele>442.40000000000003</ele><time>2026-03-29T13:47:39.46Z</time></trkpt><trkpt lat="43.1082349" lon="12.2224297"><ele>440.6</ele><time>2026-03-29T13:47:41.461Z</time></trkpt><trkpt lat="43.1082196" lon="12.2225279"><ele>438.8</ele><time>2026-03-29T13:47:43.46Z</time></trkpt><trkpt lat="43.1082138" lon="12.2226286"><ele>437.0</ele><time>2026-03-29T13:47:45.46Z</time></trkpt><trkpt lat="43.1082339" lon="12.2227524"><ele>435.49999999999994</ele><time>2026-03-29T13:47:47.46Z</time></trkpt><trkpt lat="43.1082923" lon="12.2229074"><ele>434.0</ele><time>2026-03-29T13:47:49.46Z</time></trkpt><trkpt lat="43.1082927" lon="12.2230168"><ele>432.5</ele><time>2026-03-29T13:47:50.46Z</time></trkpt><trkpt lat="43.108291" lon="12.2231358"><ele>431.0</ele><time>2026-03-29T13:47:52.461Z</time></trkpt><trkpt lat="43.1082267" lon="12.2232006"><ele>429.49999999999994</ele><time>2026-03-29T13:47:54.461Z</time></trkpt><trkpt lat="43.108175" lon="12.2231309"><ele>428.0</ele><time>2026-03-29T13:47:56.461Z</time></trkpt><trkpt lat="43.1081399" lon="12.2229716"><ele>421.25</ele><time>2026-03-29T13:47:57.46Z</time></trkpt><trkpt lat="43.1080715" lon="12.2228622"><ele>414.5</ele><time>2026-03-29T13:47:59.461Z</time></trkpt><trkpt lat="43.1079937" lon="12.2227308"><ele>407.75</ele><time>2026-03-29T13:48:00.46Z</time></trkpt><trkpt lat="43.1079343" lon="12.2226436"><ele>401.0</ele><time>2026-03-29T13:48:01.46Z</time></trkpt><trkpt lat="43.1078332" lon="12.222516"><ele>401.0</ele><time>2026-03-29T13:48:03.46Z</time></trkpt><trkpt lat="43.1077693" lon="12.2223821"><ele>401.0</ele><time>2026-03-29T13:48:05.461Z</time></trkpt><trkpt lat="43.1077191" lon="12.2224663"><ele>401.0</ele><time>2026-03-29T13:48:09.46Z</time></trkpt><trkpt lat="43.1077493" lon="12.222563"><ele>401.0</ele><time>2026-03-29T13:48:11.46Z</time></trkpt><trkpt lat="43.1077931" lon="12.2226908"><ele>401.0</ele><time>2026-03-29T13:48:12.46Z</time></trkpt><trkpt lat="43.1078211" lon="12.2228339"><ele>401.0</ele><time>2026-03-29T13:48:13.46Z</time></trkpt><trkpt lat="43.1078558" lon="12.2229187"><ele>401.0</ele><time>2026-03-29T13:48:14.461Z</time></trkpt><trkpt lat="43.1078879" lon="12.2230002"><ele>401.0</ele><time>2026-03-29T13:48:15.46Z</time></trkpt><trkpt lat="43.1079311" lon="12.2230649"><ele>401.0</ele><time>2026-03-29T13:48:16.461Z</time></trkpt><trkpt lat="43.1079537" lon="12.2231888"><ele>401.0</ele><time>2026-03-29T13:48:17.46Z</time></trkpt><trkpt lat="43.1079297" lon="12.2232902"><ele>401.0</ele><time>2026-03-29T13:48:18.461Z</time></trkpt><trkpt lat="43.1079098" lon="12.2233783"><ele>401.0</ele><time>2026-03-29T13:48:19.46Z</time></trkpt><trkpt lat="43.1078889" lon="12.2234655"><ele>399.3333333333333</ele><time>2026-03-29T13:48:20.46Z</time></trkpt><trkpt lat="43.1078761" lon="12.2235642"><ele>397.66666666666663</ele><time>2026-03-29T13:48:21.461Z</time></trkpt><trkpt lat="43.1078831" lon="12.2236585"><ele>396.0</ele><time>2026-03-29T13:48:22.46Z</time></trkpt><trkpt lat="43.1078825" lon="12.2237546"><ele>394.33333333333337</ele><time>2026-03-29T13:48:23.46Z</time></trkpt><trkpt lat="43.1078722" lon="12.2238424"><ele>392.6666666666667</ele><time>2026-03-29T13:48:24.46Z</time></trkpt><trkpt lat="43.1078573" lon="12.2239727"><ele>391.0</ele><time>2026-03-29T13:48:26.461Z</time></trkpt><trkpt lat="43.1078929" lon="12.2241195"><ele>390.6666666666667</ele><time>2026-03-29T13:48:28.46Z</time></trkpt><trkpt lat="43.1079105" lon="12.224206"><ele>390.33333333333337</ele><time>2026-03-29T13:48:29.461Z</time></trkpt><trkpt lat="43.1079195" lon="12.224321"><ele>390.0</ele><time>2026-03-29T13:48:30.46Z</time></trkpt><trkpt lat="43.1079394" lon="12.2244195"><ele>389.66666666666663</ele><time>2026-03-29T13:48:31.461Z</time></trkpt><trkpt lat="43.1079573" lon="12.224528"><ele>389.3333333333333</ele><time>2026-03-29T13:48:32.46Z</time></trkpt><trkpt lat="43.1079909" lon="12.2246284"><ele>389.0</ele><time>2026-03-29T13:48:33.46Z</time></trkpt><trkpt lat="43.1080458" lon="12.2247469"><ele>389.66666666666663</ele><time>2026-03-29T13:48:34.46Z</time></trkpt><trkpt lat="43.1081071" lon="12.2248389"><ele>390.3333333333333</ele><time>2026-03-29T13:48:35.46Z</time></trkpt><trkpt lat="43.1081486" lon="12.224946"><ele>391.0</ele><time>2026-03-29T13:48:36.46Z</time></trkpt><trkpt lat="43.1081817" lon="12.2250212"><ele>391.66666666666663</ele><time>2026-03-29T13:48:37.46Z</time></trkpt><trkpt lat="43.1081627" lon="12.2251747"><ele>392.3333333333333</ele><time>2026-03-29T13:48:39.46Z</time></trkpt><trkpt lat="43.1081038" lon="12.2252667"><ele>393.0</ele><time>2026-03-29T13:48:40.46Z</time></trkpt><trkpt lat="43.107979" lon="12.2252508"><ele>393.0</ele><time>2026-03-29T13:48:41.461Z</time></trkpt><trkpt lat="43.107856" lon="12.2253511"><ele>393.0</ele><time>2026-03-29T13:48:43.461Z</time></trkpt><trkpt lat="43.1077903" lon="12.2253961"><ele>393.0</ele><time>2026-03-29T13:48:44.46Z</time></trkpt><trkpt lat="43.1077329" lon="12.2255263"><ele>393.0</ele><time>2026-03-29T13:48:46.46Z</time></trkpt><trkpt lat="43.1077604" lon="12.2256776"><ele>393.0</ele><time>2026-03-29T13:48:48.461Z</time></trkpt><trkpt lat="43.1078037" lon="12.2257646"><ele>392.8333333333333</ele><time>2026-03-29T13:48:49.461Z</time></trkpt><trkpt lat="43.1079155" lon="12.2258103"><ele>392.66666666666663</ele><time>2026-03-29T13:48:50.46Z</time></trkpt><trkpt lat="43.1079857" lon="12.2258763"><ele>392.5</ele><time>2026-03-29T13:48:51.46Z</time></trkpt><trkpt lat="43.1080585" lon="12.2259245"><ele>392.3333333333333</ele><time>2026-03-29T13:48:52.461Z</time></trkpt><trkpt lat="43.1081228" lon="12.2259761"><ele>392.16666666666663</ele><time>2026-03-29T13:48:53.459Z</time></trkpt><trkpt lat="43.1081789" lon="12.2260346"><ele>392.0</ele><time>2026-03-29T13:48:54.46Z</time></trkpt><trkpt lat="43.1082646" lon="12.2261904"><ele>391.20000000000005</ele><time>2026-03-29T13:48:56.461Z</time></trkpt><trkpt lat="43.1083003" lon="12.2262764"><ele>390.4</ele><time>2026-03-29T13:48:57.461Z</time></trkpt><trkpt lat="43.1083398" lon="12.226377"><ele>389.6</ele><time>2026-03-29T13:48:58.46Z</time></trkpt><trkpt lat="43.1083821" lon="12.2265151"><ele>388.79999999999995</ele><time>2026-03-29T13:49:00.461Z</time></trkpt><trkpt lat="43.1084234" lon="12.226674"><ele>388.0</ele><time>2026-03-29T13:49:02.461Z</time></trkpt><trkpt lat="43.1084792" lon="12.2268207"><ele>388.0</ele><time>2026-03-29T13:49:04.46Z</time></trkpt><trkpt lat="43.108511" lon="12.2269166"><ele>388.0</ele><time>2026-03-29T13:49:05.46Z</time></trkpt><trkpt lat="43.1085447" lon="12.226994"><ele>388.0</ele><time>2026-03-29T13:49:06.461Z</time></trkpt><trkpt lat="43.1085918" lon="12.2270722"><ele>388.0</ele><time>2026-03-29T13:49:07.46Z</time></trkpt><trkpt lat="43.1086253" lon="12.2271499"><ele>388.0</ele><time>2026-03-29T13:49:08.46Z</time></trkpt><trkpt lat="43.1086649" lon="12.2272343"><ele>388.0</ele><time>2026-03-29T13:49:09.46Z</time></trkpt><trkpt lat="43.1087009" lon="12.2273194"><ele>388.0</ele><time>2026-03-29T13:49:10.46Z</time></trkpt><trkpt lat="43.1087479" lon="12.2273976"><ele>388.00000000000006</ele><time>2026-03-29T13:49:11.46Z</time></trkpt><trkpt lat="43.1087948" lon="12.2274688"><ele>388.0</ele><time>2026-03-29T13:49:12.461Z</time></trkpt><trkpt lat="43.1088597" lon="12.2275509"><ele>388.0</ele><time>2026-03-29T13:49:13.461Z</time></trkpt><trkpt lat="43.1089331" lon="12.2275869"><ele>388.0</ele><time>2026-03-29T13:49:14.46Z</time></trkpt><trkpt lat="43.1090159" lon="12.2276327"><ele>388.00000000000006</ele><time>2026-03-29T13:49:15.46Z</time></trkpt><trkpt lat="43.1090945" lon="12.227673"><ele>388.0</ele><time>2026-03-29T13:49:16.46Z</time></trkpt><trkpt lat="43.1091726" lon="12.2277384"><ele>388.0</ele><time>2026-03-29T13:49:17.461Z</time></trkpt><trkpt lat="43.1092277" lon="12.2278355"><ele>388.0</ele><time>2026-03-29T13:49:18.461Z</time></trkpt><trkpt lat="43.1092542" lon="12.2279596"><ele>388.0</ele><time>2026-03-29T13:49:19.46Z</time></trkpt><trkpt lat="43.109206" lon="12.2281879"><ele>388.0</ele><time>2026-03-29T13:49:20.46Z</time></trkpt><trkpt lat="43.1091978" lon="12.2283276"><ele>385.79999999999995</ele><time>2026-03-29T13:49:21.459Z</time></trkpt><trkpt lat="43.1091577" lon="12.228477"><ele>383.6</ele><time>2026-03-29T13:49:23.461Z</time></trkpt><trkpt lat="43.1091397" lon="12.2285707"><ele>381.4</ele><time>2026-03-29T13:49:24.46Z</time></trkpt><trkpt lat="43.1091638" lon="12.2287399"><ele>379.20000000000005</ele><time>2026-03-29T13:49:26.461Z</time></trkpt><trkpt lat="43.1091707" lon="12.2288394"><ele>377.0</ele><time>2026-03-29T13:49:27.461Z</time></trkpt><trkpt lat="43.1091994" lon="12.2289291"><ele>376.0</ele><time>2026-03-29T13:49:28.461Z</time></trkpt><trkpt lat="43.1092244" lon="12.2290351"><ele>375.0</ele><time>2026-03-29T13:49:29.46Z</time></trkpt><trkpt lat="43.1092275" lon="12.2292459"><ele>374.0</ele><time>2026-03-29T13:49:31.46Z</time></trkpt><trkpt lat="43.1092132" lon="12.2293769"><ele>373.0</ele><time>2026-03-29T13:49:32.461Z</time></trkpt><trkpt lat="43.1092061" lon="12.2295024"><ele>372.0</ele><time>2026-03-29T13:49:33.461Z</time></trkpt><trkpt lat="43.1091723" lon="12.2296332"><ele>372.0</ele><time>2026-03-29T13:49:34.462Z</time></trkpt><trkpt lat="43.1091271" lon="12.2297164"><ele>372.0</ele><time>2026-03-29T13:49:35.461Z</time></trkpt><trkpt lat="43.1090978" lon="12.2298225"><ele>372.0</ele><time>2026-03-29T13:49:36.46Z</time></trkpt><trkpt lat="43.109064" lon="12.2299185"><ele>372.0</ele><time>2026-03-29T13:49:37.46Z</time></trkpt><trkpt lat="43.109033" lon="12.2300069"><ele>372.0</ele><time>2026-03-29T13:49:38.461Z</time></trkpt><trkpt lat="43.109" lon="12.2300973"><ele>372.0</ele><time>2026-03-29T13:49:39.46Z</time></trkpt><trkpt lat="43.1090139" lon="12.230192"><ele>370.6</ele><time>2026-03-29T13:49:40.46Z</time></trkpt><trkpt lat="43.1090027" lon="12.2303036"><ele>369.20000000000005</ele><time>2026-03-29T13:49:41.46Z</time></trkpt><trkpt lat="43.109018" lon="12.2304502"><ele>367.8</ele><time>2026-03-29T13:49:42.462Z</time></trkpt><trkpt lat="43.1090061" lon="12.2305734"><ele>366.4</ele><time>2026-03-29T13:49:43.461Z</time></trkpt><trkpt lat="43.1089985" lon="12.2306932"><ele>365.0</ele><time>2026-03-29T13:49:44.462Z</time></trkpt><trkpt lat="43.1089861" lon="12.2308057"><ele>365.0</ele><time>2026-03-29T13:49:45.461Z</time></trkpt><trkpt lat="43.108943" lon="12.2309186"><ele>365.0</ele><time>2026-03-29T13:49:46.461Z</time></trkpt><trkpt lat="43.1089044" lon="12.2310319"><ele>365.0</ele><time>2026-03-29T13:49:47.462Z</time></trkpt><trkpt lat="43.1088517" lon="12.2311271"><ele>365.0</ele><time>2026-03-29T13:49:48.462Z</time></trkpt><trkpt lat="43.1088026" lon="12.2312355"><ele>365.0</ele><time>2026-03-29T13:49:49.462Z</time></trkpt><trkpt lat="43.1087631" lon="12.2313418"><ele>364.2</ele><time>2026-03-29T13:49:50.462Z</time></trkpt><trkpt lat="43.1087021" lon="12.2315108"><ele>363.4</ele><time>2026-03-29T13:49:52.462Z</time></trkpt><trkpt lat="43.1086642" lon="12.2316157"><ele>362.6</ele><time>2026-03-29T13:49:53.461Z</time></trkpt><trkpt lat="43.1086194" lon="12.2317215"><ele>361.8</ele><time>2026-03-29T13:49:54.461Z</time></trkpt><trkpt lat="43.1085917" lon="12.23182"><ele>361.0</ele><time>2026-03-29T13:49:55.462Z</time></trkpt><trkpt lat="43.1085491" lon="12.2319291"><ele>361.0</ele><time>2026-03-29T13:49:57.461Z</time></trkpt><trkpt lat="43.1085004" lon="12.2319843"><ele>361.0</ele><time>2026-03-29T13:49:58.462Z</time></trkpt><trkpt lat="43.108401" lon="12.2320129"><ele>361.0</ele><time>2026-03-29T13:50:00.462Z</time></trkpt><trkpt lat="43.1082829" lon="12.2320143"><ele>361.0</ele><time>2026-03-29T13:50:02.462Z</time></trkpt><trkpt lat="43.1081528" lon="12.232041"><ele>361.0</ele><time>2026-03-29T13:50:04.461Z</time></trkpt><trkpt lat="43.1080853" lon="12.2320441"><ele>358.8333333333333</ele><time>2026-03-29T13:50:05.462Z</time></trkpt><trkpt lat="43.108016" lon="12.2320323"><ele>356.66666666666663</ele><time>2026-03-29T13:50:06.461Z</time></trkpt><trkpt lat="43.1079463" lon="12.2320364"><ele>354.5</ele><time>2026-03-29T13:50:07.462Z</time></trkpt><trkpt lat="43.1078336" lon="12.232114"><ele>352.3333333333333</ele><time>2026-03-29T13:50:09.461Z</time></trkpt><trkpt lat="43.1077801" lon="12.232169"><ele>350.1666666666667</ele><time>2026-03-29T13:50:10.461Z</time></trkpt><trkpt lat="43.1077335" lon="12.2322336"><ele>348.0</ele><time>2026-03-29T13:50:11.462Z</time></trkpt><trkpt lat="43.1076868" lon="12.2323034"><ele>347.5</ele><time>2026-03-29T13:50:12.462Z</time></trkpt><trkpt lat="43.1076433" lon="12.23237"><ele>347.0</ele><time>2026-03-29T13:50:13.461Z</time></trkpt><trkpt lat="43.1075997" lon="12.232443"><ele>346.5</ele><time>2026-03-29T13:50:14.462Z</time></trkpt><trkpt lat="43.1075294" lon="12.2325759"><ele>346.0</ele><time>2026-03-29T13:50:16.461Z</time></trkpt><trkpt lat="43.1074874" lon="12.2326422"><ele>345.5</ele><time>2026-03-29T13:50:17.462Z</time></trkpt><trkpt lat="43.1074397" lon="12.2327622"><ele>345.0</ele><time>2026-03-29T13:50:19.462Z</time></trkpt><trkpt lat="43.1074022" lon="12.2328808"><ele>344.6</ele><time>2026-03-29T13:50:21.461Z</time></trkpt><trkpt lat="43.1073723" lon="12.2330214"><ele>344.2</ele><time>2026-03-29T13:50:23.462Z</time></trkpt><trkpt lat="43.1073638" lon="12.2331732"><ele>343.79999999999995</ele><time>2026-03-29T13:50:25.462Z</time></trkpt><trkpt lat="43.1073409" lon="12.2333571"><ele>343.4</ele><time>2026-03-29T13:50:27.462Z</time></trkpt><trkpt lat="43.107303" lon="12.2334489"><ele>343.0</ele><time>2026-03-29T13:50:28.461Z</time></trkpt><trkpt lat="43.1072482" lon="12.2335408"><ele>342.8333333333333</ele><time>2026-03-29T13:50:29.461Z</time></trkpt><trkpt lat="43.107188" lon="12.2335986"><ele>342.66666666666663</ele><time>2026-03-29T13:50:30.462Z</time></trkpt><trkpt lat="43.1071344" lon="12.2336557"><ele>342.5</ele><time>2026-03-29T13:50:31.462Z</time></trkpt><trkpt lat="43.107094" lon="12.2337271"><ele>342.3333333333333</ele><time>2026-03-29T13:50:33.462Z</time></trkpt><trkpt lat="43.1071307" lon="12.2338092"><ele>342.1666666666667</ele><time>2026-03-29T13:50:35.461Z</time></trkpt><trkpt lat="43.1072318" lon="12.2338307"><ele>342.0</ele><time>2026-03-29T13:50:36.462Z</time></trkpt><trkpt lat="43.1072979" lon="12.2337355"><ele>342.0</ele><time>2026-03-29T13:50:37.461Z</time></trkpt><trkpt lat="43.1074028" lon="12.2336237"><ele>342.0</ele><time>2026-03-29T13:50:39.461Z</time></trkpt><trkpt lat="43.1074633" lon="12.2335906"><ele>342.0</ele><time>2026-03-29T13:50:41.461Z</time></trkpt><trkpt lat="43.1074764" lon="12.2337269"><ele>342.0</ele><time>2026-03-29T13:50:43.461Z</time></trkpt><trkpt lat="43.1074158" lon="12.233846"><ele>342.0</ele><time>2026-03-29T13:50:44.462Z</time></trkpt><trkpt lat="43.1073713" lon="12.2339558"><ele>338.8333333333333</ele><time>2026-03-29T13:50:45.462Z</time></trkpt><trkpt lat="43.1073312" lon="12.2340706"><ele>335.6666666666667</ele><time>2026-03-29T13:50:46.462Z</time></trkpt><trkpt lat="43.1072889" lon="12.234179"><ele>332.5</ele><time>2026-03-29T13:50:47.461Z</time></trkpt><trkpt lat="43.1072475" lon="12.2342682"><ele>329.33333333333337</ele><time>2026-03-29T13:50:48.462Z</time></trkpt><trkpt lat="43.1071902" lon="12.234317"><ele>326.1666666666667</ele><time>2026-03-29T13:50:49.462Z</time></trkpt><trkpt lat="43.1071069" lon="12.234334"><ele>323.0</ele><time>2026-03-29T13:50:50.461Z</time></trkpt><trkpt lat="43.1070168" lon="12.2343322"><ele>323.0</ele><time>2026-03-29T13:50:51.461Z</time></trkpt><trkpt lat="43.1069188" lon="12.2343411"><ele>323.0</ele><time>2026-03-29T13:50:52.46Z</time></trkpt><trkpt lat="43.1068353" lon="12.2343579"><ele>323.0</ele><time>2026-03-29T13:50:53.461Z</time></trkpt><trkpt lat="43.1067674" lon="12.2343928"><ele>323.0</ele><time>2026-03-29T13:50:54.461Z</time></trkpt><trkpt lat="43.1066888" lon="12.2344433"><ele>323.0</ele><time>2026-03-29T13:50:56.462Z</time></trkpt><trkpt lat="43.106696" lon="12.2345325"><ele>323.0</ele><time>2026-03-29T13:50:59.462Z</time></trkpt><trkpt lat="43.1067931" lon="12.2345538"><ele>323.0</ele><time>2026-03-29T13:51:01.462Z</time></trkpt><trkpt lat="43.1068575" lon="12.2345996"><ele>323.0</ele><time>2026-03-29T13:51:02.461Z</time></trkpt><trkpt lat="43.106934" lon="12.2346572"><ele>323.0</ele><time>2026-03-29T13:51:03.462Z</time></trkpt><trkpt lat="43.1070135" lon="12.2347226"><ele>323.0</ele><time>2026-03-29T13:51:04.462Z</time></trkpt><trkpt lat="43.1071071" lon="12.234792"><ele>323.0</ele><time>2026-03-29T13:51:05.462Z</time></trkpt><trkpt lat="43.1071949" lon="12.2348681"><ele>320.33333333333337</ele><time>2026-03-29T13:51:06.462Z</time></trkpt><trkpt lat="43.1072711" lon="12.2349511"><ele>317.6666666666667</ele><time>2026-03-29T13:51:07.461Z</time></trkpt><trkpt lat="43.1073308" lon="12.2350363"><ele>315.0</ele><time>2026-03-29T13:51:08.462Z</time></trkpt><trkpt lat="43.1073876" lon="12.2351217"><ele>312.3333333333333</ele><time>2026-03-29T13:51:09.462Z</time></trkpt><trkpt lat="43.1074428" lon="12.2352041"><ele>309.66666666666663</ele><time>2026-03-29T13:51:10.461Z</time></trkpt><trkpt lat="43.1075031" lon="12.235273"><ele>307.0</ele><time>2026-03-29T13:51:11.461Z</time></trkpt><trkpt lat="43.1075621" lon="12.2353189"><ele>307.0</ele><time>2026-03-29T13:51:12.461Z</time></trkpt><trkpt lat="43.1076549" lon="12.2354043"><ele>307.0</ele><time>2026-03-29T13:51:14.462Z</time></trkpt><trkpt lat="43.1077244" lon="12.2354002"><ele>307.0</ele><time>2026-03-29T13:51:16.462Z</time></trkpt><trkpt lat="43.107786" lon="12.2353202"><ele>307.0</ele><time>2026-03-29T13:51:19.461Z</time></trkpt><trkpt lat="43.1078368" lon="12.2352161"><ele>307.0</ele><time>2026-03-29T13:51:22.462Z</time></trkpt><trkpt lat="43.1078793" lon="12.2351294"><ele>307.0</ele><time>2026-03-29T13:51:24.461Z</time></trkpt><trkpt lat="43.107916" lon="12.2350365"><ele>307.0</ele><time>2026-03-29T13:51:25.462Z</time></trkpt><trkpt lat="43.1079369" lon="12.2349515"><ele>307.0</ele><time>2026-03-29T13:51:26.461Z</time></trkpt><trkpt lat="43.107949" lon="12.2348509"><ele>307.0</ele><time>2026-03-29T13:51:27.462Z</time></trkpt><trkpt lat="43.1079581" lon="12.2347365"><ele>307.0</ele><time>2026-03-29T13:51:28.461Z</time></trkpt><trkpt lat="43.1079686" lon="12.2346267"><ele>307.0</ele><time>2026-03-29T13:51:29.461Z</time></trkpt><trkpt lat="43.107979" lon="12.2345168"><ele>307.0</ele><time>2026-03-29T13:51:30.462Z</time></trkpt><trkpt lat="43.1079959" lon="12.2344291"><ele>307.4</ele><time>2026-03-29T13:51:31.461Z</time></trkpt><trkpt lat="43.1080256" lon="12.2343365"><ele>307.79999999999995</ele><time>2026-03-29T13:51:32.461Z</time></trkpt><trkpt lat="43.1081721" lon="12.2342852"><ele>308.2</ele><time>2026-03-29T13:51:36.461Z</time></trkpt><trkpt lat="43.1082294" lon="12.234326"><ele>308.59999999999997</ele><time>2026-03-29T13:51:37.461Z</time></trkpt><trkpt lat="43.1083803" lon="12.2343707"><ele>309.0</ele><time>2026-03-29T13:51:40.461Z</time></trkpt><trkpt lat="43.1084379" lon="12.2344083"><ele>309.0</ele><time>2026-03-29T13:51:41.462Z</time></trkpt><trkpt lat="43.1085114" lon="12.2344402"><ele>309.0</ele><time>2026-03-29T13:51:42.461Z</time></trkpt><trkpt lat="43.1085807" lon="12.2344849"><ele>309.0</ele><time>2026-03-29T13:51:43.461Z</time></trkpt><trkpt lat="43.108648" lon="12.2345228"><ele>309.0</ele><time>2026-03-29T13:51:44.461Z</time></trkpt><trkpt lat="43.1087186" lon="12.2345411"><ele>309.0</ele><time>2026-03-29T13:51:45.462Z</time></trkpt><trkpt lat="43.1088281" lon="12.2345569"><ele>309.0</ele><time>2026-03-29T13:51:47.462Z</time></trkpt><trkpt lat="43.108889" lon="12.2345798"><ele>309.0</ele><time>2026-03-29T13:51:48.461Z</time></trkpt><trkpt lat="43.1090175" lon="12.2346517"><ele>309.0</ele><time>2026-03-29T13:51:50.461Z</time></trkpt><trkpt lat="43.1090929" lon="12.234725"><ele>309.0</ele><time>2026-03-29T13:51:51.461Z</time></trkpt><trkpt lat="43.1091771" lon="12.2347679"><ele>309.0</ele><time>2026-03-29T13:51:52.461Z</time></trkpt><trkpt lat="43.1092565" lon="12.2348284"><ele>309.0</ele><time>2026-03-29T13:51:53.461Z</time></trkpt><trkpt lat="43.1093322" lon="12.2348614"><ele>305.6666666666667</ele><time>2026-03-29T13:51:54.461Z</time></trkpt><trkpt lat="43.1093952" lon="12.2348569"><ele>302.3333333333333</ele><time>2026-03-29T13:51:55.461Z</time></trkpt><trkpt lat="43.1094668" lon="12.2348704"><ele>299.0</ele><time>2026-03-29T13:51:56.461Z</time></trkpt><trkpt lat="43.1095454" lon="12.2348571"><ele>295.66666666666663</ele><time>2026-03-29T13:51:57.462Z</time></trkpt><trkpt lat="43.1096776" lon="12.2348812"><ele>292.3333333333333</ele><time>2026-03-29T13:51:59.461Z</time></trkpt><trkpt lat="43.1097484" lon="12.234891"><ele>289.0</ele><time>2026-03-29T13:52:00.461Z</time></trkpt><trkpt lat="43.1098766" lon="12.2348433"><ele>288.2</ele><time>2026-03-29T13:52:02.462Z</time></trkpt><trkpt lat="43.1099471" lon="12.23478"><ele>287.4</ele><time>2026-03-29T13:52:03.462Z</time></trkpt><trkpt lat="43.1100604" lon="12.2346632"><ele>286.6</ele><time>2026-03-29T13:52:05.462Z</time></trkpt><trkpt lat="43.1101287" lon="12.234603"><ele>285.8</ele><time>2026-03-29T13:52:06.461Z</time></trkpt><trkpt lat="43.1101912" lon="12.2345455"><ele>285.0</ele><time>2026-03-29T13:52:07.461Z</time></trkpt><trkpt lat="43.1102446" lon="12.2344479"><ele>285.0</ele><time>2026-03-29T13:52:08.462Z</time></trkpt><trkpt lat="43.1103151" lon="12.2343449"><ele>285.0</ele><time>2026-03-29T13:52:09.461Z</time></trkpt><trkpt lat="43.1103688" lon="12.2342335"><ele>285.0</ele><time>2026-03-29T13:52:10.462Z</time></trkpt><trkpt lat="43.1104027" lon="12.2341396"><ele>285.0</ele><time>2026-03-29T13:52:11.461Z</time></trkpt><trkpt lat="43.1104521" lon="12.2340556"><ele>285.0</ele><time>2026-03-29T13:52:12.461Z</time></trkpt><trkpt lat="43.110513" lon="12.2339863"><ele>285.0</ele><time>2026-03-29T13:52:13.462Z</time></trkpt><trkpt lat="43.1105645" lon="12.2338862"><ele>285.0</ele><time>2026-03-29T13:52:14.461Z</time></trkpt><trkpt lat="43.1106442" lon="12.2338698"><ele>285.0</ele><time>2026-03-29T13:52:16.462Z</time></trkpt><trkpt lat="43.1106065" lon="12.2339792"><ele>285.0</ele><time>2026-03-29T13:52:18.462Z</time></trkpt><trkpt lat="43.1105698" lon="12.2341154"><ele>285.0</ele><time>2026-03-29T13:52:20.463Z</time></trkpt><trkpt lat="43.1105465" lon="12.2342053"><ele>285.0</ele><time>2026-03-29T13:52:21.462Z</time></trkpt><trkpt lat="43.1105241" lon="12.234314"><ele>285.0</ele><time>2026-03-29T13:52:22.462Z</time></trkpt><trkpt lat="43.1104964" lon="12.2344246"><ele>285.0</ele><time>2026-03-29T13:52:23.461Z</time></trkpt><trkpt lat="43.1104694" lon="12.2345268"><ele>285.0</ele><time>2026-03-29T13:52:24.462Z</time></trkpt><trkpt lat="43.110448" lon="12.2346507"><ele>285.0</ele><time>2026-03-29T13:52:25.461Z</time></trkpt><trkpt lat="43.1104209" lon="12.2347803"><ele>285.0</ele><time>2026-03-29T13:52:26.463Z</time></trkpt><trkpt lat="43.1103923" lon="12.2349119"><ele>285.0</ele><time>2026-03-29T13:52:27.461Z</time></trkpt><trkpt lat="43.1103644" lon="12.23504"><ele>282.8333333333333</ele><time>2026-03-29T13:52:28.46Z</time></trkpt><trkpt lat="43.1103405" lon="12.2351558"><ele>280.6666666666667</ele><time>2026-03-29T13:52:29.462Z</time></trkpt><trkpt lat="43.1103344" lon="12.2352814"><ele>278.5</ele><time>2026-03-29T13:52:30.462Z</time></trkpt><trkpt lat="43.1103407" lon="12.2353947"><ele>276.33333333333337</ele><time>2026-03-29T13:52:31.462Z</time></trkpt><trkpt lat="43.1103523" lon="12.2355115"><ele>274.1666666666667</ele><time>2026-03-29T13:52:32.462Z</time></trkpt><trkpt lat="43.1103561" lon="12.2356175"><ele>272.0</ele><time>2026-03-29T13:52:33.461Z</time></trkpt><trkpt lat="43.1103495" lon="12.2357165"><ele>271.0</ele><time>2026-03-29T13:52:34.461Z</time></trkpt><trkpt lat="43.1103238" lon="12.2358773"><ele>270.0</ele><time>2026-03-29T13:52:36.463Z</time></trkpt><trkpt lat="43.110299" lon="12.2360046"><ele>269.0</ele><time>2026-03-29T13:52:38.462Z</time></trkpt><trkpt lat="43.1103364" lon="12.2361675"><ele>268.0</ele><time>2026-03-29T13:52:40.463Z</time></trkpt><trkpt lat="43.1103729" lon="12.2362572"><ele>267.0</ele><time>2026-03-29T13:52:41.461Z</time></trkpt><trkpt lat="43.1104394" lon="12.2363743"><ele>267.5</ele><time>2026-03-29T13:52:43.461Z</time></trkpt><trkpt lat="43.1105103" lon="12.2364723"><ele>268.0</ele><time>2026-03-29T13:52:45.461Z</time></trkpt><trkpt lat="43.1105773" lon="12.2365146"><ele>268.5</ele><time>2026-03-29T13:52:46.461Z</time></trkpt><trkpt lat="43.1106409" lon="12.2365453"><ele>269.0</ele><time>2026-03-29T13:52:47.462Z</time></trkpt><trkpt lat="43.1107495" lon="12.236571"><ele>269.5</ele><time>2026-03-29T13:52:49.461Z</time></trkpt><trkpt lat="43.1108277" lon="12.236643"><ele>270.0</ele><time>2026-03-29T13:52:51.462Z</time></trkpt><trkpt lat="43.1108767" lon="12.2367635"><ele>266.0</ele><time>2026-03-29T13:52:53.461Z</time></trkpt><trkpt lat="43.1108973" lon="12.2368619"><ele>262.0</ele><time>2026-03-29T13:52:54.462Z</time></trkpt><trkpt lat="43.1109001" lon="12.236957"><ele>258.0</ele><time>2026-03-29T13:52:55.461Z</time></trkpt><trkpt lat="43.1108858" lon="12.2370464"><ele>254.0</ele><time>2026-03-29T13:52:56.462Z</time></trkpt><trkpt lat="43.1108592" lon="12.23713"><ele>250.0</ele><time>2026-03-29T13:52:57.461Z</time></trkpt><trkpt lat="43.1107853" lon="12.2372634"><ele>246.0</ele><time>2026-03-29T13:52:59.462Z</time></trkpt><trkpt lat="43.1107927" lon="12.2373668"><ele>246.0</ele><time>2026-03-29T13:53:01.462Z</time></trkpt><trkpt lat="43.1108415" lon="12.2374565"><ele>246.00000000000003</ele><time>2026-03-29T13:53:02.461Z</time></trkpt><trkpt lat="43.1108753" lon="12.2375568"><ele>246.00000000000003</ele><time>2026-03-29T13:53:03.462Z</time></trkpt><trkpt lat="43.1109068" lon="12.2376663"><ele>246.0</ele><time>2026-03-29T13:53:04.462Z</time></trkpt><trkpt lat="43.1109458" lon="12.2377928"><ele>246.0</ele><time>2026-03-29T13:53:05.462Z</time></trkpt><trkpt lat="43.1109888" lon="12.2379182"><ele>246.0</ele><time>2026-03-29T13:53:06.462Z</time></trkpt><trkpt lat="43.1110311" lon="12.2380445"><ele>246.0</ele><time>2026-03-29T13:53:07.461Z</time></trkpt><trkpt lat="43.1110754" lon="12.2381623"><ele>246.0</ele><time>2026-03-29T13:53:08.462Z</time></trkpt><trkpt lat="43.1111133" lon="12.238256"><ele>246.0</ele><time>2026-03-29T13:53:09.461Z</time></trkpt><trkpt lat="43.1111458" lon="12.238345"><ele>246.0</ele><time>2026-03-29T13:53:10.461Z</time></trkpt><trkpt lat="43.1111345" lon="12.2384707"><ele>246.0</ele><time>2026-03-29T13:53:12.461Z</time></trkpt><trkpt lat="43.1110582" lon="12.2385723"><ele>246.16666666666666</ele><time>2026-03-29T13:53:14.461Z</time></trkpt><trkpt lat="43.1110063" lon="12.2386354"><ele>246.33333333333331</ele><time>2026-03-29T13:53:15.462Z</time></trkpt><trkpt lat="43.1109613" lon="12.238724"><ele>246.5</ele><time>2026-03-29T13:53:16.462Z</time></trkpt><trkpt lat="43.1109312" lon="12.2388314"><ele>246.66666666666666</ele><time>2026-03-29T13:53:17.461Z</time></trkpt><trkpt lat="43.1109136" lon="12.2389537"><ele>246.83333333333331</ele><time>2026-03-29T13:53:18.461Z</time></trkpt><trkpt lat="43.1109093" lon="12.2390895"><ele>247.0</ele><time>2026-03-29T13:53:19.461Z</time></trkpt><trkpt lat="43.1109184" lon="12.2392329"><ele>246.6</ele><time>2026-03-29T13:53:20.461Z</time></trkpt><trkpt lat="43.1109397" lon="12.2393815"><ele>246.2</ele><time>2026-03-29T13:53:21.462Z</time></trkpt><trkpt lat="43.1109527" lon="12.2395303"><ele>245.8</ele><time>2026-03-29T13:53:22.462Z</time></trkpt><trkpt lat="43.1109522" lon="12.2396821"><ele>245.4</ele><time>2026-03-29T13:53:23.462Z</time></trkpt><trkpt lat="43.110944" lon="12.2398391"><ele>245.0</ele><time>2026-03-29T13:53:24.462Z</time></trkpt><trkpt lat="43.1109344" lon="12.2400009"><ele>244.25</ele><time>2026-03-29T13:53:25.462Z</time></trkpt><trkpt lat="43.1109342" lon="12.2401678"><ele>243.5</ele><time>2026-03-29T13:53:26.461Z</time></trkpt><trkpt lat="43.1109504" lon="12.2403297"><ele>242.75</ele><time>2026-03-29T13:53:27.462Z</time></trkpt><trkpt lat="43.1109732" lon="12.2405009"><ele>242.0</ele><time>2026-03-29T13:53:28.462Z</time></trkpt><trkpt lat="43.1109965" lon="12.240674"><ele>241.0</ele><time>2026-03-29T13:53:29.461Z</time></trkpt><trkpt lat="43.1110261" lon="12.2408601"><ele>240.0</ele><time>2026-03-29T13:53:30.461Z</time></trkpt><trkpt lat="43.1110532" lon="12.241046"><ele>239.0</ele><time>2026-03-29T13:53:31.461Z</time></trkpt><trkpt lat="43.111076" lon="12.2412228"><ele>238.0</ele><time>2026-03-29T13:53:32.462Z</time></trkpt><trkpt lat="43.1110965" lon="12.2413934"><ele>237.60000000000002</ele><time>2026-03-29T13:53:33.462Z</time></trkpt><trkpt lat="43.1111116" lon="12.2415573"><ele>237.20000000000002</ele><time>2026-03-29T13:53:34.462Z</time></trkpt><trkpt lat="43.1111197" lon="12.2417117"><ele>236.8</ele><time>2026-03-29T13:53:35.461Z</time></trkpt><trkpt lat="43.1111269" lon="12.2418514"><ele>236.4</ele><time>2026-03-29T13:53:36.461Z</time></trkpt><trkpt lat="43.1111309" lon="12.2419748"><ele>236.0</ele><time>2026-03-29T13:53:37.461Z</time></trkpt><trkpt lat="43.111137" lon="12.2420757"><ele>236.00000000000003</ele><time>2026-03-29T13:53:38.461Z</time></trkpt><trkpt lat="43.1111522" lon="12.2422044"><ele>236.0</ele><time>2026-03-29T13:53:40.462Z</time></trkpt><trkpt lat="43.1112061" lon="12.2422712"><ele>236.0</ele><time>2026-03-29T13:53:43.461Z</time></trkpt><trkpt lat="43.1112974" lon="12.2422082"><ele>236.0</ele><time>2026-03-29T13:53:45.461Z</time></trkpt><trkpt lat="43.111366" lon="12.2421577"><ele>236.00000000000003</ele><time>2026-03-29T13:53:46.462Z</time></trkpt><trkpt lat="43.1114516" lon="12.2421011"><ele>236.0</ele><time>2026-03-29T13:53:47.461Z</time></trkpt><trkpt lat="43.1115416" lon="12.2420408"><ele>233.75</ele><time>2026-03-29T13:53:48.461Z</time></trkpt><trkpt lat="43.1116391" lon="12.2419705"><ele>231.5</ele><time>2026-03-29T13:53:49.462Z</time></trkpt><trkpt lat="43.1117432" lon="12.2419028"><ele>229.25</ele><time>2026-03-29T13:53:50.462Z</time></trkpt><trkpt lat="43.111844" lon="12.2418394"><ele>227.0</ele><time>2026-03-29T13:53:51.461Z</time></trkpt><trkpt lat="43.111951" lon="12.2417698"><ele>227.0</ele><time>2026-03-29T13:53:52.461Z</time></trkpt><trkpt lat="43.1120582" lon="12.241695"><ele>227.0</ele><time>2026-03-29T13:53:53.462Z</time></trkpt><trkpt lat="43.1121665" lon="12.2416215"><ele>227.0</ele><time>2026-03-29T13:53:54.461Z</time></trkpt><trkpt lat="43.1122758" lon="12.241542"><ele>227.0</ele><time>2026-03-29T13:53:55.462Z</time></trkpt><trkpt lat="43.1123866" lon="12.2414576"><ele>228.0</ele><time>2026-03-29T13:53:56.462Z</time></trkpt><trkpt lat="43.1125034" lon="12.2413705"><ele>229.0</ele><time>2026-03-29T13:53:57.462Z</time></trkpt><trkpt lat="43.1126244" lon="12.241283"><ele>230.0</ele><time>2026-03-29T13:53:58.462Z</time></trkpt><trkpt lat="43.1127514" lon="12.2411939"><ele>231.0</ele><time>2026-03-29T13:53:59.46Z</time></trkpt><trkpt lat="43.1128845" lon="12.241105"><ele>231.0</ele><time>2026-03-29T13:54:00.462Z</time></trkpt><trkpt lat="43.1130181" lon="12.241012"><ele>231.0</ele><time>2026-03-29T13:54:01.461Z</time></trkpt><trkpt lat="43.1131516" lon="12.2409165"><ele>231.0</ele><time>2026-03-29T13:54:02.462Z</time></trkpt><trkpt lat="43.1132866" lon="12.2408149"><ele>230.33333333333331</ele><time>2026-03-29T13:54:03.461Z</time></trkpt><trkpt lat="43.1134251" lon="12.240711"><ele>229.66666666666666</ele><time>2026-03-29T13:54:04.461Z</time></trkpt><trkpt lat="43.1135664" lon="12.240605"><ele>229.0</ele><time>2026-03-29T13:54:05.461Z</time></trkpt><trkpt lat="43.1137079" lon="12.240494"><ele>228.66666666666666</ele><time>2026-03-29T13:54:06.462Z</time></trkpt><trkpt lat="43.1138504" lon="12.240382"><ele>228.33333333333331</ele><time>2026-03-29T13:54:07.462Z</time></trkpt><trkpt lat="43.1139943" lon="12.2402666"><ele>228.0</ele><time>2026-03-29T13:54:08.461Z</time></trkpt><trkpt lat="43.11414" lon="12.24015"><ele>228.66666666666669</ele><time>2026-03-29T13:54:09.462Z</time></trkpt><trkpt lat="43.1142884" lon="12.2400328"><ele>229.33333333333334</ele><time>2026-03-29T13:54:10.462Z</time></trkpt><trkpt lat="43.1144344" lon="12.2399202"><ele>230.0</ele><time>2026-03-29T13:54:11.461Z</time></trkpt><trkpt lat="43.1145701" lon="12.2398163"><ele>232.25</ele><time>2026-03-29T13:54:12.462Z</time></trkpt><trkpt lat="43.1146991" lon="12.2397207"><ele>234.5</ele><time>2026-03-29T13:54:13.462Z</time></trkpt><trkpt lat="43.1148268" lon="12.2396401"><ele>236.75</ele><time>2026-03-29T13:54:14.461Z</time></trkpt><trkpt lat="43.1149542" lon="12.2395991"><ele>239.0</ele><time>2026-03-29T13:54:15.462Z</time></trkpt><trkpt lat="43.1150885" lon="12.2395863"><ele>240.25</ele><time>2026-03-29T13:54:16.462Z</time></trkpt><trkpt lat="43.1152239" lon="12.2396006"><ele>241.5</ele><time>2026-03-29T13:54:17.461Z</time></trkpt><trkpt lat="43.1153595" lon="12.2396209"><ele>242.75</ele><time>2026-03-29T13:54:18.461Z</time></trkpt><trkpt lat="43.1154863" lon="12.2396459"><ele>244.0</ele><time>2026-03-29T13:54:19.461Z</time></trkpt><trkpt lat="43.1155932" lon="12.2396703"><ele>243.99999999999997</ele><time>2026-03-29T13:54:20.462Z</time></trkpt><trkpt lat="43.1156856" lon="12.2396904"><ele>244.0</ele><time>2026-03-29T13:54:21.461Z</time></trkpt><trkpt lat="43.1157659" lon="12.2397083"><ele>244.0</ele><time>2026-03-29T13:54:22.462Z</time></trkpt><trkpt lat="43.1158359" lon="12.2397338"><ele>244.0</ele><time>2026-03-29T13:54:23.462Z</time></trkpt><trkpt lat="43.1159002" lon="12.2397662"><ele>243.99999999999997</ele><time>2026-03-29T13:54:24.461Z</time></trkpt><trkpt lat="43.1159634" lon="12.2397909"><ele>244.0</ele><time>2026-03-29T13:54:25.462Z</time></trkpt><trkpt lat="43.1160308" lon="12.2398143"><ele>242.16666666666666</ele><time>2026-03-29T13:54:26.461Z</time></trkpt><trkpt lat="43.1161028" lon="12.2398541"><ele>240.33333333333331</ele><time>2026-03-29T13:54:27.461Z</time></trkpt><trkpt lat="43.11617" lon="12.2398965"><ele>238.5</ele><time>2026-03-29T13:54:28.462Z</time></trkpt><trkpt lat="43.1162362" lon="12.2399475"><ele>236.66666666666669</ele><time>2026-03-29T13:54:29.462Z</time></trkpt><trkpt lat="43.1163013" lon="12.2399981"><ele>234.83333333333334</ele><time>2026-03-29T13:54:30.461Z</time></trkpt><trkpt lat="43.1163673" lon="12.2400461"><ele>233.0</ele><time>2026-03-29T13:54:31.462Z</time></trkpt><trkpt lat="43.1164308" lon="12.2401003"><ele>233.0</ele><time>2026-03-29T13:54:32.462Z</time></trkpt><trkpt lat="43.1164895" lon="12.2401642"><ele>233.0</ele><time>2026-03-29T13:54:33.462Z</time></trkpt><trkpt lat="43.1165345" lon="12.2402428"><ele>233.0</ele><time>2026-03-29T13:54:34.462Z</time></trkpt><trkpt lat="43.1165727" lon="12.2403245"><ele>233.0</ele><time>2026-03-29T13:54:35.462Z</time></trkpt><trkpt lat="43.1166176" lon="12.2404063"><ele>233.0</ele><time>2026-03-29T13:54:36.461Z</time></trkpt><trkpt lat="43.116671" lon="12.2404876"><ele>233.0</ele><time>2026-03-29T13:54:37.462Z</time></trkpt><trkpt lat="43.1167288" lon="12.2405521"><ele>233.0</ele><time>2026-03-29T13:54:38.463Z</time></trkpt><trkpt lat="43.1168103" lon="12.2406401"><ele>232.16666666666669</ele><time>2026-03-29T13:54:40.461Z</time></trkpt><trkpt lat="43.1168662" lon="12.2407631"><ele>231.33333333333334</ele><time>2026-03-29T13:54:42.461Z</time></trkpt><trkpt lat="43.1168945" lon="12.2408449"><ele>230.5</ele><time>2026-03-29T13:54:43.462Z</time></trkpt><trkpt lat="43.1169279" lon="12.240939"><ele>229.66666666666669</ele><time>2026-03-29T13:54:44.461Z</time></trkpt><trkpt lat="43.1169593" lon="12.2410407"><ele>228.83333333333334</ele><time>2026-03-29T13:54:45.461Z</time></trkpt><trkpt lat="43.1169861" lon="12.2411414"><ele>228.0</ele><time>2026-03-29T13:54:46.461Z</time></trkpt><trkpt lat="43.1170088" lon="12.2412838"><ele>228.0</ele><time>2026-03-29T13:54:48.462Z</time></trkpt><trkpt lat="43.1170087" lon="12.24142"><ele>228.0</ele><time>2026-03-29T13:54:50.462Z</time></trkpt><trkpt lat="43.1169792" lon="12.2415524"><ele>228.0</ele><time>2026-03-29T13:54:52.461Z</time></trkpt><trkpt lat="43.1169536" lon="12.2417151"><ele>228.0</ele><time>2026-03-29T13:54:54.462Z</time></trkpt><trkpt lat="43.1169377" lon="12.2418073"><ele>228.0</ele><time>2026-03-29T13:54:55.461Z</time></trkpt><trkpt lat="43.116932" lon="12.2419132"><ele>228.0</ele><time>2026-03-29T13:54:56.461Z</time></trkpt><trkpt lat="43.1169427" lon="12.2420258"><ele>228.0</ele><time>2026-03-29T13:54:57.462Z</time></trkpt><trkpt lat="43.1169695" lon="12.24214"><ele>228.0</ele><time>2026-03-29T13:54:58.461Z</time></trkpt><trkpt lat="43.1170073" lon="12.2422572"><ele>228.0</ele><time>2026-03-29T13:54:59.461Z</time></trkpt><trkpt lat="43.1170487" lon="12.2423818"><ele>228.0</ele><time>2026-03-29T13:55:00.462Z</time></trkpt><trkpt lat="43.117084" lon="12.2425074"><ele>228.2</ele><time>2026-03-29T13:55:01.462Z</time></trkpt><trkpt lat="43.1171099" lon="12.242623"><ele>228.4</ele><time>2026-03-29T13:55:02.461Z</time></trkpt><trkpt lat="43.1171276" lon="12.2427226"><ele>228.59999999999997</ele><time>2026-03-29T13:55:03.462Z</time></trkpt><trkpt lat="43.1171994" lon="12.2428452"><ele>228.79999999999998</ele><time>2026-03-29T13:55:05.462Z</time></trkpt><trkpt lat="43.1172823" lon="12.2428991"><ele>229.0</ele><time>2026-03-29T13:55:07.46Z</time></trkpt><trkpt lat="43.1173642" lon="12.242955"><ele>229.33333333333331</ele><time>2026-03-29T13:55:09.461Z</time></trkpt><trkpt lat="43.1174623" lon="12.2430183"><ele>229.66666666666666</ele><time>2026-03-29T13:55:11.462Z</time></trkpt><trkpt lat="43.1175304" lon="12.2430446"><ele>230.0</ele><time>2026-03-29T13:55:12.462Z</time></trkpt><trkpt lat="43.1175933" lon="12.2430664"><ele>230.33333333333331</ele><time>2026-03-29T13:55:13.462Z</time></trkpt><trkpt lat="43.1176523" lon="12.2431155"><ele>230.66666666666666</ele><time>2026-03-29T13:55:14.462Z</time></trkpt><trkpt lat="43.1177008" lon="12.2431733"><ele>231.0</ele><time>2026-03-29T13:55:15.461Z</time></trkpt><trkpt lat="43.1177508" lon="12.2432577"><ele>231.16666666666666</ele><time>2026-03-29T13:55:16.461Z</time></trkpt><trkpt lat="43.1178051" lon="12.2433455"><ele>231.33333333333331</ele><time>2026-03-29T13:55:17.462Z</time></trkpt><trkpt lat="43.1178541" lon="12.2434293"><ele>231.5</ele><time>2026-03-29T13:55:18.462Z</time></trkpt><trkpt lat="43.1178959" lon="12.2435128"><ele>231.66666666666666</ele><time>2026-03-29T13:55:19.462Z</time></trkpt><trkpt lat="43.1179344" lon="12.2435993"><ele>231.83333333333331</ele><time>2026-03-29T13:55:20.462Z</time></trkpt><trkpt lat="43.1179512" lon="12.243696"><ele>232.0</ele><time>2026-03-29T13:55:21.462Z</time></trkpt><trkpt lat="43.1179468" lon="12.2437919"><ele>231.99999999999997</ele><time>2026-03-29T13:55:22.462Z</time></trkpt><trkpt lat="43.1179497" lon="12.2438913"><ele>232.0</ele><time>2026-03-29T13:55:23.462Z</time></trkpt><trkpt lat="43.1179759" lon="12.2440709"><ele>232.0</ele><time>2026-03-29T13:55:25.461Z</time></trkpt><trkpt lat="43.1179915" lon="12.2441695"><ele>232.0</ele><time>2026-03-29T13:55:26.461Z</time></trkpt><trkpt lat="43.1180057" lon="12.2442628"><ele>231.99999999999997</ele><time>2026-03-29T13:55:27.462Z</time></trkpt><trkpt lat="43.1180225" lon="12.2443639"><ele>232.0</ele><time>2026-03-29T13:55:28.462Z</time></trkpt><trkpt lat="43.1180262" lon="12.2444553"><ele>231.66666666666666</ele><time>2026-03-29T13:55:29.461Z</time></trkpt><trkpt lat="43.1180416" lon="12.2445398"><ele>231.33333333333331</ele><time>2026-03-29T13:55:30.461Z</time></trkpt><trkpt lat="43.1180638" lon="12.2446386"><ele>231.0</ele><time>2026-03-29T13:55:31.462Z</time></trkpt><trkpt lat="43.1180858" lon="12.2447447"><ele>230.66666666666669</ele><time>2026-03-29T13:55:32.461Z</time></trkpt><trkpt lat="43.1181021" lon="12.2448427"><ele>230.33333333333334</ele><time>2026-03-29T13:55:33.462Z</time></trkpt><trkpt lat="43.1181248" lon="12.2449594"><ele>230.0</ele><time>2026-03-29T13:55:34.461Z</time></trkpt><trkpt lat="43.1181421" lon="12.2450557"><ele>229.4</ele><time>2026-03-29T13:55:35.462Z</time></trkpt><trkpt lat="43.118159" lon="12.2451433"><ele>228.8</ele><time>2026-03-29T13:55:36.462Z</time></trkpt><trkpt lat="43.118188" lon="12.2452923"><ele>228.2</ele><time>2026-03-29T13:55:38.462Z</time></trkpt><trkpt lat="43.1182137" lon="12.2454793"><ele>227.6</ele><time>2026-03-29T13:55:40.462Z</time></trkpt><trkpt lat="43.1182287" lon="12.2455853"><ele>227.0</ele><time>2026-03-29T13:55:41.461Z</time></trkpt><trkpt lat="43.1182446" lon="12.2456905"><ele>226.83333333333334</ele><time>2026-03-29T13:55:42.461Z</time></trkpt><trkpt lat="43.1182625" lon="12.2457967"><ele>226.66666666666669</ele><time>2026-03-29T13:55:43.461Z</time></trkpt><trkpt lat="43.1182788" lon="12.2459059"><ele>226.5</ele><time>2026-03-29T13:55:44.461Z</time></trkpt><trkpt lat="43.1182964" lon="12.2460155"><ele>226.33333333333331</ele><time>2026-03-29T13:55:45.462Z</time></trkpt><trkpt lat="43.1183176" lon="12.2461326"><ele>226.16666666666666</ele><time>2026-03-29T13:55:46.461Z</time></trkpt><trkpt lat="43.1183385" lon="12.2462537"><ele>226.0</ele><time>2026-03-29T13:55:47.462Z</time></trkpt><trkpt lat="43.1183591" lon="12.2463709"><ele>226.66666666666666</ele><time>2026-03-29T13:55:48.462Z</time></trkpt><trkpt lat="43.1183776" lon="12.2464698"><ele>227.33333333333331</ele><time>2026-03-29T13:55:49.461Z</time></trkpt><trkpt lat="43.118394" lon="12.2465762"><ele>228.0</ele><time>2026-03-29T13:55:50.461Z</time></trkpt><trkpt lat="43.1184146" lon="12.246686"><ele>228.66666666666669</ele><time>2026-03-29T13:55:51.461Z</time></trkpt><trkpt lat="43.1184363" lon="12.2467959"><ele>229.33333333333334</ele><time>2026-03-29T13:55:52.461Z</time></trkpt><trkpt lat="43.1184575" lon="12.2469069"><ele>230.0</ele><time>2026-03-29T13:55:53.462Z</time></trkpt><trkpt lat="43.1184775" lon="12.2470211"><ele>230.00000000000003</ele><time>2026-03-29T13:55:54.462Z</time></trkpt><trkpt lat="43.1184943" lon="12.2471337"><ele>230.0</ele><time>2026-03-29T13:55:55.461Z</time></trkpt><trkpt lat="43.1185026" lon="12.2472491"><ele>230.0</ele><time>2026-03-29T13:55:56.462Z</time></trkpt><trkpt lat="43.1185002" lon="12.24736"><ele>230.0</ele><time>2026-03-29T13:55:57.461Z</time></trkpt><trkpt lat="43.1184937" lon="12.2474678"><ele>230.00000000000003</ele><time>2026-03-29T13:55:58.462Z</time></trkpt><trkpt lat="43.118485" lon="12.2475786"><ele>230.0</ele><time>2026-03-29T13:55:59.462Z</time></trkpt><trkpt lat="43.1184769" lon="12.2476929"><ele>230.50000000000003</ele><time>2026-03-29T13:56:00.462Z</time></trkpt><trkpt lat="43.1184659" lon="12.2478076"><ele>231.0</ele><time>2026-03-29T13:56:01.461Z</time></trkpt><trkpt lat="43.1184508" lon="12.2479297"><ele>231.5</ele><time>2026-03-29T13:56:02.461Z</time></trkpt><trkpt lat="43.1184299" lon="12.2480523"><ele>232.0</ele><time>2026-03-29T13:56:03.461Z</time></trkpt><trkpt lat="43.1184131" lon="12.2481753"><ele>232.50000000000003</ele><time>2026-03-29T13:56:04.461Z</time></trkpt><trkpt lat="43.1183989" lon="12.2482969"><ele>233.0</ele><time>2026-03-29T13:56:05.461Z</time></trkpt><trkpt lat="43.1183876" lon="12.248395"><ele>233.4</ele><time>2026-03-29T13:56:06.461Z</time></trkpt><trkpt lat="43.1183738" lon="12.2485326"><ele>233.8</ele><time>2026-03-29T13:56:08.462Z</time></trkpt><trkpt lat="43.1183869" lon="12.2486294"><ele>234.2</ele><time>2026-03-29T13:56:10.46Z</time></trkpt><trkpt lat="43.1184498" lon="12.2486942"><ele>234.6</ele><time>2026-03-29T13:56:12.461Z</time></trkpt><trkpt lat="43.1185928" lon="12.248735"><ele>235.0</ele><time>2026-03-29T13:56:14.461Z</time></trkpt><trkpt lat="43.1186696" lon="12.248758"><ele>234.99999999999997</ele><time>2026-03-29T13:56:15.462Z</time></trkpt><trkpt lat="43.1187563" lon="12.2487832"><ele>235.0</ele><time>2026-03-29T13:56:16.461Z</time></trkpt><trkpt lat="43.1188425" lon="12.2488111"><ele>235.0</ele><time>2026-03-29T13:56:17.461Z</time></trkpt><trkpt lat="43.1189265" lon="12.2488313"><ele>235.0</ele><time>2026-03-29T13:56:18.461Z</time></trkpt><trkpt lat="43.1190103" lon="12.2488478"><ele>234.99999999999997</ele><time>2026-03-29T13:56:19.462Z</time></trkpt><trkpt lat="43.1190878" lon="12.2488575"><ele>235.0</ele><time>2026-03-29T13:56:20.461Z</time></trkpt><trkpt lat="43.1191573" lon="12.2488752"><ele>234.66666666666666</ele><time>2026-03-29T13:56:21.461Z</time></trkpt><trkpt lat="43.1192294" lon="12.2489061"><ele>234.33333333333331</ele><time>2026-03-29T13:56:22.462Z</time></trkpt><trkpt lat="43.1192808" lon="12.2489561"><ele>234.0</ele><time>2026-03-29T13:56:23.461Z</time></trkpt><trkpt lat="43.1193481" lon="12.2490364"><ele>233.66666666666669</ele><time>2026-03-29T13:56:25.461Z</time></trkpt><trkpt lat="43.1193719" lon="12.2491285"><ele>233.33333333333334</ele><time>2026-03-29T13:56:27.462Z</time></trkpt><trkpt lat="43.1193521" lon="12.2492844"><ele>233.0</ele><time>2026-03-29T13:56:29.461Z</time></trkpt><trkpt lat="43.1193562" lon="12.2493757"><ele>233.83333333333334</ele><time>2026-03-29T13:56:30.461Z</time></trkpt><trkpt lat="43.1193641" lon="12.2494619"><ele>234.66666666666669</ele><time>2026-03-29T13:56:31.46Z</time></trkpt><trkpt lat="43.1193734" lon="12.249553"><ele>235.5</ele><time>2026-03-29T13:56:32.462Z</time></trkpt><trkpt lat="43.1193756" lon="12.2496527"><ele>236.33333333333331</ele><time>2026-03-29T13:56:33.462Z</time></trkpt><trkpt lat="43.1193749" lon="12.2497647"><ele>237.16666666666666</ele><time>2026-03-29T13:56:34.462Z</time></trkpt><trkpt lat="43.1193756" lon="12.2498816"><ele>238.0</ele><time>2026-03-29T13:56:35.462Z</time></trkpt><trkpt lat="43.1193722" lon="12.2499962"><ele>239.33333333333331</ele><time>2026-03-29T13:56:36.462Z</time></trkpt><trkpt lat="43.119365" lon="12.2501093"><ele>240.66666666666666</ele><time>2026-03-29T13:56:37.461Z</time></trkpt><trkpt lat="43.1193554" lon="12.2502329"><ele>242.0</ele><time>2026-03-29T13:56:38.462Z</time></trkpt><trkpt lat="43.119345" lon="12.2503494"><ele>243.33333333333331</ele><time>2026-03-29T13:56:39.462Z</time></trkpt><trkpt lat="43.1193436" lon="12.2504702"><ele>244.66666666666666</ele><time>2026-03-29T13:56:40.461Z</time></trkpt><trkpt lat="43.1193406" lon="12.2505827"><ele>246.0</ele><time>2026-03-29T13:56:41.461Z</time></trkpt><trkpt lat="43.1193386" lon="12.2506905"><ele>247.16666666666666</ele><time>2026-03-29T13:56:42.462Z</time></trkpt><trkpt lat="43.1193351" lon="12.2507825"><ele>248.33333333333331</ele><time>2026-03-29T13:56:43.461Z</time></trkpt><trkpt lat="43.1193271" lon="12.2509165"><ele>249.5</ele><time>2026-03-29T13:56:45.461Z</time></trkpt><trkpt lat="43.1193398" lon="12.2510019"><ele>250.66666666666666</ele><time>2026-03-29T13:56:47.462Z</time></trkpt><trkpt lat="43.1193476" lon="12.2511024"><ele>251.83333333333331</ele><time>2026-03-29T13:56:49.461Z</time></trkpt><trkpt lat="43.1193378" lon="12.2512349"><ele>253.0</ele><time>2026-03-29T13:56:51.462Z</time></trkpt><trkpt lat="43.1193031" lon="12.2513572"><ele>254.60000000000002</ele><time>2026-03-29T13:56:53.462Z</time></trkpt><trkpt lat="43.119284" lon="12.2514764"><ele>256.20000000000005</ele><time>2026-03-29T13:56:55.461Z</time></trkpt><trkpt lat="43.1192478" lon="12.2515998"><ele>257.8</ele><time>2026-03-29T13:56:57.461Z</time></trkpt><trkpt lat="43.1192291" lon="12.2517024"><ele>259.40000000000003</ele><time>2026-03-29T13:56:58.462Z</time></trkpt><trkpt lat="43.1192174" lon="12.2518427"><ele>261.0</ele><time>2026-03-29T13:57:00.461Z</time></trkpt><trkpt lat="43.1191975" lon="12.2519738"><ele>261.0</ele><time>2026-03-29T13:57:02.462Z</time></trkpt><trkpt lat="43.1191577" lon="12.2521229"><ele>261.0</ele><time>2026-03-29T13:57:04.462Z</time></trkpt><trkpt lat="43.1191379" lon="12.2522077"><ele>261.0</ele><time>2026-03-29T13:57:05.461Z</time></trkpt><trkpt lat="43.1191186" lon="12.2522933"><ele>261.0</ele><time>2026-03-29T13:57:06.462Z</time></trkpt><trkpt lat="43.1190745" lon="12.2524389"><ele>261.0</ele><time>2026-03-29T13:57:08.462Z</time></trkpt><trkpt lat="43.119024" lon="12.252589"><ele>261.6</ele><time>2026-03-29T13:57:10.462Z</time></trkpt><trkpt lat="43.1189905" lon="12.2526986"><ele>262.20000000000005</ele><time>2026-03-29T13:57:12.461Z</time></trkpt><trkpt lat="43.1190304" lon="12.2528356"><ele>262.79999999999995</ele><time>2026-03-29T13:57:14.462Z</time></trkpt><trkpt lat="43.1190938" lon="12.2529505"><ele>263.4</ele><time>2026-03-29T13:57:16.462Z</time></trkpt><trkpt lat="43.119132" lon="12.2530645"><ele>264.0</ele><time>2026-03-29T13:57:18.461Z</time></trkpt><trkpt lat="43.1191679" lon="12.2532031"><ele>268.0</ele><time>2026-03-29T13:57:20.462Z</time></trkpt><trkpt lat="43.1191712" lon="12.2532928"><ele>272.0</ele><time>2026-03-29T13:57:21.462Z</time></trkpt><trkpt lat="43.1191787" lon="12.2534705"><ele>276.0</ele><time>2026-03-29T13:57:23.461Z</time></trkpt><trkpt lat="43.1191835" lon="12.2536179"><ele>280.0</ele><time>2026-03-29T13:57:25.462Z</time></trkpt><trkpt lat="43.1191846" lon="12.2537068"><ele>284.0</ele><time>2026-03-29T13:57:26.462Z</time></trkpt><trkpt lat="43.1191918" lon="12.2538538"><ele>284.4</ele><time>2026-03-29T13:57:28.462Z</time></trkpt><trkpt lat="43.1191931" lon="12.2540284"><ele>284.79999999999995</ele><time>2026-03-29T13:57:30.461Z</time></trkpt><trkpt lat="43.1191863" lon="12.2541618"><ele>285.20000000000005</ele><time>2026-03-29T13:57:32.462Z</time></trkpt><trkpt lat="43.1190928" lon="12.254103"><ele>285.6</ele><time>2026-03-29T13:57:34.461Z</time></trkpt><trkpt lat="43.1189922" lon="12.2541247"><ele>286.0</ele><time>2026-03-29T13:57:36.461Z</time></trkpt><trkpt lat="43.1189292" lon="12.2542345"><ele>286.0</ele><time>2026-03-29T13:57:38.462Z</time></trkpt><trkpt lat="43.1189306" lon="12.2545051"><ele>286.0</ele><time>2026-03-29T13:57:40.461Z</time></trkpt><trkpt lat="43.1188903" lon="12.2546237"><ele>286.0</ele><time>2026-03-29T13:57:41.462Z</time></trkpt><trkpt lat="43.1188798" lon="12.2547579"><ele>286.0</ele><time>2026-03-29T13:57:42.462Z</time></trkpt><trkpt lat="43.1188714" lon="12.2548734"><ele>287.1428571428571</ele><time>2026-03-29T13:57:43.461Z</time></trkpt><trkpt lat="43.1188614" lon="12.2549679"><ele>288.2857142857143</ele><time>2026-03-29T13:57:44.461Z</time></trkpt><trkpt lat="43.1188772" lon="12.2550549"><ele>289.42857142857144</ele><time>2026-03-29T13:57:45.461Z</time></trkpt><trkpt lat="43.1188608" lon="12.2551477"><ele>290.57142857142856</ele><time>2026-03-29T13:57:46.462Z</time></trkpt><trkpt lat="43.1188422" lon="12.2552422"><ele>291.7142857142857</ele><time>2026-03-29T13:57:47.462Z</time></trkpt><trkpt lat="43.1188583" lon="12.2553494"><ele>292.85714285714283</ele><time>2026-03-29T13:57:48.461Z</time></trkpt><trkpt lat="43.1188751" lon="12.2554566"><ele>294.0</ele><time>2026-03-29T13:57:49.461Z</time></trkpt><trkpt lat="43.1188991" lon="12.2555603"><ele>295.1666666666667</ele><time>2026-03-29T13:57:50.461Z</time></trkpt><trkpt lat="43.1189277" lon="12.255654"><ele>296.3333333333333</ele><time>2026-03-29T13:57:51.461Z</time></trkpt><trkpt lat="43.118995" lon="12.255717"><ele>297.5</ele><time>2026-03-29T13:57:53.462Z</time></trkpt><trkpt lat="43.1191027" lon="12.2557105"><ele>298.66666666666663</ele><time>2026-03-29T13:57:55.462Z</time></trkpt><trkpt lat="43.119173" lon="12.2556963"><ele>299.8333333333333</ele><time>2026-03-29T13:57:56.462Z</time></trkpt><trkpt lat="43.1192587" lon="12.2556759"><ele>301.0</ele><time>2026-03-29T13:57:57.461Z</time></trkpt><trkpt lat="43.1193197" lon="12.2556406"><ele>302.5</ele><time>2026-03-29T13:57:58.462Z</time></trkpt><trkpt lat="43.1194153" lon="12.2556005"><ele>304.0</ele><time>2026-03-29T13:57:59.462Z</time></trkpt><trkpt lat="43.1194789" lon="12.2555826"><ele>305.5</ele><time>2026-03-29T13:58:00.462Z</time></trkpt><trkpt lat="43.119557" lon="12.2555687"><ele>307.0</ele><time>2026-03-29T13:58:01.46Z</time></trkpt><trkpt lat="43.1196346" lon="12.2555726"><ele>308.5</ele><time>2026-03-29T13:58:02.462Z</time></trkpt><trkpt lat="43.1197006" lon="12.2555741"><ele>310.0</ele><time>2026-03-29T13:58:03.462Z</time></trkpt><trkpt lat="43.1197792" lon="12.2555961"><ele>314.0</ele><time>2026-03-29T13:58:04.461Z</time></trkpt><trkpt lat="43.1199055" lon="12.2556596"><ele>318.0</ele><time>2026-03-29T13:58:05.461Z</time></trkpt><trkpt lat="43.1199866" lon="12.255687"><ele>322.0</ele><time>2026-03-29T13:58:06.461Z</time></trkpt><trkpt lat="43.1200601" lon="12.2556991"><ele>326.0</ele><time>2026-03-29T13:58:07.461Z</time></trkpt><trkpt lat="43.1201765" lon="12.2557135"><ele>330.0</ele><time>2026-03-29T13:58:09.462Z</time></trkpt><trkpt lat="43.1202763" lon="12.2557623"><ele>330.0</ele><time>2026-03-29T13:58:11.462Z</time></trkpt><trkpt lat="43.1204179" lon="12.2558703"><ele>330.0</ele><time>2026-03-29T13:58:13.462Z</time></trkpt><trkpt lat="43.120493" lon="12.2559159"><ele>330.0</ele><time>2026-03-29T13:58:14.461Z</time></trkpt><trkpt lat="43.120564" lon="12.2559175"><ele>330.0</ele><time>2026-03-29T13:58:15.462Z</time></trkpt><trkpt lat="43.1206549" lon="12.255896"><ele>330.0</ele><time>2026-03-29T13:58:16.461Z</time></trkpt><trkpt lat="43.1207264" lon="12.2559074"><ele>330.0</ele><time>2026-03-29T13:58:17.461Z</time></trkpt><trkpt lat="43.1207889" lon="12.2559275"><ele>330.0</ele><time>2026-03-29T13:58:18.461Z</time></trkpt><trkpt lat="43.1208756" lon="12.2560104"><ele>330.0</ele><time>2026-03-29T13:58:20.461Z</time></trkpt><trkpt lat="43.1208457" lon="12.2561336"><ele>330.0</ele><time>2026-03-29T13:58:23.462Z</time></trkpt><trkpt lat="43.1207943" lon="12.2562114"><ele>330.0</ele><time>2026-03-29T13:58:25.462Z</time></trkpt><trkpt lat="43.1207413" lon="12.2563028"><ele>330.0</ele><time>2026-03-29T13:58:27.461Z</time></trkpt><trkpt lat="43.1206935" lon="12.2563651"><ele>334.75</ele><time>2026-03-29T13:58:28.462Z</time></trkpt><trkpt lat="43.1206111" lon="12.2564723"><ele>339.5</ele><time>2026-03-29T13:58:30.462Z</time></trkpt><trkpt lat="43.1205146" lon="12.2565934"><ele>344.25</ele><time>2026-03-29T13:58:32.461Z</time></trkpt><trkpt lat="43.120424" lon="12.2566754"><ele>349.0</ele><time>2026-03-29T13:58:34.461Z</time></trkpt><trkpt lat="43.1203088" lon="12.2567396"><ele>349.0</ele><time>2026-03-29T13:58:36.462Z</time></trkpt><trkpt lat="43.1202327" lon="12.2567838"><ele>349.0</ele><time>2026-03-29T13:58:37.462Z</time></trkpt><trkpt lat="43.1201618" lon="12.2568343"><ele>349.0</ele><time>2026-03-29T13:58:38.461Z</time></trkpt><trkpt lat="43.1200704" lon="12.2569447"><ele>349.0</ele><time>2026-03-29T13:58:40.462Z</time></trkpt><trkpt lat="43.1200093" lon="12.2569806"><ele>349.0</ele><time>2026-03-29T13:58:41.462Z</time></trkpt><trkpt lat="43.1199382" lon="12.257025"><ele>349.0</ele><time>2026-03-29T13:58:43.461Z</time></trkpt><trkpt lat="43.119917" lon="12.2571234"><ele>348.79999999999995</ele><time>2026-03-29T13:58:44.462Z</time></trkpt><trkpt lat="43.1198939" lon="12.2572078"><ele>348.59999999999997</ele><time>2026-03-29T13:58:45.461Z</time></trkpt><trkpt lat="43.119843" lon="12.2573391"><ele>348.4</ele><time>2026-03-29T13:58:46.462Z</time></trkpt><trkpt lat="43.1197812" lon="12.2575129"><ele>348.2</ele><time>2026-03-29T13:58:47.461Z</time></trkpt><trkpt lat="43.1197181" lon="12.2576708"><ele>348.0</ele><time>2026-03-29T13:58:48.461Z</time></trkpt><trkpt lat="43.1196827" lon="12.2578159"><ele>348.0</ele><time>2026-03-29T13:58:49.461Z</time></trkpt><trkpt lat="43.1196164" lon="12.2579841"><ele>348.0</ele><time>2026-03-29T13:58:50.462Z</time></trkpt><trkpt lat="43.1195601" lon="12.2581474"><ele>348.0</ele><time>2026-03-29T13:58:51.462Z</time></trkpt><trkpt lat="43.1194927" lon="12.2582902"><ele>348.0</ele><time>2026-03-29T13:58:52.462Z</time></trkpt><trkpt lat="43.119417" lon="12.2584327"><ele>351.2</ele><time>2026-03-29T13:58:53.461Z</time></trkpt><trkpt lat="43.1193623" lon="12.2585713"><ele>354.4</ele><time>2026-03-29T13:58:54.461Z</time></trkpt><trkpt lat="43.1193125" lon="12.2586968"><ele>357.59999999999997</ele><time>2026-03-29T13:58:55.462Z</time></trkpt><trkpt lat="43.1193085" lon="12.258833"><ele>360.79999999999995</ele><time>2026-03-29T13:58:56.462Z</time></trkpt><trkpt lat="43.1192459" lon="12.2589592"><ele>364.0</ele><time>2026-03-29T13:58:57.462Z</time></trkpt><trkpt lat="43.1192077" lon="12.2590758"><ele>364.2</ele><time>2026-03-29T13:58:58.462Z</time></trkpt><trkpt lat="43.1191806" lon="12.2591796"><ele>364.4</ele><time>2026-03-29T13:58:59.462Z</time></trkpt><trkpt lat="43.1191588" lon="12.2592982"><ele>364.6</ele><time>2026-03-29T13:59:00.461Z</time></trkpt><trkpt lat="43.1191122" lon="12.2594274"><ele>364.8</ele><time>2026-03-29T13:59:01.461Z</time></trkpt><trkpt lat="43.1190415" lon="12.2595235"><ele>365.0</ele><time>2026-03-29T13:59:02.462Z</time></trkpt><trkpt lat="43.1189775" lon="12.2596295"><ele>365.0</ele><time>2026-03-29T13:59:03.462Z</time></trkpt><trkpt lat="43.1188602" lon="12.2597609"><ele>365.0</ele><time>2026-03-29T13:59:04.461Z</time></trkpt><trkpt lat="43.1187948" lon="12.2598958"><ele>365.0</ele><time>2026-03-29T13:59:06.461Z</time></trkpt><trkpt lat="43.1187558" lon="12.2599901"><ele>365.0</ele><time>2026-03-29T13:59:07.461Z</time></trkpt><trkpt lat="43.1186962" lon="12.2601336"><ele>367.75</ele><time>2026-03-29T13:59:08.461Z</time></trkpt><trkpt lat="43.1186237" lon="12.2603255"><ele>370.5</ele><time>2026-03-29T13:59:10.461Z</time></trkpt><trkpt lat="43.1185769" lon="12.260433"><ele>373.25</ele><time>2026-03-29T13:59:11.461Z</time></trkpt><trkpt lat="43.118506" lon="12.2605413"><ele>376.0</ele><time>2026-03-29T13:59:12.461Z</time></trkpt><trkpt lat="43.1183855" lon="12.2606769"><ele>375.20000000000005</ele><time>2026-03-29T13:59:13.462Z</time></trkpt><trkpt lat="43.1182745" lon="12.2607493"><ele>374.40000000000003</ele><time>2026-03-29T13:59:14.462Z</time></trkpt><trkpt lat="43.1181479" lon="12.2608197"><ele>373.6</ele><time>2026-03-29T13:59:15.461Z</time></trkpt><trkpt lat="43.1180405" lon="12.260869"><ele>372.8</ele><time>2026-03-29T13:59:17.462Z</time></trkpt><trkpt lat="43.1180869" lon="12.2609424"><ele>372.0</ele><time>2026-03-29T13:59:22.461Z</time></trkpt><trkpt lat="43.1182085" lon="12.2609562"><ele>373.8333333333333</ele><time>2026-03-29T13:59:28.462Z</time></trkpt><trkpt lat="43.118302" lon="12.2609477"><ele>375.6666666666667</ele><time>2026-03-29T13:59:30.462Z</time></trkpt><trkpt lat="43.1183902" lon="12.2609491"><ele>377.5</ele><time>2026-03-29T13:59:33.463Z</time></trkpt><trkpt lat="43.1184616" lon="12.2609196"><ele>379.33333333333337</ele><time>2026-03-29T13:59:36.463Z</time></trkpt><trkpt lat="43.1185266" lon="12.2608819"><ele>381.1666666666667</ele><time>2026-03-29T13:59:38.462Z</time></trkpt><trkpt lat="43.1186032" lon="12.2607573"><ele>383.0</ele><time>2026-03-29T13:59:40.462Z</time></trkpt><trkpt lat="43.1186663" lon="12.2607719"><ele>383.0</ele><time>2026-03-29T13:59:42.462Z</time></trkpt><trkpt lat="43.1187566" lon="12.2607716"><ele>383.0</ele><time>2026-03-29T13:59:44.462Z</time></trkpt><trkpt lat="43.1188437" lon="12.2607532"><ele>383.0</ele><time>2026-03-29T13:59:47.462Z</time></trkpt><trkpt lat="43.1189041" lon="12.2608539"><ele>383.0</ele><time>2026-03-29T13:59:51.462Z</time></trkpt><trkpt lat="43.1190107" lon="12.2608929"><ele>383.0</ele><time>2026-03-29T13:59:53.462Z</time></trkpt><trkpt lat="43.1191195" lon="12.2609344"><ele>384.33333333333337</ele><time>2026-03-29T13:59:55.463Z</time></trkpt><trkpt lat="43.1191923" lon="12.2610056"><ele>385.6666666666667</ele><time>2026-03-29T13:59:57.462Z</time></trkpt><trkpt lat="43.1192401" lon="12.261062"><ele>387.0</ele><time>2026-03-29T13:59:58.462Z</time></trkpt><trkpt lat="43.1193202" lon="12.2611914"><ele>388.33333333333337</ele><time>2026-03-29T14:00:00.461Z</time></trkpt><trkpt lat="43.1193821" lon="12.2612419"><ele>389.6666666666667</ele><time>2026-03-29T14:00:01.462Z</time></trkpt><trkpt lat="43.1194438" lon="12.2612805"><ele>391.0</ele><time>2026-03-29T14:00:02.463Z</time></trkpt><trkpt lat="43.1195314" lon="12.2613414"><ele>391.00000000000006</ele><time>2026-03-29T14:00:04.463Z</time></trkpt><trkpt lat="43.1196088" lon="12.261428"><ele>391.0</ele><time>2026-03-29T14:00:06.462Z</time></trkpt><trkpt lat="43.1196911" lon="12.26149"><ele>391.0</ele><time>2026-03-29T14:00:08.463Z</time></trkpt><trkpt lat="43.1197721" lon="12.2615092"><ele>391.0</ele><time>2026-03-29T14:00:10.463Z</time></trkpt><trkpt lat="43.1198109" lon="12.2615912"><ele>391.00000000000006</ele><time>2026-03-29T14:00:12.462Z</time></trkpt><trkpt lat="43.1198612" lon="12.261687"><ele>391.0</ele><time>2026-03-29T14:00:14.463Z</time></trkpt><trkpt lat="43.1199357" lon="12.2618232"><ele>388.50000000000006</ele><time>2026-03-29T14:00:16.462Z</time></trkpt><trkpt lat="43.1200279" lon="12.2619079"><ele>386.0</ele><time>2026-03-29T14:00:18.463Z</time></trkpt><trkpt lat="43.12006" lon="12.2619873"><ele>383.5</ele><time>2026-03-29T14:00:20.462Z</time></trkpt><trkpt lat="43.1200635" lon="12.2620914"><ele>381.0</ele><time>2026-03-29T14:00:22.463Z</time></trkpt><trkpt lat="43.1201077" lon="12.2621572"><ele>378.5</ele><time>2026-03-29T14:00:23.462Z</time></trkpt><trkpt lat="43.1201512" lon="12.262233"><ele>376.0</ele><time>2026-03-29T14:00:24.462Z</time></trkpt><trkpt lat="43.1202069" lon="12.2623473"><ele>374.0</ele><time>2026-03-29T14:00:26.461Z</time></trkpt><trkpt lat="43.1202209" lon="12.2624557"><ele>372.0</ele><time>2026-03-29T14:00:28.462Z</time></trkpt><trkpt lat="43.120252" lon="12.2625324"><ele>370.0</ele><time>2026-03-29T14:00:29.462Z</time></trkpt><trkpt lat="43.1203166" lon="12.2626374"><ele>368.0</ele><time>2026-03-29T14:00:31.462Z</time></trkpt><trkpt lat="43.120358" lon="12.2627534"><ele>366.0</ele><time>2026-03-29T14:00:33.462Z</time></trkpt><trkpt lat="43.1203948" lon="12.2628395"><ele>364.0</ele><time>2026-03-29T14:00:35.463Z</time></trkpt><trkpt lat="43.120442" lon="12.2629177"><ele>364.0</ele><time>2026-03-29T14:00:37.462Z</time></trkpt><trkpt lat="43.1204756" lon="12.2630103"><ele>364.0</ele><time>2026-03-29T14:00:39.462Z</time></trkpt><trkpt lat="43.120504" lon="12.2630971"><ele>364.0</ele><time>2026-03-29T14:00:41.462Z</time></trkpt><trkpt lat="43.1205498" lon="12.2631992"><ele>364.0</ele><time>2026-03-29T14:00:44.463Z</time></trkpt><trkpt lat="43.1205609" lon="12.2633264"><ele>364.0</ele><time>2026-03-29T14:00:47.462Z</time></trkpt><trkpt lat="43.1205929" lon="12.2634334"><ele>364.0</ele><time>2026-03-29T14:00:50.463Z</time></trkpt><trkpt lat="43.1206182" lon="12.2635269"><ele>362.0</ele><time>2026-03-29T14:00:54.463Z</time></trkpt><trkpt lat="43.1206245" lon="12.2636129"><ele>360.0</ele><time>2026-03-29T14:00:58.462Z</time></trkpt><trkpt lat="43.1205683" lon="12.2636966"><ele>358.0</ele><time>2026-03-29T14:01:00.463Z</time></trkpt><trkpt lat="43.1205398" lon="12.2637975"><ele>356.0</ele><time>2026-03-29T14:01:03.462Z</time></trkpt><trkpt lat="43.1206304" lon="12.2637138"><ele>354.0</ele><time>2026-03-29T14:01:09.463Z</time></trkpt><trkpt lat="43.1207215" lon="12.2636851"><ele>352.0</ele><time>2026-03-29T14:01:10.462Z</time></trkpt><trkpt lat="43.1207978" lon="12.2636618"><ele>350.6</ele><time>2026-03-29T14:01:11.463Z</time></trkpt><trkpt lat="43.1208808" lon="12.2636273"><ele>349.20000000000005</ele><time>2026-03-29T14:01:12.462Z</time></trkpt><trkpt lat="43.1209791" lon="12.2636483"><ele>347.8</ele><time>2026-03-29T14:01:13.463Z</time></trkpt><trkpt lat="43.1210833" lon="12.2636569"><ele>346.4</ele><time>2026-03-29T14:01:14.463Z</time></trkpt><trkpt lat="43.1211833" lon="12.263655"><ele>345.0</ele><time>2026-03-29T14:01:15.462Z</time></trkpt><trkpt lat="43.1213175" lon="12.2636732"><ele>345.0</ele><time>2026-03-29T14:01:16.463Z</time></trkpt><trkpt lat="43.1214241" lon="12.2636761"><ele>345.0</ele><time>2026-03-29T14:01:17.463Z</time></trkpt><trkpt lat="43.1215046" lon="12.2636891"><ele>345.0</ele><time>2026-03-29T14:01:18.462Z</time></trkpt><trkpt lat="43.1215989" lon="12.2636976"><ele>345.0</ele><time>2026-03-29T14:01:19.462Z</time></trkpt><trkpt lat="43.121721" lon="12.2636969"><ele>345.0</ele><time>2026-03-29T14:01:21.463Z</time></trkpt><trkpt lat="43.1218064" lon="12.2636842"><ele>342.6666666666667</ele><time>2026-03-29T14:01:23.462Z</time></trkpt><trkpt lat="43.1218916" lon="12.2637097"><ele>340.3333333333333</ele><time>2026-03-29T14:01:25.463Z</time></trkpt><trkpt lat="43.121988" lon="12.2637229"><ele>338.0</ele><time>2026-03-29T14:01:26.463Z</time></trkpt><trkpt lat="43.1220532" lon="12.263721"><ele>335.66666666666663</ele><time>2026-03-29T14:01:27.462Z</time></trkpt><trkpt lat="43.1221596" lon="12.2637106"><ele>333.3333333333333</ele><time>2026-03-29T14:01:29.462Z</time></trkpt><trkpt lat="43.1222274" lon="12.2636993"><ele>331.0</ele><time>2026-03-29T14:01:30.462Z</time></trkpt><trkpt lat="43.1223073" lon="12.2636857"><ele>331.0</ele><time>2026-03-29T14:01:31.463Z</time></trkpt><trkpt lat="43.1223706" lon="12.2636737"><ele>331.0</ele><time>2026-03-29T14:01:32.462Z</time></trkpt><trkpt lat="43.1224462" lon="12.2636668"><ele>331.0</ele><time>2026-03-29T14:01:33.462Z</time></trkpt><trkpt lat="43.1225731" lon="12.2636613"><ele>331.0</ele><time>2026-03-29T14:01:35.461Z</time></trkpt><trkpt lat="43.1226453" lon="12.2636777"><ele>331.0</ele><time>2026-03-29T14:01:36.463Z</time></trkpt><trkpt lat="43.1227191" lon="12.2637065"><ele>331.0</ele><time>2026-03-29T14:01:37.462Z</time></trkpt><trkpt lat="43.1228181" lon="12.2637365"><ele>332.4</ele><time>2026-03-29T14:01:38.462Z</time></trkpt><trkpt lat="43.1229217" lon="12.2638145"><ele>333.8</ele><time>2026-03-29T14:01:40.463Z</time></trkpt><trkpt lat="43.1229657" lon="12.2638946"><ele>335.2</ele><time>2026-03-29T14:01:41.462Z</time></trkpt><trkpt lat="43.1229993" lon="12.2639722"><ele>336.59999999999997</ele><time>2026-03-29T14:01:42.462Z</time></trkpt><trkpt lat="43.1231029" lon="12.2640784"><ele>338.0</ele><time>2026-03-29T14:01:44.462Z</time></trkpt><trkpt lat="43.1231727" lon="12.264159"><ele>334.2</ele><time>2026-03-29T14:01:45.462Z</time></trkpt><trkpt lat="43.1232668" lon="12.2642045"><ele>330.4</ele><time>2026-03-29T14:01:46.463Z</time></trkpt><trkpt lat="43.1233648" lon="12.264281"><ele>326.59999999999997</ele><time>2026-03-29T14:01:47.462Z</time></trkpt><trkpt lat="43.1234493" lon="12.2643395"><ele>322.79999999999995</ele><time>2026-03-29T14:01:48.463Z</time></trkpt><trkpt lat="43.1235259" lon="12.2644249"><ele>319.0</ele><time>2026-03-29T14:01:49.462Z</time></trkpt><trkpt lat="43.1236253" lon="12.2644889"><ele>319.0</ele><time>2026-03-29T14:01:50.463Z</time></trkpt><trkpt lat="43.1236754" lon="12.264588"><ele>319.0</ele><time>2026-03-29T14:01:52.462Z</time></trkpt><trkpt lat="43.1236356" lon="12.2647129"><ele>319.0</ele><time>2026-03-29T14:01:54.462Z</time></trkpt><trkpt lat="43.12359" lon="12.2648527"><ele>319.0</ele><time>2026-03-29T14:01:56.462Z</time></trkpt><trkpt lat="43.1236315" lon="12.2649254"><ele>319.0</ele><time>2026-03-29T14:03:07.463Z</time></trkpt><trkpt lat="43.1237189" lon="12.2649693"><ele>318.8</ele><time>2026-03-29T14:04:55.463Z</time></trkpt><trkpt lat="43.1238221" lon="12.2649105"><ele>318.59999999999997</ele><time>2026-03-29T14:04:56.462Z</time></trkpt><trkpt lat="43.1239161" lon="12.2648826"><ele>318.4</ele><time>2026-03-29T14:04:57.463Z</time></trkpt><trkpt lat="43.123996" lon="12.2648685"><ele>318.2</ele><time>2026-03-29T14:04:58.463Z</time></trkpt><trkpt lat="43.1240811" lon="12.2648546"><ele>318.0</ele><time>2026-03-29T14:04:59.463Z</time></trkpt><trkpt lat="43.1241758" lon="12.2648377"><ele>315.0</ele><time>2026-03-29T14:05:00.462Z</time></trkpt><trkpt lat="43.1242675" lon="12.2648332"><ele>312.0</ele><time>2026-03-29T14:05:01.462Z</time></trkpt><trkpt lat="43.1243554" lon="12.2648507"><ele>309.0</ele><time>2026-03-29T14:05:02.463Z</time></trkpt><trkpt lat="43.1244367" lon="12.2648739"><ele>306.0</ele><time>2026-03-29T14:05:03.462Z</time></trkpt><trkpt lat="43.1245294" lon="12.2649161"><ele>303.0</ele><time>2026-03-29T14:05:04.462Z</time></trkpt><trkpt lat="43.1246238" lon="12.264962"><ele>303.0</ele><time>2026-03-29T14:05:05.463Z</time></trkpt><trkpt lat="43.124716" lon="12.2650184"><ele>303.0</ele><time>2026-03-29T14:05:06.462Z</time></trkpt><trkpt lat="43.1248134" lon="12.2650688"><ele>303.0</ele><time>2026-03-29T14:05:07.462Z</time></trkpt><trkpt lat="43.1249114" lon="12.2651296"><ele>303.0</ele><time>2026-03-29T14:05:08.462Z</time></trkpt><trkpt lat="43.1250093" lon="12.265182"><ele>303.0</ele><time>2026-03-29T14:05:09.463Z</time></trkpt><trkpt lat="43.1251181" lon="12.265225"><ele>302.5</ele><time>2026-03-29T14:05:10.463Z</time></trkpt><trkpt lat="43.1252267" lon="12.2652725"><ele>302.0</ele><time>2026-03-29T14:05:11.462Z</time></trkpt><trkpt lat="43.1253403" lon="12.2653137"><ele>301.5</ele><time>2026-03-29T14:05:12.462Z</time></trkpt><trkpt lat="43.1254622" lon="12.2653551"><ele>301.0</ele><time>2026-03-29T14:05:13.463Z</time></trkpt><trkpt lat="43.1255828" lon="12.265394"><ele>301.0</ele><time>2026-03-29T14:05:14.463Z</time></trkpt><trkpt lat="43.1257053" lon="12.2654279"><ele>301.0</ele><time>2026-03-29T14:05:15.463Z</time></trkpt><trkpt lat="43.1258264" lon="12.2654654"><ele>301.0</ele><time>2026-03-29T14:05:16.463Z</time></trkpt><trkpt lat="43.1259518" lon="12.2655042"><ele>301.0</ele><time>2026-03-29T14:05:17.462Z</time></trkpt><trkpt lat="43.1260797" lon="12.2655397"><ele>300.5</ele><time>2026-03-29T14:05:18.462Z</time></trkpt><trkpt lat="43.1262061" lon="12.2655767"><ele>300.0</ele><time>2026-03-29T14:05:19.462Z</time></trkpt><trkpt lat="43.1263331" lon="12.2656104"><ele>299.5</ele><time>2026-03-29T14:05:20.463Z</time></trkpt><trkpt lat="43.1264555" lon="12.265646"><ele>299.0</ele><time>2026-03-29T14:05:21.462Z</time></trkpt><trkpt lat="43.1265683" lon="12.2656539"><ele>296.25</ele><time>2026-03-29T14:05:22.462Z</time></trkpt><trkpt lat="43.1266852" lon="12.2656915"><ele>293.5</ele><time>2026-03-29T14:05:23.462Z</time></trkpt><trkpt lat="43.1268097" lon="12.2657202"><ele>290.75</ele><time>2026-03-29T14:05:24.463Z</time></trkpt><trkpt lat="43.1269318" lon="12.2657534"><ele>288.0</ele><time>2026-03-29T14:05:25.462Z</time></trkpt><trkpt lat="43.1270526" lon="12.26579"><ele>288.0</ele><time>2026-03-29T14:05:26.463Z</time></trkpt><trkpt lat="43.1271822" lon="12.2658286"><ele>288.0</ele><time>2026-03-29T14:05:27.462Z</time></trkpt><trkpt lat="43.1273162" lon="12.2658692"><ele>288.0</ele><time>2026-03-29T14:05:28.462Z</time></trkpt><trkpt lat="43.1274264" lon="12.2659029"><ele>288.0</ele><time>2026-03-29T14:05:29.462Z</time></trkpt><trkpt lat="43.1275463" lon="12.2659392"><ele>287.5</ele><time>2026-03-29T14:05:30.462Z</time></trkpt><trkpt lat="43.1276685" lon="12.2659657"><ele>287.0</ele><time>2026-03-29T14:05:31.462Z</time></trkpt><trkpt lat="43.1277979" lon="12.2659766"><ele>286.5</ele><time>2026-03-29T14:05:32.462Z</time></trkpt><trkpt lat="43.1279219" lon="12.2659696"><ele>286.0</ele><time>2026-03-29T14:05:33.462Z</time></trkpt><trkpt lat="43.1280508" lon="12.2659596"><ele>286.0</ele><time>2026-03-29T14:05:34.463Z</time></trkpt><trkpt lat="43.1281883" lon="12.26594"><ele>286.0</ele><time>2026-03-29T14:05:35.462Z</time></trkpt><trkpt lat="43.1283229" lon="12.2659131"><ele>286.0</ele><time>2026-03-29T14:05:36.462Z</time></trkpt><trkpt lat="43.1284545" lon="12.2658805"><ele>286.0</ele><time>2026-03-29T14:05:37.463Z</time></trkpt><trkpt lat="43.1285814" lon="12.2658329"><ele>284.0</ele><time>2026-03-29T14:05:38.462Z</time></trkpt><trkpt lat="43.1287101" lon="12.2657776"><ele>282.0</ele><time>2026-03-29T14:05:39.462Z</time></trkpt><trkpt lat="43.1288345" lon="12.2657125"><ele>280.0</ele><time>2026-03-29T14:05:40.463Z</time></trkpt><trkpt lat="43.1289651" lon="12.2656445"><ele>278.0</ele><time>2026-03-29T14:05:41.463Z</time></trkpt><trkpt lat="43.129093" lon="12.2655828"><ele>277.0</ele><time>2026-03-29T14:05:42.463Z</time></trkpt><trkpt lat="43.1292166" lon="12.2655276"><ele>276.0</ele><time>2026-03-29T14:05:43.462Z</time></trkpt><trkpt lat="43.1293355" lon="12.2654738"><ele>275.0</ele><time>2026-03-29T14:05:44.463Z</time></trkpt><trkpt lat="43.1294462" lon="12.2654093"><ele>274.0</ele><time>2026-03-29T14:05:45.462Z</time></trkpt><trkpt lat="43.1295483" lon="12.2653244"><ele>274.0</ele><time>2026-03-29T14:05:46.463Z</time></trkpt><trkpt lat="43.1296447" lon="12.2652233"><ele>274.0</ele><time>2026-03-29T14:05:47.463Z</time></trkpt><trkpt lat="43.1297199" lon="12.2651255"><ele>274.0</ele><time>2026-03-29T14:05:48.462Z</time></trkpt><trkpt lat="43.1297696" lon="12.2650283"><ele>274.0</ele><time>2026-03-29T14:05:49.463Z</time></trkpt><trkpt lat="43.1298009" lon="12.2649106"><ele>274.0</ele><time>2026-03-29T14:05:50.463Z</time></trkpt><trkpt lat="43.1298234" lon="12.2647735"><ele>273.59999999999997</ele><time>2026-03-29T14:05:51.462Z</time></trkpt><trkpt lat="43.1298418" lon="12.2646299"><ele>273.2</ele><time>2026-03-29T14:05:52.463Z</time></trkpt><trkpt lat="43.1298574" lon="12.2645044"><ele>272.79999999999995</ele><time>2026-03-29T14:05:53.462Z</time></trkpt><trkpt lat="43.1298702" lon="12.2643833"><ele>272.4</ele><time>2026-03-29T14:05:54.463Z</time></trkpt><trkpt lat="43.1298746" lon="12.2642583"><ele>272.0</ele><time>2026-03-29T14:05:55.462Z</time></trkpt><trkpt lat="43.1298778" lon="12.2641372"><ele>272.0</ele><time>2026-03-29T14:05:56.462Z</time></trkpt><trkpt lat="43.1298666" lon="12.2640288"><ele>272.0</ele><time>2026-03-29T14:05:57.463Z</time></trkpt><trkpt lat="43.1298512" lon="12.2639373"><ele>272.0</ele><time>2026-03-29T14:05:58.462Z</time></trkpt><trkpt lat="43.1298662" lon="12.2638217"><ele>272.0</ele><time>2026-03-29T14:06:00.463Z</time></trkpt><trkpt lat="43.1299593" lon="12.2637708"><ele>272.0</ele><time>2026-03-29T14:06:02.462Z</time></trkpt><trkpt lat="43.1300314" lon="12.2637912"><ele>272.0</ele><time>2026-03-29T14:06:03.462Z</time></trkpt><trkpt lat="43.1301121" lon="12.2638094"><ele>270.2</ele><time>2026-03-29T14:06:04.463Z</time></trkpt><trkpt lat="43.1301926" lon="12.2638533"><ele>268.4</ele><time>2026-03-29T14:06:05.463Z</time></trkpt><trkpt lat="43.1303035" lon="12.2639151"><ele>266.6</ele><time>2026-03-29T14:06:06.462Z</time></trkpt><trkpt lat="43.1303838" lon="12.2639753"><ele>264.8</ele><time>2026-03-29T14:06:07.462Z</time></trkpt><trkpt lat="43.130467" lon="12.2640405"><ele>263.0</ele><time>2026-03-29T14:06:08.462Z</time></trkpt><trkpt lat="43.1305268" lon="12.2640926"><ele>263.0</ele><time>2026-03-29T14:06:09.463Z</time></trkpt><trkpt lat="43.1305944" lon="12.2641469"><ele>263.0</ele><time>2026-03-29T14:06:10.462Z</time></trkpt><trkpt lat="43.130688" lon="12.2641665"><ele>263.0</ele><time>2026-03-29T14:06:11.463Z</time></trkpt><trkpt lat="43.1307766" lon="12.2641479"><ele>263.0</ele><time>2026-03-29T14:06:12.463Z</time></trkpt><trkpt lat="43.1308767" lon="12.2641194"><ele>263.0</ele><time>2026-03-29T14:06:13.462Z</time></trkpt><trkpt lat="43.1309828" lon="12.2640877"><ele>260.6</ele><time>2026-03-29T14:06:14.462Z</time></trkpt><trkpt lat="43.1310934" lon="12.2640502"><ele>258.20000000000005</ele><time>2026-03-29T14:06:15.463Z</time></trkpt><trkpt lat="43.1311971" lon="12.2640132"><ele>255.8</ele><time>2026-03-29T14:06:16.463Z</time></trkpt><trkpt lat="43.1313007" lon="12.2639779"><ele>253.4</ele><time>2026-03-29T14:06:17.462Z</time></trkpt><trkpt lat="43.1313941" lon="12.2639418"><ele>251.0</ele><time>2026-03-29T14:06:18.463Z</time></trkpt><trkpt lat="43.1314785" lon="12.2638979"><ele>250.16666666666669</ele><time>2026-03-29T14:06:19.463Z</time></trkpt><trkpt lat="43.1315512" lon="12.2638596"><ele>249.33333333333334</ele><time>2026-03-29T14:06:20.462Z</time></trkpt><trkpt lat="43.1316117" lon="12.2638219"><ele>248.5</ele><time>2026-03-29T14:06:21.463Z</time></trkpt><trkpt lat="43.1316975" lon="12.2638253"><ele>247.66666666666669</ele><time>2026-03-29T14:06:23.462Z</time></trkpt><trkpt lat="43.1317486" lon="12.2638868"><ele>246.83333333333334</ele><time>2026-03-29T14:06:26.462Z</time></trkpt><trkpt lat="43.1318346" lon="12.2638455"><ele>246.0</ele><time>2026-03-29T14:06:33.462Z</time></trkpt><trkpt lat="43.1319058" lon="12.2636761"><ele>244.4</ele><time>2026-03-29T14:06:35.462Z</time></trkpt><trkpt lat="43.1319432" lon="12.2635658"><ele>242.8</ele><time>2026-03-29T14:06:36.463Z</time></trkpt><trkpt lat="43.1319807" lon="12.2634482"><ele>241.20000000000002</ele><time>2026-03-29T14:06:37.462Z</time></trkpt><trkpt lat="43.132027" lon="12.2633153"><ele>239.60000000000002</ele><time>2026-03-29T14:06:38.463Z</time></trkpt><trkpt lat="43.1320728" lon="12.2631764"><ele>238.0</ele><time>2026-03-29T14:06:39.462Z</time></trkpt><trkpt lat="43.1321179" lon="12.263043"><ele>237.60000000000002</ele><time>2026-03-29T14:06:40.462Z</time></trkpt><trkpt lat="43.1321607" lon="12.262899"><ele>237.20000000000002</ele><time>2026-03-29T14:06:41.463Z</time></trkpt><trkpt lat="43.1321981" lon="12.2627436"><ele>236.8</ele><time>2026-03-29T14:06:42.463Z</time></trkpt><trkpt lat="43.1322288" lon="12.2626026"><ele>236.4</ele><time>2026-03-29T14:06:43.462Z</time></trkpt><trkpt lat="43.1322584" lon="12.2624901"><ele>236.0</ele><time>2026-03-29T14:06:44.462Z</time></trkpt><trkpt lat="43.1322854" lon="12.2624015"><ele>236.00000000000003</ele><time>2026-03-29T14:06:45.462Z</time></trkpt><trkpt lat="43.1323237" lon="12.2623248"><ele>236.0</ele><time>2026-03-29T14:06:46.462Z</time></trkpt><trkpt lat="43.132383" lon="12.2622525"><ele>236.0</ele><time>2026-03-29T14:06:47.463Z</time></trkpt><trkpt lat="43.1324585" lon="12.2621865"><ele>236.0</ele><time>2026-03-29T14:06:48.462Z</time></trkpt><trkpt lat="43.1325454" lon="12.2621236"><ele>236.00000000000003</ele><time>2026-03-29T14:06:49.463Z</time></trkpt><trkpt lat="43.1326315" lon="12.2620865"><ele>236.0</ele><time>2026-03-29T14:06:50.463Z</time></trkpt><trkpt lat="43.1327127" lon="12.2620877"><ele>236.0</ele><time>2026-03-29T14:06:51.462Z</time></trkpt><trkpt lat="43.1327988" lon="12.2621197"><ele>236.00000000000003</ele><time>2026-03-29T14:06:52.462Z</time></trkpt><trkpt lat="43.1328844" lon="12.2621807"><ele>236.00000000000003</ele><time>2026-03-29T14:06:53.463Z</time></trkpt><trkpt lat="43.1329606" lon="12.2622666"><ele>236.0</ele><time>2026-03-29T14:06:54.462Z</time></trkpt><trkpt lat="43.1330309" lon="12.262368"><ele>236.0</ele><time>2026-03-29T14:06:55.463Z</time></trkpt><trkpt lat="43.1331446" lon="12.2624814"><ele>236.0</ele><time>2026-03-29T14:06:56.462Z</time></trkpt><trkpt lat="43.1332574" lon="12.2625915"><ele>236.0</ele><time>2026-03-29T14:06:57.463Z</time></trkpt><trkpt lat="43.1333715" lon="12.2626985"><ele>236.0</ele><time>2026-03-29T14:06:58.463Z</time></trkpt><trkpt lat="43.1334887" lon="12.2628163"><ele>236.0</ele><time>2026-03-29T14:06:59.462Z</time></trkpt><trkpt lat="43.1336097" lon="12.2629299"><ele>236.0</ele><time>2026-03-29T14:07:00.463Z</time></trkpt><trkpt lat="43.1337344" lon="12.2630385"><ele>236.0</ele><time>2026-03-29T14:07:01.463Z</time></trkpt><trkpt lat="43.1338631" lon="12.2631442"><ele>236.0</ele><time>2026-03-29T14:07:02.462Z</time></trkpt><trkpt lat="43.1339971" lon="12.2632437"><ele>235.66666666666669</ele><time>2026-03-29T14:07:03.463Z</time></trkpt><trkpt lat="43.134135" lon="12.26333"><ele>235.33333333333331</ele><time>2026-03-29T14:07:04.462Z</time></trkpt><trkpt lat="43.1342752" lon="12.2634053"><ele>235.0</ele><time>2026-03-29T14:07:05.462Z</time></trkpt><trkpt lat="43.134419" lon="12.2634719"><ele>235.0</ele><time>2026-03-29T14:07:06.463Z</time></trkpt><trkpt lat="43.1345664" lon="12.2635208"><ele>235.0</ele><time>2026-03-29T14:07:07.463Z</time></trkpt><trkpt lat="43.1347153" lon="12.2635531"><ele>235.0</ele><time>2026-03-29T14:07:08.462Z</time></trkpt><trkpt lat="43.1348617" lon="12.263562"><ele>235.0</ele><time>2026-03-29T14:07:09.463Z</time></trkpt><trkpt lat="43.1349988" lon="12.26357"><ele>234.75</ele><time>2026-03-29T14:07:10.463Z</time></trkpt><trkpt lat="43.1351372" lon="12.2635966"><ele>234.5</ele><time>2026-03-29T14:07:11.463Z</time></trkpt><trkpt lat="43.1352749" lon="12.2636317"><ele>234.25</ele><time>2026-03-29T14:07:12.462Z</time></trkpt><trkpt lat="43.1354017" lon="12.2636647"><ele>234.0</ele><time>2026-03-29T14:07:13.463Z</time></trkpt><trkpt lat="43.1355174" lon="12.263703"><ele>234.0</ele><time>2026-03-29T14:07:14.462Z</time></trkpt><trkpt lat="43.1356136" lon="12.2637674"><ele>233.99999999999997</ele><time>2026-03-29T14:07:15.463Z</time></trkpt><trkpt lat="43.135688" lon="12.2638639"><ele>233.99999999999997</ele><time>2026-03-29T14:07:16.463Z</time></trkpt><trkpt lat="43.1357499" lon="12.2639891"><ele>234.0</ele><time>2026-03-29T14:07:17.462Z</time></trkpt><trkpt lat="43.1358125" lon="12.2641208"><ele>234.0</ele><time>2026-03-29T14:07:18.462Z</time></trkpt><trkpt lat="43.135882" lon="12.2642543"><ele>233.75</ele><time>2026-03-29T14:07:19.463Z</time></trkpt><trkpt lat="43.135954" lon="12.2643903"><ele>233.5</ele><time>2026-03-29T14:07:20.463Z</time></trkpt><trkpt lat="43.1360265" lon="12.2645339"><ele>233.25</ele><time>2026-03-29T14:07:21.462Z</time></trkpt><trkpt lat="43.1361045" lon="12.2646778"><ele>233.0</ele><time>2026-03-29T14:07:22.462Z</time></trkpt><trkpt lat="43.1361841" lon="12.2648276"><ele>233.75</ele><time>2026-03-29T14:07:23.463Z</time></trkpt><trkpt lat="43.1362666" lon="12.2649799"><ele>234.5</ele><time>2026-03-29T14:07:24.463Z</time></trkpt><trkpt lat="43.1363478" lon="12.2651375"><ele>235.25</ele><time>2026-03-29T14:07:25.463Z</time></trkpt><trkpt lat="43.1364298" lon="12.2652964"><ele>236.0</ele><time>2026-03-29T14:07:26.462Z</time></trkpt><trkpt lat="43.1365128" lon="12.2654605"><ele>235.5</ele><time>2026-03-29T14:07:27.462Z</time></trkpt><trkpt lat="43.1365955" lon="12.2656259"><ele>235.0</ele><time>2026-03-29T14:07:28.462Z</time></trkpt><trkpt lat="43.1366823" lon="12.2657904"><ele>234.5</ele><time>2026-03-29T14:07:29.462Z</time></trkpt><trkpt lat="43.1367695" lon="12.2659562"><ele>234.0</ele><time>2026-03-29T14:07:30.462Z</time></trkpt><trkpt lat="43.1368536" lon="12.2661235"><ele>234.0</ele><time>2026-03-29T14:07:31.463Z</time></trkpt><trkpt lat="43.1369377" lon="12.2662912"><ele>234.0</ele><time>2026-03-29T14:07:32.463Z</time></trkpt><trkpt lat="43.1370214" lon="12.2664551"><ele>234.0</ele><time>2026-03-29T14:07:33.463Z</time></trkpt><trkpt lat="43.1371035" lon="12.2666224"><ele>234.0</ele><time>2026-03-29T14:07:34.463Z</time></trkpt><trkpt lat="43.1371857" lon="12.2667855"><ele>234.0</ele><time>2026-03-29T14:07:35.462Z</time></trkpt><trkpt lat="43.1372696" lon="12.2669462"><ele>234.0</ele><time>2026-03-29T14:07:36.463Z</time></trkpt><trkpt lat="43.1373535" lon="12.267111"><ele>234.0</ele><time>2026-03-29T14:07:37.463Z</time></trkpt><trkpt lat="43.1374378" lon="12.2672764"><ele>234.0</ele><time>2026-03-29T14:07:38.462Z</time></trkpt><trkpt lat="43.137523" lon="12.2674402"><ele>234.75</ele><time>2026-03-29T14:07:39.463Z</time></trkpt><trkpt lat="43.1376079" lon="12.2676025"><ele>235.5</ele><time>2026-03-29T14:07:40.463Z</time></trkpt><trkpt lat="43.1376929" lon="12.2677671"><ele>236.25</ele><time>2026-03-29T14:07:41.463Z</time></trkpt><trkpt lat="43.1377788" lon="12.2679341"><ele>237.0</ele><time>2026-03-29T14:07:42.462Z</time></trkpt><trkpt lat="43.1378656" lon="12.2680977"><ele>236.75</ele><time>2026-03-29T14:07:43.462Z</time></trkpt><trkpt lat="43.1379549" lon="12.2682539"><ele>236.5</ele><time>2026-03-29T14:07:44.463Z</time></trkpt><trkpt lat="43.1380446" lon="12.2684136"><ele>236.25</ele><time>2026-03-29T14:07:45.463Z</time></trkpt><trkpt lat="43.1381432" lon="12.2685686"><ele>236.0</ele><time>2026-03-29T14:07:46.462Z</time></trkpt><trkpt lat="43.1382455" lon="12.2687203"><ele>236.0</ele><time>2026-03-29T14:07:47.461Z</time></trkpt><trkpt lat="43.1383522" lon="12.2688625"><ele>236.0</ele><time>2026-03-29T14:07:48.463Z</time></trkpt><trkpt lat="43.1384589" lon="12.2690034"><ele>236.0</ele><time>2026-03-29T14:07:49.462Z</time></trkpt><trkpt lat="43.1385727" lon="12.2691415"><ele>236.0</ele><time>2026-03-29T14:07:50.463Z</time></trkpt><trkpt lat="43.1386898" lon="12.2692712"><ele>236.0</ele><time>2026-03-29T14:07:51.463Z</time></trkpt><trkpt lat="43.1388081" lon="12.2693961"><ele>236.0</ele><time>2026-03-29T14:07:52.463Z</time></trkpt><trkpt lat="43.138919" lon="12.2695136"><ele>236.0</ele><time>2026-03-29T14:07:53.463Z</time></trkpt><trkpt lat="43.1390266" lon="12.2696187"><ele>236.0</ele><time>2026-03-29T14:07:54.463Z</time></trkpt><trkpt lat="43.1391403" lon="12.2697231"><ele>236.25</ele><time>2026-03-29T14:07:55.462Z</time></trkpt><trkpt lat="43.1392581" lon="12.2698268"><ele>236.5</ele><time>2026-03-29T14:07:56.463Z</time></trkpt><trkpt lat="43.139365" lon="12.2699266"><ele>236.75</ele><time>2026-03-29T14:07:57.462Z</time></trkpt><trkpt lat="43.1394602" lon="12.2700193"><ele>237.0</ele><time>2026-03-29T14:07:58.462Z</time></trkpt><trkpt lat="43.1395512" lon="12.2701095"><ele>237.0</ele><time>2026-03-29T14:07:59.463Z</time></trkpt><trkpt lat="43.1396367" lon="12.2701903"><ele>237.0</ele><time>2026-03-29T14:08:00.462Z</time></trkpt><trkpt lat="43.1397115" lon="12.2702667"><ele>237.0</ele><time>2026-03-29T14:08:01.462Z</time></trkpt><trkpt lat="43.1397776" lon="12.2703396"><ele>237.0</ele><time>2026-03-29T14:08:02.463Z</time></trkpt><trkpt lat="43.1398665" lon="12.2704191"><ele>237.0</ele><time>2026-03-29T14:08:04.462Z</time></trkpt><trkpt lat="43.1399534" lon="12.2704159"><ele>237.33333333333334</ele><time>2026-03-29T14:08:06.461Z</time></trkpt><trkpt lat="43.1399995" lon="12.2703525"><ele>237.66666666666669</ele><time>2026-03-29T14:08:07.463Z</time></trkpt><trkpt lat="43.1400325" lon="12.2702641"><ele>238.0</ele><time>2026-03-29T14:08:08.462Z</time></trkpt><trkpt lat="43.140065" lon="12.2701549"><ele>238.33333333333334</ele><time>2026-03-29T14:08:09.463Z</time></trkpt><trkpt lat="43.1401081" lon="12.2700388"><ele>238.66666666666669</ele><time>2026-03-29T14:08:10.463Z</time></trkpt><trkpt lat="43.1401585" lon="12.2699254"><ele>239.0</ele><time>2026-03-29T14:08:11.463Z</time></trkpt><trkpt lat="43.1402088" lon="12.269801"><ele>238.75</ele><time>2026-03-29T14:08:12.462Z</time></trkpt><trkpt lat="43.1402672" lon="12.2696697"><ele>238.5</ele><time>2026-03-29T14:08:13.463Z</time></trkpt><trkpt lat="43.1403351" lon="12.2695428"><ele>238.25</ele><time>2026-03-29T14:08:14.463Z</time></trkpt><trkpt lat="43.1404112" lon="12.2694144"><ele>238.0</ele><time>2026-03-29T14:08:15.463Z</time></trkpt><trkpt lat="43.1404854" lon="12.2692691"><ele>238.0</ele><time>2026-03-29T14:08:16.463Z</time></trkpt><trkpt lat="43.1405569" lon="12.2691124"><ele>238.0</ele><time>2026-03-29T14:08:17.463Z</time></trkpt><trkpt lat="43.1406243" lon="12.2689522"><ele>238.0</ele><time>2026-03-29T14:08:18.462Z</time></trkpt><trkpt lat="43.1406973" lon="12.2687929"><ele>238.0</ele><time>2026-03-29T14:08:19.462Z</time></trkpt><trkpt lat="43.1407856" lon="12.2686437"><ele>238.0</ele><time>2026-03-29T14:08:20.463Z</time></trkpt><trkpt lat="43.1408837" lon="12.2685085"><ele>238.0</ele><time>2026-03-29T14:08:21.463Z</time></trkpt><trkpt lat="43.1409772" lon="12.2683905"><ele>238.0</ele><time>2026-03-29T14:08:22.463Z</time></trkpt><trkpt lat="43.1410577" lon="12.2682871"><ele>238.0</ele><time>2026-03-29T14:08:23.462Z</time></trkpt><trkpt lat="43.1411341" lon="12.268197"><ele>238.5</ele><time>2026-03-29T14:08:24.463Z</time></trkpt><trkpt lat="43.1412205" lon="12.2680909"><ele>239.0</ele><time>2026-03-29T14:08:25.462Z</time></trkpt><trkpt lat="43.1413144" lon="12.2679702"><ele>239.5</ele><time>2026-03-29T14:08:26.463Z</time></trkpt><trkpt lat="43.1414138" lon="12.2678357"><ele>240.0</ele><time>2026-03-29T14:08:27.463Z</time></trkpt><trkpt lat="43.1415159" lon="12.2676939"><ele>239.75</ele><time>2026-03-29T14:08:28.463Z</time></trkpt><trkpt lat="43.141623" lon="12.2675514"><ele>239.5</ele><time>2026-03-29T14:08:29.463Z</time></trkpt><trkpt lat="43.1417337" lon="12.2674089"><ele>239.25</ele><time>2026-03-29T14:08:30.462Z</time></trkpt><trkpt lat="43.1418394" lon="12.2672739"><ele>239.0</ele><time>2026-03-29T14:08:31.463Z</time></trkpt><trkpt lat="43.1419352" lon="12.2671499"><ele>238.79999999999998</ele><time>2026-03-29T14:08:32.462Z</time></trkpt><trkpt lat="43.1420212" lon="12.2670441"><ele>238.59999999999997</ele><time>2026-03-29T14:08:33.463Z</time></trkpt><trkpt lat="43.1420953" lon="12.2669507"><ele>238.4</ele><time>2026-03-29T14:08:34.463Z</time></trkpt><trkpt lat="43.1421584" lon="12.266883"><ele>238.2</ele><time>2026-03-29T14:08:35.462Z</time></trkpt><trkpt lat="43.1422263" lon="12.2668517"><ele>238.0</ele><time>2026-03-29T14:08:36.462Z</time></trkpt><trkpt lat="43.1423114" lon="12.2668545"><ele>238.60000000000002</ele><time>2026-03-29T14:08:37.463Z</time></trkpt><trkpt lat="43.1424101" lon="12.2668812"><ele>239.20000000000002</ele><time>2026-03-29T14:08:38.463Z</time></trkpt><trkpt lat="43.1425132" lon="12.2669076"><ele>239.8</ele><time>2026-03-29T14:08:39.462Z</time></trkpt><trkpt lat="43.1426209" lon="12.2669327"><ele>240.4</ele><time>2026-03-29T14:08:40.462Z</time></trkpt><trkpt lat="43.1427344" lon="12.2669519"><ele>241.0</ele><time>2026-03-29T14:08:41.463Z</time></trkpt><trkpt lat="43.1428531" lon="12.2669684"><ele>241.0</ele><time>2026-03-29T14:08:42.462Z</time></trkpt><trkpt lat="43.1429694" lon="12.2669828"><ele>241.00000000000003</ele><time>2026-03-29T14:08:43.463Z</time></trkpt><trkpt lat="43.1430803" lon="12.2669903"><ele>241.00000000000003</ele><time>2026-03-29T14:08:44.462Z</time></trkpt><trkpt lat="43.1431864" lon="12.2669773"><ele>241.0</ele><time>2026-03-29T14:08:45.462Z</time></trkpt><trkpt lat="43.1432881" lon="12.2669661"><ele>241.0</ele><time>2026-03-29T14:08:46.462Z</time></trkpt><trkpt lat="43.1433888" lon="12.2669757"><ele>241.25</ele><time>2026-03-29T14:08:47.461Z</time></trkpt><trkpt lat="43.1434872" lon="12.2670273"><ele>241.5</ele><time>2026-03-29T14:08:48.463Z</time></trkpt><trkpt lat="43.1435817" lon="12.2671196"><ele>241.75</ele><time>2026-03-29T14:08:49.463Z</time></trkpt><trkpt lat="43.143676" lon="12.2672352"><ele>242.0</ele><time>2026-03-29T14:08:50.462Z</time></trkpt><trkpt lat="43.1437727" lon="12.267369"><ele>241.5</ele><time>2026-03-29T14:08:51.463Z</time></trkpt><trkpt lat="43.1438673" lon="12.267508"><ele>241.0</ele><time>2026-03-29T14:08:52.463Z</time></trkpt><trkpt lat="43.1439631" lon="12.2676482"><ele>240.5</ele><time>2026-03-29T14:08:53.463Z</time></trkpt><trkpt lat="43.1440588" lon="12.2677933"><ele>240.0</ele><time>2026-03-29T14:08:54.462Z</time></trkpt><trkpt lat="43.1441578" lon="12.2679315"><ele>239.75</ele><time>2026-03-29T14:08:55.463Z</time></trkpt><trkpt lat="43.1442703" lon="12.2680462"><ele>239.5</ele><time>2026-03-29T14:08:56.463Z</time></trkpt><trkpt lat="43.1443919" lon="12.2681459"><ele>239.25</ele><time>2026-03-29T14:08:57.463Z</time></trkpt><trkpt lat="43.1445207" lon="12.2682356"><ele>239.0</ele><time>2026-03-29T14:08:58.462Z</time></trkpt><trkpt lat="43.1446436" lon="12.2683255"><ele>239.0</ele><time>2026-03-29T14:08:59.461Z</time></trkpt><trkpt lat="43.1447543" lon="12.2684244"><ele>239.0</ele><time>2026-03-29T14:09:00.462Z</time></trkpt><trkpt lat="43.1448555" lon="12.2685294"><ele>239.0</ele><time>2026-03-29T14:09:01.463Z</time></trkpt><trkpt lat="43.1449539" lon="12.2686427"><ele>239.0</ele><time>2026-03-29T14:09:02.463Z</time></trkpt><trkpt lat="43.1450558" lon="12.2687587"><ele>239.5</ele><time>2026-03-29T14:09:03.463Z</time></trkpt><trkpt lat="43.1451542" lon="12.2688804"><ele>240.0</ele><time>2026-03-29T14:09:04.463Z</time></trkpt><trkpt lat="43.1452374" lon="12.2690159"><ele>240.5</ele><time>2026-03-29T14:09:05.463Z</time></trkpt><trkpt lat="43.1453038" lon="12.2691667"><ele>241.0</ele><time>2026-03-29T14:09:06.463Z</time></trkpt><trkpt lat="43.1453458" lon="12.2693197"><ele>241.25</ele><time>2026-03-29T14:09:07.462Z</time></trkpt><trkpt lat="43.1453637" lon="12.2694715"><ele>241.5</ele><time>2026-03-29T14:09:08.462Z</time></trkpt><trkpt lat="43.145364" lon="12.2696315"><ele>241.75</ele><time>2026-03-29T14:09:09.462Z</time></trkpt><trkpt lat="43.1453562" lon="12.2698013"><ele>242.0</ele><time>2026-03-29T14:09:10.463Z</time></trkpt><trkpt lat="43.145348" lon="12.2699777"><ele>242.5</ele><time>2026-03-29T14:09:11.462Z</time></trkpt><trkpt lat="43.1453419" lon="12.2701608"><ele>243.0</ele><time>2026-03-29T14:09:12.462Z</time></trkpt><trkpt lat="43.145337" lon="12.2703394"><ele>243.5</ele><time>2026-03-29T14:09:13.463Z</time></trkpt><trkpt lat="43.1453282" lon="12.2705076"><ele>244.0</ele><time>2026-03-29T14:09:14.462Z</time></trkpt><trkpt lat="43.1453174" lon="12.2706513"><ele>244.6</ele><time>2026-03-29T14:09:15.463Z</time></trkpt><trkpt lat="43.1452972" lon="12.270775"><ele>245.2</ele><time>2026-03-29T14:09:16.463Z</time></trkpt><trkpt lat="43.1452575" lon="12.2708879"><ele>245.79999999999998</ele><time>2026-03-29T14:09:17.462Z</time></trkpt><trkpt lat="43.1452043" lon="12.2710018"><ele>246.39999999999998</ele><time>2026-03-29T14:09:18.463Z</time></trkpt><trkpt lat="43.1451479" lon="12.2711337"><ele>247.0</ele><time>2026-03-29T14:09:19.462Z</time></trkpt><trkpt lat="43.145092" lon="12.2712677"><ele>247.0</ele><time>2026-03-29T14:09:20.463Z</time></trkpt><trkpt lat="43.1450344" lon="12.2714007"><ele>247.0</ele><time>2026-03-29T14:09:21.462Z</time></trkpt><trkpt lat="43.1449871" lon="12.2715225"><ele>247.0</ele><time>2026-03-29T14:09:22.463Z</time></trkpt><trkpt lat="43.1449597" lon="12.2716408"><ele>247.0</ele><time>2026-03-29T14:09:23.463Z</time></trkpt><trkpt lat="43.144955" lon="12.2717727"><ele>247.0</ele><time>2026-03-29T14:09:24.463Z</time></trkpt><trkpt lat="43.1449641" lon="12.2719196"><ele>247.6</ele><time>2026-03-29T14:09:25.464Z</time></trkpt><trkpt lat="43.1449703" lon="12.2720726"><ele>248.2</ele><time>2026-03-29T14:09:26.463Z</time></trkpt><trkpt lat="43.1449691" lon="12.2722252"><ele>248.8</ele><time>2026-03-29T14:09:27.463Z</time></trkpt><trkpt lat="43.1449688" lon="12.2723671"><ele>249.4</ele><time>2026-03-29T14:09:28.464Z</time></trkpt><trkpt lat="43.1449738" lon="12.272512"><ele>250.0</ele><time>2026-03-29T14:09:29.464Z</time></trkpt><trkpt lat="43.1449821" lon="12.2726489"><ele>250.2</ele><time>2026-03-29T14:09:30.464Z</time></trkpt><trkpt lat="43.1449942" lon="12.2727848"><ele>250.4</ele><time>2026-03-29T14:09:31.463Z</time></trkpt><trkpt lat="43.1450048" lon="12.2729213"><ele>250.60000000000002</ele><time>2026-03-29T14:09:32.463Z</time></trkpt><trkpt lat="43.1450195" lon="12.2730736"><ele>250.8</ele><time>2026-03-29T14:09:33.464Z</time></trkpt><trkpt lat="43.1450347" lon="12.2732334"><ele>251.0</ele><time>2026-03-29T14:09:34.464Z</time></trkpt><trkpt lat="43.1450492" lon="12.2734002"><ele>250.4</ele><time>2026-03-29T14:09:35.463Z</time></trkpt><trkpt lat="43.1450646" lon="12.2735615"><ele>249.8</ele><time>2026-03-29T14:09:36.463Z</time></trkpt><trkpt lat="43.1450773" lon="12.2737137"><ele>249.20000000000002</ele><time>2026-03-29T14:09:37.464Z</time></trkpt><trkpt lat="43.1450891" lon="12.2738519"><ele>248.60000000000002</ele><time>2026-03-29T14:09:38.463Z</time></trkpt><trkpt lat="43.1451018" lon="12.2739811"><ele>248.0</ele><time>2026-03-29T14:09:39.463Z</time></trkpt><trkpt lat="43.145121" lon="12.2740929"><ele>247.33333333333334</ele><time>2026-03-29T14:09:40.463Z</time></trkpt><trkpt lat="43.1451546" lon="12.2741854"><ele>246.66666666666669</ele><time>2026-03-29T14:09:41.464Z</time></trkpt><trkpt lat="43.1451901" lon="12.2742581"><ele>246.0</ele><time>2026-03-29T14:09:42.464Z</time></trkpt><trkpt lat="43.1452299" lon="12.2743478"><ele>245.33333333333331</ele><time>2026-03-29T14:09:44.464Z</time></trkpt><trkpt lat="43.1452902" lon="12.2744533"><ele>244.66666666666666</ele><time>2026-03-29T14:09:46.464Z</time></trkpt><trkpt lat="43.1453722" lon="12.274549"><ele>244.0</ele><time>2026-03-29T14:09:48.463Z</time></trkpt><trkpt lat="43.145439" lon="12.2746148"><ele>244.0</ele><time>2026-03-29T14:09:50.463Z</time></trkpt><trkpt lat="43.1455172" lon="12.2746769"><ele>243.99999999999997</ele><time>2026-03-29T14:09:52.464Z</time></trkpt><trkpt lat="43.1456164" lon="12.2747613"><ele>243.99999999999997</ele><time>2026-03-29T14:09:54.463Z</time></trkpt><trkpt lat="43.1457629" lon="12.2748241"><ele>244.0</ele><time>2026-03-29T14:09:56.463Z</time></trkpt><trkpt lat="43.1458361" lon="12.2748433"><ele>244.0</ele><time>2026-03-29T14:09:57.463Z</time></trkpt><trkpt lat="43.1459142" lon="12.2748611"><ele>243.83333333333331</ele><time>2026-03-29T14:09:58.463Z</time></trkpt><trkpt lat="43.1459924" lon="12.2748701"><ele>243.66666666666666</ele><time>2026-03-29T14:09:59.463Z</time></trkpt><trkpt lat="43.1460748" lon="12.2748873"><ele>243.5</ele><time>2026-03-29T14:10:00.464Z</time></trkpt><trkpt lat="43.146163" lon="12.2749129"><ele>243.33333333333331</ele><time>2026-03-29T14:10:01.463Z</time></trkpt><trkpt lat="43.1462498" lon="12.2749322"><ele>243.16666666666666</ele><time>2026-03-29T14:10:02.463Z</time></trkpt><trkpt lat="43.1463276" lon="12.2749441"><ele>243.0</ele><time>2026-03-29T14:10:03.464Z</time></trkpt><trkpt lat="43.146404" lon="12.2749515"><ele>243.0</ele><time>2026-03-29T14:10:04.464Z</time></trkpt><trkpt lat="43.1464809" lon="12.2749468"><ele>243.0</ele><time>2026-03-29T14:10:05.463Z</time></trkpt><trkpt lat="43.1465679" lon="12.2749665"><ele>243.0</ele><time>2026-03-29T14:10:06.464Z</time></trkpt><trkpt lat="43.1466533" lon="12.2749617"><ele>243.0</ele><time>2026-03-29T14:10:07.463Z</time></trkpt><trkpt lat="43.1467427" lon="12.2749525"><ele>243.0</ele><time>2026-03-29T14:10:08.463Z</time></trkpt><trkpt lat="43.1468264" lon="12.2749356"><ele>243.0</ele><time>2026-03-29T14:10:09.464Z</time></trkpt><trkpt lat="43.1469019" lon="12.2749233"><ele>243.42857142857142</ele><time>2026-03-29T14:10:10.464Z</time></trkpt><trkpt lat="43.1469748" lon="12.2749176"><ele>243.8571428571429</ele><time>2026-03-29T14:10:11.463Z</time></trkpt><trkpt lat="43.1470411" lon="12.2749336"><ele>244.2857142857143</ele><time>2026-03-29T14:10:12.464Z</time></trkpt><trkpt lat="43.1471017" lon="12.2749752"><ele>244.71428571428572</ele><time>2026-03-29T14:10:13.464Z</time></trkpt><trkpt lat="43.1471474" lon="12.2750466"><ele>245.14285714285717</ele><time>2026-03-29T14:10:14.464Z</time></trkpt><trkpt lat="43.1471763" lon="12.2751407"><ele>245.5714285714286</ele><time>2026-03-29T14:10:15.463Z</time></trkpt><trkpt lat="43.1472026" lon="12.2752459"><ele>246.00000000000003</ele><time>2026-03-29T14:10:16.464Z</time></trkpt><trkpt lat="43.1472384" lon="12.2753465"><ele>246.0</ele><time>2026-03-29T14:10:17.464Z</time></trkpt><trkpt lat="43.1472673" lon="12.2754436"><ele>246.0</ele><time>2026-03-29T14:10:18.463Z</time></trkpt><trkpt lat="43.1472921" lon="12.2755321"><ele>246.0</ele><time>2026-03-29T14:10:19.464Z</time></trkpt><trkpt lat="43.1473202" lon="12.2756132"><ele>246.0</ele><time>2026-03-29T14:10:20.464Z</time></trkpt><trkpt lat="43.1473806" lon="12.2757846"><ele>246.0</ele><time>2026-03-29T14:10:22.463Z</time></trkpt><trkpt lat="43.1474059" lon="12.2758884"><ele>246.0</ele><time>2026-03-29T14:10:23.464Z</time></trkpt><trkpt lat="43.1474387" lon="12.2759961"><ele>245.8</ele><time>2026-03-29T14:10:24.464Z</time></trkpt><trkpt lat="43.1474736" lon="12.2761056"><ele>245.60000000000002</ele><time>2026-03-29T14:10:25.463Z</time></trkpt><trkpt lat="43.1475084" lon="12.2762196"><ele>245.4</ele><time>2026-03-29T14:10:26.464Z</time></trkpt><trkpt lat="43.1475459" lon="12.2763331"><ele>245.2</ele><time>2026-03-29T14:10:27.464Z</time></trkpt><trkpt lat="43.1475814" lon="12.2764502"><ele>245.0</ele><time>2026-03-29T14:10:28.464Z</time></trkpt><trkpt lat="43.1476159" lon="12.2765639"><ele>245.00000000000003</ele><time>2026-03-29T14:10:29.464Z</time></trkpt><trkpt lat="43.1476474" lon="12.2766613"><ele>245.0</ele><time>2026-03-29T14:10:30.463Z</time></trkpt><trkpt lat="43.1476841" lon="12.276754"><ele>245.0</ele><time>2026-03-29T14:10:31.464Z</time></trkpt><trkpt lat="43.1477337" lon="12.2768312"><ele>245.0</ele><time>2026-03-29T14:10:32.463Z</time></trkpt><trkpt lat="43.1477965" lon="12.2768892"><ele>245.00000000000003</ele><time>2026-03-29T14:10:33.463Z</time></trkpt><trkpt lat="43.1478691" lon="12.2769381"><ele>245.0</ele><time>2026-03-29T14:10:34.463Z</time></trkpt><trkpt lat="43.1479402" lon="12.2769694"><ele>245.00000000000003</ele><time>2026-03-29T14:10:35.463Z</time></trkpt><trkpt lat="43.1480069" lon="12.276967"><ele>245.0</ele><time>2026-03-29T14:10:36.464Z</time></trkpt><trkpt lat="43.1480709" lon="12.2769838"><ele>245.0</ele><time>2026-03-29T14:10:37.464Z</time></trkpt><trkpt lat="43.1481358" lon="12.2770043"><ele>245.0</ele><time>2026-03-29T14:10:38.464Z</time></trkpt><trkpt lat="43.1482392" lon="12.2770123"><ele>245.00000000000003</ele><time>2026-03-29T14:10:40.463Z</time></trkpt><trkpt lat="43.1483395" lon="12.2770965"><ele>245.0</ele><time>2026-03-29T14:10:42.463Z</time></trkpt><trkpt lat="43.1483979" lon="12.2771565"><ele>245.16666666666669</ele><time>2026-03-29T14:10:43.463Z</time></trkpt><trkpt lat="43.1484614" lon="12.2772199"><ele>245.33333333333334</ele><time>2026-03-29T14:10:44.464Z</time></trkpt><trkpt lat="43.1485299" lon="12.2772746"><ele>245.5</ele><time>2026-03-29T14:10:45.463Z</time></trkpt><trkpt lat="43.1486078" lon="12.2772981"><ele>245.66666666666669</ele><time>2026-03-29T14:10:46.463Z</time></trkpt><trkpt lat="43.1486872" lon="12.2772802"><ele>245.83333333333334</ele><time>2026-03-29T14:10:47.464Z</time></trkpt><trkpt lat="43.1487687" lon="12.2772348"><ele>246.0</ele><time>2026-03-29T14:10:48.464Z</time></trkpt><trkpt lat="43.1488601" lon="12.2771855"><ele>246.4</ele><time>2026-03-29T14:10:49.464Z</time></trkpt><trkpt lat="43.1489569" lon="12.2771396"><ele>246.8</ele><time>2026-03-29T14:10:50.463Z</time></trkpt><trkpt lat="43.1490593" lon="12.2770959"><ele>247.20000000000002</ele><time>2026-03-29T14:10:51.463Z</time></trkpt><trkpt lat="43.1491625" lon="12.2770512"><ele>247.60000000000002</ele><time>2026-03-29T14:10:52.463Z</time></trkpt><trkpt lat="43.149264" lon="12.2770018"><ele>248.0</ele><time>2026-03-29T14:10:53.464Z</time></trkpt><trkpt lat="43.1493655" lon="12.2769454"><ele>248.00000000000003</ele><time>2026-03-29T14:10:54.463Z</time></trkpt><trkpt lat="43.1494626" lon="12.276887"><ele>248.0</ele><time>2026-03-29T14:10:55.463Z</time></trkpt><trkpt lat="43.1495454" lon="12.2768364"><ele>248.0</ele><time>2026-03-29T14:10:56.463Z</time></trkpt><trkpt lat="43.1496189" lon="12.2767796"><ele>248.0</ele><time>2026-03-29T14:10:57.463Z</time></trkpt><trkpt lat="43.1496886" lon="12.2767317"><ele>248.00000000000003</ele><time>2026-03-29T14:10:58.462Z</time></trkpt><trkpt lat="43.1497548" lon="12.2767068"><ele>248.0</ele><time>2026-03-29T14:10:59.463Z</time></trkpt><trkpt lat="43.149887" lon="12.2766838"><ele>248.0</ele><time>2026-03-29T14:11:01.464Z</time></trkpt><trkpt lat="43.1500583" lon="12.2765953"><ele>248.0</ele><time>2026-03-29T14:11:03.463Z</time></trkpt><trkpt lat="43.1501538" lon="12.2765448"><ele>248.0</ele><time>2026-03-29T14:11:04.463Z</time></trkpt><trkpt lat="43.1502547" lon="12.2764801"><ele>248.0</ele><time>2026-03-29T14:11:05.463Z</time></trkpt><trkpt lat="43.1503595" lon="12.2764248"><ele>247.83333333333334</ele><time>2026-03-29T14:11:06.464Z</time></trkpt><trkpt lat="43.1504565" lon="12.2763727"><ele>247.66666666666669</ele><time>2026-03-29T14:11:07.464Z</time></trkpt><trkpt lat="43.1505415" lon="12.2763359"><ele>247.5</ele><time>2026-03-29T14:11:08.463Z</time></trkpt><trkpt lat="43.1506212" lon="12.2763177"><ele>247.33333333333331</ele><time>2026-03-29T14:11:09.463Z</time></trkpt><trkpt lat="43.1507008" lon="12.2763389"><ele>247.16666666666666</ele><time>2026-03-29T14:11:10.463Z</time></trkpt><trkpt lat="43.1507799" lon="12.2763724"><ele>247.0</ele><time>2026-03-29T14:11:11.463Z</time></trkpt><trkpt lat="43.150854" lon="12.276419"><ele>247.66666666666666</ele><time>2026-03-29T14:11:12.463Z</time></trkpt><trkpt lat="43.1509254" lon="12.2764632"><ele>248.33333333333331</ele><time>2026-03-29T14:11:13.464Z</time></trkpt><trkpt lat="43.1509842" lon="12.276502"><ele>249.0</ele><time>2026-03-29T14:11:14.463Z</time></trkpt><trkpt lat="43.1510746" lon="12.2765265"><ele>249.66666666666669</ele><time>2026-03-29T14:11:16.464Z</time></trkpt><trkpt lat="43.1511631" lon="12.2764736"><ele>250.33333333333334</ele><time>2026-03-29T14:11:18.463Z</time></trkpt><trkpt lat="43.1512557" lon="12.2764014"><ele>251.0</ele><time>2026-03-29T14:11:20.463Z</time></trkpt><trkpt lat="43.151311" lon="12.2763577"><ele>251.25</ele><time>2026-03-29T14:11:21.463Z</time></trkpt><trkpt lat="43.1513732" lon="12.2763192"><ele>251.5</ele><time>2026-03-29T14:11:22.462Z</time></trkpt><trkpt lat="43.151547" lon="12.2762571"><ele>251.75</ele><time>2026-03-29T14:11:24.463Z</time></trkpt><trkpt lat="43.1516479" lon="12.2762171"><ele>252.0</ele><time>2026-03-29T14:11:25.463Z</time></trkpt><trkpt lat="43.1517477" lon="12.2761709"><ele>255.25</ele><time>2026-03-29T14:11:26.463Z</time></trkpt><trkpt lat="43.1518595" lon="12.27612"><ele>258.5</ele><time>2026-03-29T14:11:27.463Z</time></trkpt><trkpt lat="43.151968" lon="12.2760629"><ele>261.75</ele><time>2026-03-29T14:11:28.463Z</time></trkpt><trkpt lat="43.1520716" lon="12.2759936"><ele>265.0</ele><time>2026-03-29T14:11:29.463Z</time></trkpt><trkpt lat="43.1521614" lon="12.2759096"><ele>265.0</ele><time>2026-03-29T14:11:30.464Z</time></trkpt><trkpt lat="43.152231" lon="12.2757913"><ele>265.0</ele><time>2026-03-29T14:11:31.463Z</time></trkpt><trkpt lat="43.152287" lon="12.2756478"><ele>265.0</ele><time>2026-03-29T14:11:32.464Z</time></trkpt><trkpt lat="43.1523426" lon="12.2755017"><ele>265.0</ele><time>2026-03-29T14:11:33.463Z</time></trkpt><trkpt lat="43.1523995" lon="12.2753537"><ele>267.57142857142856</ele><time>2026-03-29T14:11:34.463Z</time></trkpt><trkpt lat="43.1524364" lon="12.2752809"><ele>270.1428571428571</ele><time>2026-03-29T14:11:35.464Z</time></trkpt><trkpt lat="43.1524862" lon="12.2752144"><ele>272.7142857142857</ele><time>2026-03-29T14:11:36.464Z</time></trkpt><trkpt lat="43.1525429" lon="12.2751513"><ele>275.2857142857143</ele><time>2026-03-29T14:11:37.464Z</time></trkpt><trkpt lat="43.1526207" lon="12.2751446"><ele>277.8571428571429</ele><time>2026-03-29T14:11:38.463Z</time></trkpt><trkpt lat="43.1526897" lon="12.2751151"><ele>280.42857142857144</ele><time>2026-03-29T14:11:39.464Z</time></trkpt><trkpt lat="43.1527541" lon="12.2751021"><ele>283.0</ele><time>2026-03-29T14:11:40.464Z</time></trkpt><trkpt lat="43.1528221" lon="12.2751198"><ele>283.0</ele><time>2026-03-29T14:11:41.463Z</time></trkpt><trkpt lat="43.1529027" lon="12.2750981"><ele>283.0</ele><time>2026-03-29T14:11:42.463Z</time></trkpt><trkpt lat="43.1529929" lon="12.2750827"><ele>283.0</ele><time>2026-03-29T14:11:43.463Z</time></trkpt><trkpt lat="43.1530656" lon="12.275084"><ele>283.0</ele><time>2026-03-29T14:11:44.464Z</time></trkpt><trkpt lat="43.1531424" lon="12.2750505"><ele>283.0</ele><time>2026-03-29T14:11:45.463Z</time></trkpt><trkpt lat="43.1532239" lon="12.2750539"><ele>283.0</ele><time>2026-03-29T14:11:46.464Z</time></trkpt><trkpt lat="43.1532903" lon="12.2750509"><ele>286.16666666666663</ele><time>2026-03-29T14:11:47.463Z</time></trkpt><trkpt lat="43.1533582" lon="12.2750006"><ele>289.3333333333333</ele><time>2026-03-29T14:11:48.463Z</time></trkpt><trkpt lat="43.1534188" lon="12.2749487"><ele>292.5</ele><time>2026-03-29T14:11:49.463Z</time></trkpt><trkpt lat="43.1534915" lon="12.2749211"><ele>295.6666666666667</ele><time>2026-03-29T14:11:50.463Z</time></trkpt><trkpt lat="43.1535683" lon="12.2749029"><ele>298.83333333333337</ele><time>2026-03-29T14:11:51.463Z</time></trkpt><trkpt lat="43.1536437" lon="12.2749141"><ele>302.0</ele><time>2026-03-29T14:11:52.463Z</time></trkpt><trkpt lat="43.1537187" lon="12.274887"><ele>302.0</ele><time>2026-03-29T14:11:53.463Z</time></trkpt><trkpt lat="43.1537873" lon="12.2748582"><ele>302.0</ele><time>2026-03-29T14:11:54.464Z</time></trkpt><trkpt lat="43.153863" lon="12.2748601"><ele>302.0</ele><time>2026-03-29T14:11:55.464Z</time></trkpt><trkpt lat="43.1539393" lon="12.2748833"><ele>302.0</ele><time>2026-03-29T14:11:56.463Z</time></trkpt><trkpt lat="43.1540289" lon="12.2749146"><ele>302.0</ele><time>2026-03-29T14:11:57.463Z</time></trkpt><trkpt lat="43.1541172" lon="12.2749354"><ele>302.0</ele><time>2026-03-29T14:11:58.463Z</time></trkpt><trkpt lat="43.1542114" lon="12.2749669"><ele>304.1666666666667</ele><time>2026-03-29T14:11:59.463Z</time></trkpt><trkpt lat="43.1543054" lon="12.2750144"><ele>306.33333333333337</ele><time>2026-03-29T14:12:01.463Z</time></trkpt><trkpt lat="43.1544123" lon="12.275072"><ele>308.5</ele><time>2026-03-29T14:12:03.464Z</time></trkpt><trkpt lat="43.1544744" lon="12.2751082"><ele>310.6666666666667</ele><time>2026-03-29T14:12:04.464Z</time></trkpt><trkpt lat="43.1545401" lon="12.2751432"><ele>312.8333333333333</ele><time>2026-03-29T14:12:05.464Z</time></trkpt><trkpt lat="43.1546118" lon="12.2751751"><ele>315.0</ele><time>2026-03-29T14:12:06.464Z</time></trkpt><trkpt lat="43.1546869" lon="12.2751983"><ele>315.0</ele><time>2026-03-29T14:12:07.463Z</time></trkpt><trkpt lat="43.154764" lon="12.2752202"><ele>315.0</ele><time>2026-03-29T14:12:08.463Z</time></trkpt><trkpt lat="43.1549352" lon="12.2752675"><ele>315.0</ele><time>2026-03-29T14:12:10.464Z</time></trkpt><trkpt lat="43.1550309" lon="12.2752946"><ele>315.0</ele><time>2026-03-29T14:12:11.463Z</time></trkpt><trkpt lat="43.1551317" lon="12.2753261"><ele>316.6</ele><time>2026-03-29T14:12:12.463Z</time></trkpt><trkpt lat="43.1552371" lon="12.2753545"><ele>318.2</ele><time>2026-03-29T14:12:13.463Z</time></trkpt><trkpt lat="43.1553416" lon="12.2753821"><ele>319.79999999999995</ele><time>2026-03-29T14:12:14.463Z</time></trkpt><trkpt lat="43.1554408" lon="12.2754102"><ele>321.4</ele><time>2026-03-29T14:12:15.463Z</time></trkpt><trkpt lat="43.1555388" lon="12.2754352"><ele>323.0</ele><time>2026-03-29T14:12:16.464Z</time></trkpt><trkpt lat="43.1556369" lon="12.2754632"><ele>323.4</ele><time>2026-03-29T14:12:17.463Z</time></trkpt><trkpt lat="43.1557391" lon="12.2754974"><ele>323.79999999999995</ele><time>2026-03-29T14:12:18.464Z</time></trkpt><trkpt lat="43.1558463" lon="12.2755288"><ele>324.2</ele><time>2026-03-29T14:12:19.464Z</time></trkpt><trkpt lat="43.1559554" lon="12.2755693"><ele>324.6</ele><time>2026-03-29T14:12:20.464Z</time></trkpt><trkpt lat="43.1560664" lon="12.2756153"><ele>325.0</ele><time>2026-03-29T14:12:21.464Z</time></trkpt><trkpt lat="43.1561749" lon="12.275674"><ele>325.0</ele><time>2026-03-29T14:12:22.464Z</time></trkpt><trkpt lat="43.1562838" lon="12.2757399"><ele>325.0</ele><time>2026-03-29T14:12:23.464Z</time></trkpt><trkpt lat="43.1563894" lon="12.2758075"><ele>325.0</ele><time>2026-03-29T14:12:24.464Z</time></trkpt><trkpt lat="43.1564806" lon="12.2758684"><ele>325.0</ele><time>2026-03-29T14:12:25.464Z</time></trkpt><trkpt lat="43.1565641" lon="12.2759219"><ele>325.0</ele><time>2026-03-29T14:12:26.464Z</time></trkpt><trkpt lat="43.1566395" lon="12.2759648"><ele>325.0</ele><time>2026-03-29T14:12:27.463Z</time></trkpt><trkpt lat="43.1567079" lon="12.2759971"><ele>325.0</ele><time>2026-03-29T14:12:28.464Z</time></trkpt><trkpt lat="43.156772" lon="12.2760115"><ele>325.0</ele><time>2026-03-29T14:12:29.464Z</time></trkpt><trkpt lat="43.156889" lon="12.2760015"><ele>325.0</ele><time>2026-03-29T14:12:31.464Z</time></trkpt><trkpt lat="43.1569766" lon="12.2760292"><ele>325.0</ele><time>2026-03-29T14:12:33.463Z</time></trkpt><trkpt lat="43.1570354" lon="12.2761297"><ele>325.0</ele><time>2026-03-29T14:12:35.463Z</time></trkpt><trkpt lat="43.157093" lon="12.2762702"><ele>325.0</ele><time>2026-03-29T14:12:37.463Z</time></trkpt><trkpt lat="43.1571386" lon="12.2764078"><ele>325.0</ele><time>2026-03-29T14:12:39.464Z</time></trkpt><trkpt lat="43.1571847" lon="12.2764819"><ele>325.0</ele><time>2026-03-29T14:12:41.464Z</time></trkpt><trkpt lat="43.157233" lon="12.2763923"><ele>325.0</ele><time>2026-03-29T14:12:44.463Z</time></trkpt><trkpt lat="43.1572553" lon="12.2762168"><ele>325.0</ele><time>2026-03-29T14:12:46.464Z</time></trkpt><trkpt lat="43.1572652" lon="12.2761064"><ele>325.0</ele><time>2026-03-29T14:12:47.463Z</time></trkpt><trkpt lat="43.1572515" lon="12.2759776"><ele>325.0</ele><time>2026-03-29T14:12:48.464Z</time></trkpt><trkpt lat="43.157236" lon="12.2758389"><ele>325.0</ele><time>2026-03-29T14:12:49.464Z</time></trkpt><trkpt lat="43.1572197" lon="12.2757071"><ele>325.0</ele><time>2026-03-29T14:12:50.463Z</time></trkpt><trkpt lat="43.1572079" lon="12.2755681"><ele>325.0</ele><time>2026-03-29T14:12:51.464Z</time></trkpt><trkpt lat="43.1572078" lon="12.2754281"><ele>324.75</ele><time>2026-03-29T14:12:52.464Z</time></trkpt><trkpt lat="43.1572175" lon="12.2752571"><ele>324.5</ele><time>2026-03-29T14:12:53.464Z</time></trkpt><trkpt lat="43.1572209" lon="12.2751037"><ele>324.25</ele><time>2026-03-29T14:12:54.464Z</time></trkpt><trkpt lat="43.1572421" lon="12.2748148"><ele>324.0</ele><time>2026-03-29T14:12:56.463Z</time></trkpt><trkpt lat="43.157262" lon="12.2746563"><ele>321.4</ele><time>2026-03-29T14:12:57.463Z</time></trkpt><trkpt lat="43.1572833" lon="12.274502"><ele>318.79999999999995</ele><time>2026-03-29T14:12:58.463Z</time></trkpt><trkpt lat="43.1573" lon="12.2743545"><ele>316.20000000000005</ele><time>2026-03-29T14:12:59.464Z</time></trkpt><trkpt lat="43.157314" lon="12.2742134"><ele>313.6</ele><time>2026-03-29T14:13:00.463Z</time></trkpt><trkpt lat="43.1573247" lon="12.2741048"><ele>311.0</ele><time>2026-03-29T14:13:01.464Z</time></trkpt><trkpt lat="43.1573495" lon="12.2740006"><ele>311.33333333333337</ele><time>2026-03-29T14:13:02.463Z</time></trkpt><trkpt lat="43.157401" lon="12.2739271"><ele>311.6666666666667</ele><time>2026-03-29T14:13:04.464Z</time></trkpt><trkpt lat="43.1574648" lon="12.2739382"><ele>312.0</ele><time>2026-03-29T14:13:06.463Z</time></trkpt><trkpt lat="43.1575251" lon="12.2740139"><ele>312.3333333333333</ele><time>2026-03-29T14:13:08.464Z</time></trkpt><trkpt lat="43.1575969" lon="12.2741105"><ele>312.66666666666663</ele><time>2026-03-29T14:13:10.464Z</time></trkpt><trkpt lat="43.1576851" lon="12.2742099"><ele>313.0</ele><time>2026-03-29T14:13:12.463Z</time></trkpt><trkpt lat="43.157742" lon="12.2742531"><ele>312.2</ele><time>2026-03-29T14:13:13.464Z</time></trkpt><trkpt lat="43.1578063" lon="12.274311"><ele>311.4</ele><time>2026-03-29T14:13:14.462Z</time></trkpt><trkpt lat="43.1578734" lon="12.2744069"><ele>310.59999999999997</ele><time>2026-03-29T14:13:15.464Z</time></trkpt><trkpt lat="43.1579394" lon="12.2744974"><ele>309.8</ele><time>2026-03-29T14:13:16.463Z</time></trkpt><trkpt lat="43.1580133" lon="12.2745813"><ele>309.0</ele><time>2026-03-29T14:13:17.463Z</time></trkpt><trkpt lat="43.1580852" lon="12.2746661"><ele>309.0</ele><time>2026-03-29T14:13:18.463Z</time></trkpt><trkpt lat="43.158156" lon="12.2747595"><ele>309.0</ele><time>2026-03-29T14:13:19.463Z</time></trkpt><trkpt lat="43.1581999" lon="12.2748587"><ele>309.0</ele><time>2026-03-29T14:13:20.465Z</time></trkpt><trkpt lat="43.1582584" lon="12.2749681"><ele>309.0</ele><time>2026-03-29T14:13:21.464Z</time></trkpt><trkpt lat="43.1583007" lon="12.2751046"><ele>309.0</ele><time>2026-03-29T14:13:22.463Z</time></trkpt><trkpt lat="43.1583682" lon="12.2752274"><ele>305.5</ele><time>2026-03-29T14:13:23.463Z</time></trkpt><trkpt lat="43.1584347" lon="12.2753562"><ele>302.0</ele><time>2026-03-29T14:13:24.464Z</time></trkpt><trkpt lat="43.1585054" lon="12.2754852"><ele>298.5</ele><time>2026-03-29T14:13:25.463Z</time></trkpt><trkpt lat="43.1585744" lon="12.2756143"><ele>295.0</ele><time>2026-03-29T14:13:26.463Z</time></trkpt><trkpt lat="43.1586455" lon="12.2757337"><ele>293.4</ele><time>2026-03-29T14:13:27.463Z</time></trkpt><trkpt lat="43.158722" lon="12.2758479"><ele>291.8</ele><time>2026-03-29T14:13:28.463Z</time></trkpt><trkpt lat="43.1587753" lon="12.2759554"><ele>290.2</ele><time>2026-03-29T14:13:29.464Z</time></trkpt><trkpt lat="43.1588381" lon="12.2760568"><ele>288.6</ele><time>2026-03-29T14:13:30.464Z</time></trkpt><trkpt lat="43.1588944" lon="12.2761082"><ele>287.0</ele><time>2026-03-29T14:13:31.463Z</time></trkpt><trkpt lat="43.1589544" lon="12.2762138"><ele>287.0</ele><time>2026-03-29T14:13:32.464Z</time></trkpt><trkpt lat="43.159002" lon="12.2763035"><ele>287.0</ele><time>2026-03-29T14:13:33.464Z</time></trkpt><trkpt lat="43.1590509" lon="12.2763966"><ele>287.0</ele><time>2026-03-29T14:13:34.464Z</time></trkpt><trkpt lat="43.1590895" lon="12.276522"><ele>287.0</ele><time>2026-03-29T14:13:35.463Z</time></trkpt><trkpt lat="43.1591341" lon="12.2766278"><ele>287.0</ele><time>2026-03-29T14:13:36.462Z</time></trkpt><trkpt lat="43.1591897" lon="12.2767111"><ele>287.0</ele><time>2026-03-29T14:13:37.463Z</time></trkpt><trkpt lat="43.159253" lon="12.2767907"><ele>286.2857142857143</ele><time>2026-03-29T14:13:38.464Z</time></trkpt><trkpt lat="43.1593092" lon="12.2768533"><ele>285.57142857142856</ele><time>2026-03-29T14:13:39.464Z</time></trkpt><trkpt lat="43.1593607" lon="12.2769109"><ele>284.8571428571429</ele><time>2026-03-29T14:13:40.463Z</time></trkpt><trkpt lat="43.1594157" lon="12.2769642"><ele>284.1428571428571</ele><time>2026-03-29T14:13:41.463Z</time></trkpt><trkpt lat="43.1594828" lon="12.2769989"><ele>283.42857142857144</ele><time>2026-03-29T14:13:42.463Z</time></trkpt><trkpt lat="43.1595515" lon="12.2769884"><ele>282.7142857142857</ele><time>2026-03-29T14:13:43.464Z</time></trkpt><trkpt lat="43.1596265" lon="12.2770194"><ele>282.0</ele><time>2026-03-29T14:13:44.463Z</time></trkpt><trkpt lat="43.1596997" lon="12.2770418"><ele>282.0</ele><time>2026-03-29T14:13:45.463Z</time></trkpt><trkpt lat="43.1598018" lon="12.2770666"><ele>282.0</ele><time>2026-03-29T14:13:47.464Z</time></trkpt><trkpt lat="43.1599253" lon="12.2770261"><ele>282.0</ele><time>2026-03-29T14:13:49.463Z</time></trkpt><trkpt lat="43.1600102" lon="12.2769845"><ele>282.0</ele><time>2026-03-29T14:13:50.463Z</time></trkpt><trkpt lat="43.1601056" lon="12.276933"><ele>282.0</ele><time>2026-03-29T14:13:51.464Z</time></trkpt><trkpt lat="43.1602122" lon="12.2768919"><ele>279.75</ele><time>2026-03-29T14:13:52.464Z</time></trkpt><trkpt lat="43.1603186" lon="12.2768379"><ele>277.5</ele><time>2026-03-29T14:13:53.464Z</time></trkpt><trkpt lat="43.160444" lon="12.2767643"><ele>275.25</ele><time>2026-03-29T14:13:54.464Z</time></trkpt><trkpt lat="43.160548" lon="12.2766861"><ele>273.0</ele><time>2026-03-29T14:13:55.464Z</time></trkpt><trkpt lat="43.1606622" lon="12.2766147"><ele>273.0</ele><time>2026-03-29T14:13:56.463Z</time></trkpt><trkpt lat="43.1607793" lon="12.2765532"><ele>273.0</ele><time>2026-03-29T14:13:57.463Z</time></trkpt><trkpt lat="43.1608819" lon="12.2764818"><ele>273.0</ele><time>2026-03-29T14:13:58.463Z</time></trkpt><trkpt lat="43.1609817" lon="12.2764121"><ele>273.0</ele><time>2026-03-29T14:13:59.463Z</time></trkpt><trkpt lat="43.1610463" lon="12.2763804"><ele>273.0</ele><time>2026-03-29T14:14:00.464Z</time></trkpt><trkpt lat="43.1611409" lon="12.2763229"><ele>273.0</ele><time>2026-03-29T14:14:02.464Z</time></trkpt><trkpt lat="43.1611776" lon="12.2761878"><ele>273.0</ele><time>2026-03-29T14:14:06.464Z</time></trkpt><trkpt lat="43.1612536" lon="12.2761024"><ele>273.0</ele><time>2026-03-29T14:14:08.464Z</time></trkpt><trkpt lat="43.1613604" lon="12.2760765"><ele>273.0</ele><time>2026-03-29T14:14:10.464Z</time></trkpt><trkpt lat="43.161434" lon="12.2760751"><ele>273.0</ele><time>2026-03-29T14:14:11.463Z</time></trkpt><trkpt lat="43.1615365" lon="12.2761262"><ele>270.4</ele><time>2026-03-29T14:14:12.464Z</time></trkpt><trkpt lat="43.1616313" lon="12.2761547"><ele>267.8</ele><time>2026-03-29T14:14:13.464Z</time></trkpt><trkpt lat="43.1617294" lon="12.2761834"><ele>265.2</ele><time>2026-03-29T14:14:14.463Z</time></trkpt><trkpt lat="43.1618385" lon="12.2762039"><ele>262.6</ele><time>2026-03-29T14:14:15.463Z</time></trkpt><trkpt lat="43.1619539" lon="12.2762239"><ele>260.0</ele><time>2026-03-29T14:14:16.464Z</time></trkpt><trkpt lat="43.1620715" lon="12.2762371"><ele>260.0</ele><time>2026-03-29T14:14:17.464Z</time></trkpt><trkpt lat="43.1621931" lon="12.2762323"><ele>260.0</ele><time>2026-03-29T14:14:18.464Z</time></trkpt><trkpt lat="43.1623121" lon="12.2762094"><ele>260.0</ele><time>2026-03-29T14:14:19.463Z</time></trkpt><trkpt lat="43.1624261" lon="12.2761612"><ele>260.0</ele><time>2026-03-29T14:14:20.464Z</time></trkpt><trkpt lat="43.1625393" lon="12.2761001"><ele>260.0</ele><time>2026-03-29T14:14:21.463Z</time></trkpt><trkpt lat="43.1626498" lon="12.2760401"><ele>260.0</ele><time>2026-03-29T14:14:22.464Z</time></trkpt><trkpt lat="43.1627612" lon="12.2759954"><ele>260.0</ele><time>2026-03-29T14:14:23.463Z</time></trkpt><trkpt lat="43.1628689" lon="12.2759767"><ele>260.0</ele><time>2026-03-29T14:14:24.463Z</time></trkpt><trkpt lat="43.1629825" lon="12.2759882"><ele>260.0</ele><time>2026-03-29T14:14:25.464Z</time></trkpt><trkpt lat="43.1630925" lon="12.2760216"><ele>260.0</ele><time>2026-03-29T14:14:26.463Z</time></trkpt><trkpt lat="43.1632001" lon="12.2760654"><ele>260.0</ele><time>2026-03-29T14:14:27.464Z</time></trkpt><trkpt lat="43.1633041" lon="12.2761186"><ele>260.0</ele><time>2026-03-29T14:14:28.463Z</time></trkpt><trkpt lat="43.1634021" lon="12.2761856"><ele>260.0</ele><time>2026-03-29T14:14:29.464Z</time></trkpt><trkpt lat="43.1634987" lon="12.2762627"><ele>259.8</ele><time>2026-03-29T14:14:30.463Z</time></trkpt><trkpt lat="43.1635932" lon="12.2763457"><ele>259.6</ele><time>2026-03-29T14:14:31.464Z</time></trkpt><trkpt lat="43.1636809" lon="12.276419"><ele>259.4</ele><time>2026-03-29T14:14:32.463Z</time></trkpt><trkpt lat="43.1637569" lon="12.2764804"><ele>259.2</ele><time>2026-03-29T14:14:33.464Z</time></trkpt><trkpt lat="43.1638143" lon="12.2765343"><ele>259.0</ele><time>2026-03-29T14:14:34.463Z</time></trkpt><trkpt lat="43.1638983" lon="12.2765882"><ele>258.66666666666663</ele><time>2026-03-29T14:14:36.463Z</time></trkpt><trkpt lat="43.1639555" lon="12.2766433"><ele>258.3333333333333</ele><time>2026-03-29T14:14:38.464Z</time></trkpt><trkpt lat="43.1640106" lon="12.2767057"><ele>258.0</ele><time>2026-03-29T14:14:48.463Z</time></trkpt><trkpt lat="43.1639945" lon="12.2768335"><ele>257.6666666666667</ele><time>2026-03-29T14:14:50.463Z</time></trkpt><trkpt lat="43.1639917" lon="12.2769221"><ele>257.33333333333337</ele><time>2026-03-29T14:14:51.462Z</time></trkpt><trkpt lat="43.1639871" lon="12.2770253"><ele>257.0</ele><time>2026-03-29T14:14:52.463Z</time></trkpt><trkpt lat="43.1639851" lon="12.2771316"><ele>257.0</ele><time>2026-03-29T14:14:53.463Z</time></trkpt><trkpt lat="43.1639822" lon="12.2772479"><ele>257.0</ele><time>2026-03-29T14:14:54.463Z</time></trkpt><trkpt lat="43.1639695" lon="12.2773794"><ele>257.0</ele><time>2026-03-29T14:14:55.463Z</time></trkpt><trkpt lat="43.1639567" lon="12.2775174"><ele>257.0</ele><time>2026-03-29T14:14:56.463Z</time></trkpt><trkpt lat="43.1639488" lon="12.2776603"><ele>257.0</ele><time>2026-03-29T14:14:57.463Z</time></trkpt><trkpt lat="43.1639462" lon="12.2778125"><ele>257.0</ele><time>2026-03-29T14:14:58.463Z</time></trkpt><trkpt lat="43.1639536" lon="12.2779683"><ele>257.0</ele><time>2026-03-29T14:14:59.464Z</time></trkpt><trkpt lat="43.1639747" lon="12.278126"><ele>257.0</ele><time>2026-03-29T14:15:00.464Z</time></trkpt><trkpt lat="43.1640013" lon="12.2782899"><ele>257.0</ele><time>2026-03-29T14:15:01.462Z</time></trkpt><trkpt lat="43.1640432" lon="12.2784438"><ele>256.6</ele><time>2026-03-29T14:15:02.464Z</time></trkpt><trkpt lat="43.1640741" lon="12.2786027"><ele>256.2</ele><time>2026-03-29T14:15:03.464Z</time></trkpt><trkpt lat="43.1640968" lon="12.2787336"><ele>255.8</ele><time>2026-03-29T14:15:04.464Z</time></trkpt><trkpt lat="43.1641204" lon="12.2788616"><ele>255.4</ele><time>2026-03-29T14:15:05.463Z</time></trkpt><trkpt lat="43.1641281" lon="12.2789641"><ele>255.0</ele><time>2026-03-29T14:15:06.463Z</time></trkpt><trkpt lat="43.1641276" lon="12.2791009"><ele>254.83333333333334</ele><time>2026-03-29T14:15:08.464Z</time></trkpt><trkpt lat="43.1640864" lon="12.2791822"><ele>254.66666666666669</ele><time>2026-03-29T14:15:10.464Z</time></trkpt><trkpt lat="43.1639856" lon="12.2792048"><ele>254.5</ele><time>2026-03-29T14:15:12.464Z</time></trkpt><trkpt lat="43.1639102" lon="12.2792305"><ele>254.33333333333334</ele><time>2026-03-29T14:15:13.463Z</time></trkpt><trkpt lat="43.1638305" lon="12.2792686"><ele>254.16666666666669</ele><time>2026-03-29T14:15:14.463Z</time></trkpt><trkpt lat="43.1637484" lon="12.2793076"><ele>254.0</ele><time>2026-03-29T14:15:15.464Z</time></trkpt><trkpt lat="43.1636627" lon="12.2793541"><ele>253.6</ele><time>2026-03-29T14:15:16.463Z</time></trkpt><trkpt lat="43.1635745" lon="12.279416"><ele>253.2</ele><time>2026-03-29T14:15:17.463Z</time></trkpt><trkpt lat="43.1634916" lon="12.2794974"><ele>252.79999999999998</ele><time>2026-03-29T14:15:18.464Z</time></trkpt><trkpt lat="43.1634149" lon="12.2795957"><ele>252.39999999999998</ele><time>2026-03-29T14:15:19.463Z</time></trkpt><trkpt lat="43.1633436" lon="12.2797091"><ele>252.0</ele><time>2026-03-29T14:15:20.464Z</time></trkpt><trkpt lat="43.1632744" lon="12.2798314"><ele>252.0</ele><time>2026-03-29T14:15:21.463Z</time></trkpt><trkpt lat="43.1632047" lon="12.2799608"><ele>252.0</ele><time>2026-03-29T14:15:22.464Z</time></trkpt><trkpt lat="43.1631306" lon="12.2800975"><ele>252.0</ele><time>2026-03-29T14:15:23.463Z</time></trkpt><trkpt lat="43.1630545" lon="12.2802363"><ele>252.0</ele><time>2026-03-29T14:15:24.463Z</time></trkpt><trkpt lat="43.1629778" lon="12.2803792"><ele>251.75</ele><time>2026-03-29T14:15:25.463Z</time></trkpt><trkpt lat="43.1628991" lon="12.2805252"><ele>251.5</ele><time>2026-03-29T14:15:26.464Z</time></trkpt><trkpt lat="43.162824" lon="12.2806773"><ele>251.25</ele><time>2026-03-29T14:15:27.463Z</time></trkpt><trkpt lat="43.1627499" lon="12.2808208"><ele>251.0</ele><time>2026-03-29T14:15:28.463Z</time></trkpt><trkpt lat="43.1626834" lon="12.2809493"><ele>250.8</ele><time>2026-03-29T14:15:29.463Z</time></trkpt><trkpt lat="43.1626222" lon="12.2810725"><ele>250.60000000000002</ele><time>2026-03-29T14:15:30.463Z</time></trkpt><trkpt lat="43.162565" lon="12.2811881"><ele>250.4</ele><time>2026-03-29T14:15:31.464Z</time></trkpt><trkpt lat="43.1625072" lon="12.2812966"><ele>250.2</ele><time>2026-03-29T14:15:32.464Z</time></trkpt><trkpt lat="43.1624489" lon="12.2814044"><ele>250.0</ele><time>2026-03-29T14:15:33.464Z</time></trkpt><trkpt lat="43.1623932" lon="12.2815155"><ele>250.0</ele><time>2026-03-29T14:15:34.463Z</time></trkpt><trkpt lat="43.1623354" lon="12.2816287"><ele>250.0</ele><time>2026-03-29T14:15:35.464Z</time></trkpt><trkpt lat="43.1622771" lon="12.2817411"><ele>250.0</ele><time>2026-03-29T14:15:36.464Z</time></trkpt><trkpt lat="43.1622197" lon="12.2818564"><ele>250.0</ele><time>2026-03-29T14:15:37.463Z</time></trkpt><trkpt lat="43.1621647" lon="12.2819669"><ele>250.0</ele><time>2026-03-29T14:15:38.463Z</time></trkpt><trkpt lat="43.1621135" lon="12.2820743"><ele>249.99999999999997</ele><time>2026-03-29T14:15:39.464Z</time></trkpt><trkpt lat="43.1620634" lon="12.2821795"><ele>250.0</ele><time>2026-03-29T14:15:40.464Z</time></trkpt><trkpt lat="43.1620146" lon="12.2822736"><ele>250.0</ele><time>2026-03-29T14:15:41.464Z</time></trkpt><trkpt lat="43.1619671" lon="12.2823637"><ele>250.0</ele><time>2026-03-29T14:15:42.464Z</time></trkpt><trkpt lat="43.1619223" lon="12.2824454"><ele>249.99999999999997</ele><time>2026-03-29T14:15:43.464Z</time></trkpt><trkpt lat="43.1618819" lon="12.2825236"><ele>250.0</ele><time>2026-03-29T14:15:44.463Z</time></trkpt><trkpt lat="43.161818" lon="12.2826621"><ele>250.14285714285714</ele><time>2026-03-29T14:15:46.463Z</time></trkpt><trkpt lat="43.1617712" lon="12.2827741"><ele>250.28571428571428</ele><time>2026-03-29T14:15:48.464Z</time></trkpt><trkpt lat="43.1617239" lon="12.2828423"><ele>250.42857142857142</ele><time>2026-03-29T14:15:50.463Z</time></trkpt><trkpt lat="43.1616794" lon="12.2829211"><ele>250.57142857142856</ele><time>2026-03-29T14:15:52.464Z</time></trkpt><trkpt lat="43.161646" lon="12.2829988"><ele>250.71428571428572</ele><time>2026-03-29T14:15:54.463Z</time></trkpt><trkpt lat="43.1616103" lon="12.2830714"><ele>250.85714285714283</ele><time>2026-03-29T14:15:56.463Z</time></trkpt><trkpt lat="43.1615732" lon="12.2831502"><ele>250.99999999999997</ele><time>2026-03-29T14:15:58.464Z</time></trkpt><trkpt lat="43.1615395" lon="12.2832231"><ele>250.83333333333334</ele><time>2026-03-29T14:16:00.463Z</time></trkpt><trkpt lat="43.1614923" lon="12.2833114"><ele>250.66666666666669</ele><time>2026-03-29T14:16:02.464Z</time></trkpt><trkpt lat="43.1614377" lon="12.283407"><ele>250.5</ele><time>2026-03-29T14:16:04.464Z</time></trkpt><trkpt lat="43.1613727" lon="12.283526"><ele>250.33333333333331</ele><time>2026-03-29T14:16:06.463Z</time></trkpt><trkpt lat="43.1613348" lon="12.283595"><ele>250.16666666666666</ele><time>2026-03-29T14:16:07.462Z</time></trkpt><trkpt lat="43.1612777" lon="12.2837008"><ele>250.0</ele><time>2026-03-29T14:16:09.463Z</time></trkpt><trkpt lat="43.1612366" lon="12.2837876"><ele>250.0</ele><time>2026-03-29T14:16:11.464Z</time></trkpt><trkpt lat="43.161196" lon="12.2838576"><ele>250.0</ele><time>2026-03-29T14:16:14.464Z</time></trkpt><trkpt lat="43.1611555" lon="12.2839306"><ele>250.0</ele><time>2026-03-29T14:16:20.463Z</time></trkpt><trkpt lat="43.1610936" lon="12.28401"><ele>250.0</ele><time>2026-03-29T14:16:24.464Z</time></trkpt><trkpt lat="43.161025" lon="12.2840173"><ele>250.0</ele><time>2026-03-29T14:16:26.464Z</time></trkpt><trkpt lat="43.1609584" lon="12.2840297"><ele>250.0</ele><time>2026-03-29T14:16:29.463Z</time></trkpt><trkpt lat="43.1608786" lon="12.2840705"><ele>250.0</ele><time>2026-03-29T14:16:32.464Z</time></trkpt><trkpt lat="43.1608198" lon="12.2841052"><ele>252.0</ele><time>2026-03-29T14:16:34.463Z</time></trkpt><trkpt lat="43.1607413" lon="12.2841313"><ele>252.0</ele><time>2026-03-29T14:16:36.463Z</time></trkpt><trkpt lat="43.160644" lon="12.2841226"><ele>250.0</ele><time>2026-03-29T14:16:38.463Z</time></trkpt><trkpt lat="43.1605628" lon="12.2841594"><ele>250.0</ele><time>2026-03-29T14:16:40.463Z</time></trkpt><trkpt lat="43.1605382" lon="12.2842488"><ele>250.0</ele><time>2026-03-29T14:16:42.464Z</time></trkpt><trkpt lat="43.160607" lon="12.2842705"><ele>250.0</ele><time>2026-03-29T14:16:46.463Z</time></trkpt></trkseg></trk></gpx>